<?xml version="1.0" encoding="UTF-8" standalone="no" ?>
<gpx xmlns="http://www.topografix.com/GPX/1/1" xmlns:xsi="http://www.w3.org/2001/XMLSchema-instance" xsi:schemaLocation="http://www.topografix.com/GPX/1/1 http://www.topografix.com/GPX/1/1/gpx.xsd" version="1.1" creator="VisuGPX - https://www.visugpx.com">
  <metadata>
    <name>Swimrun Korrigeri</name>
    <desc><![CDATA[Swimrun Korrigeri]]></desc>
  </metadata>
  <trk>
    <name><![CDATA[Swimrun Korrigeri]]></name>
    <trkseg>
      <trkpt lat="43.47612" lon="-1.56745">
        <ele>8.7</ele>
        <time>2021-09-05T06:01:11Z</time>
      </trkpt>
      <trkpt lat="43.47615" lon="-1.56744">
        <ele>8.7</ele>
        <time>2021-09-05T06:01:17Z</time>
      </trkpt>
      <trkpt lat="43.47619" lon="-1.56742">
        <ele>8.7</ele>
        <time>2021-09-05T06:01:18Z</time>
      </trkpt>
      <trkpt lat="43.47622" lon="-1.56741">
        <ele>8.7</ele>
        <time>2021-09-05T06:01:19Z</time>
      </trkpt>
      <trkpt lat="43.47626" lon="-1.56739">
        <ele>8.7</ele>
        <time>2021-09-05T06:01:20Z</time>
      </trkpt>
      <trkpt lat="43.47629" lon="-1.56738">
        <ele>8.6</ele>
        <time>2021-09-05T06:01:21Z</time>
      </trkpt>
      <trkpt lat="43.47634" lon="-1.56735">
        <ele>8.6</ele>
        <time>2021-09-05T06:01:22Z</time>
      </trkpt>
      <trkpt lat="43.47638" lon="-1.56733">
        <ele>8.6</ele>
        <time>2021-09-05T06:01:23Z</time>
      </trkpt>
      <trkpt lat="43.47643" lon="-1.56732">
        <ele>8.6</ele>
        <time>2021-09-05T06:01:24Z</time>
      </trkpt>
      <trkpt lat="43.47646" lon="-1.5673">
        <ele>8.6</ele>
        <time>2021-09-05T06:01:25Z</time>
      </trkpt>
      <trkpt lat="43.47651" lon="-1.56729">
        <ele>8.6</ele>
        <time>2021-09-05T06:01:26Z</time>
      </trkpt>
      <trkpt lat="43.47654" lon="-1.56728">
        <ele>8.6</ele>
        <time>2021-09-05T06:01:27Z</time>
      </trkpt>
      <trkpt lat="43.47658" lon="-1.56728">
        <ele>8.6</ele>
        <time>2021-09-05T06:01:28Z</time>
      </trkpt>
      <trkpt lat="43.47662" lon="-1.56726">
        <ele>8.6</ele>
        <time>2021-09-05T06:01:29Z</time>
      </trkpt>
      <trkpt lat="43.47667" lon="-1.56724">
        <ele>8.6</ele>
        <time>2021-09-05T06:01:30Z</time>
      </trkpt>
      <trkpt lat="43.47671" lon="-1.56722">
        <ele>8.6</ele>
        <time>2021-09-05T06:01:31Z</time>
      </trkpt>
      <trkpt lat="43.47676" lon="-1.5672">
        <ele>8.6</ele>
        <time>2021-09-05T06:01:32Z</time>
      </trkpt>
      <trkpt lat="43.47679" lon="-1.56718">
        <ele>8.6</ele>
        <time>2021-09-05T06:01:33Z</time>
      </trkpt>
      <trkpt lat="43.47683" lon="-1.56716">
        <ele>8.6</ele>
        <time>2021-09-05T06:01:34Z</time>
      </trkpt>
      <trkpt lat="43.47687" lon="-1.56714">
        <ele>8.6</ele>
        <time>2021-09-05T06:01:35Z</time>
      </trkpt>
      <trkpt lat="43.47691" lon="-1.56712">
        <ele>8.6</ele>
        <time>2021-09-05T06:01:36Z</time>
      </trkpt>
      <trkpt lat="43.47696" lon="-1.5671">
        <ele>8.6</ele>
        <time>2021-09-05T06:01:37Z</time>
      </trkpt>
      <trkpt lat="43.47699" lon="-1.56708">
        <ele>8.6</ele>
        <time>2021-09-05T06:01:38Z</time>
      </trkpt>
      <trkpt lat="43.47703" lon="-1.56706">
        <ele>8.6</ele>
        <time>2021-09-05T06:01:39Z</time>
      </trkpt>
      <trkpt lat="43.47708" lon="-1.56705">
        <ele>8.6</ele>
        <time>2021-09-05T06:01:40Z</time>
      </trkpt>
      <trkpt lat="43.47711" lon="-1.56704">
        <ele>8.6</ele>
        <time>2021-09-05T06:01:41Z</time>
      </trkpt>
      <trkpt lat="43.47716" lon="-1.56701">
        <ele>8.6</ele>
        <time>2021-09-05T06:01:42Z</time>
      </trkpt>
      <trkpt lat="43.47719" lon="-1.56699">
        <ele>8.7</ele>
        <time>2021-09-05T06:01:43Z</time>
      </trkpt>
      <trkpt lat="43.47723" lon="-1.56697">
        <ele>8.7</ele>
        <time>2021-09-05T06:01:44Z</time>
      </trkpt>
      <trkpt lat="43.47726" lon="-1.56695">
        <ele>8.7</ele>
        <time>2021-09-05T06:01:45Z</time>
      </trkpt>
      <trkpt lat="43.4773" lon="-1.56693">
        <ele>8.6</ele>
        <time>2021-09-05T06:01:46Z</time>
      </trkpt>
      <trkpt lat="43.47735" lon="-1.56691">
        <ele>8.6</ele>
        <time>2021-09-05T06:01:47Z</time>
      </trkpt>
      <trkpt lat="43.47739" lon="-1.56689">
        <ele>8.6</ele>
        <time>2021-09-05T06:01:48Z</time>
      </trkpt>
      <trkpt lat="43.47743" lon="-1.56687">
        <ele>8.6</ele>
        <time>2021-09-05T06:01:49Z</time>
      </trkpt>
      <trkpt lat="43.47747" lon="-1.56686">
        <ele>8.6</ele>
        <time>2021-09-05T06:01:50Z</time>
      </trkpt>
      <trkpt lat="43.47751" lon="-1.56684">
        <ele>8.6</ele>
        <time>2021-09-05T06:01:51Z</time>
      </trkpt>
      <trkpt lat="43.47756" lon="-1.56682">
        <ele>8.6</ele>
        <time>2021-09-05T06:01:52Z</time>
      </trkpt>
      <trkpt lat="43.4776" lon="-1.5668">
        <ele>8.6</ele>
        <time>2021-09-05T06:01:53Z</time>
      </trkpt>
      <trkpt lat="43.47764" lon="-1.56678">
        <ele>8.6</ele>
        <time>2021-09-05T06:01:54Z</time>
      </trkpt>
      <trkpt lat="43.47768" lon="-1.56676">
        <ele>8.6</ele>
        <time>2021-09-05T06:01:55Z</time>
      </trkpt>
      <trkpt lat="43.47773" lon="-1.56674">
        <ele>8.6</ele>
        <time>2021-09-05T06:01:56Z</time>
      </trkpt>
      <trkpt lat="43.47778" lon="-1.56672">
        <ele>8.6</ele>
        <time>2021-09-05T06:01:57Z</time>
      </trkpt>
      <trkpt lat="43.47782" lon="-1.56671">
        <ele>8.6</ele>
        <time>2021-09-05T06:01:58Z</time>
      </trkpt>
      <trkpt lat="43.47782" lon="-1.56671">
        <ele>8.6</ele>
        <time>2021-09-05T06:01:59Z</time>
      </trkpt>
      <trkpt lat="43.47793" lon="-1.56668">
        <ele>8.6</ele>
        <time>2021-09-05T06:02:00Z</time>
      </trkpt>
      <trkpt lat="43.47795" lon="-1.56668">
        <ele>8.6</ele>
        <time>2021-09-05T06:02:01Z</time>
      </trkpt>
      <trkpt lat="43.478" lon="-1.56666">
        <ele>8.6</ele>
        <time>2021-09-05T06:02:02Z</time>
      </trkpt>
      <trkpt lat="43.47804" lon="-1.56665">
        <ele>8.6</ele>
        <time>2021-09-05T06:02:03Z</time>
      </trkpt>
      <trkpt lat="43.47808" lon="-1.56664">
        <ele>8.6</ele>
        <time>2021-09-05T06:02:04Z</time>
      </trkpt>
      <trkpt lat="43.47812" lon="-1.56663">
        <ele>8.6</ele>
        <time>2021-09-05T06:02:05Z</time>
      </trkpt>
      <trkpt lat="43.47816" lon="-1.56662">
        <ele>8.6</ele>
        <time>2021-09-05T06:02:06Z</time>
      </trkpt>
      <trkpt lat="43.4782" lon="-1.56661">
        <ele>8.6</ele>
        <time>2021-09-05T06:02:07Z</time>
      </trkpt>
      <trkpt lat="43.47824" lon="-1.5666">
        <ele>8.7</ele>
        <time>2021-09-05T06:02:08Z</time>
      </trkpt>
      <trkpt lat="43.47828" lon="-1.56659">
        <ele>8.7</ele>
        <time>2021-09-05T06:02:09Z</time>
      </trkpt>
      <trkpt lat="43.47831" lon="-1.56659">
        <ele>8.7</ele>
        <time>2021-09-05T06:02:10Z</time>
      </trkpt>
      <trkpt lat="43.47835" lon="-1.56658">
        <ele>8.7</ele>
        <time>2021-09-05T06:02:11Z</time>
      </trkpt>
      <trkpt lat="43.47839" lon="-1.56657">
        <ele>8.7</ele>
        <time>2021-09-05T06:02:12Z</time>
      </trkpt>
      <trkpt lat="43.47844" lon="-1.56657">
        <ele>8.7</ele>
        <time>2021-09-05T06:02:13Z</time>
      </trkpt>
      <trkpt lat="43.47848" lon="-1.56656">
        <ele>8.7</ele>
        <time>2021-09-05T06:02:14Z</time>
      </trkpt>
      <trkpt lat="43.47852" lon="-1.56654">
        <ele>8.7</ele>
        <time>2021-09-05T06:02:15Z</time>
      </trkpt>
      <trkpt lat="43.47856" lon="-1.56653">
        <ele>8.7</ele>
        <time>2021-09-05T06:02:16Z</time>
      </trkpt>
      <trkpt lat="43.47861" lon="-1.56651">
        <ele>8.7</ele>
        <time>2021-09-05T06:02:17Z</time>
      </trkpt>
      <trkpt lat="43.47865" lon="-1.56649">
        <ele>8.7</ele>
        <time>2021-09-05T06:02:18Z</time>
      </trkpt>
      <trkpt lat="43.4787" lon="-1.56647">
        <ele>8.7</ele>
        <time>2021-09-05T06:02:19Z</time>
      </trkpt>
      <trkpt lat="43.47875" lon="-1.56645">
        <ele>8.7</ele>
        <time>2021-09-05T06:02:20Z</time>
      </trkpt>
      <trkpt lat="43.47879" lon="-1.56645">
        <ele>8.7</ele>
        <time>2021-09-05T06:02:21Z</time>
      </trkpt>
      <trkpt lat="43.47884" lon="-1.56644">
        <ele>8.6</ele>
        <time>2021-09-05T06:02:22Z</time>
      </trkpt>
      <trkpt lat="43.47888" lon="-1.56642">
        <ele>8.6</ele>
        <time>2021-09-05T06:02:23Z</time>
      </trkpt>
      <trkpt lat="43.47892" lon="-1.56641">
        <ele>8.6</ele>
        <time>2021-09-05T06:02:24Z</time>
      </trkpt>
      <trkpt lat="43.47896" lon="-1.56639">
        <ele>8.6</ele>
        <time>2021-09-05T06:02:25Z</time>
      </trkpt>
      <trkpt lat="43.479" lon="-1.56638">
        <ele>8.6</ele>
        <time>2021-09-05T06:02:26Z</time>
      </trkpt>
      <trkpt lat="43.47904" lon="-1.56637">
        <ele>8.7</ele>
        <time>2021-09-05T06:02:27Z</time>
      </trkpt>
      <trkpt lat="43.47909" lon="-1.56636">
        <ele>8.7</ele>
        <time>2021-09-05T06:02:28Z</time>
      </trkpt>
      <trkpt lat="43.47911" lon="-1.56636">
        <ele>8.7</ele>
        <time>2021-09-05T06:02:29Z</time>
      </trkpt>
      <trkpt lat="43.47917" lon="-1.56636">
        <ele>8.7</ele>
        <time>2021-09-05T06:02:30Z</time>
      </trkpt>
      <trkpt lat="43.47921" lon="-1.56635">
        <ele>8.7</ele>
        <time>2021-09-05T06:02:31Z</time>
      </trkpt>
      <trkpt lat="43.47925" lon="-1.56635">
        <ele>8.7</ele>
        <time>2021-09-05T06:02:32Z</time>
      </trkpt>
      <trkpt lat="43.4793" lon="-1.56634">
        <ele>8.7</ele>
        <time>2021-09-05T06:02:33Z</time>
      </trkpt>
      <trkpt lat="43.47933" lon="-1.56634">
        <ele>8.7</ele>
        <time>2021-09-05T06:02:34Z</time>
      </trkpt>
      <trkpt lat="43.47938" lon="-1.56632">
        <ele>8.7</ele>
        <time>2021-09-05T06:02:35Z</time>
      </trkpt>
      <trkpt lat="43.47942" lon="-1.56631">
        <ele>8.7</ele>
        <time>2021-09-05T06:02:36Z</time>
      </trkpt>
      <trkpt lat="43.47947" lon="-1.5663">
        <ele>8.7</ele>
        <time>2021-09-05T06:02:37Z</time>
      </trkpt>
      <trkpt lat="43.47951" lon="-1.56629">
        <ele>8.7</ele>
        <time>2021-09-05T06:02:38Z</time>
      </trkpt>
      <trkpt lat="43.47955" lon="-1.56629">
        <ele>8.7</ele>
        <time>2021-09-05T06:02:39Z</time>
      </trkpt>
      <trkpt lat="43.4796" lon="-1.56628">
        <ele>8.6</ele>
        <time>2021-09-05T06:02:40Z</time>
      </trkpt>
      <trkpt lat="43.47965" lon="-1.56627">
        <ele>8.6</ele>
        <time>2021-09-05T06:02:41Z</time>
      </trkpt>
      <trkpt lat="43.47969" lon="-1.56627">
        <ele>8.6</ele>
        <time>2021-09-05T06:02:42Z</time>
      </trkpt>
      <trkpt lat="43.47973" lon="-1.56627">
        <ele>8.6</ele>
        <time>2021-09-05T06:02:43Z</time>
      </trkpt>
      <trkpt lat="43.47978" lon="-1.56627">
        <ele>8.6</ele>
        <time>2021-09-05T06:02:44Z</time>
      </trkpt>
      <trkpt lat="43.47982" lon="-1.56627">
        <ele>8.6</ele>
        <time>2021-09-05T06:02:45Z</time>
      </trkpt>
      <trkpt lat="43.47986" lon="-1.56626">
        <ele>8.6</ele>
        <time>2021-09-05T06:02:46Z</time>
      </trkpt>
      <trkpt lat="43.47989" lon="-1.56626">
        <ele>8.6</ele>
        <time>2021-09-05T06:02:47Z</time>
      </trkpt>
      <trkpt lat="43.47994" lon="-1.56624">
        <ele>8.6</ele>
        <time>2021-09-05T06:02:48Z</time>
      </trkpt>
      <trkpt lat="43.47998" lon="-1.56624">
        <ele>8.6</ele>
        <time>2021-09-05T06:02:49Z</time>
      </trkpt>
      <trkpt lat="43.48002" lon="-1.56623">
        <ele>8.6</ele>
        <time>2021-09-05T06:02:50Z</time>
      </trkpt>
      <trkpt lat="43.48006" lon="-1.56623">
        <ele>8.6</ele>
        <time>2021-09-05T06:02:51Z</time>
      </trkpt>
      <trkpt lat="43.4801" lon="-1.56622">
        <ele>8.7</ele>
        <time>2021-09-05T06:02:52Z</time>
      </trkpt>
      <trkpt lat="43.48015" lon="-1.56621">
        <ele>8.7</ele>
        <time>2021-09-05T06:02:53Z</time>
      </trkpt>
      <trkpt lat="43.4802" lon="-1.5662">
        <ele>8.7</ele>
        <time>2021-09-05T06:02:54Z</time>
      </trkpt>
      <trkpt lat="43.48024" lon="-1.5662">
        <ele>8.7</ele>
        <time>2021-09-05T06:02:55Z</time>
      </trkpt>
      <trkpt lat="43.48028" lon="-1.5662">
        <ele>8.7</ele>
        <time>2021-09-05T06:02:56Z</time>
      </trkpt>
      <trkpt lat="43.48032" lon="-1.56621">
        <ele>8.7</ele>
        <time>2021-09-05T06:02:57Z</time>
      </trkpt>
      <trkpt lat="43.48036" lon="-1.56624">
        <ele>8.7</ele>
        <time>2021-09-05T06:02:58Z</time>
      </trkpt>
      <trkpt lat="43.4804" lon="-1.56626">
        <ele>8.7</ele>
        <time>2021-09-05T06:02:59Z</time>
      </trkpt>
      <trkpt lat="43.48044" lon="-1.56629">
        <ele>8.7</ele>
        <time>2021-09-05T06:03:00Z</time>
      </trkpt>
      <trkpt lat="43.48047" lon="-1.56632">
        <ele>8.7</ele>
        <time>2021-09-05T06:03:01Z</time>
      </trkpt>
      <trkpt lat="43.4805" lon="-1.56636">
        <ele>8.7</ele>
        <time>2021-09-05T06:03:02Z</time>
      </trkpt>
      <trkpt lat="43.48053" lon="-1.5664">
        <ele>8.7</ele>
        <time>2021-09-05T06:03:03Z</time>
      </trkpt>
      <trkpt lat="43.48056" lon="-1.56644">
        <ele>8.8</ele>
        <time>2021-09-05T06:03:04Z</time>
      </trkpt>
      <trkpt lat="43.48059" lon="-1.56649">
        <ele>8.8</ele>
        <time>2021-09-05T06:03:05Z</time>
      </trkpt>
      <trkpt lat="43.48062" lon="-1.56653">
        <ele>8.8</ele>
        <time>2021-09-05T06:03:06Z</time>
      </trkpt>
      <trkpt lat="43.48065" lon="-1.56658">
        <ele>8.8</ele>
        <time>2021-09-05T06:03:07Z</time>
      </trkpt>
      <trkpt lat="43.48067" lon="-1.56663">
        <ele>8.8</ele>
        <time>2021-09-05T06:03:08Z</time>
      </trkpt>
      <trkpt lat="43.4807" lon="-1.56668">
        <ele>8.8</ele>
        <time>2021-09-05T06:03:09Z</time>
      </trkpt>
      <trkpt lat="43.48072" lon="-1.56673">
        <ele>8.8</ele>
        <time>2021-09-05T06:03:10Z</time>
      </trkpt>
      <trkpt lat="43.48075" lon="-1.56678">
        <ele>8.8</ele>
        <time>2021-09-05T06:03:11Z</time>
      </trkpt>
      <trkpt lat="43.48077" lon="-1.56683">
        <ele>8.8</ele>
        <time>2021-09-05T06:03:12Z</time>
      </trkpt>
      <trkpt lat="43.48078" lon="-1.56689">
        <ele>8.8</ele>
        <time>2021-09-05T06:03:13Z</time>
      </trkpt>
      <trkpt lat="43.4808" lon="-1.56695">
        <ele>8.8</ele>
        <time>2021-09-05T06:03:14Z</time>
      </trkpt>
      <trkpt lat="43.48081" lon="-1.56701">
        <ele>8.8</ele>
        <time>2021-09-05T06:03:15Z</time>
      </trkpt>
      <trkpt lat="43.48083" lon="-1.56706">
        <ele>8.8</ele>
        <time>2021-09-05T06:03:16Z</time>
      </trkpt>
      <trkpt lat="43.48085" lon="-1.56712">
        <ele>8.8</ele>
        <time>2021-09-05T06:03:17Z</time>
      </trkpt>
      <trkpt lat="43.48088" lon="-1.56716">
        <ele>8.8</ele>
        <time>2021-09-05T06:03:18Z</time>
      </trkpt>
      <trkpt lat="43.4809" lon="-1.56721">
        <ele>8.8</ele>
        <time>2021-09-05T06:03:19Z</time>
      </trkpt>
      <trkpt lat="43.48092" lon="-1.56727">
        <ele>8.8</ele>
        <time>2021-09-05T06:03:20Z</time>
      </trkpt>
      <trkpt lat="43.48094" lon="-1.56732">
        <ele>8.7</ele>
        <time>2021-09-05T06:03:21Z</time>
      </trkpt>
      <trkpt lat="43.48095" lon="-1.56738">
        <ele>8.7</ele>
        <time>2021-09-05T06:03:22Z</time>
      </trkpt>
      <trkpt lat="43.48097" lon="-1.56743">
        <ele>8.7</ele>
        <time>2021-09-05T06:03:23Z</time>
      </trkpt>
      <trkpt lat="43.48098" lon="-1.56748">
        <ele>8.7</ele>
        <time>2021-09-05T06:03:24Z</time>
      </trkpt>
      <trkpt lat="43.48101" lon="-1.56753">
        <ele>8.7</ele>
        <time>2021-09-05T06:03:25Z</time>
      </trkpt>
      <trkpt lat="43.48103" lon="-1.56758">
        <ele>8.7</ele>
        <time>2021-09-05T06:03:26Z</time>
      </trkpt>
      <trkpt lat="43.48105" lon="-1.56763">
        <ele>8.7</ele>
        <time>2021-09-05T06:03:27Z</time>
      </trkpt>
      <trkpt lat="43.48107" lon="-1.56768">
        <ele>8.7</ele>
        <time>2021-09-05T06:03:28Z</time>
      </trkpt>
      <trkpt lat="43.48108" lon="-1.56774">
        <ele>8.7</ele>
        <time>2021-09-05T06:03:29Z</time>
      </trkpt>
      <trkpt lat="43.4811" lon="-1.56779">
        <ele>8.7</ele>
        <time>2021-09-05T06:03:30Z</time>
      </trkpt>
      <trkpt lat="43.48113" lon="-1.56784">
        <ele>8.7</ele>
        <time>2021-09-05T06:03:31Z</time>
      </trkpt>
      <trkpt lat="43.48114" lon="-1.56789">
        <ele>8.7</ele>
        <time>2021-09-05T06:03:32Z</time>
      </trkpt>
      <trkpt lat="43.48116" lon="-1.56794">
        <ele>8.7</ele>
        <time>2021-09-05T06:03:33Z</time>
      </trkpt>
      <trkpt lat="43.48118" lon="-1.568">
        <ele>8.7</ele>
        <time>2021-09-05T06:03:34Z</time>
      </trkpt>
      <trkpt lat="43.4812" lon="-1.56805">
        <ele>8.7</ele>
        <time>2021-09-05T06:03:35Z</time>
      </trkpt>
      <trkpt lat="43.48122" lon="-1.5681">
        <ele>8.7</ele>
        <time>2021-09-05T06:03:36Z</time>
      </trkpt>
      <trkpt lat="43.48124" lon="-1.56816">
        <ele>8.7</ele>
        <time>2021-09-05T06:03:37Z</time>
      </trkpt>
      <trkpt lat="43.48125" lon="-1.56822">
        <ele>8.7</ele>
        <time>2021-09-05T06:03:38Z</time>
      </trkpt>
      <trkpt lat="43.48126" lon="-1.56828">
        <ele>8.8</ele>
        <time>2021-09-05T06:03:39Z</time>
      </trkpt>
      <trkpt lat="43.48127" lon="-1.56833">
        <ele>8.8</ele>
        <time>2021-09-05T06:03:40Z</time>
      </trkpt>
      <trkpt lat="43.48128" lon="-1.5684">
        <ele>8.8</ele>
        <time>2021-09-05T06:03:41Z</time>
      </trkpt>
      <trkpt lat="43.48127" lon="-1.56847">
        <ele>8.9</ele>
        <time>2021-09-05T06:03:42Z</time>
      </trkpt>
      <trkpt lat="43.48129" lon="-1.56853">
        <ele>8.9</ele>
        <time>2021-09-05T06:03:43Z</time>
      </trkpt>
      <trkpt lat="43.4813" lon="-1.56858">
        <ele>9</ele>
        <time>2021-09-05T06:03:44Z</time>
      </trkpt>
      <trkpt lat="43.48131" lon="-1.56864">
        <ele>9.1</ele>
        <time>2021-09-05T06:03:45Z</time>
      </trkpt>
      <trkpt lat="43.48133" lon="-1.56869">
        <ele>9.2</ele>
        <time>2021-09-05T06:03:46Z</time>
      </trkpt>
      <trkpt lat="43.48134" lon="-1.56875">
        <ele>9.4</ele>
        <time>2021-09-05T06:03:47Z</time>
      </trkpt>
      <trkpt lat="43.48137" lon="-1.56879">
        <ele>9.6</ele>
        <time>2021-09-05T06:03:48Z</time>
      </trkpt>
      <trkpt lat="43.48141" lon="-1.56882">
        <ele>9.7</ele>
        <time>2021-09-05T06:03:49Z</time>
      </trkpt>
      <trkpt lat="43.48144" lon="-1.56883">
        <ele>9.9</ele>
        <time>2021-09-05T06:03:50Z</time>
      </trkpt>
      <trkpt lat="43.48149" lon="-1.56883">
        <ele>10.2</ele>
        <time>2021-09-05T06:03:51Z</time>
      </trkpt>
      <trkpt lat="43.48154" lon="-1.56883">
        <ele>10.4</ele>
        <time>2021-09-05T06:03:52Z</time>
      </trkpt>
      <trkpt lat="43.48157" lon="-1.56883">
        <ele>10.6</ele>
        <time>2021-09-05T06:03:53Z</time>
      </trkpt>
      <trkpt lat="43.48159" lon="-1.56885">
        <ele>10.7</ele>
        <time>2021-09-05T06:03:54Z</time>
      </trkpt>
      <trkpt lat="43.48161" lon="-1.56886">
        <ele>10.8</ele>
        <time>2021-09-05T06:03:55Z</time>
      </trkpt>
      <trkpt lat="43.48164" lon="-1.56887">
        <ele>10.9</ele>
        <time>2021-09-05T06:03:56Z</time>
      </trkpt>
      <trkpt lat="43.48167" lon="-1.56886">
        <ele>11.1</ele>
        <time>2021-09-05T06:03:57Z</time>
      </trkpt>
      <trkpt lat="43.4817" lon="-1.56883">
        <ele>11.2</ele>
        <time>2021-09-05T06:03:58Z</time>
      </trkpt>
      <trkpt lat="43.48173" lon="-1.5688">
        <ele>11.4</ele>
        <time>2021-09-05T06:03:59Z</time>
      </trkpt>
      <trkpt lat="43.48177" lon="-1.56877">
        <ele>11.5</ele>
        <time>2021-09-05T06:04:00Z</time>
      </trkpt>
      <trkpt lat="43.48181" lon="-1.56874">
        <ele>11.7</ele>
        <time>2021-09-05T06:04:01Z</time>
      </trkpt>
      <trkpt lat="43.48184" lon="-1.56871">
        <ele>11.8</ele>
        <time>2021-09-05T06:04:02Z</time>
      </trkpt>
      <trkpt lat="43.48188" lon="-1.56868">
        <ele>11.9</ele>
        <time>2021-09-05T06:04:03Z</time>
      </trkpt>
      <trkpt lat="43.48191" lon="-1.56864">
        <ele>12.1</ele>
        <time>2021-09-05T06:04:04Z</time>
      </trkpt>
      <trkpt lat="43.48195" lon="-1.56861">
        <ele>12.2</ele>
        <time>2021-09-05T06:04:05Z</time>
      </trkpt>
      <trkpt lat="43.48198" lon="-1.56858">
        <ele>12.3</ele>
        <time>2021-09-05T06:04:06Z</time>
      </trkpt>
      <trkpt lat="43.48201" lon="-1.56855">
        <ele>12.4</ele>
        <time>2021-09-05T06:04:07Z</time>
      </trkpt>
      <trkpt lat="43.48205" lon="-1.56851">
        <ele>12.5</ele>
        <time>2021-09-05T06:04:08Z</time>
      </trkpt>
      <trkpt lat="43.48208" lon="-1.56848">
        <ele>12.6</ele>
        <time>2021-09-05T06:04:09Z</time>
      </trkpt>
      <trkpt lat="43.48211" lon="-1.56844">
        <ele>12.7</ele>
        <time>2021-09-05T06:04:10Z</time>
      </trkpt>
      <trkpt lat="43.48213" lon="-1.5684">
        <ele>12.8</ele>
        <time>2021-09-05T06:04:11Z</time>
      </trkpt>
      <trkpt lat="43.48215" lon="-1.56834">
        <ele>12.9</ele>
        <time>2021-09-05T06:04:12Z</time>
      </trkpt>
      <trkpt lat="43.48217" lon="-1.56828">
        <ele>13</ele>
        <time>2021-09-05T06:04:13Z</time>
      </trkpt>
      <trkpt lat="43.48219" lon="-1.56821">
        <ele>13.1</ele>
        <time>2021-09-05T06:04:14Z</time>
      </trkpt>
      <trkpt lat="43.48221" lon="-1.56814">
        <ele>13.2</ele>
        <time>2021-09-05T06:04:15Z</time>
      </trkpt>
      <trkpt lat="43.48221" lon="-1.56808">
        <ele>13.3</ele>
        <time>2021-09-05T06:04:16Z</time>
      </trkpt>
      <trkpt lat="43.48221" lon="-1.56801">
        <ele>13.4</ele>
        <time>2021-09-05T06:04:17Z</time>
      </trkpt>
      <trkpt lat="43.48221" lon="-1.56795">
        <ele>13.5</ele>
        <time>2021-09-05T06:04:18Z</time>
      </trkpt>
      <trkpt lat="43.48221" lon="-1.56789">
        <ele>13.6</ele>
        <time>2021-09-05T06:04:19Z</time>
      </trkpt>
      <trkpt lat="43.48221" lon="-1.56783">
        <ele>13.8</ele>
        <time>2021-09-05T06:04:20Z</time>
      </trkpt>
      <trkpt lat="43.48221" lon="-1.56777">
        <ele>13.9</ele>
        <time>2021-09-05T06:04:21Z</time>
      </trkpt>
      <trkpt lat="43.48222" lon="-1.56772">
        <ele>14</ele>
        <time>2021-09-05T06:04:22Z</time>
      </trkpt>
      <trkpt lat="43.48221" lon="-1.56766">
        <ele>14.2</ele>
        <time>2021-09-05T06:04:23Z</time>
      </trkpt>
      <trkpt lat="43.48221" lon="-1.56761">
        <ele>14.3</ele>
        <time>2021-09-05T06:04:24Z</time>
      </trkpt>
      <trkpt lat="43.48221" lon="-1.56755">
        <ele>14.5</ele>
        <time>2021-09-05T06:04:25Z</time>
      </trkpt>
      <trkpt lat="43.4822" lon="-1.56749">
        <ele>14.6</ele>
        <time>2021-09-05T06:04:26Z</time>
      </trkpt>
      <trkpt lat="43.4822" lon="-1.56744">
        <ele>14.7</ele>
        <time>2021-09-05T06:04:27Z</time>
      </trkpt>
      <trkpt lat="43.4822" lon="-1.56738">
        <ele>14.9</ele>
        <time>2021-09-05T06:04:28Z</time>
      </trkpt>
      <trkpt lat="43.4822" lon="-1.56732">
        <ele>15.1</ele>
        <time>2021-09-05T06:04:29Z</time>
      </trkpt>
      <trkpt lat="43.4822" lon="-1.56727">
        <ele>15.3</ele>
        <time>2021-09-05T06:04:30Z</time>
      </trkpt>
      <trkpt lat="43.48221" lon="-1.56721">
        <ele>15.5</ele>
        <time>2021-09-05T06:04:31Z</time>
      </trkpt>
      <trkpt lat="43.48221" lon="-1.56716">
        <ele>15.7</ele>
        <time>2021-09-05T06:04:32Z</time>
      </trkpt>
      <trkpt lat="43.48221" lon="-1.56711">
        <ele>15.9</ele>
        <time>2021-09-05T06:04:33Z</time>
      </trkpt>
      <trkpt lat="43.48221" lon="-1.56706">
        <ele>16</ele>
        <time>2021-09-05T06:04:34Z</time>
      </trkpt>
      <trkpt lat="43.48221" lon="-1.56701">
        <ele>16.2</ele>
        <time>2021-09-05T06:04:35Z</time>
      </trkpt>
      <trkpt lat="43.48222" lon="-1.56696">
        <ele>16.5</ele>
        <time>2021-09-05T06:04:36Z</time>
      </trkpt>
      <trkpt lat="43.48222" lon="-1.56691">
        <ele>16.8</ele>
        <time>2021-09-05T06:04:37Z</time>
      </trkpt>
      <trkpt lat="43.48223" lon="-1.56686">
        <ele>17.2</ele>
        <time>2021-09-05T06:04:38Z</time>
      </trkpt>
      <trkpt lat="43.48224" lon="-1.56681">
        <ele>17.5</ele>
        <time>2021-09-05T06:04:39Z</time>
      </trkpt>
      <trkpt lat="43.48224" lon="-1.56676">
        <ele>17.9</ele>
        <time>2021-09-05T06:04:40Z</time>
      </trkpt>
      <trkpt lat="43.48224" lon="-1.56671">
        <ele>18.1</ele>
        <time>2021-09-05T06:04:41Z</time>
      </trkpt>
      <trkpt lat="43.48224" lon="-1.56665">
        <ele>18.3</ele>
        <time>2021-09-05T06:04:42Z</time>
      </trkpt>
      <trkpt lat="43.48224" lon="-1.56661">
        <ele>18.5</ele>
        <time>2021-09-05T06:04:43Z</time>
      </trkpt>
      <trkpt lat="43.48225" lon="-1.56655">
        <ele>18.7</ele>
        <time>2021-09-05T06:04:44Z</time>
      </trkpt>
      <trkpt lat="43.48224" lon="-1.5665">
        <ele>18.9</ele>
        <time>2021-09-05T06:04:45Z</time>
      </trkpt>
      <trkpt lat="43.48223" lon="-1.56645">
        <ele>19.1</ele>
        <time>2021-09-05T06:04:46Z</time>
      </trkpt>
      <trkpt lat="43.48222" lon="-1.5664">
        <ele>19.3</ele>
        <time>2021-09-05T06:04:47Z</time>
      </trkpt>
      <trkpt lat="43.48222" lon="-1.56635">
        <ele>19.5</ele>
        <time>2021-09-05T06:04:48Z</time>
      </trkpt>
      <trkpt lat="43.48221" lon="-1.56629">
        <ele>19.7</ele>
        <time>2021-09-05T06:04:49Z</time>
      </trkpt>
      <trkpt lat="43.4822" lon="-1.56624">
        <ele>19.9</ele>
        <time>2021-09-05T06:04:50Z</time>
      </trkpt>
      <trkpt lat="43.48219" lon="-1.56619">
        <ele>20.1</ele>
        <time>2021-09-05T06:04:51Z</time>
      </trkpt>
      <trkpt lat="43.48218" lon="-1.56614">
        <ele>20.2</ele>
        <time>2021-09-05T06:04:52Z</time>
      </trkpt>
      <trkpt lat="43.48217" lon="-1.5661">
        <ele>20.4</ele>
        <time>2021-09-05T06:04:53Z</time>
      </trkpt>
      <trkpt lat="43.48217" lon="-1.56604">
        <ele>20.5</ele>
        <time>2021-09-05T06:04:54Z</time>
      </trkpt>
      <trkpt lat="43.48216" lon="-1.56599">
        <ele>20.7</ele>
        <time>2021-09-05T06:04:55Z</time>
      </trkpt>
      <trkpt lat="43.48215" lon="-1.56594">
        <ele>20.9</ele>
        <time>2021-09-05T06:04:56Z</time>
      </trkpt>
      <trkpt lat="43.48214" lon="-1.5659">
        <ele>21</ele>
        <time>2021-09-05T06:04:57Z</time>
      </trkpt>
      <trkpt lat="43.48213" lon="-1.56585">
        <ele>21.2</ele>
        <time>2021-09-05T06:04:58Z</time>
      </trkpt>
      <trkpt lat="43.48213" lon="-1.5658">
        <ele>21.4</ele>
        <time>2021-09-05T06:04:59Z</time>
      </trkpt>
      <trkpt lat="43.48213" lon="-1.56574">
        <ele>21.6</ele>
        <time>2021-09-05T06:05:00Z</time>
      </trkpt>
      <trkpt lat="43.48213" lon="-1.56569">
        <ele>21.8</ele>
        <time>2021-09-05T06:05:01Z</time>
      </trkpt>
      <trkpt lat="43.48214" lon="-1.56564">
        <ele>22</ele>
        <time>2021-09-05T06:05:02Z</time>
      </trkpt>
      <trkpt lat="43.48213" lon="-1.56559">
        <ele>22.2</ele>
        <time>2021-09-05T06:05:03Z</time>
      </trkpt>
      <trkpt lat="43.48213" lon="-1.56554">
        <ele>22.5</ele>
        <time>2021-09-05T06:05:04Z</time>
      </trkpt>
      <trkpt lat="43.48211" lon="-1.5655">
        <ele>22.8</ele>
        <time>2021-09-05T06:05:05Z</time>
      </trkpt>
      <trkpt lat="43.48209" lon="-1.56545">
        <ele>23.1</ele>
        <time>2021-09-05T06:05:06Z</time>
      </trkpt>
      <trkpt lat="43.48208" lon="-1.5654">
        <ele>23.3</ele>
        <time>2021-09-05T06:05:07Z</time>
      </trkpt>
      <trkpt lat="43.48208" lon="-1.56535">
        <ele>23.6</ele>
        <time>2021-09-05T06:05:08Z</time>
      </trkpt>
      <trkpt lat="43.48207" lon="-1.5653">
        <ele>23.9</ele>
        <time>2021-09-05T06:05:09Z</time>
      </trkpt>
      <trkpt lat="43.48207" lon="-1.56525">
        <ele>24.1</ele>
        <time>2021-09-05T06:05:10Z</time>
      </trkpt>
      <trkpt lat="43.48206" lon="-1.56521">
        <ele>24.4</ele>
        <time>2021-09-05T06:05:11Z</time>
      </trkpt>
      <trkpt lat="43.48205" lon="-1.56516">
        <ele>24.5</ele>
        <time>2021-09-05T06:05:12Z</time>
      </trkpt>
      <trkpt lat="43.48205" lon="-1.56511">
        <ele>24.6</ele>
        <time>2021-09-05T06:05:13Z</time>
      </trkpt>
      <trkpt lat="43.48204" lon="-1.56506">
        <ele>24.7</ele>
        <time>2021-09-05T06:05:14Z</time>
      </trkpt>
      <trkpt lat="43.48204" lon="-1.56501">
        <ele>24.8</ele>
        <time>2021-09-05T06:05:15Z</time>
      </trkpt>
      <trkpt lat="43.48203" lon="-1.56496">
        <ele>24.9</ele>
        <time>2021-09-05T06:05:16Z</time>
      </trkpt>
      <trkpt lat="43.48202" lon="-1.56491">
        <ele>24.9</ele>
        <time>2021-09-05T06:05:17Z</time>
      </trkpt>
      <trkpt lat="43.48202" lon="-1.56486">
        <ele>25.1</ele>
        <time>2021-09-05T06:05:18Z</time>
      </trkpt>
      <trkpt lat="43.48202" lon="-1.5648">
        <ele>25.3</ele>
        <time>2021-09-05T06:05:19Z</time>
      </trkpt>
      <trkpt lat="43.48203" lon="-1.56475">
        <ele>25.4</ele>
        <time>2021-09-05T06:05:20Z</time>
      </trkpt>
      <trkpt lat="43.48203" lon="-1.5647">
        <ele>25.6</ele>
        <time>2021-09-05T06:05:21Z</time>
      </trkpt>
      <trkpt lat="43.48201" lon="-1.56465">
        <ele>25.8</ele>
        <time>2021-09-05T06:05:22Z</time>
      </trkpt>
      <trkpt lat="43.482" lon="-1.5646">
        <ele>25.9</ele>
        <time>2021-09-05T06:05:23Z</time>
      </trkpt>
      <trkpt lat="43.48199" lon="-1.56455">
        <ele>26</ele>
        <time>2021-09-05T06:05:24Z</time>
      </trkpt>
      <trkpt lat="43.48198" lon="-1.56451">
        <ele>25.8</ele>
        <time>2021-09-05T06:05:25Z</time>
      </trkpt>
      <trkpt lat="43.48197" lon="-1.56446">
        <ele>25.6</ele>
        <time>2021-09-05T06:05:26Z</time>
      </trkpt>
      <trkpt lat="43.48197" lon="-1.5644">
        <ele>25.3</ele>
        <time>2021-09-05T06:05:27Z</time>
      </trkpt>
      <trkpt lat="43.48197" lon="-1.56435">
        <ele>25.1</ele>
        <time>2021-09-05T06:05:28Z</time>
      </trkpt>
      <trkpt lat="43.48196" lon="-1.5643">
        <ele>24.8</ele>
        <time>2021-09-05T06:05:29Z</time>
      </trkpt>
      <trkpt lat="43.48195" lon="-1.56425">
        <ele>24.6</ele>
        <time>2021-09-05T06:05:30Z</time>
      </trkpt>
      <trkpt lat="43.48194" lon="-1.5642">
        <ele>24.4</ele>
        <time>2021-09-05T06:05:31Z</time>
      </trkpt>
      <trkpt lat="43.48195" lon="-1.56414">
        <ele>24.2</ele>
        <time>2021-09-05T06:05:32Z</time>
      </trkpt>
      <trkpt lat="43.48196" lon="-1.56409">
        <ele>23.9</ele>
        <time>2021-09-05T06:05:33Z</time>
      </trkpt>
      <trkpt lat="43.48197" lon="-1.56404">
        <ele>23.8</ele>
        <time>2021-09-05T06:05:34Z</time>
      </trkpt>
      <trkpt lat="43.48198" lon="-1.564">
        <ele>23.7</ele>
        <time>2021-09-05T06:05:35Z</time>
      </trkpt>
      <trkpt lat="43.48199" lon="-1.56396">
        <ele>23.6</ele>
        <time>2021-09-05T06:05:36Z</time>
      </trkpt>
      <trkpt lat="43.482" lon="-1.56393">
        <ele>23.5</ele>
        <time>2021-09-05T06:05:37Z</time>
      </trkpt>
      <trkpt lat="43.48201" lon="-1.56389">
        <ele>23.4</ele>
        <time>2021-09-05T06:05:38Z</time>
      </trkpt>
      <trkpt lat="43.48201" lon="-1.56389">
        <ele>23.4</ele>
        <time>2021-09-05T06:05:39Z</time>
      </trkpt>
      <trkpt lat="43.48201" lon="-1.56384">
        <ele>23.3</ele>
        <time>2021-09-05T06:05:40Z</time>
      </trkpt>
      <trkpt lat="43.48205" lon="-1.56379">
        <ele>23.2</ele>
        <time>2021-09-05T06:05:41Z</time>
      </trkpt>
      <trkpt lat="43.48206" lon="-1.56375">
        <ele>23.1</ele>
        <time>2021-09-05T06:05:42Z</time>
      </trkpt>
      <trkpt lat="43.48209" lon="-1.5637">
        <ele>23</ele>
        <time>2021-09-05T06:05:43Z</time>
      </trkpt>
      <trkpt lat="43.48211" lon="-1.56365">
        <ele>23</ele>
        <time>2021-09-05T06:05:44Z</time>
      </trkpt>
      <trkpt lat="43.48212" lon="-1.56362">
        <ele>23.1</ele>
        <time>2021-09-05T06:05:45Z</time>
      </trkpt>
      <trkpt lat="43.48213" lon="-1.56358">
        <ele>23.2</ele>
        <time>2021-09-05T06:05:46Z</time>
      </trkpt>
      <trkpt lat="43.48215" lon="-1.56354">
        <ele>23.4</ele>
        <time>2021-09-05T06:05:47Z</time>
      </trkpt>
      <trkpt lat="43.48216" lon="-1.56351">
        <ele>23.5</ele>
        <time>2021-09-05T06:05:48Z</time>
      </trkpt>
      <trkpt lat="43.48217" lon="-1.56347">
        <ele>23.6</ele>
        <time>2021-09-05T06:05:49Z</time>
      </trkpt>
      <trkpt lat="43.4822" lon="-1.56344">
        <ele>23.8</ele>
        <time>2021-09-05T06:05:50Z</time>
      </trkpt>
      <trkpt lat="43.48221" lon="-1.56339">
        <ele>23.9</ele>
        <time>2021-09-05T06:05:51Z</time>
      </trkpt>
      <trkpt lat="43.48223" lon="-1.56336">
        <ele>24.1</ele>
        <time>2021-09-05T06:05:52Z</time>
      </trkpt>
      <trkpt lat="43.48225" lon="-1.56332">
        <ele>24.3</ele>
        <time>2021-09-05T06:05:53Z</time>
      </trkpt>
      <trkpt lat="43.48226" lon="-1.56328">
        <ele>24.5</ele>
        <time>2021-09-05T06:05:54Z</time>
      </trkpt>
      <trkpt lat="43.48228" lon="-1.56323">
        <ele>24.8</ele>
        <time>2021-09-05T06:05:55Z</time>
      </trkpt>
      <trkpt lat="43.48229" lon="-1.56319">
        <ele>25</ele>
        <time>2021-09-05T06:05:56Z</time>
      </trkpt>
      <trkpt lat="43.48231" lon="-1.56315">
        <ele>25.2</ele>
        <time>2021-09-05T06:05:57Z</time>
      </trkpt>
      <trkpt lat="43.48232" lon="-1.56311">
        <ele>25.5</ele>
        <time>2021-09-05T06:05:58Z</time>
      </trkpt>
      <trkpt lat="43.48232" lon="-1.56307">
        <ele>25.7</ele>
        <time>2021-09-05T06:05:59Z</time>
      </trkpt>
      <trkpt lat="43.48233" lon="-1.56303">
        <ele>25.9</ele>
        <time>2021-09-05T06:06:00Z</time>
      </trkpt>
      <trkpt lat="43.48235" lon="-1.56297">
        <ele>26.2</ele>
        <time>2021-09-05T06:06:01Z</time>
      </trkpt>
      <trkpt lat="43.48236" lon="-1.56293">
        <ele>26.5</ele>
        <time>2021-09-05T06:06:02Z</time>
      </trkpt>
      <trkpt lat="43.48237" lon="-1.56289">
        <ele>26.7</ele>
        <time>2021-09-05T06:06:03Z</time>
      </trkpt>
      <trkpt lat="43.48239" lon="-1.56285">
        <ele>27</ele>
        <time>2021-09-05T06:06:04Z</time>
      </trkpt>
      <trkpt lat="43.48241" lon="-1.5628">
        <ele>27.3</ele>
        <time>2021-09-05T06:06:05Z</time>
      </trkpt>
      <trkpt lat="43.48243" lon="-1.56275">
        <ele>27.6</ele>
        <time>2021-09-05T06:06:06Z</time>
      </trkpt>
      <trkpt lat="43.48245" lon="-1.56271">
        <ele>27.9</ele>
        <time>2021-09-05T06:06:07Z</time>
      </trkpt>
      <trkpt lat="43.48245" lon="-1.56267">
        <ele>28.1</ele>
        <time>2021-09-05T06:06:08Z</time>
      </trkpt>
      <trkpt lat="43.48244" lon="-1.56262">
        <ele>28.5</ele>
        <time>2021-09-05T06:06:09Z</time>
      </trkpt>
      <trkpt lat="43.48242" lon="-1.56258">
        <ele>28.7</ele>
        <time>2021-09-05T06:06:10Z</time>
      </trkpt>
      <trkpt lat="43.48239" lon="-1.56253">
        <ele>29</ele>
        <time>2021-09-05T06:06:11Z</time>
      </trkpt>
      <trkpt lat="43.48239" lon="-1.56248">
        <ele>29.3</ele>
        <time>2021-09-05T06:06:12Z</time>
      </trkpt>
      <trkpt lat="43.48239" lon="-1.56243">
        <ele>29.5</ele>
        <time>2021-09-05T06:06:13Z</time>
      </trkpt>
      <trkpt lat="43.48238" lon="-1.56239">
        <ele>29.7</ele>
        <time>2021-09-05T06:06:14Z</time>
      </trkpt>
      <trkpt lat="43.48237" lon="-1.56234">
        <ele>29.9</ele>
        <time>2021-09-05T06:06:15Z</time>
      </trkpt>
      <trkpt lat="43.48235" lon="-1.56228">
        <ele>30.2</ele>
        <time>2021-09-05T06:06:16Z</time>
      </trkpt>
      <trkpt lat="43.48235" lon="-1.56223">
        <ele>30.4</ele>
        <time>2021-09-05T06:06:17Z</time>
      </trkpt>
      <trkpt lat="43.48236" lon="-1.56217">
        <ele>30.5</ele>
        <time>2021-09-05T06:06:18Z</time>
      </trkpt>
      <trkpt lat="43.48237" lon="-1.56211">
        <ele>30.7</ele>
        <time>2021-09-05T06:06:19Z</time>
      </trkpt>
      <trkpt lat="43.48238" lon="-1.56205">
        <ele>30.9</ele>
        <time>2021-09-05T06:06:20Z</time>
      </trkpt>
      <trkpt lat="43.48239" lon="-1.56198">
        <ele>31.1</ele>
        <time>2021-09-05T06:06:21Z</time>
      </trkpt>
      <trkpt lat="43.48239" lon="-1.56194">
        <ele>31.2</ele>
        <time>2021-09-05T06:06:22Z</time>
      </trkpt>
      <trkpt lat="43.48238" lon="-1.5619">
        <ele>31.3</ele>
        <time>2021-09-05T06:06:23Z</time>
      </trkpt>
      <trkpt lat="43.48237" lon="-1.56187">
        <ele>31.3</ele>
        <time>2021-09-05T06:06:24Z</time>
      </trkpt>
      <trkpt lat="43.48235" lon="-1.56184">
        <ele>31.4</ele>
        <time>2021-09-05T06:06:25Z</time>
      </trkpt>
      <trkpt lat="43.48235" lon="-1.5618">
        <ele>31.5</ele>
        <time>2021-09-05T06:06:26Z</time>
      </trkpt>
      <trkpt lat="43.48235" lon="-1.56174">
        <ele>31.6</ele>
        <time>2021-09-05T06:06:27Z</time>
      </trkpt>
      <trkpt lat="43.48236" lon="-1.56169">
        <ele>31.6</ele>
        <time>2021-09-05T06:06:28Z</time>
      </trkpt>
      <trkpt lat="43.48236" lon="-1.56164">
        <ele>31.7</ele>
        <time>2021-09-05T06:06:29Z</time>
      </trkpt>
      <trkpt lat="43.48236" lon="-1.56159">
        <ele>31.7</ele>
        <time>2021-09-05T06:06:30Z</time>
      </trkpt>
      <trkpt lat="43.48237" lon="-1.56154">
        <ele>31.7</ele>
        <time>2021-09-05T06:06:31Z</time>
      </trkpt>
      <trkpt lat="43.48238" lon="-1.5615">
        <ele>31.7</ele>
        <time>2021-09-05T06:06:32Z</time>
      </trkpt>
      <trkpt lat="43.48238" lon="-1.56146">
        <ele>31.7</ele>
        <time>2021-09-05T06:06:33Z</time>
      </trkpt>
      <trkpt lat="43.48239" lon="-1.56141">
        <ele>31.6</ele>
        <time>2021-09-05T06:06:34Z</time>
      </trkpt>
      <trkpt lat="43.48239" lon="-1.56134">
        <ele>31.5</ele>
        <time>2021-09-05T06:06:35Z</time>
      </trkpt>
      <trkpt lat="43.48238" lon="-1.56129">
        <ele>31.4</ele>
        <time>2021-09-05T06:06:36Z</time>
      </trkpt>
      <trkpt lat="43.48237" lon="-1.56124">
        <ele>31.3</ele>
        <time>2021-09-05T06:06:37Z</time>
      </trkpt>
      <trkpt lat="43.48236" lon="-1.5612">
        <ele>31.3</ele>
        <time>2021-09-05T06:06:38Z</time>
      </trkpt>
      <trkpt lat="43.48236" lon="-1.5612">
        <ele>31.3</ele>
        <time>2021-09-05T06:06:39Z</time>
      </trkpt>
      <trkpt lat="43.48235" lon="-1.56117">
        <ele>31.2</ele>
        <time>2021-09-05T06:06:40Z</time>
      </trkpt>
      <trkpt lat="43.48235" lon="-1.56117">
        <ele>31</ele>
        <time>2021-09-05T06:06:41Z</time>
      </trkpt>
      <trkpt lat="43.48237" lon="-1.56118">
        <ele>30.6</ele>
        <time>2021-09-05T06:06:42Z</time>
      </trkpt>
      <trkpt lat="43.48241" lon="-1.56116">
        <ele>29.6</ele>
        <time>2021-09-05T06:06:43Z</time>
      </trkpt>
      <trkpt lat="43.48241" lon="-1.56116">
        <ele>29.5</ele>
        <time>2021-09-05T06:06:44Z</time>
      </trkpt>
      <trkpt lat="43.48241" lon="-1.56116">
        <ele>29.3</ele>
        <time>2021-09-05T06:06:45Z</time>
      </trkpt>
      <trkpt lat="43.48241" lon="-1.56116">
        <ele>29.1</ele>
        <time>2021-09-05T06:06:46Z</time>
      </trkpt>
      <trkpt lat="43.48241" lon="-1.56116">
        <ele>29</ele>
        <time>2021-09-05T06:06:47Z</time>
      </trkpt>
      <trkpt lat="43.48241" lon="-1.56116">
        <ele>28.8</ele>
        <time>2021-09-05T06:06:48Z</time>
      </trkpt>
      <trkpt lat="43.48241" lon="-1.56116">
        <ele>28.6</ele>
        <time>2021-09-05T06:06:49Z</time>
      </trkpt>
      <trkpt lat="43.48241" lon="-1.56116">
        <ele>28.5</ele>
        <time>2021-09-05T06:06:50Z</time>
      </trkpt>
      <trkpt lat="43.48241" lon="-1.56116">
        <ele>28.3</ele>
        <time>2021-09-05T06:06:51Z</time>
      </trkpt>
      <trkpt lat="43.48241" lon="-1.56116">
        <ele>28.1</ele>
        <time>2021-09-05T06:06:52Z</time>
      </trkpt>
      <trkpt lat="43.48241" lon="-1.56116">
        <ele>28</ele>
        <time>2021-09-05T06:06:53Z</time>
      </trkpt>
      <trkpt lat="43.48288" lon="-1.56104">
        <ele>21.6</ele>
        <time>2021-09-05T06:06:54Z</time>
      </trkpt>
      <trkpt lat="43.48293" lon="-1.56101">
        <ele>20.8</ele>
        <time>2021-09-05T06:06:55Z</time>
      </trkpt>
      <trkpt lat="43.48297" lon="-1.56099">
        <ele>20.1</ele>
        <time>2021-09-05T06:06:56Z</time>
      </trkpt>
      <trkpt lat="43.48301" lon="-1.56095">
        <ele>19</ele>
        <time>2021-09-05T06:06:57Z</time>
      </trkpt>
      <trkpt lat="43.48304" lon="-1.56087">
        <ele>18.1</ele>
        <time>2021-09-05T06:06:58Z</time>
      </trkpt>
      <trkpt lat="43.48306" lon="-1.56081">
        <ele>17.8</ele>
        <time>2021-09-05T06:06:59Z</time>
      </trkpt>
      <trkpt lat="43.48307" lon="-1.56074">
        <ele>17.5</ele>
        <time>2021-09-05T06:07:00Z</time>
      </trkpt>
      <trkpt lat="43.48304" lon="-1.56067">
        <ele>17.2</ele>
        <time>2021-09-05T06:07:01Z</time>
      </trkpt>
      <trkpt lat="43.48301" lon="-1.5606">
        <ele>17.2</ele>
        <time>2021-09-05T06:07:02Z</time>
      </trkpt>
      <trkpt lat="43.483" lon="-1.56053">
        <ele>17.3</ele>
        <time>2021-09-05T06:07:03Z</time>
      </trkpt>
      <trkpt lat="43.48299" lon="-1.56047">
        <ele>16.9</ele>
        <time>2021-09-05T06:07:04Z</time>
      </trkpt>
      <trkpt lat="43.48298" lon="-1.56041">
        <ele>16.7</ele>
        <time>2021-09-05T06:07:05Z</time>
      </trkpt>
      <trkpt lat="43.48297" lon="-1.56034">
        <ele>16.8</ele>
        <time>2021-09-05T06:07:06Z</time>
      </trkpt>
      <trkpt lat="43.48296" lon="-1.56028">
        <ele>16.6</ele>
        <time>2021-09-05T06:07:07Z</time>
      </trkpt>
      <trkpt lat="43.48294" lon="-1.56022">
        <ele>16.8</ele>
        <time>2021-09-05T06:07:08Z</time>
      </trkpt>
      <trkpt lat="43.48292" lon="-1.56017">
        <ele>16.7</ele>
        <time>2021-09-05T06:07:09Z</time>
      </trkpt>
      <trkpt lat="43.48291" lon="-1.56011">
        <ele>16.9</ele>
        <time>2021-09-05T06:07:10Z</time>
      </trkpt>
      <trkpt lat="43.4829" lon="-1.56006">
        <ele>16.8</ele>
        <time>2021-09-05T06:07:11Z</time>
      </trkpt>
      <trkpt lat="43.48289" lon="-1.56002">
        <ele>16.8</ele>
        <time>2021-09-05T06:07:12Z</time>
      </trkpt>
      <trkpt lat="43.48289" lon="-1.56002">
        <ele>16.6</ele>
        <time>2021-09-05T06:07:13Z</time>
      </trkpt>
      <trkpt lat="43.48289" lon="-1.56002">
        <ele>16.4</ele>
        <time>2021-09-05T06:07:14Z</time>
      </trkpt>
      <trkpt lat="43.48292" lon="-1.56003">
        <ele>16</ele>
        <time>2021-09-05T06:07:15Z</time>
      </trkpt>
      <trkpt lat="43.48295" lon="-1.56007">
        <ele>15.3</ele>
        <time>2021-09-05T06:07:16Z</time>
      </trkpt>
      <trkpt lat="43.48299" lon="-1.56012">
        <ele>14.8</ele>
        <time>2021-09-05T06:07:17Z</time>
      </trkpt>
      <trkpt lat="43.48301" lon="-1.56016">
        <ele>14.2</ele>
        <time>2021-09-05T06:07:18Z</time>
      </trkpt>
      <trkpt lat="43.48304" lon="-1.56022">
        <ele>14</ele>
        <time>2021-09-05T06:07:19Z</time>
      </trkpt>
      <trkpt lat="43.48306" lon="-1.56027">
        <ele>13.4</ele>
        <time>2021-09-05T06:07:20Z</time>
      </trkpt>
      <trkpt lat="43.48308" lon="-1.56031">
        <ele>12.7</ele>
        <time>2021-09-05T06:07:21Z</time>
      </trkpt>
      <trkpt lat="43.4831" lon="-1.56035">
        <ele>12.2</ele>
        <time>2021-09-05T06:07:22Z</time>
      </trkpt>
      <trkpt lat="43.48313" lon="-1.56039">
        <ele>11.7</ele>
        <time>2021-09-05T06:07:23Z</time>
      </trkpt>
      <trkpt lat="43.48315" lon="-1.56041">
        <ele>11.6</ele>
        <time>2021-09-05T06:07:24Z</time>
      </trkpt>
      <trkpt lat="43.48315" lon="-1.56041">
        <ele>11.4</ele>
        <time>2021-09-05T06:07:25Z</time>
      </trkpt>
      <trkpt lat="43.48316" lon="-1.56036">
        <ele>11</ele>
        <time>2021-09-05T06:07:26Z</time>
      </trkpt>
      <trkpt lat="43.48316" lon="-1.56031">
        <ele>11</ele>
        <time>2021-09-05T06:07:27Z</time>
      </trkpt>
      <trkpt lat="43.48316" lon="-1.56025">
        <ele>10.9</ele>
        <time>2021-09-05T06:07:28Z</time>
      </trkpt>
      <trkpt lat="43.48315" lon="-1.56018">
        <ele>10.9</ele>
        <time>2021-09-05T06:07:29Z</time>
      </trkpt>
      <trkpt lat="43.48315" lon="-1.56011">
        <ele>10.8</ele>
        <time>2021-09-05T06:07:30Z</time>
      </trkpt>
      <trkpt lat="43.48313" lon="-1.56005">
        <ele>11.1</ele>
        <time>2021-09-05T06:07:31Z</time>
      </trkpt>
      <trkpt lat="43.48312" lon="-1.55999">
        <ele>11.4</ele>
        <time>2021-09-05T06:07:32Z</time>
      </trkpt>
      <trkpt lat="43.48312" lon="-1.55993">
        <ele>11.5</ele>
        <time>2021-09-05T06:07:33Z</time>
      </trkpt>
      <trkpt lat="43.48312" lon="-1.5599">
        <ele>11.6</ele>
        <time>2021-09-05T06:07:34Z</time>
      </trkpt>
      <trkpt lat="43.48314" lon="-1.55988">
        <ele>11.5</ele>
        <time>2021-09-05T06:07:35Z</time>
      </trkpt>
      <trkpt lat="43.48318" lon="-1.55987">
        <ele>11</ele>
        <time>2021-09-05T06:07:36Z</time>
      </trkpt>
      <trkpt lat="43.48322" lon="-1.55987">
        <ele>10.6</ele>
        <time>2021-09-05T06:07:37Z</time>
      </trkpt>
      <trkpt lat="43.48326" lon="-1.55989">
        <ele>9.4</ele>
        <time>2021-09-05T06:07:38Z</time>
      </trkpt>
      <trkpt lat="43.4833" lon="-1.55991">
        <ele>8.8</ele>
        <time>2021-09-05T06:07:39Z</time>
      </trkpt>
      <trkpt lat="43.48334" lon="-1.55994">
        <ele>8.6</ele>
        <time>2021-09-05T06:07:40Z</time>
      </trkpt>
      <trkpt lat="43.48338" lon="-1.55997">
        <ele>8.4</ele>
        <time>2021-09-05T06:07:41Z</time>
      </trkpt>
      <trkpt lat="43.48341" lon="-1.55999">
        <ele>8.3</ele>
        <time>2021-09-05T06:07:42Z</time>
      </trkpt>
      <trkpt lat="43.48346" lon="-1.56002">
        <ele>8.1</ele>
        <time>2021-09-05T06:07:43Z</time>
      </trkpt>
      <trkpt lat="43.4835" lon="-1.56004">
        <ele>8</ele>
        <time>2021-09-05T06:07:44Z</time>
      </trkpt>
      <trkpt lat="43.48354" lon="-1.56006">
        <ele>7.8</ele>
        <time>2021-09-05T06:07:45Z</time>
      </trkpt>
      <trkpt lat="43.48358" lon="-1.56007">
        <ele>7.7</ele>
        <time>2021-09-05T06:07:46Z</time>
      </trkpt>
      <trkpt lat="43.48362" lon="-1.56007">
        <ele>7.4</ele>
        <time>2021-09-05T06:07:47Z</time>
      </trkpt>
      <trkpt lat="43.48366" lon="-1.56005">
        <ele>7.4</ele>
        <time>2021-09-05T06:07:48Z</time>
      </trkpt>
      <trkpt lat="43.48371" lon="-1.56002">
        <ele>7.4</ele>
        <time>2021-09-05T06:07:49Z</time>
      </trkpt>
      <trkpt lat="43.48374" lon="-1.55998">
        <ele>7.4</ele>
        <time>2021-09-05T06:07:50Z</time>
      </trkpt>
      <trkpt lat="43.48377" lon="-1.55993">
        <ele>7.3</ele>
        <time>2021-09-05T06:07:51Z</time>
      </trkpt>
      <trkpt lat="43.4838" lon="-1.55989">
        <ele>7.3</ele>
        <time>2021-09-05T06:07:52Z</time>
      </trkpt>
      <trkpt lat="43.48382" lon="-1.55986">
        <ele>7.3</ele>
        <time>2021-09-05T06:07:53Z</time>
      </trkpt>
      <trkpt lat="43.48385" lon="-1.5598">
        <ele>7.3</ele>
        <time>2021-09-05T06:07:54Z</time>
      </trkpt>
      <trkpt lat="43.48388" lon="-1.55976">
        <ele>7.3</ele>
        <time>2021-09-05T06:07:55Z</time>
      </trkpt>
      <trkpt lat="43.48391" lon="-1.55972">
        <ele>7.3</ele>
        <time>2021-09-05T06:07:56Z</time>
      </trkpt>
      <trkpt lat="43.48394" lon="-1.55969">
        <ele>7.3</ele>
        <time>2021-09-05T06:07:57Z</time>
      </trkpt>
      <trkpt lat="43.48397" lon="-1.55965">
        <ele>7.2</ele>
        <time>2021-09-05T06:07:58Z</time>
      </trkpt>
      <trkpt lat="43.484" lon="-1.55962">
        <ele>7.3</ele>
        <time>2021-09-05T06:07:59Z</time>
      </trkpt>
      <trkpt lat="43.48404" lon="-1.55958">
        <ele>7.3</ele>
        <time>2021-09-05T06:08:00Z</time>
      </trkpt>
      <trkpt lat="43.48407" lon="-1.55954">
        <ele>7.3</ele>
        <time>2021-09-05T06:08:01Z</time>
      </trkpt>
      <trkpt lat="43.4841" lon="-1.5595">
        <ele>7.3</ele>
        <time>2021-09-05T06:08:02Z</time>
      </trkpt>
      <trkpt lat="43.48413" lon="-1.55946">
        <ele>7.4</ele>
        <time>2021-09-05T06:08:03Z</time>
      </trkpt>
      <trkpt lat="43.48416" lon="-1.55941">
        <ele>7.4</ele>
        <time>2021-09-05T06:08:04Z</time>
      </trkpt>
      <trkpt lat="43.48419" lon="-1.55938">
        <ele>7.4</ele>
        <time>2021-09-05T06:08:05Z</time>
      </trkpt>
      <trkpt lat="43.48421" lon="-1.55933">
        <ele>7.4</ele>
        <time>2021-09-05T06:08:06Z</time>
      </trkpt>
      <trkpt lat="43.48424" lon="-1.55929">
        <ele>7.4</ele>
        <time>2021-09-05T06:08:07Z</time>
      </trkpt>
      <trkpt lat="43.48427" lon="-1.55925">
        <ele>7.4</ele>
        <time>2021-09-05T06:08:08Z</time>
      </trkpt>
      <trkpt lat="43.4843" lon="-1.55921">
        <ele>7.4</ele>
        <time>2021-09-05T06:08:09Z</time>
      </trkpt>
      <trkpt lat="43.48433" lon="-1.55917">
        <ele>7.4</ele>
        <time>2021-09-05T06:08:10Z</time>
      </trkpt>
      <trkpt lat="43.48436" lon="-1.55913">
        <ele>7.4</ele>
        <time>2021-09-05T06:08:11Z</time>
      </trkpt>
      <trkpt lat="43.48439" lon="-1.55909">
        <ele>7.4</ele>
        <time>2021-09-05T06:08:12Z</time>
      </trkpt>
      <trkpt lat="43.48442" lon="-1.55905">
        <ele>7.4</ele>
        <time>2021-09-05T06:08:13Z</time>
      </trkpt>
      <trkpt lat="43.48445" lon="-1.55901">
        <ele>7.4</ele>
        <time>2021-09-05T06:08:14Z</time>
      </trkpt>
      <trkpt lat="43.48448" lon="-1.55897">
        <ele>7.4</ele>
        <time>2021-09-05T06:08:15Z</time>
      </trkpt>
      <trkpt lat="43.48452" lon="-1.55894">
        <ele>7.4</ele>
        <time>2021-09-05T06:08:16Z</time>
      </trkpt>
      <trkpt lat="43.48455" lon="-1.5589">
        <ele>7.4</ele>
        <time>2021-09-05T06:08:17Z</time>
      </trkpt>
      <trkpt lat="43.48458" lon="-1.55886">
        <ele>7.4</ele>
        <time>2021-09-05T06:08:18Z</time>
      </trkpt>
      <trkpt lat="43.48461" lon="-1.55882">
        <ele>7.4</ele>
        <time>2021-09-05T06:08:19Z</time>
      </trkpt>
      <trkpt lat="43.48464" lon="-1.55878">
        <ele>7.4</ele>
        <time>2021-09-05T06:08:20Z</time>
      </trkpt>
      <trkpt lat="43.48467" lon="-1.55874">
        <ele>7.4</ele>
        <time>2021-09-05T06:08:21Z</time>
      </trkpt>
      <trkpt lat="43.48469" lon="-1.5587">
        <ele>7.4</ele>
        <time>2021-09-05T06:08:22Z</time>
      </trkpt>
      <trkpt lat="43.48473" lon="-1.55866">
        <ele>7.4</ele>
        <time>2021-09-05T06:08:23Z</time>
      </trkpt>
      <trkpt lat="43.48475" lon="-1.55862">
        <ele>7.4</ele>
        <time>2021-09-05T06:08:24Z</time>
      </trkpt>
      <trkpt lat="43.48478" lon="-1.55858">
        <ele>7.4</ele>
        <time>2021-09-05T06:08:25Z</time>
      </trkpt>
      <trkpt lat="43.48481" lon="-1.55855">
        <ele>7.4</ele>
        <time>2021-09-05T06:08:26Z</time>
      </trkpt>
      <trkpt lat="43.48485" lon="-1.55851">
        <ele>7.4</ele>
        <time>2021-09-05T06:08:27Z</time>
      </trkpt>
      <trkpt lat="43.48488" lon="-1.55848">
        <ele>7.4</ele>
        <time>2021-09-05T06:08:28Z</time>
      </trkpt>
      <trkpt lat="43.48491" lon="-1.55845">
        <ele>7.4</ele>
        <time>2021-09-05T06:08:29Z</time>
      </trkpt>
      <trkpt lat="43.48494" lon="-1.55841">
        <ele>7.4</ele>
        <time>2021-09-05T06:08:30Z</time>
      </trkpt>
      <trkpt lat="43.48497" lon="-1.55838">
        <ele>7.4</ele>
        <time>2021-09-05T06:08:31Z</time>
      </trkpt>
      <trkpt lat="43.48501" lon="-1.55835">
        <ele>7.4</ele>
        <time>2021-09-05T06:08:32Z</time>
      </trkpt>
      <trkpt lat="43.48505" lon="-1.55832">
        <ele>7.4</ele>
        <time>2021-09-05T06:08:33Z</time>
      </trkpt>
      <trkpt lat="43.48508" lon="-1.55828">
        <ele>7.4</ele>
        <time>2021-09-05T06:08:34Z</time>
      </trkpt>
      <trkpt lat="43.48511" lon="-1.55825">
        <ele>7.4</ele>
        <time>2021-09-05T06:08:35Z</time>
      </trkpt>
      <trkpt lat="43.48514" lon="-1.55821">
        <ele>7.4</ele>
        <time>2021-09-05T06:08:36Z</time>
      </trkpt>
      <trkpt lat="43.48517" lon="-1.55818">
        <ele>7.4</ele>
        <time>2021-09-05T06:08:37Z</time>
      </trkpt>
      <trkpt lat="43.48521" lon="-1.55815">
        <ele>7.4</ele>
        <time>2021-09-05T06:08:38Z</time>
      </trkpt>
      <trkpt lat="43.48523" lon="-1.55812">
        <ele>7.4</ele>
        <time>2021-09-05T06:08:39Z</time>
      </trkpt>
      <trkpt lat="43.48526" lon="-1.55808">
        <ele>7.4</ele>
        <time>2021-09-05T06:08:40Z</time>
      </trkpt>
      <trkpt lat="43.48529" lon="-1.55805">
        <ele>7.4</ele>
        <time>2021-09-05T06:08:41Z</time>
      </trkpt>
      <trkpt lat="43.48533" lon="-1.55801">
        <ele>7.4</ele>
        <time>2021-09-05T06:08:42Z</time>
      </trkpt>
      <trkpt lat="43.48536" lon="-1.55798">
        <ele>7.4</ele>
        <time>2021-09-05T06:08:43Z</time>
      </trkpt>
      <trkpt lat="43.4854" lon="-1.55795">
        <ele>7.4</ele>
        <time>2021-09-05T06:08:44Z</time>
      </trkpt>
      <trkpt lat="43.48543" lon="-1.55792">
        <ele>7.4</ele>
        <time>2021-09-05T06:08:45Z</time>
      </trkpt>
      <trkpt lat="43.48546" lon="-1.55789">
        <ele>7.4</ele>
        <time>2021-09-05T06:08:46Z</time>
      </trkpt>
      <trkpt lat="43.48549" lon="-1.55786">
        <ele>7.4</ele>
        <time>2021-09-05T06:08:47Z</time>
      </trkpt>
      <trkpt lat="43.48552" lon="-1.55783">
        <ele>7.4</ele>
        <time>2021-09-05T06:08:48Z</time>
      </trkpt>
      <trkpt lat="43.48556" lon="-1.55781">
        <ele>7.4</ele>
        <time>2021-09-05T06:08:49Z</time>
      </trkpt>
      <trkpt lat="43.4856" lon="-1.55778">
        <ele>7.4</ele>
        <time>2021-09-05T06:08:50Z</time>
      </trkpt>
      <trkpt lat="43.48563" lon="-1.55775">
        <ele>7.4</ele>
        <time>2021-09-05T06:08:51Z</time>
      </trkpt>
      <trkpt lat="43.48567" lon="-1.55772">
        <ele>7.4</ele>
        <time>2021-09-05T06:08:52Z</time>
      </trkpt>
      <trkpt lat="43.48571" lon="-1.55769">
        <ele>7.4</ele>
        <time>2021-09-05T06:08:53Z</time>
      </trkpt>
      <trkpt lat="43.48574" lon="-1.55767">
        <ele>7.4</ele>
        <time>2021-09-05T06:08:54Z</time>
      </trkpt>
      <trkpt lat="43.48578" lon="-1.55764">
        <ele>7.4</ele>
        <time>2021-09-05T06:08:55Z</time>
      </trkpt>
      <trkpt lat="43.48582" lon="-1.55761">
        <ele>7.4</ele>
        <time>2021-09-05T06:08:56Z</time>
      </trkpt>
      <trkpt lat="43.48585" lon="-1.55758">
        <ele>7.4</ele>
        <time>2021-09-05T06:08:57Z</time>
      </trkpt>
      <trkpt lat="43.48588" lon="-1.55755">
        <ele>7.4</ele>
        <time>2021-09-05T06:08:58Z</time>
      </trkpt>
      <trkpt lat="43.48591" lon="-1.55752">
        <ele>7.5</ele>
        <time>2021-09-05T06:08:59Z</time>
      </trkpt>
      <trkpt lat="43.48595" lon="-1.55749">
        <ele>7.5</ele>
        <time>2021-09-05T06:09:00Z</time>
      </trkpt>
      <trkpt lat="43.48598" lon="-1.55747">
        <ele>7.5</ele>
        <time>2021-09-05T06:09:01Z</time>
      </trkpt>
      <trkpt lat="43.48602" lon="-1.55744">
        <ele>7.4</ele>
        <time>2021-09-05T06:09:02Z</time>
      </trkpt>
      <trkpt lat="43.48606" lon="-1.55742">
        <ele>7.4</ele>
        <time>2021-09-05T06:09:03Z</time>
      </trkpt>
      <trkpt lat="43.4861" lon="-1.5574">
        <ele>7.4</ele>
        <time>2021-09-05T06:09:04Z</time>
      </trkpt>
      <trkpt lat="43.48614" lon="-1.55738">
        <ele>7.4</ele>
        <time>2021-09-05T06:09:05Z</time>
      </trkpt>
      <trkpt lat="43.48618" lon="-1.55735">
        <ele>7.4</ele>
        <time>2021-09-05T06:09:06Z</time>
      </trkpt>
      <trkpt lat="43.48621" lon="-1.55733">
        <ele>7.4</ele>
        <time>2021-09-05T06:09:07Z</time>
      </trkpt>
      <trkpt lat="43.48624" lon="-1.5573">
        <ele>7.4</ele>
        <time>2021-09-05T06:09:08Z</time>
      </trkpt>
      <trkpt lat="43.48628" lon="-1.55727">
        <ele>7.4</ele>
        <time>2021-09-05T06:09:09Z</time>
      </trkpt>
      <trkpt lat="43.48631" lon="-1.55724">
        <ele>7.4</ele>
        <time>2021-09-05T06:09:10Z</time>
      </trkpt>
      <trkpt lat="43.48635" lon="-1.55722">
        <ele>7.5</ele>
        <time>2021-09-05T06:09:11Z</time>
      </trkpt>
      <trkpt lat="43.48638" lon="-1.55722">
        <ele>7.5</ele>
        <time>2021-09-05T06:09:12Z</time>
      </trkpt>
      <trkpt lat="43.4864" lon="-1.55725">
        <ele>7.5</ele>
        <time>2021-09-05T06:09:13Z</time>
      </trkpt>
      <trkpt lat="43.48642" lon="-1.55727">
        <ele>7.5</ele>
        <time>2021-09-05T06:09:14Z</time>
      </trkpt>
      <trkpt lat="43.48645" lon="-1.55726">
        <ele>7.6</ele>
        <time>2021-09-05T06:09:15Z</time>
      </trkpt>
      <trkpt lat="43.48648" lon="-1.55724">
        <ele>7.6</ele>
        <time>2021-09-05T06:09:16Z</time>
      </trkpt>
      <trkpt lat="43.48652" lon="-1.55721">
        <ele>7.6</ele>
        <time>2021-09-05T06:09:17Z</time>
      </trkpt>
      <trkpt lat="43.48652" lon="-1.55721">
        <ele>7.6</ele>
        <time>2021-09-05T06:09:18Z</time>
      </trkpt>
      <trkpt lat="43.48658" lon="-1.55714">
        <ele>7.6</ele>
        <time>2021-09-05T06:09:19Z</time>
      </trkpt>
      <trkpt lat="43.48658" lon="-1.55714">
        <ele>7.6</ele>
        <time>2021-09-05T06:09:20Z</time>
      </trkpt>
      <trkpt lat="43.48658" lon="-1.55714">
        <ele>7.6</ele>
        <time>2021-09-05T06:09:21Z</time>
      </trkpt>
      <trkpt lat="43.48658" lon="-1.55714">
        <ele>7.6</ele>
        <time>2021-09-05T06:09:22Z</time>
      </trkpt>
      <trkpt lat="43.48658" lon="-1.55714">
        <ele>7.6</ele>
        <time>2021-09-05T06:09:23Z</time>
      </trkpt>
      <trkpt lat="43.48658" lon="-1.55714">
        <ele>7.6</ele>
        <time>2021-09-05T06:09:24Z</time>
      </trkpt>
      <trkpt lat="43.48658" lon="-1.55714">
        <ele>7.6</ele>
        <time>2021-09-05T06:09:25Z</time>
      </trkpt>
      <trkpt lat="43.48658" lon="-1.55714">
        <ele>7.6</ele>
        <time>2021-09-05T06:09:26Z</time>
      </trkpt>
      <trkpt lat="43.48658" lon="-1.55714">
        <ele>7.6</ele>
        <time>2021-09-05T06:09:27Z</time>
      </trkpt>
      <trkpt lat="43.48658" lon="-1.55714">
        <ele>7.6</ele>
        <time>2021-09-05T06:09:28Z</time>
      </trkpt>
      <trkpt lat="43.48658" lon="-1.55714">
        <ele>7.6</ele>
        <time>2021-09-05T06:09:29Z</time>
      </trkpt>
      <trkpt lat="43.48658" lon="-1.55714">
        <ele>7.6</ele>
        <time>2021-09-05T06:09:30Z</time>
      </trkpt>
      <trkpt lat="43.48658" lon="-1.55714">
        <ele>7.6</ele>
        <time>2021-09-05T06:09:31Z</time>
      </trkpt>
      <trkpt lat="43.48658" lon="-1.55714">
        <ele>7.6</ele>
        <time>2021-09-05T06:09:32Z</time>
      </trkpt>
      <trkpt lat="43.48658" lon="-1.55714">
        <ele>7.6</ele>
        <time>2021-09-05T06:09:33Z</time>
      </trkpt>
      <trkpt lat="43.48658" lon="-1.55714">
        <ele>7.6</ele>
        <time>2021-09-05T06:09:34Z</time>
      </trkpt>
      <trkpt lat="43.48658" lon="-1.55714">
        <ele>7.6</ele>
        <time>2021-09-05T06:09:35Z</time>
      </trkpt>
      <trkpt lat="43.48658" lon="-1.55714">
        <ele>7.6</ele>
        <time>2021-09-05T06:09:36Z</time>
      </trkpt>
      <trkpt lat="43.48658" lon="-1.55714">
        <ele>7.6</ele>
        <time>2021-09-05T06:09:37Z</time>
      </trkpt>
      <trkpt lat="43.48658" lon="-1.55714">
        <ele>7.6</ele>
        <time>2021-09-05T06:09:38Z</time>
      </trkpt>
      <trkpt lat="43.48716" lon="-1.55654">
        <ele>8.2</ele>
        <time>2021-09-05T06:09:39Z</time>
      </trkpt>
      <trkpt lat="43.48716" lon="-1.55649">
        <ele>8.2</ele>
        <time>2021-09-05T06:09:40Z</time>
      </trkpt>
      <trkpt lat="43.48715" lon="-1.55642">
        <ele>8.2</ele>
        <time>2021-09-05T06:09:41Z</time>
      </trkpt>
      <trkpt lat="43.48715" lon="-1.55639">
        <ele>8.2</ele>
        <time>2021-09-05T06:09:42Z</time>
      </trkpt>
      <trkpt lat="43.48715" lon="-1.55634">
        <ele>8.3</ele>
        <time>2021-09-05T06:09:43Z</time>
      </trkpt>
      <trkpt lat="43.48715" lon="-1.55629">
        <ele>8.3</ele>
        <time>2021-09-05T06:09:44Z</time>
      </trkpt>
      <trkpt lat="43.48715" lon="-1.55623">
        <ele>8.3</ele>
        <time>2021-09-05T06:09:45Z</time>
      </trkpt>
      <trkpt lat="43.48717" lon="-1.55618">
        <ele>8.3</ele>
        <time>2021-09-05T06:09:46Z</time>
      </trkpt>
      <trkpt lat="43.48718" lon="-1.55614">
        <ele>8.3</ele>
        <time>2021-09-05T06:09:47Z</time>
      </trkpt>
      <trkpt lat="43.48719" lon="-1.5561">
        <ele>8.3</ele>
        <time>2021-09-05T06:09:48Z</time>
      </trkpt>
      <trkpt lat="43.48721" lon="-1.55607">
        <ele>8.3</ele>
        <time>2021-09-05T06:09:49Z</time>
      </trkpt>
      <trkpt lat="43.48723" lon="-1.55603">
        <ele>8.3</ele>
        <time>2021-09-05T06:09:50Z</time>
      </trkpt>
      <trkpt lat="43.48725" lon="-1.556">
        <ele>8.4</ele>
        <time>2021-09-05T06:09:51Z</time>
      </trkpt>
      <trkpt lat="43.48727" lon="-1.55597">
        <ele>8.4</ele>
        <time>2021-09-05T06:09:52Z</time>
      </trkpt>
      <trkpt lat="43.48729" lon="-1.55595">
        <ele>8.4</ele>
        <time>2021-09-05T06:09:53Z</time>
      </trkpt>
      <trkpt lat="43.48731" lon="-1.55592">
        <ele>8.4</ele>
        <time>2021-09-05T06:09:54Z</time>
      </trkpt>
      <trkpt lat="43.48734" lon="-1.5559">
        <ele>8.4</ele>
        <time>2021-09-05T06:09:55Z</time>
      </trkpt>
      <trkpt lat="43.48736" lon="-1.55588">
        <ele>8.5</ele>
        <time>2021-09-05T06:09:56Z</time>
      </trkpt>
      <trkpt lat="43.48739" lon="-1.55586">
        <ele>8.5</ele>
        <time>2021-09-05T06:09:57Z</time>
      </trkpt>
      <trkpt lat="43.48741" lon="-1.55583">
        <ele>8.5</ele>
        <time>2021-09-05T06:09:58Z</time>
      </trkpt>
      <trkpt lat="43.48743" lon="-1.55581">
        <ele>8.5</ele>
        <time>2021-09-05T06:09:59Z</time>
      </trkpt>
      <trkpt lat="43.48746" lon="-1.55578">
        <ele>8.6</ele>
        <time>2021-09-05T06:10:00Z</time>
      </trkpt>
      <trkpt lat="43.48748" lon="-1.55577">
        <ele>8.6</ele>
        <time>2021-09-05T06:10:01Z</time>
      </trkpt>
      <trkpt lat="43.48749" lon="-1.55575">
        <ele>8.6</ele>
        <time>2021-09-05T06:10:02Z</time>
      </trkpt>
      <trkpt lat="43.48751" lon="-1.55572">
        <ele>8.7</ele>
        <time>2021-09-05T06:10:03Z</time>
      </trkpt>
      <trkpt lat="43.48753" lon="-1.5557">
        <ele>8.7</ele>
        <time>2021-09-05T06:10:04Z</time>
      </trkpt>
      <trkpt lat="43.48756" lon="-1.55568">
        <ele>8.7</ele>
        <time>2021-09-05T06:10:05Z</time>
      </trkpt>
      <trkpt lat="43.48758" lon="-1.55566">
        <ele>8.7</ele>
        <time>2021-09-05T06:10:06Z</time>
      </trkpt>
      <trkpt lat="43.48761" lon="-1.55564">
        <ele>8.7</ele>
        <time>2021-09-05T06:10:07Z</time>
      </trkpt>
      <trkpt lat="43.48765" lon="-1.55562">
        <ele>8.7</ele>
        <time>2021-09-05T06:10:08Z</time>
      </trkpt>
      <trkpt lat="43.48767" lon="-1.55559">
        <ele>8.8</ele>
        <time>2021-09-05T06:10:09Z</time>
      </trkpt>
      <trkpt lat="43.4877" lon="-1.55557">
        <ele>8.8</ele>
        <time>2021-09-05T06:10:10Z</time>
      </trkpt>
      <trkpt lat="43.48773" lon="-1.55555">
        <ele>8.8</ele>
        <time>2021-09-05T06:10:11Z</time>
      </trkpt>
      <trkpt lat="43.48776" lon="-1.55553">
        <ele>8.8</ele>
        <time>2021-09-05T06:10:12Z</time>
      </trkpt>
      <trkpt lat="43.48779" lon="-1.55551">
        <ele>8.9</ele>
        <time>2021-09-05T06:10:13Z</time>
      </trkpt>
      <trkpt lat="43.48781" lon="-1.55549">
        <ele>8.9</ele>
        <time>2021-09-05T06:10:14Z</time>
      </trkpt>
      <trkpt lat="43.48784" lon="-1.55546">
        <ele>8.9</ele>
        <time>2021-09-05T06:10:15Z</time>
      </trkpt>
      <trkpt lat="43.48787" lon="-1.55544">
        <ele>8.9</ele>
        <time>2021-09-05T06:10:16Z</time>
      </trkpt>
      <trkpt lat="43.48789" lon="-1.55542">
        <ele>9</ele>
        <time>2021-09-05T06:10:17Z</time>
      </trkpt>
      <trkpt lat="43.48792" lon="-1.5554">
        <ele>9</ele>
        <time>2021-09-05T06:10:18Z</time>
      </trkpt>
      <trkpt lat="43.48795" lon="-1.55538">
        <ele>9</ele>
        <time>2021-09-05T06:10:19Z</time>
      </trkpt>
      <trkpt lat="43.48798" lon="-1.55536">
        <ele>9.1</ele>
        <time>2021-09-05T06:10:20Z</time>
      </trkpt>
      <trkpt lat="43.48801" lon="-1.55534">
        <ele>9.1</ele>
        <time>2021-09-05T06:10:21Z</time>
      </trkpt>
      <trkpt lat="43.48804" lon="-1.55532">
        <ele>9.1</ele>
        <time>2021-09-05T06:10:22Z</time>
      </trkpt>
      <trkpt lat="43.48807" lon="-1.55529">
        <ele>9.2</ele>
        <time>2021-09-05T06:10:23Z</time>
      </trkpt>
      <trkpt lat="43.4881" lon="-1.55527">
        <ele>9.2</ele>
        <time>2021-09-05T06:10:24Z</time>
      </trkpt>
      <trkpt lat="43.48813" lon="-1.55525">
        <ele>9.3</ele>
        <time>2021-09-05T06:10:25Z</time>
      </trkpt>
      <trkpt lat="43.48816" lon="-1.55522">
        <ele>9.3</ele>
        <time>2021-09-05T06:10:26Z</time>
      </trkpt>
      <trkpt lat="43.48819" lon="-1.5552">
        <ele>9.3</ele>
        <time>2021-09-05T06:10:27Z</time>
      </trkpt>
      <trkpt lat="43.48822" lon="-1.55518">
        <ele>9.4</ele>
        <time>2021-09-05T06:10:28Z</time>
      </trkpt>
      <trkpt lat="43.48825" lon="-1.55517">
        <ele>9</ele>
        <time>2021-09-05T06:10:29Z</time>
      </trkpt>
      <trkpt lat="43.48828" lon="-1.55516">
        <ele>9.5</ele>
        <time>2021-09-05T06:10:30Z</time>
      </trkpt>
      <trkpt lat="43.48831" lon="-1.55515">
        <ele>9.5</ele>
        <time>2021-09-05T06:10:31Z</time>
      </trkpt>
      <trkpt lat="43.48835" lon="-1.55514">
        <ele>9.7</ele>
        <time>2021-09-05T06:10:32Z</time>
      </trkpt>
      <trkpt lat="43.48838" lon="-1.55513">
        <ele>10</ele>
        <time>2021-09-05T06:10:33Z</time>
      </trkpt>
      <trkpt lat="43.4884" lon="-1.55511">
        <ele>10.3</ele>
        <time>2021-09-05T06:10:34Z</time>
      </trkpt>
      <trkpt lat="43.48844" lon="-1.5551">
        <ele>10.5</ele>
        <time>2021-09-05T06:10:35Z</time>
      </trkpt>
      <trkpt lat="43.48846" lon="-1.55509">
        <ele>10.7</ele>
        <time>2021-09-05T06:10:36Z</time>
      </trkpt>
      <trkpt lat="43.4885" lon="-1.55509">
        <ele>10.9</ele>
        <time>2021-09-05T06:10:37Z</time>
      </trkpt>
      <trkpt lat="43.48852" lon="-1.5551">
        <ele>11</ele>
        <time>2021-09-05T06:10:38Z</time>
      </trkpt>
      <trkpt lat="43.48855" lon="-1.5551">
        <ele>11.1</ele>
        <time>2021-09-05T06:10:39Z</time>
      </trkpt>
      <trkpt lat="43.48858" lon="-1.55512">
        <ele>11.1</ele>
        <time>2021-09-05T06:10:40Z</time>
      </trkpt>
      <trkpt lat="43.48861" lon="-1.55513">
        <ele>11.8</ele>
        <time>2021-09-05T06:10:41Z</time>
      </trkpt>
      <trkpt lat="43.48864" lon="-1.55514">
        <ele>11.7</ele>
        <time>2021-09-05T06:10:42Z</time>
      </trkpt>
      <trkpt lat="43.48867" lon="-1.55516">
        <ele>11.6</ele>
        <time>2021-09-05T06:10:43Z</time>
      </trkpt>
      <trkpt lat="43.4887" lon="-1.55519">
        <ele>11.5</ele>
        <time>2021-09-05T06:10:44Z</time>
      </trkpt>
      <trkpt lat="43.48874" lon="-1.55521">
        <ele>11.2</ele>
        <time>2021-09-05T06:10:45Z</time>
      </trkpt>
      <trkpt lat="43.48876" lon="-1.55523">
        <ele>11.2</ele>
        <time>2021-09-05T06:10:46Z</time>
      </trkpt>
      <trkpt lat="43.48878" lon="-1.55525">
        <ele>11.1</ele>
        <time>2021-09-05T06:10:47Z</time>
      </trkpt>
      <trkpt lat="43.4888" lon="-1.55527">
        <ele>11.1</ele>
        <time>2021-09-05T06:10:48Z</time>
      </trkpt>
      <trkpt lat="43.4888" lon="-1.55527">
        <ele>11.1</ele>
        <time>2021-09-05T06:10:49Z</time>
      </trkpt>
      <trkpt lat="43.48881" lon="-1.55529">
        <ele>11.1</ele>
        <time>2021-09-05T06:10:50Z</time>
      </trkpt>
      <trkpt lat="43.48881" lon="-1.55529">
        <ele>11.1</ele>
        <time>2021-09-05T06:10:51Z</time>
      </trkpt>
      <trkpt lat="43.48881" lon="-1.55529">
        <ele>11.1</ele>
        <time>2021-09-05T06:10:52Z</time>
      </trkpt>
      <trkpt lat="43.48883" lon="-1.55532">
        <ele>11.2</ele>
        <time>2021-09-05T06:10:53Z</time>
      </trkpt>
      <trkpt lat="43.48883" lon="-1.55532">
        <ele>11.2</ele>
        <time>2021-09-05T06:10:54Z</time>
      </trkpt>
      <trkpt lat="43.48885" lon="-1.55534">
        <ele>11.2</ele>
        <time>2021-09-05T06:10:55Z</time>
      </trkpt>
      <trkpt lat="43.48885" lon="-1.55534">
        <ele>11.2</ele>
        <time>2021-09-05T06:10:56Z</time>
      </trkpt>
      <trkpt lat="43.48887" lon="-1.55537">
        <ele>11.2</ele>
        <time>2021-09-05T06:10:57Z</time>
      </trkpt>
      <trkpt lat="43.48887" lon="-1.55537">
        <ele>11.2</ele>
        <time>2021-09-05T06:10:58Z</time>
      </trkpt>
      <trkpt lat="43.48888" lon="-1.55538">
        <ele>11.3</ele>
        <time>2021-09-05T06:10:59Z</time>
      </trkpt>
      <trkpt lat="43.48888" lon="-1.55538">
        <ele>11.3</ele>
        <time>2021-09-05T06:11:00Z</time>
      </trkpt>
      <trkpt lat="43.48888" lon="-1.55538">
        <ele>11.3</ele>
        <time>2021-09-05T06:11:01Z</time>
      </trkpt>
      <trkpt lat="43.4889" lon="-1.55541">
        <ele>11.3</ele>
        <time>2021-09-05T06:11:02Z</time>
      </trkpt>
      <trkpt lat="43.4889" lon="-1.55541">
        <ele>11.3</ele>
        <time>2021-09-05T06:11:03Z</time>
      </trkpt>
      <trkpt lat="43.4889" lon="-1.55541">
        <ele>11.3</ele>
        <time>2021-09-05T06:11:04Z</time>
      </trkpt>
      <trkpt lat="43.4889" lon="-1.55541">
        <ele>11.3</ele>
        <time>2021-09-05T06:11:05Z</time>
      </trkpt>
      <trkpt lat="43.4889" lon="-1.55541">
        <ele>11.3</ele>
        <time>2021-09-05T06:11:06Z</time>
      </trkpt>
      <trkpt lat="43.48899" lon="-1.55555">
        <ele>11.3</ele>
        <time>2021-09-05T06:11:07Z</time>
      </trkpt>
      <trkpt lat="43.48902" lon="-1.55558">
        <ele>11.3</ele>
        <time>2021-09-05T06:11:08Z</time>
      </trkpt>
      <trkpt lat="43.48904" lon="-1.55562">
        <ele>11.3</ele>
        <time>2021-09-05T06:11:09Z</time>
      </trkpt>
      <trkpt lat="43.48907" lon="-1.55568">
        <ele>11.3</ele>
        <time>2021-09-05T06:11:10Z</time>
      </trkpt>
      <trkpt lat="43.48907" lon="-1.55568">
        <ele>11.3</ele>
        <time>2021-09-05T06:11:11Z</time>
      </trkpt>
      <trkpt lat="43.48909" lon="-1.55569">
        <ele>11.3</ele>
        <time>2021-09-05T06:11:12Z</time>
      </trkpt>
      <trkpt lat="43.48909" lon="-1.55569">
        <ele>11.3</ele>
        <time>2021-09-05T06:11:13Z</time>
      </trkpt>
      <trkpt lat="43.48909" lon="-1.55569">
        <ele>11.3</ele>
        <time>2021-09-05T06:11:14Z</time>
      </trkpt>
      <trkpt lat="43.48909" lon="-1.55569">
        <ele>11.3</ele>
        <time>2021-09-05T06:11:15Z</time>
      </trkpt>
      <trkpt lat="43.4891" lon="-1.55571">
        <ele>11.3</ele>
        <time>2021-09-05T06:11:16Z</time>
      </trkpt>
      <trkpt lat="43.4891" lon="-1.55571">
        <ele>11.3</ele>
        <time>2021-09-05T06:11:17Z</time>
      </trkpt>
      <trkpt lat="43.48913" lon="-1.55571">
        <ele>11.3</ele>
        <time>2021-09-05T06:11:18Z</time>
      </trkpt>
      <trkpt lat="43.48917" lon="-1.55576">
        <ele>11.3</ele>
        <time>2021-09-05T06:11:19Z</time>
      </trkpt>
      <trkpt lat="43.48915" lon="-1.55573">
        <ele>11.3</ele>
        <time>2021-09-05T06:11:20Z</time>
      </trkpt>
      <trkpt lat="43.48915" lon="-1.55573">
        <ele>11.3</ele>
        <time>2021-09-05T06:11:21Z</time>
      </trkpt>
      <trkpt lat="43.48915" lon="-1.55573">
        <ele>11.3</ele>
        <time>2021-09-05T06:11:22Z</time>
      </trkpt>
      <trkpt lat="43.48916" lon="-1.55576">
        <ele>11.3</ele>
        <time>2021-09-05T06:11:23Z</time>
      </trkpt>
      <trkpt lat="43.48912" lon="-1.55573">
        <ele>11.3</ele>
        <time>2021-09-05T06:11:24Z</time>
      </trkpt>
      <trkpt lat="43.48912" lon="-1.55573">
        <ele>11.3</ele>
        <time>2021-09-05T06:11:25Z</time>
      </trkpt>
      <trkpt lat="43.48912" lon="-1.55573">
        <ele>11.3</ele>
        <time>2021-09-05T06:11:26Z</time>
      </trkpt>
      <trkpt lat="43.48912" lon="-1.55573">
        <ele>11.3</ele>
        <time>2021-09-05T06:11:27Z</time>
      </trkpt>
      <trkpt lat="43.48914" lon="-1.55575">
        <ele>11.3</ele>
        <time>2021-09-05T06:11:28Z</time>
      </trkpt>
      <trkpt lat="43.48914" lon="-1.55575">
        <ele>11.3</ele>
        <time>2021-09-05T06:11:29Z</time>
      </trkpt>
      <trkpt lat="43.48917" lon="-1.55576">
        <ele>11.3</ele>
        <time>2021-09-05T06:11:30Z</time>
      </trkpt>
      <trkpt lat="43.4892" lon="-1.55576">
        <ele>11.3</ele>
        <time>2021-09-05T06:11:31Z</time>
      </trkpt>
      <trkpt lat="43.48922" lon="-1.55577">
        <ele>11.3</ele>
        <time>2021-09-05T06:11:32Z</time>
      </trkpt>
      <trkpt lat="43.48922" lon="-1.55577">
        <ele>11.3</ele>
        <time>2021-09-05T06:11:33Z</time>
      </trkpt>
      <trkpt lat="43.48924" lon="-1.55578">
        <ele>11.3</ele>
        <time>2021-09-05T06:11:34Z</time>
      </trkpt>
      <trkpt lat="43.48924" lon="-1.55578">
        <ele>11.3</ele>
        <time>2021-09-05T06:11:35Z</time>
      </trkpt>
      <trkpt lat="43.48924" lon="-1.55578">
        <ele>11.3</ele>
        <time>2021-09-05T06:11:36Z</time>
      </trkpt>
      <trkpt lat="43.48925" lon="-1.55582">
        <ele>11.3</ele>
        <time>2021-09-05T06:11:37Z</time>
      </trkpt>
      <trkpt lat="43.48928" lon="-1.55588">
        <ele>11.3</ele>
        <time>2021-09-05T06:11:38Z</time>
      </trkpt>
      <trkpt lat="43.48928" lon="-1.55588">
        <ele>11.3</ele>
        <time>2021-09-05T06:11:39Z</time>
      </trkpt>
      <trkpt lat="43.48931" lon="-1.55595">
        <ele>11.3</ele>
        <time>2021-09-05T06:11:40Z</time>
      </trkpt>
      <trkpt lat="43.48931" lon="-1.55595">
        <ele>11.3</ele>
        <time>2021-09-05T06:11:41Z</time>
      </trkpt>
      <trkpt lat="43.48934" lon="-1.55599">
        <ele>11.3</ele>
        <time>2021-09-05T06:11:42Z</time>
      </trkpt>
      <trkpt lat="43.48934" lon="-1.55599">
        <ele>11.3</ele>
        <time>2021-09-05T06:11:43Z</time>
      </trkpt>
      <trkpt lat="43.48934" lon="-1.55599">
        <ele>11.3</ele>
        <time>2021-09-05T06:11:44Z</time>
      </trkpt>
      <trkpt lat="43.48932" lon="-1.55598">
        <ele>11.3</ele>
        <time>2021-09-05T06:11:45Z</time>
      </trkpt>
      <trkpt lat="43.48932" lon="-1.55598">
        <ele>11.3</ele>
        <time>2021-09-05T06:11:46Z</time>
      </trkpt>
      <trkpt lat="43.48932" lon="-1.55601">
        <ele>11.3</ele>
        <time>2021-09-05T06:11:47Z</time>
      </trkpt>
      <trkpt lat="43.48932" lon="-1.55601">
        <ele>11.3</ele>
        <time>2021-09-05T06:11:48Z</time>
      </trkpt>
      <trkpt lat="43.48932" lon="-1.55601">
        <ele>11.3</ele>
        <time>2021-09-05T06:11:49Z</time>
      </trkpt>
      <trkpt lat="43.48932" lon="-1.55603">
        <ele>11.3</ele>
        <time>2021-09-05T06:11:50Z</time>
      </trkpt>
      <trkpt lat="43.48932" lon="-1.55603">
        <ele>11.3</ele>
        <time>2021-09-05T06:11:51Z</time>
      </trkpt>
      <trkpt lat="43.48932" lon="-1.55603">
        <ele>11.3</ele>
        <time>2021-09-05T06:11:52Z</time>
      </trkpt>
      <trkpt lat="43.48932" lon="-1.55603">
        <ele>11.3</ele>
        <time>2021-09-05T06:11:53Z</time>
      </trkpt>
      <trkpt lat="43.48932" lon="-1.55603">
        <ele>11.3</ele>
        <time>2021-09-05T06:11:54Z</time>
      </trkpt>
      <trkpt lat="43.48934" lon="-1.55605">
        <ele>11.3</ele>
        <time>2021-09-05T06:11:55Z</time>
      </trkpt>
      <trkpt lat="43.48934" lon="-1.55605">
        <ele>11.3</ele>
        <time>2021-09-05T06:11:56Z</time>
      </trkpt>
      <trkpt lat="43.48934" lon="-1.55605">
        <ele>11.3</ele>
        <time>2021-09-05T06:11:57Z</time>
      </trkpt>
      <trkpt lat="43.48935" lon="-1.55608">
        <ele>11.3</ele>
        <time>2021-09-05T06:11:58Z</time>
      </trkpt>
      <trkpt lat="43.48935" lon="-1.55608">
        <ele>11.3</ele>
        <time>2021-09-05T06:11:59Z</time>
      </trkpt>
      <trkpt lat="43.48935" lon="-1.55608">
        <ele>11.3</ele>
        <time>2021-09-05T06:12:00Z</time>
      </trkpt>
      <trkpt lat="43.48935" lon="-1.5561">
        <ele>11.3</ele>
        <time>2021-09-05T06:12:01Z</time>
      </trkpt>
      <trkpt lat="43.48935" lon="-1.5561">
        <ele>11.3</ele>
        <time>2021-09-05T06:12:02Z</time>
      </trkpt>
      <trkpt lat="43.48937" lon="-1.55612">
        <ele>11.3</ele>
        <time>2021-09-05T06:12:03Z</time>
      </trkpt>
      <trkpt lat="43.48941" lon="-1.5562">
        <ele>11.3</ele>
        <time>2021-09-05T06:12:04Z</time>
      </trkpt>
      <trkpt lat="43.48943" lon="-1.55624">
        <ele>11.3</ele>
        <time>2021-09-05T06:12:05Z</time>
      </trkpt>
      <trkpt lat="43.48945" lon="-1.55628">
        <ele>11.3</ele>
        <time>2021-09-05T06:12:06Z</time>
      </trkpt>
      <trkpt lat="43.48945" lon="-1.55628">
        <ele>11.3</ele>
        <time>2021-09-05T06:12:07Z</time>
      </trkpt>
      <trkpt lat="43.48947" lon="-1.5563">
        <ele>11.3</ele>
        <time>2021-09-05T06:12:08Z</time>
      </trkpt>
      <trkpt lat="43.48946" lon="-1.55627">
        <ele>11.3</ele>
        <time>2021-09-05T06:12:09Z</time>
      </trkpt>
      <trkpt lat="43.48946" lon="-1.55627">
        <ele>11.3</ele>
        <time>2021-09-05T06:12:10Z</time>
      </trkpt>
      <trkpt lat="43.48947" lon="-1.55624">
        <ele>11.3</ele>
        <time>2021-09-05T06:12:11Z</time>
      </trkpt>
      <trkpt lat="43.48947" lon="-1.55624">
        <ele>11.3</ele>
        <time>2021-09-05T06:12:12Z</time>
      </trkpt>
      <trkpt lat="43.48947" lon="-1.55624">
        <ele>11.3</ele>
        <time>2021-09-05T06:12:13Z</time>
      </trkpt>
      <trkpt lat="43.48947" lon="-1.55624">
        <ele>11.3</ele>
        <time>2021-09-05T06:12:14Z</time>
      </trkpt>
      <trkpt lat="43.48948" lon="-1.55622">
        <ele>11.3</ele>
        <time>2021-09-05T06:12:15Z</time>
      </trkpt>
      <trkpt lat="43.48948" lon="-1.55622">
        <ele>11.3</ele>
        <time>2021-09-05T06:12:16Z</time>
      </trkpt>
      <trkpt lat="43.48948" lon="-1.55622">
        <ele>11.3</ele>
        <time>2021-09-05T06:12:17Z</time>
      </trkpt>
      <trkpt lat="43.4895" lon="-1.55621">
        <ele>11.3</ele>
        <time>2021-09-05T06:12:18Z</time>
      </trkpt>
      <trkpt lat="43.4895" lon="-1.55621">
        <ele>11.3</ele>
        <time>2021-09-05T06:12:19Z</time>
      </trkpt>
      <trkpt lat="43.48948" lon="-1.55623">
        <ele>11.3</ele>
        <time>2021-09-05T06:12:20Z</time>
      </trkpt>
      <trkpt lat="43.48948" lon="-1.55623">
        <ele>11.3</ele>
        <time>2021-09-05T06:12:21Z</time>
      </trkpt>
      <trkpt lat="43.48947" lon="-1.55626">
        <ele>11.3</ele>
        <time>2021-09-05T06:12:22Z</time>
      </trkpt>
      <trkpt lat="43.48947" lon="-1.55626">
        <ele>11.3</ele>
        <time>2021-09-05T06:12:23Z</time>
      </trkpt>
      <trkpt lat="43.48947" lon="-1.55626">
        <ele>11.3</ele>
        <time>2021-09-05T06:12:24Z</time>
      </trkpt>
      <trkpt lat="43.48947" lon="-1.55626">
        <ele>11.3</ele>
        <time>2021-09-05T06:12:25Z</time>
      </trkpt>
      <trkpt lat="43.4895" lon="-1.55628">
        <ele>11.3</ele>
        <time>2021-09-05T06:12:26Z</time>
      </trkpt>
      <trkpt lat="43.4895" lon="-1.55628">
        <ele>11.3</ele>
        <time>2021-09-05T06:12:27Z</time>
      </trkpt>
      <trkpt lat="43.48951" lon="-1.55631">
        <ele>11.3</ele>
        <time>2021-09-05T06:12:28Z</time>
      </trkpt>
      <trkpt lat="43.48951" lon="-1.55631">
        <ele>11.3</ele>
        <time>2021-09-05T06:12:29Z</time>
      </trkpt>
      <trkpt lat="43.48954" lon="-1.55632">
        <ele>11.3</ele>
        <time>2021-09-05T06:12:30Z</time>
      </trkpt>
      <trkpt lat="43.48954" lon="-1.55632">
        <ele>11.3</ele>
        <time>2021-09-05T06:12:31Z</time>
      </trkpt>
      <trkpt lat="43.48952" lon="-1.5563">
        <ele>11.3</ele>
        <time>2021-09-05T06:12:32Z</time>
      </trkpt>
      <trkpt lat="43.4895" lon="-1.55628">
        <ele>11.3</ele>
        <time>2021-09-05T06:12:33Z</time>
      </trkpt>
      <trkpt lat="43.48948" lon="-1.55626">
        <ele>11.3</ele>
        <time>2021-09-05T06:12:34Z</time>
      </trkpt>
      <trkpt lat="43.48948" lon="-1.55626">
        <ele>11.3</ele>
        <time>2021-09-05T06:12:35Z</time>
      </trkpt>
      <trkpt lat="43.48945" lon="-1.55623">
        <ele>11.3</ele>
        <time>2021-09-05T06:12:36Z</time>
      </trkpt>
      <trkpt lat="43.48952" lon="-1.55628">
        <ele>11.3</ele>
        <time>2021-09-05T06:12:37Z</time>
      </trkpt>
      <trkpt lat="43.48954" lon="-1.5563">
        <ele>11.3</ele>
        <time>2021-09-05T06:12:38Z</time>
      </trkpt>
      <trkpt lat="43.48958" lon="-1.55632">
        <ele>11.3</ele>
        <time>2021-09-05T06:12:39Z</time>
      </trkpt>
      <trkpt lat="43.48961" lon="-1.55633">
        <ele>11.3</ele>
        <time>2021-09-05T06:12:40Z</time>
      </trkpt>
      <trkpt lat="43.48964" lon="-1.55632">
        <ele>11.3</ele>
        <time>2021-09-05T06:12:41Z</time>
      </trkpt>
      <trkpt lat="43.48968" lon="-1.55633">
        <ele>11.3</ele>
        <time>2021-09-05T06:12:42Z</time>
      </trkpt>
      <trkpt lat="43.48967" lon="-1.55637">
        <ele>11.3</ele>
        <time>2021-09-05T06:12:43Z</time>
      </trkpt>
      <trkpt lat="43.48969" lon="-1.55639">
        <ele>11.3</ele>
        <time>2021-09-05T06:12:44Z</time>
      </trkpt>
      <trkpt lat="43.48969" lon="-1.55639">
        <ele>11.3</ele>
        <time>2021-09-05T06:12:45Z</time>
      </trkpt>
      <trkpt lat="43.48969" lon="-1.55634">
        <ele>11.3</ele>
        <time>2021-09-05T06:12:46Z</time>
      </trkpt>
      <trkpt lat="43.48969" lon="-1.55634">
        <ele>11.3</ele>
        <time>2021-09-05T06:12:47Z</time>
      </trkpt>
      <trkpt lat="43.48968" lon="-1.55629">
        <ele>11.3</ele>
        <time>2021-09-05T06:12:48Z</time>
      </trkpt>
      <trkpt lat="43.48968" lon="-1.55629">
        <ele>11.3</ele>
        <time>2021-09-05T06:12:49Z</time>
      </trkpt>
      <trkpt lat="43.48968" lon="-1.55629">
        <ele>11.3</ele>
        <time>2021-09-05T06:12:50Z</time>
      </trkpt>
      <trkpt lat="43.48968" lon="-1.55631">
        <ele>11.3</ele>
        <time>2021-09-05T06:12:51Z</time>
      </trkpt>
      <trkpt lat="43.48968" lon="-1.55631">
        <ele>11.3</ele>
        <time>2021-09-05T06:12:52Z</time>
      </trkpt>
      <trkpt lat="43.48972" lon="-1.55632">
        <ele>11.3</ele>
        <time>2021-09-05T06:12:53Z</time>
      </trkpt>
      <trkpt lat="43.48972" lon="-1.55632">
        <ele>11.3</ele>
        <time>2021-09-05T06:12:54Z</time>
      </trkpt>
      <trkpt lat="43.48972" lon="-1.55632">
        <ele>11.3</ele>
        <time>2021-09-05T06:12:55Z</time>
      </trkpt>
      <trkpt lat="43.48972" lon="-1.55632">
        <ele>11.3</ele>
        <time>2021-09-05T06:12:56Z</time>
      </trkpt>
      <trkpt lat="43.48974" lon="-1.55635">
        <ele>11.3</ele>
        <time>2021-09-05T06:12:57Z</time>
      </trkpt>
      <trkpt lat="43.48974" lon="-1.55635">
        <ele>11.3</ele>
        <time>2021-09-05T06:12:58Z</time>
      </trkpt>
      <trkpt lat="43.48975" lon="-1.55639">
        <ele>11.3</ele>
        <time>2021-09-05T06:12:59Z</time>
      </trkpt>
      <trkpt lat="43.48976" lon="-1.55641">
        <ele>11.3</ele>
        <time>2021-09-05T06:13:00Z</time>
      </trkpt>
      <trkpt lat="43.48976" lon="-1.55641">
        <ele>11.3</ele>
        <time>2021-09-05T06:13:01Z</time>
      </trkpt>
      <trkpt lat="43.48977" lon="-1.55645">
        <ele>11.3</ele>
        <time>2021-09-05T06:13:02Z</time>
      </trkpt>
      <trkpt lat="43.48977" lon="-1.55645">
        <ele>11.3</ele>
        <time>2021-09-05T06:13:03Z</time>
      </trkpt>
      <trkpt lat="43.48979" lon="-1.55649">
        <ele>11.3</ele>
        <time>2021-09-05T06:13:04Z</time>
      </trkpt>
      <trkpt lat="43.48979" lon="-1.55649">
        <ele>11.3</ele>
        <time>2021-09-05T06:13:05Z</time>
      </trkpt>
      <trkpt lat="43.48979" lon="-1.55653">
        <ele>11.3</ele>
        <time>2021-09-05T06:13:06Z</time>
      </trkpt>
      <trkpt lat="43.48979" lon="-1.55653">
        <ele>11.3</ele>
        <time>2021-09-05T06:13:07Z</time>
      </trkpt>
      <trkpt lat="43.48981" lon="-1.55657">
        <ele>11.3</ele>
        <time>2021-09-05T06:13:08Z</time>
      </trkpt>
      <trkpt lat="43.48981" lon="-1.55657">
        <ele>11.3</ele>
        <time>2021-09-05T06:13:09Z</time>
      </trkpt>
      <trkpt lat="43.48983" lon="-1.5566">
        <ele>11.3</ele>
        <time>2021-09-05T06:13:10Z</time>
      </trkpt>
      <trkpt lat="43.48985" lon="-1.55661">
        <ele>11.3</ele>
        <time>2021-09-05T06:13:11Z</time>
      </trkpt>
      <trkpt lat="43.48985" lon="-1.55661">
        <ele>11.3</ele>
        <time>2021-09-05T06:13:12Z</time>
      </trkpt>
      <trkpt lat="43.48987" lon="-1.55664">
        <ele>11.3</ele>
        <time>2021-09-05T06:13:13Z</time>
      </trkpt>
      <trkpt lat="43.4899" lon="-1.55666">
        <ele>11.3</ele>
        <time>2021-09-05T06:13:14Z</time>
      </trkpt>
      <trkpt lat="43.48992" lon="-1.55667">
        <ele>11.3</ele>
        <time>2021-09-05T06:13:15Z</time>
      </trkpt>
      <trkpt lat="43.48992" lon="-1.55667">
        <ele>11.3</ele>
        <time>2021-09-05T06:13:16Z</time>
      </trkpt>
      <trkpt lat="43.48994" lon="-1.5567">
        <ele>11.3</ele>
        <time>2021-09-05T06:13:17Z</time>
      </trkpt>
      <trkpt lat="43.48995" lon="-1.55674">
        <ele>11.3</ele>
        <time>2021-09-05T06:13:18Z</time>
      </trkpt>
      <trkpt lat="43.48997" lon="-1.5568">
        <ele>11.3</ele>
        <time>2021-09-05T06:13:19Z</time>
      </trkpt>
      <trkpt lat="43.48997" lon="-1.5568">
        <ele>11.3</ele>
        <time>2021-09-05T06:13:20Z</time>
      </trkpt>
      <trkpt lat="43.48997" lon="-1.55683">
        <ele>11.3</ele>
        <time>2021-09-05T06:13:21Z</time>
      </trkpt>
      <trkpt lat="43.48998" lon="-1.55687">
        <ele>11.3</ele>
        <time>2021-09-05T06:13:22Z</time>
      </trkpt>
      <trkpt lat="43.49001" lon="-1.55693">
        <ele>11.3</ele>
        <time>2021-09-05T06:13:23Z</time>
      </trkpt>
      <trkpt lat="43.49002" lon="-1.55695">
        <ele>11.3</ele>
        <time>2021-09-05T06:13:24Z</time>
      </trkpt>
      <trkpt lat="43.49003" lon="-1.55697">
        <ele>11.3</ele>
        <time>2021-09-05T06:13:25Z</time>
      </trkpt>
      <trkpt lat="43.49003" lon="-1.55697">
        <ele>11.3</ele>
        <time>2021-09-05T06:13:26Z</time>
      </trkpt>
      <trkpt lat="43.49005" lon="-1.55696">
        <ele>11.3</ele>
        <time>2021-09-05T06:13:27Z</time>
      </trkpt>
      <trkpt lat="43.49005" lon="-1.557">
        <ele>11.3</ele>
        <time>2021-09-05T06:13:28Z</time>
      </trkpt>
      <trkpt lat="43.49005" lon="-1.557">
        <ele>11.3</ele>
        <time>2021-09-05T06:13:29Z</time>
      </trkpt>
      <trkpt lat="43.49006" lon="-1.55703">
        <ele>11.3</ele>
        <time>2021-09-05T06:13:30Z</time>
      </trkpt>
      <trkpt lat="43.49006" lon="-1.55703">
        <ele>11.3</ele>
        <time>2021-09-05T06:13:31Z</time>
      </trkpt>
      <trkpt lat="43.49007" lon="-1.55701">
        <ele>11.3</ele>
        <time>2021-09-05T06:13:32Z</time>
      </trkpt>
      <trkpt lat="43.49008" lon="-1.55698">
        <ele>11.3</ele>
        <time>2021-09-05T06:13:33Z</time>
      </trkpt>
      <trkpt lat="43.49008" lon="-1.55698">
        <ele>11.3</ele>
        <time>2021-09-05T06:13:34Z</time>
      </trkpt>
      <trkpt lat="43.49011" lon="-1.55697">
        <ele>11.3</ele>
        <time>2021-09-05T06:13:35Z</time>
      </trkpt>
      <trkpt lat="43.49013" lon="-1.55695">
        <ele>11.3</ele>
        <time>2021-09-05T06:13:36Z</time>
      </trkpt>
      <trkpt lat="43.49015" lon="-1.55688">
        <ele>11.3</ele>
        <time>2021-09-05T06:13:37Z</time>
      </trkpt>
      <trkpt lat="43.49018" lon="-1.55685">
        <ele>11.3</ele>
        <time>2021-09-05T06:13:38Z</time>
      </trkpt>
      <trkpt lat="43.49019" lon="-1.55681">
        <ele>11.3</ele>
        <time>2021-09-05T06:13:39Z</time>
      </trkpt>
      <trkpt lat="43.49022" lon="-1.55678">
        <ele>11.3</ele>
        <time>2021-09-05T06:13:40Z</time>
      </trkpt>
      <trkpt lat="43.49022" lon="-1.55678">
        <ele>11.3</ele>
        <time>2021-09-05T06:13:41Z</time>
      </trkpt>
      <trkpt lat="43.49023" lon="-1.55674">
        <ele>11.3</ele>
        <time>2021-09-05T06:13:42Z</time>
      </trkpt>
      <trkpt lat="43.49023" lon="-1.55674">
        <ele>11.3</ele>
        <time>2021-09-05T06:13:43Z</time>
      </trkpt>
      <trkpt lat="43.49023" lon="-1.55681">
        <ele>11.3</ele>
        <time>2021-09-05T06:13:44Z</time>
      </trkpt>
      <trkpt lat="43.49023" lon="-1.55681">
        <ele>11.3</ele>
        <time>2021-09-05T06:13:45Z</time>
      </trkpt>
      <trkpt lat="43.49023" lon="-1.55685">
        <ele>11.3</ele>
        <time>2021-09-05T06:13:46Z</time>
      </trkpt>
      <trkpt lat="43.49023" lon="-1.55685">
        <ele>11.3</ele>
        <time>2021-09-05T06:13:47Z</time>
      </trkpt>
      <trkpt lat="43.49023" lon="-1.5569">
        <ele>11.3</ele>
        <time>2021-09-05T06:13:48Z</time>
      </trkpt>
      <trkpt lat="43.49023" lon="-1.5569">
        <ele>11.3</ele>
        <time>2021-09-05T06:13:49Z</time>
      </trkpt>
      <trkpt lat="43.49019" lon="-1.55688">
        <ele>11.3</ele>
        <time>2021-09-05T06:13:50Z</time>
      </trkpt>
      <trkpt lat="43.49017" lon="-1.55687">
        <ele>11.3</ele>
        <time>2021-09-05T06:13:51Z</time>
      </trkpt>
      <trkpt lat="43.49017" lon="-1.55687">
        <ele>11.3</ele>
        <time>2021-09-05T06:13:52Z</time>
      </trkpt>
      <trkpt lat="43.49017" lon="-1.55689">
        <ele>11.3</ele>
        <time>2021-09-05T06:13:53Z</time>
      </trkpt>
      <trkpt lat="43.4901" lon="-1.55683">
        <ele>11.3</ele>
        <time>2021-09-05T06:13:54Z</time>
      </trkpt>
      <trkpt lat="43.49008" lon="-1.5568">
        <ele>11.3</ele>
        <time>2021-09-05T06:13:55Z</time>
      </trkpt>
      <trkpt lat="43.4901" lon="-1.55683">
        <ele>11.3</ele>
        <time>2021-09-05T06:13:56Z</time>
      </trkpt>
      <trkpt lat="43.4901" lon="-1.55683">
        <ele>11.3</ele>
        <time>2021-09-05T06:13:57Z</time>
      </trkpt>
      <trkpt lat="43.49012" lon="-1.55687">
        <ele>11.3</ele>
        <time>2021-09-05T06:13:58Z</time>
      </trkpt>
      <trkpt lat="43.49012" lon="-1.55687">
        <ele>11.3</ele>
        <time>2021-09-05T06:13:59Z</time>
      </trkpt>
      <trkpt lat="43.49013" lon="-1.55692">
        <ele>11.3</ele>
        <time>2021-09-05T06:14:00Z</time>
      </trkpt>
      <trkpt lat="43.49015" lon="-1.55691">
        <ele>11.3</ele>
        <time>2021-09-05T06:14:01Z</time>
      </trkpt>
      <trkpt lat="43.49021" lon="-1.55698">
        <ele>11.3</ele>
        <time>2021-09-05T06:14:02Z</time>
      </trkpt>
      <trkpt lat="43.49023" lon="-1.557">
        <ele>11.3</ele>
        <time>2021-09-05T06:14:03Z</time>
      </trkpt>
      <trkpt lat="43.49025" lon="-1.55702">
        <ele>11.3</ele>
        <time>2021-09-05T06:14:04Z</time>
      </trkpt>
      <trkpt lat="43.49027" lon="-1.55703">
        <ele>11.3</ele>
        <time>2021-09-05T06:14:05Z</time>
      </trkpt>
      <trkpt lat="43.49027" lon="-1.55703">
        <ele>11.3</ele>
        <time>2021-09-05T06:14:06Z</time>
      </trkpt>
      <trkpt lat="43.49027" lon="-1.55703">
        <ele>11.3</ele>
        <time>2021-09-05T06:14:07Z</time>
      </trkpt>
      <trkpt lat="43.49027" lon="-1.55703">
        <ele>11.3</ele>
        <time>2021-09-05T06:14:08Z</time>
      </trkpt>
      <trkpt lat="43.49027" lon="-1.55703">
        <ele>11.3</ele>
        <time>2021-09-05T06:14:09Z</time>
      </trkpt>
      <trkpt lat="43.49027" lon="-1.55703">
        <ele>11.3</ele>
        <time>2021-09-05T06:14:10Z</time>
      </trkpt>
      <trkpt lat="43.49027" lon="-1.55703">
        <ele>11.3</ele>
        <time>2021-09-05T06:14:11Z</time>
      </trkpt>
      <trkpt lat="43.49027" lon="-1.55703">
        <ele>11.3</ele>
        <time>2021-09-05T06:14:12Z</time>
      </trkpt>
      <trkpt lat="43.49027" lon="-1.55703">
        <ele>11.3</ele>
        <time>2021-09-05T06:14:13Z</time>
      </trkpt>
      <trkpt lat="43.49027" lon="-1.55703">
        <ele>11.3</ele>
        <time>2021-09-05T06:14:14Z</time>
      </trkpt>
      <trkpt lat="43.49027" lon="-1.55703">
        <ele>11.3</ele>
        <time>2021-09-05T06:14:15Z</time>
      </trkpt>
      <trkpt lat="43.49027" lon="-1.55703">
        <ele>11.3</ele>
        <time>2021-09-05T06:14:16Z</time>
      </trkpt>
      <trkpt lat="43.49027" lon="-1.55703">
        <ele>11.3</ele>
        <time>2021-09-05T06:14:17Z</time>
      </trkpt>
      <trkpt lat="43.49027" lon="-1.55703">
        <ele>11.3</ele>
        <time>2021-09-05T06:14:18Z</time>
      </trkpt>
      <trkpt lat="43.49027" lon="-1.55703">
        <ele>11.3</ele>
        <time>2021-09-05T06:14:19Z</time>
      </trkpt>
      <trkpt lat="43.49027" lon="-1.55703">
        <ele>11.3</ele>
        <time>2021-09-05T06:14:20Z</time>
      </trkpt>
      <trkpt lat="43.49027" lon="-1.55703">
        <ele>11.3</ele>
        <time>2021-09-05T06:14:21Z</time>
      </trkpt>
      <trkpt lat="43.49027" lon="-1.55703">
        <ele>11.3</ele>
        <time>2021-09-05T06:14:22Z</time>
      </trkpt>
      <trkpt lat="43.49027" lon="-1.55703">
        <ele>11.3</ele>
        <time>2021-09-05T06:14:23Z</time>
      </trkpt>
      <trkpt lat="43.49027" lon="-1.55703">
        <ele>11.3</ele>
        <time>2021-09-05T06:14:24Z</time>
      </trkpt>
      <trkpt lat="43.49027" lon="-1.55703">
        <ele>11.3</ele>
        <time>2021-09-05T06:14:25Z</time>
      </trkpt>
      <trkpt lat="43.49027" lon="-1.55703">
        <ele>11.3</ele>
        <time>2021-09-05T06:14:26Z</time>
      </trkpt>
      <trkpt lat="43.4904" lon="-1.55725">
        <ele>11.3</ele>
        <time>2021-09-05T06:14:27Z</time>
      </trkpt>
      <trkpt lat="43.49037" lon="-1.55732">
        <ele>11.3</ele>
        <time>2021-09-05T06:14:28Z</time>
      </trkpt>
      <trkpt lat="43.49039" lon="-1.55735">
        <ele>11.3</ele>
        <time>2021-09-05T06:14:29Z</time>
      </trkpt>
      <trkpt lat="43.49035" lon="-1.55735">
        <ele>11.3</ele>
        <time>2021-09-05T06:14:30Z</time>
      </trkpt>
      <trkpt lat="43.49036" lon="-1.55737">
        <ele>11.3</ele>
        <time>2021-09-05T06:14:31Z</time>
      </trkpt>
      <trkpt lat="43.49038" lon="-1.55736">
        <ele>11.3</ele>
        <time>2021-09-05T06:14:32Z</time>
      </trkpt>
      <trkpt lat="43.4904" lon="-1.55737">
        <ele>11.3</ele>
        <time>2021-09-05T06:14:33Z</time>
      </trkpt>
      <trkpt lat="43.4904" lon="-1.55737">
        <ele>11.3</ele>
        <time>2021-09-05T06:14:34Z</time>
      </trkpt>
      <trkpt lat="43.49044" lon="-1.55738">
        <ele>11.3</ele>
        <time>2021-09-05T06:14:35Z</time>
      </trkpt>
      <trkpt lat="43.49044" lon="-1.55738">
        <ele>11.3</ele>
        <time>2021-09-05T06:14:36Z</time>
      </trkpt>
      <trkpt lat="43.49044" lon="-1.55738">
        <ele>11.3</ele>
        <time>2021-09-05T06:14:37Z</time>
      </trkpt>
      <trkpt lat="43.49044" lon="-1.55738">
        <ele>11.3</ele>
        <time>2021-09-05T06:14:38Z</time>
      </trkpt>
      <trkpt lat="43.49045" lon="-1.5574">
        <ele>11.3</ele>
        <time>2021-09-05T06:14:39Z</time>
      </trkpt>
      <trkpt lat="43.49045" lon="-1.5574">
        <ele>11.3</ele>
        <time>2021-09-05T06:14:40Z</time>
      </trkpt>
      <trkpt lat="43.49047" lon="-1.55739">
        <ele>11.3</ele>
        <time>2021-09-05T06:14:41Z</time>
      </trkpt>
      <trkpt lat="43.49049" lon="-1.55741">
        <ele>11.3</ele>
        <time>2021-09-05T06:14:42Z</time>
      </trkpt>
      <trkpt lat="43.49049" lon="-1.55741">
        <ele>11.3</ele>
        <time>2021-09-05T06:14:43Z</time>
      </trkpt>
      <trkpt lat="43.49047" lon="-1.5574">
        <ele>11.3</ele>
        <time>2021-09-05T06:14:44Z</time>
      </trkpt>
      <trkpt lat="43.49047" lon="-1.5574">
        <ele>11.3</ele>
        <time>2021-09-05T06:14:45Z</time>
      </trkpt>
      <trkpt lat="43.49047" lon="-1.5574">
        <ele>11.3</ele>
        <time>2021-09-05T06:14:46Z</time>
      </trkpt>
      <trkpt lat="43.49048" lon="-1.55743">
        <ele>11.3</ele>
        <time>2021-09-05T06:14:47Z</time>
      </trkpt>
      <trkpt lat="43.49047" lon="-1.55739">
        <ele>11.3</ele>
        <time>2021-09-05T06:14:48Z</time>
      </trkpt>
      <trkpt lat="43.49047" lon="-1.55739">
        <ele>11.3</ele>
        <time>2021-09-05T06:14:49Z</time>
      </trkpt>
      <trkpt lat="43.49047" lon="-1.55739">
        <ele>11.3</ele>
        <time>2021-09-05T06:14:50Z</time>
      </trkpt>
      <trkpt lat="43.49047" lon="-1.55739">
        <ele>11.3</ele>
        <time>2021-09-05T06:14:51Z</time>
      </trkpt>
      <trkpt lat="43.49045" lon="-1.55742">
        <ele>11.3</ele>
        <time>2021-09-05T06:14:52Z</time>
      </trkpt>
      <trkpt lat="43.49045" lon="-1.55742">
        <ele>11.3</ele>
        <time>2021-09-05T06:14:53Z</time>
      </trkpt>
      <trkpt lat="43.49043" lon="-1.55745">
        <ele>11.3</ele>
        <time>2021-09-05T06:14:54Z</time>
      </trkpt>
      <trkpt lat="43.49041" lon="-1.55747">
        <ele>11.3</ele>
        <time>2021-09-05T06:14:55Z</time>
      </trkpt>
      <trkpt lat="43.49042" lon="-1.55752">
        <ele>11.3</ele>
        <time>2021-09-05T06:14:56Z</time>
      </trkpt>
      <trkpt lat="43.49043" lon="-1.55756">
        <ele>11.3</ele>
        <time>2021-09-05T06:14:57Z</time>
      </trkpt>
      <trkpt lat="43.49043" lon="-1.55756">
        <ele>11.3</ele>
        <time>2021-09-05T06:14:58Z</time>
      </trkpt>
      <trkpt lat="43.49042" lon="-1.55759">
        <ele>11.3</ele>
        <time>2021-09-05T06:14:59Z</time>
      </trkpt>
      <trkpt lat="43.49041" lon="-1.55762">
        <ele>11.3</ele>
        <time>2021-09-05T06:15:00Z</time>
      </trkpt>
      <trkpt lat="43.49041" lon="-1.55765">
        <ele>11.3</ele>
        <time>2021-09-05T06:15:01Z</time>
      </trkpt>
      <trkpt lat="43.49041" lon="-1.55765">
        <ele>11.3</ele>
        <time>2021-09-05T06:15:02Z</time>
      </trkpt>
      <trkpt lat="43.4904" lon="-1.55767">
        <ele>11.3</ele>
        <time>2021-09-05T06:15:03Z</time>
      </trkpt>
      <trkpt lat="43.4904" lon="-1.55767">
        <ele>11.3</ele>
        <time>2021-09-05T06:15:04Z</time>
      </trkpt>
      <trkpt lat="43.4904" lon="-1.55767">
        <ele>11.3</ele>
        <time>2021-09-05T06:15:05Z</time>
      </trkpt>
      <trkpt lat="43.49037" lon="-1.55766">
        <ele>11.3</ele>
        <time>2021-09-05T06:15:06Z</time>
      </trkpt>
      <trkpt lat="43.49037" lon="-1.55766">
        <ele>11.3</ele>
        <time>2021-09-05T06:15:07Z</time>
      </trkpt>
      <trkpt lat="43.49037" lon="-1.55766">
        <ele>11.3</ele>
        <time>2021-09-05T06:15:08Z</time>
      </trkpt>
      <trkpt lat="43.49035" lon="-1.55765">
        <ele>11.3</ele>
        <time>2021-09-05T06:15:09Z</time>
      </trkpt>
      <trkpt lat="43.49035" lon="-1.55765">
        <ele>11.3</ele>
        <time>2021-09-05T06:15:10Z</time>
      </trkpt>
      <trkpt lat="43.4903" lon="-1.55761">
        <ele>11.3</ele>
        <time>2021-09-05T06:15:11Z</time>
      </trkpt>
      <trkpt lat="43.49028" lon="-1.5576">
        <ele>11.3</ele>
        <time>2021-09-05T06:15:12Z</time>
      </trkpt>
      <trkpt lat="43.49026" lon="-1.55758">
        <ele>11.3</ele>
        <time>2021-09-05T06:15:13Z</time>
      </trkpt>
      <trkpt lat="43.49023" lon="-1.55756">
        <ele>11.3</ele>
        <time>2021-09-05T06:15:14Z</time>
      </trkpt>
      <trkpt lat="43.49023" lon="-1.55756">
        <ele>11.3</ele>
        <time>2021-09-05T06:15:15Z</time>
      </trkpt>
      <trkpt lat="43.49021" lon="-1.55757">
        <ele>11.3</ele>
        <time>2021-09-05T06:15:16Z</time>
      </trkpt>
      <trkpt lat="43.4902" lon="-1.55758">
        <ele>11.3</ele>
        <time>2021-09-05T06:15:17Z</time>
      </trkpt>
      <trkpt lat="43.4902" lon="-1.55758">
        <ele>11.3</ele>
        <time>2021-09-05T06:15:18Z</time>
      </trkpt>
      <trkpt lat="43.49018" lon="-1.55758">
        <ele>11.3</ele>
        <time>2021-09-05T06:15:19Z</time>
      </trkpt>
      <trkpt lat="43.49018" lon="-1.55758">
        <ele>11.3</ele>
        <time>2021-09-05T06:15:20Z</time>
      </trkpt>
      <trkpt lat="43.49016" lon="-1.55757">
        <ele>11.3</ele>
        <time>2021-09-05T06:15:21Z</time>
      </trkpt>
      <trkpt lat="43.49016" lon="-1.55757">
        <ele>11.3</ele>
        <time>2021-09-05T06:15:22Z</time>
      </trkpt>
      <trkpt lat="43.49012" lon="-1.55756">
        <ele>11.3</ele>
        <time>2021-09-05T06:15:23Z</time>
      </trkpt>
      <trkpt lat="43.4901" lon="-1.55755">
        <ele>11.3</ele>
        <time>2021-09-05T06:15:24Z</time>
      </trkpt>
      <trkpt lat="43.49008" lon="-1.55754">
        <ele>11.3</ele>
        <time>2021-09-05T06:15:25Z</time>
      </trkpt>
      <trkpt lat="43.49007" lon="-1.55757">
        <ele>11.3</ele>
        <time>2021-09-05T06:15:26Z</time>
      </trkpt>
      <trkpt lat="43.49006" lon="-1.55759">
        <ele>11.3</ele>
        <time>2021-09-05T06:15:27Z</time>
      </trkpt>
      <trkpt lat="43.49006" lon="-1.55759">
        <ele>11.3</ele>
        <time>2021-09-05T06:15:28Z</time>
      </trkpt>
      <trkpt lat="43.49004" lon="-1.55761">
        <ele>11.3</ele>
        <time>2021-09-05T06:15:29Z</time>
      </trkpt>
      <trkpt lat="43.49004" lon="-1.55761">
        <ele>11.3</ele>
        <time>2021-09-05T06:15:30Z</time>
      </trkpt>
      <trkpt lat="43.49002" lon="-1.55765">
        <ele>11.3</ele>
        <time>2021-09-05T06:15:31Z</time>
      </trkpt>
      <trkpt lat="43.49002" lon="-1.55765">
        <ele>11.3</ele>
        <time>2021-09-05T06:15:32Z</time>
      </trkpt>
      <trkpt lat="43.49001" lon="-1.55769">
        <ele>11.3</ele>
        <time>2021-09-05T06:15:33Z</time>
      </trkpt>
      <trkpt lat="43.49001" lon="-1.55769">
        <ele>11.3</ele>
        <time>2021-09-05T06:15:34Z</time>
      </trkpt>
      <trkpt lat="43.48998" lon="-1.5577">
        <ele>11.3</ele>
        <time>2021-09-05T06:15:35Z</time>
      </trkpt>
      <trkpt lat="43.48998" lon="-1.5577">
        <ele>11.3</ele>
        <time>2021-09-05T06:15:36Z</time>
      </trkpt>
      <trkpt lat="43.48997" lon="-1.55772">
        <ele>11.3</ele>
        <time>2021-09-05T06:15:37Z</time>
      </trkpt>
      <trkpt lat="43.48995" lon="-1.55774">
        <ele>11.3</ele>
        <time>2021-09-05T06:15:38Z</time>
      </trkpt>
      <trkpt lat="43.48995" lon="-1.55774">
        <ele>11.3</ele>
        <time>2021-09-05T06:15:39Z</time>
      </trkpt>
      <trkpt lat="43.48995" lon="-1.55778">
        <ele>11.3</ele>
        <time>2021-09-05T06:15:40Z</time>
      </trkpt>
      <trkpt lat="43.48996" lon="-1.5578">
        <ele>11.3</ele>
        <time>2021-09-05T06:15:41Z</time>
      </trkpt>
      <trkpt lat="43.48996" lon="-1.5578">
        <ele>11.3</ele>
        <time>2021-09-05T06:15:42Z</time>
      </trkpt>
      <trkpt lat="43.48996" lon="-1.5578">
        <ele>11.3</ele>
        <time>2021-09-05T06:15:43Z</time>
      </trkpt>
      <trkpt lat="43.48996" lon="-1.5578">
        <ele>11.3</ele>
        <time>2021-09-05T06:15:44Z</time>
      </trkpt>
      <trkpt lat="43.48996" lon="-1.5578">
        <ele>11.3</ele>
        <time>2021-09-05T06:15:45Z</time>
      </trkpt>
      <trkpt lat="43.48996" lon="-1.5578">
        <ele>11.3</ele>
        <time>2021-09-05T06:15:46Z</time>
      </trkpt>
      <trkpt lat="43.48996" lon="-1.5578">
        <ele>11.3</ele>
        <time>2021-09-05T06:15:47Z</time>
      </trkpt>
      <trkpt lat="43.48996" lon="-1.5578">
        <ele>11.3</ele>
        <time>2021-09-05T06:15:48Z</time>
      </trkpt>
      <trkpt lat="43.48996" lon="-1.5578">
        <ele>11.3</ele>
        <time>2021-09-05T06:15:49Z</time>
      </trkpt>
      <trkpt lat="43.48996" lon="-1.5578">
        <ele>11.3</ele>
        <time>2021-09-05T06:15:50Z</time>
      </trkpt>
      <trkpt lat="43.48995" lon="-1.55783">
        <ele>11.3</ele>
        <time>2021-09-05T06:15:51Z</time>
      </trkpt>
      <trkpt lat="43.48995" lon="-1.55783">
        <ele>11.3</ele>
        <time>2021-09-05T06:15:52Z</time>
      </trkpt>
      <trkpt lat="43.48993" lon="-1.55785">
        <ele>11.3</ele>
        <time>2021-09-05T06:15:53Z</time>
      </trkpt>
      <trkpt lat="43.48993" lon="-1.55785">
        <ele>11.3</ele>
        <time>2021-09-05T06:15:54Z</time>
      </trkpt>
      <trkpt lat="43.48994" lon="-1.55789">
        <ele>11.3</ele>
        <time>2021-09-05T06:15:55Z</time>
      </trkpt>
      <trkpt lat="43.48995" lon="-1.55793">
        <ele>11.3</ele>
        <time>2021-09-05T06:15:56Z</time>
      </trkpt>
      <trkpt lat="43.48996" lon="-1.55797">
        <ele>11.3</ele>
        <time>2021-09-05T06:15:57Z</time>
      </trkpt>
      <trkpt lat="43.48997" lon="-1.55801">
        <ele>11.3</ele>
        <time>2021-09-05T06:15:58Z</time>
      </trkpt>
      <trkpt lat="43.48997" lon="-1.55801">
        <ele>11.3</ele>
        <time>2021-09-05T06:15:59Z</time>
      </trkpt>
      <trkpt lat="43.48995" lon="-1.55803">
        <ele>11.3</ele>
        <time>2021-09-05T06:16:00Z</time>
      </trkpt>
      <trkpt lat="43.48995" lon="-1.55803">
        <ele>11.3</ele>
        <time>2021-09-05T06:16:01Z</time>
      </trkpt>
      <trkpt lat="43.48995" lon="-1.55803">
        <ele>11.3</ele>
        <time>2021-09-05T06:16:02Z</time>
      </trkpt>
      <trkpt lat="43.48995" lon="-1.55803">
        <ele>11.3</ele>
        <time>2021-09-05T06:16:03Z</time>
      </trkpt>
      <trkpt lat="43.48995" lon="-1.55803">
        <ele>11.3</ele>
        <time>2021-09-05T06:16:04Z</time>
      </trkpt>
      <trkpt lat="43.48995" lon="-1.55803">
        <ele>11.3</ele>
        <time>2021-09-05T06:16:05Z</time>
      </trkpt>
      <trkpt lat="43.48995" lon="-1.55803">
        <ele>11.3</ele>
        <time>2021-09-05T06:16:06Z</time>
      </trkpt>
      <trkpt lat="43.48993" lon="-1.55801">
        <ele>11.3</ele>
        <time>2021-09-05T06:16:07Z</time>
      </trkpt>
      <trkpt lat="43.48993" lon="-1.55801">
        <ele>11.3</ele>
        <time>2021-09-05T06:16:08Z</time>
      </trkpt>
      <trkpt lat="43.48991" lon="-1.55801">
        <ele>11.3</ele>
        <time>2021-09-05T06:16:09Z</time>
      </trkpt>
      <trkpt lat="43.48991" lon="-1.55801">
        <ele>11.3</ele>
        <time>2021-09-05T06:16:10Z</time>
      </trkpt>
      <trkpt lat="43.48989" lon="-1.55801">
        <ele>11.3</ele>
        <time>2021-09-05T06:16:11Z</time>
      </trkpt>
      <trkpt lat="43.48989" lon="-1.55801">
        <ele>11.3</ele>
        <time>2021-09-05T06:16:12Z</time>
      </trkpt>
      <trkpt lat="43.48987" lon="-1.55803">
        <ele>11.3</ele>
        <time>2021-09-05T06:16:13Z</time>
      </trkpt>
      <trkpt lat="43.48985" lon="-1.55803">
        <ele>11.3</ele>
        <time>2021-09-05T06:16:14Z</time>
      </trkpt>
      <trkpt lat="43.48985" lon="-1.55803">
        <ele>11.3</ele>
        <time>2021-09-05T06:16:15Z</time>
      </trkpt>
      <trkpt lat="43.48981" lon="-1.55804">
        <ele>11.3</ele>
        <time>2021-09-05T06:16:16Z</time>
      </trkpt>
      <trkpt lat="43.4898" lon="-1.55804">
        <ele>11.3</ele>
        <time>2021-09-05T06:16:17Z</time>
      </trkpt>
      <trkpt lat="43.48978" lon="-1.55806">
        <ele>11.3</ele>
        <time>2021-09-05T06:16:18Z</time>
      </trkpt>
      <trkpt lat="43.48976" lon="-1.55808">
        <ele>11.3</ele>
        <time>2021-09-05T06:16:19Z</time>
      </trkpt>
      <trkpt lat="43.48976" lon="-1.55808">
        <ele>11.3</ele>
        <time>2021-09-05T06:16:20Z</time>
      </trkpt>
      <trkpt lat="43.48973" lon="-1.55809">
        <ele>11.3</ele>
        <time>2021-09-05T06:16:21Z</time>
      </trkpt>
      <trkpt lat="43.48973" lon="-1.55809">
        <ele>11.3</ele>
        <time>2021-09-05T06:16:22Z</time>
      </trkpt>
      <trkpt lat="43.48973" lon="-1.55809">
        <ele>11.3</ele>
        <time>2021-09-05T06:16:23Z</time>
      </trkpt>
      <trkpt lat="43.4897" lon="-1.5581">
        <ele>11.3</ele>
        <time>2021-09-05T06:16:24Z</time>
      </trkpt>
      <trkpt lat="43.4897" lon="-1.5581">
        <ele>11.3</ele>
        <time>2021-09-05T06:16:25Z</time>
      </trkpt>
      <trkpt lat="43.4897" lon="-1.5581">
        <ele>11.3</ele>
        <time>2021-09-05T06:16:26Z</time>
      </trkpt>
      <trkpt lat="43.4897" lon="-1.5581">
        <ele>11.3</ele>
        <time>2021-09-05T06:16:27Z</time>
      </trkpt>
      <trkpt lat="43.48967" lon="-1.55811">
        <ele>11.3</ele>
        <time>2021-09-05T06:16:28Z</time>
      </trkpt>
      <trkpt lat="43.48967" lon="-1.55811">
        <ele>11.3</ele>
        <time>2021-09-05T06:16:29Z</time>
      </trkpt>
      <trkpt lat="43.48967" lon="-1.55811">
        <ele>11.3</ele>
        <time>2021-09-05T06:16:30Z</time>
      </trkpt>
      <trkpt lat="43.48965" lon="-1.55813">
        <ele>11.3</ele>
        <time>2021-09-05T06:16:31Z</time>
      </trkpt>
      <trkpt lat="43.48963" lon="-1.55814">
        <ele>11.3</ele>
        <time>2021-09-05T06:16:32Z</time>
      </trkpt>
      <trkpt lat="43.48963" lon="-1.55814">
        <ele>11.3</ele>
        <time>2021-09-05T06:16:33Z</time>
      </trkpt>
      <trkpt lat="43.4896" lon="-1.55812">
        <ele>11.3</ele>
        <time>2021-09-05T06:16:34Z</time>
      </trkpt>
      <trkpt lat="43.4896" lon="-1.55812">
        <ele>11.3</ele>
        <time>2021-09-05T06:16:35Z</time>
      </trkpt>
      <trkpt lat="43.4896" lon="-1.55812">
        <ele>11.3</ele>
        <time>2021-09-05T06:16:36Z</time>
      </trkpt>
      <trkpt lat="43.4896" lon="-1.55812">
        <ele>11.3</ele>
        <time>2021-09-05T06:16:37Z</time>
      </trkpt>
      <trkpt lat="43.48959" lon="-1.55814">
        <ele>11.3</ele>
        <time>2021-09-05T06:16:38Z</time>
      </trkpt>
      <trkpt lat="43.48959" lon="-1.55814">
        <ele>11.3</ele>
        <time>2021-09-05T06:16:39Z</time>
      </trkpt>
      <trkpt lat="43.4896" lon="-1.55817">
        <ele>11.3</ele>
        <time>2021-09-05T06:16:40Z</time>
      </trkpt>
      <trkpt lat="43.4896" lon="-1.55817">
        <ele>11.3</ele>
        <time>2021-09-05T06:16:41Z</time>
      </trkpt>
      <trkpt lat="43.48958" lon="-1.55819">
        <ele>11.3</ele>
        <time>2021-09-05T06:16:42Z</time>
      </trkpt>
      <trkpt lat="43.48958" lon="-1.55819">
        <ele>11.3</ele>
        <time>2021-09-05T06:16:43Z</time>
      </trkpt>
      <trkpt lat="43.48959" lon="-1.55822">
        <ele>11.3</ele>
        <time>2021-09-05T06:16:44Z</time>
      </trkpt>
      <trkpt lat="43.48959" lon="-1.55822">
        <ele>11.3</ele>
        <time>2021-09-05T06:16:45Z</time>
      </trkpt>
      <trkpt lat="43.48959" lon="-1.55824">
        <ele>11.3</ele>
        <time>2021-09-05T06:16:46Z</time>
      </trkpt>
      <trkpt lat="43.48959" lon="-1.55824">
        <ele>11.3</ele>
        <time>2021-09-05T06:16:47Z</time>
      </trkpt>
      <trkpt lat="43.48958" lon="-1.55826">
        <ele>11.3</ele>
        <time>2021-09-05T06:16:48Z</time>
      </trkpt>
      <trkpt lat="43.48958" lon="-1.55826">
        <ele>11.3</ele>
        <time>2021-09-05T06:16:49Z</time>
      </trkpt>
      <trkpt lat="43.48958" lon="-1.55826">
        <ele>11.3</ele>
        <time>2021-09-05T06:16:50Z</time>
      </trkpt>
      <trkpt lat="43.48958" lon="-1.55826">
        <ele>11.3</ele>
        <time>2021-09-05T06:16:51Z</time>
      </trkpt>
      <trkpt lat="43.48958" lon="-1.55826">
        <ele>11.3</ele>
        <time>2021-09-05T06:16:52Z</time>
      </trkpt>
      <trkpt lat="43.48953" lon="-1.55834">
        <ele>11.3</ele>
        <time>2021-09-05T06:16:53Z</time>
      </trkpt>
      <trkpt lat="43.48953" lon="-1.55834">
        <ele>11.3</ele>
        <time>2021-09-05T06:16:54Z</time>
      </trkpt>
      <trkpt lat="43.4895" lon="-1.55838">
        <ele>11.3</ele>
        <time>2021-09-05T06:16:55Z</time>
      </trkpt>
      <trkpt lat="43.4895" lon="-1.55838">
        <ele>11.3</ele>
        <time>2021-09-05T06:16:56Z</time>
      </trkpt>
      <trkpt lat="43.4895" lon="-1.55838">
        <ele>11.3</ele>
        <time>2021-09-05T06:16:57Z</time>
      </trkpt>
      <trkpt lat="43.4895" lon="-1.55838">
        <ele>11.3</ele>
        <time>2021-09-05T06:16:58Z</time>
      </trkpt>
      <trkpt lat="43.48948" lon="-1.55839">
        <ele>11.3</ele>
        <time>2021-09-05T06:16:59Z</time>
      </trkpt>
      <trkpt lat="43.48948" lon="-1.55839">
        <ele>11.3</ele>
        <time>2021-09-05T06:17:00Z</time>
      </trkpt>
      <trkpt lat="43.48946" lon="-1.5584">
        <ele>11.3</ele>
        <time>2021-09-05T06:17:01Z</time>
      </trkpt>
      <trkpt lat="43.48946" lon="-1.5584">
        <ele>11.3</ele>
        <time>2021-09-05T06:17:02Z</time>
      </trkpt>
      <trkpt lat="43.48944" lon="-1.55842">
        <ele>11.3</ele>
        <time>2021-09-05T06:17:03Z</time>
      </trkpt>
      <trkpt lat="43.48944" lon="-1.55842">
        <ele>11.3</ele>
        <time>2021-09-05T06:17:04Z</time>
      </trkpt>
      <trkpt lat="43.48943" lon="-1.55843">
        <ele>11.3</ele>
        <time>2021-09-05T06:17:05Z</time>
      </trkpt>
      <trkpt lat="43.48942" lon="-1.55844">
        <ele>11.3</ele>
        <time>2021-09-05T06:17:06Z</time>
      </trkpt>
      <trkpt lat="43.48941" lon="-1.55845">
        <ele>11.3</ele>
        <time>2021-09-05T06:17:07Z</time>
      </trkpt>
      <trkpt lat="43.48939" lon="-1.55846">
        <ele>11.3</ele>
        <time>2021-09-05T06:17:08Z</time>
      </trkpt>
      <trkpt lat="43.48939" lon="-1.55846">
        <ele>11.3</ele>
        <time>2021-09-05T06:17:09Z</time>
      </trkpt>
      <trkpt lat="43.48939" lon="-1.55846">
        <ele>11.3</ele>
        <time>2021-09-05T06:17:10Z</time>
      </trkpt>
      <trkpt lat="43.48939" lon="-1.55846">
        <ele>11.3</ele>
        <time>2021-09-05T06:17:11Z</time>
      </trkpt>
      <trkpt lat="43.48937" lon="-1.55847">
        <ele>11.3</ele>
        <time>2021-09-05T06:17:12Z</time>
      </trkpt>
      <trkpt lat="43.48937" lon="-1.55847">
        <ele>11.3</ele>
        <time>2021-09-05T06:17:13Z</time>
      </trkpt>
      <trkpt lat="43.48937" lon="-1.55847">
        <ele>11.3</ele>
        <time>2021-09-05T06:17:14Z</time>
      </trkpt>
      <trkpt lat="43.48937" lon="-1.55847">
        <ele>11.3</ele>
        <time>2021-09-05T06:17:15Z</time>
      </trkpt>
      <trkpt lat="43.48936" lon="-1.5585">
        <ele>11.3</ele>
        <time>2021-09-05T06:17:16Z</time>
      </trkpt>
      <trkpt lat="43.48936" lon="-1.5585">
        <ele>11.3</ele>
        <time>2021-09-05T06:17:17Z</time>
      </trkpt>
      <trkpt lat="43.48935" lon="-1.55853">
        <ele>11.3</ele>
        <time>2021-09-05T06:17:18Z</time>
      </trkpt>
      <trkpt lat="43.48935" lon="-1.55853">
        <ele>11.3</ele>
        <time>2021-09-05T06:17:19Z</time>
      </trkpt>
      <trkpt lat="43.48935" lon="-1.55853">
        <ele>11.3</ele>
        <time>2021-09-05T06:17:20Z</time>
      </trkpt>
      <trkpt lat="43.48935" lon="-1.55853">
        <ele>11.3</ele>
        <time>2021-09-05T06:17:21Z</time>
      </trkpt>
      <trkpt lat="43.48935" lon="-1.55853">
        <ele>11.3</ele>
        <time>2021-09-05T06:17:22Z</time>
      </trkpt>
      <trkpt lat="43.48935" lon="-1.55853">
        <ele>11.3</ele>
        <time>2021-09-05T06:17:23Z</time>
      </trkpt>
      <trkpt lat="43.48934" lon="-1.55858">
        <ele>11.3</ele>
        <time>2021-09-05T06:17:24Z</time>
      </trkpt>
      <trkpt lat="43.48934" lon="-1.55858">
        <ele>11.3</ele>
        <time>2021-09-05T06:17:25Z</time>
      </trkpt>
      <trkpt lat="43.48933" lon="-1.55859">
        <ele>11.3</ele>
        <time>2021-09-05T06:17:26Z</time>
      </trkpt>
      <trkpt lat="43.48933" lon="-1.55859">
        <ele>11.3</ele>
        <time>2021-09-05T06:17:27Z</time>
      </trkpt>
      <trkpt lat="43.48931" lon="-1.55862">
        <ele>11.3</ele>
        <time>2021-09-05T06:17:28Z</time>
      </trkpt>
      <trkpt lat="43.48929" lon="-1.55863">
        <ele>11.3</ele>
        <time>2021-09-05T06:17:29Z</time>
      </trkpt>
      <trkpt lat="43.48929" lon="-1.55863">
        <ele>11.3</ele>
        <time>2021-09-05T06:17:30Z</time>
      </trkpt>
      <trkpt lat="43.48929" lon="-1.55863">
        <ele>11.3</ele>
        <time>2021-09-05T06:17:31Z</time>
      </trkpt>
      <trkpt lat="43.48927" lon="-1.55864">
        <ele>11.3</ele>
        <time>2021-09-05T06:17:32Z</time>
      </trkpt>
      <trkpt lat="43.48927" lon="-1.55864">
        <ele>11.3</ele>
        <time>2021-09-05T06:17:33Z</time>
      </trkpt>
      <trkpt lat="43.48925" lon="-1.55867">
        <ele>11.3</ele>
        <time>2021-09-05T06:17:34Z</time>
      </trkpt>
      <trkpt lat="43.48927" lon="-1.55867">
        <ele>11.3</ele>
        <time>2021-09-05T06:17:35Z</time>
      </trkpt>
      <trkpt lat="43.48927" lon="-1.55867">
        <ele>11.3</ele>
        <time>2021-09-05T06:17:36Z</time>
      </trkpt>
      <trkpt lat="43.48927" lon="-1.5587">
        <ele>11.3</ele>
        <time>2021-09-05T06:17:37Z</time>
      </trkpt>
      <trkpt lat="43.48927" lon="-1.5587">
        <ele>11.3</ele>
        <time>2021-09-05T06:17:38Z</time>
      </trkpt>
      <trkpt lat="43.48926" lon="-1.55872">
        <ele>11.3</ele>
        <time>2021-09-05T06:17:39Z</time>
      </trkpt>
      <trkpt lat="43.48926" lon="-1.55872">
        <ele>11.3</ele>
        <time>2021-09-05T06:17:40Z</time>
      </trkpt>
      <trkpt lat="43.48926" lon="-1.55872">
        <ele>11.3</ele>
        <time>2021-09-05T06:17:41Z</time>
      </trkpt>
      <trkpt lat="43.48924" lon="-1.55872">
        <ele>11.3</ele>
        <time>2021-09-05T06:17:42Z</time>
      </trkpt>
      <trkpt lat="43.48924" lon="-1.55872">
        <ele>11.3</ele>
        <time>2021-09-05T06:17:43Z</time>
      </trkpt>
      <trkpt lat="43.48924" lon="-1.55872">
        <ele>11.3</ele>
        <time>2021-09-05T06:17:44Z</time>
      </trkpt>
      <trkpt lat="43.48922" lon="-1.5587">
        <ele>11.3</ele>
        <time>2021-09-05T06:17:45Z</time>
      </trkpt>
      <trkpt lat="43.48922" lon="-1.5587">
        <ele>11.3</ele>
        <time>2021-09-05T06:17:46Z</time>
      </trkpt>
      <trkpt lat="43.48921" lon="-1.55866">
        <ele>11.3</ele>
        <time>2021-09-05T06:17:47Z</time>
      </trkpt>
      <trkpt lat="43.48921" lon="-1.55866">
        <ele>11.3</ele>
        <time>2021-09-05T06:17:48Z</time>
      </trkpt>
      <trkpt lat="43.4892" lon="-1.55863">
        <ele>11.3</ele>
        <time>2021-09-05T06:17:49Z</time>
      </trkpt>
      <trkpt lat="43.4892" lon="-1.55863">
        <ele>11.3</ele>
        <time>2021-09-05T06:17:50Z</time>
      </trkpt>
      <trkpt lat="43.4892" lon="-1.5586">
        <ele>11.3</ele>
        <time>2021-09-05T06:17:51Z</time>
      </trkpt>
      <trkpt lat="43.4892" lon="-1.5586">
        <ele>11.3</ele>
        <time>2021-09-05T06:17:52Z</time>
      </trkpt>
      <trkpt lat="43.4892" lon="-1.55857">
        <ele>11.3</ele>
        <time>2021-09-05T06:17:53Z</time>
      </trkpt>
      <trkpt lat="43.48922" lon="-1.55856">
        <ele>11.3</ele>
        <time>2021-09-05T06:17:54Z</time>
      </trkpt>
      <trkpt lat="43.48922" lon="-1.55856">
        <ele>11.3</ele>
        <time>2021-09-05T06:17:55Z</time>
      </trkpt>
      <trkpt lat="43.48924" lon="-1.55854">
        <ele>11.3</ele>
        <time>2021-09-05T06:17:56Z</time>
      </trkpt>
      <trkpt lat="43.48924" lon="-1.55854">
        <ele>11.3</ele>
        <time>2021-09-05T06:17:57Z</time>
      </trkpt>
      <trkpt lat="43.48924" lon="-1.55854">
        <ele>11.3</ele>
        <time>2021-09-05T06:17:58Z</time>
      </trkpt>
      <trkpt lat="43.48924" lon="-1.55854">
        <ele>11.3</ele>
        <time>2021-09-05T06:17:59Z</time>
      </trkpt>
      <trkpt lat="43.48924" lon="-1.55854">
        <ele>11.3</ele>
        <time>2021-09-05T06:18:00Z</time>
      </trkpt>
      <trkpt lat="43.48924" lon="-1.55854">
        <ele>11.3</ele>
        <time>2021-09-05T06:18:01Z</time>
      </trkpt>
      <trkpt lat="43.48923" lon="-1.55852">
        <ele>11.3</ele>
        <time>2021-09-05T06:18:02Z</time>
      </trkpt>
      <trkpt lat="43.48923" lon="-1.55849">
        <ele>11.3</ele>
        <time>2021-09-05T06:18:03Z</time>
      </trkpt>
      <trkpt lat="43.48922" lon="-1.55847">
        <ele>11.3</ele>
        <time>2021-09-05T06:18:04Z</time>
      </trkpt>
      <trkpt lat="43.48922" lon="-1.55847">
        <ele>11.3</ele>
        <time>2021-09-05T06:18:05Z</time>
      </trkpt>
      <trkpt lat="43.48922" lon="-1.55847">
        <ele>11.3</ele>
        <time>2021-09-05T06:18:06Z</time>
      </trkpt>
      <trkpt lat="43.48922" lon="-1.55847">
        <ele>11.3</ele>
        <time>2021-09-05T06:18:07Z</time>
      </trkpt>
      <trkpt lat="43.48922" lon="-1.55844">
        <ele>11.3</ele>
        <time>2021-09-05T06:18:08Z</time>
      </trkpt>
      <trkpt lat="43.48922" lon="-1.55844">
        <ele>11.3</ele>
        <time>2021-09-05T06:18:09Z</time>
      </trkpt>
      <trkpt lat="43.4892" lon="-1.55839">
        <ele>11.3</ele>
        <time>2021-09-05T06:18:10Z</time>
      </trkpt>
      <trkpt lat="43.4892" lon="-1.55839">
        <ele>11.3</ele>
        <time>2021-09-05T06:18:11Z</time>
      </trkpt>
      <trkpt lat="43.48919" lon="-1.55836">
        <ele>11.3</ele>
        <time>2021-09-05T06:18:12Z</time>
      </trkpt>
      <trkpt lat="43.48919" lon="-1.55836">
        <ele>11.3</ele>
        <time>2021-09-05T06:18:13Z</time>
      </trkpt>
      <trkpt lat="43.48916" lon="-1.55834">
        <ele>11.3</ele>
        <time>2021-09-05T06:18:14Z</time>
      </trkpt>
      <trkpt lat="43.48916" lon="-1.55834">
        <ele>11.3</ele>
        <time>2021-09-05T06:18:15Z</time>
      </trkpt>
      <trkpt lat="43.48914" lon="-1.55831">
        <ele>11.3</ele>
        <time>2021-09-05T06:18:16Z</time>
      </trkpt>
      <trkpt lat="43.48914" lon="-1.55831">
        <ele>11.3</ele>
        <time>2021-09-05T06:18:17Z</time>
      </trkpt>
      <trkpt lat="43.48913" lon="-1.55827">
        <ele>11.3</ele>
        <time>2021-09-05T06:18:18Z</time>
      </trkpt>
      <trkpt lat="43.48913" lon="-1.55827">
        <ele>11.3</ele>
        <time>2021-09-05T06:18:19Z</time>
      </trkpt>
      <trkpt lat="43.48912" lon="-1.55823">
        <ele>11.3</ele>
        <time>2021-09-05T06:18:20Z</time>
      </trkpt>
      <trkpt lat="43.48912" lon="-1.55823">
        <ele>11.3</ele>
        <time>2021-09-05T06:18:21Z</time>
      </trkpt>
      <trkpt lat="43.48912" lon="-1.55823">
        <ele>11.3</ele>
        <time>2021-09-05T06:18:22Z</time>
      </trkpt>
      <trkpt lat="43.48912" lon="-1.55823">
        <ele>11.3</ele>
        <time>2021-09-05T06:18:23Z</time>
      </trkpt>
      <trkpt lat="43.48912" lon="-1.55823">
        <ele>11.3</ele>
        <time>2021-09-05T06:18:24Z</time>
      </trkpt>
      <trkpt lat="43.48912" lon="-1.55823">
        <ele>11.3</ele>
        <time>2021-09-05T06:18:25Z</time>
      </trkpt>
      <trkpt lat="43.4891" lon="-1.5582">
        <ele>11.3</ele>
        <time>2021-09-05T06:18:26Z</time>
      </trkpt>
      <trkpt lat="43.4891" lon="-1.5582">
        <ele>11.3</ele>
        <time>2021-09-05T06:18:27Z</time>
      </trkpt>
      <trkpt lat="43.4891" lon="-1.5582">
        <ele>11.3</ele>
        <time>2021-09-05T06:18:28Z</time>
      </trkpt>
      <trkpt lat="43.48908" lon="-1.55819">
        <ele>11.3</ele>
        <time>2021-09-05T06:18:29Z</time>
      </trkpt>
      <trkpt lat="43.48908" lon="-1.55819">
        <ele>11.3</ele>
        <time>2021-09-05T06:18:30Z</time>
      </trkpt>
      <trkpt lat="43.48905" lon="-1.55818">
        <ele>11.3</ele>
        <time>2021-09-05T06:18:31Z</time>
      </trkpt>
      <trkpt lat="43.48905" lon="-1.55818">
        <ele>11.3</ele>
        <time>2021-09-05T06:18:32Z</time>
      </trkpt>
      <trkpt lat="43.48905" lon="-1.55818">
        <ele>11.3</ele>
        <time>2021-09-05T06:18:33Z</time>
      </trkpt>
      <trkpt lat="43.48905" lon="-1.55818">
        <ele>11.3</ele>
        <time>2021-09-05T06:18:34Z</time>
      </trkpt>
      <trkpt lat="43.48907" lon="-1.55816">
        <ele>11.3</ele>
        <time>2021-09-05T06:18:35Z</time>
      </trkpt>
      <trkpt lat="43.48907" lon="-1.55816">
        <ele>11.3</ele>
        <time>2021-09-05T06:18:36Z</time>
      </trkpt>
      <trkpt lat="43.48907" lon="-1.55816">
        <ele>11.3</ele>
        <time>2021-09-05T06:18:37Z</time>
      </trkpt>
      <trkpt lat="43.48907" lon="-1.55816">
        <ele>11.3</ele>
        <time>2021-09-05T06:18:38Z</time>
      </trkpt>
      <trkpt lat="43.48907" lon="-1.55816">
        <ele>11.3</ele>
        <time>2021-09-05T06:18:39Z</time>
      </trkpt>
      <trkpt lat="43.48907" lon="-1.55816">
        <ele>11.3</ele>
        <time>2021-09-05T06:18:40Z</time>
      </trkpt>
      <trkpt lat="43.48906" lon="-1.55814">
        <ele>11.3</ele>
        <time>2021-09-05T06:18:41Z</time>
      </trkpt>
      <trkpt lat="43.48906" lon="-1.55814">
        <ele>11.3</ele>
        <time>2021-09-05T06:18:42Z</time>
      </trkpt>
      <trkpt lat="43.48906" lon="-1.55814">
        <ele>11.3</ele>
        <time>2021-09-05T06:18:43Z</time>
      </trkpt>
      <trkpt lat="43.48904" lon="-1.55811">
        <ele>11.3</ele>
        <time>2021-09-05T06:18:44Z</time>
      </trkpt>
      <trkpt lat="43.48902" lon="-1.5581">
        <ele>11.3</ele>
        <time>2021-09-05T06:18:45Z</time>
      </trkpt>
      <trkpt lat="43.48902" lon="-1.5581">
        <ele>11.3</ele>
        <time>2021-09-05T06:18:46Z</time>
      </trkpt>
      <trkpt lat="43.489" lon="-1.55809">
        <ele>11.3</ele>
        <time>2021-09-05T06:18:47Z</time>
      </trkpt>
      <trkpt lat="43.489" lon="-1.55809">
        <ele>11.3</ele>
        <time>2021-09-05T06:18:48Z</time>
      </trkpt>
      <trkpt lat="43.48897" lon="-1.55807">
        <ele>11.3</ele>
        <time>2021-09-05T06:18:49Z</time>
      </trkpt>
      <trkpt lat="43.48897" lon="-1.55807">
        <ele>11.3</ele>
        <time>2021-09-05T06:18:50Z</time>
      </trkpt>
      <trkpt lat="43.48896" lon="-1.55805">
        <ele>11.3</ele>
        <time>2021-09-05T06:18:51Z</time>
      </trkpt>
      <trkpt lat="43.48896" lon="-1.55805">
        <ele>11.3</ele>
        <time>2021-09-05T06:18:52Z</time>
      </trkpt>
      <trkpt lat="43.48896" lon="-1.55805">
        <ele>11.3</ele>
        <time>2021-09-05T06:18:53Z</time>
      </trkpt>
      <trkpt lat="43.48896" lon="-1.55805">
        <ele>11.3</ele>
        <time>2021-09-05T06:18:54Z</time>
      </trkpt>
      <trkpt lat="43.48893" lon="-1.55806">
        <ele>11.3</ele>
        <time>2021-09-05T06:18:55Z</time>
      </trkpt>
      <trkpt lat="43.48893" lon="-1.55806">
        <ele>11.3</ele>
        <time>2021-09-05T06:18:56Z</time>
      </trkpt>
      <trkpt lat="43.48891" lon="-1.55805">
        <ele>11.3</ele>
        <time>2021-09-05T06:18:57Z</time>
      </trkpt>
      <trkpt lat="43.48891" lon="-1.55805">
        <ele>11.3</ele>
        <time>2021-09-05T06:18:58Z</time>
      </trkpt>
      <trkpt lat="43.48888" lon="-1.558">
        <ele>11.3</ele>
        <time>2021-09-05T06:18:59Z</time>
      </trkpt>
      <trkpt lat="43.48888" lon="-1.558">
        <ele>11.3</ele>
        <time>2021-09-05T06:19:00Z</time>
      </trkpt>
      <trkpt lat="43.48888" lon="-1.558">
        <ele>11.3</ele>
        <time>2021-09-05T06:19:01Z</time>
      </trkpt>
      <trkpt lat="43.48888" lon="-1.558">
        <ele>11.3</ele>
        <time>2021-09-05T06:19:02Z</time>
      </trkpt>
      <trkpt lat="43.48888" lon="-1.558">
        <ele>11.3</ele>
        <time>2021-09-05T06:19:03Z</time>
      </trkpt>
      <trkpt lat="43.48888" lon="-1.558">
        <ele>11.3</ele>
        <time>2021-09-05T06:19:04Z</time>
      </trkpt>
      <trkpt lat="43.48886" lon="-1.55798">
        <ele>11.3</ele>
        <time>2021-09-05T06:19:05Z</time>
      </trkpt>
      <trkpt lat="43.48886" lon="-1.55798">
        <ele>11.3</ele>
        <time>2021-09-05T06:19:06Z</time>
      </trkpt>
      <trkpt lat="43.48886" lon="-1.55798">
        <ele>11.3</ele>
        <time>2021-09-05T06:19:07Z</time>
      </trkpt>
      <trkpt lat="43.48885" lon="-1.55795">
        <ele>11.3</ele>
        <time>2021-09-05T06:19:08Z</time>
      </trkpt>
      <trkpt lat="43.48885" lon="-1.55795">
        <ele>11.3</ele>
        <time>2021-09-05T06:19:09Z</time>
      </trkpt>
      <trkpt lat="43.48883" lon="-1.55792">
        <ele>11.3</ele>
        <time>2021-09-05T06:19:10Z</time>
      </trkpt>
      <trkpt lat="43.48883" lon="-1.55792">
        <ele>11.3</ele>
        <time>2021-09-05T06:19:11Z</time>
      </trkpt>
      <trkpt lat="43.48881" lon="-1.55788">
        <ele>11.3</ele>
        <time>2021-09-05T06:19:12Z</time>
      </trkpt>
      <trkpt lat="43.48881" lon="-1.55788">
        <ele>11.3</ele>
        <time>2021-09-05T06:19:13Z</time>
      </trkpt>
      <trkpt lat="43.48885" lon="-1.55797">
        <ele>11.3</ele>
        <time>2021-09-05T06:19:14Z</time>
      </trkpt>
      <trkpt lat="43.48886" lon="-1.55799">
        <ele>11.3</ele>
        <time>2021-09-05T06:19:15Z</time>
      </trkpt>
      <trkpt lat="43.48889" lon="-1.55804">
        <ele>11.3</ele>
        <time>2021-09-05T06:19:16Z</time>
      </trkpt>
      <trkpt lat="43.48889" lon="-1.55804">
        <ele>11.3</ele>
        <time>2021-09-05T06:19:17Z</time>
      </trkpt>
      <trkpt lat="43.48888" lon="-1.558">
        <ele>11.3</ele>
        <time>2021-09-05T06:19:18Z</time>
      </trkpt>
      <trkpt lat="43.48885" lon="-1.55792">
        <ele>11.3</ele>
        <time>2021-09-05T06:19:19Z</time>
      </trkpt>
      <trkpt lat="43.48885" lon="-1.55789">
        <ele>11.3</ele>
        <time>2021-09-05T06:19:20Z</time>
      </trkpt>
      <trkpt lat="43.48884" lon="-1.55785">
        <ele>11.3</ele>
        <time>2021-09-05T06:19:21Z</time>
      </trkpt>
      <trkpt lat="43.48884" lon="-1.55785">
        <ele>11.3</ele>
        <time>2021-09-05T06:19:22Z</time>
      </trkpt>
      <trkpt lat="43.48883" lon="-1.55781">
        <ele>11.3</ele>
        <time>2021-09-05T06:19:23Z</time>
      </trkpt>
      <trkpt lat="43.48883" lon="-1.55781">
        <ele>11.3</ele>
        <time>2021-09-05T06:19:24Z</time>
      </trkpt>
      <trkpt lat="43.48882" lon="-1.55778">
        <ele>11.3</ele>
        <time>2021-09-05T06:19:25Z</time>
      </trkpt>
      <trkpt lat="43.48881" lon="-1.55775">
        <ele>11.3</ele>
        <time>2021-09-05T06:19:26Z</time>
      </trkpt>
      <trkpt lat="43.4888" lon="-1.55772">
        <ele>11.3</ele>
        <time>2021-09-05T06:19:27Z</time>
      </trkpt>
      <trkpt lat="43.4888" lon="-1.55772">
        <ele>11.3</ele>
        <time>2021-09-05T06:19:28Z</time>
      </trkpt>
      <trkpt lat="43.48878" lon="-1.5577">
        <ele>11.3</ele>
        <time>2021-09-05T06:19:29Z</time>
      </trkpt>
      <trkpt lat="43.48877" lon="-1.55769">
        <ele>11.3</ele>
        <time>2021-09-05T06:19:30Z</time>
      </trkpt>
      <trkpt lat="43.48875" lon="-1.55767">
        <ele>11.3</ele>
        <time>2021-09-05T06:19:31Z</time>
      </trkpt>
      <trkpt lat="43.48873" lon="-1.55767">
        <ele>11.3</ele>
        <time>2021-09-05T06:19:32Z</time>
      </trkpt>
      <trkpt lat="43.48873" lon="-1.55767">
        <ele>11.3</ele>
        <time>2021-09-05T06:19:33Z</time>
      </trkpt>
      <trkpt lat="43.4887" lon="-1.55765">
        <ele>11.3</ele>
        <time>2021-09-05T06:19:34Z</time>
      </trkpt>
      <trkpt lat="43.48867" lon="-1.55759">
        <ele>11.3</ele>
        <time>2021-09-05T06:19:35Z</time>
      </trkpt>
      <trkpt lat="43.48867" lon="-1.55759">
        <ele>11.3</ele>
        <time>2021-09-05T06:19:36Z</time>
      </trkpt>
      <trkpt lat="43.48864" lon="-1.55754">
        <ele>11.3</ele>
        <time>2021-09-05T06:19:37Z</time>
      </trkpt>
      <trkpt lat="43.48864" lon="-1.55754">
        <ele>11.3</ele>
        <time>2021-09-05T06:19:38Z</time>
      </trkpt>
      <trkpt lat="43.48862" lon="-1.55751">
        <ele>11.3</ele>
        <time>2021-09-05T06:19:39Z</time>
      </trkpt>
      <trkpt lat="43.48862" lon="-1.55751">
        <ele>11.3</ele>
        <time>2021-09-05T06:19:40Z</time>
      </trkpt>
      <trkpt lat="43.4886" lon="-1.55749">
        <ele>11.3</ele>
        <time>2021-09-05T06:19:41Z</time>
      </trkpt>
      <trkpt lat="43.4886" lon="-1.55749">
        <ele>11.3</ele>
        <time>2021-09-05T06:19:42Z</time>
      </trkpt>
      <trkpt lat="43.4886" lon="-1.55749">
        <ele>11.3</ele>
        <time>2021-09-05T06:19:43Z</time>
      </trkpt>
      <trkpt lat="43.4886" lon="-1.55749">
        <ele>11.3</ele>
        <time>2021-09-05T06:19:44Z</time>
      </trkpt>
      <trkpt lat="43.4886" lon="-1.55749">
        <ele>11.3</ele>
        <time>2021-09-05T06:19:45Z</time>
      </trkpt>
      <trkpt lat="43.4886" lon="-1.55749">
        <ele>11.3</ele>
        <time>2021-09-05T06:19:46Z</time>
      </trkpt>
      <trkpt lat="43.4886" lon="-1.55749">
        <ele>11.3</ele>
        <time>2021-09-05T06:19:47Z</time>
      </trkpt>
      <trkpt lat="43.48858" lon="-1.55747">
        <ele>11.3</ele>
        <time>2021-09-05T06:19:48Z</time>
      </trkpt>
      <trkpt lat="43.48858" lon="-1.55747">
        <ele>11.3</ele>
        <time>2021-09-05T06:19:49Z</time>
      </trkpt>
      <trkpt lat="43.48857" lon="-1.55746">
        <ele>11.3</ele>
        <time>2021-09-05T06:19:50Z</time>
      </trkpt>
      <trkpt lat="43.48855" lon="-1.55746">
        <ele>11.3</ele>
        <time>2021-09-05T06:19:51Z</time>
      </trkpt>
      <trkpt lat="43.48854" lon="-1.55745">
        <ele>11.3</ele>
        <time>2021-09-05T06:19:52Z</time>
      </trkpt>
      <trkpt lat="43.48854" lon="-1.55745">
        <ele>11.3</ele>
        <time>2021-09-05T06:19:53Z</time>
      </trkpt>
      <trkpt lat="43.48854" lon="-1.55745">
        <ele>11.3</ele>
        <time>2021-09-05T06:19:54Z</time>
      </trkpt>
      <trkpt lat="43.48854" lon="-1.55745">
        <ele>11.3</ele>
        <time>2021-09-05T06:19:55Z</time>
      </trkpt>
      <trkpt lat="43.48854" lon="-1.55745">
        <ele>11.3</ele>
        <time>2021-09-05T06:19:56Z</time>
      </trkpt>
      <trkpt lat="43.48853" lon="-1.55742">
        <ele>11.3</ele>
        <time>2021-09-05T06:19:57Z</time>
      </trkpt>
      <trkpt lat="43.48853" lon="-1.55742">
        <ele>11.3</ele>
        <time>2021-09-05T06:19:58Z</time>
      </trkpt>
      <trkpt lat="43.48851" lon="-1.55738">
        <ele>11.3</ele>
        <time>2021-09-05T06:19:59Z</time>
      </trkpt>
      <trkpt lat="43.4885" lon="-1.55735">
        <ele>11.3</ele>
        <time>2021-09-05T06:20:01Z</time>
      </trkpt>
      <trkpt lat="43.4885" lon="-1.55735">
        <ele>11.3</ele>
        <time>2021-09-05T06:20:02Z</time>
      </trkpt>
      <trkpt lat="43.4885" lon="-1.55735">
        <ele>11.3</ele>
        <time>2021-09-05T06:20:03Z</time>
      </trkpt>
      <trkpt lat="43.48848" lon="-1.55732">
        <ele>11.3</ele>
        <time>2021-09-05T06:20:04Z</time>
      </trkpt>
      <trkpt lat="43.48848" lon="-1.55732">
        <ele>11.3</ele>
        <time>2021-09-05T06:20:05Z</time>
      </trkpt>
      <trkpt lat="43.48848" lon="-1.55728">
        <ele>11.3</ele>
        <time>2021-09-05T06:20:06Z</time>
      </trkpt>
      <trkpt lat="43.48846" lon="-1.55725">
        <ele>11.3</ele>
        <time>2021-09-05T06:20:07Z</time>
      </trkpt>
      <trkpt lat="43.48846" lon="-1.55723">
        <ele>11.3</ele>
        <time>2021-09-05T06:20:08Z</time>
      </trkpt>
      <trkpt lat="43.48844" lon="-1.5572">
        <ele>11.3</ele>
        <time>2021-09-05T06:20:09Z</time>
      </trkpt>
      <trkpt lat="43.48844" lon="-1.5572">
        <ele>11.3</ele>
        <time>2021-09-05T06:20:10Z</time>
      </trkpt>
      <trkpt lat="43.48844" lon="-1.5572">
        <ele>11.3</ele>
        <time>2021-09-05T06:20:11Z</time>
      </trkpt>
      <trkpt lat="43.48842" lon="-1.55717">
        <ele>11.3</ele>
        <time>2021-09-05T06:20:12Z</time>
      </trkpt>
      <trkpt lat="43.48842" lon="-1.55717">
        <ele>11.3</ele>
        <time>2021-09-05T06:20:13Z</time>
      </trkpt>
      <trkpt lat="43.48842" lon="-1.55717">
        <ele>11.3</ele>
        <time>2021-09-05T06:20:14Z</time>
      </trkpt>
      <trkpt lat="43.4884" lon="-1.55717">
        <ele>11.3</ele>
        <time>2021-09-05T06:20:15Z</time>
      </trkpt>
      <trkpt lat="43.4884" lon="-1.55717">
        <ele>11.3</ele>
        <time>2021-09-05T06:20:16Z</time>
      </trkpt>
      <trkpt lat="43.4884" lon="-1.55717">
        <ele>11.3</ele>
        <time>2021-09-05T06:20:17Z</time>
      </trkpt>
      <trkpt lat="43.48839" lon="-1.55715">
        <ele>11.3</ele>
        <time>2021-09-05T06:20:18Z</time>
      </trkpt>
      <trkpt lat="43.48839" lon="-1.55715">
        <ele>11.3</ele>
        <time>2021-09-05T06:20:19Z</time>
      </trkpt>
      <trkpt lat="43.48839" lon="-1.55715">
        <ele>11.3</ele>
        <time>2021-09-05T06:20:20Z</time>
      </trkpt>
      <trkpt lat="43.48839" lon="-1.55715">
        <ele>11.3</ele>
        <time>2021-09-05T06:20:21Z</time>
      </trkpt>
      <trkpt lat="43.48839" lon="-1.55715">
        <ele>11.3</ele>
        <time>2021-09-05T06:20:22Z</time>
      </trkpt>
      <trkpt lat="43.48839" lon="-1.55715">
        <ele>11.3</ele>
        <time>2021-09-05T06:20:23Z</time>
      </trkpt>
      <trkpt lat="43.48838" lon="-1.55712">
        <ele>11.3</ele>
        <time>2021-09-05T06:20:24Z</time>
      </trkpt>
      <trkpt lat="43.48838" lon="-1.55712">
        <ele>11.3</ele>
        <time>2021-09-05T06:20:25Z</time>
      </trkpt>
      <trkpt lat="43.48837" lon="-1.55715">
        <ele>11.3</ele>
        <time>2021-09-05T06:20:26Z</time>
      </trkpt>
      <trkpt lat="43.48838" lon="-1.55716">
        <ele>11.3</ele>
        <time>2021-09-05T06:20:27Z</time>
      </trkpt>
      <trkpt lat="43.48838" lon="-1.55716">
        <ele>11.3</ele>
        <time>2021-09-05T06:20:28Z</time>
      </trkpt>
      <trkpt lat="43.48838" lon="-1.55719">
        <ele>11.3</ele>
        <time>2021-09-05T06:20:29Z</time>
      </trkpt>
      <trkpt lat="43.48838" lon="-1.55719">
        <ele>11.3</ele>
        <time>2021-09-05T06:20:30Z</time>
      </trkpt>
      <trkpt lat="43.48837" lon="-1.55717">
        <ele>11.3</ele>
        <time>2021-09-05T06:20:31Z</time>
      </trkpt>
      <trkpt lat="43.48837" lon="-1.55717">
        <ele>11.3</ele>
        <time>2021-09-05T06:20:32Z</time>
      </trkpt>
      <trkpt lat="43.48835" lon="-1.55714">
        <ele>11.3</ele>
        <time>2021-09-05T06:20:33Z</time>
      </trkpt>
      <trkpt lat="43.48835" lon="-1.55714">
        <ele>11.3</ele>
        <time>2021-09-05T06:20:34Z</time>
      </trkpt>
      <trkpt lat="43.48834" lon="-1.55712">
        <ele>11.3</ele>
        <time>2021-09-05T06:20:35Z</time>
      </trkpt>
      <trkpt lat="43.48834" lon="-1.55712">
        <ele>11.3</ele>
        <time>2021-09-05T06:20:36Z</time>
      </trkpt>
      <trkpt lat="43.48832" lon="-1.55709">
        <ele>11.3</ele>
        <time>2021-09-05T06:20:37Z</time>
      </trkpt>
      <trkpt lat="43.48832" lon="-1.55709">
        <ele>11.3</ele>
        <time>2021-09-05T06:20:38Z</time>
      </trkpt>
      <trkpt lat="43.48832" lon="-1.55709">
        <ele>11.3</ele>
        <time>2021-09-05T06:20:39Z</time>
      </trkpt>
      <trkpt lat="43.48831" lon="-1.55705">
        <ele>11.3</ele>
        <time>2021-09-05T06:20:40Z</time>
      </trkpt>
      <trkpt lat="43.48831" lon="-1.55705">
        <ele>11.3</ele>
        <time>2021-09-05T06:20:41Z</time>
      </trkpt>
      <trkpt lat="43.48829" lon="-1.55703">
        <ele>11.3</ele>
        <time>2021-09-05T06:20:42Z</time>
      </trkpt>
      <trkpt lat="43.48829" lon="-1.55703">
        <ele>11.3</ele>
        <time>2021-09-05T06:20:43Z</time>
      </trkpt>
      <trkpt lat="43.48827" lon="-1.55701">
        <ele>11.3</ele>
        <time>2021-09-05T06:20:44Z</time>
      </trkpt>
      <trkpt lat="43.48827" lon="-1.55701">
        <ele>11.3</ele>
        <time>2021-09-05T06:20:45Z</time>
      </trkpt>
      <trkpt lat="43.48823" lon="-1.55699">
        <ele>11.3</ele>
        <time>2021-09-05T06:20:46Z</time>
      </trkpt>
      <trkpt lat="43.48821" lon="-1.55697">
        <ele>11.3</ele>
        <time>2021-09-05T06:20:47Z</time>
      </trkpt>
      <trkpt lat="43.48821" lon="-1.55697">
        <ele>11.3</ele>
        <time>2021-09-05T06:20:48Z</time>
      </trkpt>
      <trkpt lat="43.48821" lon="-1.55697">
        <ele>11.3</ele>
        <time>2021-09-05T06:20:49Z</time>
      </trkpt>
      <trkpt lat="43.48819" lon="-1.55696">
        <ele>11.3</ele>
        <time>2021-09-05T06:20:50Z</time>
      </trkpt>
      <trkpt lat="43.48819" lon="-1.55696">
        <ele>11.3</ele>
        <time>2021-09-05T06:20:51Z</time>
      </trkpt>
      <trkpt lat="43.48816" lon="-1.55694">
        <ele>11.3</ele>
        <time>2021-09-05T06:20:52Z</time>
      </trkpt>
      <trkpt lat="43.48814" lon="-1.55693">
        <ele>11.3</ele>
        <time>2021-09-05T06:20:53Z</time>
      </trkpt>
      <trkpt lat="43.48814" lon="-1.55693">
        <ele>11.3</ele>
        <time>2021-09-05T06:20:54Z</time>
      </trkpt>
      <trkpt lat="43.48812" lon="-1.55691">
        <ele>11.3</ele>
        <time>2021-09-05T06:20:55Z</time>
      </trkpt>
      <trkpt lat="43.48812" lon="-1.55691">
        <ele>11.3</ele>
        <time>2021-09-05T06:20:56Z</time>
      </trkpt>
      <trkpt lat="43.48811" lon="-1.55688">
        <ele>11.3</ele>
        <time>2021-09-05T06:20:57Z</time>
      </trkpt>
      <trkpt lat="43.48814" lon="-1.55687">
        <ele>11.3</ele>
        <time>2021-09-05T06:20:58Z</time>
      </trkpt>
      <trkpt lat="43.48814" lon="-1.55687">
        <ele>11.3</ele>
        <time>2021-09-05T06:20:59Z</time>
      </trkpt>
      <trkpt lat="43.48813" lon="-1.5568">
        <ele>11.3</ele>
        <time>2021-09-05T06:21:00Z</time>
      </trkpt>
      <trkpt lat="43.48813" lon="-1.5568">
        <ele>11.3</ele>
        <time>2021-09-05T06:21:01Z</time>
      </trkpt>
      <trkpt lat="43.48814" lon="-1.55677">
        <ele>11.3</ele>
        <time>2021-09-05T06:21:02Z</time>
      </trkpt>
      <trkpt lat="43.48814" lon="-1.55677">
        <ele>11.3</ele>
        <time>2021-09-05T06:21:03Z</time>
      </trkpt>
      <trkpt lat="43.48814" lon="-1.55677">
        <ele>11.3</ele>
        <time>2021-09-05T06:21:04Z</time>
      </trkpt>
      <trkpt lat="43.48814" lon="-1.55677">
        <ele>11.3</ele>
        <time>2021-09-05T06:21:05Z</time>
      </trkpt>
      <trkpt lat="43.48814" lon="-1.55677">
        <ele>11.3</ele>
        <time>2021-09-05T06:21:06Z</time>
      </trkpt>
      <trkpt lat="43.48814" lon="-1.55677">
        <ele>11.3</ele>
        <time>2021-09-05T06:21:07Z</time>
      </trkpt>
      <trkpt lat="43.48814" lon="-1.55677">
        <ele>11.3</ele>
        <time>2021-09-05T06:21:08Z</time>
      </trkpt>
      <trkpt lat="43.48813" lon="-1.55675">
        <ele>11.3</ele>
        <time>2021-09-05T06:21:09Z</time>
      </trkpt>
      <trkpt lat="43.48813" lon="-1.55675">
        <ele>11.3</ele>
        <time>2021-09-05T06:21:10Z</time>
      </trkpt>
      <trkpt lat="43.48811" lon="-1.55673">
        <ele>11.3</ele>
        <time>2021-09-05T06:21:11Z</time>
      </trkpt>
      <trkpt lat="43.48811" lon="-1.55673">
        <ele>11.3</ele>
        <time>2021-09-05T06:21:12Z</time>
      </trkpt>
      <trkpt lat="43.48809" lon="-1.55673">
        <ele>11.3</ele>
        <time>2021-09-05T06:21:13Z</time>
      </trkpt>
      <trkpt lat="43.48807" lon="-1.55674">
        <ele>11.3</ele>
        <time>2021-09-05T06:21:14Z</time>
      </trkpt>
      <trkpt lat="43.48807" lon="-1.55674">
        <ele>11.3</ele>
        <time>2021-09-05T06:21:15Z</time>
      </trkpt>
      <trkpt lat="43.48806" lon="-1.55671">
        <ele>11.3</ele>
        <time>2021-09-05T06:21:16Z</time>
      </trkpt>
      <trkpt lat="43.48806" lon="-1.55671">
        <ele>11.3</ele>
        <time>2021-09-05T06:21:17Z</time>
      </trkpt>
      <trkpt lat="43.48805" lon="-1.55669">
        <ele>11.3</ele>
        <time>2021-09-05T06:21:18Z</time>
      </trkpt>
      <trkpt lat="43.48805" lon="-1.55669">
        <ele>11.3</ele>
        <time>2021-09-05T06:21:19Z</time>
      </trkpt>
      <trkpt lat="43.48803" lon="-1.55666">
        <ele>11.3</ele>
        <time>2021-09-05T06:21:20Z</time>
      </trkpt>
      <trkpt lat="43.48803" lon="-1.55666">
        <ele>11.3</ele>
        <time>2021-09-05T06:21:21Z</time>
      </trkpt>
      <trkpt lat="43.48803" lon="-1.55666">
        <ele>11.3</ele>
        <time>2021-09-05T06:21:22Z</time>
      </trkpt>
      <trkpt lat="43.48802" lon="-1.55664">
        <ele>11.3</ele>
        <time>2021-09-05T06:21:23Z</time>
      </trkpt>
      <trkpt lat="43.48802" lon="-1.55664">
        <ele>11.3</ele>
        <time>2021-09-05T06:21:24Z</time>
      </trkpt>
      <trkpt lat="43.48802" lon="-1.55664">
        <ele>11.3</ele>
        <time>2021-09-05T06:21:25Z</time>
      </trkpt>
      <trkpt lat="43.48801" lon="-1.55661">
        <ele>11.3</ele>
        <time>2021-09-05T06:21:26Z</time>
      </trkpt>
      <trkpt lat="43.48801" lon="-1.55661">
        <ele>11.3</ele>
        <time>2021-09-05T06:21:27Z</time>
      </trkpt>
      <trkpt lat="43.48799" lon="-1.55659">
        <ele>11.3</ele>
        <time>2021-09-05T06:21:28Z</time>
      </trkpt>
      <trkpt lat="43.48797" lon="-1.55657">
        <ele>11.3</ele>
        <time>2021-09-05T06:21:29Z</time>
      </trkpt>
      <trkpt lat="43.48795" lon="-1.55654">
        <ele>11.3</ele>
        <time>2021-09-05T06:21:30Z</time>
      </trkpt>
      <trkpt lat="43.48792" lon="-1.55651">
        <ele>11.3</ele>
        <time>2021-09-05T06:21:31Z</time>
      </trkpt>
      <trkpt lat="43.48789" lon="-1.55648">
        <ele>11.3</ele>
        <time>2021-09-05T06:21:32Z</time>
      </trkpt>
      <trkpt lat="43.48789" lon="-1.55648">
        <ele>11.3</ele>
        <time>2021-09-05T06:21:33Z</time>
      </trkpt>
      <trkpt lat="43.48788" lon="-1.55646">
        <ele>11.3</ele>
        <time>2021-09-05T06:21:34Z</time>
      </trkpt>
      <trkpt lat="43.4879" lon="-1.55645">
        <ele>11.3</ele>
        <time>2021-09-05T06:21:35Z</time>
      </trkpt>
      <trkpt lat="43.4879" lon="-1.55645">
        <ele>11.3</ele>
        <time>2021-09-05T06:21:36Z</time>
      </trkpt>
      <trkpt lat="43.4879" lon="-1.55642">
        <ele>11.3</ele>
        <time>2021-09-05T06:21:37Z</time>
      </trkpt>
      <trkpt lat="43.48789" lon="-1.55639">
        <ele>11.3</ele>
        <time>2021-09-05T06:21:38Z</time>
      </trkpt>
      <trkpt lat="43.48786" lon="-1.55636">
        <ele>11.2</ele>
        <time>2021-09-05T06:21:39Z</time>
      </trkpt>
      <trkpt lat="43.48784" lon="-1.55632">
        <ele>11.3</ele>
        <time>2021-09-05T06:21:40Z</time>
      </trkpt>
      <trkpt lat="43.48784" lon="-1.55632">
        <ele>11.3</ele>
        <time>2021-09-05T06:21:41Z</time>
      </trkpt>
      <trkpt lat="43.48782" lon="-1.55629">
        <ele>11.2</ele>
        <time>2021-09-05T06:21:42Z</time>
      </trkpt>
      <trkpt lat="43.48782" lon="-1.55629">
        <ele>11.2</ele>
        <time>2021-09-05T06:21:43Z</time>
      </trkpt>
      <trkpt lat="43.48782" lon="-1.55629">
        <ele>11.2</ele>
        <time>2021-09-05T06:21:44Z</time>
      </trkpt>
      <trkpt lat="43.48782" lon="-1.55629">
        <ele>11.2</ele>
        <time>2021-09-05T06:21:45Z</time>
      </trkpt>
      <trkpt lat="43.48782" lon="-1.55626">
        <ele>11.3</ele>
        <time>2021-09-05T06:21:46Z</time>
      </trkpt>
      <trkpt lat="43.48782" lon="-1.55626">
        <ele>11.3</ele>
        <time>2021-09-05T06:21:47Z</time>
      </trkpt>
      <trkpt lat="43.48782" lon="-1.55623">
        <ele>11.3</ele>
        <time>2021-09-05T06:21:48Z</time>
      </trkpt>
      <trkpt lat="43.48782" lon="-1.55623">
        <ele>11.3</ele>
        <time>2021-09-05T06:21:49Z</time>
      </trkpt>
      <trkpt lat="43.48782" lon="-1.55623">
        <ele>11.3</ele>
        <time>2021-09-05T06:21:50Z</time>
      </trkpt>
      <trkpt lat="43.48785" lon="-1.55626">
        <ele>11.3</ele>
        <time>2021-09-05T06:21:51Z</time>
      </trkpt>
      <trkpt lat="43.48787" lon="-1.55632">
        <ele>11.3</ele>
        <time>2021-09-05T06:21:52Z</time>
      </trkpt>
      <trkpt lat="43.48788" lon="-1.55634">
        <ele>11.3</ele>
        <time>2021-09-05T06:21:53Z</time>
      </trkpt>
      <trkpt lat="43.48788" lon="-1.55634">
        <ele>11.3</ele>
        <time>2021-09-05T06:21:54Z</time>
      </trkpt>
      <trkpt lat="43.48787" lon="-1.5563">
        <ele>11.3</ele>
        <time>2021-09-05T06:21:55Z</time>
      </trkpt>
      <trkpt lat="43.48787" lon="-1.5563">
        <ele>11.3</ele>
        <time>2021-09-05T06:21:56Z</time>
      </trkpt>
      <trkpt lat="43.48787" lon="-1.55627">
        <ele>11.3</ele>
        <time>2021-09-05T06:21:57Z</time>
      </trkpt>
      <trkpt lat="43.48787" lon="-1.55627">
        <ele>11.3</ele>
        <time>2021-09-05T06:21:58Z</time>
      </trkpt>
      <trkpt lat="43.48787" lon="-1.55627">
        <ele>11.3</ele>
        <time>2021-09-05T06:21:59Z</time>
      </trkpt>
      <trkpt lat="43.48787" lon="-1.55627">
        <ele>11.3</ele>
        <time>2021-09-05T06:22:00Z</time>
      </trkpt>
      <trkpt lat="43.48785" lon="-1.55624">
        <ele>11.3</ele>
        <time>2021-09-05T06:22:01Z</time>
      </trkpt>
      <trkpt lat="43.48783" lon="-1.55623">
        <ele>11.3</ele>
        <time>2021-09-05T06:22:02Z</time>
      </trkpt>
      <trkpt lat="43.48783" lon="-1.55623">
        <ele>11.3</ele>
        <time>2021-09-05T06:22:03Z</time>
      </trkpt>
      <trkpt lat="43.48782" lon="-1.55619">
        <ele>11.4</ele>
        <time>2021-09-05T06:22:04Z</time>
      </trkpt>
      <trkpt lat="43.48782" lon="-1.55619">
        <ele>11.4</ele>
        <time>2021-09-05T06:22:05Z</time>
      </trkpt>
      <trkpt lat="43.48781" lon="-1.55616">
        <ele>11.4</ele>
        <time>2021-09-05T06:22:06Z</time>
      </trkpt>
      <trkpt lat="43.48781" lon="-1.55616">
        <ele>11.4</ele>
        <time>2021-09-05T06:22:07Z</time>
      </trkpt>
      <trkpt lat="43.48781" lon="-1.55616">
        <ele>11.4</ele>
        <time>2021-09-05T06:22:08Z</time>
      </trkpt>
      <trkpt lat="43.48779" lon="-1.55612">
        <ele>11.6</ele>
        <time>2021-09-05T06:22:09Z</time>
      </trkpt>
      <trkpt lat="43.48779" lon="-1.55612">
        <ele>11.6</ele>
        <time>2021-09-05T06:22:10Z</time>
      </trkpt>
      <trkpt lat="43.48777" lon="-1.55606">
        <ele>11.8</ele>
        <time>2021-09-05T06:22:11Z</time>
      </trkpt>
      <trkpt lat="43.48777" lon="-1.55605">
        <ele>11.9</ele>
        <time>2021-09-05T06:22:12Z</time>
      </trkpt>
      <trkpt lat="43.48776" lon="-1.55601">
        <ele>11.8</ele>
        <time>2021-09-05T06:22:13Z</time>
      </trkpt>
      <trkpt lat="43.48775" lon="-1.55599">
        <ele>11.8</ele>
        <time>2021-09-05T06:22:14Z</time>
      </trkpt>
      <trkpt lat="43.48773" lon="-1.55599">
        <ele>11.9</ele>
        <time>2021-09-05T06:22:15Z</time>
      </trkpt>
      <trkpt lat="43.48771" lon="-1.556">
        <ele>11.9</ele>
        <time>2021-09-05T06:22:16Z</time>
      </trkpt>
      <trkpt lat="43.48769" lon="-1.55603">
        <ele>12</ele>
        <time>2021-09-05T06:22:17Z</time>
      </trkpt>
      <trkpt lat="43.48767" lon="-1.55606">
        <ele>11.9</ele>
        <time>2021-09-05T06:22:18Z</time>
      </trkpt>
      <trkpt lat="43.48765" lon="-1.55609">
        <ele>11.9</ele>
        <time>2021-09-05T06:22:19Z</time>
      </trkpt>
      <trkpt lat="43.48764" lon="-1.55612">
        <ele>11.6</ele>
        <time>2021-09-05T06:22:20Z</time>
      </trkpt>
      <trkpt lat="43.48761" lon="-1.55615">
        <ele>11.4</ele>
        <time>2021-09-05T06:22:21Z</time>
      </trkpt>
      <trkpt lat="43.48759" lon="-1.55618">
        <ele>11.4</ele>
        <time>2021-09-05T06:22:22Z</time>
      </trkpt>
      <trkpt lat="43.48757" lon="-1.55621">
        <ele>11.3</ele>
        <time>2021-09-05T06:22:23Z</time>
      </trkpt>
      <trkpt lat="43.48755" lon="-1.55624">
        <ele>11.3</ele>
        <time>2021-09-05T06:22:24Z</time>
      </trkpt>
      <trkpt lat="43.48753" lon="-1.55626">
        <ele>11.5</ele>
        <time>2021-09-05T06:22:25Z</time>
      </trkpt>
      <trkpt lat="43.48751" lon="-1.55629">
        <ele>11.7</ele>
        <time>2021-09-05T06:22:26Z</time>
      </trkpt>
      <trkpt lat="43.48749" lon="-1.55632">
        <ele>11.7</ele>
        <time>2021-09-05T06:22:27Z</time>
      </trkpt>
      <trkpt lat="43.48747" lon="-1.55635">
        <ele>11.9</ele>
        <time>2021-09-05T06:22:28Z</time>
      </trkpt>
      <trkpt lat="43.48745" lon="-1.55638">
        <ele>11.9</ele>
        <time>2021-09-05T06:22:29Z</time>
      </trkpt>
      <trkpt lat="43.48743" lon="-1.55641">
        <ele>11.8</ele>
        <time>2021-09-05T06:22:30Z</time>
      </trkpt>
      <trkpt lat="43.48741" lon="-1.55644">
        <ele>11.8</ele>
        <time>2021-09-05T06:22:31Z</time>
      </trkpt>
      <trkpt lat="43.48739" lon="-1.55647">
        <ele>11.7</ele>
        <time>2021-09-05T06:22:32Z</time>
      </trkpt>
      <trkpt lat="43.48737" lon="-1.55649">
        <ele>11.7</ele>
        <time>2021-09-05T06:22:33Z</time>
      </trkpt>
      <trkpt lat="43.48735" lon="-1.55652">
        <ele>11.5</ele>
        <time>2021-09-05T06:22:34Z</time>
      </trkpt>
      <trkpt lat="43.48733" lon="-1.55655">
        <ele>11.5</ele>
        <time>2021-09-05T06:22:35Z</time>
      </trkpt>
      <trkpt lat="43.48731" lon="-1.55658">
        <ele>11.5</ele>
        <time>2021-09-05T06:22:36Z</time>
      </trkpt>
      <trkpt lat="43.48728" lon="-1.55661">
        <ele>11.6</ele>
        <time>2021-09-05T06:22:37Z</time>
      </trkpt>
      <trkpt lat="43.48726" lon="-1.55664">
        <ele>11.7</ele>
        <time>2021-09-05T06:22:38Z</time>
      </trkpt>
      <trkpt lat="43.48725" lon="-1.55667">
        <ele>11.7</ele>
        <time>2021-09-05T06:22:39Z</time>
      </trkpt>
      <trkpt lat="43.48723" lon="-1.5567">
        <ele>11.7</ele>
        <time>2021-09-05T06:22:40Z</time>
      </trkpt>
      <trkpt lat="43.48721" lon="-1.55673">
        <ele>11.6</ele>
        <time>2021-09-05T06:22:41Z</time>
      </trkpt>
      <trkpt lat="43.4872" lon="-1.55676">
        <ele>11.6</ele>
        <time>2021-09-05T06:22:42Z</time>
      </trkpt>
      <trkpt lat="43.48718" lon="-1.55679">
        <ele>11.6</ele>
        <time>2021-09-05T06:22:43Z</time>
      </trkpt>
      <trkpt lat="43.48716" lon="-1.55681">
        <ele>11.6</ele>
        <time>2021-09-05T06:22:44Z</time>
      </trkpt>
      <trkpt lat="43.48715" lon="-1.55684">
        <ele>11.6</ele>
        <time>2021-09-05T06:22:45Z</time>
      </trkpt>
      <trkpt lat="43.48713" lon="-1.55686">
        <ele>11.6</ele>
        <time>2021-09-05T06:22:46Z</time>
      </trkpt>
      <trkpt lat="43.48711" lon="-1.55689">
        <ele>11.6</ele>
        <time>2021-09-05T06:22:47Z</time>
      </trkpt>
      <trkpt lat="43.48709" lon="-1.55691">
        <ele>11.6</ele>
        <time>2021-09-05T06:22:48Z</time>
      </trkpt>
      <trkpt lat="43.48707" lon="-1.55694">
        <ele>11.6</ele>
        <time>2021-09-05T06:22:49Z</time>
      </trkpt>
      <trkpt lat="43.48705" lon="-1.55696">
        <ele>11.6</ele>
        <time>2021-09-05T06:22:50Z</time>
      </trkpt>
      <trkpt lat="43.48703" lon="-1.55698">
        <ele>11.6</ele>
        <time>2021-09-05T06:22:51Z</time>
      </trkpt>
      <trkpt lat="43.48701" lon="-1.557">
        <ele>11.7</ele>
        <time>2021-09-05T06:22:52Z</time>
      </trkpt>
      <trkpt lat="43.48699" lon="-1.55702">
        <ele>11.6</ele>
        <time>2021-09-05T06:22:53Z</time>
      </trkpt>
      <trkpt lat="43.48697" lon="-1.55704">
        <ele>11.6</ele>
        <time>2021-09-05T06:22:54Z</time>
      </trkpt>
      <trkpt lat="43.48694" lon="-1.55707">
        <ele>11.6</ele>
        <time>2021-09-05T06:22:55Z</time>
      </trkpt>
      <trkpt lat="43.48692" lon="-1.55709">
        <ele>11.7</ele>
        <time>2021-09-05T06:22:56Z</time>
      </trkpt>
      <trkpt lat="43.4869" lon="-1.55712">
        <ele>11.6</ele>
        <time>2021-09-05T06:22:57Z</time>
      </trkpt>
      <trkpt lat="43.48687" lon="-1.55715">
        <ele>11.6</ele>
        <time>2021-09-05T06:22:58Z</time>
      </trkpt>
      <trkpt lat="43.48685" lon="-1.55718">
        <ele>11.6</ele>
        <time>2021-09-05T06:22:59Z</time>
      </trkpt>
      <trkpt lat="43.48683" lon="-1.55722">
        <ele>11.7</ele>
        <time>2021-09-05T06:23:00Z</time>
      </trkpt>
      <trkpt lat="43.48681" lon="-1.55725">
        <ele>11.7</ele>
        <time>2021-09-05T06:23:01Z</time>
      </trkpt>
      <trkpt lat="43.48679" lon="-1.55729">
        <ele>11.7</ele>
        <time>2021-09-05T06:23:02Z</time>
      </trkpt>
      <trkpt lat="43.48676" lon="-1.55733">
        <ele>11.7</ele>
        <time>2021-09-05T06:23:03Z</time>
      </trkpt>
      <trkpt lat="43.48674" lon="-1.55737">
        <ele>11.7</ele>
        <time>2021-09-05T06:23:04Z</time>
      </trkpt>
      <trkpt lat="43.48672" lon="-1.5574">
        <ele>11.7</ele>
        <time>2021-09-05T06:23:05Z</time>
      </trkpt>
      <trkpt lat="43.48669" lon="-1.55744">
        <ele>11.7</ele>
        <time>2021-09-05T06:23:06Z</time>
      </trkpt>
      <trkpt lat="43.48667" lon="-1.55747">
        <ele>11.7</ele>
        <time>2021-09-05T06:23:07Z</time>
      </trkpt>
      <trkpt lat="43.48664" lon="-1.5575">
        <ele>11.7</ele>
        <time>2021-09-05T06:23:08Z</time>
      </trkpt>
      <trkpt lat="43.48661" lon="-1.55753">
        <ele>11.7</ele>
        <time>2021-09-05T06:23:09Z</time>
      </trkpt>
      <trkpt lat="43.48659" lon="-1.55757">
        <ele>11.7</ele>
        <time>2021-09-05T06:23:10Z</time>
      </trkpt>
      <trkpt lat="43.48656" lon="-1.5576">
        <ele>11.8</ele>
        <time>2021-09-05T06:23:11Z</time>
      </trkpt>
      <trkpt lat="43.48653" lon="-1.55762">
        <ele>11.8</ele>
        <time>2021-09-05T06:23:12Z</time>
      </trkpt>
      <trkpt lat="43.4865" lon="-1.55765">
        <ele>11.8</ele>
        <time>2021-09-05T06:23:13Z</time>
      </trkpt>
      <trkpt lat="43.48648" lon="-1.55768">
        <ele>11.8</ele>
        <time>2021-09-05T06:23:14Z</time>
      </trkpt>
      <trkpt lat="43.48645" lon="-1.55772">
        <ele>11.8</ele>
        <time>2021-09-05T06:23:15Z</time>
      </trkpt>
      <trkpt lat="43.48642" lon="-1.55775">
        <ele>11.8</ele>
        <time>2021-09-05T06:23:16Z</time>
      </trkpt>
      <trkpt lat="43.48638" lon="-1.55778">
        <ele>11.8</ele>
        <time>2021-09-05T06:23:17Z</time>
      </trkpt>
      <trkpt lat="43.48636" lon="-1.55781">
        <ele>11.8</ele>
        <time>2021-09-05T06:23:18Z</time>
      </trkpt>
      <trkpt lat="43.48633" lon="-1.55784">
        <ele>11.8</ele>
        <time>2021-09-05T06:23:19Z</time>
      </trkpt>
      <trkpt lat="43.4863" lon="-1.55787">
        <ele>11.8</ele>
        <time>2021-09-05T06:23:20Z</time>
      </trkpt>
      <trkpt lat="43.48627" lon="-1.55791">
        <ele>11.8</ele>
        <time>2021-09-05T06:23:21Z</time>
      </trkpt>
      <trkpt lat="43.48624" lon="-1.55794">
        <ele>11.8</ele>
        <time>2021-09-05T06:23:22Z</time>
      </trkpt>
      <trkpt lat="43.48621" lon="-1.55798">
        <ele>11.8</ele>
        <time>2021-09-05T06:23:23Z</time>
      </trkpt>
      <trkpt lat="43.48618" lon="-1.55801">
        <ele>11.8</ele>
        <time>2021-09-05T06:23:24Z</time>
      </trkpt>
      <trkpt lat="43.48614" lon="-1.55804">
        <ele>11.8</ele>
        <time>2021-09-05T06:23:25Z</time>
      </trkpt>
      <trkpt lat="43.48612" lon="-1.55807">
        <ele>11.8</ele>
        <time>2021-09-05T06:23:26Z</time>
      </trkpt>
      <trkpt lat="43.48609" lon="-1.55811">
        <ele>11.8</ele>
        <time>2021-09-05T06:23:27Z</time>
      </trkpt>
      <trkpt lat="43.48606" lon="-1.55814">
        <ele>11.9</ele>
        <time>2021-09-05T06:23:28Z</time>
      </trkpt>
      <trkpt lat="43.48604" lon="-1.55818">
        <ele>11.9</ele>
        <time>2021-09-05T06:23:29Z</time>
      </trkpt>
      <trkpt lat="43.486" lon="-1.55821">
        <ele>11.9</ele>
        <time>2021-09-05T06:23:30Z</time>
      </trkpt>
      <trkpt lat="43.48597" lon="-1.55824">
        <ele>11.9</ele>
        <time>2021-09-05T06:23:31Z</time>
      </trkpt>
      <trkpt lat="43.48594" lon="-1.55827">
        <ele>11.9</ele>
        <time>2021-09-05T06:23:32Z</time>
      </trkpt>
      <trkpt lat="43.48591" lon="-1.5583">
        <ele>11.9</ele>
        <time>2021-09-05T06:23:33Z</time>
      </trkpt>
      <trkpt lat="43.48589" lon="-1.55833">
        <ele>11.9</ele>
        <time>2021-09-05T06:23:34Z</time>
      </trkpt>
      <trkpt lat="43.48586" lon="-1.55837">
        <ele>11.9</ele>
        <time>2021-09-05T06:23:35Z</time>
      </trkpt>
      <trkpt lat="43.48582" lon="-1.5584">
        <ele>11.9</ele>
        <time>2021-09-05T06:23:36Z</time>
      </trkpt>
      <trkpt lat="43.4858" lon="-1.55843">
        <ele>11.9</ele>
        <time>2021-09-05T06:23:37Z</time>
      </trkpt>
      <trkpt lat="43.48576" lon="-1.55846">
        <ele>11.9</ele>
        <time>2021-09-05T06:23:38Z</time>
      </trkpt>
      <trkpt lat="43.48573" lon="-1.55849">
        <ele>12</ele>
        <time>2021-09-05T06:23:39Z</time>
      </trkpt>
      <trkpt lat="43.4857" lon="-1.55852">
        <ele>12</ele>
        <time>2021-09-05T06:23:40Z</time>
      </trkpt>
      <trkpt lat="43.48566" lon="-1.55855">
        <ele>12</ele>
        <time>2021-09-05T06:23:41Z</time>
      </trkpt>
      <trkpt lat="43.48563" lon="-1.55858">
        <ele>12</ele>
        <time>2021-09-05T06:23:42Z</time>
      </trkpt>
      <trkpt lat="43.4856" lon="-1.55861">
        <ele>12</ele>
        <time>2021-09-05T06:23:43Z</time>
      </trkpt>
      <trkpt lat="43.48556" lon="-1.55864">
        <ele>11.9</ele>
        <time>2021-09-05T06:23:44Z</time>
      </trkpt>
      <trkpt lat="43.48553" lon="-1.55867">
        <ele>11.9</ele>
        <time>2021-09-05T06:23:45Z</time>
      </trkpt>
      <trkpt lat="43.48549" lon="-1.55869">
        <ele>12</ele>
        <time>2021-09-05T06:23:46Z</time>
      </trkpt>
      <trkpt lat="43.48546" lon="-1.55872">
        <ele>12</ele>
        <time>2021-09-05T06:23:47Z</time>
      </trkpt>
      <trkpt lat="43.48543" lon="-1.55875">
        <ele>12</ele>
        <time>2021-09-05T06:23:48Z</time>
      </trkpt>
      <trkpt lat="43.48539" lon="-1.55878">
        <ele>12</ele>
        <time>2021-09-05T06:23:49Z</time>
      </trkpt>
      <trkpt lat="43.48536" lon="-1.5588">
        <ele>12.1</ele>
        <time>2021-09-05T06:23:50Z</time>
      </trkpt>
      <trkpt lat="43.48533" lon="-1.55883">
        <ele>12.1</ele>
        <time>2021-09-05T06:23:51Z</time>
      </trkpt>
      <trkpt lat="43.4853" lon="-1.55887">
        <ele>12.1</ele>
        <time>2021-09-05T06:23:52Z</time>
      </trkpt>
      <trkpt lat="43.48527" lon="-1.5589">
        <ele>12.2</ele>
        <time>2021-09-05T06:23:53Z</time>
      </trkpt>
      <trkpt lat="43.48524" lon="-1.55894">
        <ele>12.2</ele>
        <time>2021-09-05T06:23:54Z</time>
      </trkpt>
      <trkpt lat="43.48521" lon="-1.55897">
        <ele>12.1</ele>
        <time>2021-09-05T06:23:55Z</time>
      </trkpt>
      <trkpt lat="43.48518" lon="-1.55901">
        <ele>12</ele>
        <time>2021-09-05T06:23:56Z</time>
      </trkpt>
      <trkpt lat="43.48515" lon="-1.55905">
        <ele>12</ele>
        <time>2021-09-05T06:23:57Z</time>
      </trkpt>
      <trkpt lat="43.48511" lon="-1.55908">
        <ele>12.1</ele>
        <time>2021-09-05T06:23:58Z</time>
      </trkpt>
      <trkpt lat="43.48509" lon="-1.55912">
        <ele>12.2</ele>
        <time>2021-09-05T06:23:59Z</time>
      </trkpt>
      <trkpt lat="43.48506" lon="-1.55916">
        <ele>12.2</ele>
        <time>2021-09-05T06:24:00Z</time>
      </trkpt>
      <trkpt lat="43.48503" lon="-1.55919">
        <ele>12.4</ele>
        <time>2021-09-05T06:24:01Z</time>
      </trkpt>
      <trkpt lat="43.48501" lon="-1.55923">
        <ele>12.3</ele>
        <time>2021-09-05T06:24:02Z</time>
      </trkpt>
      <trkpt lat="43.48498" lon="-1.55927">
        <ele>12.2</ele>
        <time>2021-09-05T06:24:03Z</time>
      </trkpt>
      <trkpt lat="43.48495" lon="-1.5593">
        <ele>12</ele>
        <time>2021-09-05T06:24:04Z</time>
      </trkpt>
      <trkpt lat="43.48492" lon="-1.55934">
        <ele>11.9</ele>
        <time>2021-09-05T06:24:05Z</time>
      </trkpt>
      <trkpt lat="43.48489" lon="-1.55938">
        <ele>11.9</ele>
        <time>2021-09-05T06:24:06Z</time>
      </trkpt>
      <trkpt lat="43.48486" lon="-1.55941">
        <ele>12</ele>
        <time>2021-09-05T06:24:07Z</time>
      </trkpt>
      <trkpt lat="43.48484" lon="-1.55945">
        <ele>12.1</ele>
        <time>2021-09-05T06:24:08Z</time>
      </trkpt>
      <trkpt lat="43.48481" lon="-1.55949">
        <ele>12.4</ele>
        <time>2021-09-05T06:24:09Z</time>
      </trkpt>
      <trkpt lat="43.48478" lon="-1.55953">
        <ele>12.3</ele>
        <time>2021-09-05T06:24:10Z</time>
      </trkpt>
      <trkpt lat="43.48476" lon="-1.55957">
        <ele>12.4</ele>
        <time>2021-09-05T06:24:11Z</time>
      </trkpt>
      <trkpt lat="43.48473" lon="-1.55961">
        <ele>12.3</ele>
        <time>2021-09-05T06:24:12Z</time>
      </trkpt>
      <trkpt lat="43.4847" lon="-1.55966">
        <ele>12.3</ele>
        <time>2021-09-05T06:24:13Z</time>
      </trkpt>
      <trkpt lat="43.48468" lon="-1.5597">
        <ele>12.2</ele>
        <time>2021-09-05T06:24:14Z</time>
      </trkpt>
      <trkpt lat="43.48465" lon="-1.55974">
        <ele>12.1</ele>
        <time>2021-09-05T06:24:15Z</time>
      </trkpt>
      <trkpt lat="43.48463" lon="-1.55978">
        <ele>12.1</ele>
        <time>2021-09-05T06:24:16Z</time>
      </trkpt>
      <trkpt lat="43.4846" lon="-1.55981">
        <ele>12</ele>
        <time>2021-09-05T06:24:17Z</time>
      </trkpt>
      <trkpt lat="43.48457" lon="-1.55986">
        <ele>12</ele>
        <time>2021-09-05T06:24:18Z</time>
      </trkpt>
      <trkpt lat="43.48455" lon="-1.5599">
        <ele>12.1</ele>
        <time>2021-09-05T06:24:19Z</time>
      </trkpt>
      <trkpt lat="43.48453" lon="-1.55994">
        <ele>12.2</ele>
        <time>2021-09-05T06:24:20Z</time>
      </trkpt>
      <trkpt lat="43.4845" lon="-1.55998">
        <ele>12.2</ele>
        <time>2021-09-05T06:24:21Z</time>
      </trkpt>
      <trkpt lat="43.48448" lon="-1.56002">
        <ele>12.3</ele>
        <time>2021-09-05T06:24:22Z</time>
      </trkpt>
      <trkpt lat="43.48445" lon="-1.56005">
        <ele>12.4</ele>
        <time>2021-09-05T06:24:23Z</time>
      </trkpt>
      <trkpt lat="43.48443" lon="-1.5601">
        <ele>12.4</ele>
        <time>2021-09-05T06:24:24Z</time>
      </trkpt>
      <trkpt lat="43.4844" lon="-1.56014">
        <ele>12.3</ele>
        <time>2021-09-05T06:24:25Z</time>
      </trkpt>
      <trkpt lat="43.48438" lon="-1.56018">
        <ele>12.2</ele>
        <time>2021-09-05T06:24:26Z</time>
      </trkpt>
      <trkpt lat="43.48436" lon="-1.56022">
        <ele>12.1</ele>
        <time>2021-09-05T06:24:27Z</time>
      </trkpt>
      <trkpt lat="43.48433" lon="-1.56025">
        <ele>12</ele>
        <time>2021-09-05T06:24:28Z</time>
      </trkpt>
      <trkpt lat="43.48431" lon="-1.56029">
        <ele>12</ele>
        <time>2021-09-05T06:24:29Z</time>
      </trkpt>
      <trkpt lat="43.48428" lon="-1.56033">
        <ele>12</ele>
        <time>2021-09-05T06:24:30Z</time>
      </trkpt>
      <trkpt lat="43.48426" lon="-1.56038">
        <ele>12</ele>
        <time>2021-09-05T06:24:31Z</time>
      </trkpt>
      <trkpt lat="43.48423" lon="-1.56042">
        <ele>12.1</ele>
        <time>2021-09-05T06:24:32Z</time>
      </trkpt>
      <trkpt lat="43.48421" lon="-1.56046">
        <ele>12.2</ele>
        <time>2021-09-05T06:24:33Z</time>
      </trkpt>
      <trkpt lat="43.48419" lon="-1.5605">
        <ele>12.4</ele>
        <time>2021-09-05T06:24:34Z</time>
      </trkpt>
      <trkpt lat="43.48417" lon="-1.56054">
        <ele>12.3</ele>
        <time>2021-09-05T06:24:35Z</time>
      </trkpt>
      <trkpt lat="43.48414" lon="-1.56058">
        <ele>12.4</ele>
        <time>2021-09-05T06:24:36Z</time>
      </trkpt>
      <trkpt lat="43.48412" lon="-1.56062">
        <ele>12.3</ele>
        <time>2021-09-05T06:24:37Z</time>
      </trkpt>
      <trkpt lat="43.48409" lon="-1.56066">
        <ele>12.2</ele>
        <time>2021-09-05T06:24:38Z</time>
      </trkpt>
      <trkpt lat="43.48406" lon="-1.5607">
        <ele>12.1</ele>
        <time>2021-09-05T06:24:39Z</time>
      </trkpt>
      <trkpt lat="43.48403" lon="-1.56074">
        <ele>11.9</ele>
        <time>2021-09-05T06:24:40Z</time>
      </trkpt>
      <trkpt lat="43.484" lon="-1.56078">
        <ele>11.6</ele>
        <time>2021-09-05T06:24:41Z</time>
      </trkpt>
      <trkpt lat="43.48398" lon="-1.56082">
        <ele>11.6</ele>
        <time>2021-09-05T06:24:42Z</time>
      </trkpt>
      <trkpt lat="43.48396" lon="-1.56086">
        <ele>11.3</ele>
        <time>2021-09-05T06:24:43Z</time>
      </trkpt>
      <trkpt lat="43.48394" lon="-1.5609">
        <ele>11</ele>
        <time>2021-09-05T06:24:44Z</time>
      </trkpt>
      <trkpt lat="43.48391" lon="-1.56094">
        <ele>11</ele>
        <time>2021-09-05T06:24:45Z</time>
      </trkpt>
      <trkpt lat="43.48389" lon="-1.56099">
        <ele>10.9</ele>
        <time>2021-09-05T06:24:46Z</time>
      </trkpt>
      <trkpt lat="43.48387" lon="-1.56103">
        <ele>11.1</ele>
        <time>2021-09-05T06:24:47Z</time>
      </trkpt>
      <trkpt lat="43.48385" lon="-1.56108">
        <ele>11.3</ele>
        <time>2021-09-05T06:24:48Z</time>
      </trkpt>
      <trkpt lat="43.48383" lon="-1.56113">
        <ele>11.7</ele>
        <time>2021-09-05T06:24:49Z</time>
      </trkpt>
      <trkpt lat="43.4838" lon="-1.56117">
        <ele>12</ele>
        <time>2021-09-05T06:24:50Z</time>
      </trkpt>
      <trkpt lat="43.48378" lon="-1.56122">
        <ele>12.1</ele>
        <time>2021-09-05T06:24:51Z</time>
      </trkpt>
      <trkpt lat="43.48375" lon="-1.56126">
        <ele>12.1</ele>
        <time>2021-09-05T06:24:52Z</time>
      </trkpt>
      <trkpt lat="43.48373" lon="-1.5613">
        <ele>11.8</ele>
        <time>2021-09-05T06:24:53Z</time>
      </trkpt>
      <trkpt lat="43.48372" lon="-1.56134">
        <ele>11.2</ele>
        <time>2021-09-05T06:24:54Z</time>
      </trkpt>
      <trkpt lat="43.4837" lon="-1.56139">
        <ele>11.1</ele>
        <time>2021-09-05T06:24:55Z</time>
      </trkpt>
      <trkpt lat="43.48367" lon="-1.56143">
        <ele>10.6</ele>
        <time>2021-09-05T06:24:56Z</time>
      </trkpt>
      <trkpt lat="43.48365" lon="-1.56148">
        <ele>10.4</ele>
        <time>2021-09-05T06:24:57Z</time>
      </trkpt>
      <trkpt lat="43.48363" lon="-1.56153">
        <ele>10.4</ele>
        <time>2021-09-05T06:24:58Z</time>
      </trkpt>
      <trkpt lat="43.48362" lon="-1.56157">
        <ele>10.2</ele>
        <time>2021-09-05T06:24:59Z</time>
      </trkpt>
      <trkpt lat="43.4836" lon="-1.5616">
        <ele>10.2</ele>
        <time>2021-09-05T06:25:00Z</time>
      </trkpt>
      <trkpt lat="43.4836" lon="-1.5616">
        <ele>10.2</ele>
        <time>2021-09-05T06:25:01Z</time>
      </trkpt>
      <trkpt lat="43.48359" lon="-1.56164">
        <ele>10.2</ele>
        <time>2021-09-05T06:25:02Z</time>
      </trkpt>
      <trkpt lat="43.48359" lon="-1.56164">
        <ele>10.2</ele>
        <time>2021-09-05T06:25:03Z</time>
      </trkpt>
      <trkpt lat="43.48359" lon="-1.56168">
        <ele>10.1</ele>
        <time>2021-09-05T06:25:04Z</time>
      </trkpt>
      <trkpt lat="43.48359" lon="-1.56168">
        <ele>10.1</ele>
        <time>2021-09-05T06:25:05Z</time>
      </trkpt>
      <trkpt lat="43.4836" lon="-1.56171">
        <ele>10</ele>
        <time>2021-09-05T06:25:06Z</time>
      </trkpt>
      <trkpt lat="43.4836" lon="-1.56171">
        <ele>10</ele>
        <time>2021-09-05T06:25:07Z</time>
      </trkpt>
      <trkpt lat="43.4836" lon="-1.56175">
        <ele>10</ele>
        <time>2021-09-05T06:25:08Z</time>
      </trkpt>
      <trkpt lat="43.4836" lon="-1.56178">
        <ele>9.9</ele>
        <time>2021-09-05T06:25:09Z</time>
      </trkpt>
      <trkpt lat="43.4836" lon="-1.56181">
        <ele>9.9</ele>
        <time>2021-09-05T06:25:10Z</time>
      </trkpt>
      <trkpt lat="43.48362" lon="-1.56185">
        <ele>9.8</ele>
        <time>2021-09-05T06:25:11Z</time>
      </trkpt>
      <trkpt lat="43.48364" lon="-1.56189">
        <ele>10</ele>
        <time>2021-09-05T06:25:12Z</time>
      </trkpt>
      <trkpt lat="43.48366" lon="-1.56193">
        <ele>10.1</ele>
        <time>2021-09-05T06:25:13Z</time>
      </trkpt>
      <trkpt lat="43.48368" lon="-1.56198">
        <ele>10.3</ele>
        <time>2021-09-05T06:25:14Z</time>
      </trkpt>
      <trkpt lat="43.48369" lon="-1.56203">
        <ele>10.5</ele>
        <time>2021-09-05T06:25:15Z</time>
      </trkpt>
      <trkpt lat="43.48371" lon="-1.56207">
        <ele>10.6</ele>
        <time>2021-09-05T06:25:16Z</time>
      </trkpt>
      <trkpt lat="43.48372" lon="-1.56212">
        <ele>10.7</ele>
        <time>2021-09-05T06:25:17Z</time>
      </trkpt>
      <trkpt lat="43.48373" lon="-1.56217">
        <ele>10.9</ele>
        <time>2021-09-05T06:25:18Z</time>
      </trkpt>
      <trkpt lat="43.48373" lon="-1.56221">
        <ele>11</ele>
        <time>2021-09-05T06:25:19Z</time>
      </trkpt>
      <trkpt lat="43.48373" lon="-1.56226">
        <ele>11.1</ele>
        <time>2021-09-05T06:25:20Z</time>
      </trkpt>
      <trkpt lat="43.48372" lon="-1.56231">
        <ele>11.2</ele>
        <time>2021-09-05T06:25:21Z</time>
      </trkpt>
      <trkpt lat="43.48372" lon="-1.56235">
        <ele>11.3</ele>
        <time>2021-09-05T06:25:22Z</time>
      </trkpt>
      <trkpt lat="43.4837" lon="-1.5624">
        <ele>11.4</ele>
        <time>2021-09-05T06:25:23Z</time>
      </trkpt>
      <trkpt lat="43.48368" lon="-1.56243">
        <ele>11.5</ele>
        <time>2021-09-05T06:25:24Z</time>
      </trkpt>
      <trkpt lat="43.48366" lon="-1.56247">
        <ele>11.6</ele>
        <time>2021-09-05T06:25:25Z</time>
      </trkpt>
      <trkpt lat="43.48364" lon="-1.5625">
        <ele>11.7</ele>
        <time>2021-09-05T06:25:26Z</time>
      </trkpt>
      <trkpt lat="43.48362" lon="-1.56253">
        <ele>11.7</ele>
        <time>2021-09-05T06:25:27Z</time>
      </trkpt>
      <trkpt lat="43.4836" lon="-1.56256">
        <ele>11.8</ele>
        <time>2021-09-05T06:25:28Z</time>
      </trkpt>
      <trkpt lat="43.48358" lon="-1.56259">
        <ele>11.8</ele>
        <time>2021-09-05T06:25:29Z</time>
      </trkpt>
      <trkpt lat="43.48356" lon="-1.5626">
        <ele>11.9</ele>
        <time>2021-09-05T06:25:30Z</time>
      </trkpt>
      <trkpt lat="43.48353" lon="-1.56263">
        <ele>12</ele>
        <time>2021-09-05T06:25:31Z</time>
      </trkpt>
      <trkpt lat="43.4835" lon="-1.56265">
        <ele>12.1</ele>
        <time>2021-09-05T06:25:32Z</time>
      </trkpt>
      <trkpt lat="43.48348" lon="-1.56267">
        <ele>12.2</ele>
        <time>2021-09-05T06:25:33Z</time>
      </trkpt>
      <trkpt lat="43.48345" lon="-1.5627">
        <ele>12.2</ele>
        <time>2021-09-05T06:25:34Z</time>
      </trkpt>
      <trkpt lat="43.48342" lon="-1.56273">
        <ele>12.5</ele>
        <time>2021-09-05T06:25:35Z</time>
      </trkpt>
      <trkpt lat="43.4834" lon="-1.56276">
        <ele>12.7</ele>
        <time>2021-09-05T06:25:36Z</time>
      </trkpt>
      <trkpt lat="43.48337" lon="-1.56278">
        <ele>12.8</ele>
        <time>2021-09-05T06:25:37Z</time>
      </trkpt>
      <trkpt lat="43.48335" lon="-1.5628">
        <ele>12.9</ele>
        <time>2021-09-05T06:25:38Z</time>
      </trkpt>
      <trkpt lat="43.48333" lon="-1.56282">
        <ele>13.1</ele>
        <time>2021-09-05T06:25:39Z</time>
      </trkpt>
      <trkpt lat="43.48332" lon="-1.56284">
        <ele>13.2</ele>
        <time>2021-09-05T06:25:40Z</time>
      </trkpt>
      <trkpt lat="43.4833" lon="-1.56287">
        <ele>13.4</ele>
        <time>2021-09-05T06:25:41Z</time>
      </trkpt>
      <trkpt lat="43.48328" lon="-1.56291">
        <ele>13.6</ele>
        <time>2021-09-05T06:25:42Z</time>
      </trkpt>
      <trkpt lat="43.48326" lon="-1.56294">
        <ele>13.7</ele>
        <time>2021-09-05T06:25:43Z</time>
      </trkpt>
      <trkpt lat="43.48324" lon="-1.56297">
        <ele>13.9</ele>
        <time>2021-09-05T06:25:44Z</time>
      </trkpt>
      <trkpt lat="43.48324" lon="-1.56301">
        <ele>14.1</ele>
        <time>2021-09-05T06:25:45Z</time>
      </trkpt>
      <trkpt lat="43.48322" lon="-1.56305">
        <ele>14.3</ele>
        <time>2021-09-05T06:25:46Z</time>
      </trkpt>
      <trkpt lat="43.48321" lon="-1.5631">
        <ele>14.5</ele>
        <time>2021-09-05T06:25:47Z</time>
      </trkpt>
      <trkpt lat="43.4832" lon="-1.56316">
        <ele>14.8</ele>
        <time>2021-09-05T06:25:48Z</time>
      </trkpt>
      <trkpt lat="43.48318" lon="-1.56321">
        <ele>15</ele>
        <time>2021-09-05T06:25:49Z</time>
      </trkpt>
      <trkpt lat="43.48317" lon="-1.56325">
        <ele>15.2</ele>
        <time>2021-09-05T06:25:50Z</time>
      </trkpt>
      <trkpt lat="43.48316" lon="-1.5633">
        <ele>15.4</ele>
        <time>2021-09-05T06:25:51Z</time>
      </trkpt>
      <trkpt lat="43.48316" lon="-1.56335">
        <ele>15.6</ele>
        <time>2021-09-05T06:25:52Z</time>
      </trkpt>
      <trkpt lat="43.48316" lon="-1.5634">
        <ele>15.8</ele>
        <time>2021-09-05T06:25:53Z</time>
      </trkpt>
      <trkpt lat="43.48315" lon="-1.56345">
        <ele>16</ele>
        <time>2021-09-05T06:25:54Z</time>
      </trkpt>
      <trkpt lat="43.48315" lon="-1.5635">
        <ele>16.3</ele>
        <time>2021-09-05T06:25:55Z</time>
      </trkpt>
      <trkpt lat="43.48314" lon="-1.56356">
        <ele>16.4</ele>
        <time>2021-09-05T06:25:56Z</time>
      </trkpt>
      <trkpt lat="43.48314" lon="-1.56362">
        <ele>16.6</ele>
        <time>2021-09-05T06:25:57Z</time>
      </trkpt>
      <trkpt lat="43.48313" lon="-1.56368">
        <ele>16.8</ele>
        <time>2021-09-05T06:25:58Z</time>
      </trkpt>
      <trkpt lat="43.48312" lon="-1.56374">
        <ele>17</ele>
        <time>2021-09-05T06:25:59Z</time>
      </trkpt>
      <trkpt lat="43.48312" lon="-1.5638">
        <ele>17.2</ele>
        <time>2021-09-05T06:26:00Z</time>
      </trkpt>
      <trkpt lat="43.48312" lon="-1.56387">
        <ele>17.4</ele>
        <time>2021-09-05T06:26:01Z</time>
      </trkpt>
      <trkpt lat="43.48311" lon="-1.56392">
        <ele>17.5</ele>
        <time>2021-09-05T06:26:02Z</time>
      </trkpt>
      <trkpt lat="43.4831" lon="-1.56398">
        <ele>17.6</ele>
        <time>2021-09-05T06:26:03Z</time>
      </trkpt>
      <trkpt lat="43.48309" lon="-1.56403">
        <ele>17.7</ele>
        <time>2021-09-05T06:26:04Z</time>
      </trkpt>
      <trkpt lat="43.48309" lon="-1.56408">
        <ele>17.8</ele>
        <time>2021-09-05T06:26:05Z</time>
      </trkpt>
      <trkpt lat="43.48308" lon="-1.56413">
        <ele>17.9</ele>
        <time>2021-09-05T06:26:06Z</time>
      </trkpt>
      <trkpt lat="43.48306" lon="-1.56418">
        <ele>18</ele>
        <time>2021-09-05T06:26:07Z</time>
      </trkpt>
      <trkpt lat="43.48306" lon="-1.56423">
        <ele>18</ele>
        <time>2021-09-05T06:26:08Z</time>
      </trkpt>
      <trkpt lat="43.48306" lon="-1.56427">
        <ele>18.1</ele>
        <time>2021-09-05T06:26:09Z</time>
      </trkpt>
      <trkpt lat="43.48306" lon="-1.56432">
        <ele>18.1</ele>
        <time>2021-09-05T06:26:10Z</time>
      </trkpt>
      <trkpt lat="43.48305" lon="-1.56437">
        <ele>18.2</ele>
        <time>2021-09-05T06:26:11Z</time>
      </trkpt>
      <trkpt lat="43.48304" lon="-1.56441">
        <ele>18.2</ele>
        <time>2021-09-05T06:26:12Z</time>
      </trkpt>
      <trkpt lat="43.48304" lon="-1.56446">
        <ele>18.2</ele>
        <time>2021-09-05T06:26:13Z</time>
      </trkpt>
      <trkpt lat="43.48302" lon="-1.56451">
        <ele>18.3</ele>
        <time>2021-09-05T06:26:14Z</time>
      </trkpt>
      <trkpt lat="43.48302" lon="-1.56456">
        <ele>18.3</ele>
        <time>2021-09-05T06:26:15Z</time>
      </trkpt>
      <trkpt lat="43.48301" lon="-1.56461">
        <ele>18.3</ele>
        <time>2021-09-05T06:26:16Z</time>
      </trkpt>
      <trkpt lat="43.483" lon="-1.56467">
        <ele>18.4</ele>
        <time>2021-09-05T06:26:17Z</time>
      </trkpt>
      <trkpt lat="43.483" lon="-1.56472">
        <ele>18.4</ele>
        <time>2021-09-05T06:26:18Z</time>
      </trkpt>
      <trkpt lat="43.48299" lon="-1.56478">
        <ele>18.4</ele>
        <time>2021-09-05T06:26:19Z</time>
      </trkpt>
      <trkpt lat="43.48298" lon="-1.56484">
        <ele>18.4</ele>
        <time>2021-09-05T06:26:20Z</time>
      </trkpt>
      <trkpt lat="43.48297" lon="-1.5649">
        <ele>18.4</ele>
        <time>2021-09-05T06:26:21Z</time>
      </trkpt>
      <trkpt lat="43.48296" lon="-1.56496">
        <ele>18.4</ele>
        <time>2021-09-05T06:26:22Z</time>
      </trkpt>
      <trkpt lat="43.48296" lon="-1.56501">
        <ele>18.4</ele>
        <time>2021-09-05T06:26:23Z</time>
      </trkpt>
      <trkpt lat="43.48295" lon="-1.56507">
        <ele>18.4</ele>
        <time>2021-09-05T06:26:24Z</time>
      </trkpt>
      <trkpt lat="43.48294" lon="-1.56513">
        <ele>18.4</ele>
        <time>2021-09-05T06:26:25Z</time>
      </trkpt>
      <trkpt lat="43.48293" lon="-1.56519">
        <ele>18.3</ele>
        <time>2021-09-05T06:26:26Z</time>
      </trkpt>
      <trkpt lat="43.48292" lon="-1.56525">
        <ele>18.3</ele>
        <time>2021-09-05T06:26:27Z</time>
      </trkpt>
      <trkpt lat="43.48292" lon="-1.56531">
        <ele>18.2</ele>
        <time>2021-09-05T06:26:28Z</time>
      </trkpt>
      <trkpt lat="43.48291" lon="-1.56537">
        <ele>18.2</ele>
        <time>2021-09-05T06:26:29Z</time>
      </trkpt>
      <trkpt lat="43.4829" lon="-1.56543">
        <ele>18.1</ele>
        <time>2021-09-05T06:26:30Z</time>
      </trkpt>
      <trkpt lat="43.48289" lon="-1.56549">
        <ele>18.1</ele>
        <time>2021-09-05T06:26:31Z</time>
      </trkpt>
      <trkpt lat="43.48287" lon="-1.56554">
        <ele>18</ele>
        <time>2021-09-05T06:26:32Z</time>
      </trkpt>
      <trkpt lat="43.48286" lon="-1.5656">
        <ele>18</ele>
        <time>2021-09-05T06:26:33Z</time>
      </trkpt>
      <trkpt lat="43.48284" lon="-1.56565">
        <ele>17.9</ele>
        <time>2021-09-05T06:26:34Z</time>
      </trkpt>
      <trkpt lat="43.48283" lon="-1.56571">
        <ele>17.9</ele>
        <time>2021-09-05T06:26:35Z</time>
      </trkpt>
      <trkpt lat="43.48282" lon="-1.56578">
        <ele>17.8</ele>
        <time>2021-09-05T06:26:36Z</time>
      </trkpt>
      <trkpt lat="43.48282" lon="-1.56584">
        <ele>17.7</ele>
        <time>2021-09-05T06:26:37Z</time>
      </trkpt>
      <trkpt lat="43.48282" lon="-1.5659">
        <ele>17.6</ele>
        <time>2021-09-05T06:26:38Z</time>
      </trkpt>
      <trkpt lat="43.48283" lon="-1.56596">
        <ele>17.5</ele>
        <time>2021-09-05T06:26:39Z</time>
      </trkpt>
      <trkpt lat="43.48284" lon="-1.56602">
        <ele>17.4</ele>
        <time>2021-09-05T06:26:40Z</time>
      </trkpt>
      <trkpt lat="43.48286" lon="-1.56607">
        <ele>17.2</ele>
        <time>2021-09-05T06:26:41Z</time>
      </trkpt>
      <trkpt lat="43.48287" lon="-1.56613">
        <ele>17.1</ele>
        <time>2021-09-05T06:26:42Z</time>
      </trkpt>
      <trkpt lat="43.48289" lon="-1.56619">
        <ele>17</ele>
        <time>2021-09-05T06:26:43Z</time>
      </trkpt>
      <trkpt lat="43.4829" lon="-1.56626">
        <ele>16.9</ele>
        <time>2021-09-05T06:26:44Z</time>
      </trkpt>
      <trkpt lat="43.48292" lon="-1.56632">
        <ele>16.8</ele>
        <time>2021-09-05T06:26:45Z</time>
      </trkpt>
      <trkpt lat="43.48293" lon="-1.56638">
        <ele>16.7</ele>
        <time>2021-09-05T06:26:46Z</time>
      </trkpt>
      <trkpt lat="43.48294" lon="-1.56645">
        <ele>16.6</ele>
        <time>2021-09-05T06:26:47Z</time>
      </trkpt>
      <trkpt lat="43.48295" lon="-1.56651">
        <ele>16.6</ele>
        <time>2021-09-05T06:26:48Z</time>
      </trkpt>
      <trkpt lat="43.48296" lon="-1.56656">
        <ele>16.5</ele>
        <time>2021-09-05T06:26:49Z</time>
      </trkpt>
      <trkpt lat="43.48298" lon="-1.56661">
        <ele>16.5</ele>
        <time>2021-09-05T06:26:50Z</time>
      </trkpt>
      <trkpt lat="43.483" lon="-1.56666">
        <ele>16.5</ele>
        <time>2021-09-05T06:26:51Z</time>
      </trkpt>
      <trkpt lat="43.48302" lon="-1.56671">
        <ele>16.5</ele>
        <time>2021-09-05T06:26:52Z</time>
      </trkpt>
      <trkpt lat="43.48305" lon="-1.56675">
        <ele>16.5</ele>
        <time>2021-09-05T06:26:53Z</time>
      </trkpt>
      <trkpt lat="43.48307" lon="-1.5668">
        <ele>16.5</ele>
        <time>2021-09-05T06:26:54Z</time>
      </trkpt>
      <trkpt lat="43.48309" lon="-1.56684">
        <ele>16.5</ele>
        <time>2021-09-05T06:26:55Z</time>
      </trkpt>
      <trkpt lat="43.48312" lon="-1.56688">
        <ele>16.5</ele>
        <time>2021-09-05T06:26:56Z</time>
      </trkpt>
      <trkpt lat="43.48315" lon="-1.56691">
        <ele>16.5</ele>
        <time>2021-09-05T06:26:57Z</time>
      </trkpt>
      <trkpt lat="43.48318" lon="-1.56694">
        <ele>16.5</ele>
        <time>2021-09-05T06:26:58Z</time>
      </trkpt>
      <trkpt lat="43.48322" lon="-1.56697">
        <ele>16.5</ele>
        <time>2021-09-05T06:26:59Z</time>
      </trkpt>
      <trkpt lat="43.48326" lon="-1.56701">
        <ele>16.5</ele>
        <time>2021-09-05T06:27:00Z</time>
      </trkpt>
      <trkpt lat="43.48331" lon="-1.56705">
        <ele>16.5</ele>
        <time>2021-09-05T06:27:01Z</time>
      </trkpt>
      <trkpt lat="43.48331" lon="-1.56705">
        <ele>16.5</ele>
        <time>2021-09-05T06:27:02Z</time>
      </trkpt>
      <trkpt lat="43.48331" lon="-1.56705">
        <ele>16.5</ele>
        <time>2021-09-05T06:27:03Z</time>
      </trkpt>
      <trkpt lat="43.48331" lon="-1.56705">
        <ele>16.5</ele>
        <time>2021-09-05T06:27:04Z</time>
      </trkpt>
      <trkpt lat="43.48331" lon="-1.56705">
        <ele>16.5</ele>
        <time>2021-09-05T06:27:05Z</time>
      </trkpt>
      <trkpt lat="43.48331" lon="-1.56705">
        <ele>16.5</ele>
        <time>2021-09-05T06:27:06Z</time>
      </trkpt>
      <trkpt lat="43.48331" lon="-1.56705">
        <ele>16.5</ele>
        <time>2021-09-05T06:27:07Z</time>
      </trkpt>
      <trkpt lat="43.48331" lon="-1.56705">
        <ele>16.5</ele>
        <time>2021-09-05T06:27:08Z</time>
      </trkpt>
      <trkpt lat="43.48331" lon="-1.56705">
        <ele>16.5</ele>
        <time>2021-09-05T06:27:09Z</time>
      </trkpt>
      <trkpt lat="43.48331" lon="-1.56705">
        <ele>16.5</ele>
        <time>2021-09-05T06:27:10Z</time>
      </trkpt>
      <trkpt lat="43.48331" lon="-1.56705">
        <ele>16.5</ele>
        <time>2021-09-05T06:27:11Z</time>
      </trkpt>
      <trkpt lat="43.48331" lon="-1.56705">
        <ele>16.5</ele>
        <time>2021-09-05T06:27:12Z</time>
      </trkpt>
      <trkpt lat="43.48331" lon="-1.56705">
        <ele>16.5</ele>
        <time>2021-09-05T06:27:13Z</time>
      </trkpt>
      <trkpt lat="43.48331" lon="-1.56705">
        <ele>16.5</ele>
        <time>2021-09-05T06:27:14Z</time>
      </trkpt>
      <trkpt lat="43.48331" lon="-1.56705">
        <ele>16.5</ele>
        <time>2021-09-05T06:27:15Z</time>
      </trkpt>
      <trkpt lat="43.48331" lon="-1.56705">
        <ele>16.5</ele>
        <time>2021-09-05T06:27:16Z</time>
      </trkpt>
      <trkpt lat="43.48331" lon="-1.56705">
        <ele>16.5</ele>
        <time>2021-09-05T06:27:17Z</time>
      </trkpt>
      <trkpt lat="43.48331" lon="-1.56705">
        <ele>16.5</ele>
        <time>2021-09-05T06:27:18Z</time>
      </trkpt>
      <trkpt lat="43.48331" lon="-1.56705">
        <ele>16.5</ele>
        <time>2021-09-05T06:27:19Z</time>
      </trkpt>
      <trkpt lat="43.48368" lon="-1.56799">
        <ele>16.4</ele>
        <time>2021-09-05T06:27:20Z</time>
      </trkpt>
      <trkpt lat="43.48365" lon="-1.56799">
        <ele>16.4</ele>
        <time>2021-09-05T06:27:21Z</time>
      </trkpt>
      <trkpt lat="43.4836" lon="-1.56801">
        <ele>16.3</ele>
        <time>2021-09-05T06:27:22Z</time>
      </trkpt>
      <trkpt lat="43.48358" lon="-1.56802">
        <ele>16.3</ele>
        <time>2021-09-05T06:27:23Z</time>
      </trkpt>
      <trkpt lat="43.48356" lon="-1.56807">
        <ele>16.2</ele>
        <time>2021-09-05T06:27:24Z</time>
      </trkpt>
      <trkpt lat="43.48352" lon="-1.56809">
        <ele>16.2</ele>
        <time>2021-09-05T06:27:25Z</time>
      </trkpt>
      <trkpt lat="43.48348" lon="-1.56812">
        <ele>16.1</ele>
        <time>2021-09-05T06:27:26Z</time>
      </trkpt>
      <trkpt lat="43.48344" lon="-1.56815">
        <ele>16.1</ele>
        <time>2021-09-05T06:27:27Z</time>
      </trkpt>
      <trkpt lat="43.48339" lon="-1.56817">
        <ele>16</ele>
        <time>2021-09-05T06:27:28Z</time>
      </trkpt>
      <trkpt lat="43.48335" lon="-1.56817">
        <ele>15.9</ele>
        <time>2021-09-05T06:27:29Z</time>
      </trkpt>
      <trkpt lat="43.48331" lon="-1.56817">
        <ele>15.9</ele>
        <time>2021-09-05T06:27:30Z</time>
      </trkpt>
      <trkpt lat="43.48327" lon="-1.56816">
        <ele>15.8</ele>
        <time>2021-09-05T06:27:31Z</time>
      </trkpt>
      <trkpt lat="43.48323" lon="-1.56814">
        <ele>15.8</ele>
        <time>2021-09-05T06:27:32Z</time>
      </trkpt>
      <trkpt lat="43.48319" lon="-1.56812">
        <ele>15.8</ele>
        <time>2021-09-05T06:27:33Z</time>
      </trkpt>
      <trkpt lat="43.48316" lon="-1.5681">
        <ele>15.7</ele>
        <time>2021-09-05T06:27:34Z</time>
      </trkpt>
      <trkpt lat="43.48309" lon="-1.56808">
        <ele>15.7</ele>
        <time>2021-09-05T06:27:35Z</time>
      </trkpt>
      <trkpt lat="43.48307" lon="-1.56807">
        <ele>15.7</ele>
        <time>2021-09-05T06:27:36Z</time>
      </trkpt>
      <trkpt lat="43.48303" lon="-1.56805">
        <ele>15.7</ele>
        <time>2021-09-05T06:27:37Z</time>
      </trkpt>
      <trkpt lat="43.48299" lon="-1.56803">
        <ele>15.7</ele>
        <time>2021-09-05T06:27:38Z</time>
      </trkpt>
      <trkpt lat="43.48296" lon="-1.56801">
        <ele>15.7</ele>
        <time>2021-09-05T06:27:39Z</time>
      </trkpt>
      <trkpt lat="43.48293" lon="-1.56798">
        <ele>15.6</ele>
        <time>2021-09-05T06:27:40Z</time>
      </trkpt>
      <trkpt lat="43.4829" lon="-1.56795">
        <ele>15.6</ele>
        <time>2021-09-05T06:27:41Z</time>
      </trkpt>
      <trkpt lat="43.48288" lon="-1.56791">
        <ele>15.6</ele>
        <time>2021-09-05T06:27:42Z</time>
      </trkpt>
      <trkpt lat="43.48285" lon="-1.56786">
        <ele>15.6</ele>
        <time>2021-09-05T06:27:43Z</time>
      </trkpt>
      <trkpt lat="43.48283" lon="-1.56782">
        <ele>15.6</ele>
        <time>2021-09-05T06:27:44Z</time>
      </trkpt>
      <trkpt lat="43.48281" lon="-1.56777">
        <ele>15.6</ele>
        <time>2021-09-05T06:27:45Z</time>
      </trkpt>
      <trkpt lat="43.48279" lon="-1.56771">
        <ele>15.6</ele>
        <time>2021-09-05T06:27:46Z</time>
      </trkpt>
      <trkpt lat="43.48278" lon="-1.56765">
        <ele>15.6</ele>
        <time>2021-09-05T06:27:47Z</time>
      </trkpt>
      <trkpt lat="43.48277" lon="-1.5676">
        <ele>15.6</ele>
        <time>2021-09-05T06:27:48Z</time>
      </trkpt>
      <trkpt lat="43.48274" lon="-1.56755">
        <ele>15.6</ele>
        <time>2021-09-05T06:27:49Z</time>
      </trkpt>
      <trkpt lat="43.48272" lon="-1.5675">
        <ele>15.6</ele>
        <time>2021-09-05T06:27:50Z</time>
      </trkpt>
      <trkpt lat="43.4827" lon="-1.56745">
        <ele>15.6</ele>
        <time>2021-09-05T06:27:51Z</time>
      </trkpt>
      <trkpt lat="43.48267" lon="-1.5674">
        <ele>15.6</ele>
        <time>2021-09-05T06:27:52Z</time>
      </trkpt>
      <trkpt lat="43.48264" lon="-1.56736">
        <ele>15.6</ele>
        <time>2021-09-05T06:27:53Z</time>
      </trkpt>
      <trkpt lat="43.48261" lon="-1.56733">
        <ele>15.6</ele>
        <time>2021-09-05T06:27:54Z</time>
      </trkpt>
      <trkpt lat="43.48258" lon="-1.56729">
        <ele>15.6</ele>
        <time>2021-09-05T06:27:55Z</time>
      </trkpt>
      <trkpt lat="43.48256" lon="-1.56724">
        <ele>15.6</ele>
        <time>2021-09-05T06:27:56Z</time>
      </trkpt>
      <trkpt lat="43.48254" lon="-1.5672">
        <ele>15.6</ele>
        <time>2021-09-05T06:27:57Z</time>
      </trkpt>
      <trkpt lat="43.48251" lon="-1.56716">
        <ele>15.6</ele>
        <time>2021-09-05T06:27:58Z</time>
      </trkpt>
      <trkpt lat="43.48248" lon="-1.56713">
        <ele>15.7</ele>
        <time>2021-09-05T06:27:59Z</time>
      </trkpt>
      <trkpt lat="43.48245" lon="-1.5671">
        <ele>15.7</ele>
        <time>2021-09-05T06:28:00Z</time>
      </trkpt>
      <trkpt lat="43.48242" lon="-1.56708">
        <ele>15.7</ele>
        <time>2021-09-05T06:28:01Z</time>
      </trkpt>
      <trkpt lat="43.48238" lon="-1.56707">
        <ele>15.7</ele>
        <time>2021-09-05T06:28:02Z</time>
      </trkpt>
      <trkpt lat="43.48238" lon="-1.56707">
        <ele>15.7</ele>
        <time>2021-09-05T06:28:03Z</time>
      </trkpt>
      <trkpt lat="43.48237" lon="-1.5671">
        <ele>15.7</ele>
        <time>2021-09-05T06:28:04Z</time>
      </trkpt>
      <trkpt lat="43.48237" lon="-1.5671">
        <ele>15.7</ele>
        <time>2021-09-05T06:28:05Z</time>
      </trkpt>
      <trkpt lat="43.48239" lon="-1.56712">
        <ele>15.7</ele>
        <time>2021-09-05T06:28:06Z</time>
      </trkpt>
      <trkpt lat="43.48241" lon="-1.56713">
        <ele>15.7</ele>
        <time>2021-09-05T06:28:07Z</time>
      </trkpt>
      <trkpt lat="43.48243" lon="-1.56714">
        <ele>15.7</ele>
        <time>2021-09-05T06:28:08Z</time>
      </trkpt>
      <trkpt lat="43.48244" lon="-1.56716">
        <ele>15.7</ele>
        <time>2021-09-05T06:28:09Z</time>
      </trkpt>
      <trkpt lat="43.48246" lon="-1.56719">
        <ele>15.8</ele>
        <time>2021-09-05T06:28:10Z</time>
      </trkpt>
      <trkpt lat="43.48246" lon="-1.56722">
        <ele>15.8</ele>
        <time>2021-09-05T06:28:11Z</time>
      </trkpt>
      <trkpt lat="43.48247" lon="-1.56725">
        <ele>15.7</ele>
        <time>2021-09-05T06:28:12Z</time>
      </trkpt>
      <trkpt lat="43.48247" lon="-1.56725">
        <ele>15.7</ele>
        <time>2021-09-05T06:28:13Z</time>
      </trkpt>
      <trkpt lat="43.48249" lon="-1.56728">
        <ele>15.7</ele>
        <time>2021-09-05T06:28:14Z</time>
      </trkpt>
      <trkpt lat="43.48249" lon="-1.56728">
        <ele>15.7</ele>
        <time>2021-09-05T06:28:15Z</time>
      </trkpt>
      <trkpt lat="43.48249" lon="-1.56731">
        <ele>15.7</ele>
        <time>2021-09-05T06:28:16Z</time>
      </trkpt>
      <trkpt lat="43.4825" lon="-1.56733">
        <ele>15.7</ele>
        <time>2021-09-05T06:28:17Z</time>
      </trkpt>
      <trkpt lat="43.48252" lon="-1.56734">
        <ele>15.7</ele>
        <time>2021-09-05T06:28:18Z</time>
      </trkpt>
      <trkpt lat="43.48252" lon="-1.56734">
        <ele>15.7</ele>
        <time>2021-09-05T06:28:19Z</time>
      </trkpt>
      <trkpt lat="43.48255" lon="-1.56737">
        <ele>15.6</ele>
        <time>2021-09-05T06:28:20Z</time>
      </trkpt>
      <trkpt lat="43.48256" lon="-1.5674">
        <ele>15.6</ele>
        <time>2021-09-05T06:28:21Z</time>
      </trkpt>
      <trkpt lat="43.48258" lon="-1.56744">
        <ele>15.6</ele>
        <time>2021-09-05T06:28:22Z</time>
      </trkpt>
      <trkpt lat="43.48261" lon="-1.56748">
        <ele>15.6</ele>
        <time>2021-09-05T06:28:23Z</time>
      </trkpt>
      <trkpt lat="43.48262" lon="-1.56752">
        <ele>15.6</ele>
        <time>2021-09-05T06:28:24Z</time>
      </trkpt>
      <trkpt lat="43.48264" lon="-1.56756">
        <ele>15.6</ele>
        <time>2021-09-05T06:28:25Z</time>
      </trkpt>
      <trkpt lat="43.48266" lon="-1.5676">
        <ele>15.2</ele>
        <time>2021-09-05T06:28:26Z</time>
      </trkpt>
      <trkpt lat="43.48267" lon="-1.56763">
        <ele>14.8</ele>
        <time>2021-09-05T06:28:27Z</time>
      </trkpt>
      <trkpt lat="43.48267" lon="-1.56763">
        <ele>14.8</ele>
        <time>2021-09-05T06:28:28Z</time>
      </trkpt>
      <trkpt lat="43.48266" lon="-1.56766">
        <ele>14.4</ele>
        <time>2021-09-05T06:28:29Z</time>
      </trkpt>
      <trkpt lat="43.48266" lon="-1.56766">
        <ele>14.4</ele>
        <time>2021-09-05T06:28:30Z</time>
      </trkpt>
      <trkpt lat="43.48264" lon="-1.56768">
        <ele>14.4</ele>
        <time>2021-09-05T06:28:31Z</time>
      </trkpt>
      <trkpt lat="43.48264" lon="-1.56768">
        <ele>14.4</ele>
        <time>2021-09-05T06:28:32Z</time>
      </trkpt>
      <trkpt lat="43.48262" lon="-1.5677">
        <ele>14</ele>
        <time>2021-09-05T06:28:33Z</time>
      </trkpt>
      <trkpt lat="43.48262" lon="-1.56773">
        <ele>14</ele>
        <time>2021-09-05T06:28:34Z</time>
      </trkpt>
      <trkpt lat="43.48262" lon="-1.56777">
        <ele>13.6</ele>
        <time>2021-09-05T06:28:35Z</time>
      </trkpt>
      <trkpt lat="43.48262" lon="-1.56781">
        <ele>13.2</ele>
        <time>2021-09-05T06:28:36Z</time>
      </trkpt>
      <trkpt lat="43.48262" lon="-1.56785">
        <ele>12.8</ele>
        <time>2021-09-05T06:28:37Z</time>
      </trkpt>
      <trkpt lat="43.48263" lon="-1.56789">
        <ele>12.4</ele>
        <time>2021-09-05T06:28:38Z</time>
      </trkpt>
      <trkpt lat="43.48264" lon="-1.56793">
        <ele>11.9</ele>
        <time>2021-09-05T06:28:39Z</time>
      </trkpt>
      <trkpt lat="43.48264" lon="-1.56798">
        <ele>11.6</ele>
        <time>2021-09-05T06:28:40Z</time>
      </trkpt>
      <trkpt lat="43.48266" lon="-1.56802">
        <ele>11.3</ele>
        <time>2021-09-05T06:28:41Z</time>
      </trkpt>
      <trkpt lat="43.48267" lon="-1.56807">
        <ele>10.9</ele>
        <time>2021-09-05T06:28:42Z</time>
      </trkpt>
      <trkpt lat="43.48268" lon="-1.56812">
        <ele>10.7</ele>
        <time>2021-09-05T06:28:43Z</time>
      </trkpt>
      <trkpt lat="43.48269" lon="-1.56817">
        <ele>10.4</ele>
        <time>2021-09-05T06:28:44Z</time>
      </trkpt>
      <trkpt lat="43.48269" lon="-1.56822">
        <ele>10.1</ele>
        <time>2021-09-05T06:28:45Z</time>
      </trkpt>
      <trkpt lat="43.4827" lon="-1.56825">
        <ele>10</ele>
        <time>2021-09-05T06:28:46Z</time>
      </trkpt>
      <trkpt lat="43.48271" lon="-1.56828">
        <ele>9.8</ele>
        <time>2021-09-05T06:28:47Z</time>
      </trkpt>
      <trkpt lat="43.48271" lon="-1.56828">
        <ele>9.8</ele>
        <time>2021-09-05T06:28:48Z</time>
      </trkpt>
      <trkpt lat="43.48272" lon="-1.56831">
        <ele>9.6</ele>
        <time>2021-09-05T06:28:49Z</time>
      </trkpt>
      <trkpt lat="43.48272" lon="-1.56831">
        <ele>9.6</ele>
        <time>2021-09-05T06:28:50Z</time>
      </trkpt>
      <trkpt lat="43.48272" lon="-1.56831">
        <ele>9.6</ele>
        <time>2021-09-05T06:28:51Z</time>
      </trkpt>
      <trkpt lat="43.48272" lon="-1.56831">
        <ele>9.6</ele>
        <time>2021-09-05T06:28:52Z</time>
      </trkpt>
      <trkpt lat="43.48272" lon="-1.56831">
        <ele>9.6</ele>
        <time>2021-09-05T06:28:53Z</time>
      </trkpt>
      <trkpt lat="43.48273" lon="-1.56834">
        <ele>9.2</ele>
        <time>2021-09-05T06:28:54Z</time>
      </trkpt>
      <trkpt lat="43.48273" lon="-1.56834">
        <ele>9.2</ele>
        <time>2021-09-05T06:28:55Z</time>
      </trkpt>
      <trkpt lat="43.48273" lon="-1.56837">
        <ele>8.8</ele>
        <time>2021-09-05T06:28:56Z</time>
      </trkpt>
      <trkpt lat="43.48273" lon="-1.56837">
        <ele>8.8</ele>
        <time>2021-09-05T06:28:57Z</time>
      </trkpt>
      <trkpt lat="43.48273" lon="-1.56837">
        <ele>8.8</ele>
        <time>2021-09-05T06:28:58Z</time>
      </trkpt>
      <trkpt lat="43.48273" lon="-1.56837">
        <ele>8.8</ele>
        <time>2021-09-05T06:28:59Z</time>
      </trkpt>
      <trkpt lat="43.48272" lon="-1.56846">
        <ele>8.4</ele>
        <time>2021-09-05T06:29:00Z</time>
      </trkpt>
      <trkpt lat="43.48272" lon="-1.56849">
        <ele>7.8</ele>
        <time>2021-09-05T06:29:01Z</time>
      </trkpt>
      <trkpt lat="43.48272" lon="-1.56852">
        <ele>7.1</ele>
        <time>2021-09-05T06:29:02Z</time>
      </trkpt>
      <trkpt lat="43.48272" lon="-1.56852">
        <ele>7.1</ele>
        <time>2021-09-05T06:29:03Z</time>
      </trkpt>
      <trkpt lat="43.48273" lon="-1.56857">
        <ele>5.8</ele>
        <time>2021-09-05T06:29:04Z</time>
      </trkpt>
      <trkpt lat="43.48273" lon="-1.56857">
        <ele>5.8</ele>
        <time>2021-09-05T06:29:05Z</time>
      </trkpt>
      <trkpt lat="43.48274" lon="-1.5686">
        <ele>5.8</ele>
        <time>2021-09-05T06:29:06Z</time>
      </trkpt>
      <trkpt lat="43.48274" lon="-1.5686">
        <ele>5.8</ele>
        <time>2021-09-05T06:29:07Z</time>
      </trkpt>
      <trkpt lat="43.48275" lon="-1.56863">
        <ele>5.1</ele>
        <time>2021-09-05T06:29:08Z</time>
      </trkpt>
      <trkpt lat="43.48275" lon="-1.56863">
        <ele>5.1</ele>
        <time>2021-09-05T06:29:09Z</time>
      </trkpt>
      <trkpt lat="43.48276" lon="-1.56866">
        <ele>4.4</ele>
        <time>2021-09-05T06:29:10Z</time>
      </trkpt>
      <trkpt lat="43.48276" lon="-1.56866">
        <ele>4.4</ele>
        <time>2021-09-05T06:29:11Z</time>
      </trkpt>
      <trkpt lat="43.48276" lon="-1.56869">
        <ele>3.8</ele>
        <time>2021-09-05T06:29:12Z</time>
      </trkpt>
      <trkpt lat="43.48276" lon="-1.56869">
        <ele>3.8</ele>
        <time>2021-09-05T06:29:13Z</time>
      </trkpt>
      <trkpt lat="43.48277" lon="-1.56873">
        <ele>3.8</ele>
        <time>2021-09-05T06:29:14Z</time>
      </trkpt>
      <trkpt lat="43.48277" lon="-1.56873">
        <ele>3.8</ele>
        <time>2021-09-05T06:29:15Z</time>
      </trkpt>
      <trkpt lat="43.48278" lon="-1.56876">
        <ele>3.5</ele>
        <time>2021-09-05T06:29:16Z</time>
      </trkpt>
      <trkpt lat="43.4828" lon="-1.56875">
        <ele>3.5</ele>
        <time>2021-09-05T06:29:17Z</time>
      </trkpt>
      <trkpt lat="43.4828" lon="-1.56875">
        <ele>3.5</ele>
        <time>2021-09-05T06:29:18Z</time>
      </trkpt>
      <trkpt lat="43.4828" lon="-1.56875">
        <ele>3.5</ele>
        <time>2021-09-05T06:29:19Z</time>
      </trkpt>
      <trkpt lat="43.48279" lon="-1.56879">
        <ele>3.4</ele>
        <time>2021-09-05T06:29:20Z</time>
      </trkpt>
      <trkpt lat="43.48279" lon="-1.56879">
        <ele>3.4</ele>
        <time>2021-09-05T06:29:21Z</time>
      </trkpt>
      <trkpt lat="43.4828" lon="-1.56882">
        <ele>3.4</ele>
        <time>2021-09-05T06:29:22Z</time>
      </trkpt>
      <trkpt lat="43.4828" lon="-1.56882">
        <ele>3.4</ele>
        <time>2021-09-05T06:29:23Z</time>
      </trkpt>
      <trkpt lat="43.48282" lon="-1.56885">
        <ele>3.4</ele>
        <time>2021-09-05T06:29:24Z</time>
      </trkpt>
      <trkpt lat="43.48282" lon="-1.56885">
        <ele>3.4</ele>
        <time>2021-09-05T06:29:25Z</time>
      </trkpt>
      <trkpt lat="43.48282" lon="-1.56888">
        <ele>3.5</ele>
        <time>2021-09-05T06:29:26Z</time>
      </trkpt>
      <trkpt lat="43.48282" lon="-1.56888">
        <ele>3.5</ele>
        <time>2021-09-05T06:29:27Z</time>
      </trkpt>
      <trkpt lat="43.48282" lon="-1.56891">
        <ele>3.6</ele>
        <time>2021-09-05T06:29:28Z</time>
      </trkpt>
      <trkpt lat="43.48282" lon="-1.56891">
        <ele>3.6</ele>
        <time>2021-09-05T06:29:29Z</time>
      </trkpt>
      <trkpt lat="43.48284" lon="-1.56893">
        <ele>3.7</ele>
        <time>2021-09-05T06:29:30Z</time>
      </trkpt>
      <trkpt lat="43.48284" lon="-1.56893">
        <ele>3.7</ele>
        <time>2021-09-05T06:29:31Z</time>
      </trkpt>
      <trkpt lat="43.48284" lon="-1.56893">
        <ele>3.7</ele>
        <time>2021-09-05T06:29:32Z</time>
      </trkpt>
      <trkpt lat="43.48286" lon="-1.56896">
        <ele>3.9</ele>
        <time>2021-09-05T06:29:33Z</time>
      </trkpt>
      <trkpt lat="43.48279" lon="-1.56896">
        <ele>3.7</ele>
        <time>2021-09-05T06:29:34Z</time>
      </trkpt>
      <trkpt lat="43.48277" lon="-1.56898">
        <ele>3.6</ele>
        <time>2021-09-05T06:29:35Z</time>
      </trkpt>
      <trkpt lat="43.48277" lon="-1.56898">
        <ele>3.6</ele>
        <time>2021-09-05T06:29:36Z</time>
      </trkpt>
      <trkpt lat="43.48274" lon="-1.56901">
        <ele>3.8</ele>
        <time>2021-09-05T06:29:37Z</time>
      </trkpt>
      <trkpt lat="43.48276" lon="-1.56902">
        <ele>3.8</ele>
        <time>2021-09-05T06:29:38Z</time>
      </trkpt>
      <trkpt lat="43.48274" lon="-1.56904">
        <ele>4</ele>
        <time>2021-09-05T06:29:39Z</time>
      </trkpt>
      <trkpt lat="43.48276" lon="-1.56906">
        <ele>4</ele>
        <time>2021-09-05T06:29:40Z</time>
      </trkpt>
      <trkpt lat="43.48274" lon="-1.56908">
        <ele>4.1</ele>
        <time>2021-09-05T06:29:41Z</time>
      </trkpt>
      <trkpt lat="43.48273" lon="-1.56911">
        <ele>4.1</ele>
        <time>2021-09-05T06:29:42Z</time>
      </trkpt>
      <trkpt lat="43.48271" lon="-1.56913">
        <ele>4.1</ele>
        <time>2021-09-05T06:29:43Z</time>
      </trkpt>
      <trkpt lat="43.48271" lon="-1.56913">
        <ele>4.1</ele>
        <time>2021-09-05T06:29:44Z</time>
      </trkpt>
      <trkpt lat="43.48273" lon="-1.56915">
        <ele>4.1</ele>
        <time>2021-09-05T06:29:45Z</time>
      </trkpt>
      <trkpt lat="43.48275" lon="-1.56917">
        <ele>4.1</ele>
        <time>2021-09-05T06:29:46Z</time>
      </trkpt>
      <trkpt lat="43.48278" lon="-1.56918">
        <ele>4.1</ele>
        <time>2021-09-05T06:29:47Z</time>
      </trkpt>
      <trkpt lat="43.48281" lon="-1.5692">
        <ele>4</ele>
        <time>2021-09-05T06:29:48Z</time>
      </trkpt>
      <trkpt lat="43.48282" lon="-1.56922">
        <ele>4</ele>
        <time>2021-09-05T06:29:49Z</time>
      </trkpt>
      <trkpt lat="43.48285" lon="-1.56921">
        <ele>4</ele>
        <time>2021-09-05T06:29:50Z</time>
      </trkpt>
      <trkpt lat="43.48286" lon="-1.56923">
        <ele>4</ele>
        <time>2021-09-05T06:29:51Z</time>
      </trkpt>
      <trkpt lat="43.48288" lon="-1.56925">
        <ele>3.9</ele>
        <time>2021-09-05T06:29:52Z</time>
      </trkpt>
      <trkpt lat="43.4829" lon="-1.56927">
        <ele>3.9</ele>
        <time>2021-09-05T06:29:53Z</time>
      </trkpt>
      <trkpt lat="43.4829" lon="-1.56927">
        <ele>3.9</ele>
        <time>2021-09-05T06:29:54Z</time>
      </trkpt>
      <trkpt lat="43.4829" lon="-1.56929">
        <ele>3.9</ele>
        <time>2021-09-05T06:29:55Z</time>
      </trkpt>
      <trkpt lat="43.4829" lon="-1.56929">
        <ele>3.9</ele>
        <time>2021-09-05T06:29:56Z</time>
      </trkpt>
      <trkpt lat="43.4829" lon="-1.56933">
        <ele>3.9</ele>
        <time>2021-09-05T06:29:57Z</time>
      </trkpt>
      <trkpt lat="43.4829" lon="-1.56933">
        <ele>3.9</ele>
        <time>2021-09-05T06:29:58Z</time>
      </trkpt>
      <trkpt lat="43.4829" lon="-1.56933">
        <ele>3.9</ele>
        <time>2021-09-05T06:29:59Z</time>
      </trkpt>
      <trkpt lat="43.48292" lon="-1.56936">
        <ele>3.9</ele>
        <time>2021-09-05T06:30:00Z</time>
      </trkpt>
      <trkpt lat="43.48292" lon="-1.56936">
        <ele>3.9</ele>
        <time>2021-09-05T06:30:01Z</time>
      </trkpt>
      <trkpt lat="43.48294" lon="-1.56937">
        <ele>3.9</ele>
        <time>2021-09-05T06:30:02Z</time>
      </trkpt>
      <trkpt lat="43.48294" lon="-1.56937">
        <ele>3.9</ele>
        <time>2021-09-05T06:30:03Z</time>
      </trkpt>
      <trkpt lat="43.48294" lon="-1.56937">
        <ele>3.9</ele>
        <time>2021-09-05T06:30:04Z</time>
      </trkpt>
      <trkpt lat="43.48296" lon="-1.56937">
        <ele>3.9</ele>
        <time>2021-09-05T06:30:05Z</time>
      </trkpt>
      <trkpt lat="43.48296" lon="-1.56937">
        <ele>3.9</ele>
        <time>2021-09-05T06:30:06Z</time>
      </trkpt>
      <trkpt lat="43.48296" lon="-1.5694">
        <ele>3.9</ele>
        <time>2021-09-05T06:30:07Z</time>
      </trkpt>
      <trkpt lat="43.48298" lon="-1.56942">
        <ele>3.9</ele>
        <time>2021-09-05T06:30:08Z</time>
      </trkpt>
      <trkpt lat="43.483" lon="-1.56943">
        <ele>3.9</ele>
        <time>2021-09-05T06:30:09Z</time>
      </trkpt>
      <trkpt lat="43.483" lon="-1.56943">
        <ele>3.9</ele>
        <time>2021-09-05T06:30:10Z</time>
      </trkpt>
      <trkpt lat="43.483" lon="-1.56943">
        <ele>3.9</ele>
        <time>2021-09-05T06:30:11Z</time>
      </trkpt>
      <trkpt lat="43.483" lon="-1.56946">
        <ele>3.9</ele>
        <time>2021-09-05T06:30:12Z</time>
      </trkpt>
      <trkpt lat="43.483" lon="-1.56946">
        <ele>3.9</ele>
        <time>2021-09-05T06:30:13Z</time>
      </trkpt>
      <trkpt lat="43.483" lon="-1.56946">
        <ele>3.9</ele>
        <time>2021-09-05T06:30:14Z</time>
      </trkpt>
      <trkpt lat="43.48302" lon="-1.56945">
        <ele>3.9</ele>
        <time>2021-09-05T06:30:15Z</time>
      </trkpt>
      <trkpt lat="43.48302" lon="-1.56945">
        <ele>3.9</ele>
        <time>2021-09-05T06:30:16Z</time>
      </trkpt>
      <trkpt lat="43.48304" lon="-1.56946">
        <ele>3.9</ele>
        <time>2021-09-05T06:30:17Z</time>
      </trkpt>
      <trkpt lat="43.48304" lon="-1.56946">
        <ele>3.9</ele>
        <time>2021-09-05T06:30:18Z</time>
      </trkpt>
      <trkpt lat="43.48301" lon="-1.56947">
        <ele>3.9</ele>
        <time>2021-09-05T06:30:19Z</time>
      </trkpt>
      <trkpt lat="43.48301" lon="-1.56947">
        <ele>3.9</ele>
        <time>2021-09-05T06:30:20Z</time>
      </trkpt>
      <trkpt lat="43.48299" lon="-1.5695">
        <ele>3.9</ele>
        <time>2021-09-05T06:30:21Z</time>
      </trkpt>
      <trkpt lat="43.48299" lon="-1.5695">
        <ele>3.9</ele>
        <time>2021-09-05T06:30:22Z</time>
      </trkpt>
      <trkpt lat="43.48302" lon="-1.56952">
        <ele>3.9</ele>
        <time>2021-09-05T06:30:23Z</time>
      </trkpt>
      <trkpt lat="43.48302" lon="-1.56952">
        <ele>3.9</ele>
        <time>2021-09-05T06:30:24Z</time>
      </trkpt>
      <trkpt lat="43.483" lon="-1.56955">
        <ele>3.9</ele>
        <time>2021-09-05T06:30:25Z</time>
      </trkpt>
      <trkpt lat="43.483" lon="-1.56955">
        <ele>3.9</ele>
        <time>2021-09-05T06:30:27Z</time>
      </trkpt>
      <trkpt lat="43.48301" lon="-1.56957">
        <ele>3.9</ele>
        <time>2021-09-05T06:30:28Z</time>
      </trkpt>
      <trkpt lat="43.48299" lon="-1.5696">
        <ele>3.9</ele>
        <time>2021-09-05T06:30:29Z</time>
      </trkpt>
      <trkpt lat="43.48299" lon="-1.5696">
        <ele>3.9</ele>
        <time>2021-09-05T06:30:30Z</time>
      </trkpt>
      <trkpt lat="43.48298" lon="-1.56963">
        <ele>3.9</ele>
        <time>2021-09-05T06:30:31Z</time>
      </trkpt>
      <trkpt lat="43.48298" lon="-1.56963">
        <ele>3.9</ele>
        <time>2021-09-05T06:30:32Z</time>
      </trkpt>
      <trkpt lat="43.48298" lon="-1.56963">
        <ele>3.9</ele>
        <time>2021-09-05T06:30:33Z</time>
      </trkpt>
      <trkpt lat="43.48298" lon="-1.56966">
        <ele>3.9</ele>
        <time>2021-09-05T06:30:34Z</time>
      </trkpt>
      <trkpt lat="43.48298" lon="-1.56966">
        <ele>3.9</ele>
        <time>2021-09-05T06:30:35Z</time>
      </trkpt>
      <trkpt lat="43.48299" lon="-1.56969">
        <ele>3.9</ele>
        <time>2021-09-05T06:30:36Z</time>
      </trkpt>
      <trkpt lat="43.48301" lon="-1.5697">
        <ele>3.9</ele>
        <time>2021-09-05T06:30:37Z</time>
      </trkpt>
      <trkpt lat="43.48301" lon="-1.5697">
        <ele>3.9</ele>
        <time>2021-09-05T06:30:38Z</time>
      </trkpt>
      <trkpt lat="43.48301" lon="-1.56973">
        <ele>3.9</ele>
        <time>2021-09-05T06:30:39Z</time>
      </trkpt>
      <trkpt lat="43.48301" lon="-1.56976">
        <ele>3.9</ele>
        <time>2021-09-05T06:30:40Z</time>
      </trkpt>
      <trkpt lat="43.48303" lon="-1.56978">
        <ele>3.9</ele>
        <time>2021-09-05T06:30:41Z</time>
      </trkpt>
      <trkpt lat="43.48303" lon="-1.56978">
        <ele>3.9</ele>
        <time>2021-09-05T06:30:42Z</time>
      </trkpt>
      <trkpt lat="43.48306" lon="-1.56981">
        <ele>3.9</ele>
        <time>2021-09-05T06:30:43Z</time>
      </trkpt>
      <trkpt lat="43.48306" lon="-1.56981">
        <ele>3.9</ele>
        <time>2021-09-05T06:30:44Z</time>
      </trkpt>
      <trkpt lat="43.48308" lon="-1.56984">
        <ele>3.9</ele>
        <time>2021-09-05T06:30:45Z</time>
      </trkpt>
      <trkpt lat="43.48308" lon="-1.56984">
        <ele>3.9</ele>
        <time>2021-09-05T06:30:46Z</time>
      </trkpt>
      <trkpt lat="43.48311" lon="-1.56986">
        <ele>3.9</ele>
        <time>2021-09-05T06:30:47Z</time>
      </trkpt>
      <trkpt lat="43.48311" lon="-1.56986">
        <ele>3.9</ele>
        <time>2021-09-05T06:30:48Z</time>
      </trkpt>
      <trkpt lat="43.4831" lon="-1.56989">
        <ele>3.9</ele>
        <time>2021-09-05T06:30:49Z</time>
      </trkpt>
      <trkpt lat="43.4831" lon="-1.56989">
        <ele>3.9</ele>
        <time>2021-09-05T06:30:50Z</time>
      </trkpt>
      <trkpt lat="43.48309" lon="-1.56992">
        <ele>3.9</ele>
        <time>2021-09-05T06:30:51Z</time>
      </trkpt>
      <trkpt lat="43.48309" lon="-1.56992">
        <ele>3.9</ele>
        <time>2021-09-05T06:30:52Z</time>
      </trkpt>
      <trkpt lat="43.48309" lon="-1.56992">
        <ele>3.9</ele>
        <time>2021-09-05T06:30:53Z</time>
      </trkpt>
      <trkpt lat="43.48312" lon="-1.56992">
        <ele>3.9</ele>
        <time>2021-09-05T06:30:54Z</time>
      </trkpt>
      <trkpt lat="43.48312" lon="-1.56992">
        <ele>3.9</ele>
        <time>2021-09-05T06:30:55Z</time>
      </trkpt>
      <trkpt lat="43.48312" lon="-1.56992">
        <ele>3.9</ele>
        <time>2021-09-05T06:30:56Z</time>
      </trkpt>
      <trkpt lat="43.48309" lon="-1.56996">
        <ele>3.9</ele>
        <time>2021-09-05T06:30:57Z</time>
      </trkpt>
      <trkpt lat="43.48309" lon="-1.56996">
        <ele>3.9</ele>
        <time>2021-09-05T06:30:58Z</time>
      </trkpt>
      <trkpt lat="43.48308" lon="-1.57001">
        <ele>3.9</ele>
        <time>2021-09-05T06:30:59Z</time>
      </trkpt>
      <trkpt lat="43.48307" lon="-1.57004">
        <ele>3.9</ele>
        <time>2021-09-05T06:31:00Z</time>
      </trkpt>
      <trkpt lat="43.48307" lon="-1.57004">
        <ele>3.9</ele>
        <time>2021-09-05T06:31:01Z</time>
      </trkpt>
      <trkpt lat="43.48309" lon="-1.57007">
        <ele>3.9</ele>
        <time>2021-09-05T06:31:02Z</time>
      </trkpt>
      <trkpt lat="43.48309" lon="-1.57007">
        <ele>3.9</ele>
        <time>2021-09-05T06:31:03Z</time>
      </trkpt>
      <trkpt lat="43.4831" lon="-1.5701">
        <ele>3.9</ele>
        <time>2021-09-05T06:31:04Z</time>
      </trkpt>
      <trkpt lat="43.4831" lon="-1.5701">
        <ele>3.9</ele>
        <time>2021-09-05T06:31:05Z</time>
      </trkpt>
      <trkpt lat="43.48312" lon="-1.57012">
        <ele>3.9</ele>
        <time>2021-09-05T06:31:06Z</time>
      </trkpt>
      <trkpt lat="43.48312" lon="-1.57012">
        <ele>3.9</ele>
        <time>2021-09-05T06:31:07Z</time>
      </trkpt>
      <trkpt lat="43.48314" lon="-1.57011">
        <ele>3.9</ele>
        <time>2021-09-05T06:31:08Z</time>
      </trkpt>
      <trkpt lat="43.48314" lon="-1.57011">
        <ele>3.9</ele>
        <time>2021-09-05T06:31:09Z</time>
      </trkpt>
      <trkpt lat="43.48313" lon="-1.57015">
        <ele>3.9</ele>
        <time>2021-09-05T06:31:10Z</time>
      </trkpt>
      <trkpt lat="43.48313" lon="-1.57015">
        <ele>3.9</ele>
        <time>2021-09-05T06:31:11Z</time>
      </trkpt>
      <trkpt lat="43.48313" lon="-1.57018">
        <ele>3.9</ele>
        <time>2021-09-05T06:31:12Z</time>
      </trkpt>
      <trkpt lat="43.48313" lon="-1.57018">
        <ele>3.9</ele>
        <time>2021-09-05T06:31:13Z</time>
      </trkpt>
      <trkpt lat="43.48314" lon="-1.57021">
        <ele>3.9</ele>
        <time>2021-09-05T06:31:14Z</time>
      </trkpt>
      <trkpt lat="43.48314" lon="-1.57021">
        <ele>3.9</ele>
        <time>2021-09-05T06:31:15Z</time>
      </trkpt>
      <trkpt lat="43.48315" lon="-1.57024">
        <ele>3.9</ele>
        <time>2021-09-05T06:31:16Z</time>
      </trkpt>
      <trkpt lat="43.48315" lon="-1.57024">
        <ele>3.9</ele>
        <time>2021-09-05T06:31:17Z</time>
      </trkpt>
      <trkpt lat="43.48315" lon="-1.57024">
        <ele>3.9</ele>
        <time>2021-09-05T06:31:18Z</time>
      </trkpt>
      <trkpt lat="43.48315" lon="-1.57024">
        <ele>3.9</ele>
        <time>2021-09-05T06:31:19Z</time>
      </trkpt>
      <trkpt lat="43.48313" lon="-1.57026">
        <ele>3.9</ele>
        <time>2021-09-05T06:31:20Z</time>
      </trkpt>
      <trkpt lat="43.48313" lon="-1.57026">
        <ele>3.9</ele>
        <time>2021-09-05T06:31:21Z</time>
      </trkpt>
      <trkpt lat="43.48311" lon="-1.57028">
        <ele>3.9</ele>
        <time>2021-09-05T06:31:22Z</time>
      </trkpt>
      <trkpt lat="43.48311" lon="-1.57028">
        <ele>3.9</ele>
        <time>2021-09-05T06:31:23Z</time>
      </trkpt>
      <trkpt lat="43.48316" lon="-1.5703">
        <ele>3.9</ele>
        <time>2021-09-05T06:31:24Z</time>
      </trkpt>
      <trkpt lat="43.48316" lon="-1.5703">
        <ele>3.9</ele>
        <time>2021-09-05T06:31:25Z</time>
      </trkpt>
      <trkpt lat="43.48319" lon="-1.57032">
        <ele>3.9</ele>
        <time>2021-09-05T06:31:26Z</time>
      </trkpt>
      <trkpt lat="43.48319" lon="-1.57032">
        <ele>3.9</ele>
        <time>2021-09-05T06:31:27Z</time>
      </trkpt>
      <trkpt lat="43.48319" lon="-1.57032">
        <ele>3.9</ele>
        <time>2021-09-05T06:31:28Z</time>
      </trkpt>
      <trkpt lat="43.4832" lon="-1.57035">
        <ele>3.9</ele>
        <time>2021-09-05T06:31:29Z</time>
      </trkpt>
      <trkpt lat="43.4832" lon="-1.57035">
        <ele>3.9</ele>
        <time>2021-09-05T06:31:30Z</time>
      </trkpt>
      <trkpt lat="43.4832" lon="-1.57035">
        <ele>3.9</ele>
        <time>2021-09-05T06:31:31Z</time>
      </trkpt>
      <trkpt lat="43.4832" lon="-1.57035">
        <ele>3.9</ele>
        <time>2021-09-05T06:31:32Z</time>
      </trkpt>
      <trkpt lat="43.48323" lon="-1.57036">
        <ele>3.9</ele>
        <time>2021-09-05T06:31:33Z</time>
      </trkpt>
      <trkpt lat="43.48323" lon="-1.57036">
        <ele>3.9</ele>
        <time>2021-09-05T06:31:34Z</time>
      </trkpt>
      <trkpt lat="43.48325" lon="-1.5704">
        <ele>3.9</ele>
        <time>2021-09-05T06:31:35Z</time>
      </trkpt>
      <trkpt lat="43.48325" lon="-1.5704">
        <ele>3.9</ele>
        <time>2021-09-05T06:31:36Z</time>
      </trkpt>
      <trkpt lat="43.48324" lon="-1.57044">
        <ele>3.9</ele>
        <time>2021-09-05T06:31:37Z</time>
      </trkpt>
      <trkpt lat="43.48324" lon="-1.57044">
        <ele>3.9</ele>
        <time>2021-09-05T06:31:38Z</time>
      </trkpt>
      <trkpt lat="43.48325" lon="-1.57047">
        <ele>3.9</ele>
        <time>2021-09-05T06:31:39Z</time>
      </trkpt>
      <trkpt lat="43.48325" lon="-1.57047">
        <ele>3.9</ele>
        <time>2021-09-05T06:31:40Z</time>
      </trkpt>
      <trkpt lat="43.48326" lon="-1.5705">
        <ele>3.9</ele>
        <time>2021-09-05T06:31:41Z</time>
      </trkpt>
      <trkpt lat="43.48326" lon="-1.5705">
        <ele>3.9</ele>
        <time>2021-09-05T06:31:42Z</time>
      </trkpt>
      <trkpt lat="43.48327" lon="-1.57053">
        <ele>3.9</ele>
        <time>2021-09-05T06:31:43Z</time>
      </trkpt>
      <trkpt lat="43.48327" lon="-1.57053">
        <ele>3.9</ele>
        <time>2021-09-05T06:31:44Z</time>
      </trkpt>
      <trkpt lat="43.48328" lon="-1.57057">
        <ele>3.9</ele>
        <time>2021-09-05T06:31:45Z</time>
      </trkpt>
      <trkpt lat="43.48328" lon="-1.57057">
        <ele>3.9</ele>
        <time>2021-09-05T06:31:46Z</time>
      </trkpt>
      <trkpt lat="43.48328" lon="-1.5706">
        <ele>3.9</ele>
        <time>2021-09-05T06:31:47Z</time>
      </trkpt>
      <trkpt lat="43.48328" lon="-1.5706">
        <ele>3.9</ele>
        <time>2021-09-05T06:31:48Z</time>
      </trkpt>
      <trkpt lat="43.48328" lon="-1.57064">
        <ele>3.9</ele>
        <time>2021-09-05T06:31:49Z</time>
      </trkpt>
      <trkpt lat="43.48328" lon="-1.57064">
        <ele>3.9</ele>
        <time>2021-09-05T06:31:50Z</time>
      </trkpt>
      <trkpt lat="43.48326" lon="-1.57067">
        <ele>3.9</ele>
        <time>2021-09-05T06:31:51Z</time>
      </trkpt>
      <trkpt lat="43.48325" lon="-1.57065">
        <ele>3.9</ele>
        <time>2021-09-05T06:31:52Z</time>
      </trkpt>
      <trkpt lat="43.48325" lon="-1.57065">
        <ele>3.9</ele>
        <time>2021-09-05T06:31:53Z</time>
      </trkpt>
      <trkpt lat="43.48325" lon="-1.57065">
        <ele>3.9</ele>
        <time>2021-09-05T06:31:54Z</time>
      </trkpt>
      <trkpt lat="43.48325" lon="-1.57065">
        <ele>3.9</ele>
        <time>2021-09-05T06:31:55Z</time>
      </trkpt>
      <trkpt lat="43.48326" lon="-1.57062">
        <ele>3.9</ele>
        <time>2021-09-05T06:31:56Z</time>
      </trkpt>
      <trkpt lat="43.48326" lon="-1.57062">
        <ele>3.9</ele>
        <time>2021-09-05T06:31:57Z</time>
      </trkpt>
      <trkpt lat="43.48326" lon="-1.57066">
        <ele>3.9</ele>
        <time>2021-09-05T06:31:58Z</time>
      </trkpt>
      <trkpt lat="43.48327" lon="-1.57068">
        <ele>3.9</ele>
        <time>2021-09-05T06:31:59Z</time>
      </trkpt>
      <trkpt lat="43.48327" lon="-1.57068">
        <ele>3.9</ele>
        <time>2021-09-05T06:32:00Z</time>
      </trkpt>
      <trkpt lat="43.48328" lon="-1.57073">
        <ele>3.9</ele>
        <time>2021-09-05T06:32:01Z</time>
      </trkpt>
      <trkpt lat="43.48328" lon="-1.57073">
        <ele>3.9</ele>
        <time>2021-09-05T06:32:02Z</time>
      </trkpt>
      <trkpt lat="43.48329" lon="-1.57078">
        <ele>3.9</ele>
        <time>2021-09-05T06:32:03Z</time>
      </trkpt>
      <trkpt lat="43.48329" lon="-1.5708">
        <ele>3.9</ele>
        <time>2021-09-05T06:32:04Z</time>
      </trkpt>
      <trkpt lat="43.48329" lon="-1.5708">
        <ele>3.9</ele>
        <time>2021-09-05T06:32:05Z</time>
      </trkpt>
      <trkpt lat="43.48329" lon="-1.5708">
        <ele>3.9</ele>
        <time>2021-09-05T06:32:06Z</time>
      </trkpt>
      <trkpt lat="43.48329" lon="-1.5708">
        <ele>3.9</ele>
        <time>2021-09-05T06:32:07Z</time>
      </trkpt>
      <trkpt lat="43.48331" lon="-1.57083">
        <ele>3.9</ele>
        <time>2021-09-05T06:32:08Z</time>
      </trkpt>
      <trkpt lat="43.48331" lon="-1.57083">
        <ele>3.9</ele>
        <time>2021-09-05T06:32:09Z</time>
      </trkpt>
      <trkpt lat="43.48332" lon="-1.57086">
        <ele>3.9</ele>
        <time>2021-09-05T06:32:10Z</time>
      </trkpt>
      <trkpt lat="43.48331" lon="-1.57089">
        <ele>3.9</ele>
        <time>2021-09-05T06:32:11Z</time>
      </trkpt>
      <trkpt lat="43.48331" lon="-1.57089">
        <ele>3.9</ele>
        <time>2021-09-05T06:32:12Z</time>
      </trkpt>
      <trkpt lat="43.48329" lon="-1.57092">
        <ele>3.9</ele>
        <time>2021-09-05T06:32:13Z</time>
      </trkpt>
      <trkpt lat="43.48329" lon="-1.57092">
        <ele>3.9</ele>
        <time>2021-09-05T06:32:14Z</time>
      </trkpt>
      <trkpt lat="43.48328" lon="-1.57095">
        <ele>3.9</ele>
        <time>2021-09-05T06:32:15Z</time>
      </trkpt>
      <trkpt lat="43.48328" lon="-1.57095">
        <ele>3.9</ele>
        <time>2021-09-05T06:32:16Z</time>
      </trkpt>
      <trkpt lat="43.48331" lon="-1.57098">
        <ele>3.9</ele>
        <time>2021-09-05T06:32:17Z</time>
      </trkpt>
      <trkpt lat="43.48331" lon="-1.57098">
        <ele>3.9</ele>
        <time>2021-09-05T06:32:18Z</time>
      </trkpt>
      <trkpt lat="43.48334" lon="-1.57101">
        <ele>3.9</ele>
        <time>2021-09-05T06:32:19Z</time>
      </trkpt>
      <trkpt lat="43.48335" lon="-1.57102">
        <ele>3.9</ele>
        <time>2021-09-05T06:32:20Z</time>
      </trkpt>
      <trkpt lat="43.48335" lon="-1.57102">
        <ele>3.9</ele>
        <time>2021-09-05T06:32:21Z</time>
      </trkpt>
      <trkpt lat="43.48337" lon="-1.57104">
        <ele>3.9</ele>
        <time>2021-09-05T06:32:22Z</time>
      </trkpt>
      <trkpt lat="43.48337" lon="-1.57104">
        <ele>3.9</ele>
        <time>2021-09-05T06:32:23Z</time>
      </trkpt>
      <trkpt lat="43.48337" lon="-1.57104">
        <ele>3.9</ele>
        <time>2021-09-05T06:32:24Z</time>
      </trkpt>
      <trkpt lat="43.48337" lon="-1.57104">
        <ele>3.9</ele>
        <time>2021-09-05T06:32:25Z</time>
      </trkpt>
      <trkpt lat="43.48337" lon="-1.57104">
        <ele>3.9</ele>
        <time>2021-09-05T06:32:26Z</time>
      </trkpt>
      <trkpt lat="43.4834" lon="-1.57103">
        <ele>3.9</ele>
        <time>2021-09-05T06:32:27Z</time>
      </trkpt>
      <trkpt lat="43.4834" lon="-1.57103">
        <ele>3.9</ele>
        <time>2021-09-05T06:32:28Z</time>
      </trkpt>
      <trkpt lat="43.48345" lon="-1.57105">
        <ele>3.9</ele>
        <time>2021-09-05T06:32:29Z</time>
      </trkpt>
      <trkpt lat="43.48345" lon="-1.57105">
        <ele>3.9</ele>
        <time>2021-09-05T06:32:30Z</time>
      </trkpt>
      <trkpt lat="43.48347" lon="-1.57107">
        <ele>3.9</ele>
        <time>2021-09-05T06:32:31Z</time>
      </trkpt>
      <trkpt lat="43.48347" lon="-1.57107">
        <ele>3.9</ele>
        <time>2021-09-05T06:32:32Z</time>
      </trkpt>
      <trkpt lat="43.48349" lon="-1.57108">
        <ele>3.9</ele>
        <time>2021-09-05T06:32:33Z</time>
      </trkpt>
      <trkpt lat="43.48347" lon="-1.57109">
        <ele>3.9</ele>
        <time>2021-09-05T06:32:34Z</time>
      </trkpt>
      <trkpt lat="43.48347" lon="-1.57109">
        <ele>3.9</ele>
        <time>2021-09-05T06:32:35Z</time>
      </trkpt>
      <trkpt lat="43.48344" lon="-1.57115">
        <ele>3.9</ele>
        <time>2021-09-05T06:32:36Z</time>
      </trkpt>
      <trkpt lat="43.48344" lon="-1.57115">
        <ele>3.9</ele>
        <time>2021-09-05T06:32:37Z</time>
      </trkpt>
      <trkpt lat="43.48343" lon="-1.57119">
        <ele>3.9</ele>
        <time>2021-09-05T06:32:38Z</time>
      </trkpt>
      <trkpt lat="43.48343" lon="-1.57119">
        <ele>3.9</ele>
        <time>2021-09-05T06:32:39Z</time>
      </trkpt>
      <trkpt lat="43.48343" lon="-1.57119">
        <ele>3.9</ele>
        <time>2021-09-05T06:32:40Z</time>
      </trkpt>
      <trkpt lat="43.48343" lon="-1.57119">
        <ele>3.9</ele>
        <time>2021-09-05T06:32:41Z</time>
      </trkpt>
      <trkpt lat="43.48343" lon="-1.57119">
        <ele>3.9</ele>
        <time>2021-09-05T06:32:42Z</time>
      </trkpt>
      <trkpt lat="43.48343" lon="-1.57119">
        <ele>3.9</ele>
        <time>2021-09-05T06:32:43Z</time>
      </trkpt>
      <trkpt lat="43.48345" lon="-1.57121">
        <ele>3.9</ele>
        <time>2021-09-05T06:32:44Z</time>
      </trkpt>
      <trkpt lat="43.48345" lon="-1.57121">
        <ele>3.9</ele>
        <time>2021-09-05T06:32:45Z</time>
      </trkpt>
      <trkpt lat="43.48349" lon="-1.57124">
        <ele>3.9</ele>
        <time>2021-09-05T06:32:46Z</time>
      </trkpt>
      <trkpt lat="43.48349" lon="-1.57124">
        <ele>3.9</ele>
        <time>2021-09-05T06:32:47Z</time>
      </trkpt>
      <trkpt lat="43.48349" lon="-1.57128">
        <ele>3.9</ele>
        <time>2021-09-05T06:32:48Z</time>
      </trkpt>
      <trkpt lat="43.48349" lon="-1.57128">
        <ele>3.9</ele>
        <time>2021-09-05T06:32:49Z</time>
      </trkpt>
      <trkpt lat="43.4835" lon="-1.57131">
        <ele>3.9</ele>
        <time>2021-09-05T06:32:50Z</time>
      </trkpt>
      <trkpt lat="43.4835" lon="-1.57131">
        <ele>3.9</ele>
        <time>2021-09-05T06:32:51Z</time>
      </trkpt>
      <trkpt lat="43.4835" lon="-1.57135">
        <ele>3.9</ele>
        <time>2021-09-05T06:32:52Z</time>
      </trkpt>
      <trkpt lat="43.4835" lon="-1.57135">
        <ele>3.9</ele>
        <time>2021-09-05T06:32:53Z</time>
      </trkpt>
      <trkpt lat="43.48351" lon="-1.57136">
        <ele>3.9</ele>
        <time>2021-09-05T06:32:54Z</time>
      </trkpt>
      <trkpt lat="43.48351" lon="-1.57136">
        <ele>3.9</ele>
        <time>2021-09-05T06:32:55Z</time>
      </trkpt>
      <trkpt lat="43.48351" lon="-1.57136">
        <ele>3.9</ele>
        <time>2021-09-05T06:32:56Z</time>
      </trkpt>
      <trkpt lat="43.48352" lon="-1.57139">
        <ele>3.9</ele>
        <time>2021-09-05T06:32:57Z</time>
      </trkpt>
      <trkpt lat="43.48352" lon="-1.57139">
        <ele>3.9</ele>
        <time>2021-09-05T06:32:58Z</time>
      </trkpt>
      <trkpt lat="43.48354" lon="-1.57142">
        <ele>3.9</ele>
        <time>2021-09-05T06:32:59Z</time>
      </trkpt>
      <trkpt lat="43.48354" lon="-1.57142">
        <ele>3.9</ele>
        <time>2021-09-05T06:33:00Z</time>
      </trkpt>
      <trkpt lat="43.48355" lon="-1.57144">
        <ele>3.9</ele>
        <time>2021-09-05T06:33:01Z</time>
      </trkpt>
      <trkpt lat="43.48355" lon="-1.57144">
        <ele>3.9</ele>
        <time>2021-09-05T06:33:02Z</time>
      </trkpt>
      <trkpt lat="43.48353" lon="-1.57146">
        <ele>3.9</ele>
        <time>2021-09-05T06:33:03Z</time>
      </trkpt>
      <trkpt lat="43.48353" lon="-1.57146">
        <ele>3.9</ele>
        <time>2021-09-05T06:33:04Z</time>
      </trkpt>
      <trkpt lat="43.48353" lon="-1.57146">
        <ele>3.9</ele>
        <time>2021-09-05T06:33:05Z</time>
      </trkpt>
      <trkpt lat="43.48353" lon="-1.57149">
        <ele>3.9</ele>
        <time>2021-09-05T06:33:06Z</time>
      </trkpt>
      <trkpt lat="43.48353" lon="-1.57149">
        <ele>3.9</ele>
        <time>2021-09-05T06:33:07Z</time>
      </trkpt>
      <trkpt lat="43.48353" lon="-1.57153">
        <ele>3.9</ele>
        <time>2021-09-05T06:33:08Z</time>
      </trkpt>
      <trkpt lat="43.48352" lon="-1.57156">
        <ele>3.9</ele>
        <time>2021-09-05T06:33:09Z</time>
      </trkpt>
      <trkpt lat="43.48352" lon="-1.57156">
        <ele>3.9</ele>
        <time>2021-09-05T06:33:10Z</time>
      </trkpt>
      <trkpt lat="43.48353" lon="-1.57159">
        <ele>3.9</ele>
        <time>2021-09-05T06:33:11Z</time>
      </trkpt>
      <trkpt lat="43.48353" lon="-1.57159">
        <ele>3.9</ele>
        <time>2021-09-05T06:33:12Z</time>
      </trkpt>
      <trkpt lat="43.48355" lon="-1.57161">
        <ele>3.9</ele>
        <time>2021-09-05T06:33:13Z</time>
      </trkpt>
      <trkpt lat="43.48355" lon="-1.57161">
        <ele>3.9</ele>
        <time>2021-09-05T06:33:14Z</time>
      </trkpt>
      <trkpt lat="43.48357" lon="-1.57164">
        <ele>3.9</ele>
        <time>2021-09-05T06:33:15Z</time>
      </trkpt>
      <trkpt lat="43.48357" lon="-1.57164">
        <ele>3.9</ele>
        <time>2021-09-05T06:33:16Z</time>
      </trkpt>
      <trkpt lat="43.48357" lon="-1.57164">
        <ele>3.9</ele>
        <time>2021-09-05T06:33:17Z</time>
      </trkpt>
      <trkpt lat="43.48358" lon="-1.57166">
        <ele>3.9</ele>
        <time>2021-09-05T06:33:18Z</time>
      </trkpt>
      <trkpt lat="43.48358" lon="-1.57166">
        <ele>3.9</ele>
        <time>2021-09-05T06:33:19Z</time>
      </trkpt>
      <trkpt lat="43.4836" lon="-1.57168">
        <ele>3.9</ele>
        <time>2021-09-05T06:33:20Z</time>
      </trkpt>
      <trkpt lat="43.48361" lon="-1.57171">
        <ele>3.9</ele>
        <time>2021-09-05T06:33:21Z</time>
      </trkpt>
      <trkpt lat="43.48361" lon="-1.57171">
        <ele>3.9</ele>
        <time>2021-09-05T06:33:22Z</time>
      </trkpt>
      <trkpt lat="43.48362" lon="-1.57174">
        <ele>3.9</ele>
        <time>2021-09-05T06:33:23Z</time>
      </trkpt>
      <trkpt lat="43.48362" lon="-1.57174">
        <ele>3.9</ele>
        <time>2021-09-05T06:33:24Z</time>
      </trkpt>
      <trkpt lat="43.48362" lon="-1.57174">
        <ele>3.9</ele>
        <time>2021-09-05T06:33:25Z</time>
      </trkpt>
      <trkpt lat="43.48362" lon="-1.57174">
        <ele>3.9</ele>
        <time>2021-09-05T06:33:26Z</time>
      </trkpt>
      <trkpt lat="43.48362" lon="-1.57174">
        <ele>3.9</ele>
        <time>2021-09-05T06:33:27Z</time>
      </trkpt>
      <trkpt lat="43.48362" lon="-1.57174">
        <ele>3.9</ele>
        <time>2021-09-05T06:33:28Z</time>
      </trkpt>
      <trkpt lat="43.48362" lon="-1.57177">
        <ele>3.9</ele>
        <time>2021-09-05T06:33:29Z</time>
      </trkpt>
      <trkpt lat="43.48362" lon="-1.57177">
        <ele>3.9</ele>
        <time>2021-09-05T06:33:30Z</time>
      </trkpt>
      <trkpt lat="43.48362" lon="-1.57177">
        <ele>3.9</ele>
        <time>2021-09-05T06:33:31Z</time>
      </trkpt>
      <trkpt lat="43.48362" lon="-1.57177">
        <ele>3.9</ele>
        <time>2021-09-05T06:33:32Z</time>
      </trkpt>
      <trkpt lat="43.48362" lon="-1.57177">
        <ele>3.9</ele>
        <time>2021-09-05T06:33:33Z</time>
      </trkpt>
      <trkpt lat="43.48358" lon="-1.57178">
        <ele>3.9</ele>
        <time>2021-09-05T06:33:34Z</time>
      </trkpt>
      <trkpt lat="43.48358" lon="-1.57178">
        <ele>3.9</ele>
        <time>2021-09-05T06:33:35Z</time>
      </trkpt>
      <trkpt lat="43.48356" lon="-1.57177">
        <ele>3.9</ele>
        <time>2021-09-05T06:33:36Z</time>
      </trkpt>
      <trkpt lat="43.48353" lon="-1.57176">
        <ele>3.9</ele>
        <time>2021-09-05T06:33:37Z</time>
      </trkpt>
      <trkpt lat="43.4835" lon="-1.57175">
        <ele>3.9</ele>
        <time>2021-09-05T06:33:38Z</time>
      </trkpt>
      <trkpt lat="43.48348" lon="-1.57174">
        <ele>3.9</ele>
        <time>2021-09-05T06:33:39Z</time>
      </trkpt>
      <trkpt lat="43.48348" lon="-1.57174">
        <ele>3.9</ele>
        <time>2021-09-05T06:33:40Z</time>
      </trkpt>
      <trkpt lat="43.48346" lon="-1.57173">
        <ele>3.9</ele>
        <time>2021-09-05T06:33:41Z</time>
      </trkpt>
      <trkpt lat="43.48346" lon="-1.57173">
        <ele>3.9</ele>
        <time>2021-09-05T06:33:42Z</time>
      </trkpt>
      <trkpt lat="43.48346" lon="-1.57173">
        <ele>3.9</ele>
        <time>2021-09-05T06:33:43Z</time>
      </trkpt>
      <trkpt lat="43.48346" lon="-1.57173">
        <ele>3.9</ele>
        <time>2021-09-05T06:33:44Z</time>
      </trkpt>
      <trkpt lat="43.48346" lon="-1.57173">
        <ele>3.9</ele>
        <time>2021-09-05T06:33:45Z</time>
      </trkpt>
      <trkpt lat="43.48344" lon="-1.57174">
        <ele>3.9</ele>
        <time>2021-09-05T06:33:46Z</time>
      </trkpt>
      <trkpt lat="43.48341" lon="-1.57175">
        <ele>3.9</ele>
        <time>2021-09-05T06:33:47Z</time>
      </trkpt>
      <trkpt lat="43.48339" lon="-1.57175">
        <ele>3.9</ele>
        <time>2021-09-05T06:33:48Z</time>
      </trkpt>
      <trkpt lat="43.48336" lon="-1.57177">
        <ele>3.9</ele>
        <time>2021-09-05T06:33:49Z</time>
      </trkpt>
      <trkpt lat="43.48333" lon="-1.57177">
        <ele>3.9</ele>
        <time>2021-09-05T06:33:50Z</time>
      </trkpt>
      <trkpt lat="43.48331" lon="-1.57177">
        <ele>3.9</ele>
        <time>2021-09-05T06:33:51Z</time>
      </trkpt>
      <trkpt lat="43.48328" lon="-1.57177">
        <ele>3.9</ele>
        <time>2021-09-05T06:33:52Z</time>
      </trkpt>
      <trkpt lat="43.48326" lon="-1.57177">
        <ele>3.9</ele>
        <time>2021-09-05T06:33:53Z</time>
      </trkpt>
      <trkpt lat="43.48326" lon="-1.57177">
        <ele>3.9</ele>
        <time>2021-09-05T06:33:54Z</time>
      </trkpt>
      <trkpt lat="43.48326" lon="-1.57177">
        <ele>3.9</ele>
        <time>2021-09-05T06:33:55Z</time>
      </trkpt>
      <trkpt lat="43.48326" lon="-1.57177">
        <ele>3.9</ele>
        <time>2021-09-05T06:33:56Z</time>
      </trkpt>
      <trkpt lat="43.48324" lon="-1.57179">
        <ele>3.9</ele>
        <time>2021-09-05T06:33:57Z</time>
      </trkpt>
      <trkpt lat="43.48328" lon="-1.57177">
        <ele>3.9</ele>
        <time>2021-09-05T06:33:58Z</time>
      </trkpt>
      <trkpt lat="43.48328" lon="-1.57177">
        <ele>3.9</ele>
        <time>2021-09-05T06:33:59Z</time>
      </trkpt>
      <trkpt lat="43.4833" lon="-1.57179">
        <ele>3.9</ele>
        <time>2021-09-05T06:34:00Z</time>
      </trkpt>
      <trkpt lat="43.4833" lon="-1.57179">
        <ele>3.9</ele>
        <time>2021-09-05T06:34:01Z</time>
      </trkpt>
      <trkpt lat="43.4833" lon="-1.57179">
        <ele>3.9</ele>
        <time>2021-09-05T06:34:02Z</time>
      </trkpt>
      <trkpt lat="43.4833" lon="-1.57179">
        <ele>3.9</ele>
        <time>2021-09-05T06:34:03Z</time>
      </trkpt>
      <trkpt lat="43.48327" lon="-1.5718">
        <ele>3.9</ele>
        <time>2021-09-05T06:34:04Z</time>
      </trkpt>
      <trkpt lat="43.48327" lon="-1.5718">
        <ele>3.9</ele>
        <time>2021-09-05T06:34:05Z</time>
      </trkpt>
      <trkpt lat="43.48327" lon="-1.5718">
        <ele>3.9</ele>
        <time>2021-09-05T06:34:06Z</time>
      </trkpt>
      <trkpt lat="43.48324" lon="-1.57181">
        <ele>3.9</ele>
        <time>2021-09-05T06:34:07Z</time>
      </trkpt>
      <trkpt lat="43.48324" lon="-1.57181">
        <ele>3.9</ele>
        <time>2021-09-05T06:34:08Z</time>
      </trkpt>
      <trkpt lat="43.48322" lon="-1.57181">
        <ele>3.9</ele>
        <time>2021-09-05T06:34:09Z</time>
      </trkpt>
      <trkpt lat="43.48322" lon="-1.57181">
        <ele>3.9</ele>
        <time>2021-09-05T06:34:10Z</time>
      </trkpt>
      <trkpt lat="43.48322" lon="-1.57181">
        <ele>3.9</ele>
        <time>2021-09-05T06:34:11Z</time>
      </trkpt>
      <trkpt lat="43.48322" lon="-1.57181">
        <ele>3.9</ele>
        <time>2021-09-05T06:34:12Z</time>
      </trkpt>
      <trkpt lat="43.4832" lon="-1.57179">
        <ele>3.9</ele>
        <time>2021-09-05T06:34:13Z</time>
      </trkpt>
      <trkpt lat="43.4832" lon="-1.57179">
        <ele>3.9</ele>
        <time>2021-09-05T06:34:14Z</time>
      </trkpt>
      <trkpt lat="43.4832" lon="-1.57179">
        <ele>3.9</ele>
        <time>2021-09-05T06:34:15Z</time>
      </trkpt>
      <trkpt lat="43.4832" lon="-1.57179">
        <ele>3.9</ele>
        <time>2021-09-05T06:34:16Z</time>
      </trkpt>
      <trkpt lat="43.4832" lon="-1.57179">
        <ele>3.9</ele>
        <time>2021-09-05T06:34:17Z</time>
      </trkpt>
      <trkpt lat="43.4832" lon="-1.57179">
        <ele>3.9</ele>
        <time>2021-09-05T06:34:18Z</time>
      </trkpt>
      <trkpt lat="43.4832" lon="-1.57179">
        <ele>3.9</ele>
        <time>2021-09-05T06:34:19Z</time>
      </trkpt>
      <trkpt lat="43.48318" lon="-1.57181">
        <ele>3.9</ele>
        <time>2021-09-05T06:34:20Z</time>
      </trkpt>
      <trkpt lat="43.48318" lon="-1.57181">
        <ele>3.9</ele>
        <time>2021-09-05T06:34:21Z</time>
      </trkpt>
      <trkpt lat="43.48316" lon="-1.57181">
        <ele>3.9</ele>
        <time>2021-09-05T06:34:22Z</time>
      </trkpt>
      <trkpt lat="43.48316" lon="-1.57181">
        <ele>3.9</ele>
        <time>2021-09-05T06:34:23Z</time>
      </trkpt>
      <trkpt lat="43.48316" lon="-1.57181">
        <ele>3.9</ele>
        <time>2021-09-05T06:34:24Z</time>
      </trkpt>
      <trkpt lat="43.48314" lon="-1.57182">
        <ele>3.9</ele>
        <time>2021-09-05T06:34:25Z</time>
      </trkpt>
      <trkpt lat="43.48314" lon="-1.57182">
        <ele>3.9</ele>
        <time>2021-09-05T06:34:26Z</time>
      </trkpt>
      <trkpt lat="43.48311" lon="-1.57184">
        <ele>3.9</ele>
        <time>2021-09-05T06:34:27Z</time>
      </trkpt>
      <trkpt lat="43.4831" lon="-1.57187">
        <ele>3.9</ele>
        <time>2021-09-05T06:34:28Z</time>
      </trkpt>
      <trkpt lat="43.4831" lon="-1.57187">
        <ele>3.9</ele>
        <time>2021-09-05T06:34:29Z</time>
      </trkpt>
      <trkpt lat="43.4831" lon="-1.57191">
        <ele>3.9</ele>
        <time>2021-09-05T06:34:30Z</time>
      </trkpt>
      <trkpt lat="43.4831" lon="-1.57191">
        <ele>3.9</ele>
        <time>2021-09-05T06:34:31Z</time>
      </trkpt>
      <trkpt lat="43.4831" lon="-1.57191">
        <ele>3.9</ele>
        <time>2021-09-05T06:34:32Z</time>
      </trkpt>
      <trkpt lat="43.4831" lon="-1.57191">
        <ele>3.9</ele>
        <time>2021-09-05T06:34:33Z</time>
      </trkpt>
      <trkpt lat="43.48308" lon="-1.57191">
        <ele>3.9</ele>
        <time>2021-09-05T06:34:34Z</time>
      </trkpt>
      <trkpt lat="43.48308" lon="-1.57191">
        <ele>3.9</ele>
        <time>2021-09-05T06:34:35Z</time>
      </trkpt>
      <trkpt lat="43.48307" lon="-1.57186">
        <ele>3.9</ele>
        <time>2021-09-05T06:34:36Z</time>
      </trkpt>
      <trkpt lat="43.48305" lon="-1.57187">
        <ele>3.9</ele>
        <time>2021-09-05T06:34:37Z</time>
      </trkpt>
      <trkpt lat="43.48305" lon="-1.57187">
        <ele>3.9</ele>
        <time>2021-09-05T06:34:38Z</time>
      </trkpt>
      <trkpt lat="43.48302" lon="-1.57188">
        <ele>3.9</ele>
        <time>2021-09-05T06:34:39Z</time>
      </trkpt>
      <trkpt lat="43.48302" lon="-1.57188">
        <ele>3.9</ele>
        <time>2021-09-05T06:34:40Z</time>
      </trkpt>
      <trkpt lat="43.48302" lon="-1.57188">
        <ele>3.9</ele>
        <time>2021-09-05T06:34:41Z</time>
      </trkpt>
      <trkpt lat="43.48302" lon="-1.57188">
        <ele>3.9</ele>
        <time>2021-09-05T06:34:42Z</time>
      </trkpt>
      <trkpt lat="43.48301" lon="-1.57189">
        <ele>3.9</ele>
        <time>2021-09-05T06:34:43Z</time>
      </trkpt>
      <trkpt lat="43.48301" lon="-1.57189">
        <ele>3.9</ele>
        <time>2021-09-05T06:34:44Z</time>
      </trkpt>
      <trkpt lat="43.48299" lon="-1.57188">
        <ele>3.9</ele>
        <time>2021-09-05T06:34:45Z</time>
      </trkpt>
      <trkpt lat="43.48299" lon="-1.57188">
        <ele>3.9</ele>
        <time>2021-09-05T06:34:46Z</time>
      </trkpt>
      <trkpt lat="43.48296" lon="-1.57188">
        <ele>3.9</ele>
        <time>2021-09-05T06:34:47Z</time>
      </trkpt>
      <trkpt lat="43.48296" lon="-1.57188">
        <ele>3.9</ele>
        <time>2021-09-05T06:34:48Z</time>
      </trkpt>
      <trkpt lat="43.48293" lon="-1.57188">
        <ele>3.9</ele>
        <time>2021-09-05T06:34:49Z</time>
      </trkpt>
      <trkpt lat="43.48293" lon="-1.57188">
        <ele>3.9</ele>
        <time>2021-09-05T06:34:50Z</time>
      </trkpt>
      <trkpt lat="43.48291" lon="-1.57188">
        <ele>3.9</ele>
        <time>2021-09-05T06:34:51Z</time>
      </trkpt>
      <trkpt lat="43.48291" lon="-1.57188">
        <ele>3.9</ele>
        <time>2021-09-05T06:34:52Z</time>
      </trkpt>
      <trkpt lat="43.48291" lon="-1.57188">
        <ele>3.9</ele>
        <time>2021-09-05T06:34:53Z</time>
      </trkpt>
      <trkpt lat="43.48288" lon="-1.57189">
        <ele>3.9</ele>
        <time>2021-09-05T06:34:54Z</time>
      </trkpt>
      <trkpt lat="43.48288" lon="-1.57189">
        <ele>3.9</ele>
        <time>2021-09-05T06:34:55Z</time>
      </trkpt>
      <trkpt lat="43.48288" lon="-1.57189">
        <ele>3.9</ele>
        <time>2021-09-05T06:34:56Z</time>
      </trkpt>
      <trkpt lat="43.48288" lon="-1.57189">
        <ele>3.9</ele>
        <time>2021-09-05T06:34:57Z</time>
      </trkpt>
      <trkpt lat="43.48288" lon="-1.57189">
        <ele>3.9</ele>
        <time>2021-09-05T06:34:58Z</time>
      </trkpt>
      <trkpt lat="43.48288" lon="-1.57189">
        <ele>3.9</ele>
        <time>2021-09-05T06:34:59Z</time>
      </trkpt>
      <trkpt lat="43.48285" lon="-1.5719">
        <ele>3.9</ele>
        <time>2021-09-05T06:35:00Z</time>
      </trkpt>
      <trkpt lat="43.48285" lon="-1.5719">
        <ele>3.9</ele>
        <time>2021-09-05T06:35:01Z</time>
      </trkpt>
      <trkpt lat="43.48282" lon="-1.57191">
        <ele>3.9</ele>
        <time>2021-09-05T06:35:02Z</time>
      </trkpt>
      <trkpt lat="43.4828" lon="-1.57191">
        <ele>3.9</ele>
        <time>2021-09-05T06:35:03Z</time>
      </trkpt>
      <trkpt lat="43.4828" lon="-1.57191">
        <ele>3.9</ele>
        <time>2021-09-05T06:35:04Z</time>
      </trkpt>
      <trkpt lat="43.48277" lon="-1.5719">
        <ele>3.9</ele>
        <time>2021-09-05T06:35:05Z</time>
      </trkpt>
      <trkpt lat="43.48277" lon="-1.5719">
        <ele>3.9</ele>
        <time>2021-09-05T06:35:06Z</time>
      </trkpt>
      <trkpt lat="43.48275" lon="-1.5719">
        <ele>3.9</ele>
        <time>2021-09-05T06:35:07Z</time>
      </trkpt>
      <trkpt lat="43.48275" lon="-1.5719">
        <ele>3.9</ele>
        <time>2021-09-05T06:35:08Z</time>
      </trkpt>
      <trkpt lat="43.48273" lon="-1.57192">
        <ele>3.9</ele>
        <time>2021-09-05T06:35:09Z</time>
      </trkpt>
      <trkpt lat="43.48273" lon="-1.57192">
        <ele>3.9</ele>
        <time>2021-09-05T06:35:10Z</time>
      </trkpt>
      <trkpt lat="43.48273" lon="-1.57192">
        <ele>3.9</ele>
        <time>2021-09-05T06:35:11Z</time>
      </trkpt>
      <trkpt lat="43.48271" lon="-1.57192">
        <ele>3.9</ele>
        <time>2021-09-05T06:35:12Z</time>
      </trkpt>
      <trkpt lat="43.48271" lon="-1.57192">
        <ele>3.9</ele>
        <time>2021-09-05T06:35:13Z</time>
      </trkpt>
      <trkpt lat="43.48271" lon="-1.57192">
        <ele>3.9</ele>
        <time>2021-09-05T06:35:14Z</time>
      </trkpt>
      <trkpt lat="43.48271" lon="-1.57192">
        <ele>3.9</ele>
        <time>2021-09-05T06:35:15Z</time>
      </trkpt>
      <trkpt lat="43.48269" lon="-1.57194">
        <ele>3.9</ele>
        <time>2021-09-05T06:35:16Z</time>
      </trkpt>
      <trkpt lat="43.48269" lon="-1.57194">
        <ele>3.9</ele>
        <time>2021-09-05T06:35:17Z</time>
      </trkpt>
      <trkpt lat="43.48267" lon="-1.57195">
        <ele>3.9</ele>
        <time>2021-09-05T06:35:18Z</time>
      </trkpt>
      <trkpt lat="43.48267" lon="-1.57195">
        <ele>3.9</ele>
        <time>2021-09-05T06:35:19Z</time>
      </trkpt>
      <trkpt lat="43.48265" lon="-1.57197">
        <ele>3.9</ele>
        <time>2021-09-05T06:35:20Z</time>
      </trkpt>
      <trkpt lat="43.48265" lon="-1.57197">
        <ele>3.9</ele>
        <time>2021-09-05T06:35:21Z</time>
      </trkpt>
      <trkpt lat="43.48265" lon="-1.57197">
        <ele>3.9</ele>
        <time>2021-09-05T06:35:22Z</time>
      </trkpt>
      <trkpt lat="43.48265" lon="-1.57197">
        <ele>3.9</ele>
        <time>2021-09-05T06:35:23Z</time>
      </trkpt>
      <trkpt lat="43.48265" lon="-1.57197">
        <ele>3.9</ele>
        <time>2021-09-05T06:35:24Z</time>
      </trkpt>
      <trkpt lat="43.48264" lon="-1.57199">
        <ele>3.9</ele>
        <time>2021-09-05T06:35:25Z</time>
      </trkpt>
      <trkpt lat="43.48264" lon="-1.57199">
        <ele>3.9</ele>
        <time>2021-09-05T06:35:26Z</time>
      </trkpt>
      <trkpt lat="43.48261" lon="-1.57199">
        <ele>3.9</ele>
        <time>2021-09-05T06:35:27Z</time>
      </trkpt>
      <trkpt lat="43.48261" lon="-1.57199">
        <ele>3.9</ele>
        <time>2021-09-05T06:35:28Z</time>
      </trkpt>
      <trkpt lat="43.48258" lon="-1.57198">
        <ele>3.9</ele>
        <time>2021-09-05T06:35:29Z</time>
      </trkpt>
      <trkpt lat="43.48256" lon="-1.57198">
        <ele>3.9</ele>
        <time>2021-09-05T06:35:30Z</time>
      </trkpt>
      <trkpt lat="43.48256" lon="-1.57198">
        <ele>3.9</ele>
        <time>2021-09-05T06:35:31Z</time>
      </trkpt>
      <trkpt lat="43.48256" lon="-1.572">
        <ele>3.9</ele>
        <time>2021-09-05T06:35:32Z</time>
      </trkpt>
      <trkpt lat="43.48256" lon="-1.572">
        <ele>3.9</ele>
        <time>2021-09-05T06:35:33Z</time>
      </trkpt>
      <trkpt lat="43.48254" lon="-1.572">
        <ele>3.9</ele>
        <time>2021-09-05T06:35:34Z</time>
      </trkpt>
      <trkpt lat="43.48254" lon="-1.572">
        <ele>3.9</ele>
        <time>2021-09-05T06:35:35Z</time>
      </trkpt>
      <trkpt lat="43.48259" lon="-1.57201">
        <ele>3.9</ele>
        <time>2021-09-05T06:35:36Z</time>
      </trkpt>
      <trkpt lat="43.48259" lon="-1.57201">
        <ele>3.9</ele>
        <time>2021-09-05T06:35:37Z</time>
      </trkpt>
      <trkpt lat="43.48259" lon="-1.57201">
        <ele>3.9</ele>
        <time>2021-09-05T06:35:38Z</time>
      </trkpt>
      <trkpt lat="43.48259" lon="-1.57201">
        <ele>3.9</ele>
        <time>2021-09-05T06:35:39Z</time>
      </trkpt>
      <trkpt lat="43.48259" lon="-1.57201">
        <ele>3.9</ele>
        <time>2021-09-05T06:35:40Z</time>
      </trkpt>
      <trkpt lat="43.48259" lon="-1.57201">
        <ele>3.9</ele>
        <time>2021-09-05T06:35:41Z</time>
      </trkpt>
      <trkpt lat="43.48257" lon="-1.572">
        <ele>3.9</ele>
        <time>2021-09-05T06:35:42Z</time>
      </trkpt>
      <trkpt lat="43.48255" lon="-1.57199">
        <ele>3.9</ele>
        <time>2021-09-05T06:35:43Z</time>
      </trkpt>
      <trkpt lat="43.48253" lon="-1.57199">
        <ele>3.9</ele>
        <time>2021-09-05T06:35:44Z</time>
      </trkpt>
      <trkpt lat="43.48252" lon="-1.572">
        <ele>3.9</ele>
        <time>2021-09-05T06:35:45Z</time>
      </trkpt>
      <trkpt lat="43.48252" lon="-1.572">
        <ele>3.9</ele>
        <time>2021-09-05T06:35:46Z</time>
      </trkpt>
      <trkpt lat="43.48249" lon="-1.57204">
        <ele>3.9</ele>
        <time>2021-09-05T06:35:47Z</time>
      </trkpt>
      <trkpt lat="43.48249" lon="-1.57204">
        <ele>3.9</ele>
        <time>2021-09-05T06:35:48Z</time>
      </trkpt>
      <trkpt lat="43.48245" lon="-1.57205">
        <ele>3.9</ele>
        <time>2021-09-05T06:35:49Z</time>
      </trkpt>
      <trkpt lat="43.48245" lon="-1.57205">
        <ele>3.9</ele>
        <time>2021-09-05T06:35:50Z</time>
      </trkpt>
      <trkpt lat="43.48243" lon="-1.57207">
        <ele>3.9</ele>
        <time>2021-09-05T06:35:51Z</time>
      </trkpt>
      <trkpt lat="43.48243" lon="-1.57207">
        <ele>3.9</ele>
        <time>2021-09-05T06:35:52Z</time>
      </trkpt>
      <trkpt lat="43.48243" lon="-1.57207">
        <ele>3.9</ele>
        <time>2021-09-05T06:35:53Z</time>
      </trkpt>
      <trkpt lat="43.48243" lon="-1.57207">
        <ele>3.9</ele>
        <time>2021-09-05T06:35:54Z</time>
      </trkpt>
      <trkpt lat="43.48243" lon="-1.57207">
        <ele>3.9</ele>
        <time>2021-09-05T06:35:55Z</time>
      </trkpt>
      <trkpt lat="43.48243" lon="-1.57207">
        <ele>3.9</ele>
        <time>2021-09-05T06:35:56Z</time>
      </trkpt>
      <trkpt lat="43.48241" lon="-1.57205">
        <ele>3.9</ele>
        <time>2021-09-05T06:35:57Z</time>
      </trkpt>
      <trkpt lat="43.48241" lon="-1.57205">
        <ele>3.9</ele>
        <time>2021-09-05T06:35:58Z</time>
      </trkpt>
      <trkpt lat="43.48241" lon="-1.57205">
        <ele>3.9</ele>
        <time>2021-09-05T06:35:59Z</time>
      </trkpt>
      <trkpt lat="43.48241" lon="-1.57205">
        <ele>3.9</ele>
        <time>2021-09-05T06:36:00Z</time>
      </trkpt>
      <trkpt lat="43.48241" lon="-1.57205">
        <ele>3.9</ele>
        <time>2021-09-05T06:36:01Z</time>
      </trkpt>
      <trkpt lat="43.48241" lon="-1.57205">
        <ele>3.9</ele>
        <time>2021-09-05T06:36:02Z</time>
      </trkpt>
      <trkpt lat="43.48239" lon="-1.57205">
        <ele>3.9</ele>
        <time>2021-09-05T06:36:03Z</time>
      </trkpt>
      <trkpt lat="43.48233" lon="-1.57207">
        <ele>3.9</ele>
        <time>2021-09-05T06:36:04Z</time>
      </trkpt>
      <trkpt lat="43.48233" lon="-1.57207">
        <ele>3.9</ele>
        <time>2021-09-05T06:36:05Z</time>
      </trkpt>
      <trkpt lat="43.48231" lon="-1.57207">
        <ele>3.9</ele>
        <time>2021-09-05T06:36:06Z</time>
      </trkpt>
      <trkpt lat="43.48231" lon="-1.57207">
        <ele>3.9</ele>
        <time>2021-09-05T06:36:07Z</time>
      </trkpt>
      <trkpt lat="43.48229" lon="-1.57209">
        <ele>3.9</ele>
        <time>2021-09-05T06:36:08Z</time>
      </trkpt>
      <trkpt lat="43.48229" lon="-1.57209">
        <ele>3.9</ele>
        <time>2021-09-05T06:36:09Z</time>
      </trkpt>
      <trkpt lat="43.48227" lon="-1.57212">
        <ele>3.9</ele>
        <time>2021-09-05T06:36:10Z</time>
      </trkpt>
      <trkpt lat="43.48227" lon="-1.57212">
        <ele>3.9</ele>
        <time>2021-09-05T06:36:11Z</time>
      </trkpt>
      <trkpt lat="43.48225" lon="-1.57214">
        <ele>3.9</ele>
        <time>2021-09-05T06:36:12Z</time>
      </trkpt>
      <trkpt lat="43.48225" lon="-1.57214">
        <ele>3.9</ele>
        <time>2021-09-05T06:36:13Z</time>
      </trkpt>
      <trkpt lat="43.48223" lon="-1.57214">
        <ele>3.9</ele>
        <time>2021-09-05T06:36:14Z</time>
      </trkpt>
      <trkpt lat="43.48223" lon="-1.57214">
        <ele>3.9</ele>
        <time>2021-09-05T06:36:15Z</time>
      </trkpt>
      <trkpt lat="43.48223" lon="-1.57214">
        <ele>3.9</ele>
        <time>2021-09-05T06:36:16Z</time>
      </trkpt>
      <trkpt lat="43.48223" lon="-1.57214">
        <ele>3.9</ele>
        <time>2021-09-05T06:36:17Z</time>
      </trkpt>
      <trkpt lat="43.48223" lon="-1.57214">
        <ele>3.9</ele>
        <time>2021-09-05T06:36:18Z</time>
      </trkpt>
      <trkpt lat="43.48223" lon="-1.57214">
        <ele>3.9</ele>
        <time>2021-09-05T06:36:19Z</time>
      </trkpt>
      <trkpt lat="43.48223" lon="-1.57214">
        <ele>3.9</ele>
        <time>2021-09-05T06:36:20Z</time>
      </trkpt>
      <trkpt lat="43.48219" lon="-1.57212">
        <ele>3.9</ele>
        <time>2021-09-05T06:36:21Z</time>
      </trkpt>
      <trkpt lat="43.48219" lon="-1.57212">
        <ele>3.9</ele>
        <time>2021-09-05T06:36:22Z</time>
      </trkpt>
      <trkpt lat="43.48216" lon="-1.57212">
        <ele>3.9</ele>
        <time>2021-09-05T06:36:23Z</time>
      </trkpt>
      <trkpt lat="43.48216" lon="-1.57212">
        <ele>3.9</ele>
        <time>2021-09-05T06:36:24Z</time>
      </trkpt>
      <trkpt lat="43.48216" lon="-1.57212">
        <ele>3.9</ele>
        <time>2021-09-05T06:36:25Z</time>
      </trkpt>
      <trkpt lat="43.48216" lon="-1.57212">
        <ele>3.9</ele>
        <time>2021-09-05T06:36:26Z</time>
      </trkpt>
      <trkpt lat="43.48213" lon="-1.57214">
        <ele>3.9</ele>
        <time>2021-09-05T06:36:27Z</time>
      </trkpt>
      <trkpt lat="43.48213" lon="-1.57214">
        <ele>3.9</ele>
        <time>2021-09-05T06:36:28Z</time>
      </trkpt>
      <trkpt lat="43.4821" lon="-1.57215">
        <ele>3.9</ele>
        <time>2021-09-05T06:36:29Z</time>
      </trkpt>
      <trkpt lat="43.4821" lon="-1.57215">
        <ele>3.9</ele>
        <time>2021-09-05T06:36:30Z</time>
      </trkpt>
      <trkpt lat="43.4821" lon="-1.57215">
        <ele>3.9</ele>
        <time>2021-09-05T06:36:31Z</time>
      </trkpt>
      <trkpt lat="43.4821" lon="-1.57215">
        <ele>3.9</ele>
        <time>2021-09-05T06:36:32Z</time>
      </trkpt>
      <trkpt lat="43.48208" lon="-1.57216">
        <ele>3.9</ele>
        <time>2021-09-05T06:36:33Z</time>
      </trkpt>
      <trkpt lat="43.48208" lon="-1.57216">
        <ele>3.9</ele>
        <time>2021-09-05T06:36:34Z</time>
      </trkpt>
      <trkpt lat="43.48208" lon="-1.57216">
        <ele>3.9</ele>
        <time>2021-09-05T06:36:35Z</time>
      </trkpt>
      <trkpt lat="43.48205" lon="-1.57218">
        <ele>3.9</ele>
        <time>2021-09-05T06:36:36Z</time>
      </trkpt>
      <trkpt lat="43.48205" lon="-1.57218">
        <ele>3.9</ele>
        <time>2021-09-05T06:36:37Z</time>
      </trkpt>
      <trkpt lat="43.48205" lon="-1.57218">
        <ele>3.9</ele>
        <time>2021-09-05T06:36:38Z</time>
      </trkpt>
      <trkpt lat="43.48205" lon="-1.57218">
        <ele>3.9</ele>
        <time>2021-09-05T06:36:39Z</time>
      </trkpt>
      <trkpt lat="43.48205" lon="-1.5722">
        <ele>3.9</ele>
        <time>2021-09-05T06:36:40Z</time>
      </trkpt>
      <trkpt lat="43.48205" lon="-1.5722">
        <ele>3.9</ele>
        <time>2021-09-05T06:36:41Z</time>
      </trkpt>
      <trkpt lat="43.48203" lon="-1.57222">
        <ele>3.9</ele>
        <time>2021-09-05T06:36:42Z</time>
      </trkpt>
      <trkpt lat="43.48203" lon="-1.57222">
        <ele>3.9</ele>
        <time>2021-09-05T06:36:43Z</time>
      </trkpt>
      <trkpt lat="43.482" lon="-1.57223">
        <ele>3.9</ele>
        <time>2021-09-05T06:36:44Z</time>
      </trkpt>
      <trkpt lat="43.482" lon="-1.57223">
        <ele>3.9</ele>
        <time>2021-09-05T06:36:45Z</time>
      </trkpt>
      <trkpt lat="43.48196" lon="-1.57225">
        <ele>3.9</ele>
        <time>2021-09-05T06:36:46Z</time>
      </trkpt>
      <trkpt lat="43.48196" lon="-1.57225">
        <ele>3.9</ele>
        <time>2021-09-05T06:36:47Z</time>
      </trkpt>
      <trkpt lat="43.48193" lon="-1.57226">
        <ele>3.9</ele>
        <time>2021-09-05T06:36:48Z</time>
      </trkpt>
      <trkpt lat="43.48193" lon="-1.57226">
        <ele>3.9</ele>
        <time>2021-09-05T06:36:49Z</time>
      </trkpt>
      <trkpt lat="43.48193" lon="-1.57226">
        <ele>3.9</ele>
        <time>2021-09-05T06:36:50Z</time>
      </trkpt>
      <trkpt lat="43.48193" lon="-1.57226">
        <ele>3.9</ele>
        <time>2021-09-05T06:36:51Z</time>
      </trkpt>
      <trkpt lat="43.48193" lon="-1.57226">
        <ele>3.9</ele>
        <time>2021-09-05T06:36:52Z</time>
      </trkpt>
      <trkpt lat="43.48192" lon="-1.57228">
        <ele>3.9</ele>
        <time>2021-09-05T06:36:53Z</time>
      </trkpt>
      <trkpt lat="43.48192" lon="-1.57228">
        <ele>3.9</ele>
        <time>2021-09-05T06:36:54Z</time>
      </trkpt>
      <trkpt lat="43.48192" lon="-1.57228">
        <ele>3.9</ele>
        <time>2021-09-05T06:36:55Z</time>
      </trkpt>
      <trkpt lat="43.48192" lon="-1.57228">
        <ele>3.9</ele>
        <time>2021-09-05T06:36:56Z</time>
      </trkpt>
      <trkpt lat="43.48192" lon="-1.57228">
        <ele>3.9</ele>
        <time>2021-09-05T06:36:57Z</time>
      </trkpt>
      <trkpt lat="43.48192" lon="-1.57228">
        <ele>3.9</ele>
        <time>2021-09-05T06:36:58Z</time>
      </trkpt>
      <trkpt lat="43.48192" lon="-1.57228">
        <ele>3.9</ele>
        <time>2021-09-05T06:36:59Z</time>
      </trkpt>
      <trkpt lat="43.48192" lon="-1.57228">
        <ele>3.9</ele>
        <time>2021-09-05T06:37:00Z</time>
      </trkpt>
      <trkpt lat="43.48192" lon="-1.57228">
        <ele>3.9</ele>
        <time>2021-09-05T06:37:01Z</time>
      </trkpt>
      <trkpt lat="43.48192" lon="-1.57228">
        <ele>3.9</ele>
        <time>2021-09-05T06:37:02Z</time>
      </trkpt>
      <trkpt lat="43.48192" lon="-1.57228">
        <ele>3.9</ele>
        <time>2021-09-05T06:37:03Z</time>
      </trkpt>
      <trkpt lat="43.48192" lon="-1.57228">
        <ele>3.9</ele>
        <time>2021-09-05T06:37:04Z</time>
      </trkpt>
      <trkpt lat="43.48192" lon="-1.57228">
        <ele>3.9</ele>
        <time>2021-09-05T06:37:05Z</time>
      </trkpt>
      <trkpt lat="43.48192" lon="-1.57228">
        <ele>3.9</ele>
        <time>2021-09-05T06:37:06Z</time>
      </trkpt>
      <trkpt lat="43.48192" lon="-1.57228">
        <ele>3.9</ele>
        <time>2021-09-05T06:37:07Z</time>
      </trkpt>
      <trkpt lat="43.48189" lon="-1.57227">
        <ele>3.9</ele>
        <time>2021-09-05T06:37:08Z</time>
      </trkpt>
      <trkpt lat="43.48189" lon="-1.57227">
        <ele>3.9</ele>
        <time>2021-09-05T06:37:09Z</time>
      </trkpt>
      <trkpt lat="43.48187" lon="-1.57227">
        <ele>3.9</ele>
        <time>2021-09-05T06:37:10Z</time>
      </trkpt>
      <trkpt lat="43.48187" lon="-1.57227">
        <ele>3.9</ele>
        <time>2021-09-05T06:37:11Z</time>
      </trkpt>
      <trkpt lat="43.48185" lon="-1.57228">
        <ele>3.9</ele>
        <time>2021-09-05T06:37:12Z</time>
      </trkpt>
      <trkpt lat="43.48185" lon="-1.57228">
        <ele>3.9</ele>
        <time>2021-09-05T06:37:13Z</time>
      </trkpt>
      <trkpt lat="43.48183" lon="-1.57228">
        <ele>3.9</ele>
        <time>2021-09-05T06:37:14Z</time>
      </trkpt>
      <trkpt lat="43.48183" lon="-1.57228">
        <ele>3.9</ele>
        <time>2021-09-05T06:37:15Z</time>
      </trkpt>
      <trkpt lat="43.48181" lon="-1.57228">
        <ele>3.9</ele>
        <time>2021-09-05T06:37:16Z</time>
      </trkpt>
      <trkpt lat="43.48181" lon="-1.57228">
        <ele>3.9</ele>
        <time>2021-09-05T06:37:17Z</time>
      </trkpt>
      <trkpt lat="43.48178" lon="-1.57229">
        <ele>3.9</ele>
        <time>2021-09-05T06:37:18Z</time>
      </trkpt>
      <trkpt lat="43.48176" lon="-1.57231">
        <ele>3.9</ele>
        <time>2021-09-05T06:37:19Z</time>
      </trkpt>
      <trkpt lat="43.48176" lon="-1.57231">
        <ele>3.9</ele>
        <time>2021-09-05T06:37:20Z</time>
      </trkpt>
      <trkpt lat="43.48176" lon="-1.57231">
        <ele>3.9</ele>
        <time>2021-09-05T06:37:21Z</time>
      </trkpt>
      <trkpt lat="43.48175" lon="-1.57234">
        <ele>3.9</ele>
        <time>2021-09-05T06:37:22Z</time>
      </trkpt>
      <trkpt lat="43.48175" lon="-1.57234">
        <ele>3.9</ele>
        <time>2021-09-05T06:37:23Z</time>
      </trkpt>
      <trkpt lat="43.48175" lon="-1.57234">
        <ele>3.9</ele>
        <time>2021-09-05T06:37:24Z</time>
      </trkpt>
      <trkpt lat="43.48175" lon="-1.57234">
        <ele>3.9</ele>
        <time>2021-09-05T06:37:25Z</time>
      </trkpt>
      <trkpt lat="43.48175" lon="-1.57237">
        <ele>3.9</ele>
        <time>2021-09-05T06:37:26Z</time>
      </trkpt>
      <trkpt lat="43.48175" lon="-1.57237">
        <ele>3.9</ele>
        <time>2021-09-05T06:37:27Z</time>
      </trkpt>
      <trkpt lat="43.48175" lon="-1.57237">
        <ele>3.9</ele>
        <time>2021-09-05T06:37:28Z</time>
      </trkpt>
      <trkpt lat="43.48173" lon="-1.57238">
        <ele>3.9</ele>
        <time>2021-09-05T06:37:29Z</time>
      </trkpt>
      <trkpt lat="43.48171" lon="-1.57239">
        <ele>3.9</ele>
        <time>2021-09-05T06:37:30Z</time>
      </trkpt>
      <trkpt lat="43.48171" lon="-1.57239">
        <ele>3.9</ele>
        <time>2021-09-05T06:37:31Z</time>
      </trkpt>
      <trkpt lat="43.48168" lon="-1.5724">
        <ele>3.9</ele>
        <time>2021-09-05T06:37:32Z</time>
      </trkpt>
      <trkpt lat="43.48168" lon="-1.5724">
        <ele>3.9</ele>
        <time>2021-09-05T06:37:33Z</time>
      </trkpt>
      <trkpt lat="43.48168" lon="-1.5724">
        <ele>3.9</ele>
        <time>2021-09-05T06:37:34Z</time>
      </trkpt>
      <trkpt lat="43.48168" lon="-1.5724">
        <ele>3.9</ele>
        <time>2021-09-05T06:37:35Z</time>
      </trkpt>
      <trkpt lat="43.48168" lon="-1.5724">
        <ele>3.9</ele>
        <time>2021-09-05T06:37:36Z</time>
      </trkpt>
      <trkpt lat="43.48167" lon="-1.57237">
        <ele>3.9</ele>
        <time>2021-09-05T06:37:37Z</time>
      </trkpt>
      <trkpt lat="43.48167" lon="-1.57237">
        <ele>3.9</ele>
        <time>2021-09-05T06:37:38Z</time>
      </trkpt>
      <trkpt lat="43.48165" lon="-1.57238">
        <ele>3.9</ele>
        <time>2021-09-05T06:37:39Z</time>
      </trkpt>
      <trkpt lat="43.48165" lon="-1.57238">
        <ele>3.9</ele>
        <time>2021-09-05T06:37:40Z</time>
      </trkpt>
      <trkpt lat="43.48162" lon="-1.57237">
        <ele>3.9</ele>
        <time>2021-09-05T06:37:41Z</time>
      </trkpt>
      <trkpt lat="43.48162" lon="-1.57237">
        <ele>3.9</ele>
        <time>2021-09-05T06:37:42Z</time>
      </trkpt>
      <trkpt lat="43.48159" lon="-1.57237">
        <ele>3.9</ele>
        <time>2021-09-05T06:37:43Z</time>
      </trkpt>
      <trkpt lat="43.48159" lon="-1.57237">
        <ele>3.9</ele>
        <time>2021-09-05T06:37:44Z</time>
      </trkpt>
      <trkpt lat="43.48157" lon="-1.57238">
        <ele>3.9</ele>
        <time>2021-09-05T06:37:45Z</time>
      </trkpt>
      <trkpt lat="43.48157" lon="-1.57238">
        <ele>3.9</ele>
        <time>2021-09-05T06:37:46Z</time>
      </trkpt>
      <trkpt lat="43.48156" lon="-1.57239">
        <ele>3.9</ele>
        <time>2021-09-05T06:37:47Z</time>
      </trkpt>
      <trkpt lat="43.48156" lon="-1.57239">
        <ele>3.9</ele>
        <time>2021-09-05T06:37:48Z</time>
      </trkpt>
      <trkpt lat="43.48153" lon="-1.57241">
        <ele>3.9</ele>
        <time>2021-09-05T06:37:49Z</time>
      </trkpt>
      <trkpt lat="43.48153" lon="-1.57241">
        <ele>3.9</ele>
        <time>2021-09-05T06:37:50Z</time>
      </trkpt>
      <trkpt lat="43.48151" lon="-1.57242">
        <ele>3.9</ele>
        <time>2021-09-05T06:37:51Z</time>
      </trkpt>
      <trkpt lat="43.48151" lon="-1.57242">
        <ele>3.9</ele>
        <time>2021-09-05T06:37:52Z</time>
      </trkpt>
      <trkpt lat="43.48151" lon="-1.57242">
        <ele>3.9</ele>
        <time>2021-09-05T06:37:53Z</time>
      </trkpt>
      <trkpt lat="43.48149" lon="-1.57242">
        <ele>3.9</ele>
        <time>2021-09-05T06:37:54Z</time>
      </trkpt>
      <trkpt lat="43.48149" lon="-1.57242">
        <ele>3.9</ele>
        <time>2021-09-05T06:37:55Z</time>
      </trkpt>
      <trkpt lat="43.48149" lon="-1.57242">
        <ele>3.9</ele>
        <time>2021-09-05T06:37:56Z</time>
      </trkpt>
      <trkpt lat="43.48147" lon="-1.57244">
        <ele>3.9</ele>
        <time>2021-09-05T06:37:57Z</time>
      </trkpt>
      <trkpt lat="43.48147" lon="-1.57244">
        <ele>3.9</ele>
        <time>2021-09-05T06:37:58Z</time>
      </trkpt>
      <trkpt lat="43.48147" lon="-1.57244">
        <ele>3.9</ele>
        <time>2021-09-05T06:37:59Z</time>
      </trkpt>
      <trkpt lat="43.48147" lon="-1.57244">
        <ele>3.9</ele>
        <time>2021-09-05T06:38:00Z</time>
      </trkpt>
      <trkpt lat="43.48147" lon="-1.57244">
        <ele>3.9</ele>
        <time>2021-09-05T06:38:01Z</time>
      </trkpt>
      <trkpt lat="43.48147" lon="-1.57244">
        <ele>3.9</ele>
        <time>2021-09-05T06:38:02Z</time>
      </trkpt>
      <trkpt lat="43.48144" lon="-1.57245">
        <ele>3.9</ele>
        <time>2021-09-05T06:38:03Z</time>
      </trkpt>
      <trkpt lat="43.48144" lon="-1.57245">
        <ele>3.9</ele>
        <time>2021-09-05T06:38:04Z</time>
      </trkpt>
      <trkpt lat="43.48143" lon="-1.57247">
        <ele>3.9</ele>
        <time>2021-09-05T06:38:05Z</time>
      </trkpt>
      <trkpt lat="43.48143" lon="-1.57247">
        <ele>3.9</ele>
        <time>2021-09-05T06:38:06Z</time>
      </trkpt>
      <trkpt lat="43.48141" lon="-1.57248">
        <ele>3.9</ele>
        <time>2021-09-05T06:38:07Z</time>
      </trkpt>
      <trkpt lat="43.48141" lon="-1.57248">
        <ele>3.9</ele>
        <time>2021-09-05T06:38:08Z</time>
      </trkpt>
      <trkpt lat="43.48138" lon="-1.5725">
        <ele>3.9</ele>
        <time>2021-09-05T06:38:09Z</time>
      </trkpt>
      <trkpt lat="43.48138" lon="-1.5725">
        <ele>3.9</ele>
        <time>2021-09-05T06:38:10Z</time>
      </trkpt>
      <trkpt lat="43.48137" lon="-1.57253">
        <ele>3.9</ele>
        <time>2021-09-05T06:38:11Z</time>
      </trkpt>
      <trkpt lat="43.48137" lon="-1.57253">
        <ele>3.9</ele>
        <time>2021-09-05T06:38:12Z</time>
      </trkpt>
      <trkpt lat="43.48137" lon="-1.57253">
        <ele>3.9</ele>
        <time>2021-09-05T06:38:13Z</time>
      </trkpt>
      <trkpt lat="43.48137" lon="-1.57253">
        <ele>3.9</ele>
        <time>2021-09-05T06:38:14Z</time>
      </trkpt>
      <trkpt lat="43.48135" lon="-1.57254">
        <ele>3.9</ele>
        <time>2021-09-05T06:38:15Z</time>
      </trkpt>
      <trkpt lat="43.48135" lon="-1.57254">
        <ele>3.9</ele>
        <time>2021-09-05T06:38:16Z</time>
      </trkpt>
      <trkpt lat="43.48135" lon="-1.57254">
        <ele>3.9</ele>
        <time>2021-09-05T06:38:17Z</time>
      </trkpt>
      <trkpt lat="43.48133" lon="-1.57255">
        <ele>3.9</ele>
        <time>2021-09-05T06:38:18Z</time>
      </trkpt>
      <trkpt lat="43.48133" lon="-1.57255">
        <ele>3.9</ele>
        <time>2021-09-05T06:38:19Z</time>
      </trkpt>
      <trkpt lat="43.48133" lon="-1.57255">
        <ele>3.9</ele>
        <time>2021-09-05T06:38:20Z</time>
      </trkpt>
      <trkpt lat="43.48133" lon="-1.57255">
        <ele>3.9</ele>
        <time>2021-09-05T06:38:21Z</time>
      </trkpt>
      <trkpt lat="43.48133" lon="-1.57255">
        <ele>3.9</ele>
        <time>2021-09-05T06:38:22Z</time>
      </trkpt>
      <trkpt lat="43.48133" lon="-1.57255">
        <ele>3.9</ele>
        <time>2021-09-05T06:38:23Z</time>
      </trkpt>
      <trkpt lat="43.48133" lon="-1.57255">
        <ele>3.9</ele>
        <time>2021-09-05T06:38:24Z</time>
      </trkpt>
      <trkpt lat="43.48133" lon="-1.57255">
        <ele>3.9</ele>
        <time>2021-09-05T06:38:25Z</time>
      </trkpt>
      <trkpt lat="43.48132" lon="-1.57256">
        <ele>3.9</ele>
        <time>2021-09-05T06:38:26Z</time>
      </trkpt>
      <trkpt lat="43.4813" lon="-1.57256">
        <ele>3.9</ele>
        <time>2021-09-05T06:38:27Z</time>
      </trkpt>
      <trkpt lat="43.48128" lon="-1.57257">
        <ele>3.9</ele>
        <time>2021-09-05T06:38:28Z</time>
      </trkpt>
      <trkpt lat="43.48127" lon="-1.57257">
        <ele>3.9</ele>
        <time>2021-09-05T06:38:29Z</time>
      </trkpt>
      <trkpt lat="43.48125" lon="-1.57258">
        <ele>3.9</ele>
        <time>2021-09-05T06:38:30Z</time>
      </trkpt>
      <trkpt lat="43.48123" lon="-1.57261">
        <ele>3.9</ele>
        <time>2021-09-05T06:38:31Z</time>
      </trkpt>
      <trkpt lat="43.48123" lon="-1.57261">
        <ele>3.9</ele>
        <time>2021-09-05T06:38:32Z</time>
      </trkpt>
      <trkpt lat="43.48121" lon="-1.57261">
        <ele>3.9</ele>
        <time>2021-09-05T06:38:33Z</time>
      </trkpt>
      <trkpt lat="43.48121" lon="-1.57261">
        <ele>3.9</ele>
        <time>2021-09-05T06:38:34Z</time>
      </trkpt>
      <trkpt lat="43.48118" lon="-1.57262">
        <ele>3.9</ele>
        <time>2021-09-05T06:38:35Z</time>
      </trkpt>
      <trkpt lat="43.48118" lon="-1.57262">
        <ele>3.9</ele>
        <time>2021-09-05T06:38:36Z</time>
      </trkpt>
      <trkpt lat="43.48118" lon="-1.57262">
        <ele>3.9</ele>
        <time>2021-09-05T06:38:37Z</time>
      </trkpt>
      <trkpt lat="43.48115" lon="-1.57265">
        <ele>3.9</ele>
        <time>2021-09-05T06:38:38Z</time>
      </trkpt>
      <trkpt lat="43.48115" lon="-1.57265">
        <ele>3.9</ele>
        <time>2021-09-05T06:38:39Z</time>
      </trkpt>
      <trkpt lat="43.48115" lon="-1.57265">
        <ele>3.9</ele>
        <time>2021-09-05T06:38:40Z</time>
      </trkpt>
      <trkpt lat="43.48114" lon="-1.57267">
        <ele>3.9</ele>
        <time>2021-09-05T06:38:41Z</time>
      </trkpt>
      <trkpt lat="43.48114" lon="-1.57267">
        <ele>3.9</ele>
        <time>2021-09-05T06:38:42Z</time>
      </trkpt>
      <trkpt lat="43.48114" lon="-1.57267">
        <ele>3.9</ele>
        <time>2021-09-05T06:38:43Z</time>
      </trkpt>
      <trkpt lat="43.48114" lon="-1.57267">
        <ele>3.9</ele>
        <time>2021-09-05T06:38:44Z</time>
      </trkpt>
      <trkpt lat="43.48112" lon="-1.57267">
        <ele>3.9</ele>
        <time>2021-09-05T06:38:45Z</time>
      </trkpt>
      <trkpt lat="43.48112" lon="-1.57267">
        <ele>3.9</ele>
        <time>2021-09-05T06:38:46Z</time>
      </trkpt>
      <trkpt lat="43.48112" lon="-1.57267">
        <ele>3.9</ele>
        <time>2021-09-05T06:38:47Z</time>
      </trkpt>
      <trkpt lat="43.48112" lon="-1.57267">
        <ele>3.9</ele>
        <time>2021-09-05T06:38:48Z</time>
      </trkpt>
      <trkpt lat="43.48112" lon="-1.57267">
        <ele>3.9</ele>
        <time>2021-09-05T06:38:49Z</time>
      </trkpt>
      <trkpt lat="43.48112" lon="-1.57267">
        <ele>3.9</ele>
        <time>2021-09-05T06:38:50Z</time>
      </trkpt>
      <trkpt lat="43.48112" lon="-1.57265">
        <ele>3.9</ele>
        <time>2021-09-05T06:38:51Z</time>
      </trkpt>
      <trkpt lat="43.48112" lon="-1.57263">
        <ele>3.9</ele>
        <time>2021-09-05T06:38:52Z</time>
      </trkpt>
      <trkpt lat="43.48111" lon="-1.57261">
        <ele>3.9</ele>
        <time>2021-09-05T06:38:53Z</time>
      </trkpt>
      <trkpt lat="43.48111" lon="-1.57259">
        <ele>3.9</ele>
        <time>2021-09-05T06:38:54Z</time>
      </trkpt>
      <trkpt lat="43.48111" lon="-1.57257">
        <ele>3.9</ele>
        <time>2021-09-05T06:38:55Z</time>
      </trkpt>
      <trkpt lat="43.48111" lon="-1.57255">
        <ele>3.9</ele>
        <time>2021-09-05T06:38:56Z</time>
      </trkpt>
      <trkpt lat="43.48111" lon="-1.57252">
        <ele>3.9</ele>
        <time>2021-09-05T06:38:57Z</time>
      </trkpt>
      <trkpt lat="43.48111" lon="-1.5725">
        <ele>3.9</ele>
        <time>2021-09-05T06:38:58Z</time>
      </trkpt>
      <trkpt lat="43.48111" lon="-1.57249">
        <ele>3.9</ele>
        <time>2021-09-05T06:38:59Z</time>
      </trkpt>
      <trkpt lat="43.4811" lon="-1.57246">
        <ele>3.9</ele>
        <time>2021-09-05T06:39:00Z</time>
      </trkpt>
      <trkpt lat="43.4811" lon="-1.57246">
        <ele>3.9</ele>
        <time>2021-09-05T06:39:01Z</time>
      </trkpt>
      <trkpt lat="43.4811" lon="-1.57243">
        <ele>3.9</ele>
        <time>2021-09-05T06:39:02Z</time>
      </trkpt>
      <trkpt lat="43.4811" lon="-1.57243">
        <ele>3.9</ele>
        <time>2021-09-05T06:39:03Z</time>
      </trkpt>
      <trkpt lat="43.48108" lon="-1.57239">
        <ele>3.9</ele>
        <time>2021-09-05T06:39:04Z</time>
      </trkpt>
      <trkpt lat="43.48108" lon="-1.57239">
        <ele>3.9</ele>
        <time>2021-09-05T06:39:05Z</time>
      </trkpt>
      <trkpt lat="43.48106" lon="-1.57236">
        <ele>3.9</ele>
        <time>2021-09-05T06:39:06Z</time>
      </trkpt>
      <trkpt lat="43.48106" lon="-1.57236">
        <ele>3.9</ele>
        <time>2021-09-05T06:39:07Z</time>
      </trkpt>
      <trkpt lat="43.48105" lon="-1.57233">
        <ele>3.9</ele>
        <time>2021-09-05T06:39:08Z</time>
      </trkpt>
      <trkpt lat="43.48105" lon="-1.57233">
        <ele>3.9</ele>
        <time>2021-09-05T06:39:09Z</time>
      </trkpt>
      <trkpt lat="43.48105" lon="-1.57233">
        <ele>3.9</ele>
        <time>2021-09-05T06:39:10Z</time>
      </trkpt>
      <trkpt lat="43.48106" lon="-1.5723">
        <ele>3.9</ele>
        <time>2021-09-05T06:39:11Z</time>
      </trkpt>
      <trkpt lat="43.48109" lon="-1.57228">
        <ele>3.9</ele>
        <time>2021-09-05T06:39:12Z</time>
      </trkpt>
      <trkpt lat="43.48109" lon="-1.57228">
        <ele>3.9</ele>
        <time>2021-09-05T06:39:13Z</time>
      </trkpt>
      <trkpt lat="43.48109" lon="-1.57228">
        <ele>3.9</ele>
        <time>2021-09-05T06:39:14Z</time>
      </trkpt>
      <trkpt lat="43.48108" lon="-1.57226">
        <ele>3.9</ele>
        <time>2021-09-05T06:39:15Z</time>
      </trkpt>
      <trkpt lat="43.48108" lon="-1.57226">
        <ele>3.9</ele>
        <time>2021-09-05T06:39:16Z</time>
      </trkpt>
      <trkpt lat="43.48108" lon="-1.57222">
        <ele>3.9</ele>
        <time>2021-09-05T06:39:17Z</time>
      </trkpt>
      <trkpt lat="43.48108" lon="-1.57222">
        <ele>3.9</ele>
        <time>2021-09-05T06:39:18Z</time>
      </trkpt>
      <trkpt lat="43.48106" lon="-1.57219">
        <ele>3.9</ele>
        <time>2021-09-05T06:39:19Z</time>
      </trkpt>
      <trkpt lat="43.48106" lon="-1.57219">
        <ele>3.9</ele>
        <time>2021-09-05T06:39:20Z</time>
      </trkpt>
      <trkpt lat="43.48105" lon="-1.57216">
        <ele>3.9</ele>
        <time>2021-09-05T06:39:21Z</time>
      </trkpt>
      <trkpt lat="43.48105" lon="-1.57216">
        <ele>3.9</ele>
        <time>2021-09-05T06:39:22Z</time>
      </trkpt>
      <trkpt lat="43.48104" lon="-1.57213">
        <ele>3.9</ele>
        <time>2021-09-05T06:39:23Z</time>
      </trkpt>
      <trkpt lat="43.48104" lon="-1.57213">
        <ele>3.9</ele>
        <time>2021-09-05T06:39:24Z</time>
      </trkpt>
      <trkpt lat="43.48103" lon="-1.5721">
        <ele>3.9</ele>
        <time>2021-09-05T06:39:25Z</time>
      </trkpt>
      <trkpt lat="43.48103" lon="-1.5721">
        <ele>3.9</ele>
        <time>2021-09-05T06:39:26Z</time>
      </trkpt>
      <trkpt lat="43.48103" lon="-1.5721">
        <ele>3.9</ele>
        <time>2021-09-05T06:39:27Z</time>
      </trkpt>
      <trkpt lat="43.48102" lon="-1.57208">
        <ele>3.9</ele>
        <time>2021-09-05T06:39:28Z</time>
      </trkpt>
      <trkpt lat="43.48102" lon="-1.57208">
        <ele>3.9</ele>
        <time>2021-09-05T06:39:29Z</time>
      </trkpt>
      <trkpt lat="43.48102" lon="-1.57208">
        <ele>3.9</ele>
        <time>2021-09-05T06:39:30Z</time>
      </trkpt>
      <trkpt lat="43.48102" lon="-1.57208">
        <ele>3.9</ele>
        <time>2021-09-05T06:39:31Z</time>
      </trkpt>
      <trkpt lat="43.48102" lon="-1.57208">
        <ele>3.9</ele>
        <time>2021-09-05T06:39:32Z</time>
      </trkpt>
      <trkpt lat="43.48102" lon="-1.57208">
        <ele>3.9</ele>
        <time>2021-09-05T06:39:33Z</time>
      </trkpt>
      <trkpt lat="43.48103" lon="-1.57205">
        <ele>3.9</ele>
        <time>2021-09-05T06:39:34Z</time>
      </trkpt>
      <trkpt lat="43.48103" lon="-1.57205">
        <ele>3.9</ele>
        <time>2021-09-05T06:39:35Z</time>
      </trkpt>
      <trkpt lat="43.48103" lon="-1.57202">
        <ele>3.9</ele>
        <time>2021-09-05T06:39:36Z</time>
      </trkpt>
      <trkpt lat="43.48103" lon="-1.57202">
        <ele>3.9</ele>
        <time>2021-09-05T06:39:37Z</time>
      </trkpt>
      <trkpt lat="43.48103" lon="-1.57202">
        <ele>3.9</ele>
        <time>2021-09-05T06:39:38Z</time>
      </trkpt>
      <trkpt lat="43.48103" lon="-1.57199">
        <ele>3.9</ele>
        <time>2021-09-05T06:39:39Z</time>
      </trkpt>
      <trkpt lat="43.48103" lon="-1.57199">
        <ele>3.9</ele>
        <time>2021-09-05T06:39:40Z</time>
      </trkpt>
      <trkpt lat="43.48103" lon="-1.57199">
        <ele>3.9</ele>
        <time>2021-09-05T06:39:41Z</time>
      </trkpt>
      <trkpt lat="43.48104" lon="-1.57196">
        <ele>3.9</ele>
        <time>2021-09-05T06:39:42Z</time>
      </trkpt>
      <trkpt lat="43.48104" lon="-1.57196">
        <ele>3.9</ele>
        <time>2021-09-05T06:39:43Z</time>
      </trkpt>
      <trkpt lat="43.48105" lon="-1.57192">
        <ele>3.9</ele>
        <time>2021-09-05T06:39:44Z</time>
      </trkpt>
      <trkpt lat="43.48105" lon="-1.57192">
        <ele>3.9</ele>
        <time>2021-09-05T06:39:45Z</time>
      </trkpt>
      <trkpt lat="43.48104" lon="-1.57188">
        <ele>3.9</ele>
        <time>2021-09-05T06:39:46Z</time>
      </trkpt>
      <trkpt lat="43.48104" lon="-1.57185">
        <ele>3.9</ele>
        <time>2021-09-05T06:39:47Z</time>
      </trkpt>
      <trkpt lat="43.48104" lon="-1.57185">
        <ele>3.9</ele>
        <time>2021-09-05T06:39:48Z</time>
      </trkpt>
      <trkpt lat="43.48104" lon="-1.57181">
        <ele>3.9</ele>
        <time>2021-09-05T06:39:49Z</time>
      </trkpt>
      <trkpt lat="43.48104" lon="-1.57181">
        <ele>3.9</ele>
        <time>2021-09-05T06:39:50Z</time>
      </trkpt>
      <trkpt lat="43.48104" lon="-1.57181">
        <ele>3.9</ele>
        <time>2021-09-05T06:39:51Z</time>
      </trkpt>
      <trkpt lat="43.48104" lon="-1.57181">
        <ele>3.9</ele>
        <time>2021-09-05T06:39:52Z</time>
      </trkpt>
      <trkpt lat="43.48104" lon="-1.57181">
        <ele>3.9</ele>
        <time>2021-09-05T06:39:53Z</time>
      </trkpt>
      <trkpt lat="43.48104" lon="-1.57181">
        <ele>3.9</ele>
        <time>2021-09-05T06:39:54Z</time>
      </trkpt>
      <trkpt lat="43.48104" lon="-1.57181">
        <ele>3.9</ele>
        <time>2021-09-05T06:39:55Z</time>
      </trkpt>
      <trkpt lat="43.48106" lon="-1.57177">
        <ele>3.9</ele>
        <time>2021-09-05T06:39:56Z</time>
      </trkpt>
      <trkpt lat="43.48106" lon="-1.57177">
        <ele>3.9</ele>
        <time>2021-09-05T06:39:57Z</time>
      </trkpt>
      <trkpt lat="43.48106" lon="-1.57177">
        <ele>3.9</ele>
        <time>2021-09-05T06:39:58Z</time>
      </trkpt>
      <trkpt lat="43.48108" lon="-1.57175">
        <ele>3.9</ele>
        <time>2021-09-05T06:39:59Z</time>
      </trkpt>
      <trkpt lat="43.48108" lon="-1.57172">
        <ele>3.9</ele>
        <time>2021-09-05T06:40:01Z</time>
      </trkpt>
      <trkpt lat="43.48108" lon="-1.57172">
        <ele>3.9</ele>
        <time>2021-09-05T06:40:02Z</time>
      </trkpt>
      <trkpt lat="43.48109" lon="-1.57169">
        <ele>3.9</ele>
        <time>2021-09-05T06:40:03Z</time>
      </trkpt>
      <trkpt lat="43.48109" lon="-1.57169">
        <ele>3.9</ele>
        <time>2021-09-05T06:40:04Z</time>
      </trkpt>
      <trkpt lat="43.48108" lon="-1.57165">
        <ele>3.9</ele>
        <time>2021-09-05T06:40:05Z</time>
      </trkpt>
      <trkpt lat="43.48108" lon="-1.57165">
        <ele>3.9</ele>
        <time>2021-09-05T06:40:06Z</time>
      </trkpt>
      <trkpt lat="43.48108" lon="-1.57165">
        <ele>3.9</ele>
        <time>2021-09-05T06:40:07Z</time>
      </trkpt>
      <trkpt lat="43.48108" lon="-1.57162">
        <ele>3.9</ele>
        <time>2021-09-05T06:40:08Z</time>
      </trkpt>
      <trkpt lat="43.48108" lon="-1.57162">
        <ele>3.9</ele>
        <time>2021-09-05T06:40:09Z</time>
      </trkpt>
      <trkpt lat="43.48108" lon="-1.57159">
        <ele>3.9</ele>
        <time>2021-09-05T06:40:10Z</time>
      </trkpt>
      <trkpt lat="43.48108" lon="-1.57159">
        <ele>3.9</ele>
        <time>2021-09-05T06:40:11Z</time>
      </trkpt>
      <trkpt lat="43.48108" lon="-1.57159">
        <ele>3.9</ele>
        <time>2021-09-05T06:40:12Z</time>
      </trkpt>
      <trkpt lat="43.48108" lon="-1.57155">
        <ele>3.9</ele>
        <time>2021-09-05T06:40:13Z</time>
      </trkpt>
      <trkpt lat="43.48108" lon="-1.57155">
        <ele>3.9</ele>
        <time>2021-09-05T06:40:14Z</time>
      </trkpt>
      <trkpt lat="43.48107" lon="-1.57152">
        <ele>3.9</ele>
        <time>2021-09-05T06:40:16Z</time>
      </trkpt>
      <trkpt lat="43.48107" lon="-1.57152">
        <ele>3.9</ele>
        <time>2021-09-05T06:40:17Z</time>
      </trkpt>
      <trkpt lat="43.48107" lon="-1.57152">
        <ele>3.9</ele>
        <time>2021-09-05T06:40:18Z</time>
      </trkpt>
      <trkpt lat="43.48107" lon="-1.57152">
        <ele>3.9</ele>
        <time>2021-09-05T06:40:19Z</time>
      </trkpt>
      <trkpt lat="43.48107" lon="-1.57149">
        <ele>3.9</ele>
        <time>2021-09-05T06:40:20Z</time>
      </trkpt>
      <trkpt lat="43.48107" lon="-1.57149">
        <ele>3.9</ele>
        <time>2021-09-05T06:40:21Z</time>
      </trkpt>
      <trkpt lat="43.48106" lon="-1.57144">
        <ele>3.9</ele>
        <time>2021-09-05T06:40:22Z</time>
      </trkpt>
      <trkpt lat="43.48106" lon="-1.57144">
        <ele>3.9</ele>
        <time>2021-09-05T06:40:23Z</time>
      </trkpt>
      <trkpt lat="43.48106" lon="-1.57141">
        <ele>3.9</ele>
        <time>2021-09-05T06:40:24Z</time>
      </trkpt>
      <trkpt lat="43.48106" lon="-1.57141">
        <ele>3.9</ele>
        <time>2021-09-05T06:40:25Z</time>
      </trkpt>
      <trkpt lat="43.48107" lon="-1.57139">
        <ele>3.9</ele>
        <time>2021-09-05T06:40:26Z</time>
      </trkpt>
      <trkpt lat="43.48107" lon="-1.57139">
        <ele>3.9</ele>
        <time>2021-09-05T06:40:27Z</time>
      </trkpt>
      <trkpt lat="43.48108" lon="-1.57134">
        <ele>3.9</ele>
        <time>2021-09-05T06:40:28Z</time>
      </trkpt>
      <trkpt lat="43.48108" lon="-1.57134">
        <ele>3.9</ele>
        <time>2021-09-05T06:40:29Z</time>
      </trkpt>
      <trkpt lat="43.48109" lon="-1.57131">
        <ele>3.9</ele>
        <time>2021-09-05T06:40:30Z</time>
      </trkpt>
      <trkpt lat="43.48109" lon="-1.57131">
        <ele>3.9</ele>
        <time>2021-09-05T06:40:31Z</time>
      </trkpt>
      <trkpt lat="43.48109" lon="-1.57129">
        <ele>3.9</ele>
        <time>2021-09-05T06:40:32Z</time>
      </trkpt>
      <trkpt lat="43.48109" lon="-1.57129">
        <ele>3.9</ele>
        <time>2021-09-05T06:40:33Z</time>
      </trkpt>
      <trkpt lat="43.48109" lon="-1.57129">
        <ele>3.9</ele>
        <time>2021-09-05T06:40:34Z</time>
      </trkpt>
      <trkpt lat="43.48109" lon="-1.57129">
        <ele>3.9</ele>
        <time>2021-09-05T06:40:35Z</time>
      </trkpt>
      <trkpt lat="43.4811" lon="-1.57126">
        <ele>3.9</ele>
        <time>2021-09-05T06:40:36Z</time>
      </trkpt>
      <trkpt lat="43.4811" lon="-1.57126">
        <ele>3.9</ele>
        <time>2021-09-05T06:40:37Z</time>
      </trkpt>
      <trkpt lat="43.4811" lon="-1.57123">
        <ele>3.9</ele>
        <time>2021-09-05T06:40:38Z</time>
      </trkpt>
      <trkpt lat="43.4811" lon="-1.57123">
        <ele>3.9</ele>
        <time>2021-09-05T06:40:39Z</time>
      </trkpt>
      <trkpt lat="43.4811" lon="-1.57123">
        <ele>3.9</ele>
        <time>2021-09-05T06:40:40Z</time>
      </trkpt>
      <trkpt lat="43.4811" lon="-1.57119">
        <ele>3.9</ele>
        <time>2021-09-05T06:40:41Z</time>
      </trkpt>
      <trkpt lat="43.4811" lon="-1.57119">
        <ele>3.9</ele>
        <time>2021-09-05T06:40:42Z</time>
      </trkpt>
      <trkpt lat="43.4811" lon="-1.57119">
        <ele>3.9</ele>
        <time>2021-09-05T06:40:43Z</time>
      </trkpt>
      <trkpt lat="43.4811" lon="-1.57119">
        <ele>3.9</ele>
        <time>2021-09-05T06:40:44Z</time>
      </trkpt>
      <trkpt lat="43.4811" lon="-1.57119">
        <ele>3.9</ele>
        <time>2021-09-05T06:40:45Z</time>
      </trkpt>
      <trkpt lat="43.4811" lon="-1.57119">
        <ele>3.9</ele>
        <time>2021-09-05T06:40:46Z</time>
      </trkpt>
      <trkpt lat="43.4811" lon="-1.57119">
        <ele>3.9</ele>
        <time>2021-09-05T06:40:47Z</time>
      </trkpt>
      <trkpt lat="43.4811" lon="-1.57113">
        <ele>3.9</ele>
        <time>2021-09-05T06:40:48Z</time>
      </trkpt>
      <trkpt lat="43.4811" lon="-1.57113">
        <ele>3.9</ele>
        <time>2021-09-05T06:40:49Z</time>
      </trkpt>
      <trkpt lat="43.4811" lon="-1.57111">
        <ele>3.9</ele>
        <time>2021-09-05T06:40:50Z</time>
      </trkpt>
      <trkpt lat="43.4811" lon="-1.57111">
        <ele>3.9</ele>
        <time>2021-09-05T06:40:51Z</time>
      </trkpt>
      <trkpt lat="43.48111" lon="-1.57109">
        <ele>3.9</ele>
        <time>2021-09-05T06:40:52Z</time>
      </trkpt>
      <trkpt lat="43.48111" lon="-1.57109">
        <ele>3.9</ele>
        <time>2021-09-05T06:40:53Z</time>
      </trkpt>
      <trkpt lat="43.48111" lon="-1.57109">
        <ele>3.9</ele>
        <time>2021-09-05T06:40:54Z</time>
      </trkpt>
      <trkpt lat="43.48109" lon="-1.57107">
        <ele>3.9</ele>
        <time>2021-09-05T06:40:55Z</time>
      </trkpt>
      <trkpt lat="43.48109" lon="-1.57107">
        <ele>3.9</ele>
        <time>2021-09-05T06:40:56Z</time>
      </trkpt>
      <trkpt lat="43.48109" lon="-1.57107">
        <ele>3.9</ele>
        <time>2021-09-05T06:40:57Z</time>
      </trkpt>
      <trkpt lat="43.48109" lon="-1.57107">
        <ele>3.9</ele>
        <time>2021-09-05T06:40:58Z</time>
      </trkpt>
      <trkpt lat="43.48109" lon="-1.57107">
        <ele>3.9</ele>
        <time>2021-09-05T06:40:59Z</time>
      </trkpt>
      <trkpt lat="43.48111" lon="-1.57105">
        <ele>3.9</ele>
        <time>2021-09-05T06:41:00Z</time>
      </trkpt>
      <trkpt lat="43.48111" lon="-1.57105">
        <ele>3.9</ele>
        <time>2021-09-05T06:41:01Z</time>
      </trkpt>
      <trkpt lat="43.48111" lon="-1.57105">
        <ele>3.9</ele>
        <time>2021-09-05T06:41:02Z</time>
      </trkpt>
      <trkpt lat="43.48111" lon="-1.57105">
        <ele>3.9</ele>
        <time>2021-09-05T06:41:03Z</time>
      </trkpt>
      <trkpt lat="43.48113" lon="-1.57103">
        <ele>3.9</ele>
        <time>2021-09-05T06:41:04Z</time>
      </trkpt>
      <trkpt lat="43.48113" lon="-1.57103">
        <ele>3.9</ele>
        <time>2021-09-05T06:41:05Z</time>
      </trkpt>
      <trkpt lat="43.48113" lon="-1.57103">
        <ele>3.9</ele>
        <time>2021-09-05T06:41:06Z</time>
      </trkpt>
      <trkpt lat="43.48114" lon="-1.57101">
        <ele>3.9</ele>
        <time>2021-09-05T06:41:07Z</time>
      </trkpt>
      <trkpt lat="43.48113" lon="-1.57098">
        <ele>3.9</ele>
        <time>2021-09-05T06:41:08Z</time>
      </trkpt>
      <trkpt lat="43.48111" lon="-1.57096">
        <ele>3.9</ele>
        <time>2021-09-05T06:41:09Z</time>
      </trkpt>
      <trkpt lat="43.48111" lon="-1.57096">
        <ele>3.9</ele>
        <time>2021-09-05T06:41:10Z</time>
      </trkpt>
      <trkpt lat="43.48109" lon="-1.57093">
        <ele>3.9</ele>
        <time>2021-09-05T06:41:11Z</time>
      </trkpt>
      <trkpt lat="43.48109" lon="-1.57093">
        <ele>3.9</ele>
        <time>2021-09-05T06:41:12Z</time>
      </trkpt>
      <trkpt lat="43.48109" lon="-1.57089">
        <ele>3.9</ele>
        <time>2021-09-05T06:41:13Z</time>
      </trkpt>
      <trkpt lat="43.48109" lon="-1.57089">
        <ele>3.9</ele>
        <time>2021-09-05T06:41:14Z</time>
      </trkpt>
      <trkpt lat="43.48112" lon="-1.57088">
        <ele>3.9</ele>
        <time>2021-09-05T06:41:15Z</time>
      </trkpt>
      <trkpt lat="43.48112" lon="-1.57088">
        <ele>3.9</ele>
        <time>2021-09-05T06:41:16Z</time>
      </trkpt>
      <trkpt lat="43.48114" lon="-1.57088">
        <ele>3.9</ele>
        <time>2021-09-05T06:41:17Z</time>
      </trkpt>
      <trkpt lat="43.48114" lon="-1.57088">
        <ele>3.9</ele>
        <time>2021-09-05T06:41:18Z</time>
      </trkpt>
      <trkpt lat="43.48117" lon="-1.57087">
        <ele>3.9</ele>
        <time>2021-09-05T06:41:19Z</time>
      </trkpt>
      <trkpt lat="43.48117" lon="-1.57087">
        <ele>3.9</ele>
        <time>2021-09-05T06:41:20Z</time>
      </trkpt>
      <trkpt lat="43.4812" lon="-1.57086">
        <ele>3.9</ele>
        <time>2021-09-05T06:41:21Z</time>
      </trkpt>
      <trkpt lat="43.4812" lon="-1.57086">
        <ele>3.9</ele>
        <time>2021-09-05T06:41:22Z</time>
      </trkpt>
      <trkpt lat="43.48123" lon="-1.57085">
        <ele>3.9</ele>
        <time>2021-09-05T06:41:23Z</time>
      </trkpt>
      <trkpt lat="43.48123" lon="-1.57085">
        <ele>3.9</ele>
        <time>2021-09-05T06:41:24Z</time>
      </trkpt>
      <trkpt lat="43.48122" lon="-1.57082">
        <ele>3.9</ele>
        <time>2021-09-05T06:41:25Z</time>
      </trkpt>
      <trkpt lat="43.48122" lon="-1.57082">
        <ele>3.9</ele>
        <time>2021-09-05T06:41:26Z</time>
      </trkpt>
      <trkpt lat="43.48122" lon="-1.57082">
        <ele>3.9</ele>
        <time>2021-09-05T06:41:27Z</time>
      </trkpt>
      <trkpt lat="43.48121" lon="-1.57079">
        <ele>3.9</ele>
        <time>2021-09-05T06:41:28Z</time>
      </trkpt>
      <trkpt lat="43.48121" lon="-1.57079">
        <ele>3.9</ele>
        <time>2021-09-05T06:41:29Z</time>
      </trkpt>
      <trkpt lat="43.48121" lon="-1.57079">
        <ele>3.9</ele>
        <time>2021-09-05T06:41:30Z</time>
      </trkpt>
      <trkpt lat="43.48121" lon="-1.57079">
        <ele>3.9</ele>
        <time>2021-09-05T06:41:31Z</time>
      </trkpt>
      <trkpt lat="43.48121" lon="-1.57079">
        <ele>3.9</ele>
        <time>2021-09-05T06:41:32Z</time>
      </trkpt>
      <trkpt lat="43.4812" lon="-1.57073">
        <ele>3.9</ele>
        <time>2021-09-05T06:41:33Z</time>
      </trkpt>
      <trkpt lat="43.4812" lon="-1.57073">
        <ele>3.9</ele>
        <time>2021-09-05T06:41:34Z</time>
      </trkpt>
      <trkpt lat="43.4812" lon="-1.57073">
        <ele>3.9</ele>
        <time>2021-09-05T06:41:35Z</time>
      </trkpt>
      <trkpt lat="43.48121" lon="-1.57068">
        <ele>3.9</ele>
        <time>2021-09-05T06:41:36Z</time>
      </trkpt>
      <trkpt lat="43.48121" lon="-1.57068">
        <ele>3.9</ele>
        <time>2021-09-05T06:41:37Z</time>
      </trkpt>
      <trkpt lat="43.48119" lon="-1.57068">
        <ele>3.9</ele>
        <time>2021-09-05T06:41:38Z</time>
      </trkpt>
      <trkpt lat="43.48119" lon="-1.57068">
        <ele>3.9</ele>
        <time>2021-09-05T06:41:39Z</time>
      </trkpt>
      <trkpt lat="43.48118" lon="-1.57065">
        <ele>3.9</ele>
        <time>2021-09-05T06:41:40Z</time>
      </trkpt>
      <trkpt lat="43.48118" lon="-1.57065">
        <ele>3.9</ele>
        <time>2021-09-05T06:41:41Z</time>
      </trkpt>
      <trkpt lat="43.48119" lon="-1.57063">
        <ele>3.9</ele>
        <time>2021-09-05T06:41:42Z</time>
      </trkpt>
      <trkpt lat="43.48119" lon="-1.57063">
        <ele>3.9</ele>
        <time>2021-09-05T06:41:43Z</time>
      </trkpt>
      <trkpt lat="43.48118" lon="-1.5706">
        <ele>3.9</ele>
        <time>2021-09-05T06:41:44Z</time>
      </trkpt>
      <trkpt lat="43.48118" lon="-1.5706">
        <ele>3.9</ele>
        <time>2021-09-05T06:41:45Z</time>
      </trkpt>
      <trkpt lat="43.48118" lon="-1.5706">
        <ele>3.9</ele>
        <time>2021-09-05T06:41:46Z</time>
      </trkpt>
      <trkpt lat="43.48121" lon="-1.57058">
        <ele>3.9</ele>
        <time>2021-09-05T06:41:47Z</time>
      </trkpt>
      <trkpt lat="43.48121" lon="-1.57058">
        <ele>3.9</ele>
        <time>2021-09-05T06:41:48Z</time>
      </trkpt>
      <trkpt lat="43.48114" lon="-1.57054">
        <ele>3.9</ele>
        <time>2021-09-05T06:41:49Z</time>
      </trkpt>
      <trkpt lat="43.48113" lon="-1.57054">
        <ele>3.9</ele>
        <time>2021-09-05T06:41:50Z</time>
      </trkpt>
      <trkpt lat="43.48113" lon="-1.57054">
        <ele>3.9</ele>
        <time>2021-09-05T06:41:51Z</time>
      </trkpt>
      <trkpt lat="43.48113" lon="-1.57054">
        <ele>3.9</ele>
        <time>2021-09-05T06:41:52Z</time>
      </trkpt>
      <trkpt lat="43.48113" lon="-1.57054">
        <ele>3.9</ele>
        <time>2021-09-05T06:41:53Z</time>
      </trkpt>
      <trkpt lat="43.48111" lon="-1.57047">
        <ele>3.9</ele>
        <time>2021-09-05T06:41:54Z</time>
      </trkpt>
      <trkpt lat="43.48111" lon="-1.57047">
        <ele>3.9</ele>
        <time>2021-09-05T06:41:55Z</time>
      </trkpt>
      <trkpt lat="43.48113" lon="-1.57044">
        <ele>3.9</ele>
        <time>2021-09-05T06:41:56Z</time>
      </trkpt>
      <trkpt lat="43.48111" lon="-1.57042">
        <ele>3.9</ele>
        <time>2021-09-05T06:41:57Z</time>
      </trkpt>
      <trkpt lat="43.48111" lon="-1.57042">
        <ele>3.9</ele>
        <time>2021-09-05T06:41:58Z</time>
      </trkpt>
      <trkpt lat="43.48111" lon="-1.57042">
        <ele>3.9</ele>
        <time>2021-09-05T06:41:59Z</time>
      </trkpt>
      <trkpt lat="43.48111" lon="-1.57042">
        <ele>3.9</ele>
        <time>2021-09-05T06:42:00Z</time>
      </trkpt>
      <trkpt lat="43.48111" lon="-1.57042">
        <ele>3.9</ele>
        <time>2021-09-05T06:42:01Z</time>
      </trkpt>
      <trkpt lat="43.48111" lon="-1.57042">
        <ele>3.9</ele>
        <time>2021-09-05T06:42:02Z</time>
      </trkpt>
      <trkpt lat="43.48113" lon="-1.57039">
        <ele>3.9</ele>
        <time>2021-09-05T06:42:03Z</time>
      </trkpt>
      <trkpt lat="43.48115" lon="-1.57036">
        <ele>3.9</ele>
        <time>2021-09-05T06:42:04Z</time>
      </trkpt>
      <trkpt lat="43.48117" lon="-1.57033">
        <ele>3.9</ele>
        <time>2021-09-05T06:42:05Z</time>
      </trkpt>
      <trkpt lat="43.4812" lon="-1.57032">
        <ele>3.9</ele>
        <time>2021-09-05T06:42:06Z</time>
      </trkpt>
      <trkpt lat="43.48121" lon="-1.5703">
        <ele>3.9</ele>
        <time>2021-09-05T06:42:07Z</time>
      </trkpt>
      <trkpt lat="43.48121" lon="-1.5703">
        <ele>3.9</ele>
        <time>2021-09-05T06:42:08Z</time>
      </trkpt>
      <trkpt lat="43.48121" lon="-1.5703">
        <ele>3.9</ele>
        <time>2021-09-05T06:42:09Z</time>
      </trkpt>
      <trkpt lat="43.48121" lon="-1.5703">
        <ele>3.9</ele>
        <time>2021-09-05T06:42:10Z</time>
      </trkpt>
      <trkpt lat="43.48121" lon="-1.5703">
        <ele>3.9</ele>
        <time>2021-09-05T06:42:11Z</time>
      </trkpt>
      <trkpt lat="43.48121" lon="-1.5703">
        <ele>3.9</ele>
        <time>2021-09-05T06:42:12Z</time>
      </trkpt>
      <trkpt lat="43.48121" lon="-1.5703">
        <ele>3.9</ele>
        <time>2021-09-05T06:42:13Z</time>
      </trkpt>
      <trkpt lat="43.48124" lon="-1.57026">
        <ele>3.9</ele>
        <time>2021-09-05T06:42:14Z</time>
      </trkpt>
      <trkpt lat="43.48124" lon="-1.57026">
        <ele>3.9</ele>
        <time>2021-09-05T06:42:15Z</time>
      </trkpt>
      <trkpt lat="43.48124" lon="-1.57026">
        <ele>3.9</ele>
        <time>2021-09-05T06:42:16Z</time>
      </trkpt>
      <trkpt lat="43.48124" lon="-1.57026">
        <ele>3.9</ele>
        <time>2021-09-05T06:42:17Z</time>
      </trkpt>
      <trkpt lat="43.48122" lon="-1.57024">
        <ele>3.9</ele>
        <time>2021-09-05T06:42:18Z</time>
      </trkpt>
      <trkpt lat="43.48122" lon="-1.57024">
        <ele>3.9</ele>
        <time>2021-09-05T06:42:19Z</time>
      </trkpt>
      <trkpt lat="43.48122" lon="-1.57024">
        <ele>3.9</ele>
        <time>2021-09-05T06:42:20Z</time>
      </trkpt>
      <trkpt lat="43.48122" lon="-1.57024">
        <ele>3.9</ele>
        <time>2021-09-05T06:42:21Z</time>
      </trkpt>
      <trkpt lat="43.48122" lon="-1.57024">
        <ele>3.9</ele>
        <time>2021-09-05T06:42:22Z</time>
      </trkpt>
      <trkpt lat="43.48122" lon="-1.57024">
        <ele>3.9</ele>
        <time>2021-09-05T06:42:23Z</time>
      </trkpt>
      <trkpt lat="43.48122" lon="-1.57024">
        <ele>3.9</ele>
        <time>2021-09-05T06:42:24Z</time>
      </trkpt>
      <trkpt lat="43.48122" lon="-1.57024">
        <ele>3.9</ele>
        <time>2021-09-05T06:42:25Z</time>
      </trkpt>
      <trkpt lat="43.4812" lon="-1.57022">
        <ele>3.9</ele>
        <time>2021-09-05T06:42:26Z</time>
      </trkpt>
      <trkpt lat="43.4812" lon="-1.57022">
        <ele>3.9</ele>
        <time>2021-09-05T06:42:27Z</time>
      </trkpt>
      <trkpt lat="43.48116" lon="-1.57021">
        <ele>3.9</ele>
        <time>2021-09-05T06:42:28Z</time>
      </trkpt>
      <trkpt lat="43.48116" lon="-1.57021">
        <ele>3.9</ele>
        <time>2021-09-05T06:42:29Z</time>
      </trkpt>
      <trkpt lat="43.48114" lon="-1.57018">
        <ele>3.9</ele>
        <time>2021-09-05T06:42:30Z</time>
      </trkpt>
      <trkpt lat="43.48112" lon="-1.57017">
        <ele>3.9</ele>
        <time>2021-09-05T06:42:31Z</time>
      </trkpt>
      <trkpt lat="43.48112" lon="-1.57017">
        <ele>3.9</ele>
        <time>2021-09-05T06:42:32Z</time>
      </trkpt>
      <trkpt lat="43.4811" lon="-1.57017">
        <ele>3.9</ele>
        <time>2021-09-05T06:42:33Z</time>
      </trkpt>
      <trkpt lat="43.4811" lon="-1.57017">
        <ele>3.9</ele>
        <time>2021-09-05T06:42:34Z</time>
      </trkpt>
      <trkpt lat="43.48107" lon="-1.57017">
        <ele>3.9</ele>
        <time>2021-09-05T06:42:35Z</time>
      </trkpt>
      <trkpt lat="43.4811" lon="-1.57015">
        <ele>3.9</ele>
        <time>2021-09-05T06:42:36Z</time>
      </trkpt>
      <trkpt lat="43.4811" lon="-1.57015">
        <ele>3.9</ele>
        <time>2021-09-05T06:42:37Z</time>
      </trkpt>
      <trkpt lat="43.48111" lon="-1.57012">
        <ele>3.9</ele>
        <time>2021-09-05T06:42:38Z</time>
      </trkpt>
      <trkpt lat="43.48111" lon="-1.57012">
        <ele>3.9</ele>
        <time>2021-09-05T06:42:39Z</time>
      </trkpt>
      <trkpt lat="43.4811" lon="-1.57009">
        <ele>3.9</ele>
        <time>2021-09-05T06:42:40Z</time>
      </trkpt>
      <trkpt lat="43.4811" lon="-1.57009">
        <ele>3.9</ele>
        <time>2021-09-05T06:42:41Z</time>
      </trkpt>
      <trkpt lat="43.4811" lon="-1.57009">
        <ele>3.9</ele>
        <time>2021-09-05T06:42:42Z</time>
      </trkpt>
      <trkpt lat="43.4811" lon="-1.57009">
        <ele>3.9</ele>
        <time>2021-09-05T06:42:43Z</time>
      </trkpt>
      <trkpt lat="43.4811" lon="-1.57009">
        <ele>3.9</ele>
        <time>2021-09-05T06:42:44Z</time>
      </trkpt>
      <trkpt lat="43.48107" lon="-1.57005">
        <ele>3.9</ele>
        <time>2021-09-05T06:42:45Z</time>
      </trkpt>
      <trkpt lat="43.48107" lon="-1.57005">
        <ele>3.9</ele>
        <time>2021-09-05T06:42:46Z</time>
      </trkpt>
      <trkpt lat="43.48104" lon="-1.57004">
        <ele>3.9</ele>
        <time>2021-09-05T06:42:47Z</time>
      </trkpt>
      <trkpt lat="43.48104" lon="-1.57004">
        <ele>3.9</ele>
        <time>2021-09-05T06:42:48Z</time>
      </trkpt>
      <trkpt lat="43.48104" lon="-1.57004">
        <ele>3.9</ele>
        <time>2021-09-05T06:42:49Z</time>
      </trkpt>
      <trkpt lat="43.48103" lon="-1.57002">
        <ele>3.9</ele>
        <time>2021-09-05T06:42:50Z</time>
      </trkpt>
      <trkpt lat="43.48103" lon="-1.57002">
        <ele>3.9</ele>
        <time>2021-09-05T06:42:51Z</time>
      </trkpt>
      <trkpt lat="43.48101" lon="-1.56999">
        <ele>3.9</ele>
        <time>2021-09-05T06:42:52Z</time>
      </trkpt>
      <trkpt lat="43.481" lon="-1.56997">
        <ele>3.9</ele>
        <time>2021-09-05T06:42:53Z</time>
      </trkpt>
      <trkpt lat="43.481" lon="-1.56997">
        <ele>3.9</ele>
        <time>2021-09-05T06:42:54Z</time>
      </trkpt>
      <trkpt lat="43.48098" lon="-1.56993">
        <ele>3.9</ele>
        <time>2021-09-05T06:42:55Z</time>
      </trkpt>
      <trkpt lat="43.48098" lon="-1.56993">
        <ele>3.9</ele>
        <time>2021-09-05T06:42:56Z</time>
      </trkpt>
      <trkpt lat="43.48098" lon="-1.56993">
        <ele>3.9</ele>
        <time>2021-09-05T06:42:57Z</time>
      </trkpt>
      <trkpt lat="43.481" lon="-1.5699">
        <ele>3.9</ele>
        <time>2021-09-05T06:42:58Z</time>
      </trkpt>
      <trkpt lat="43.481" lon="-1.5699">
        <ele>3.9</ele>
        <time>2021-09-05T06:42:59Z</time>
      </trkpt>
      <trkpt lat="43.481" lon="-1.5699">
        <ele>4</ele>
        <time>2021-09-05T06:43:00Z</time>
      </trkpt>
      <trkpt lat="43.48097" lon="-1.56991">
        <ele>4</ele>
        <time>2021-09-05T06:43:01Z</time>
      </trkpt>
      <trkpt lat="43.48097" lon="-1.56994">
        <ele>4.1</ele>
        <time>2021-09-05T06:43:02Z</time>
      </trkpt>
      <trkpt lat="43.48097" lon="-1.56994">
        <ele>4.1</ele>
        <time>2021-09-05T06:43:03Z</time>
      </trkpt>
      <trkpt lat="43.48094" lon="-1.56994">
        <ele>4.2</ele>
        <time>2021-09-05T06:43:04Z</time>
      </trkpt>
      <trkpt lat="43.48094" lon="-1.56994">
        <ele>4.2</ele>
        <time>2021-09-05T06:43:05Z</time>
      </trkpt>
      <trkpt lat="43.48094" lon="-1.56994">
        <ele>4.3</ele>
        <time>2021-09-05T06:43:06Z</time>
      </trkpt>
      <trkpt lat="43.48094" lon="-1.56994">
        <ele>4.3</ele>
        <time>2021-09-05T06:43:07Z</time>
      </trkpt>
      <trkpt lat="43.48093" lon="-1.56991">
        <ele>4.4</ele>
        <time>2021-09-05T06:43:08Z</time>
      </trkpt>
      <trkpt lat="43.48093" lon="-1.56991">
        <ele>4.4</ele>
        <time>2021-09-05T06:43:09Z</time>
      </trkpt>
      <trkpt lat="43.48093" lon="-1.56988">
        <ele>4.5</ele>
        <time>2021-09-05T06:43:10Z</time>
      </trkpt>
      <trkpt lat="43.48093" lon="-1.56988">
        <ele>4.5</ele>
        <time>2021-09-05T06:43:11Z</time>
      </trkpt>
      <trkpt lat="43.4809" lon="-1.56986">
        <ele>4.6</ele>
        <time>2021-09-05T06:43:12Z</time>
      </trkpt>
      <trkpt lat="43.4809" lon="-1.56986">
        <ele>4.6</ele>
        <time>2021-09-05T06:43:13Z</time>
      </trkpt>
      <trkpt lat="43.48087" lon="-1.56982">
        <ele>4.7</ele>
        <time>2021-09-05T06:43:14Z</time>
      </trkpt>
      <trkpt lat="43.48085" lon="-1.5698">
        <ele>4.7</ele>
        <time>2021-09-05T06:43:15Z</time>
      </trkpt>
      <trkpt lat="43.48085" lon="-1.5698">
        <ele>4.7</ele>
        <time>2021-09-05T06:43:16Z</time>
      </trkpt>
      <trkpt lat="43.48084" lon="-1.56977">
        <ele>4.8</ele>
        <time>2021-09-05T06:43:17Z</time>
      </trkpt>
      <trkpt lat="43.48084" lon="-1.56977">
        <ele>4.8</ele>
        <time>2021-09-05T06:43:18Z</time>
      </trkpt>
      <trkpt lat="43.48082" lon="-1.56973">
        <ele>4.9</ele>
        <time>2021-09-05T06:43:19Z</time>
      </trkpt>
      <trkpt lat="43.48082" lon="-1.56973">
        <ele>4.9</ele>
        <time>2021-09-05T06:43:20Z</time>
      </trkpt>
      <trkpt lat="43.4808" lon="-1.56969">
        <ele>5</ele>
        <time>2021-09-05T06:43:21Z</time>
      </trkpt>
      <trkpt lat="43.48078" lon="-1.56968">
        <ele>5</ele>
        <time>2021-09-05T06:43:22Z</time>
      </trkpt>
      <trkpt lat="43.48075" lon="-1.56965">
        <ele>5.1</ele>
        <time>2021-09-05T06:43:23Z</time>
      </trkpt>
      <trkpt lat="43.48075" lon="-1.56965">
        <ele>5.1</ele>
        <time>2021-09-05T06:43:24Z</time>
      </trkpt>
      <trkpt lat="43.48072" lon="-1.56962">
        <ele>5.2</ele>
        <time>2021-09-05T06:43:25Z</time>
      </trkpt>
      <trkpt lat="43.48072" lon="-1.56962">
        <ele>5.2</ele>
        <time>2021-09-05T06:43:26Z</time>
      </trkpt>
      <trkpt lat="43.4807" lon="-1.56959">
        <ele>5.3</ele>
        <time>2021-09-05T06:43:27Z</time>
      </trkpt>
      <trkpt lat="43.48074" lon="-1.5696">
        <ele>5.3</ele>
        <time>2021-09-05T06:43:28Z</time>
      </trkpt>
      <trkpt lat="43.48074" lon="-1.5696">
        <ele>5.4</ele>
        <time>2021-09-05T06:43:29Z</time>
      </trkpt>
      <trkpt lat="43.48078" lon="-1.56961">
        <ele>5.4</ele>
        <time>2021-09-05T06:43:30Z</time>
      </trkpt>
      <trkpt lat="43.48078" lon="-1.56961">
        <ele>5.5</ele>
        <time>2021-09-05T06:43:31Z</time>
      </trkpt>
      <trkpt lat="43.48078" lon="-1.56961">
        <ele>5.5</ele>
        <time>2021-09-05T06:43:32Z</time>
      </trkpt>
      <trkpt lat="43.48078" lon="-1.56961">
        <ele>5.5</ele>
        <time>2021-09-05T06:43:33Z</time>
      </trkpt>
      <trkpt lat="43.48081" lon="-1.5696">
        <ele>5.6</ele>
        <time>2021-09-05T06:43:34Z</time>
      </trkpt>
      <trkpt lat="43.48081" lon="-1.5696">
        <ele>5.6</ele>
        <time>2021-09-05T06:43:35Z</time>
      </trkpt>
      <trkpt lat="43.48082" lon="-1.56958">
        <ele>5.7</ele>
        <time>2021-09-05T06:43:36Z</time>
      </trkpt>
      <trkpt lat="43.48082" lon="-1.56958">
        <ele>5.7</ele>
        <time>2021-09-05T06:43:37Z</time>
      </trkpt>
      <trkpt lat="43.48079" lon="-1.56958">
        <ele>5.8</ele>
        <time>2021-09-05T06:43:38Z</time>
      </trkpt>
      <trkpt lat="43.48079" lon="-1.56958">
        <ele>5.8</ele>
        <time>2021-09-05T06:43:39Z</time>
      </trkpt>
      <trkpt lat="43.48076" lon="-1.56957">
        <ele>5.9</ele>
        <time>2021-09-05T06:43:40Z</time>
      </trkpt>
      <trkpt lat="43.48076" lon="-1.56957">
        <ele>5.9</ele>
        <time>2021-09-05T06:43:41Z</time>
      </trkpt>
      <trkpt lat="43.48076" lon="-1.56957">
        <ele>6</ele>
        <time>2021-09-05T06:43:42Z</time>
      </trkpt>
      <trkpt lat="43.48074" lon="-1.56954">
        <ele>6</ele>
        <time>2021-09-05T06:43:43Z</time>
      </trkpt>
      <trkpt lat="43.48074" lon="-1.56954">
        <ele>6.1</ele>
        <time>2021-09-05T06:43:44Z</time>
      </trkpt>
      <trkpt lat="43.48074" lon="-1.56954">
        <ele>6.1</ele>
        <time>2021-09-05T06:43:45Z</time>
      </trkpt>
      <trkpt lat="43.48071" lon="-1.56955">
        <ele>6.2</ele>
        <time>2021-09-05T06:43:46Z</time>
      </trkpt>
      <trkpt lat="43.48071" lon="-1.56955">
        <ele>6.2</ele>
        <time>2021-09-05T06:43:47Z</time>
      </trkpt>
      <trkpt lat="43.4807" lon="-1.56952">
        <ele>6.3</ele>
        <time>2021-09-05T06:43:48Z</time>
      </trkpt>
      <trkpt lat="43.4807" lon="-1.56952">
        <ele>6.3</ele>
        <time>2021-09-05T06:43:49Z</time>
      </trkpt>
      <trkpt lat="43.48072" lon="-1.56951">
        <ele>6.3</ele>
        <time>2021-09-05T06:43:50Z</time>
      </trkpt>
      <trkpt lat="43.48071" lon="-1.56949">
        <ele>6.4</ele>
        <time>2021-09-05T06:43:51Z</time>
      </trkpt>
      <trkpt lat="43.4807" lon="-1.56947">
        <ele>6.4</ele>
        <time>2021-09-05T06:43:52Z</time>
      </trkpt>
      <trkpt lat="43.4807" lon="-1.56947">
        <ele>6.5</ele>
        <time>2021-09-05T06:43:53Z</time>
      </trkpt>
      <trkpt lat="43.48068" lon="-1.56944">
        <ele>6.5</ele>
        <time>2021-09-05T06:43:54Z</time>
      </trkpt>
      <trkpt lat="43.48068" lon="-1.56944">
        <ele>6.6</ele>
        <time>2021-09-05T06:43:55Z</time>
      </trkpt>
      <trkpt lat="43.48066" lon="-1.56942">
        <ele>6.6</ele>
        <time>2021-09-05T06:43:56Z</time>
      </trkpt>
      <trkpt lat="43.48066" lon="-1.56942">
        <ele>6.7</ele>
        <time>2021-09-05T06:43:57Z</time>
      </trkpt>
      <trkpt lat="43.48064" lon="-1.5694">
        <ele>6.7</ele>
        <time>2021-09-05T06:43:58Z</time>
      </trkpt>
      <trkpt lat="43.48064" lon="-1.5694">
        <ele>6.8</ele>
        <time>2021-09-05T06:43:59Z</time>
      </trkpt>
      <trkpt lat="43.48065" lon="-1.56937">
        <ele>6.8</ele>
        <time>2021-09-05T06:44:00Z</time>
      </trkpt>
      <trkpt lat="43.48065" lon="-1.56937">
        <ele>6.9</ele>
        <time>2021-09-05T06:44:01Z</time>
      </trkpt>
      <trkpt lat="43.48064" lon="-1.56934">
        <ele>6.9</ele>
        <time>2021-09-05T06:44:02Z</time>
      </trkpt>
      <trkpt lat="43.48064" lon="-1.56934">
        <ele>7</ele>
        <time>2021-09-05T06:44:03Z</time>
      </trkpt>
      <trkpt lat="43.48064" lon="-1.56934">
        <ele>7</ele>
        <time>2021-09-05T06:44:04Z</time>
      </trkpt>
      <trkpt lat="43.48064" lon="-1.56934">
        <ele>7</ele>
        <time>2021-09-05T06:44:05Z</time>
      </trkpt>
      <trkpt lat="43.48064" lon="-1.56934">
        <ele>7.1</ele>
        <time>2021-09-05T06:44:06Z</time>
      </trkpt>
      <trkpt lat="43.48063" lon="-1.56932">
        <ele>7.1</ele>
        <time>2021-09-05T06:44:07Z</time>
      </trkpt>
      <trkpt lat="43.48063" lon="-1.56932">
        <ele>7.2</ele>
        <time>2021-09-05T06:44:08Z</time>
      </trkpt>
      <trkpt lat="43.48062" lon="-1.5693">
        <ele>7.2</ele>
        <time>2021-09-05T06:44:09Z</time>
      </trkpt>
      <trkpt lat="43.48062" lon="-1.5693">
        <ele>7.3</ele>
        <time>2021-09-05T06:44:10Z</time>
      </trkpt>
      <trkpt lat="43.48061" lon="-1.56927">
        <ele>7.3</ele>
        <time>2021-09-05T06:44:11Z</time>
      </trkpt>
      <trkpt lat="43.48061" lon="-1.56927">
        <ele>7.4</ele>
        <time>2021-09-05T06:44:12Z</time>
      </trkpt>
      <trkpt lat="43.4806" lon="-1.56924">
        <ele>7.4</ele>
        <time>2021-09-05T06:44:13Z</time>
      </trkpt>
      <trkpt lat="43.48058" lon="-1.56925">
        <ele>7.5</ele>
        <time>2021-09-05T06:44:14Z</time>
      </trkpt>
      <trkpt lat="43.48058" lon="-1.56925">
        <ele>7.5</ele>
        <time>2021-09-05T06:44:15Z</time>
      </trkpt>
      <trkpt lat="43.48055" lon="-1.56924">
        <ele>7.6</ele>
        <time>2021-09-05T06:44:16Z</time>
      </trkpt>
      <trkpt lat="43.48055" lon="-1.56924">
        <ele>7.6</ele>
        <time>2021-09-05T06:44:17Z</time>
      </trkpt>
      <trkpt lat="43.48052" lon="-1.56924">
        <ele>7.7</ele>
        <time>2021-09-05T06:44:18Z</time>
      </trkpt>
      <trkpt lat="43.48052" lon="-1.56924">
        <ele>7.7</ele>
        <time>2021-09-05T06:44:19Z</time>
      </trkpt>
      <trkpt lat="43.4805" lon="-1.5692">
        <ele>7.8</ele>
        <time>2021-09-05T06:44:20Z</time>
      </trkpt>
      <trkpt lat="43.4805" lon="-1.5692">
        <ele>7.8</ele>
        <time>2021-09-05T06:44:21Z</time>
      </trkpt>
      <trkpt lat="43.48047" lon="-1.56914">
        <ele>7.8</ele>
        <time>2021-09-05T06:44:22Z</time>
      </trkpt>
      <trkpt lat="43.48045" lon="-1.56913">
        <ele>7.9</ele>
        <time>2021-09-05T06:44:23Z</time>
      </trkpt>
      <trkpt lat="43.48044" lon="-1.56913">
        <ele>7.9</ele>
        <time>2021-09-05T06:44:24Z</time>
      </trkpt>
      <trkpt lat="43.4804" lon="-1.5691">
        <ele>8</ele>
        <time>2021-09-05T06:44:25Z</time>
      </trkpt>
      <trkpt lat="43.48043" lon="-1.56911">
        <ele>8</ele>
        <time>2021-09-05T06:44:26Z</time>
      </trkpt>
      <trkpt lat="43.4804" lon="-1.56909">
        <ele>8.1</ele>
        <time>2021-09-05T06:44:27Z</time>
      </trkpt>
      <trkpt lat="43.4804" lon="-1.56909">
        <ele>8.1</ele>
        <time>2021-09-05T06:44:28Z</time>
      </trkpt>
      <trkpt lat="43.48045" lon="-1.56908">
        <ele>8.2</ele>
        <time>2021-09-05T06:44:29Z</time>
      </trkpt>
      <trkpt lat="43.48045" lon="-1.56908">
        <ele>8.2</ele>
        <time>2021-09-05T06:44:30Z</time>
      </trkpt>
      <trkpt lat="43.48045" lon="-1.56908">
        <ele>8.3</ele>
        <time>2021-09-05T06:44:31Z</time>
      </trkpt>
      <trkpt lat="43.48045" lon="-1.56906">
        <ele>8.3</ele>
        <time>2021-09-05T06:44:32Z</time>
      </trkpt>
      <trkpt lat="43.48045" lon="-1.56906">
        <ele>8.4</ele>
        <time>2021-09-05T06:44:33Z</time>
      </trkpt>
      <trkpt lat="43.48044" lon="-1.56904">
        <ele>8.4</ele>
        <time>2021-09-05T06:44:34Z</time>
      </trkpt>
      <trkpt lat="43.48044" lon="-1.56904">
        <ele>8.5</ele>
        <time>2021-09-05T06:44:35Z</time>
      </trkpt>
      <trkpt lat="43.48043" lon="-1.56901">
        <ele>8.5</ele>
        <time>2021-09-05T06:44:36Z</time>
      </trkpt>
      <trkpt lat="43.48043" lon="-1.56901">
        <ele>8.6</ele>
        <time>2021-09-05T06:44:37Z</time>
      </trkpt>
      <trkpt lat="43.48043" lon="-1.56901">
        <ele>8.6</ele>
        <time>2021-09-05T06:44:38Z</time>
      </trkpt>
      <trkpt lat="43.4804" lon="-1.56903">
        <ele>8.6</ele>
        <time>2021-09-05T06:44:39Z</time>
      </trkpt>
      <trkpt lat="43.4804" lon="-1.56903">
        <ele>8.6</ele>
        <time>2021-09-05T06:44:40Z</time>
      </trkpt>
      <trkpt lat="43.48039" lon="-1.56901">
        <ele>8.6</ele>
        <time>2021-09-05T06:44:41Z</time>
      </trkpt>
      <trkpt lat="43.48039" lon="-1.56901">
        <ele>8.6</ele>
        <time>2021-09-05T06:44:42Z</time>
      </trkpt>
      <trkpt lat="43.48039" lon="-1.56901">
        <ele>8.6</ele>
        <time>2021-09-05T06:44:43Z</time>
      </trkpt>
      <trkpt lat="43.48037" lon="-1.56899">
        <ele>8.6</ele>
        <time>2021-09-05T06:44:44Z</time>
      </trkpt>
      <trkpt lat="43.48037" lon="-1.56899">
        <ele>8.6</ele>
        <time>2021-09-05T06:44:45Z</time>
      </trkpt>
      <trkpt lat="43.48038" lon="-1.56896">
        <ele>8.6</ele>
        <time>2021-09-05T06:44:46Z</time>
      </trkpt>
      <trkpt lat="43.48029" lon="-1.56891">
        <ele>8.6</ele>
        <time>2021-09-05T06:44:47Z</time>
      </trkpt>
      <trkpt lat="43.48026" lon="-1.56888">
        <ele>8.6</ele>
        <time>2021-09-05T06:44:48Z</time>
      </trkpt>
      <trkpt lat="43.48026" lon="-1.56888">
        <ele>8.6</ele>
        <time>2021-09-05T06:44:49Z</time>
      </trkpt>
      <trkpt lat="43.48023" lon="-1.56885">
        <ele>8.6</ele>
        <time>2021-09-05T06:44:50Z</time>
      </trkpt>
      <trkpt lat="43.48026" lon="-1.56887">
        <ele>8.6</ele>
        <time>2021-09-05T06:44:51Z</time>
      </trkpt>
      <trkpt lat="43.48026" lon="-1.56887">
        <ele>8.6</ele>
        <time>2021-09-05T06:44:52Z</time>
      </trkpt>
      <trkpt lat="43.48026" lon="-1.56887">
        <ele>8.6</ele>
        <time>2021-09-05T06:44:53Z</time>
      </trkpt>
      <trkpt lat="43.48024" lon="-1.56885">
        <ele>8.6</ele>
        <time>2021-09-05T06:44:54Z</time>
      </trkpt>
      <trkpt lat="43.48024" lon="-1.56885">
        <ele>8.6</ele>
        <time>2021-09-05T06:44:55Z</time>
      </trkpt>
      <trkpt lat="43.48024" lon="-1.56882">
        <ele>8.6</ele>
        <time>2021-09-05T06:44:56Z</time>
      </trkpt>
      <trkpt lat="43.48026" lon="-1.5688">
        <ele>8.6</ele>
        <time>2021-09-05T06:44:57Z</time>
      </trkpt>
      <trkpt lat="43.48026" lon="-1.5688">
        <ele>8.6</ele>
        <time>2021-09-05T06:44:58Z</time>
      </trkpt>
      <trkpt lat="43.48026" lon="-1.56877">
        <ele>8.6</ele>
        <time>2021-09-05T06:44:59Z</time>
      </trkpt>
      <trkpt lat="43.48026" lon="-1.56877">
        <ele>8.6</ele>
        <time>2021-09-05T06:45:00Z</time>
      </trkpt>
      <trkpt lat="43.48026" lon="-1.56877">
        <ele>8.6</ele>
        <time>2021-09-05T06:45:01Z</time>
      </trkpt>
      <trkpt lat="43.48026" lon="-1.56877">
        <ele>8.6</ele>
        <time>2021-09-05T06:45:02Z</time>
      </trkpt>
      <trkpt lat="43.48029" lon="-1.56881">
        <ele>8.6</ele>
        <time>2021-09-05T06:45:03Z</time>
      </trkpt>
      <trkpt lat="43.48029" lon="-1.56881">
        <ele>8.6</ele>
        <time>2021-09-05T06:45:04Z</time>
      </trkpt>
      <trkpt lat="43.48029" lon="-1.56884">
        <ele>8.6</ele>
        <time>2021-09-05T06:45:05Z</time>
      </trkpt>
      <trkpt lat="43.48029" lon="-1.56884">
        <ele>8.6</ele>
        <time>2021-09-05T06:45:06Z</time>
      </trkpt>
      <trkpt lat="43.48029" lon="-1.56884">
        <ele>8.6</ele>
        <time>2021-09-05T06:45:07Z</time>
      </trkpt>
      <trkpt lat="43.48029" lon="-1.56884">
        <ele>8.6</ele>
        <time>2021-09-05T06:45:08Z</time>
      </trkpt>
      <trkpt lat="43.48031" lon="-1.56883">
        <ele>8.6</ele>
        <time>2021-09-05T06:45:09Z</time>
      </trkpt>
      <trkpt lat="43.48029" lon="-1.56881">
        <ele>8.6</ele>
        <time>2021-09-05T06:45:10Z</time>
      </trkpt>
      <trkpt lat="43.48029" lon="-1.56881">
        <ele>8.6</ele>
        <time>2021-09-05T06:45:11Z</time>
      </trkpt>
      <trkpt lat="43.48026" lon="-1.56878">
        <ele>8.6</ele>
        <time>2021-09-05T06:45:12Z</time>
      </trkpt>
      <trkpt lat="43.48026" lon="-1.56878">
        <ele>8.6</ele>
        <time>2021-09-05T06:45:13Z</time>
      </trkpt>
      <trkpt lat="43.48024" lon="-1.56875">
        <ele>8.6</ele>
        <time>2021-09-05T06:45:14Z</time>
      </trkpt>
      <trkpt lat="43.48024" lon="-1.56875">
        <ele>8.6</ele>
        <time>2021-09-05T06:45:15Z</time>
      </trkpt>
      <trkpt lat="43.48022" lon="-1.56871">
        <ele>8.6</ele>
        <time>2021-09-05T06:45:16Z</time>
      </trkpt>
      <trkpt lat="43.48022" lon="-1.56871">
        <ele>8.6</ele>
        <time>2021-09-05T06:45:17Z</time>
      </trkpt>
      <trkpt lat="43.4802" lon="-1.56871">
        <ele>8.6</ele>
        <time>2021-09-05T06:45:18Z</time>
      </trkpt>
      <trkpt lat="43.4802" lon="-1.56871">
        <ele>8.6</ele>
        <time>2021-09-05T06:45:19Z</time>
      </trkpt>
      <trkpt lat="43.4802" lon="-1.56867">
        <ele>8.6</ele>
        <time>2021-09-05T06:45:20Z</time>
      </trkpt>
      <trkpt lat="43.4802" lon="-1.56867">
        <ele>8.6</ele>
        <time>2021-09-05T06:45:21Z</time>
      </trkpt>
      <trkpt lat="43.48019" lon="-1.56863">
        <ele>8.6</ele>
        <time>2021-09-05T06:45:22Z</time>
      </trkpt>
      <trkpt lat="43.48019" lon="-1.56863">
        <ele>8.6</ele>
        <time>2021-09-05T06:45:23Z</time>
      </trkpt>
      <trkpt lat="43.48018" lon="-1.5686">
        <ele>8.6</ele>
        <time>2021-09-05T06:45:24Z</time>
      </trkpt>
      <trkpt lat="43.48018" lon="-1.5686">
        <ele>8.6</ele>
        <time>2021-09-05T06:45:25Z</time>
      </trkpt>
      <trkpt lat="43.48018" lon="-1.5686">
        <ele>8.6</ele>
        <time>2021-09-05T06:45:26Z</time>
      </trkpt>
      <trkpt lat="43.48018" lon="-1.5686">
        <ele>8.6</ele>
        <time>2021-09-05T06:45:27Z</time>
      </trkpt>
      <trkpt lat="43.48017" lon="-1.56858">
        <ele>8.6</ele>
        <time>2021-09-05T06:45:28Z</time>
      </trkpt>
      <trkpt lat="43.48017" lon="-1.56858">
        <ele>8.6</ele>
        <time>2021-09-05T06:45:29Z</time>
      </trkpt>
      <trkpt lat="43.48015" lon="-1.56856">
        <ele>8.6</ele>
        <time>2021-09-05T06:45:30Z</time>
      </trkpt>
      <trkpt lat="43.48015" lon="-1.56856">
        <ele>8.6</ele>
        <time>2021-09-05T06:45:31Z</time>
      </trkpt>
      <trkpt lat="43.48013" lon="-1.56854">
        <ele>8.6</ele>
        <time>2021-09-05T06:45:32Z</time>
      </trkpt>
      <trkpt lat="43.48013" lon="-1.56854">
        <ele>8.6</ele>
        <time>2021-09-05T06:45:33Z</time>
      </trkpt>
      <trkpt lat="43.48013" lon="-1.56854">
        <ele>8.6</ele>
        <time>2021-09-05T06:45:34Z</time>
      </trkpt>
      <trkpt lat="43.48012" lon="-1.56852">
        <ele>8.6</ele>
        <time>2021-09-05T06:45:35Z</time>
      </trkpt>
      <trkpt lat="43.48012" lon="-1.56852">
        <ele>8.6</ele>
        <time>2021-09-05T06:45:36Z</time>
      </trkpt>
      <trkpt lat="43.48005" lon="-1.56848">
        <ele>8.6</ele>
        <time>2021-09-05T06:45:37Z</time>
      </trkpt>
      <trkpt lat="43.48004" lon="-1.56848">
        <ele>8.6</ele>
        <time>2021-09-05T06:45:38Z</time>
      </trkpt>
      <trkpt lat="43.48004" lon="-1.56848">
        <ele>8.6</ele>
        <time>2021-09-05T06:45:39Z</time>
      </trkpt>
      <trkpt lat="43.48" lon="-1.56844">
        <ele>8.6</ele>
        <time>2021-09-05T06:45:40Z</time>
      </trkpt>
      <trkpt lat="43.48" lon="-1.56844">
        <ele>8.6</ele>
        <time>2021-09-05T06:45:41Z</time>
      </trkpt>
      <trkpt lat="43.48" lon="-1.56844">
        <ele>8.6</ele>
        <time>2021-09-05T06:45:42Z</time>
      </trkpt>
      <trkpt lat="43.48" lon="-1.56844">
        <ele>8.6</ele>
        <time>2021-09-05T06:45:43Z</time>
      </trkpt>
      <trkpt lat="43.48" lon="-1.56844">
        <ele>8.6</ele>
        <time>2021-09-05T06:45:44Z</time>
      </trkpt>
      <trkpt lat="43.48" lon="-1.56844">
        <ele>8.6</ele>
        <time>2021-09-05T06:45:45Z</time>
      </trkpt>
      <trkpt lat="43.47998" lon="-1.56841">
        <ele>8.6</ele>
        <time>2021-09-05T06:45:46Z</time>
      </trkpt>
      <trkpt lat="43.47998" lon="-1.56841">
        <ele>8.6</ele>
        <time>2021-09-05T06:45:47Z</time>
      </trkpt>
      <trkpt lat="43.47996" lon="-1.56837">
        <ele>8.6</ele>
        <time>2021-09-05T06:45:48Z</time>
      </trkpt>
      <trkpt lat="43.47996" lon="-1.56837">
        <ele>8.6</ele>
        <time>2021-09-05T06:45:49Z</time>
      </trkpt>
      <trkpt lat="43.47998" lon="-1.56837">
        <ele>8.6</ele>
        <time>2021-09-05T06:45:50Z</time>
      </trkpt>
      <trkpt lat="43.47999" lon="-1.56837">
        <ele>8.6</ele>
        <time>2021-09-05T06:45:51Z</time>
      </trkpt>
      <trkpt lat="43.48" lon="-1.56838">
        <ele>8.6</ele>
        <time>2021-09-05T06:45:52Z</time>
      </trkpt>
      <trkpt lat="43.48" lon="-1.56838">
        <ele>8.6</ele>
        <time>2021-09-05T06:45:53Z</time>
      </trkpt>
      <trkpt lat="43.48002" lon="-1.56837">
        <ele>8.6</ele>
        <time>2021-09-05T06:45:54Z</time>
      </trkpt>
      <trkpt lat="43.48004" lon="-1.56835">
        <ele>8.6</ele>
        <time>2021-09-05T06:45:55Z</time>
      </trkpt>
      <trkpt lat="43.48004" lon="-1.56835">
        <ele>8.6</ele>
        <time>2021-09-05T06:45:56Z</time>
      </trkpt>
      <trkpt lat="43.48004" lon="-1.56832">
        <ele>8.6</ele>
        <time>2021-09-05T06:45:57Z</time>
      </trkpt>
      <trkpt lat="43.48004" lon="-1.56832">
        <ele>8.6</ele>
        <time>2021-09-05T06:45:58Z</time>
      </trkpt>
      <trkpt lat="43.47998" lon="-1.56829">
        <ele>8.6</ele>
        <time>2021-09-05T06:45:59Z</time>
      </trkpt>
      <trkpt lat="43.47998" lon="-1.56829">
        <ele>8.6</ele>
        <time>2021-09-05T06:46:00Z</time>
      </trkpt>
      <trkpt lat="43.47998" lon="-1.56833">
        <ele>8.6</ele>
        <time>2021-09-05T06:46:01Z</time>
      </trkpt>
      <trkpt lat="43.47998" lon="-1.56833">
        <ele>8.6</ele>
        <time>2021-09-05T06:46:02Z</time>
      </trkpt>
      <trkpt lat="43.47998" lon="-1.5683">
        <ele>8.6</ele>
        <time>2021-09-05T06:46:03Z</time>
      </trkpt>
      <trkpt lat="43.47998" lon="-1.5683">
        <ele>8.6</ele>
        <time>2021-09-05T06:46:04Z</time>
      </trkpt>
      <trkpt lat="43.47997" lon="-1.5683">
        <ele>8.6</ele>
        <time>2021-09-05T06:46:05Z</time>
      </trkpt>
      <trkpt lat="43.47997" lon="-1.5683">
        <ele>8.6</ele>
        <time>2021-09-05T06:46:06Z</time>
      </trkpt>
      <trkpt lat="43.47994" lon="-1.56829">
        <ele>8.6</ele>
        <time>2021-09-05T06:46:07Z</time>
      </trkpt>
      <trkpt lat="43.47994" lon="-1.56829">
        <ele>8.6</ele>
        <time>2021-09-05T06:46:08Z</time>
      </trkpt>
      <trkpt lat="43.47992" lon="-1.56827">
        <ele>8.6</ele>
        <time>2021-09-05T06:46:09Z</time>
      </trkpt>
      <trkpt lat="43.47989" lon="-1.56827">
        <ele>8.6</ele>
        <time>2021-09-05T06:46:10Z</time>
      </trkpt>
      <trkpt lat="43.47987" lon="-1.56826">
        <ele>8.6</ele>
        <time>2021-09-05T06:46:11Z</time>
      </trkpt>
      <trkpt lat="43.47987" lon="-1.56826">
        <ele>8.6</ele>
        <time>2021-09-05T06:46:12Z</time>
      </trkpt>
      <trkpt lat="43.47985" lon="-1.56825">
        <ele>8.6</ele>
        <time>2021-09-05T06:46:13Z</time>
      </trkpt>
      <trkpt lat="43.47985" lon="-1.56825">
        <ele>8.6</ele>
        <time>2021-09-05T06:46:14Z</time>
      </trkpt>
      <trkpt lat="43.47983" lon="-1.56826">
        <ele>8.6</ele>
        <time>2021-09-05T06:46:15Z</time>
      </trkpt>
      <trkpt lat="43.47983" lon="-1.56826">
        <ele>8.6</ele>
        <time>2021-09-05T06:46:16Z</time>
      </trkpt>
      <trkpt lat="43.47983" lon="-1.56826">
        <ele>8.6</ele>
        <time>2021-09-05T06:46:17Z</time>
      </trkpt>
      <trkpt lat="43.47982" lon="-1.56822">
        <ele>8.6</ele>
        <time>2021-09-05T06:46:18Z</time>
      </trkpt>
      <trkpt lat="43.47982" lon="-1.56822">
        <ele>8.6</ele>
        <time>2021-09-05T06:46:19Z</time>
      </trkpt>
      <trkpt lat="43.47982" lon="-1.56819">
        <ele>8.6</ele>
        <time>2021-09-05T06:46:20Z</time>
      </trkpt>
      <trkpt lat="43.47982" lon="-1.56819">
        <ele>8.6</ele>
        <time>2021-09-05T06:46:21Z</time>
      </trkpt>
      <trkpt lat="43.47981" lon="-1.56816">
        <ele>8.6</ele>
        <time>2021-09-05T06:46:22Z</time>
      </trkpt>
      <trkpt lat="43.47981" lon="-1.56816">
        <ele>8.6</ele>
        <time>2021-09-05T06:46:23Z</time>
      </trkpt>
      <trkpt lat="43.47978" lon="-1.56813">
        <ele>8.6</ele>
        <time>2021-09-05T06:46:24Z</time>
      </trkpt>
      <trkpt lat="43.47978" lon="-1.56813">
        <ele>8.6</ele>
        <time>2021-09-05T06:46:25Z</time>
      </trkpt>
      <trkpt lat="43.47976" lon="-1.5681">
        <ele>8.6</ele>
        <time>2021-09-05T06:46:26Z</time>
      </trkpt>
      <trkpt lat="43.47974" lon="-1.56808">
        <ele>8.6</ele>
        <time>2021-09-05T06:46:27Z</time>
      </trkpt>
      <trkpt lat="43.47973" lon="-1.56806">
        <ele>8.6</ele>
        <time>2021-09-05T06:46:28Z</time>
      </trkpt>
      <trkpt lat="43.47973" lon="-1.56806">
        <ele>8.6</ele>
        <time>2021-09-05T06:46:29Z</time>
      </trkpt>
      <trkpt lat="43.47972" lon="-1.56802">
        <ele>8.6</ele>
        <time>2021-09-05T06:46:30Z</time>
      </trkpt>
      <trkpt lat="43.47972" lon="-1.56802">
        <ele>8.6</ele>
        <time>2021-09-05T06:46:31Z</time>
      </trkpt>
      <trkpt lat="43.47972" lon="-1.56802">
        <ele>8.6</ele>
        <time>2021-09-05T06:46:32Z</time>
      </trkpt>
      <trkpt lat="43.47972" lon="-1.56802">
        <ele>8.6</ele>
        <time>2021-09-05T06:46:33Z</time>
      </trkpt>
      <trkpt lat="43.47974" lon="-1.56805">
        <ele>8.6</ele>
        <time>2021-09-05T06:46:34Z</time>
      </trkpt>
      <trkpt lat="43.47974" lon="-1.56805">
        <ele>8.6</ele>
        <time>2021-09-05T06:46:35Z</time>
      </trkpt>
      <trkpt lat="43.47974" lon="-1.56805">
        <ele>8.6</ele>
        <time>2021-09-05T06:46:36Z</time>
      </trkpt>
      <trkpt lat="43.47974" lon="-1.56805">
        <ele>8.6</ele>
        <time>2021-09-05T06:46:37Z</time>
      </trkpt>
      <trkpt lat="43.47973" lon="-1.56802">
        <ele>8.6</ele>
        <time>2021-09-05T06:46:38Z</time>
      </trkpt>
      <trkpt lat="43.47973" lon="-1.56802">
        <ele>8.6</ele>
        <time>2021-09-05T06:46:39Z</time>
      </trkpt>
      <trkpt lat="43.47973" lon="-1.56802">
        <ele>8.6</ele>
        <time>2021-09-05T06:46:40Z</time>
      </trkpt>
      <trkpt lat="43.4797" lon="-1.56801">
        <ele>8.6</ele>
        <time>2021-09-05T06:46:41Z</time>
      </trkpt>
      <trkpt lat="43.4797" lon="-1.56801">
        <ele>8.6</ele>
        <time>2021-09-05T06:46:42Z</time>
      </trkpt>
      <trkpt lat="43.47969" lon="-1.56798">
        <ele>8.6</ele>
        <time>2021-09-05T06:46:43Z</time>
      </trkpt>
      <trkpt lat="43.47969" lon="-1.56798">
        <ele>8.6</ele>
        <time>2021-09-05T06:46:44Z</time>
      </trkpt>
      <trkpt lat="43.47966" lon="-1.56796">
        <ele>8.6</ele>
        <time>2021-09-05T06:46:45Z</time>
      </trkpt>
      <trkpt lat="43.47965" lon="-1.56795">
        <ele>8.6</ele>
        <time>2021-09-05T06:46:46Z</time>
      </trkpt>
      <trkpt lat="43.47962" lon="-1.56794">
        <ele>8.6</ele>
        <time>2021-09-05T06:46:47Z</time>
      </trkpt>
      <trkpt lat="43.4796" lon="-1.56793">
        <ele>8.6</ele>
        <time>2021-09-05T06:46:48Z</time>
      </trkpt>
      <trkpt lat="43.4796" lon="-1.56793">
        <ele>8.6</ele>
        <time>2021-09-05T06:46:49Z</time>
      </trkpt>
      <trkpt lat="43.4796" lon="-1.56793">
        <ele>8.6</ele>
        <time>2021-09-05T06:46:50Z</time>
      </trkpt>
      <trkpt lat="43.47958" lon="-1.5679">
        <ele>8.6</ele>
        <time>2021-09-05T06:46:51Z</time>
      </trkpt>
      <trkpt lat="43.47958" lon="-1.5679">
        <ele>8.6</ele>
        <time>2021-09-05T06:46:52Z</time>
      </trkpt>
      <trkpt lat="43.47957" lon="-1.56788">
        <ele>8.6</ele>
        <time>2021-09-05T06:46:53Z</time>
      </trkpt>
      <trkpt lat="43.47957" lon="-1.56788">
        <ele>8.6</ele>
        <time>2021-09-05T06:46:54Z</time>
      </trkpt>
      <trkpt lat="43.47957" lon="-1.56788">
        <ele>8.6</ele>
        <time>2021-09-05T06:46:55Z</time>
      </trkpt>
      <trkpt lat="43.47957" lon="-1.56788">
        <ele>8.6</ele>
        <time>2021-09-05T06:46:56Z</time>
      </trkpt>
      <trkpt lat="43.47954" lon="-1.56789">
        <ele>8.6</ele>
        <time>2021-09-05T06:46:57Z</time>
      </trkpt>
      <trkpt lat="43.47954" lon="-1.56789">
        <ele>8.6</ele>
        <time>2021-09-05T06:46:58Z</time>
      </trkpt>
      <trkpt lat="43.47952" lon="-1.56788">
        <ele>8.6</ele>
        <time>2021-09-05T06:46:59Z</time>
      </trkpt>
      <trkpt lat="43.4795" lon="-1.56787">
        <ele>8.6</ele>
        <time>2021-09-05T06:47:00Z</time>
      </trkpt>
      <trkpt lat="43.47949" lon="-1.56786">
        <ele>8.6</ele>
        <time>2021-09-05T06:47:01Z</time>
      </trkpt>
      <trkpt lat="43.47947" lon="-1.56785">
        <ele>8.6</ele>
        <time>2021-09-05T06:47:02Z</time>
      </trkpt>
      <trkpt lat="43.47947" lon="-1.56785">
        <ele>8.6</ele>
        <time>2021-09-05T06:47:03Z</time>
      </trkpt>
      <trkpt lat="43.47944" lon="-1.56783">
        <ele>8.6</ele>
        <time>2021-09-05T06:47:04Z</time>
      </trkpt>
      <trkpt lat="43.47942" lon="-1.56782">
        <ele>8.6</ele>
        <time>2021-09-05T06:47:05Z</time>
      </trkpt>
      <trkpt lat="43.47942" lon="-1.56782">
        <ele>8.6</ele>
        <time>2021-09-05T06:47:06Z</time>
      </trkpt>
      <trkpt lat="43.47941" lon="-1.56779">
        <ele>8.6</ele>
        <time>2021-09-05T06:47:07Z</time>
      </trkpt>
      <trkpt lat="43.47941" lon="-1.56779">
        <ele>8.6</ele>
        <time>2021-09-05T06:47:08Z</time>
      </trkpt>
      <trkpt lat="43.47941" lon="-1.56779">
        <ele>8.6</ele>
        <time>2021-09-05T06:47:09Z</time>
      </trkpt>
      <trkpt lat="43.47941" lon="-1.56779">
        <ele>8.6</ele>
        <time>2021-09-05T06:47:10Z</time>
      </trkpt>
      <trkpt lat="43.4794" lon="-1.56776">
        <ele>8.6</ele>
        <time>2021-09-05T06:47:11Z</time>
      </trkpt>
      <trkpt lat="43.4794" lon="-1.56776">
        <ele>8.6</ele>
        <time>2021-09-05T06:47:12Z</time>
      </trkpt>
      <trkpt lat="43.4794" lon="-1.56776">
        <ele>8.6</ele>
        <time>2021-09-05T06:47:13Z</time>
      </trkpt>
      <trkpt lat="43.4794" lon="-1.56776">
        <ele>8.6</ele>
        <time>2021-09-05T06:47:14Z</time>
      </trkpt>
      <trkpt lat="43.4794" lon="-1.56776">
        <ele>8.6</ele>
        <time>2021-09-05T06:47:15Z</time>
      </trkpt>
      <trkpt lat="43.47939" lon="-1.56774">
        <ele>8.6</ele>
        <time>2021-09-05T06:47:16Z</time>
      </trkpt>
      <trkpt lat="43.47939" lon="-1.56774">
        <ele>8.6</ele>
        <time>2021-09-05T06:47:17Z</time>
      </trkpt>
      <trkpt lat="43.47939" lon="-1.56774">
        <ele>8.6</ele>
        <time>2021-09-05T06:47:18Z</time>
      </trkpt>
      <trkpt lat="43.47939" lon="-1.56774">
        <ele>8.6</ele>
        <time>2021-09-05T06:47:19Z</time>
      </trkpt>
      <trkpt lat="43.47939" lon="-1.56774">
        <ele>8.6</ele>
        <time>2021-09-05T06:47:20Z</time>
      </trkpt>
      <trkpt lat="43.47939" lon="-1.56774">
        <ele>8.6</ele>
        <time>2021-09-05T06:47:21Z</time>
      </trkpt>
      <trkpt lat="43.47935" lon="-1.56766">
        <ele>8.6</ele>
        <time>2021-09-05T06:47:22Z</time>
      </trkpt>
      <trkpt lat="43.47935" lon="-1.56766">
        <ele>8.6</ele>
        <time>2021-09-05T06:47:23Z</time>
      </trkpt>
      <trkpt lat="43.47933" lon="-1.56764">
        <ele>8.6</ele>
        <time>2021-09-05T06:47:24Z</time>
      </trkpt>
      <trkpt lat="43.47933" lon="-1.56764">
        <ele>8.6</ele>
        <time>2021-09-05T06:47:25Z</time>
      </trkpt>
      <trkpt lat="43.47933" lon="-1.56762">
        <ele>8.6</ele>
        <time>2021-09-05T06:47:26Z</time>
      </trkpt>
      <trkpt lat="43.47933" lon="-1.56762">
        <ele>8.6</ele>
        <time>2021-09-05T06:47:27Z</time>
      </trkpt>
      <trkpt lat="43.47933" lon="-1.56762">
        <ele>8.6</ele>
        <time>2021-09-05T06:47:28Z</time>
      </trkpt>
      <trkpt lat="43.47931" lon="-1.56759">
        <ele>8.6</ele>
        <time>2021-09-05T06:47:29Z</time>
      </trkpt>
      <trkpt lat="43.47931" lon="-1.56759">
        <ele>8.6</ele>
        <time>2021-09-05T06:47:30Z</time>
      </trkpt>
      <trkpt lat="43.47929" lon="-1.56757">
        <ele>8.6</ele>
        <time>2021-09-05T06:47:31Z</time>
      </trkpt>
      <trkpt lat="43.47929" lon="-1.56757">
        <ele>8.6</ele>
        <time>2021-09-05T06:47:32Z</time>
      </trkpt>
      <trkpt lat="43.47927" lon="-1.56755">
        <ele>8.6</ele>
        <time>2021-09-05T06:47:33Z</time>
      </trkpt>
      <trkpt lat="43.47927" lon="-1.56755">
        <ele>8.6</ele>
        <time>2021-09-05T06:47:34Z</time>
      </trkpt>
      <trkpt lat="43.47927" lon="-1.56755">
        <ele>8.6</ele>
        <time>2021-09-05T06:47:35Z</time>
      </trkpt>
      <trkpt lat="43.47926" lon="-1.56753">
        <ele>8.6</ele>
        <time>2021-09-05T06:47:36Z</time>
      </trkpt>
      <trkpt lat="43.47926" lon="-1.56753">
        <ele>8.6</ele>
        <time>2021-09-05T06:47:37Z</time>
      </trkpt>
      <trkpt lat="43.47925" lon="-1.5675">
        <ele>8.6</ele>
        <time>2021-09-05T06:47:38Z</time>
      </trkpt>
      <trkpt lat="43.47925" lon="-1.5675">
        <ele>8.6</ele>
        <time>2021-09-05T06:47:39Z</time>
      </trkpt>
      <trkpt lat="43.47923" lon="-1.56747">
        <ele>8.6</ele>
        <time>2021-09-05T06:47:40Z</time>
      </trkpt>
      <trkpt lat="43.47922" lon="-1.56745">
        <ele>8.6</ele>
        <time>2021-09-05T06:47:41Z</time>
      </trkpt>
      <trkpt lat="43.47922" lon="-1.56745">
        <ele>8.6</ele>
        <time>2021-09-05T06:47:42Z</time>
      </trkpt>
      <trkpt lat="43.47919" lon="-1.56741">
        <ele>8.6</ele>
        <time>2021-09-05T06:47:43Z</time>
      </trkpt>
      <trkpt lat="43.47919" lon="-1.56741">
        <ele>8.6</ele>
        <time>2021-09-05T06:47:44Z</time>
      </trkpt>
      <trkpt lat="43.47918" lon="-1.56739">
        <ele>8.6</ele>
        <time>2021-09-05T06:47:45Z</time>
      </trkpt>
      <trkpt lat="43.47918" lon="-1.56739">
        <ele>8.6</ele>
        <time>2021-09-05T06:47:46Z</time>
      </trkpt>
      <trkpt lat="43.47916" lon="-1.56737">
        <ele>8.6</ele>
        <time>2021-09-05T06:47:47Z</time>
      </trkpt>
      <trkpt lat="43.47916" lon="-1.56737">
        <ele>8.6</ele>
        <time>2021-09-05T06:47:48Z</time>
      </trkpt>
      <trkpt lat="43.47913" lon="-1.56734">
        <ele>8.6</ele>
        <time>2021-09-05T06:47:49Z</time>
      </trkpt>
      <trkpt lat="43.47911" lon="-1.56733">
        <ele>8.6</ele>
        <time>2021-09-05T06:47:50Z</time>
      </trkpt>
      <trkpt lat="43.47911" lon="-1.56733">
        <ele>8.6</ele>
        <time>2021-09-05T06:47:51Z</time>
      </trkpt>
      <trkpt lat="43.47908" lon="-1.56728">
        <ele>8.6</ele>
        <time>2021-09-05T06:47:52Z</time>
      </trkpt>
      <trkpt lat="43.47907" lon="-1.56727">
        <ele>8.6</ele>
        <time>2021-09-05T06:47:53Z</time>
      </trkpt>
      <trkpt lat="43.47906" lon="-1.56725">
        <ele>8.6</ele>
        <time>2021-09-05T06:47:54Z</time>
      </trkpt>
      <trkpt lat="43.47904" lon="-1.56722">
        <ele>8.6</ele>
        <time>2021-09-05T06:47:55Z</time>
      </trkpt>
      <trkpt lat="43.47902" lon="-1.5672">
        <ele>8.6</ele>
        <time>2021-09-05T06:47:56Z</time>
      </trkpt>
      <trkpt lat="43.47901" lon="-1.56718">
        <ele>8.6</ele>
        <time>2021-09-05T06:47:57Z</time>
      </trkpt>
      <trkpt lat="43.47899" lon="-1.56716">
        <ele>8.6</ele>
        <time>2021-09-05T06:47:58Z</time>
      </trkpt>
      <trkpt lat="43.47898" lon="-1.56715">
        <ele>8.6</ele>
        <time>2021-09-05T06:47:59Z</time>
      </trkpt>
      <trkpt lat="43.47896" lon="-1.56713">
        <ele>8.6</ele>
        <time>2021-09-05T06:48:00Z</time>
      </trkpt>
      <trkpt lat="43.47894" lon="-1.56711">
        <ele>8.6</ele>
        <time>2021-09-05T06:48:01Z</time>
      </trkpt>
      <trkpt lat="43.47892" lon="-1.56709">
        <ele>8.6</ele>
        <time>2021-09-05T06:48:02Z</time>
      </trkpt>
      <trkpt lat="43.4789" lon="-1.56708">
        <ele>8.6</ele>
        <time>2021-09-05T06:48:03Z</time>
      </trkpt>
      <trkpt lat="43.47888" lon="-1.56707">
        <ele>8.6</ele>
        <time>2021-09-05T06:48:04Z</time>
      </trkpt>
      <trkpt lat="43.47886" lon="-1.56707">
        <ele>8.6</ele>
        <time>2021-09-05T06:48:05Z</time>
      </trkpt>
      <trkpt lat="43.47884" lon="-1.56706">
        <ele>8.6</ele>
        <time>2021-09-05T06:48:06Z</time>
      </trkpt>
      <trkpt lat="43.47881" lon="-1.56704">
        <ele>8.7</ele>
        <time>2021-09-05T06:48:07Z</time>
      </trkpt>
      <trkpt lat="43.47879" lon="-1.56703">
        <ele>8.7</ele>
        <time>2021-09-05T06:48:08Z</time>
      </trkpt>
      <trkpt lat="43.47877" lon="-1.56701">
        <ele>8.7</ele>
        <time>2021-09-05T06:48:09Z</time>
      </trkpt>
      <trkpt lat="43.47874" lon="-1.567">
        <ele>8.7</ele>
        <time>2021-09-05T06:48:10Z</time>
      </trkpt>
      <trkpt lat="43.47871" lon="-1.56699">
        <ele>8.7</ele>
        <time>2021-09-05T06:48:11Z</time>
      </trkpt>
      <trkpt lat="43.47868" lon="-1.56698">
        <ele>8.7</ele>
        <time>2021-09-05T06:48:12Z</time>
      </trkpt>
      <trkpt lat="43.47865" lon="-1.56697">
        <ele>8.7</ele>
        <time>2021-09-05T06:48:13Z</time>
      </trkpt>
      <trkpt lat="43.47861" lon="-1.56697">
        <ele>8.7</ele>
        <time>2021-09-05T06:48:14Z</time>
      </trkpt>
      <trkpt lat="43.47858" lon="-1.56696">
        <ele>8.7</ele>
        <time>2021-09-05T06:48:15Z</time>
      </trkpt>
      <trkpt lat="43.47855" lon="-1.56696">
        <ele>8.7</ele>
        <time>2021-09-05T06:48:16Z</time>
      </trkpt>
      <trkpt lat="43.47852" lon="-1.56696">
        <ele>8.7</ele>
        <time>2021-09-05T06:48:17Z</time>
      </trkpt>
      <trkpt lat="43.47848" lon="-1.56696">
        <ele>8.7</ele>
        <time>2021-09-05T06:48:18Z</time>
      </trkpt>
      <trkpt lat="43.47845" lon="-1.56696">
        <ele>8.7</ele>
        <time>2021-09-05T06:48:19Z</time>
      </trkpt>
      <trkpt lat="43.47842" lon="-1.56696">
        <ele>8.7</ele>
        <time>2021-09-05T06:48:20Z</time>
      </trkpt>
      <trkpt lat="43.47838" lon="-1.56696">
        <ele>8.7</ele>
        <time>2021-09-05T06:48:21Z</time>
      </trkpt>
      <trkpt lat="43.47834" lon="-1.56696">
        <ele>8.7</ele>
        <time>2021-09-05T06:48:22Z</time>
      </trkpt>
      <trkpt lat="43.47831" lon="-1.56696">
        <ele>8.7</ele>
        <time>2021-09-05T06:48:23Z</time>
      </trkpt>
      <trkpt lat="43.47827" lon="-1.56696">
        <ele>8.7</ele>
        <time>2021-09-05T06:48:24Z</time>
      </trkpt>
      <trkpt lat="43.47824" lon="-1.56696">
        <ele>8.7</ele>
        <time>2021-09-05T06:48:25Z</time>
      </trkpt>
      <trkpt lat="43.47821" lon="-1.56696">
        <ele>8.6</ele>
        <time>2021-09-05T06:48:26Z</time>
      </trkpt>
      <trkpt lat="43.47817" lon="-1.56696">
        <ele>8.6</ele>
        <time>2021-09-05T06:48:27Z</time>
      </trkpt>
      <trkpt lat="43.47814" lon="-1.56695">
        <ele>8.6</ele>
        <time>2021-09-05T06:48:28Z</time>
      </trkpt>
      <trkpt lat="43.4781" lon="-1.56695">
        <ele>8.6</ele>
        <time>2021-09-05T06:48:29Z</time>
      </trkpt>
      <trkpt lat="43.47807" lon="-1.56694">
        <ele>8.6</ele>
        <time>2021-09-05T06:48:30Z</time>
      </trkpt>
      <trkpt lat="43.47805" lon="-1.56694">
        <ele>8.6</ele>
        <time>2021-09-05T06:48:31Z</time>
      </trkpt>
      <trkpt lat="43.47803" lon="-1.56693">
        <ele>8.6</ele>
        <time>2021-09-05T06:48:32Z</time>
      </trkpt>
      <trkpt lat="43.47803" lon="-1.56693">
        <ele>8.6</ele>
        <time>2021-09-05T06:48:33Z</time>
      </trkpt>
      <trkpt lat="43.478" lon="-1.56692">
        <ele>8.6</ele>
        <time>2021-09-05T06:48:34Z</time>
      </trkpt>
      <trkpt lat="43.478" lon="-1.56692">
        <ele>8.6</ele>
        <time>2021-09-05T06:48:35Z</time>
      </trkpt>
      <trkpt lat="43.47798" lon="-1.56692">
        <ele>8.6</ele>
        <time>2021-09-05T06:48:36Z</time>
      </trkpt>
      <trkpt lat="43.47798" lon="-1.56692">
        <ele>8.6</ele>
        <time>2021-09-05T06:48:37Z</time>
      </trkpt>
      <trkpt lat="43.47794" lon="-1.56691">
        <ele>8.6</ele>
        <time>2021-09-05T06:48:38Z</time>
      </trkpt>
      <trkpt lat="43.47794" lon="-1.56691">
        <ele>8.6</ele>
        <time>2021-09-05T06:48:39Z</time>
      </trkpt>
      <trkpt lat="43.47791" lon="-1.56692">
        <ele>8.6</ele>
        <time>2021-09-05T06:48:40Z</time>
      </trkpt>
      <trkpt lat="43.47791" lon="-1.56692">
        <ele>8.6</ele>
        <time>2021-09-05T06:48:41Z</time>
      </trkpt>
      <trkpt lat="43.47789" lon="-1.56691">
        <ele>8.6</ele>
        <time>2021-09-05T06:48:42Z</time>
      </trkpt>
      <trkpt lat="43.47789" lon="-1.56691">
        <ele>8.6</ele>
        <time>2021-09-05T06:48:43Z</time>
      </trkpt>
      <trkpt lat="43.47788" lon="-1.56688">
        <ele>8.6</ele>
        <time>2021-09-05T06:48:44Z</time>
      </trkpt>
      <trkpt lat="43.47788" lon="-1.56688">
        <ele>8.6</ele>
        <time>2021-09-05T06:48:45Z</time>
      </trkpt>
      <trkpt lat="43.47787" lon="-1.56683">
        <ele>8.6</ele>
        <time>2021-09-05T06:48:46Z</time>
      </trkpt>
      <trkpt lat="43.47787" lon="-1.5668">
        <ele>8.6</ele>
        <time>2021-09-05T06:48:47Z</time>
      </trkpt>
      <trkpt lat="43.47787" lon="-1.56678">
        <ele>8.6</ele>
        <time>2021-09-05T06:48:48Z</time>
      </trkpt>
      <trkpt lat="43.47787" lon="-1.56678">
        <ele>8.6</ele>
        <time>2021-09-05T06:48:49Z</time>
      </trkpt>
      <trkpt lat="43.47791" lon="-1.56674">
        <ele>8.6</ele>
        <time>2021-09-05T06:48:50Z</time>
      </trkpt>
      <trkpt lat="43.47792" lon="-1.56674">
        <ele>8.6</ele>
        <time>2021-09-05T06:48:51Z</time>
      </trkpt>
      <trkpt lat="43.47796" lon="-1.56673">
        <ele>8.6</ele>
        <time>2021-09-05T06:48:52Z</time>
      </trkpt>
      <trkpt lat="43.47799" lon="-1.56673">
        <ele>8.6</ele>
        <time>2021-09-05T06:48:53Z</time>
      </trkpt>
      <trkpt lat="43.47803" lon="-1.56672">
        <ele>8.6</ele>
        <time>2021-09-05T06:48:54Z</time>
      </trkpt>
      <trkpt lat="43.47806" lon="-1.56672">
        <ele>8.6</ele>
        <time>2021-09-05T06:48:55Z</time>
      </trkpt>
      <trkpt lat="43.4781" lon="-1.5667">
        <ele>8.6</ele>
        <time>2021-09-05T06:48:56Z</time>
      </trkpt>
      <trkpt lat="43.47813" lon="-1.56669">
        <ele>8.6</ele>
        <time>2021-09-05T06:48:57Z</time>
      </trkpt>
      <trkpt lat="43.47817" lon="-1.56668">
        <ele>8.6</ele>
        <time>2021-09-05T06:48:58Z</time>
      </trkpt>
      <trkpt lat="43.47821" lon="-1.56667">
        <ele>8.6</ele>
        <time>2021-09-05T06:48:59Z</time>
      </trkpt>
      <trkpt lat="43.47824" lon="-1.56666">
        <ele>8.7</ele>
        <time>2021-09-05T06:49:00Z</time>
      </trkpt>
      <trkpt lat="43.47828" lon="-1.56666">
        <ele>8.7</ele>
        <time>2021-09-05T06:49:01Z</time>
      </trkpt>
      <trkpt lat="43.47831" lon="-1.56666">
        <ele>8.7</ele>
        <time>2021-09-05T06:49:02Z</time>
      </trkpt>
      <trkpt lat="43.47834" lon="-1.56666">
        <ele>8.7</ele>
        <time>2021-09-05T06:49:03Z</time>
      </trkpt>
      <trkpt lat="43.47838" lon="-1.56665">
        <ele>8.7</ele>
        <time>2021-09-05T06:49:04Z</time>
      </trkpt>
      <trkpt lat="43.47841" lon="-1.56665">
        <ele>8.7</ele>
        <time>2021-09-05T06:49:05Z</time>
      </trkpt>
      <trkpt lat="43.47845" lon="-1.56664">
        <ele>8.7</ele>
        <time>2021-09-05T06:49:06Z</time>
      </trkpt>
      <trkpt lat="43.47849" lon="-1.56664">
        <ele>8.7</ele>
        <time>2021-09-05T06:49:07Z</time>
      </trkpt>
      <trkpt lat="43.47853" lon="-1.56664">
        <ele>8.7</ele>
        <time>2021-09-05T06:49:08Z</time>
      </trkpt>
      <trkpt lat="43.47856" lon="-1.56662">
        <ele>8.7</ele>
        <time>2021-09-05T06:49:09Z</time>
      </trkpt>
      <trkpt lat="43.4786" lon="-1.5666">
        <ele>8.7</ele>
        <time>2021-09-05T06:49:10Z</time>
      </trkpt>
      <trkpt lat="43.47863" lon="-1.56659">
        <ele>8.7</ele>
        <time>2021-09-05T06:49:11Z</time>
      </trkpt>
      <trkpt lat="43.47867" lon="-1.56657">
        <ele>8.7</ele>
        <time>2021-09-05T06:49:12Z</time>
      </trkpt>
      <trkpt lat="43.4787" lon="-1.56656">
        <ele>8.7</ele>
        <time>2021-09-05T06:49:13Z</time>
      </trkpt>
      <trkpt lat="43.47874" lon="-1.56655">
        <ele>8.7</ele>
        <time>2021-09-05T06:49:14Z</time>
      </trkpt>
      <trkpt lat="43.47878" lon="-1.56654">
        <ele>8.7</ele>
        <time>2021-09-05T06:49:15Z</time>
      </trkpt>
      <trkpt lat="43.47882" lon="-1.56653">
        <ele>8.7</ele>
        <time>2021-09-05T06:49:16Z</time>
      </trkpt>
      <trkpt lat="43.47885" lon="-1.56652">
        <ele>8.6</ele>
        <time>2021-09-05T06:49:17Z</time>
      </trkpt>
      <trkpt lat="43.47889" lon="-1.56651">
        <ele>8.6</ele>
        <time>2021-09-05T06:49:18Z</time>
      </trkpt>
      <trkpt lat="43.47893" lon="-1.5665">
        <ele>8.6</ele>
        <time>2021-09-05T06:49:19Z</time>
      </trkpt>
      <trkpt lat="43.47897" lon="-1.5665">
        <ele>8.6</ele>
        <time>2021-09-05T06:49:20Z</time>
      </trkpt>
      <trkpt lat="43.47901" lon="-1.56649">
        <ele>8.6</ele>
        <time>2021-09-05T06:49:21Z</time>
      </trkpt>
      <trkpt lat="43.47905" lon="-1.56648">
        <ele>8.7</ele>
        <time>2021-09-05T06:49:22Z</time>
      </trkpt>
      <trkpt lat="43.47909" lon="-1.56647">
        <ele>8.7</ele>
        <time>2021-09-05T06:49:23Z</time>
      </trkpt>
      <trkpt lat="43.47912" lon="-1.56646">
        <ele>8.7</ele>
        <time>2021-09-05T06:49:24Z</time>
      </trkpt>
      <trkpt lat="43.47916" lon="-1.56645">
        <ele>8.7</ele>
        <time>2021-09-05T06:49:25Z</time>
      </trkpt>
      <trkpt lat="43.47919" lon="-1.56645">
        <ele>8.7</ele>
        <time>2021-09-05T06:49:26Z</time>
      </trkpt>
      <trkpt lat="43.47923" lon="-1.56644">
        <ele>8.7</ele>
        <time>2021-09-05T06:49:27Z</time>
      </trkpt>
      <trkpt lat="43.47927" lon="-1.56643">
        <ele>8.7</ele>
        <time>2021-09-05T06:49:28Z</time>
      </trkpt>
      <trkpt lat="43.4793" lon="-1.56641">
        <ele>8.7</ele>
        <time>2021-09-05T06:49:29Z</time>
      </trkpt>
      <trkpt lat="43.47933" lon="-1.56639">
        <ele>8.7</ele>
        <time>2021-09-05T06:49:30Z</time>
      </trkpt>
      <trkpt lat="43.47938" lon="-1.56638">
        <ele>8.7</ele>
        <time>2021-09-05T06:49:31Z</time>
      </trkpt>
      <trkpt lat="43.47942" lon="-1.56637">
        <ele>8.7</ele>
        <time>2021-09-05T06:49:32Z</time>
      </trkpt>
      <trkpt lat="43.47946" lon="-1.56636">
        <ele>8.7</ele>
        <time>2021-09-05T06:49:33Z</time>
      </trkpt>
      <trkpt lat="43.47949" lon="-1.56634">
        <ele>8.7</ele>
        <time>2021-09-05T06:49:34Z</time>
      </trkpt>
      <trkpt lat="43.47952" lon="-1.56633">
        <ele>8.7</ele>
        <time>2021-09-05T06:49:35Z</time>
      </trkpt>
      <trkpt lat="43.47955" lon="-1.56631">
        <ele>8.6</ele>
        <time>2021-09-05T06:49:36Z</time>
      </trkpt>
      <trkpt lat="43.47958" lon="-1.56629">
        <ele>8.6</ele>
        <time>2021-09-05T06:49:37Z</time>
      </trkpt>
      <trkpt lat="43.47961" lon="-1.56627">
        <ele>8.6</ele>
        <time>2021-09-05T06:49:38Z</time>
      </trkpt>
      <trkpt lat="43.47964" lon="-1.56625">
        <ele>8.6</ele>
        <time>2021-09-05T06:49:39Z</time>
      </trkpt>
      <trkpt lat="43.47967" lon="-1.56624">
        <ele>8.6</ele>
        <time>2021-09-05T06:49:40Z</time>
      </trkpt>
      <trkpt lat="43.4797" lon="-1.56623">
        <ele>8.6</ele>
        <time>2021-09-05T06:49:41Z</time>
      </trkpt>
      <trkpt lat="43.47973" lon="-1.56623">
        <ele>8.6</ele>
        <time>2021-09-05T06:49:42Z</time>
      </trkpt>
      <trkpt lat="43.47974" lon="-1.56622">
        <ele>8.6</ele>
        <time>2021-09-05T06:49:43Z</time>
      </trkpt>
      <trkpt lat="43.47977" lon="-1.56622">
        <ele>8.5</ele>
        <time>2021-09-05T06:49:44Z</time>
      </trkpt>
      <trkpt lat="43.47979" lon="-1.5662">
        <ele>8.5</ele>
        <time>2021-09-05T06:49:45Z</time>
      </trkpt>
      <trkpt lat="43.47982" lon="-1.56619">
        <ele>8.5</ele>
        <time>2021-09-05T06:49:46Z</time>
      </trkpt>
      <trkpt lat="43.47984" lon="-1.56618">
        <ele>8.5</ele>
        <time>2021-09-05T06:49:47Z</time>
      </trkpt>
      <trkpt lat="43.47987" lon="-1.56616">
        <ele>8.5</ele>
        <time>2021-09-05T06:49:48Z</time>
      </trkpt>
      <trkpt lat="43.47989" lon="-1.56614">
        <ele>8.5</ele>
        <time>2021-09-05T06:49:49Z</time>
      </trkpt>
      <trkpt lat="43.47991" lon="-1.56612">
        <ele>8.5</ele>
        <time>2021-09-05T06:49:50Z</time>
      </trkpt>
      <trkpt lat="43.47991" lon="-1.56612">
        <ele>8.5</ele>
        <time>2021-09-05T06:49:51Z</time>
      </trkpt>
      <trkpt lat="43.47995" lon="-1.56608">
        <ele>8.5</ele>
        <time>2021-09-05T06:49:52Z</time>
      </trkpt>
      <trkpt lat="43.47996" lon="-1.56607">
        <ele>8.3</ele>
        <time>2021-09-05T06:49:53Z</time>
      </trkpt>
      <trkpt lat="43.47996" lon="-1.56607">
        <ele>8.4</ele>
        <time>2021-09-05T06:49:54Z</time>
      </trkpt>
      <trkpt lat="43.47995" lon="-1.56605">
        <ele>12.1</ele>
        <time>2021-09-05T06:49:55Z</time>
      </trkpt>
      <trkpt lat="43.47995" lon="-1.56605">
        <ele>12.2</ele>
        <time>2021-09-05T06:49:56Z</time>
      </trkpt>
      <trkpt lat="43.47992" lon="-1.56603">
        <ele>12.4</ele>
        <time>2021-09-05T06:49:57Z</time>
      </trkpt>
      <trkpt lat="43.4799" lon="-1.56603">
        <ele>12.5</ele>
        <time>2021-09-05T06:49:58Z</time>
      </trkpt>
      <trkpt lat="43.47987" lon="-1.56604">
        <ele>12.8</ele>
        <time>2021-09-05T06:49:59Z</time>
      </trkpt>
      <trkpt lat="43.47983" lon="-1.56604">
        <ele>13</ele>
        <time>2021-09-05T06:50:00Z</time>
      </trkpt>
      <trkpt lat="43.47982" lon="-1.56605">
        <ele>13.2</ele>
        <time>2021-09-05T06:50:01Z</time>
      </trkpt>
      <trkpt lat="43.47979" lon="-1.56604">
        <ele>13.4</ele>
        <time>2021-09-05T06:50:02Z</time>
      </trkpt>
      <trkpt lat="43.47979" lon="-1.56604">
        <ele>13.5</ele>
        <time>2021-09-05T06:50:03Z</time>
      </trkpt>
      <trkpt lat="43.47979" lon="-1.56604">
        <ele>13.6</ele>
        <time>2021-09-05T06:50:04Z</time>
      </trkpt>
      <trkpt lat="43.47981" lon="-1.56602">
        <ele>16.4</ele>
        <time>2021-09-05T06:50:05Z</time>
      </trkpt>
      <trkpt lat="43.47982" lon="-1.566">
        <ele>16.5</ele>
        <time>2021-09-05T06:50:06Z</time>
      </trkpt>
      <trkpt lat="43.47984" lon="-1.56599">
        <ele>16.5</ele>
        <time>2021-09-05T06:50:07Z</time>
      </trkpt>
      <trkpt lat="43.47986" lon="-1.56597">
        <ele>18.8</ele>
        <time>2021-09-05T06:50:08Z</time>
      </trkpt>
      <trkpt lat="43.47988" lon="-1.56596">
        <ele>18.9</ele>
        <time>2021-09-05T06:50:09Z</time>
      </trkpt>
      <trkpt lat="43.47988" lon="-1.56596">
        <ele>19</ele>
        <time>2021-09-05T06:50:10Z</time>
      </trkpt>
      <trkpt lat="43.4799" lon="-1.56592">
        <ele>20.8</ele>
        <time>2021-09-05T06:50:11Z</time>
      </trkpt>
      <trkpt lat="43.4799" lon="-1.56592">
        <ele>20.9</ele>
        <time>2021-09-05T06:50:12Z</time>
      </trkpt>
      <trkpt lat="43.47988" lon="-1.56589">
        <ele>22.1</ele>
        <time>2021-09-05T06:50:13Z</time>
      </trkpt>
      <trkpt lat="43.47988" lon="-1.56589">
        <ele>22.2</ele>
        <time>2021-09-05T06:50:14Z</time>
      </trkpt>
      <trkpt lat="43.47985" lon="-1.56589">
        <ele>22.2</ele>
        <time>2021-09-05T06:50:15Z</time>
      </trkpt>
      <trkpt lat="43.47985" lon="-1.56589">
        <ele>22.3</ele>
        <time>2021-09-05T06:50:16Z</time>
      </trkpt>
      <trkpt lat="43.47982" lon="-1.5659">
        <ele>21.3</ele>
        <time>2021-09-05T06:50:17Z</time>
      </trkpt>
      <trkpt lat="43.47979" lon="-1.5659">
        <ele>21.4</ele>
        <time>2021-09-05T06:50:18Z</time>
      </trkpt>
      <trkpt lat="43.47977" lon="-1.5659">
        <ele>21.5</ele>
        <time>2021-09-05T06:50:19Z</time>
      </trkpt>
      <trkpt lat="43.47977" lon="-1.5659">
        <ele>21.6</ele>
        <time>2021-09-05T06:50:20Z</time>
      </trkpt>
      <trkpt lat="43.47975" lon="-1.56589">
        <ele>22.8</ele>
        <time>2021-09-05T06:50:21Z</time>
      </trkpt>
      <trkpt lat="43.47975" lon="-1.56589">
        <ele>22.9</ele>
        <time>2021-09-05T06:50:22Z</time>
      </trkpt>
      <trkpt lat="43.47975" lon="-1.56586">
        <ele>22.9</ele>
        <time>2021-09-05T06:50:23Z</time>
      </trkpt>
      <trkpt lat="43.47975" lon="-1.56586">
        <ele>23</ele>
        <time>2021-09-05T06:50:24Z</time>
      </trkpt>
      <trkpt lat="43.47978" lon="-1.56584">
        <ele>23.7</ele>
        <time>2021-09-05T06:50:25Z</time>
      </trkpt>
      <trkpt lat="43.47978" lon="-1.56584">
        <ele>23.8</ele>
        <time>2021-09-05T06:50:26Z</time>
      </trkpt>
      <trkpt lat="43.4798" lon="-1.56582">
        <ele>23.9</ele>
        <time>2021-09-05T06:50:27Z</time>
      </trkpt>
      <trkpt lat="43.4798" lon="-1.56582">
        <ele>24</ele>
        <time>2021-09-05T06:50:28Z</time>
      </trkpt>
      <trkpt lat="43.47983" lon="-1.56579">
        <ele>24.5</ele>
        <time>2021-09-05T06:50:29Z</time>
      </trkpt>
      <trkpt lat="43.47985" lon="-1.56576">
        <ele>24.9</ele>
        <time>2021-09-05T06:50:30Z</time>
      </trkpt>
      <trkpt lat="43.47986" lon="-1.56574">
        <ele>25</ele>
        <time>2021-09-05T06:50:31Z</time>
      </trkpt>
      <trkpt lat="43.47986" lon="-1.56574">
        <ele>25.1</ele>
        <time>2021-09-05T06:50:32Z</time>
      </trkpt>
      <trkpt lat="43.47984" lon="-1.56572">
        <ele>25.5</ele>
        <time>2021-09-05T06:50:33Z</time>
      </trkpt>
      <trkpt lat="43.47984" lon="-1.56572">
        <ele>25.5</ele>
        <time>2021-09-05T06:50:34Z</time>
      </trkpt>
      <trkpt lat="43.47981" lon="-1.56572">
        <ele>25.6</ele>
        <time>2021-09-05T06:50:35Z</time>
      </trkpt>
      <trkpt lat="43.47979" lon="-1.56573">
        <ele>25.4</ele>
        <time>2021-09-05T06:50:36Z</time>
      </trkpt>
      <trkpt lat="43.47977" lon="-1.56573">
        <ele>25.5</ele>
        <time>2021-09-05T06:50:37Z</time>
      </trkpt>
      <trkpt lat="43.47974" lon="-1.56574">
        <ele>25.6</ele>
        <time>2021-09-05T06:50:38Z</time>
      </trkpt>
      <trkpt lat="43.47972" lon="-1.56574">
        <ele>25.7</ele>
        <time>2021-09-05T06:50:39Z</time>
      </trkpt>
      <trkpt lat="43.47972" lon="-1.56574">
        <ele>25.8</ele>
        <time>2021-09-05T06:50:40Z</time>
      </trkpt>
      <trkpt lat="43.47972" lon="-1.56574">
        <ele>25.9</ele>
        <time>2021-09-05T06:50:41Z</time>
      </trkpt>
      <trkpt lat="43.47973" lon="-1.56571">
        <ele>26.2</ele>
        <time>2021-09-05T06:50:42Z</time>
      </trkpt>
      <trkpt lat="43.47973" lon="-1.56571">
        <ele>26.3</ele>
        <time>2021-09-05T06:50:43Z</time>
      </trkpt>
      <trkpt lat="43.47975" lon="-1.56569">
        <ele>26.3</ele>
        <time>2021-09-05T06:50:44Z</time>
      </trkpt>
      <trkpt lat="43.47976" lon="-1.56568">
        <ele>26.8</ele>
        <time>2021-09-05T06:50:45Z</time>
      </trkpt>
      <trkpt lat="43.47976" lon="-1.56568">
        <ele>26.9</ele>
        <time>2021-09-05T06:50:46Z</time>
      </trkpt>
      <trkpt lat="43.47979" lon="-1.56566">
        <ele>27</ele>
        <time>2021-09-05T06:50:47Z</time>
      </trkpt>
      <trkpt lat="43.47979" lon="-1.56566">
        <ele>27.1</ele>
        <time>2021-09-05T06:50:48Z</time>
      </trkpt>
      <trkpt lat="43.47981" lon="-1.56563">
        <ele>27.9</ele>
        <time>2021-09-05T06:50:49Z</time>
      </trkpt>
      <trkpt lat="43.47981" lon="-1.56563">
        <ele>28</ele>
        <time>2021-09-05T06:50:50Z</time>
      </trkpt>
      <trkpt lat="43.47978" lon="-1.56561">
        <ele>28</ele>
        <time>2021-09-05T06:50:51Z</time>
      </trkpt>
      <trkpt lat="43.47978" lon="-1.56561">
        <ele>28.1</ele>
        <time>2021-09-05T06:50:52Z</time>
      </trkpt>
      <trkpt lat="43.47974" lon="-1.56561">
        <ele>28.2</ele>
        <time>2021-09-05T06:50:53Z</time>
      </trkpt>
      <trkpt lat="43.47972" lon="-1.5656">
        <ele>28.3</ele>
        <time>2021-09-05T06:50:54Z</time>
      </trkpt>
      <trkpt lat="43.4797" lon="-1.56561">
        <ele>28.4</ele>
        <time>2021-09-05T06:50:55Z</time>
      </trkpt>
      <trkpt lat="43.47968" lon="-1.56561">
        <ele>28.5</ele>
        <time>2021-09-05T06:50:56Z</time>
      </trkpt>
      <trkpt lat="43.47966" lon="-1.56561">
        <ele>28.6</ele>
        <time>2021-09-05T06:50:57Z</time>
      </trkpt>
      <trkpt lat="43.47966" lon="-1.56561">
        <ele>28.6</ele>
        <time>2021-09-05T06:50:58Z</time>
      </trkpt>
      <trkpt lat="43.47963" lon="-1.5656">
        <ele>28.7</ele>
        <time>2021-09-05T06:50:59Z</time>
      </trkpt>
      <trkpt lat="43.47963" lon="-1.5656">
        <ele>28.7</ele>
        <time>2021-09-05T06:51:00Z</time>
      </trkpt>
      <trkpt lat="43.47965" lon="-1.56559">
        <ele>28.8</ele>
        <time>2021-09-05T06:51:01Z</time>
      </trkpt>
      <trkpt lat="43.47965" lon="-1.56559">
        <ele>28.8</ele>
        <time>2021-09-05T06:51:02Z</time>
      </trkpt>
      <trkpt lat="43.47968" lon="-1.56557">
        <ele>28.9</ele>
        <time>2021-09-05T06:51:03Z</time>
      </trkpt>
      <trkpt lat="43.4797" lon="-1.56556">
        <ele>29</ele>
        <time>2021-09-05T06:51:04Z</time>
      </trkpt>
      <trkpt lat="43.47973" lon="-1.56554">
        <ele>29.1</ele>
        <time>2021-09-05T06:51:05Z</time>
      </trkpt>
      <trkpt lat="43.47976" lon="-1.56552">
        <ele>29.3</ele>
        <time>2021-09-05T06:51:06Z</time>
      </trkpt>
      <trkpt lat="43.47976" lon="-1.56552">
        <ele>29.3</ele>
        <time>2021-09-05T06:51:07Z</time>
      </trkpt>
      <trkpt lat="43.47976" lon="-1.56549">
        <ele>29.4</ele>
        <time>2021-09-05T06:51:08Z</time>
      </trkpt>
      <trkpt lat="43.47974" lon="-1.56548">
        <ele>29.4</ele>
        <time>2021-09-05T06:51:09Z</time>
      </trkpt>
      <trkpt lat="43.47973" lon="-1.56548">
        <ele>29.5</ele>
        <time>2021-09-05T06:51:10Z</time>
      </trkpt>
      <trkpt lat="43.47973" lon="-1.56548">
        <ele>29.5</ele>
        <time>2021-09-05T06:51:11Z</time>
      </trkpt>
      <trkpt lat="43.4797" lon="-1.56548">
        <ele>29.6</ele>
        <time>2021-09-05T06:51:12Z</time>
      </trkpt>
      <trkpt lat="43.4797" lon="-1.56548">
        <ele>29.6</ele>
        <time>2021-09-05T06:51:13Z</time>
      </trkpt>
      <trkpt lat="43.47968" lon="-1.56546">
        <ele>29.8</ele>
        <time>2021-09-05T06:51:14Z</time>
      </trkpt>
      <trkpt lat="43.47968" lon="-1.56546">
        <ele>29.8</ele>
        <time>2021-09-05T06:51:15Z</time>
      </trkpt>
      <trkpt lat="43.47964" lon="-1.56545">
        <ele>29.9</ele>
        <time>2021-09-05T06:51:16Z</time>
      </trkpt>
      <trkpt lat="43.47962" lon="-1.56545">
        <ele>30</ele>
        <time>2021-09-05T06:51:17Z</time>
      </trkpt>
      <trkpt lat="43.47959" lon="-1.56544">
        <ele>30.1</ele>
        <time>2021-09-05T06:51:18Z</time>
      </trkpt>
      <trkpt lat="43.47959" lon="-1.56544">
        <ele>30.1</ele>
        <time>2021-09-05T06:51:19Z</time>
      </trkpt>
      <trkpt lat="43.47955" lon="-1.56543">
        <ele>31.5</ele>
        <time>2021-09-05T06:51:20Z</time>
      </trkpt>
      <trkpt lat="43.47955" lon="-1.56543">
        <ele>31.5</ele>
        <time>2021-09-05T06:51:21Z</time>
      </trkpt>
      <trkpt lat="43.47951" lon="-1.56543">
        <ele>33</ele>
        <time>2021-09-05T06:51:22Z</time>
      </trkpt>
      <trkpt lat="43.4795" lon="-1.56542">
        <ele>33.8</ele>
        <time>2021-09-05T06:51:23Z</time>
      </trkpt>
      <trkpt lat="43.47948" lon="-1.56541">
        <ele>34.6</ele>
        <time>2021-09-05T06:51:24Z</time>
      </trkpt>
      <trkpt lat="43.47945" lon="-1.5654">
        <ele>35.6</ele>
        <time>2021-09-05T06:51:25Z</time>
      </trkpt>
      <trkpt lat="43.47941" lon="-1.56541">
        <ele>37.2</ele>
        <time>2021-09-05T06:51:26Z</time>
      </trkpt>
      <trkpt lat="43.47938" lon="-1.56541">
        <ele>38.4</ele>
        <time>2021-09-05T06:51:27Z</time>
      </trkpt>
      <trkpt lat="43.47935" lon="-1.56542">
        <ele>39.6</ele>
        <time>2021-09-05T06:51:28Z</time>
      </trkpt>
      <trkpt lat="43.47932" lon="-1.56542">
        <ele>40.7</ele>
        <time>2021-09-05T06:51:29Z</time>
      </trkpt>
      <trkpt lat="43.47929" lon="-1.56542">
        <ele>41.8</ele>
        <time>2021-09-05T06:51:30Z</time>
      </trkpt>
      <trkpt lat="43.47925" lon="-1.56542">
        <ele>43</ele>
        <time>2021-09-05T06:51:31Z</time>
      </trkpt>
      <trkpt lat="43.47922" lon="-1.56542">
        <ele>44.2</ele>
        <time>2021-09-05T06:51:32Z</time>
      </trkpt>
      <trkpt lat="43.47918" lon="-1.56541">
        <ele>45.2</ele>
        <time>2021-09-05T06:51:33Z</time>
      </trkpt>
      <trkpt lat="43.47915" lon="-1.56541">
        <ele>46.4</ele>
        <time>2021-09-05T06:51:34Z</time>
      </trkpt>
      <trkpt lat="43.47912" lon="-1.5654">
        <ele>47.5</ele>
        <time>2021-09-05T06:51:35Z</time>
      </trkpt>
      <trkpt lat="43.47909" lon="-1.56538">
        <ele>47.6</ele>
        <time>2021-09-05T06:51:36Z</time>
      </trkpt>
      <trkpt lat="43.47906" lon="-1.56536">
        <ele>47.7</ele>
        <time>2021-09-05T06:51:37Z</time>
      </trkpt>
      <trkpt lat="43.47903" lon="-1.56533">
        <ele>47.7</ele>
        <time>2021-09-05T06:51:38Z</time>
      </trkpt>
      <trkpt lat="43.47901" lon="-1.56531">
        <ele>47.8</ele>
        <time>2021-09-05T06:51:39Z</time>
      </trkpt>
      <trkpt lat="43.47898" lon="-1.56528">
        <ele>47.8</ele>
        <time>2021-09-05T06:51:40Z</time>
      </trkpt>
      <trkpt lat="43.47896" lon="-1.56524">
        <ele>47.8</ele>
        <time>2021-09-05T06:51:41Z</time>
      </trkpt>
      <trkpt lat="43.47893" lon="-1.5652">
        <ele>47.9</ele>
        <time>2021-09-05T06:51:42Z</time>
      </trkpt>
      <trkpt lat="43.47892" lon="-1.56516">
        <ele>47.9</ele>
        <time>2021-09-05T06:51:43Z</time>
      </trkpt>
      <trkpt lat="43.4789" lon="-1.56511">
        <ele>47.9</ele>
        <time>2021-09-05T06:51:44Z</time>
      </trkpt>
      <trkpt lat="43.47888" lon="-1.56507">
        <ele>48</ele>
        <time>2021-09-05T06:51:45Z</time>
      </trkpt>
      <trkpt lat="43.47885" lon="-1.56504">
        <ele>48</ele>
        <time>2021-09-05T06:51:46Z</time>
      </trkpt>
      <trkpt lat="43.47883" lon="-1.56501">
        <ele>48</ele>
        <time>2021-09-05T06:51:47Z</time>
      </trkpt>
      <trkpt lat="43.47879" lon="-1.56499">
        <ele>48</ele>
        <time>2021-09-05T06:51:48Z</time>
      </trkpt>
      <trkpt lat="43.47875" lon="-1.56497">
        <ele>48</ele>
        <time>2021-09-05T06:51:49Z</time>
      </trkpt>
      <trkpt lat="43.47871" lon="-1.56497">
        <ele>48</ele>
        <time>2021-09-05T06:51:50Z</time>
      </trkpt>
      <trkpt lat="43.47868" lon="-1.56496">
        <ele>47.9</ele>
        <time>2021-09-05T06:51:51Z</time>
      </trkpt>
      <trkpt lat="43.47864" lon="-1.56496">
        <ele>47.9</ele>
        <time>2021-09-05T06:51:52Z</time>
      </trkpt>
      <trkpt lat="43.4786" lon="-1.56495">
        <ele>47.8</ele>
        <time>2021-09-05T06:51:53Z</time>
      </trkpt>
      <trkpt lat="43.47856" lon="-1.56495">
        <ele>47.8</ele>
        <time>2021-09-05T06:51:54Z</time>
      </trkpt>
      <trkpt lat="43.47852" lon="-1.56496">
        <ele>47.7</ele>
        <time>2021-09-05T06:51:55Z</time>
      </trkpt>
      <trkpt lat="43.47847" lon="-1.56497">
        <ele>47.7</ele>
        <time>2021-09-05T06:51:56Z</time>
      </trkpt>
      <trkpt lat="43.47843" lon="-1.56498">
        <ele>47.6</ele>
        <time>2021-09-05T06:51:57Z</time>
      </trkpt>
      <trkpt lat="43.47839" lon="-1.56499">
        <ele>47.6</ele>
        <time>2021-09-05T06:51:58Z</time>
      </trkpt>
      <trkpt lat="43.47835" lon="-1.565">
        <ele>47.5</ele>
        <time>2021-09-05T06:51:59Z</time>
      </trkpt>
      <trkpt lat="43.47831" lon="-1.56501">
        <ele>47.5</ele>
        <time>2021-09-05T06:52:00Z</time>
      </trkpt>
      <trkpt lat="43.47827" lon="-1.56502">
        <ele>47.5</ele>
        <time>2021-09-05T06:52:01Z</time>
      </trkpt>
      <trkpt lat="43.47823" lon="-1.56503">
        <ele>47.5</ele>
        <time>2021-09-05T06:52:02Z</time>
      </trkpt>
      <trkpt lat="43.47819" lon="-1.56504">
        <ele>47.5</ele>
        <time>2021-09-05T06:52:03Z</time>
      </trkpt>
      <trkpt lat="43.47814" lon="-1.56505">
        <ele>47.5</ele>
        <time>2021-09-05T06:52:04Z</time>
      </trkpt>
      <trkpt lat="43.4781" lon="-1.56507">
        <ele>47.5</ele>
        <time>2021-09-05T06:52:05Z</time>
      </trkpt>
      <trkpt lat="43.47806" lon="-1.56509">
        <ele>47.5</ele>
        <time>2021-09-05T06:52:06Z</time>
      </trkpt>
      <trkpt lat="43.47803" lon="-1.5651">
        <ele>47.5</ele>
        <time>2021-09-05T06:52:07Z</time>
      </trkpt>
      <trkpt lat="43.47799" lon="-1.56512">
        <ele>47.5</ele>
        <time>2021-09-05T06:52:08Z</time>
      </trkpt>
      <trkpt lat="43.47796" lon="-1.56513">
        <ele>47.5</ele>
        <time>2021-09-05T06:52:09Z</time>
      </trkpt>
      <trkpt lat="43.47792" lon="-1.56515">
        <ele>47.5</ele>
        <time>2021-09-05T06:52:10Z</time>
      </trkpt>
      <trkpt lat="43.47789" lon="-1.56516">
        <ele>47.5</ele>
        <time>2021-09-05T06:52:11Z</time>
      </trkpt>
      <trkpt lat="43.47785" lon="-1.56518">
        <ele>47.5</ele>
        <time>2021-09-05T06:52:12Z</time>
      </trkpt>
      <trkpt lat="43.47781" lon="-1.56521">
        <ele>47.5</ele>
        <time>2021-09-05T06:52:13Z</time>
      </trkpt>
      <trkpt lat="43.47778" lon="-1.56522">
        <ele>47.5</ele>
        <time>2021-09-05T06:52:14Z</time>
      </trkpt>
      <trkpt lat="43.47774" lon="-1.56524">
        <ele>47.5</ele>
        <time>2021-09-05T06:52:15Z</time>
      </trkpt>
      <trkpt lat="43.47771" lon="-1.56526">
        <ele>47.6</ele>
        <time>2021-09-05T06:52:16Z</time>
      </trkpt>
      <trkpt lat="43.47768" lon="-1.56528">
        <ele>47.6</ele>
        <time>2021-09-05T06:52:17Z</time>
      </trkpt>
      <trkpt lat="43.47764" lon="-1.5653">
        <ele>47.7</ele>
        <time>2021-09-05T06:52:18Z</time>
      </trkpt>
      <trkpt lat="43.4776" lon="-1.56532">
        <ele>47.7</ele>
        <time>2021-09-05T06:52:19Z</time>
      </trkpt>
      <trkpt lat="43.47757" lon="-1.56534">
        <ele>47.8</ele>
        <time>2021-09-05T06:52:20Z</time>
      </trkpt>
      <trkpt lat="43.47753" lon="-1.56536">
        <ele>47.8</ele>
        <time>2021-09-05T06:52:21Z</time>
      </trkpt>
      <trkpt lat="43.47749" lon="-1.56538">
        <ele>47.9</ele>
        <time>2021-09-05T06:52:22Z</time>
      </trkpt>
      <trkpt lat="43.47746" lon="-1.56539">
        <ele>47.9</ele>
        <time>2021-09-05T06:52:23Z</time>
      </trkpt>
      <trkpt lat="43.47742" lon="-1.5654">
        <ele>48</ele>
        <time>2021-09-05T06:52:24Z</time>
      </trkpt>
      <trkpt lat="43.47738" lon="-1.56541">
        <ele>48</ele>
        <time>2021-09-05T06:52:25Z</time>
      </trkpt>
      <trkpt lat="43.47734" lon="-1.56542">
        <ele>48.1</ele>
        <time>2021-09-05T06:52:26Z</time>
      </trkpt>
      <trkpt lat="43.4773" lon="-1.56544">
        <ele>48.2</ele>
        <time>2021-09-05T06:52:27Z</time>
      </trkpt>
      <trkpt lat="43.47726" lon="-1.56546">
        <ele>48.3</ele>
        <time>2021-09-05T06:52:28Z</time>
      </trkpt>
      <trkpt lat="43.47723" lon="-1.56548">
        <ele>48.3</ele>
        <time>2021-09-05T06:52:29Z</time>
      </trkpt>
      <trkpt lat="43.4772" lon="-1.56549">
        <ele>48.4</ele>
        <time>2021-09-05T06:52:30Z</time>
      </trkpt>
      <trkpt lat="43.47716" lon="-1.56551">
        <ele>48.4</ele>
        <time>2021-09-05T06:52:31Z</time>
      </trkpt>
      <trkpt lat="43.47713" lon="-1.56553">
        <ele>48.4</ele>
        <time>2021-09-05T06:52:32Z</time>
      </trkpt>
      <trkpt lat="43.4771" lon="-1.56555">
        <ele>48.4</ele>
        <time>2021-09-05T06:52:33Z</time>
      </trkpt>
      <trkpt lat="43.47707" lon="-1.56558">
        <ele>48.3</ele>
        <time>2021-09-05T06:52:34Z</time>
      </trkpt>
      <trkpt lat="43.47706" lon="-1.56561">
        <ele>48.1</ele>
        <time>2021-09-05T06:52:35Z</time>
      </trkpt>
      <trkpt lat="43.47704" lon="-1.56566">
        <ele>47.9</ele>
        <time>2021-09-05T06:52:36Z</time>
      </trkpt>
      <trkpt lat="43.47703" lon="-1.56573">
        <ele>47.6</ele>
        <time>2021-09-05T06:52:37Z</time>
      </trkpt>
      <trkpt lat="43.47702" lon="-1.56579">
        <ele>47.3</ele>
        <time>2021-09-05T06:52:38Z</time>
      </trkpt>
      <trkpt lat="43.47702" lon="-1.56584">
        <ele>47.3</ele>
        <time>2021-09-05T06:52:39Z</time>
      </trkpt>
      <trkpt lat="43.47701" lon="-1.56587">
        <ele>47.3</ele>
        <time>2021-09-05T06:52:40Z</time>
      </trkpt>
      <trkpt lat="43.47699" lon="-1.56589">
        <ele>47.2</ele>
        <time>2021-09-05T06:52:41Z</time>
      </trkpt>
      <trkpt lat="43.47696" lon="-1.56591">
        <ele>47.2</ele>
        <time>2021-09-05T06:52:42Z</time>
      </trkpt>
      <trkpt lat="43.47692" lon="-1.56593">
        <ele>47.2</ele>
        <time>2021-09-05T06:52:43Z</time>
      </trkpt>
      <trkpt lat="43.47688" lon="-1.56595">
        <ele>47.2</ele>
        <time>2021-09-05T06:52:44Z</time>
      </trkpt>
      <trkpt lat="43.47684" lon="-1.56597">
        <ele>47.1</ele>
        <time>2021-09-05T06:52:45Z</time>
      </trkpt>
      <trkpt lat="43.47679" lon="-1.566">
        <ele>47.1</ele>
        <time>2021-09-05T06:52:46Z</time>
      </trkpt>
      <trkpt lat="43.47675" lon="-1.56602">
        <ele>47</ele>
        <time>2021-09-05T06:52:47Z</time>
      </trkpt>
      <trkpt lat="43.47671" lon="-1.56604">
        <ele>47</ele>
        <time>2021-09-05T06:52:48Z</time>
      </trkpt>
      <trkpt lat="43.47667" lon="-1.56606">
        <ele>46.9</ele>
        <time>2021-09-05T06:52:49Z</time>
      </trkpt>
      <trkpt lat="43.47663" lon="-1.56608">
        <ele>46.9</ele>
        <time>2021-09-05T06:52:50Z</time>
      </trkpt>
      <trkpt lat="43.47659" lon="-1.5661">
        <ele>46.8</ele>
        <time>2021-09-05T06:52:51Z</time>
      </trkpt>
      <trkpt lat="43.47655" lon="-1.56613">
        <ele>46.7</ele>
        <time>2021-09-05T06:52:52Z</time>
      </trkpt>
      <trkpt lat="43.47651" lon="-1.56615">
        <ele>46.7</ele>
        <time>2021-09-05T06:52:53Z</time>
      </trkpt>
      <trkpt lat="43.47647" lon="-1.56616">
        <ele>46.6</ele>
        <time>2021-09-05T06:52:54Z</time>
      </trkpt>
      <trkpt lat="43.47643" lon="-1.56618">
        <ele>46.6</ele>
        <time>2021-09-05T06:52:55Z</time>
      </trkpt>
      <trkpt lat="43.47639" lon="-1.5662">
        <ele>46.5</ele>
        <time>2021-09-05T06:52:56Z</time>
      </trkpt>
      <trkpt lat="43.47635" lon="-1.56621">
        <ele>46.4</ele>
        <time>2021-09-05T06:52:57Z</time>
      </trkpt>
      <trkpt lat="43.47631" lon="-1.56622">
        <ele>46.4</ele>
        <time>2021-09-05T06:52:58Z</time>
      </trkpt>
      <trkpt lat="43.47627" lon="-1.56624">
        <ele>46.4</ele>
        <time>2021-09-05T06:52:59Z</time>
      </trkpt>
      <trkpt lat="43.47623" lon="-1.56625">
        <ele>46.5</ele>
        <time>2021-09-05T06:53:00Z</time>
      </trkpt>
      <trkpt lat="43.47619" lon="-1.56626">
        <ele>46.5</ele>
        <time>2021-09-05T06:53:01Z</time>
      </trkpt>
      <trkpt lat="43.47615" lon="-1.56628">
        <ele>46.6</ele>
        <time>2021-09-05T06:53:02Z</time>
      </trkpt>
      <trkpt lat="43.47611" lon="-1.56629">
        <ele>46.7</ele>
        <time>2021-09-05T06:53:03Z</time>
      </trkpt>
      <trkpt lat="43.47607" lon="-1.56631">
        <ele>46.7</ele>
        <time>2021-09-05T06:53:04Z</time>
      </trkpt>
      <trkpt lat="43.47603" lon="-1.56632">
        <ele>46.8</ele>
        <time>2021-09-05T06:53:05Z</time>
      </trkpt>
      <trkpt lat="43.47599" lon="-1.56634">
        <ele>46.8</ele>
        <time>2021-09-05T06:53:06Z</time>
      </trkpt>
      <trkpt lat="43.47595" lon="-1.56636">
        <ele>46.9</ele>
        <time>2021-09-05T06:53:07Z</time>
      </trkpt>
      <trkpt lat="43.47591" lon="-1.56638">
        <ele>47</ele>
        <time>2021-09-05T06:53:08Z</time>
      </trkpt>
      <trkpt lat="43.47588" lon="-1.56639">
        <ele>47.2</ele>
        <time>2021-09-05T06:53:09Z</time>
      </trkpt>
      <trkpt lat="43.47584" lon="-1.56641">
        <ele>47.3</ele>
        <time>2021-09-05T06:53:10Z</time>
      </trkpt>
      <trkpt lat="43.47581" lon="-1.56641">
        <ele>47.4</ele>
        <time>2021-09-05T06:53:11Z</time>
      </trkpt>
      <trkpt lat="43.47578" lon="-1.56639">
        <ele>47.5</ele>
        <time>2021-09-05T06:53:12Z</time>
      </trkpt>
      <trkpt lat="43.47575" lon="-1.56637">
        <ele>47.6</ele>
        <time>2021-09-05T06:53:13Z</time>
      </trkpt>
      <trkpt lat="43.47573" lon="-1.56635">
        <ele>47.7</ele>
        <time>2021-09-05T06:53:14Z</time>
      </trkpt>
      <trkpt lat="43.4757" lon="-1.56632">
        <ele>47.9</ele>
        <time>2021-09-05T06:53:15Z</time>
      </trkpt>
      <trkpt lat="43.47567" lon="-1.56629">
        <ele>48.4</ele>
        <time>2021-09-05T06:53:16Z</time>
      </trkpt>
      <trkpt lat="43.47563" lon="-1.56627">
        <ele>48.4</ele>
        <time>2021-09-05T06:53:17Z</time>
      </trkpt>
      <trkpt lat="43.4756" lon="-1.56626">
        <ele>48.4</ele>
        <time>2021-09-05T06:53:18Z</time>
      </trkpt>
      <trkpt lat="43.47556" lon="-1.56626">
        <ele>48.4</ele>
        <time>2021-09-05T06:53:19Z</time>
      </trkpt>
      <trkpt lat="43.47553" lon="-1.56626">
        <ele>48.4</ele>
        <time>2021-09-05T06:53:20Z</time>
      </trkpt>
      <trkpt lat="43.47549" lon="-1.56627">
        <ele>48.4</ele>
        <time>2021-09-05T06:53:21Z</time>
      </trkpt>
      <trkpt lat="43.47544" lon="-1.56628">
        <ele>48.3</ele>
        <time>2021-09-05T06:53:22Z</time>
      </trkpt>
      <trkpt lat="43.4754" lon="-1.56629">
        <ele>48.3</ele>
        <time>2021-09-05T06:53:23Z</time>
      </trkpt>
      <trkpt lat="43.47536" lon="-1.5663">
        <ele>48.3</ele>
        <time>2021-09-05T06:53:24Z</time>
      </trkpt>
      <trkpt lat="43.47533" lon="-1.56631">
        <ele>48.3</ele>
        <time>2021-09-05T06:53:25Z</time>
      </trkpt>
      <trkpt lat="43.47529" lon="-1.56633">
        <ele>48.3</ele>
        <time>2021-09-05T06:53:26Z</time>
      </trkpt>
      <trkpt lat="43.47525" lon="-1.56634">
        <ele>48.3</ele>
        <time>2021-09-05T06:53:27Z</time>
      </trkpt>
      <trkpt lat="43.47522" lon="-1.56635">
        <ele>48.3</ele>
        <time>2021-09-05T06:53:28Z</time>
      </trkpt>
      <trkpt lat="43.47517" lon="-1.56635">
        <ele>48.3</ele>
        <time>2021-09-05T06:53:29Z</time>
      </trkpt>
      <trkpt lat="43.47512" lon="-1.56635">
        <ele>48.3</ele>
        <time>2021-09-05T06:53:30Z</time>
      </trkpt>
      <trkpt lat="43.47508" lon="-1.56636">
        <ele>48.4</ele>
        <time>2021-09-05T06:53:31Z</time>
      </trkpt>
      <trkpt lat="43.47505" lon="-1.56637">
        <ele>48.4</ele>
        <time>2021-09-05T06:53:32Z</time>
      </trkpt>
      <trkpt lat="43.47502" lon="-1.5664">
        <ele>48.4</ele>
        <time>2021-09-05T06:53:33Z</time>
      </trkpt>
      <trkpt lat="43.47499" lon="-1.56644">
        <ele>47.9</ele>
        <time>2021-09-05T06:53:34Z</time>
      </trkpt>
      <trkpt lat="43.47497" lon="-1.56649">
        <ele>47.6</ele>
        <time>2021-09-05T06:53:35Z</time>
      </trkpt>
      <trkpt lat="43.47497" lon="-1.56655">
        <ele>47.4</ele>
        <time>2021-09-05T06:53:36Z</time>
      </trkpt>
      <trkpt lat="43.47497" lon="-1.56661">
        <ele>47.1</ele>
        <time>2021-09-05T06:53:37Z</time>
      </trkpt>
      <trkpt lat="43.47497" lon="-1.56666">
        <ele>46.9</ele>
        <time>2021-09-05T06:53:38Z</time>
      </trkpt>
      <trkpt lat="43.47496" lon="-1.56672">
        <ele>46.6</ele>
        <time>2021-09-05T06:53:39Z</time>
      </trkpt>
      <trkpt lat="43.47496" lon="-1.56678">
        <ele>46.4</ele>
        <time>2021-09-05T06:53:40Z</time>
      </trkpt>
      <trkpt lat="43.47494" lon="-1.56684">
        <ele>46.2</ele>
        <time>2021-09-05T06:53:41Z</time>
      </trkpt>
      <trkpt lat="43.47492" lon="-1.56689">
        <ele>46.2</ele>
        <time>2021-09-05T06:53:42Z</time>
      </trkpt>
      <trkpt lat="43.4749" lon="-1.56694">
        <ele>46.1</ele>
        <time>2021-09-05T06:53:43Z</time>
      </trkpt>
      <trkpt lat="43.47487" lon="-1.56698">
        <ele>46.1</ele>
        <time>2021-09-05T06:53:44Z</time>
      </trkpt>
      <trkpt lat="43.47485" lon="-1.56703">
        <ele>46.1</ele>
        <time>2021-09-05T06:53:45Z</time>
      </trkpt>
      <trkpt lat="43.47483" lon="-1.56707">
        <ele>46</ele>
        <time>2021-09-05T06:53:46Z</time>
      </trkpt>
      <trkpt lat="43.4748" lon="-1.56711">
        <ele>46</ele>
        <time>2021-09-05T06:53:47Z</time>
      </trkpt>
      <trkpt lat="43.47477" lon="-1.56715">
        <ele>45.9</ele>
        <time>2021-09-05T06:53:48Z</time>
      </trkpt>
      <trkpt lat="43.47475" lon="-1.56719">
        <ele>45.8</ele>
        <time>2021-09-05T06:53:49Z</time>
      </trkpt>
      <trkpt lat="43.47472" lon="-1.56722">
        <ele>45.8</ele>
        <time>2021-09-05T06:53:50Z</time>
      </trkpt>
      <trkpt lat="43.4747" lon="-1.56726">
        <ele>45.7</ele>
        <time>2021-09-05T06:53:51Z</time>
      </trkpt>
      <trkpt lat="43.47467" lon="-1.56729">
        <ele>45.7</ele>
        <time>2021-09-05T06:53:52Z</time>
      </trkpt>
      <trkpt lat="43.47463" lon="-1.56731">
        <ele>45.6</ele>
        <time>2021-09-05T06:53:53Z</time>
      </trkpt>
      <trkpt lat="43.4746" lon="-1.56733">
        <ele>45.5</ele>
        <time>2021-09-05T06:53:54Z</time>
      </trkpt>
      <trkpt lat="43.47456" lon="-1.56735">
        <ele>45.4</ele>
        <time>2021-09-05T06:53:55Z</time>
      </trkpt>
      <trkpt lat="43.47452" lon="-1.56737">
        <ele>45.3</ele>
        <time>2021-09-05T06:53:56Z</time>
      </trkpt>
      <trkpt lat="43.47448" lon="-1.56739">
        <ele>45.2</ele>
        <time>2021-09-05T06:53:57Z</time>
      </trkpt>
      <trkpt lat="43.47444" lon="-1.56741">
        <ele>45.1</ele>
        <time>2021-09-05T06:53:58Z</time>
      </trkpt>
      <trkpt lat="43.4744" lon="-1.56743">
        <ele>45</ele>
        <time>2021-09-05T06:53:59Z</time>
      </trkpt>
      <trkpt lat="43.47436" lon="-1.56745">
        <ele>44.8</ele>
        <time>2021-09-05T06:54:00Z</time>
      </trkpt>
      <trkpt lat="43.47431" lon="-1.56747">
        <ele>44.7</ele>
        <time>2021-09-05T06:54:01Z</time>
      </trkpt>
      <trkpt lat="43.47427" lon="-1.56749">
        <ele>44.5</ele>
        <time>2021-09-05T06:54:02Z</time>
      </trkpt>
      <trkpt lat="43.47423" lon="-1.5675">
        <ele>44.4</ele>
        <time>2021-09-05T06:54:03Z</time>
      </trkpt>
      <trkpt lat="43.47419" lon="-1.56751">
        <ele>44.3</ele>
        <time>2021-09-05T06:54:04Z</time>
      </trkpt>
      <trkpt lat="43.47415" lon="-1.56753">
        <ele>44.1</ele>
        <time>2021-09-05T06:54:05Z</time>
      </trkpt>
      <trkpt lat="43.47411" lon="-1.56755">
        <ele>44</ele>
        <time>2021-09-05T06:54:06Z</time>
      </trkpt>
      <trkpt lat="43.47407" lon="-1.56757">
        <ele>43.8</ele>
        <time>2021-09-05T06:54:07Z</time>
      </trkpt>
      <trkpt lat="43.47403" lon="-1.5676">
        <ele>43.7</ele>
        <time>2021-09-05T06:54:08Z</time>
      </trkpt>
      <trkpt lat="43.474" lon="-1.56762">
        <ele>43.6</ele>
        <time>2021-09-05T06:54:09Z</time>
      </trkpt>
      <trkpt lat="43.47396" lon="-1.56765">
        <ele>43.4</ele>
        <time>2021-09-05T06:54:10Z</time>
      </trkpt>
      <trkpt lat="43.47392" lon="-1.56767">
        <ele>43.3</ele>
        <time>2021-09-05T06:54:11Z</time>
      </trkpt>
      <trkpt lat="43.47388" lon="-1.56769">
        <ele>43.2</ele>
        <time>2021-09-05T06:54:12Z</time>
      </trkpt>
      <trkpt lat="43.47384" lon="-1.56772">
        <ele>43.1</ele>
        <time>2021-09-05T06:54:13Z</time>
      </trkpt>
      <trkpt lat="43.47381" lon="-1.56774">
        <ele>42.9</ele>
        <time>2021-09-05T06:54:14Z</time>
      </trkpt>
      <trkpt lat="43.47377" lon="-1.56776">
        <ele>42.8</ele>
        <time>2021-09-05T06:54:15Z</time>
      </trkpt>
      <trkpt lat="43.47373" lon="-1.56779">
        <ele>42.7</ele>
        <time>2021-09-05T06:54:16Z</time>
      </trkpt>
      <trkpt lat="43.47369" lon="-1.56781">
        <ele>42.6</ele>
        <time>2021-09-05T06:54:17Z</time>
      </trkpt>
      <trkpt lat="43.47365" lon="-1.56783">
        <ele>42.6</ele>
        <time>2021-09-05T06:54:18Z</time>
      </trkpt>
      <trkpt lat="43.47362" lon="-1.56786">
        <ele>42.5</ele>
        <time>2021-09-05T06:54:19Z</time>
      </trkpt>
      <trkpt lat="43.47358" lon="-1.56788">
        <ele>42.5</ele>
        <time>2021-09-05T06:54:20Z</time>
      </trkpt>
      <trkpt lat="43.47355" lon="-1.5679">
        <ele>42.5</ele>
        <time>2021-09-05T06:54:21Z</time>
      </trkpt>
      <trkpt lat="43.47351" lon="-1.56792">
        <ele>42.6</ele>
        <time>2021-09-05T06:54:22Z</time>
      </trkpt>
      <trkpt lat="43.47348" lon="-1.56792">
        <ele>42.6</ele>
        <time>2021-09-05T06:54:23Z</time>
      </trkpt>
      <trkpt lat="43.47345" lon="-1.56791">
        <ele>42.7</ele>
        <time>2021-09-05T06:54:24Z</time>
      </trkpt>
      <trkpt lat="43.47343" lon="-1.56789">
        <ele>42.8</ele>
        <time>2021-09-05T06:54:25Z</time>
      </trkpt>
      <trkpt lat="43.4734" lon="-1.56787">
        <ele>42.8</ele>
        <time>2021-09-05T06:54:26Z</time>
      </trkpt>
      <trkpt lat="43.47338" lon="-1.56784">
        <ele>42.9</ele>
        <time>2021-09-05T06:54:27Z</time>
      </trkpt>
      <trkpt lat="43.47336" lon="-1.5678">
        <ele>43.1</ele>
        <time>2021-09-05T06:54:28Z</time>
      </trkpt>
      <trkpt lat="43.47334" lon="-1.56777">
        <ele>43.2</ele>
        <time>2021-09-05T06:54:29Z</time>
      </trkpt>
      <trkpt lat="43.47332" lon="-1.56774">
        <ele>43.3</ele>
        <time>2021-09-05T06:54:30Z</time>
      </trkpt>
      <trkpt lat="43.4733" lon="-1.5677">
        <ele>43.5</ele>
        <time>2021-09-05T06:54:31Z</time>
      </trkpt>
      <trkpt lat="43.47328" lon="-1.56766">
        <ele>43.7</ele>
        <time>2021-09-05T06:54:32Z</time>
      </trkpt>
      <trkpt lat="43.47326" lon="-1.56763">
        <ele>43.8</ele>
        <time>2021-09-05T06:54:33Z</time>
      </trkpt>
      <trkpt lat="43.47325" lon="-1.56759">
        <ele>44</ele>
        <time>2021-09-05T06:54:34Z</time>
      </trkpt>
      <trkpt lat="43.47322" lon="-1.56756">
        <ele>44.2</ele>
        <time>2021-09-05T06:54:35Z</time>
      </trkpt>
      <trkpt lat="43.4732" lon="-1.56752">
        <ele>44.4</ele>
        <time>2021-09-05T06:54:36Z</time>
      </trkpt>
      <trkpt lat="43.47318" lon="-1.56748">
        <ele>44.7</ele>
        <time>2021-09-05T06:54:37Z</time>
      </trkpt>
      <trkpt lat="43.47316" lon="-1.56744">
        <ele>44.9</ele>
        <time>2021-09-05T06:54:38Z</time>
      </trkpt>
      <trkpt lat="43.47315" lon="-1.56739">
        <ele>45.2</ele>
        <time>2021-09-05T06:54:39Z</time>
      </trkpt>
      <trkpt lat="43.47313" lon="-1.56735">
        <ele>45.4</ele>
        <time>2021-09-05T06:54:40Z</time>
      </trkpt>
      <trkpt lat="43.47312" lon="-1.56731">
        <ele>45.7</ele>
        <time>2021-09-05T06:54:41Z</time>
      </trkpt>
      <trkpt lat="43.47311" lon="-1.56727">
        <ele>45.9</ele>
        <time>2021-09-05T06:54:42Z</time>
      </trkpt>
      <trkpt lat="43.47309" lon="-1.56723">
        <ele>46.1</ele>
        <time>2021-09-05T06:54:43Z</time>
      </trkpt>
      <trkpt lat="43.47309" lon="-1.56718">
        <ele>46.4</ele>
        <time>2021-09-05T06:54:44Z</time>
      </trkpt>
      <trkpt lat="43.47309" lon="-1.56714">
        <ele>46.6</ele>
        <time>2021-09-05T06:54:45Z</time>
      </trkpt>
      <trkpt lat="43.47308" lon="-1.5671">
        <ele>46.8</ele>
        <time>2021-09-05T06:54:46Z</time>
      </trkpt>
      <trkpt lat="43.47307" lon="-1.56705">
        <ele>47.1</ele>
        <time>2021-09-05T06:54:47Z</time>
      </trkpt>
      <trkpt lat="43.47306" lon="-1.567">
        <ele>47.4</ele>
        <time>2021-09-05T06:54:48Z</time>
      </trkpt>
      <trkpt lat="43.47305" lon="-1.56696">
        <ele>47.6</ele>
        <time>2021-09-05T06:54:49Z</time>
      </trkpt>
      <trkpt lat="43.47302" lon="-1.56693">
        <ele>47.9</ele>
        <time>2021-09-05T06:54:50Z</time>
      </trkpt>
      <trkpt lat="43.47299" lon="-1.56692">
        <ele>48.6</ele>
        <time>2021-09-05T06:54:51Z</time>
      </trkpt>
      <trkpt lat="43.47295" lon="-1.56693">
        <ele>48.7</ele>
        <time>2021-09-05T06:54:52Z</time>
      </trkpt>
      <trkpt lat="43.47293" lon="-1.56696">
        <ele>48.7</ele>
        <time>2021-09-05T06:54:53Z</time>
      </trkpt>
      <trkpt lat="43.47291" lon="-1.567">
        <ele>48.7</ele>
        <time>2021-09-05T06:54:54Z</time>
      </trkpt>
      <trkpt lat="43.47289" lon="-1.56705">
        <ele>48.7</ele>
        <time>2021-09-05T06:54:55Z</time>
      </trkpt>
      <trkpt lat="43.47287" lon="-1.56709">
        <ele>48.7</ele>
        <time>2021-09-05T06:54:56Z</time>
      </trkpt>
      <trkpt lat="43.47285" lon="-1.56714">
        <ele>48.7</ele>
        <time>2021-09-05T06:54:57Z</time>
      </trkpt>
      <trkpt lat="43.47283" lon="-1.56718">
        <ele>48.7</ele>
        <time>2021-09-05T06:54:58Z</time>
      </trkpt>
      <trkpt lat="43.47282" lon="-1.56722">
        <ele>48.7</ele>
        <time>2021-09-05T06:54:59Z</time>
      </trkpt>
      <trkpt lat="43.4728" lon="-1.56726">
        <ele>48.7</ele>
        <time>2021-09-05T06:55:00Z</time>
      </trkpt>
      <trkpt lat="43.47278" lon="-1.56731">
        <ele>48.7</ele>
        <time>2021-09-05T06:55:01Z</time>
      </trkpt>
      <trkpt lat="43.47277" lon="-1.56735">
        <ele>48.7</ele>
        <time>2021-09-05T06:55:02Z</time>
      </trkpt>
      <trkpt lat="43.47275" lon="-1.5674">
        <ele>48.8</ele>
        <time>2021-09-05T06:55:03Z</time>
      </trkpt>
      <trkpt lat="43.47273" lon="-1.56745">
        <ele>48.8</ele>
        <time>2021-09-05T06:55:04Z</time>
      </trkpt>
      <trkpt lat="43.47271" lon="-1.5675">
        <ele>48.9</ele>
        <time>2021-09-05T06:55:05Z</time>
      </trkpt>
      <trkpt lat="43.4727" lon="-1.56755">
        <ele>49</ele>
        <time>2021-09-05T06:55:06Z</time>
      </trkpt>
      <trkpt lat="43.47267" lon="-1.56759">
        <ele>49</ele>
        <time>2021-09-05T06:55:07Z</time>
      </trkpt>
      <trkpt lat="43.47265" lon="-1.56764">
        <ele>49.1</ele>
        <time>2021-09-05T06:55:08Z</time>
      </trkpt>
      <trkpt lat="43.47263" lon="-1.56767">
        <ele>49.2</ele>
        <time>2021-09-05T06:55:09Z</time>
      </trkpt>
      <trkpt lat="43.47261" lon="-1.56772">
        <ele>49.2</ele>
        <time>2021-09-05T06:55:10Z</time>
      </trkpt>
      <trkpt lat="43.47258" lon="-1.56776">
        <ele>49.3</ele>
        <time>2021-09-05T06:55:11Z</time>
      </trkpt>
      <trkpt lat="43.47256" lon="-1.5678">
        <ele>49.4</ele>
        <time>2021-09-05T06:55:12Z</time>
      </trkpt>
      <trkpt lat="43.47254" lon="-1.56783">
        <ele>49.5</ele>
        <time>2021-09-05T06:55:13Z</time>
      </trkpt>
      <trkpt lat="43.47252" lon="-1.56787">
        <ele>49.6</ele>
        <time>2021-09-05T06:55:14Z</time>
      </trkpt>
      <trkpt lat="43.4725" lon="-1.56791">
        <ele>49.7</ele>
        <time>2021-09-05T06:55:15Z</time>
      </trkpt>
      <trkpt lat="43.47247" lon="-1.56794">
        <ele>49.8</ele>
        <time>2021-09-05T06:55:16Z</time>
      </trkpt>
      <trkpt lat="43.47245" lon="-1.56798">
        <ele>49.9</ele>
        <time>2021-09-05T06:55:17Z</time>
      </trkpt>
      <trkpt lat="43.47243" lon="-1.56801">
        <ele>50</ele>
        <time>2021-09-05T06:55:18Z</time>
      </trkpt>
      <trkpt lat="43.4724" lon="-1.56805">
        <ele>50</ele>
        <time>2021-09-05T06:55:19Z</time>
      </trkpt>
      <trkpt lat="43.47238" lon="-1.56809">
        <ele>50.1</ele>
        <time>2021-09-05T06:55:20Z</time>
      </trkpt>
      <trkpt lat="43.47236" lon="-1.56812">
        <ele>50.2</ele>
        <time>2021-09-05T06:55:21Z</time>
      </trkpt>
      <trkpt lat="43.47233" lon="-1.56816">
        <ele>50.3</ele>
        <time>2021-09-05T06:55:22Z</time>
      </trkpt>
      <trkpt lat="43.4723" lon="-1.5682">
        <ele>50.4</ele>
        <time>2021-09-05T06:55:23Z</time>
      </trkpt>
      <trkpt lat="43.47228" lon="-1.56824">
        <ele>50.5</ele>
        <time>2021-09-05T06:55:24Z</time>
      </trkpt>
      <trkpt lat="43.47225" lon="-1.56828">
        <ele>50.7</ele>
        <time>2021-09-05T06:55:25Z</time>
      </trkpt>
      <trkpt lat="43.47223" lon="-1.56832">
        <ele>50.8</ele>
        <time>2021-09-05T06:55:26Z</time>
      </trkpt>
      <trkpt lat="43.4722" lon="-1.56835">
        <ele>50.9</ele>
        <time>2021-09-05T06:55:27Z</time>
      </trkpt>
      <trkpt lat="43.47218" lon="-1.56839">
        <ele>51</ele>
        <time>2021-09-05T06:55:28Z</time>
      </trkpt>
      <trkpt lat="43.47215" lon="-1.56843">
        <ele>51.2</ele>
        <time>2021-09-05T06:55:29Z</time>
      </trkpt>
      <trkpt lat="43.47212" lon="-1.56847">
        <ele>51.3</ele>
        <time>2021-09-05T06:55:30Z</time>
      </trkpt>
      <trkpt lat="43.4721" lon="-1.56851">
        <ele>51.4</ele>
        <time>2021-09-05T06:55:31Z</time>
      </trkpt>
      <trkpt lat="43.47207" lon="-1.56855">
        <ele>51.5</ele>
        <time>2021-09-05T06:55:32Z</time>
      </trkpt>
      <trkpt lat="43.47205" lon="-1.56858">
        <ele>51.6</ele>
        <time>2021-09-05T06:55:33Z</time>
      </trkpt>
      <trkpt lat="43.47202" lon="-1.56862">
        <ele>51.7</ele>
        <time>2021-09-05T06:55:34Z</time>
      </trkpt>
      <trkpt lat="43.472" lon="-1.56866">
        <ele>51.8</ele>
        <time>2021-09-05T06:55:35Z</time>
      </trkpt>
      <trkpt lat="43.47197" lon="-1.5687">
        <ele>52</ele>
        <time>2021-09-05T06:55:36Z</time>
      </trkpt>
      <trkpt lat="43.47194" lon="-1.56874">
        <ele>52.1</ele>
        <time>2021-09-05T06:55:37Z</time>
      </trkpt>
      <trkpt lat="43.47192" lon="-1.56878">
        <ele>52.2</ele>
        <time>2021-09-05T06:55:38Z</time>
      </trkpt>
      <trkpt lat="43.47189" lon="-1.56881">
        <ele>52.3</ele>
        <time>2021-09-05T06:55:39Z</time>
      </trkpt>
      <trkpt lat="43.47187" lon="-1.56885">
        <ele>52.5</ele>
        <time>2021-09-05T06:55:40Z</time>
      </trkpt>
      <trkpt lat="43.47185" lon="-1.56889">
        <ele>52.6</ele>
        <time>2021-09-05T06:55:41Z</time>
      </trkpt>
      <trkpt lat="43.47183" lon="-1.56893">
        <ele>52.7</ele>
        <time>2021-09-05T06:55:42Z</time>
      </trkpt>
      <trkpt lat="43.47181" lon="-1.56896">
        <ele>52.8</ele>
        <time>2021-09-05T06:55:43Z</time>
      </trkpt>
      <trkpt lat="43.47179" lon="-1.569">
        <ele>52.9</ele>
        <time>2021-09-05T06:55:44Z</time>
      </trkpt>
      <trkpt lat="43.47177" lon="-1.56904">
        <ele>53</ele>
        <time>2021-09-05T06:55:45Z</time>
      </trkpt>
      <trkpt lat="43.47174" lon="-1.56907">
        <ele>53.1</ele>
        <time>2021-09-05T06:55:46Z</time>
      </trkpt>
      <trkpt lat="43.47172" lon="-1.56908">
        <ele>53.2</ele>
        <time>2021-09-05T06:55:47Z</time>
      </trkpt>
      <trkpt lat="43.47168" lon="-1.56908">
        <ele>53.3</ele>
        <time>2021-09-05T06:55:48Z</time>
      </trkpt>
      <trkpt lat="43.47165" lon="-1.56907">
        <ele>53.4</ele>
        <time>2021-09-05T06:55:49Z</time>
      </trkpt>
      <trkpt lat="43.47162" lon="-1.56904">
        <ele>53.5</ele>
        <time>2021-09-05T06:55:50Z</time>
      </trkpt>
      <trkpt lat="43.47159" lon="-1.56901">
        <ele>53.6</ele>
        <time>2021-09-05T06:55:51Z</time>
      </trkpt>
      <trkpt lat="43.47157" lon="-1.56898">
        <ele>53.7</ele>
        <time>2021-09-05T06:55:52Z</time>
      </trkpt>
      <trkpt lat="43.47154" lon="-1.56894">
        <ele>53.7</ele>
        <time>2021-09-05T06:55:53Z</time>
      </trkpt>
      <trkpt lat="43.47152" lon="-1.5689">
        <ele>53.8</ele>
        <time>2021-09-05T06:55:54Z</time>
      </trkpt>
      <trkpt lat="43.47148" lon="-1.56885">
        <ele>53.9</ele>
        <time>2021-09-05T06:55:55Z</time>
      </trkpt>
      <trkpt lat="43.47144" lon="-1.5688">
        <ele>53.9</ele>
        <time>2021-09-05T06:55:56Z</time>
      </trkpt>
      <trkpt lat="43.47142" lon="-1.56876">
        <ele>53.9</ele>
        <time>2021-09-05T06:55:57Z</time>
      </trkpt>
      <trkpt lat="43.47139" lon="-1.56873">
        <ele>53.9</ele>
        <time>2021-09-05T06:55:58Z</time>
      </trkpt>
      <trkpt lat="43.47137" lon="-1.56869">
        <ele>53.9</ele>
        <time>2021-09-05T06:55:59Z</time>
      </trkpt>
      <trkpt lat="43.47134" lon="-1.56865">
        <ele>53.9</ele>
        <time>2021-09-05T06:56:00Z</time>
      </trkpt>
      <trkpt lat="43.47132" lon="-1.56861">
        <ele>53.9</ele>
        <time>2021-09-05T06:56:01Z</time>
      </trkpt>
      <trkpt lat="43.4713" lon="-1.56856">
        <ele>53.8</ele>
        <time>2021-09-05T06:56:02Z</time>
      </trkpt>
      <trkpt lat="43.47127" lon="-1.56852">
        <ele>53.8</ele>
        <time>2021-09-05T06:56:03Z</time>
      </trkpt>
      <trkpt lat="43.47125" lon="-1.56848">
        <ele>53.7</ele>
        <time>2021-09-05T06:56:04Z</time>
      </trkpt>
      <trkpt lat="43.47122" lon="-1.56843">
        <ele>53.6</ele>
        <time>2021-09-05T06:56:05Z</time>
      </trkpt>
      <trkpt lat="43.4712" lon="-1.56839">
        <ele>53.5</ele>
        <time>2021-09-05T06:56:06Z</time>
      </trkpt>
      <trkpt lat="43.47118" lon="-1.56833">
        <ele>53.4</ele>
        <time>2021-09-05T06:56:07Z</time>
      </trkpt>
      <trkpt lat="43.47115" lon="-1.56829">
        <ele>53.2</ele>
        <time>2021-09-05T06:56:08Z</time>
      </trkpt>
      <trkpt lat="43.47112" lon="-1.56825">
        <ele>53</ele>
        <time>2021-09-05T06:56:09Z</time>
      </trkpt>
      <trkpt lat="43.47109" lon="-1.56822">
        <ele>52.9</ele>
        <time>2021-09-05T06:56:10Z</time>
      </trkpt>
      <trkpt lat="43.47105" lon="-1.56821">
        <ele>52.8</ele>
        <time>2021-09-05T06:56:11Z</time>
      </trkpt>
      <trkpt lat="43.47101" lon="-1.56823">
        <ele>52.4</ele>
        <time>2021-09-05T06:56:12Z</time>
      </trkpt>
      <trkpt lat="43.47098" lon="-1.56826">
        <ele>52.3</ele>
        <time>2021-09-05T06:56:13Z</time>
      </trkpt>
      <trkpt lat="43.47094" lon="-1.56829">
        <ele>52.2</ele>
        <time>2021-09-05T06:56:14Z</time>
      </trkpt>
      <trkpt lat="43.47091" lon="-1.56833">
        <ele>52.1</ele>
        <time>2021-09-05T06:56:15Z</time>
      </trkpt>
      <trkpt lat="43.47087" lon="-1.56836">
        <ele>51.9</ele>
        <time>2021-09-05T06:56:16Z</time>
      </trkpt>
      <trkpt lat="43.47084" lon="-1.5684">
        <ele>51.8</ele>
        <time>2021-09-05T06:56:17Z</time>
      </trkpt>
      <trkpt lat="43.4708" lon="-1.56843">
        <ele>51.7</ele>
        <time>2021-09-05T06:56:18Z</time>
      </trkpt>
      <trkpt lat="43.47076" lon="-1.56847">
        <ele>51.5</ele>
        <time>2021-09-05T06:56:19Z</time>
      </trkpt>
      <trkpt lat="43.47072" lon="-1.56852">
        <ele>51.3</ele>
        <time>2021-09-05T06:56:20Z</time>
      </trkpt>
      <trkpt lat="43.47069" lon="-1.56855">
        <ele>51.1</ele>
        <time>2021-09-05T06:56:21Z</time>
      </trkpt>
      <trkpt lat="43.47065" lon="-1.56859">
        <ele>50.9</ele>
        <time>2021-09-05T06:56:22Z</time>
      </trkpt>
      <trkpt lat="43.47061" lon="-1.56862">
        <ele>50.7</ele>
        <time>2021-09-05T06:56:23Z</time>
      </trkpt>
      <trkpt lat="43.47058" lon="-1.56865">
        <ele>50.5</ele>
        <time>2021-09-05T06:56:24Z</time>
      </trkpt>
      <trkpt lat="43.47054" lon="-1.56868">
        <ele>50.3</ele>
        <time>2021-09-05T06:56:25Z</time>
      </trkpt>
      <trkpt lat="43.47051" lon="-1.56871">
        <ele>50</ele>
        <time>2021-09-05T06:56:26Z</time>
      </trkpt>
      <trkpt lat="43.47047" lon="-1.56874">
        <ele>49.8</ele>
        <time>2021-09-05T06:56:27Z</time>
      </trkpt>
      <trkpt lat="43.47044" lon="-1.56877">
        <ele>49.6</ele>
        <time>2021-09-05T06:56:28Z</time>
      </trkpt>
      <trkpt lat="43.4704" lon="-1.5688">
        <ele>49.3</ele>
        <time>2021-09-05T06:56:29Z</time>
      </trkpt>
      <trkpt lat="43.47037" lon="-1.56883">
        <ele>49.1</ele>
        <time>2021-09-05T06:56:30Z</time>
      </trkpt>
      <trkpt lat="43.47033" lon="-1.56887">
        <ele>48.8</ele>
        <time>2021-09-05T06:56:31Z</time>
      </trkpt>
      <trkpt lat="43.4703" lon="-1.5689">
        <ele>48.5</ele>
        <time>2021-09-05T06:56:32Z</time>
      </trkpt>
      <trkpt lat="43.47027" lon="-1.56893">
        <ele>48.2</ele>
        <time>2021-09-05T06:56:33Z</time>
      </trkpt>
      <trkpt lat="43.47023" lon="-1.56897">
        <ele>47.8</ele>
        <time>2021-09-05T06:56:34Z</time>
      </trkpt>
      <trkpt lat="43.4702" lon="-1.56901">
        <ele>47.5</ele>
        <time>2021-09-05T06:56:35Z</time>
      </trkpt>
      <trkpt lat="43.47016" lon="-1.56904">
        <ele>47.1</ele>
        <time>2021-09-05T06:56:36Z</time>
      </trkpt>
      <trkpt lat="43.47013" lon="-1.56907">
        <ele>46.7</ele>
        <time>2021-09-05T06:56:37Z</time>
      </trkpt>
      <trkpt lat="43.47009" lon="-1.56911">
        <ele>46.3</ele>
        <time>2021-09-05T06:56:38Z</time>
      </trkpt>
      <trkpt lat="43.47005" lon="-1.56914">
        <ele>45.9</ele>
        <time>2021-09-05T06:56:39Z</time>
      </trkpt>
      <trkpt lat="43.47001" lon="-1.56918">
        <ele>45.4</ele>
        <time>2021-09-05T06:56:40Z</time>
      </trkpt>
      <trkpt lat="43.46997" lon="-1.56921">
        <ele>44.9</ele>
        <time>2021-09-05T06:56:41Z</time>
      </trkpt>
      <trkpt lat="43.46994" lon="-1.56925">
        <ele>44.5</ele>
        <time>2021-09-05T06:56:42Z</time>
      </trkpt>
      <trkpt lat="43.4699" lon="-1.56928">
        <ele>44</ele>
        <time>2021-09-05T06:56:43Z</time>
      </trkpt>
      <trkpt lat="43.46986" lon="-1.56931">
        <ele>43.5</ele>
        <time>2021-09-05T06:56:44Z</time>
      </trkpt>
      <trkpt lat="43.46981" lon="-1.56934">
        <ele>42.9</ele>
        <time>2021-09-05T06:56:45Z</time>
      </trkpt>
      <trkpt lat="43.46977" lon="-1.56938">
        <ele>42.4</ele>
        <time>2021-09-05T06:56:46Z</time>
      </trkpt>
      <trkpt lat="43.46973" lon="-1.56941">
        <ele>41.9</ele>
        <time>2021-09-05T06:56:47Z</time>
      </trkpt>
      <trkpt lat="43.46968" lon="-1.56944">
        <ele>41.3</ele>
        <time>2021-09-05T06:56:48Z</time>
      </trkpt>
      <trkpt lat="43.46964" lon="-1.56946">
        <ele>40.8</ele>
        <time>2021-09-05T06:56:49Z</time>
      </trkpt>
      <trkpt lat="43.4696" lon="-1.56949">
        <ele>40.3</ele>
        <time>2021-09-05T06:56:50Z</time>
      </trkpt>
      <trkpt lat="43.46956" lon="-1.56953">
        <ele>39.8</ele>
        <time>2021-09-05T06:56:51Z</time>
      </trkpt>
      <trkpt lat="43.46952" lon="-1.56956">
        <ele>39.3</ele>
        <time>2021-09-05T06:56:52Z</time>
      </trkpt>
      <trkpt lat="43.46948" lon="-1.56959">
        <ele>38.8</ele>
        <time>2021-09-05T06:56:53Z</time>
      </trkpt>
      <trkpt lat="43.46944" lon="-1.56963">
        <ele>38.3</ele>
        <time>2021-09-05T06:56:54Z</time>
      </trkpt>
      <trkpt lat="43.4694" lon="-1.56966">
        <ele>37.8</ele>
        <time>2021-09-05T06:56:55Z</time>
      </trkpt>
      <trkpt lat="43.46936" lon="-1.56969">
        <ele>37.2</ele>
        <time>2021-09-05T06:56:56Z</time>
      </trkpt>
      <trkpt lat="43.46932" lon="-1.56972">
        <ele>36.7</ele>
        <time>2021-09-05T06:56:57Z</time>
      </trkpt>
      <trkpt lat="43.46928" lon="-1.56975">
        <ele>36.2</ele>
        <time>2021-09-05T06:56:58Z</time>
      </trkpt>
      <trkpt lat="43.46924" lon="-1.56979">
        <ele>35.7</ele>
        <time>2021-09-05T06:56:59Z</time>
      </trkpt>
      <trkpt lat="43.4692" lon="-1.56982">
        <ele>35.1</ele>
        <time>2021-09-05T06:57:00Z</time>
      </trkpt>
      <trkpt lat="43.46916" lon="-1.56986">
        <ele>34.7</ele>
        <time>2021-09-05T06:57:01Z</time>
      </trkpt>
      <trkpt lat="43.46912" lon="-1.56989">
        <ele>34.2</ele>
        <time>2021-09-05T06:57:02Z</time>
      </trkpt>
      <trkpt lat="43.46909" lon="-1.56992">
        <ele>33.7</ele>
        <time>2021-09-05T06:57:03Z</time>
      </trkpt>
      <trkpt lat="43.46905" lon="-1.56995">
        <ele>33.3</ele>
        <time>2021-09-05T06:57:04Z</time>
      </trkpt>
      <trkpt lat="43.46901" lon="-1.56999">
        <ele>32.8</ele>
        <time>2021-09-05T06:57:05Z</time>
      </trkpt>
      <trkpt lat="43.46898" lon="-1.57002">
        <ele>32.4</ele>
        <time>2021-09-05T06:57:06Z</time>
      </trkpt>
      <trkpt lat="43.46894" lon="-1.57005">
        <ele>32</ele>
        <time>2021-09-05T06:57:07Z</time>
      </trkpt>
      <trkpt lat="43.4689" lon="-1.57008">
        <ele>31.6</ele>
        <time>2021-09-05T06:57:08Z</time>
      </trkpt>
      <trkpt lat="43.46886" lon="-1.57011">
        <ele>31.2</ele>
        <time>2021-09-05T06:57:09Z</time>
      </trkpt>
      <trkpt lat="43.46882" lon="-1.57013">
        <ele>30.7</ele>
        <time>2021-09-05T06:57:10Z</time>
      </trkpt>
      <trkpt lat="43.46878" lon="-1.57017">
        <ele>30.3</ele>
        <time>2021-09-05T06:57:11Z</time>
      </trkpt>
      <trkpt lat="43.46874" lon="-1.5702">
        <ele>29.9</ele>
        <time>2021-09-05T06:57:12Z</time>
      </trkpt>
      <trkpt lat="43.4687" lon="-1.57023">
        <ele>29.6</ele>
        <time>2021-09-05T06:57:13Z</time>
      </trkpt>
      <trkpt lat="43.46866" lon="-1.57026">
        <ele>29.5</ele>
        <time>2021-09-05T06:57:14Z</time>
      </trkpt>
      <trkpt lat="43.46862" lon="-1.57029">
        <ele>29.3</ele>
        <time>2021-09-05T06:57:15Z</time>
      </trkpt>
      <trkpt lat="43.46858" lon="-1.57032">
        <ele>29.1</ele>
        <time>2021-09-05T06:57:16Z</time>
      </trkpt>
      <trkpt lat="43.46854" lon="-1.57035">
        <ele>28.9</ele>
        <time>2021-09-05T06:57:17Z</time>
      </trkpt>
      <trkpt lat="43.4685" lon="-1.57038">
        <ele>28.7</ele>
        <time>2021-09-05T06:57:18Z</time>
      </trkpt>
      <trkpt lat="43.46847" lon="-1.57041">
        <ele>28.4</ele>
        <time>2021-09-05T06:57:19Z</time>
      </trkpt>
      <trkpt lat="43.46843" lon="-1.57045">
        <ele>28.1</ele>
        <time>2021-09-05T06:57:20Z</time>
      </trkpt>
      <trkpt lat="43.46839" lon="-1.57047">
        <ele>27.8</ele>
        <time>2021-09-05T06:57:21Z</time>
      </trkpt>
      <trkpt lat="43.46836" lon="-1.5705">
        <ele>27.6</ele>
        <time>2021-09-05T06:57:22Z</time>
      </trkpt>
      <trkpt lat="43.46832" lon="-1.57053">
        <ele>27.3</ele>
        <time>2021-09-05T06:57:23Z</time>
      </trkpt>
      <trkpt lat="43.46829" lon="-1.57057">
        <ele>27</ele>
        <time>2021-09-05T06:57:24Z</time>
      </trkpt>
      <trkpt lat="43.46826" lon="-1.5706">
        <ele>26.8</ele>
        <time>2021-09-05T06:57:25Z</time>
      </trkpt>
      <trkpt lat="43.46822" lon="-1.57063">
        <ele>26.6</ele>
        <time>2021-09-05T06:57:26Z</time>
      </trkpt>
      <trkpt lat="43.46819" lon="-1.57066">
        <ele>26.3</ele>
        <time>2021-09-05T06:57:27Z</time>
      </trkpt>
      <trkpt lat="43.46814" lon="-1.57069">
        <ele>26.1</ele>
        <time>2021-09-05T06:57:28Z</time>
      </trkpt>
      <trkpt lat="43.46811" lon="-1.57072">
        <ele>25.9</ele>
        <time>2021-09-05T06:57:29Z</time>
      </trkpt>
      <trkpt lat="43.46807" lon="-1.57075">
        <ele>25.6</ele>
        <time>2021-09-05T06:57:30Z</time>
      </trkpt>
      <trkpt lat="43.46804" lon="-1.57079">
        <ele>25.6</ele>
        <time>2021-09-05T06:57:31Z</time>
      </trkpt>
      <trkpt lat="43.468" lon="-1.57082">
        <ele>25.6</ele>
        <time>2021-09-05T06:57:32Z</time>
      </trkpt>
      <trkpt lat="43.46796" lon="-1.57084">
        <ele>25.5</ele>
        <time>2021-09-05T06:57:33Z</time>
      </trkpt>
      <trkpt lat="43.46792" lon="-1.57087">
        <ele>25.5</ele>
        <time>2021-09-05T06:57:34Z</time>
      </trkpt>
      <trkpt lat="43.46788" lon="-1.5709">
        <ele>25.5</ele>
        <time>2021-09-05T06:57:35Z</time>
      </trkpt>
      <trkpt lat="43.46784" lon="-1.57092">
        <ele>25.5</ele>
        <time>2021-09-05T06:57:36Z</time>
      </trkpt>
      <trkpt lat="43.4678" lon="-1.57095">
        <ele>25.6</ele>
        <time>2021-09-05T06:57:37Z</time>
      </trkpt>
      <trkpt lat="43.46776" lon="-1.57097">
        <ele>25.4</ele>
        <time>2021-09-05T06:57:38Z</time>
      </trkpt>
      <trkpt lat="43.46773" lon="-1.571">
        <ele>25.2</ele>
        <time>2021-09-05T06:57:39Z</time>
      </trkpt>
      <trkpt lat="43.46769" lon="-1.57103">
        <ele>24.9</ele>
        <time>2021-09-05T06:57:40Z</time>
      </trkpt>
      <trkpt lat="43.46765" lon="-1.57106">
        <ele>24.7</ele>
        <time>2021-09-05T06:57:41Z</time>
      </trkpt>
      <trkpt lat="43.46761" lon="-1.57109">
        <ele>24.4</ele>
        <time>2021-09-05T06:57:42Z</time>
      </trkpt>
      <trkpt lat="43.46757" lon="-1.57112">
        <ele>24.1</ele>
        <time>2021-09-05T06:57:43Z</time>
      </trkpt>
      <trkpt lat="43.46754" lon="-1.57115">
        <ele>23.8</ele>
        <time>2021-09-05T06:57:44Z</time>
      </trkpt>
      <trkpt lat="43.4675" lon="-1.57118">
        <ele>23.5</ele>
        <time>2021-09-05T06:57:45Z</time>
      </trkpt>
      <trkpt lat="43.46747" lon="-1.57121">
        <ele>23.2</ele>
        <time>2021-09-05T06:57:46Z</time>
      </trkpt>
      <trkpt lat="43.46743" lon="-1.57124">
        <ele>22.9</ele>
        <time>2021-09-05T06:57:47Z</time>
      </trkpt>
      <trkpt lat="43.4674" lon="-1.57127">
        <ele>22.7</ele>
        <time>2021-09-05T06:57:48Z</time>
      </trkpt>
      <trkpt lat="43.46736" lon="-1.5713">
        <ele>22.4</ele>
        <time>2021-09-05T06:57:49Z</time>
      </trkpt>
      <trkpt lat="43.46733" lon="-1.57133">
        <ele>22.1</ele>
        <time>2021-09-05T06:57:50Z</time>
      </trkpt>
      <trkpt lat="43.46729" lon="-1.57136">
        <ele>22</ele>
        <time>2021-09-05T06:57:51Z</time>
      </trkpt>
      <trkpt lat="43.46726" lon="-1.57139">
        <ele>21.9</ele>
        <time>2021-09-05T06:57:52Z</time>
      </trkpt>
      <trkpt lat="43.46723" lon="-1.57142">
        <ele>21.8</ele>
        <time>2021-09-05T06:57:53Z</time>
      </trkpt>
      <trkpt lat="43.46719" lon="-1.57146">
        <ele>21.7</ele>
        <time>2021-09-05T06:57:54Z</time>
      </trkpt>
      <trkpt lat="43.46716" lon="-1.5715">
        <ele>21.6</ele>
        <time>2021-09-05T06:57:55Z</time>
      </trkpt>
      <trkpt lat="43.46714" lon="-1.57155">
        <ele>21.6</ele>
        <time>2021-09-05T06:57:56Z</time>
      </trkpt>
      <trkpt lat="43.46712" lon="-1.5716">
        <ele>21.5</ele>
        <time>2021-09-05T06:57:57Z</time>
      </trkpt>
      <trkpt lat="43.4671" lon="-1.57166">
        <ele>21.3</ele>
        <time>2021-09-05T06:57:58Z</time>
      </trkpt>
      <trkpt lat="43.46709" lon="-1.57171">
        <ele>21.2</ele>
        <time>2021-09-05T06:57:59Z</time>
      </trkpt>
      <trkpt lat="43.46706" lon="-1.57176">
        <ele>21.1</ele>
        <time>2021-09-05T06:58:00Z</time>
      </trkpt>
      <trkpt lat="43.46704" lon="-1.5718">
        <ele>21</ele>
        <time>2021-09-05T06:58:01Z</time>
      </trkpt>
      <trkpt lat="43.467" lon="-1.57183">
        <ele>20.9</ele>
        <time>2021-09-05T06:58:02Z</time>
      </trkpt>
      <trkpt lat="43.46697" lon="-1.57186">
        <ele>20.8</ele>
        <time>2021-09-05T06:58:03Z</time>
      </trkpt>
      <trkpt lat="43.46693" lon="-1.57189">
        <ele>20.7</ele>
        <time>2021-09-05T06:58:04Z</time>
      </trkpt>
      <trkpt lat="43.46689" lon="-1.57192">
        <ele>20.5</ele>
        <time>2021-09-05T06:58:05Z</time>
      </trkpt>
      <trkpt lat="43.46686" lon="-1.57195">
        <ele>20.4</ele>
        <time>2021-09-05T06:58:06Z</time>
      </trkpt>
      <trkpt lat="43.46682" lon="-1.57198">
        <ele>20.2</ele>
        <time>2021-09-05T06:58:07Z</time>
      </trkpt>
      <trkpt lat="43.46679" lon="-1.57202">
        <ele>20</ele>
        <time>2021-09-05T06:58:08Z</time>
      </trkpt>
      <trkpt lat="43.46676" lon="-1.57206">
        <ele>19.8</ele>
        <time>2021-09-05T06:58:09Z</time>
      </trkpt>
      <trkpt lat="43.46673" lon="-1.57211">
        <ele>19.6</ele>
        <time>2021-09-05T06:58:10Z</time>
      </trkpt>
      <trkpt lat="43.46669" lon="-1.57215">
        <ele>19.3</ele>
        <time>2021-09-05T06:58:11Z</time>
      </trkpt>
      <trkpt lat="43.46666" lon="-1.57219">
        <ele>19.1</ele>
        <time>2021-09-05T06:58:12Z</time>
      </trkpt>
      <trkpt lat="43.46662" lon="-1.57223">
        <ele>19</ele>
        <time>2021-09-05T06:58:13Z</time>
      </trkpt>
      <trkpt lat="43.46659" lon="-1.57226">
        <ele>18.7</ele>
        <time>2021-09-05T06:58:14Z</time>
      </trkpt>
      <trkpt lat="43.46655" lon="-1.57229">
        <ele>18.6</ele>
        <time>2021-09-05T06:58:15Z</time>
      </trkpt>
      <trkpt lat="43.46651" lon="-1.57231">
        <ele>18.5</ele>
        <time>2021-09-05T06:58:16Z</time>
      </trkpt>
      <trkpt lat="43.46647" lon="-1.57234">
        <ele>18.3</ele>
        <time>2021-09-05T06:58:17Z</time>
      </trkpt>
      <trkpt lat="43.46644" lon="-1.57235">
        <ele>18.2</ele>
        <time>2021-09-05T06:58:18Z</time>
      </trkpt>
      <trkpt lat="43.46639" lon="-1.57236">
        <ele>18.1</ele>
        <time>2021-09-05T06:58:19Z</time>
      </trkpt>
      <trkpt lat="43.46636" lon="-1.57238">
        <ele>18</ele>
        <time>2021-09-05T06:58:20Z</time>
      </trkpt>
      <trkpt lat="43.46631" lon="-1.57238">
        <ele>17.9</ele>
        <time>2021-09-05T06:58:21Z</time>
      </trkpt>
      <trkpt lat="43.46628" lon="-1.57239">
        <ele>17.8</ele>
        <time>2021-09-05T06:58:22Z</time>
      </trkpt>
      <trkpt lat="43.46624" lon="-1.5724">
        <ele>17.8</ele>
        <time>2021-09-05T06:58:23Z</time>
      </trkpt>
      <trkpt lat="43.4662" lon="-1.57241">
        <ele>17.7</ele>
        <time>2021-09-05T06:58:24Z</time>
      </trkpt>
      <trkpt lat="43.46616" lon="-1.57242">
        <ele>17.6</ele>
        <time>2021-09-05T06:58:25Z</time>
      </trkpt>
      <trkpt lat="43.46612" lon="-1.57243">
        <ele>17.5</ele>
        <time>2021-09-05T06:58:26Z</time>
      </trkpt>
      <trkpt lat="43.46607" lon="-1.57244">
        <ele>17.4</ele>
        <time>2021-09-05T06:58:27Z</time>
      </trkpt>
      <trkpt lat="43.46603" lon="-1.57244">
        <ele>17.3</ele>
        <time>2021-09-05T06:58:28Z</time>
      </trkpt>
      <trkpt lat="43.46598" lon="-1.57243">
        <ele>17.2</ele>
        <time>2021-09-05T06:58:29Z</time>
      </trkpt>
      <trkpt lat="43.46594" lon="-1.57243">
        <ele>17.2</ele>
        <time>2021-09-05T06:58:30Z</time>
      </trkpt>
      <trkpt lat="43.4659" lon="-1.57243">
        <ele>17.1</ele>
        <time>2021-09-05T06:58:31Z</time>
      </trkpt>
      <trkpt lat="43.46586" lon="-1.57243">
        <ele>17.1</ele>
        <time>2021-09-05T06:58:32Z</time>
      </trkpt>
      <trkpt lat="43.46582" lon="-1.57242">
        <ele>17</ele>
        <time>2021-09-05T06:58:33Z</time>
      </trkpt>
      <trkpt lat="43.46578" lon="-1.57241">
        <ele>17.1</ele>
        <time>2021-09-05T06:58:34Z</time>
      </trkpt>
      <trkpt lat="43.46574" lon="-1.5724">
        <ele>17.1</ele>
        <time>2021-09-05T06:58:35Z</time>
      </trkpt>
      <trkpt lat="43.46571" lon="-1.57239">
        <ele>17.1</ele>
        <time>2021-09-05T06:58:36Z</time>
      </trkpt>
      <trkpt lat="43.46567" lon="-1.57237">
        <ele>17.1</ele>
        <time>2021-09-05T06:58:37Z</time>
      </trkpt>
      <trkpt lat="43.46563" lon="-1.57236">
        <ele>17.1</ele>
        <time>2021-09-05T06:58:38Z</time>
      </trkpt>
      <trkpt lat="43.4656" lon="-1.57235">
        <ele>17.1</ele>
        <time>2021-09-05T06:58:39Z</time>
      </trkpt>
      <trkpt lat="43.46557" lon="-1.57233">
        <ele>17.1</ele>
        <time>2021-09-05T06:58:40Z</time>
      </trkpt>
      <trkpt lat="43.46554" lon="-1.57231">
        <ele>17.1</ele>
        <time>2021-09-05T06:58:41Z</time>
      </trkpt>
      <trkpt lat="43.46551" lon="-1.57229">
        <ele>17.2</ele>
        <time>2021-09-05T06:58:42Z</time>
      </trkpt>
      <trkpt lat="43.4655" lon="-1.57225">
        <ele>17.2</ele>
        <time>2021-09-05T06:58:43Z</time>
      </trkpt>
      <trkpt lat="43.46548" lon="-1.57222">
        <ele>17.3</ele>
        <time>2021-09-05T06:58:44Z</time>
      </trkpt>
      <trkpt lat="43.46548" lon="-1.57217">
        <ele>17.3</ele>
        <time>2021-09-05T06:58:45Z</time>
      </trkpt>
      <trkpt lat="43.46549" lon="-1.57214">
        <ele>17.4</ele>
        <time>2021-09-05T06:58:46Z</time>
      </trkpt>
      <trkpt lat="43.46549" lon="-1.57214">
        <ele>17.4</ele>
        <time>2021-09-05T06:58:47Z</time>
      </trkpt>
      <trkpt lat="43.46549" lon="-1.57214">
        <ele>17.4</ele>
        <time>2021-09-05T06:58:48Z</time>
      </trkpt>
      <trkpt lat="43.46549" lon="-1.57214">
        <ele>17.4</ele>
        <time>2021-09-05T06:58:49Z</time>
      </trkpt>
      <trkpt lat="43.46549" lon="-1.57214">
        <ele>17.4</ele>
        <time>2021-09-05T06:58:50Z</time>
      </trkpt>
      <trkpt lat="43.46549" lon="-1.57214">
        <ele>17.4</ele>
        <time>2021-09-05T06:58:51Z</time>
      </trkpt>
      <trkpt lat="43.46549" lon="-1.57214">
        <ele>17.4</ele>
        <time>2021-09-05T06:58:52Z</time>
      </trkpt>
      <trkpt lat="43.46559" lon="-1.5718">
        <ele>18.6</ele>
        <time>2021-09-05T06:58:53Z</time>
      </trkpt>
      <trkpt lat="43.46559" lon="-1.57177">
        <ele>18.8</ele>
        <time>2021-09-05T06:58:54Z</time>
      </trkpt>
      <trkpt lat="43.4656" lon="-1.57171">
        <ele>19.1</ele>
        <time>2021-09-05T06:58:55Z</time>
      </trkpt>
      <trkpt lat="43.46561" lon="-1.57168">
        <ele>19.5</ele>
        <time>2021-09-05T06:58:56Z</time>
      </trkpt>
      <trkpt lat="43.46558" lon="-1.57164">
        <ele>19.7</ele>
        <time>2021-09-05T06:58:57Z</time>
      </trkpt>
      <trkpt lat="43.46556" lon="-1.57163">
        <ele>19.9</ele>
        <time>2021-09-05T06:58:58Z</time>
      </trkpt>
      <trkpt lat="43.46554" lon="-1.57161">
        <ele>20</ele>
        <time>2021-09-05T06:58:59Z</time>
      </trkpt>
      <trkpt lat="43.4655" lon="-1.5716">
        <ele>20.2</ele>
        <time>2021-09-05T06:59:00Z</time>
      </trkpt>
      <trkpt lat="43.46548" lon="-1.5716">
        <ele>20.4</ele>
        <time>2021-09-05T06:59:01Z</time>
      </trkpt>
      <trkpt lat="43.46545" lon="-1.57159">
        <ele>20.6</ele>
        <time>2021-09-05T06:59:02Z</time>
      </trkpt>
      <trkpt lat="43.46542" lon="-1.57159">
        <ele>20.7</ele>
        <time>2021-09-05T06:59:03Z</time>
      </trkpt>
      <trkpt lat="43.4654" lon="-1.57159">
        <ele>20.9</ele>
        <time>2021-09-05T06:59:04Z</time>
      </trkpt>
      <trkpt lat="43.46537" lon="-1.57158">
        <ele>21</ele>
        <time>2021-09-05T06:59:05Z</time>
      </trkpt>
      <trkpt lat="43.46533" lon="-1.57158">
        <ele>21.2</ele>
        <time>2021-09-05T06:59:06Z</time>
      </trkpt>
      <trkpt lat="43.46529" lon="-1.57158">
        <ele>21.7</ele>
        <time>2021-09-05T06:59:07Z</time>
      </trkpt>
      <trkpt lat="43.46526" lon="-1.57158">
        <ele>21.7</ele>
        <time>2021-09-05T06:59:08Z</time>
      </trkpt>
      <trkpt lat="43.46523" lon="-1.57158">
        <ele>21.7</ele>
        <time>2021-09-05T06:59:09Z</time>
      </trkpt>
      <trkpt lat="43.4652" lon="-1.57158">
        <ele>21.8</ele>
        <time>2021-09-05T06:59:10Z</time>
      </trkpt>
      <trkpt lat="43.46517" lon="-1.57156">
        <ele>21.9</ele>
        <time>2021-09-05T06:59:11Z</time>
      </trkpt>
      <trkpt lat="43.46513" lon="-1.57154">
        <ele>22</ele>
        <time>2021-09-05T06:59:12Z</time>
      </trkpt>
      <trkpt lat="43.4651" lon="-1.57152">
        <ele>22.1</ele>
        <time>2021-09-05T06:59:13Z</time>
      </trkpt>
      <trkpt lat="43.46508" lon="-1.5715">
        <ele>22.2</ele>
        <time>2021-09-05T06:59:14Z</time>
      </trkpt>
      <trkpt lat="43.46505" lon="-1.57148">
        <ele>22.3</ele>
        <time>2021-09-05T06:59:15Z</time>
      </trkpt>
      <trkpt lat="43.46503" lon="-1.57145">
        <ele>22.5</ele>
        <time>2021-09-05T06:59:16Z</time>
      </trkpt>
      <trkpt lat="43.465" lon="-1.57142">
        <ele>22.7</ele>
        <time>2021-09-05T06:59:17Z</time>
      </trkpt>
      <trkpt lat="43.46497" lon="-1.57139">
        <ele>23</ele>
        <time>2021-09-05T06:59:18Z</time>
      </trkpt>
      <trkpt lat="43.46495" lon="-1.57136">
        <ele>23.2</ele>
        <time>2021-09-05T06:59:19Z</time>
      </trkpt>
      <trkpt lat="43.46493" lon="-1.57133">
        <ele>23.3</ele>
        <time>2021-09-05T06:59:20Z</time>
      </trkpt>
      <trkpt lat="43.4649" lon="-1.5713">
        <ele>23.6</ele>
        <time>2021-09-05T06:59:21Z</time>
      </trkpt>
      <trkpt lat="43.46488" lon="-1.57127">
        <ele>23.8</ele>
        <time>2021-09-05T06:59:22Z</time>
      </trkpt>
      <trkpt lat="43.46485" lon="-1.57124">
        <ele>24</ele>
        <time>2021-09-05T06:59:23Z</time>
      </trkpt>
      <trkpt lat="43.46483" lon="-1.57122">
        <ele>24.2</ele>
        <time>2021-09-05T06:59:24Z</time>
      </trkpt>
      <trkpt lat="43.46481" lon="-1.57119">
        <ele>24.4</ele>
        <time>2021-09-05T06:59:25Z</time>
      </trkpt>
      <trkpt lat="43.46478" lon="-1.57117">
        <ele>24.6</ele>
        <time>2021-09-05T06:59:26Z</time>
      </trkpt>
      <trkpt lat="43.46476" lon="-1.57114">
        <ele>24.9</ele>
        <time>2021-09-05T06:59:27Z</time>
      </trkpt>
      <trkpt lat="43.46473" lon="-1.57111">
        <ele>25.1</ele>
        <time>2021-09-05T06:59:28Z</time>
      </trkpt>
      <trkpt lat="43.46471" lon="-1.57108">
        <ele>25.3</ele>
        <time>2021-09-05T06:59:29Z</time>
      </trkpt>
      <trkpt lat="43.46469" lon="-1.57105">
        <ele>25.5</ele>
        <time>2021-09-05T06:59:30Z</time>
      </trkpt>
      <trkpt lat="43.46466" lon="-1.57102">
        <ele>25.8</ele>
        <time>2021-09-05T06:59:31Z</time>
      </trkpt>
      <trkpt lat="43.46463" lon="-1.57099">
        <ele>26</ele>
        <time>2021-09-05T06:59:32Z</time>
      </trkpt>
      <trkpt lat="43.46461" lon="-1.57097">
        <ele>26.2</ele>
        <time>2021-09-05T06:59:33Z</time>
      </trkpt>
      <trkpt lat="43.46458" lon="-1.57094">
        <ele>26.5</ele>
        <time>2021-09-05T06:59:34Z</time>
      </trkpt>
      <trkpt lat="43.46455" lon="-1.57092">
        <ele>26.6</ele>
        <time>2021-09-05T06:59:35Z</time>
      </trkpt>
      <trkpt lat="43.46453" lon="-1.5709">
        <ele>26.9</ele>
        <time>2021-09-05T06:59:36Z</time>
      </trkpt>
      <trkpt lat="43.46451" lon="-1.57087">
        <ele>27.1</ele>
        <time>2021-09-05T06:59:37Z</time>
      </trkpt>
      <trkpt lat="43.46448" lon="-1.57085">
        <ele>27.3</ele>
        <time>2021-09-05T06:59:38Z</time>
      </trkpt>
      <trkpt lat="43.46446" lon="-1.57082">
        <ele>27.5</ele>
        <time>2021-09-05T06:59:39Z</time>
      </trkpt>
      <trkpt lat="43.46443" lon="-1.5708">
        <ele>27.7</ele>
        <time>2021-09-05T06:59:40Z</time>
      </trkpt>
      <trkpt lat="43.46441" lon="-1.57078">
        <ele>27.9</ele>
        <time>2021-09-05T06:59:41Z</time>
      </trkpt>
      <trkpt lat="43.46437" lon="-1.57076">
        <ele>28.1</ele>
        <time>2021-09-05T06:59:42Z</time>
      </trkpt>
      <trkpt lat="43.46434" lon="-1.57075">
        <ele>28.4</ele>
        <time>2021-09-05T06:59:43Z</time>
      </trkpt>
      <trkpt lat="43.46431" lon="-1.57073">
        <ele>28.5</ele>
        <time>2021-09-05T06:59:44Z</time>
      </trkpt>
      <trkpt lat="43.46427" lon="-1.57071">
        <ele>28.7</ele>
        <time>2021-09-05T06:59:45Z</time>
      </trkpt>
      <trkpt lat="43.46424" lon="-1.5707">
        <ele>28.8</ele>
        <time>2021-09-05T06:59:46Z</time>
      </trkpt>
      <trkpt lat="43.46421" lon="-1.57068">
        <ele>28.9</ele>
        <time>2021-09-05T06:59:47Z</time>
      </trkpt>
      <trkpt lat="43.46418" lon="-1.57067">
        <ele>29</ele>
        <time>2021-09-05T06:59:48Z</time>
      </trkpt>
      <trkpt lat="43.46414" lon="-1.57066">
        <ele>29.1</ele>
        <time>2021-09-05T06:59:49Z</time>
      </trkpt>
      <trkpt lat="43.46411" lon="-1.57065">
        <ele>29.2</ele>
        <time>2021-09-05T06:59:50Z</time>
      </trkpt>
      <trkpt lat="43.46407" lon="-1.57063">
        <ele>29.2</ele>
        <time>2021-09-05T06:59:51Z</time>
      </trkpt>
      <trkpt lat="43.46404" lon="-1.57063">
        <ele>29.3</ele>
        <time>2021-09-05T06:59:52Z</time>
      </trkpt>
      <trkpt lat="43.464" lon="-1.57062">
        <ele>29.4</ele>
        <time>2021-09-05T06:59:53Z</time>
      </trkpt>
      <trkpt lat="43.46397" lon="-1.57062">
        <ele>29.5</ele>
        <time>2021-09-05T06:59:54Z</time>
      </trkpt>
      <trkpt lat="43.46394" lon="-1.57061">
        <ele>29.5</ele>
        <time>2021-09-05T06:59:55Z</time>
      </trkpt>
      <trkpt lat="43.4639" lon="-1.5706">
        <ele>29.5</ele>
        <time>2021-09-05T06:59:56Z</time>
      </trkpt>
      <trkpt lat="43.46387" lon="-1.5706">
        <ele>29.5</ele>
        <time>2021-09-05T06:59:57Z</time>
      </trkpt>
      <trkpt lat="43.46383" lon="-1.57059">
        <ele>29.6</ele>
        <time>2021-09-05T06:59:58Z</time>
      </trkpt>
      <trkpt lat="43.4638" lon="-1.57058">
        <ele>29.6</ele>
        <time>2021-09-05T06:59:59Z</time>
      </trkpt>
      <trkpt lat="43.46374" lon="-1.57058">
        <ele>29.6</ele>
        <time>2021-09-05T07:00:00Z</time>
      </trkpt>
      <trkpt lat="43.46373" lon="-1.57058">
        <ele>29.6</ele>
        <time>2021-09-05T07:00:01Z</time>
      </trkpt>
      <trkpt lat="43.46369" lon="-1.57058">
        <ele>29.7</ele>
        <time>2021-09-05T07:00:02Z</time>
      </trkpt>
      <trkpt lat="43.46366" lon="-1.57058">
        <ele>29.7</ele>
        <time>2021-09-05T07:00:03Z</time>
      </trkpt>
      <trkpt lat="43.46362" lon="-1.57058">
        <ele>29.8</ele>
        <time>2021-09-05T07:00:04Z</time>
      </trkpt>
      <trkpt lat="43.46358" lon="-1.57059">
        <ele>29.8</ele>
        <time>2021-09-05T07:00:05Z</time>
      </trkpt>
      <trkpt lat="43.46354" lon="-1.57059">
        <ele>29.9</ele>
        <time>2021-09-05T07:00:06Z</time>
      </trkpt>
      <trkpt lat="43.4635" lon="-1.57059">
        <ele>29.9</ele>
        <time>2021-09-05T07:00:07Z</time>
      </trkpt>
      <trkpt lat="43.46347" lon="-1.57059">
        <ele>29.9</ele>
        <time>2021-09-05T07:00:08Z</time>
      </trkpt>
      <trkpt lat="43.46342" lon="-1.57059">
        <ele>29.9</ele>
        <time>2021-09-05T07:00:09Z</time>
      </trkpt>
      <trkpt lat="43.46338" lon="-1.57059">
        <ele>29.9</ele>
        <time>2021-09-05T07:00:10Z</time>
      </trkpt>
      <trkpt lat="43.46334" lon="-1.57059">
        <ele>29.9</ele>
        <time>2021-09-05T07:00:11Z</time>
      </trkpt>
      <trkpt lat="43.4633" lon="-1.57059">
        <ele>29.9</ele>
        <time>2021-09-05T07:00:12Z</time>
      </trkpt>
      <trkpt lat="43.46326" lon="-1.5706">
        <ele>29.8</ele>
        <time>2021-09-05T07:00:13Z</time>
      </trkpt>
      <trkpt lat="43.46322" lon="-1.5706">
        <ele>29.8</ele>
        <time>2021-09-05T07:00:14Z</time>
      </trkpt>
      <trkpt lat="43.46318" lon="-1.5706">
        <ele>29.7</ele>
        <time>2021-09-05T07:00:15Z</time>
      </trkpt>
      <trkpt lat="43.46314" lon="-1.5706">
        <ele>29.7</ele>
        <time>2021-09-05T07:00:16Z</time>
      </trkpt>
      <trkpt lat="43.4631" lon="-1.57061">
        <ele>29.6</ele>
        <time>2021-09-05T07:00:17Z</time>
      </trkpt>
      <trkpt lat="43.46306" lon="-1.57061">
        <ele>29.6</ele>
        <time>2021-09-05T07:00:18Z</time>
      </trkpt>
      <trkpt lat="43.46302" lon="-1.57061">
        <ele>29.5</ele>
        <time>2021-09-05T07:00:19Z</time>
      </trkpt>
      <trkpt lat="43.46298" lon="-1.57061">
        <ele>29.4</ele>
        <time>2021-09-05T07:00:20Z</time>
      </trkpt>
      <trkpt lat="43.46294" lon="-1.57062">
        <ele>29.4</ele>
        <time>2021-09-05T07:00:21Z</time>
      </trkpt>
      <trkpt lat="43.4629" lon="-1.57062">
        <ele>29.3</ele>
        <time>2021-09-05T07:00:22Z</time>
      </trkpt>
      <trkpt lat="43.46286" lon="-1.57062">
        <ele>29.3</ele>
        <time>2021-09-05T07:00:23Z</time>
      </trkpt>
      <trkpt lat="43.46282" lon="-1.57062">
        <ele>29.2</ele>
        <time>2021-09-05T07:00:24Z</time>
      </trkpt>
      <trkpt lat="43.46278" lon="-1.57062">
        <ele>29.2</ele>
        <time>2021-09-05T07:00:25Z</time>
      </trkpt>
      <trkpt lat="43.46274" lon="-1.57062">
        <ele>29.1</ele>
        <time>2021-09-05T07:00:26Z</time>
      </trkpt>
      <trkpt lat="43.4627" lon="-1.57062">
        <ele>29.1</ele>
        <time>2021-09-05T07:00:27Z</time>
      </trkpt>
      <trkpt lat="43.46266" lon="-1.57063">
        <ele>29</ele>
        <time>2021-09-05T07:00:28Z</time>
      </trkpt>
      <trkpt lat="43.46262" lon="-1.57065">
        <ele>29</ele>
        <time>2021-09-05T07:00:29Z</time>
      </trkpt>
      <trkpt lat="43.46258" lon="-1.57066">
        <ele>28.8</ele>
        <time>2021-09-05T07:00:30Z</time>
      </trkpt>
      <trkpt lat="43.46254" lon="-1.57067">
        <ele>28.6</ele>
        <time>2021-09-05T07:00:31Z</time>
      </trkpt>
      <trkpt lat="43.4625" lon="-1.57067">
        <ele>28.4</ele>
        <time>2021-09-05T07:00:32Z</time>
      </trkpt>
      <trkpt lat="43.46246" lon="-1.57067">
        <ele>28.2</ele>
        <time>2021-09-05T07:00:33Z</time>
      </trkpt>
      <trkpt lat="43.46243" lon="-1.57066">
        <ele>28</ele>
        <time>2021-09-05T07:00:34Z</time>
      </trkpt>
      <trkpt lat="43.46239" lon="-1.57064">
        <ele>27.7</ele>
        <time>2021-09-05T07:00:35Z</time>
      </trkpt>
      <trkpt lat="43.46235" lon="-1.57063">
        <ele>27.6</ele>
        <time>2021-09-05T07:00:36Z</time>
      </trkpt>
      <trkpt lat="43.46231" lon="-1.57063">
        <ele>27.5</ele>
        <time>2021-09-05T07:00:37Z</time>
      </trkpt>
      <trkpt lat="43.46228" lon="-1.57062">
        <ele>27.3</ele>
        <time>2021-09-05T07:00:38Z</time>
      </trkpt>
      <trkpt lat="43.46224" lon="-1.57062">
        <ele>27.2</ele>
        <time>2021-09-05T07:00:39Z</time>
      </trkpt>
      <trkpt lat="43.4622" lon="-1.5706">
        <ele>27.1</ele>
        <time>2021-09-05T07:00:40Z</time>
      </trkpt>
      <trkpt lat="43.46215" lon="-1.57059">
        <ele>26.8</ele>
        <time>2021-09-05T07:00:41Z</time>
      </trkpt>
      <trkpt lat="43.46211" lon="-1.57058">
        <ele>26.7</ele>
        <time>2021-09-05T07:00:42Z</time>
      </trkpt>
      <trkpt lat="43.46207" lon="-1.57056">
        <ele>26.6</ele>
        <time>2021-09-05T07:00:43Z</time>
      </trkpt>
      <trkpt lat="43.46204" lon="-1.57053">
        <ele>26.4</ele>
        <time>2021-09-05T07:00:44Z</time>
      </trkpt>
      <trkpt lat="43.46201" lon="-1.5705">
        <ele>26.2</ele>
        <time>2021-09-05T07:00:45Z</time>
      </trkpt>
      <trkpt lat="43.46197" lon="-1.57047">
        <ele>26.2</ele>
        <time>2021-09-05T07:00:46Z</time>
      </trkpt>
      <trkpt lat="43.46195" lon="-1.57043">
        <ele>26.3</ele>
        <time>2021-09-05T07:00:47Z</time>
      </trkpt>
      <trkpt lat="43.46191" lon="-1.57039">
        <ele>26.4</ele>
        <time>2021-09-05T07:00:48Z</time>
      </trkpt>
      <trkpt lat="43.46189" lon="-1.57034">
        <ele>26.5</ele>
        <time>2021-09-05T07:00:49Z</time>
      </trkpt>
      <trkpt lat="43.46186" lon="-1.57029">
        <ele>26.7</ele>
        <time>2021-09-05T07:00:50Z</time>
      </trkpt>
      <trkpt lat="43.46183" lon="-1.57025">
        <ele>26.8</ele>
        <time>2021-09-05T07:00:51Z</time>
      </trkpt>
      <trkpt lat="43.46181" lon="-1.5702">
        <ele>26.8</ele>
        <time>2021-09-05T07:00:52Z</time>
      </trkpt>
      <trkpt lat="43.46179" lon="-1.57015">
        <ele>26.8</ele>
        <time>2021-09-05T07:00:53Z</time>
      </trkpt>
      <trkpt lat="43.46177" lon="-1.5701">
        <ele>26.9</ele>
        <time>2021-09-05T07:00:54Z</time>
      </trkpt>
      <trkpt lat="43.46174" lon="-1.57006">
        <ele>27</ele>
        <time>2021-09-05T07:00:55Z</time>
      </trkpt>
      <trkpt lat="43.46172" lon="-1.57001">
        <ele>27</ele>
        <time>2021-09-05T07:00:56Z</time>
      </trkpt>
      <trkpt lat="43.4617" lon="-1.56996">
        <ele>27.1</ele>
        <time>2021-09-05T07:00:57Z</time>
      </trkpt>
      <trkpt lat="43.46167" lon="-1.56992">
        <ele>27.2</ele>
        <time>2021-09-05T07:00:58Z</time>
      </trkpt>
      <trkpt lat="43.46165" lon="-1.56987">
        <ele>27.1</ele>
        <time>2021-09-05T07:00:59Z</time>
      </trkpt>
      <trkpt lat="43.46163" lon="-1.56983">
        <ele>27.1</ele>
        <time>2021-09-05T07:01:00Z</time>
      </trkpt>
      <trkpt lat="43.46163" lon="-1.56983">
        <ele>27.1</ele>
        <time>2021-09-05T07:01:01Z</time>
      </trkpt>
      <trkpt lat="43.46158" lon="-1.56971">
        <ele>27.3</ele>
        <time>2021-09-05T07:01:02Z</time>
      </trkpt>
      <trkpt lat="43.46157" lon="-1.56969">
        <ele>27.3</ele>
        <time>2021-09-05T07:01:03Z</time>
      </trkpt>
      <trkpt lat="43.46155" lon="-1.56964">
        <ele>27.4</ele>
        <time>2021-09-05T07:01:04Z</time>
      </trkpt>
      <trkpt lat="43.46153" lon="-1.56959">
        <ele>27.5</ele>
        <time>2021-09-05T07:01:05Z</time>
      </trkpt>
      <trkpt lat="43.46151" lon="-1.56955">
        <ele>27.5</ele>
        <time>2021-09-05T07:01:06Z</time>
      </trkpt>
      <trkpt lat="43.46149" lon="-1.5695">
        <ele>27.6</ele>
        <time>2021-09-05T07:01:07Z</time>
      </trkpt>
      <trkpt lat="43.46146" lon="-1.56946">
        <ele>27.6</ele>
        <time>2021-09-05T07:01:08Z</time>
      </trkpt>
      <trkpt lat="43.46143" lon="-1.56944">
        <ele>27.6</ele>
        <time>2021-09-05T07:01:09Z</time>
      </trkpt>
      <trkpt lat="43.46139" lon="-1.56942">
        <ele>27.5</ele>
        <time>2021-09-05T07:01:10Z</time>
      </trkpt>
      <trkpt lat="43.46136" lon="-1.5694">
        <ele>27.5</ele>
        <time>2021-09-05T07:01:11Z</time>
      </trkpt>
      <trkpt lat="43.46132" lon="-1.56939">
        <ele>27.5</ele>
        <time>2021-09-05T07:01:12Z</time>
      </trkpt>
      <trkpt lat="43.46128" lon="-1.56937">
        <ele>27.5</ele>
        <time>2021-09-05T07:01:13Z</time>
      </trkpt>
      <trkpt lat="43.46124" lon="-1.56935">
        <ele>27.5</ele>
        <time>2021-09-05T07:01:14Z</time>
      </trkpt>
      <trkpt lat="43.4612" lon="-1.56933">
        <ele>27.4</ele>
        <time>2021-09-05T07:01:15Z</time>
      </trkpt>
      <trkpt lat="43.46116" lon="-1.56931">
        <ele>27.3</ele>
        <time>2021-09-05T07:01:16Z</time>
      </trkpt>
      <trkpt lat="43.46112" lon="-1.5693">
        <ele>27.2</ele>
        <time>2021-09-05T07:01:17Z</time>
      </trkpt>
      <trkpt lat="43.46107" lon="-1.56928">
        <ele>27.1</ele>
        <time>2021-09-05T07:01:18Z</time>
      </trkpt>
      <trkpt lat="43.46102" lon="-1.56927">
        <ele>27</ele>
        <time>2021-09-05T07:01:19Z</time>
      </trkpt>
      <trkpt lat="43.46098" lon="-1.56926">
        <ele>26.8</ele>
        <time>2021-09-05T07:01:20Z</time>
      </trkpt>
      <trkpt lat="43.46093" lon="-1.56925">
        <ele>26.7</ele>
        <time>2021-09-05T07:01:21Z</time>
      </trkpt>
      <trkpt lat="43.46089" lon="-1.56924">
        <ele>26.5</ele>
        <time>2021-09-05T07:01:22Z</time>
      </trkpt>
      <trkpt lat="43.46085" lon="-1.56924">
        <ele>26.3</ele>
        <time>2021-09-05T07:01:23Z</time>
      </trkpt>
      <trkpt lat="43.46081" lon="-1.56923">
        <ele>26.1</ele>
        <time>2021-09-05T07:01:24Z</time>
      </trkpt>
      <trkpt lat="43.46077" lon="-1.56923">
        <ele>25.9</ele>
        <time>2021-09-05T07:01:25Z</time>
      </trkpt>
      <trkpt lat="43.46072" lon="-1.56922">
        <ele>25.7</ele>
        <time>2021-09-05T07:01:26Z</time>
      </trkpt>
      <trkpt lat="43.46068" lon="-1.56921">
        <ele>25.5</ele>
        <time>2021-09-05T07:01:27Z</time>
      </trkpt>
      <trkpt lat="43.46064" lon="-1.5692">
        <ele>25.3</ele>
        <time>2021-09-05T07:01:28Z</time>
      </trkpt>
      <trkpt lat="43.4606" lon="-1.5692">
        <ele>25.1</ele>
        <time>2021-09-05T07:01:29Z</time>
      </trkpt>
      <trkpt lat="43.46056" lon="-1.5692">
        <ele>24.9</ele>
        <time>2021-09-05T07:01:30Z</time>
      </trkpt>
      <trkpt lat="43.46052" lon="-1.56919">
        <ele>24.7</ele>
        <time>2021-09-05T07:01:31Z</time>
      </trkpt>
      <trkpt lat="43.46047" lon="-1.56919">
        <ele>24.4</ele>
        <time>2021-09-05T07:01:32Z</time>
      </trkpt>
      <trkpt lat="43.46043" lon="-1.56918">
        <ele>24.2</ele>
        <time>2021-09-05T07:01:33Z</time>
      </trkpt>
      <trkpt lat="43.46039" lon="-1.56916">
        <ele>23.9</ele>
        <time>2021-09-05T07:01:34Z</time>
      </trkpt>
      <trkpt lat="43.46035" lon="-1.56916">
        <ele>23.6</ele>
        <time>2021-09-05T07:01:35Z</time>
      </trkpt>
      <trkpt lat="43.46031" lon="-1.56916">
        <ele>23.4</ele>
        <time>2021-09-05T07:01:36Z</time>
      </trkpt>
      <trkpt lat="43.46027" lon="-1.56916">
        <ele>23.1</ele>
        <time>2021-09-05T07:01:37Z</time>
      </trkpt>
      <trkpt lat="43.46023" lon="-1.56915">
        <ele>22.8</ele>
        <time>2021-09-05T07:01:38Z</time>
      </trkpt>
      <trkpt lat="43.46019" lon="-1.56913">
        <ele>22.5</ele>
        <time>2021-09-05T07:01:39Z</time>
      </trkpt>
      <trkpt lat="43.46015" lon="-1.56911">
        <ele>22.2</ele>
        <time>2021-09-05T07:01:40Z</time>
      </trkpt>
      <trkpt lat="43.46011" lon="-1.56908">
        <ele>21.9</ele>
        <time>2021-09-05T07:01:41Z</time>
      </trkpt>
      <trkpt lat="43.46007" lon="-1.56905">
        <ele>21.6</ele>
        <time>2021-09-05T07:01:42Z</time>
      </trkpt>
      <trkpt lat="43.46003" lon="-1.56902">
        <ele>21.3</ele>
        <time>2021-09-05T07:01:43Z</time>
      </trkpt>
      <trkpt lat="43.45999" lon="-1.56898">
        <ele>21</ele>
        <time>2021-09-05T07:01:44Z</time>
      </trkpt>
      <trkpt lat="43.45996" lon="-1.56895">
        <ele>20.8</ele>
        <time>2021-09-05T07:01:45Z</time>
      </trkpt>
      <trkpt lat="43.45993" lon="-1.56892">
        <ele>20.5</ele>
        <time>2021-09-05T07:01:46Z</time>
      </trkpt>
      <trkpt lat="43.4599" lon="-1.56887">
        <ele>20.3</ele>
        <time>2021-09-05T07:01:47Z</time>
      </trkpt>
      <trkpt lat="43.45988" lon="-1.56883">
        <ele>20.2</ele>
        <time>2021-09-05T07:01:48Z</time>
      </trkpt>
      <trkpt lat="43.45985" lon="-1.56879">
        <ele>20</ele>
        <time>2021-09-05T07:01:49Z</time>
      </trkpt>
      <trkpt lat="43.45983" lon="-1.56874">
        <ele>19.9</ele>
        <time>2021-09-05T07:01:50Z</time>
      </trkpt>
      <trkpt lat="43.45981" lon="-1.56869">
        <ele>19.7</ele>
        <time>2021-09-05T07:01:51Z</time>
      </trkpt>
      <trkpt lat="43.4598" lon="-1.56864">
        <ele>19.5</ele>
        <time>2021-09-05T07:01:52Z</time>
      </trkpt>
      <trkpt lat="43.45978" lon="-1.56859">
        <ele>19.3</ele>
        <time>2021-09-05T07:01:53Z</time>
      </trkpt>
      <trkpt lat="43.45977" lon="-1.56853">
        <ele>19.1</ele>
        <time>2021-09-05T07:01:54Z</time>
      </trkpt>
      <trkpt lat="43.45975" lon="-1.56847">
        <ele>18.8</ele>
        <time>2021-09-05T07:01:55Z</time>
      </trkpt>
      <trkpt lat="43.45974" lon="-1.56842">
        <ele>18.7</ele>
        <time>2021-09-05T07:01:56Z</time>
      </trkpt>
      <trkpt lat="43.45973" lon="-1.56836">
        <ele>18.5</ele>
        <time>2021-09-05T07:01:57Z</time>
      </trkpt>
      <trkpt lat="43.45972" lon="-1.5683">
        <ele>18.3</ele>
        <time>2021-09-05T07:01:58Z</time>
      </trkpt>
      <trkpt lat="43.4597" lon="-1.56824">
        <ele>18.2</ele>
        <time>2021-09-05T07:01:59Z</time>
      </trkpt>
      <trkpt lat="43.45969" lon="-1.56818">
        <ele>18.2</ele>
        <time>2021-09-05T07:02:00Z</time>
      </trkpt>
      <trkpt lat="43.45967" lon="-1.56813">
        <ele>18.1</ele>
        <time>2021-09-05T07:02:01Z</time>
      </trkpt>
      <trkpt lat="43.45966" lon="-1.56809">
        <ele>18.1</ele>
        <time>2021-09-05T07:02:02Z</time>
      </trkpt>
      <trkpt lat="43.45965" lon="-1.56804">
        <ele>18</ele>
        <time>2021-09-05T07:02:03Z</time>
      </trkpt>
      <trkpt lat="43.45964" lon="-1.56801">
        <ele>18</ele>
        <time>2021-09-05T07:02:04Z</time>
      </trkpt>
      <trkpt lat="43.45963" lon="-1.56799">
        <ele>18</ele>
        <time>2021-09-05T07:02:05Z</time>
      </trkpt>
      <trkpt lat="43.45962" lon="-1.56796">
        <ele>18</ele>
        <time>2021-09-05T07:02:06Z</time>
      </trkpt>
      <trkpt lat="43.45961" lon="-1.56794">
        <ele>18</ele>
        <time>2021-09-05T07:02:07Z</time>
      </trkpt>
      <trkpt lat="43.45961" lon="-1.56794">
        <ele>18</ele>
        <time>2021-09-05T07:02:08Z</time>
      </trkpt>
      <trkpt lat="43.45959" lon="-1.5679">
        <ele>17.9</ele>
        <time>2021-09-05T07:02:09Z</time>
      </trkpt>
      <trkpt lat="43.45957" lon="-1.56787">
        <ele>17.9</ele>
        <time>2021-09-05T07:02:10Z</time>
      </trkpt>
      <trkpt lat="43.45955" lon="-1.56784">
        <ele>17.9</ele>
        <time>2021-09-05T07:02:11Z</time>
      </trkpt>
      <trkpt lat="43.45953" lon="-1.56779">
        <ele>17.9</ele>
        <time>2021-09-05T07:02:12Z</time>
      </trkpt>
      <trkpt lat="43.4595" lon="-1.56775">
        <ele>17.9</ele>
        <time>2021-09-05T07:02:13Z</time>
      </trkpt>
      <trkpt lat="43.45947" lon="-1.56771">
        <ele>17.9</ele>
        <time>2021-09-05T07:02:14Z</time>
      </trkpt>
      <trkpt lat="43.45945" lon="-1.56766">
        <ele>17.9</ele>
        <time>2021-09-05T07:02:15Z</time>
      </trkpt>
      <trkpt lat="43.45943" lon="-1.56761">
        <ele>17.9</ele>
        <time>2021-09-05T07:02:16Z</time>
      </trkpt>
      <trkpt lat="43.45941" lon="-1.56757">
        <ele>17.9</ele>
        <time>2021-09-05T07:02:17Z</time>
      </trkpt>
      <trkpt lat="43.45941" lon="-1.56752">
        <ele>17.9</ele>
        <time>2021-09-05T07:02:18Z</time>
      </trkpt>
      <trkpt lat="43.45939" lon="-1.56746">
        <ele>17.9</ele>
        <time>2021-09-05T07:02:19Z</time>
      </trkpt>
      <trkpt lat="43.45938" lon="-1.56741">
        <ele>17.9</ele>
        <time>2021-09-05T07:02:20Z</time>
      </trkpt>
      <trkpt lat="43.45937" lon="-1.56736">
        <ele>17.9</ele>
        <time>2021-09-05T07:02:21Z</time>
      </trkpt>
      <trkpt lat="43.45936" lon="-1.56731">
        <ele>18</ele>
        <time>2021-09-05T07:02:22Z</time>
      </trkpt>
      <trkpt lat="43.45936" lon="-1.56726">
        <ele>18</ele>
        <time>2021-09-05T07:02:23Z</time>
      </trkpt>
      <trkpt lat="43.45937" lon="-1.5672">
        <ele>18</ele>
        <time>2021-09-05T07:02:24Z</time>
      </trkpt>
      <trkpt lat="43.45937" lon="-1.56714">
        <ele>18</ele>
        <time>2021-09-05T07:02:25Z</time>
      </trkpt>
      <trkpt lat="43.45939" lon="-1.56709">
        <ele>18.1</ele>
        <time>2021-09-05T07:02:26Z</time>
      </trkpt>
      <trkpt lat="43.4594" lon="-1.56704">
        <ele>18.1</ele>
        <time>2021-09-05T07:02:27Z</time>
      </trkpt>
      <trkpt lat="43.45942" lon="-1.567">
        <ele>18.5</ele>
        <time>2021-09-05T07:02:28Z</time>
      </trkpt>
      <trkpt lat="43.45945" lon="-1.56698">
        <ele>18.7</ele>
        <time>2021-09-05T07:02:29Z</time>
      </trkpt>
      <trkpt lat="43.45948" lon="-1.56697">
        <ele>18.8</ele>
        <time>2021-09-05T07:02:30Z</time>
      </trkpt>
      <trkpt lat="43.4595" lon="-1.56696">
        <ele>19</ele>
        <time>2021-09-05T07:02:31Z</time>
      </trkpt>
      <trkpt lat="43.45952" lon="-1.56696">
        <ele>19.1</ele>
        <time>2021-09-05T07:02:32Z</time>
      </trkpt>
      <trkpt lat="43.45955" lon="-1.56697">
        <ele>19.3</ele>
        <time>2021-09-05T07:02:33Z</time>
      </trkpt>
      <trkpt lat="43.45957" lon="-1.56698">
        <ele>19.5</ele>
        <time>2021-09-05T07:02:34Z</time>
      </trkpt>
      <trkpt lat="43.4596" lon="-1.56699">
        <ele>19.7</ele>
        <time>2021-09-05T07:02:35Z</time>
      </trkpt>
      <trkpt lat="43.45963" lon="-1.567">
        <ele>19.9</ele>
        <time>2021-09-05T07:02:36Z</time>
      </trkpt>
      <trkpt lat="43.45966" lon="-1.567">
        <ele>20.2</ele>
        <time>2021-09-05T07:02:37Z</time>
      </trkpt>
      <trkpt lat="43.45971" lon="-1.56699">
        <ele>20.6</ele>
        <time>2021-09-05T07:02:38Z</time>
      </trkpt>
      <trkpt lat="43.45973" lon="-1.56696">
        <ele>20.8</ele>
        <time>2021-09-05T07:02:39Z</time>
      </trkpt>
      <trkpt lat="43.45977" lon="-1.56694">
        <ele>21.1</ele>
        <time>2021-09-05T07:02:40Z</time>
      </trkpt>
      <trkpt lat="43.45979" lon="-1.56691">
        <ele>21.4</ele>
        <time>2021-09-05T07:02:41Z</time>
      </trkpt>
      <trkpt lat="43.45982" lon="-1.56686">
        <ele>21.7</ele>
        <time>2021-09-05T07:02:42Z</time>
      </trkpt>
      <trkpt lat="43.45984" lon="-1.56682">
        <ele>22</ele>
        <time>2021-09-05T07:02:43Z</time>
      </trkpt>
      <trkpt lat="43.45986" lon="-1.56678">
        <ele>22.3</ele>
        <time>2021-09-05T07:02:44Z</time>
      </trkpt>
      <trkpt lat="43.45989" lon="-1.56674">
        <ele>22.6</ele>
        <time>2021-09-05T07:02:45Z</time>
      </trkpt>
      <trkpt lat="43.4599" lon="-1.56673">
        <ele>22.8</ele>
        <time>2021-09-05T07:02:46Z</time>
      </trkpt>
      <trkpt lat="43.45993" lon="-1.56673">
        <ele>23</ele>
        <time>2021-09-05T07:02:47Z</time>
      </trkpt>
      <trkpt lat="43.45995" lon="-1.56674">
        <ele>23.3</ele>
        <time>2021-09-05T07:02:48Z</time>
      </trkpt>
      <trkpt lat="43.45998" lon="-1.56675">
        <ele>23.6</ele>
        <time>2021-09-05T07:02:49Z</time>
      </trkpt>
      <trkpt lat="43.46" lon="-1.56677">
        <ele>23.9</ele>
        <time>2021-09-05T07:02:50Z</time>
      </trkpt>
      <trkpt lat="43.46002" lon="-1.56678">
        <ele>24.2</ele>
        <time>2021-09-05T07:02:51Z</time>
      </trkpt>
      <trkpt lat="43.46005" lon="-1.56679">
        <ele>24.4</ele>
        <time>2021-09-05T07:02:52Z</time>
      </trkpt>
      <trkpt lat="43.46007" lon="-1.56681">
        <ele>24.7</ele>
        <time>2021-09-05T07:02:53Z</time>
      </trkpt>
      <trkpt lat="43.4601" lon="-1.56682">
        <ele>25.1</ele>
        <time>2021-09-05T07:02:54Z</time>
      </trkpt>
      <trkpt lat="43.46012" lon="-1.56683">
        <ele>25.4</ele>
        <time>2021-09-05T07:02:55Z</time>
      </trkpt>
      <trkpt lat="43.46014" lon="-1.56684">
        <ele>25.6</ele>
        <time>2021-09-05T07:02:56Z</time>
      </trkpt>
      <trkpt lat="43.46016" lon="-1.56684">
        <ele>25.9</ele>
        <time>2021-09-05T07:02:57Z</time>
      </trkpt>
      <trkpt lat="43.46019" lon="-1.56683">
        <ele>26.2</ele>
        <time>2021-09-05T07:02:58Z</time>
      </trkpt>
      <trkpt lat="43.46021" lon="-1.56682">
        <ele>26.4</ele>
        <time>2021-09-05T07:02:59Z</time>
      </trkpt>
      <trkpt lat="43.46023" lon="-1.56681">
        <ele>26.7</ele>
        <time>2021-09-05T07:03:00Z</time>
      </trkpt>
      <trkpt lat="43.46025" lon="-1.5668">
        <ele>26.9</ele>
        <time>2021-09-05T07:03:01Z</time>
      </trkpt>
      <trkpt lat="43.46027" lon="-1.56679">
        <ele>27.1</ele>
        <time>2021-09-05T07:03:02Z</time>
      </trkpt>
      <trkpt lat="43.46029" lon="-1.56677">
        <ele>27.4</ele>
        <time>2021-09-05T07:03:03Z</time>
      </trkpt>
      <trkpt lat="43.46031" lon="-1.56675">
        <ele>27.7</ele>
        <time>2021-09-05T07:03:04Z</time>
      </trkpt>
      <trkpt lat="43.46033" lon="-1.56673">
        <ele>27.9</ele>
        <time>2021-09-05T07:03:05Z</time>
      </trkpt>
      <trkpt lat="43.46036" lon="-1.56672">
        <ele>28.2</ele>
        <time>2021-09-05T07:03:06Z</time>
      </trkpt>
      <trkpt lat="43.46038" lon="-1.5667">
        <ele>28.5</ele>
        <time>2021-09-05T07:03:07Z</time>
      </trkpt>
      <trkpt lat="43.46038" lon="-1.5667">
        <ele>28.5</ele>
        <time>2021-09-05T07:03:08Z</time>
      </trkpt>
      <trkpt lat="43.46042" lon="-1.56666">
        <ele>28.9</ele>
        <time>2021-09-05T07:03:09Z</time>
      </trkpt>
      <trkpt lat="43.46043" lon="-1.56665">
        <ele>29</ele>
        <time>2021-09-05T07:03:10Z</time>
      </trkpt>
      <trkpt lat="43.46046" lon="-1.56662">
        <ele>29.3</ele>
        <time>2021-09-05T07:03:11Z</time>
      </trkpt>
      <trkpt lat="43.46048" lon="-1.5666">
        <ele>29.6</ele>
        <time>2021-09-05T07:03:12Z</time>
      </trkpt>
      <trkpt lat="43.46052" lon="-1.56657">
        <ele>29.8</ele>
        <time>2021-09-05T07:03:13Z</time>
      </trkpt>
      <trkpt lat="43.46054" lon="-1.56654">
        <ele>30.1</ele>
        <time>2021-09-05T07:03:14Z</time>
      </trkpt>
      <trkpt lat="43.46056" lon="-1.56651">
        <ele>30.3</ele>
        <time>2021-09-05T07:03:15Z</time>
      </trkpt>
      <trkpt lat="43.46058" lon="-1.56648">
        <ele>30.5</ele>
        <time>2021-09-05T07:03:16Z</time>
      </trkpt>
      <trkpt lat="43.46061" lon="-1.56645">
        <ele>30.7</ele>
        <time>2021-09-05T07:03:17Z</time>
      </trkpt>
      <trkpt lat="43.46063" lon="-1.56642">
        <ele>30.9</ele>
        <time>2021-09-05T07:03:18Z</time>
      </trkpt>
      <trkpt lat="43.46066" lon="-1.56639">
        <ele>31.2</ele>
        <time>2021-09-05T07:03:19Z</time>
      </trkpt>
      <trkpt lat="43.46068" lon="-1.56635">
        <ele>31.4</ele>
        <time>2021-09-05T07:03:20Z</time>
      </trkpt>
      <trkpt lat="43.4607" lon="-1.56631">
        <ele>31.7</ele>
        <time>2021-09-05T07:03:21Z</time>
      </trkpt>
      <trkpt lat="43.46073" lon="-1.56626">
        <ele>32</ele>
        <time>2021-09-05T07:03:22Z</time>
      </trkpt>
      <trkpt lat="43.46075" lon="-1.56621">
        <ele>32.3</ele>
        <time>2021-09-05T07:03:23Z</time>
      </trkpt>
      <trkpt lat="43.46077" lon="-1.56617">
        <ele>32.5</ele>
        <time>2021-09-05T07:03:24Z</time>
      </trkpt>
      <trkpt lat="43.46078" lon="-1.56613">
        <ele>32.7</ele>
        <time>2021-09-05T07:03:25Z</time>
      </trkpt>
      <trkpt lat="43.4608" lon="-1.56608">
        <ele>32.9</ele>
        <time>2021-09-05T07:03:26Z</time>
      </trkpt>
      <trkpt lat="43.46082" lon="-1.56604">
        <ele>33.1</ele>
        <time>2021-09-05T07:03:27Z</time>
      </trkpt>
      <trkpt lat="43.46084" lon="-1.56599">
        <ele>33.3</ele>
        <time>2021-09-05T07:03:28Z</time>
      </trkpt>
      <trkpt lat="43.46085" lon="-1.56596">
        <ele>33.4</ele>
        <time>2021-09-05T07:03:29Z</time>
      </trkpt>
      <trkpt lat="43.46086" lon="-1.56592">
        <ele>33.6</ele>
        <time>2021-09-05T07:03:30Z</time>
      </trkpt>
      <trkpt lat="43.46088" lon="-1.56588">
        <ele>33.8</ele>
        <time>2021-09-05T07:03:31Z</time>
      </trkpt>
      <trkpt lat="43.4609" lon="-1.56585">
        <ele>34</ele>
        <time>2021-09-05T07:03:32Z</time>
      </trkpt>
      <trkpt lat="43.46092" lon="-1.56583">
        <ele>34.1</ele>
        <time>2021-09-05T07:03:33Z</time>
      </trkpt>
      <trkpt lat="43.46092" lon="-1.56583">
        <ele>34.1</ele>
        <time>2021-09-05T07:03:34Z</time>
      </trkpt>
      <trkpt lat="43.46095" lon="-1.5658">
        <ele>34.4</ele>
        <time>2021-09-05T07:03:35Z</time>
      </trkpt>
      <trkpt lat="43.46098" lon="-1.5658">
        <ele>34.6</ele>
        <time>2021-09-05T07:03:36Z</time>
      </trkpt>
      <trkpt lat="43.461" lon="-1.56578">
        <ele>34.8</ele>
        <time>2021-09-05T07:03:37Z</time>
      </trkpt>
      <trkpt lat="43.46102" lon="-1.56577">
        <ele>35</ele>
        <time>2021-09-05T07:03:38Z</time>
      </trkpt>
      <trkpt lat="43.46104" lon="-1.56575">
        <ele>35.2</ele>
        <time>2021-09-05T07:03:39Z</time>
      </trkpt>
      <trkpt lat="43.46106" lon="-1.56572">
        <ele>35.4</ele>
        <time>2021-09-05T07:03:40Z</time>
      </trkpt>
      <trkpt lat="43.46108" lon="-1.56569">
        <ele>35.6</ele>
        <time>2021-09-05T07:03:41Z</time>
      </trkpt>
      <trkpt lat="43.46108" lon="-1.56566">
        <ele>35.8</ele>
        <time>2021-09-05T07:03:42Z</time>
      </trkpt>
      <trkpt lat="43.46109" lon="-1.56563">
        <ele>36</ele>
        <time>2021-09-05T07:03:43Z</time>
      </trkpt>
      <trkpt lat="43.4611" lon="-1.5656">
        <ele>36.2</ele>
        <time>2021-09-05T07:03:44Z</time>
      </trkpt>
      <trkpt lat="43.46111" lon="-1.56557">
        <ele>36.4</ele>
        <time>2021-09-05T07:03:45Z</time>
      </trkpt>
      <trkpt lat="43.46112" lon="-1.56555">
        <ele>36.5</ele>
        <time>2021-09-05T07:03:46Z</time>
      </trkpt>
      <trkpt lat="43.46114" lon="-1.56553">
        <ele>36.7</ele>
        <time>2021-09-05T07:03:47Z</time>
      </trkpt>
      <trkpt lat="43.46116" lon="-1.5655">
        <ele>36.9</ele>
        <time>2021-09-05T07:03:48Z</time>
      </trkpt>
      <trkpt lat="43.46118" lon="-1.56548">
        <ele>37.1</ele>
        <time>2021-09-05T07:03:49Z</time>
      </trkpt>
      <trkpt lat="43.4612" lon="-1.56545">
        <ele>37.3</ele>
        <time>2021-09-05T07:03:50Z</time>
      </trkpt>
      <trkpt lat="43.46122" lon="-1.56541">
        <ele>37.5</ele>
        <time>2021-09-05T07:03:51Z</time>
      </trkpt>
      <trkpt lat="43.46125" lon="-1.56538">
        <ele>37.8</ele>
        <time>2021-09-05T07:03:52Z</time>
      </trkpt>
      <trkpt lat="43.46127" lon="-1.56535">
        <ele>38</ele>
        <time>2021-09-05T07:03:53Z</time>
      </trkpt>
      <trkpt lat="43.46129" lon="-1.56531">
        <ele>38.2</ele>
        <time>2021-09-05T07:03:54Z</time>
      </trkpt>
      <trkpt lat="43.46131" lon="-1.56527">
        <ele>38.4</ele>
        <time>2021-09-05T07:03:55Z</time>
      </trkpt>
      <trkpt lat="43.46133" lon="-1.56524">
        <ele>38.7</ele>
        <time>2021-09-05T07:03:56Z</time>
      </trkpt>
      <trkpt lat="43.46136" lon="-1.5652">
        <ele>38.9</ele>
        <time>2021-09-05T07:03:57Z</time>
      </trkpt>
      <trkpt lat="43.46138" lon="-1.56517">
        <ele>39.2</ele>
        <time>2021-09-05T07:03:58Z</time>
      </trkpt>
      <trkpt lat="43.46141" lon="-1.56514">
        <ele>39.5</ele>
        <time>2021-09-05T07:03:59Z</time>
      </trkpt>
      <trkpt lat="43.46145" lon="-1.56511">
        <ele>39.8</ele>
        <time>2021-09-05T07:04:00Z</time>
      </trkpt>
      <trkpt lat="43.46148" lon="-1.56508">
        <ele>40.1</ele>
        <time>2021-09-05T07:04:01Z</time>
      </trkpt>
      <trkpt lat="43.46151" lon="-1.56506">
        <ele>40.3</ele>
        <time>2021-09-05T07:04:02Z</time>
      </trkpt>
      <trkpt lat="43.46155" lon="-1.56503">
        <ele>40.6</ele>
        <time>2021-09-05T07:04:03Z</time>
      </trkpt>
      <trkpt lat="43.46157" lon="-1.56501">
        <ele>40.9</ele>
        <time>2021-09-05T07:04:04Z</time>
      </trkpt>
      <trkpt lat="43.46159" lon="-1.56497">
        <ele>41.1</ele>
        <time>2021-09-05T07:04:05Z</time>
      </trkpt>
      <trkpt lat="43.46162" lon="-1.56495">
        <ele>41.2</ele>
        <time>2021-09-05T07:04:06Z</time>
      </trkpt>
      <trkpt lat="43.46165" lon="-1.56492">
        <ele>41.4</ele>
        <time>2021-09-05T07:04:07Z</time>
      </trkpt>
      <trkpt lat="43.46167" lon="-1.5649">
        <ele>41.5</ele>
        <time>2021-09-05T07:04:08Z</time>
      </trkpt>
      <trkpt lat="43.4617" lon="-1.56486">
        <ele>41.6</ele>
        <time>2021-09-05T07:04:09Z</time>
      </trkpt>
      <trkpt lat="43.46172" lon="-1.56484">
        <ele>41.7</ele>
        <time>2021-09-05T07:04:10Z</time>
      </trkpt>
      <trkpt lat="43.46175" lon="-1.56481">
        <ele>41.7</ele>
        <time>2021-09-05T07:04:11Z</time>
      </trkpt>
      <trkpt lat="43.46179" lon="-1.56477">
        <ele>41.8</ele>
        <time>2021-09-05T07:04:12Z</time>
      </trkpt>
      <trkpt lat="43.46183" lon="-1.56472">
        <ele>41.7</ele>
        <time>2021-09-05T07:04:13Z</time>
      </trkpt>
      <trkpt lat="43.46186" lon="-1.56467">
        <ele>41.7</ele>
        <time>2021-09-05T07:04:14Z</time>
      </trkpt>
      <trkpt lat="43.46189" lon="-1.56461">
        <ele>41.6</ele>
        <time>2021-09-05T07:04:15Z</time>
      </trkpt>
      <trkpt lat="43.4619" lon="-1.56455">
        <ele>41.6</ele>
        <time>2021-09-05T07:04:16Z</time>
      </trkpt>
      <trkpt lat="43.46192" lon="-1.56449">
        <ele>41.6</ele>
        <time>2021-09-05T07:04:17Z</time>
      </trkpt>
      <trkpt lat="43.46193" lon="-1.56444">
        <ele>41.6</ele>
        <time>2021-09-05T07:04:18Z</time>
      </trkpt>
      <trkpt lat="43.46194" lon="-1.56439">
        <ele>41.6</ele>
        <time>2021-09-05T07:04:19Z</time>
      </trkpt>
      <trkpt lat="43.46195" lon="-1.56434">
        <ele>41.6</ele>
        <time>2021-09-05T07:04:20Z</time>
      </trkpt>
      <trkpt lat="43.46195" lon="-1.56429">
        <ele>41.7</ele>
        <time>2021-09-05T07:04:21Z</time>
      </trkpt>
      <trkpt lat="43.46196" lon="-1.56425">
        <ele>41.7</ele>
        <time>2021-09-05T07:04:22Z</time>
      </trkpt>
      <trkpt lat="43.46197" lon="-1.5642">
        <ele>41.8</ele>
        <time>2021-09-05T07:04:23Z</time>
      </trkpt>
      <trkpt lat="43.46197" lon="-1.56416">
        <ele>41.8</ele>
        <time>2021-09-05T07:04:24Z</time>
      </trkpt>
      <trkpt lat="43.46196" lon="-1.56412">
        <ele>41.9</ele>
        <time>2021-09-05T07:04:25Z</time>
      </trkpt>
      <trkpt lat="43.46194" lon="-1.56408">
        <ele>41.9</ele>
        <time>2021-09-05T07:04:26Z</time>
      </trkpt>
      <trkpt lat="43.46192" lon="-1.56404">
        <ele>42</ele>
        <time>2021-09-05T07:04:27Z</time>
      </trkpt>
      <trkpt lat="43.46191" lon="-1.564">
        <ele>42</ele>
        <time>2021-09-05T07:04:28Z</time>
      </trkpt>
      <trkpt lat="43.46189" lon="-1.56396">
        <ele>42.1</ele>
        <time>2021-09-05T07:04:29Z</time>
      </trkpt>
      <trkpt lat="43.46188" lon="-1.56392">
        <ele>42.1</ele>
        <time>2021-09-05T07:04:30Z</time>
      </trkpt>
      <trkpt lat="43.46188" lon="-1.56386">
        <ele>42.1</ele>
        <time>2021-09-05T07:04:31Z</time>
      </trkpt>
      <trkpt lat="43.46187" lon="-1.56381">
        <ele>42.1</ele>
        <time>2021-09-05T07:04:32Z</time>
      </trkpt>
      <trkpt lat="43.46187" lon="-1.56376">
        <ele>42.1</ele>
        <time>2021-09-05T07:04:33Z</time>
      </trkpt>
      <trkpt lat="43.46187" lon="-1.56371">
        <ele>42.1</ele>
        <time>2021-09-05T07:04:34Z</time>
      </trkpt>
      <trkpt lat="43.46186" lon="-1.56367">
        <ele>42.1</ele>
        <time>2021-09-05T07:04:35Z</time>
      </trkpt>
      <trkpt lat="43.46185" lon="-1.56363">
        <ele>42.1</ele>
        <time>2021-09-05T07:04:36Z</time>
      </trkpt>
      <trkpt lat="43.46183" lon="-1.56358">
        <ele>42</ele>
        <time>2021-09-05T07:04:37Z</time>
      </trkpt>
      <trkpt lat="43.46181" lon="-1.56352">
        <ele>42</ele>
        <time>2021-09-05T07:04:38Z</time>
      </trkpt>
      <trkpt lat="43.4618" lon="-1.56346">
        <ele>42</ele>
        <time>2021-09-05T07:04:39Z</time>
      </trkpt>
      <trkpt lat="43.46179" lon="-1.56341">
        <ele>42</ele>
        <time>2021-09-05T07:04:40Z</time>
      </trkpt>
      <trkpt lat="43.46177" lon="-1.56336">
        <ele>42.1</ele>
        <time>2021-09-05T07:04:41Z</time>
      </trkpt>
      <trkpt lat="43.46175" lon="-1.56332">
        <ele>42.2</ele>
        <time>2021-09-05T07:04:42Z</time>
      </trkpt>
      <trkpt lat="43.46173" lon="-1.56327">
        <ele>42.4</ele>
        <time>2021-09-05T07:04:43Z</time>
      </trkpt>
      <trkpt lat="43.46173" lon="-1.56323">
        <ele>42.6</ele>
        <time>2021-09-05T07:04:44Z</time>
      </trkpt>
      <trkpt lat="43.46171" lon="-1.56319">
        <ele>42.9</ele>
        <time>2021-09-05T07:04:45Z</time>
      </trkpt>
      <trkpt lat="43.46171" lon="-1.56315">
        <ele>43.1</ele>
        <time>2021-09-05T07:04:46Z</time>
      </trkpt>
      <trkpt lat="43.46169" lon="-1.56311">
        <ele>43.5</ele>
        <time>2021-09-05T07:04:47Z</time>
      </trkpt>
      <trkpt lat="43.46167" lon="-1.56306">
        <ele>43.9</ele>
        <time>2021-09-05T07:04:48Z</time>
      </trkpt>
      <trkpt lat="43.46165" lon="-1.56302">
        <ele>44.3</ele>
        <time>2021-09-05T07:04:49Z</time>
      </trkpt>
      <trkpt lat="43.46163" lon="-1.56298">
        <ele>44.8</ele>
        <time>2021-09-05T07:04:50Z</time>
      </trkpt>
      <trkpt lat="43.46161" lon="-1.56293">
        <ele>45.3</ele>
        <time>2021-09-05T07:04:51Z</time>
      </trkpt>
      <trkpt lat="43.46159" lon="-1.56289">
        <ele>45.8</ele>
        <time>2021-09-05T07:04:52Z</time>
      </trkpt>
      <trkpt lat="43.46158" lon="-1.56284">
        <ele>46.2</ele>
        <time>2021-09-05T07:04:53Z</time>
      </trkpt>
      <trkpt lat="43.46157" lon="-1.56279">
        <ele>45.9</ele>
        <time>2021-09-05T07:04:54Z</time>
      </trkpt>
      <trkpt lat="43.46156" lon="-1.56274">
        <ele>46.2</ele>
        <time>2021-09-05T07:04:55Z</time>
      </trkpt>
      <trkpt lat="43.46155" lon="-1.56269">
        <ele>46.5</ele>
        <time>2021-09-05T07:04:56Z</time>
      </trkpt>
      <trkpt lat="43.46154" lon="-1.56264">
        <ele>46.2</ele>
        <time>2021-09-05T07:04:57Z</time>
      </trkpt>
      <trkpt lat="43.46153" lon="-1.56259">
        <ele>46.9</ele>
        <time>2021-09-05T07:04:58Z</time>
      </trkpt>
      <trkpt lat="43.46151" lon="-1.56254">
        <ele>46.6</ele>
        <time>2021-09-05T07:04:59Z</time>
      </trkpt>
      <trkpt lat="43.4615" lon="-1.56249">
        <ele>46.9</ele>
        <time>2021-09-05T07:05:00Z</time>
      </trkpt>
      <trkpt lat="43.46149" lon="-1.56244">
        <ele>47.1</ele>
        <time>2021-09-05T07:05:01Z</time>
      </trkpt>
      <trkpt lat="43.46148" lon="-1.56239">
        <ele>46.7</ele>
        <time>2021-09-05T07:05:02Z</time>
      </trkpt>
      <trkpt lat="43.46146" lon="-1.56236">
        <ele>46.9</ele>
        <time>2021-09-05T07:05:03Z</time>
      </trkpt>
      <trkpt lat="43.46145" lon="-1.56232">
        <ele>46.4</ele>
        <time>2021-09-05T07:05:04Z</time>
      </trkpt>
      <trkpt lat="43.46144" lon="-1.56227">
        <ele>46.5</ele>
        <time>2021-09-05T07:05:05Z</time>
      </trkpt>
      <trkpt lat="43.46144" lon="-1.56223">
        <ele>46.6</ele>
        <time>2021-09-05T07:05:06Z</time>
      </trkpt>
      <trkpt lat="43.46144" lon="-1.56219">
        <ele>46.7</ele>
        <time>2021-09-05T07:05:07Z</time>
      </trkpt>
      <trkpt lat="43.46143" lon="-1.56216">
        <ele>46.7</ele>
        <time>2021-09-05T07:05:08Z</time>
      </trkpt>
      <trkpt lat="43.46142" lon="-1.56212">
        <ele>45.9</ele>
        <time>2021-09-05T07:05:09Z</time>
      </trkpt>
      <trkpt lat="43.46139" lon="-1.56206">
        <ele>45.6</ele>
        <time>2021-09-05T07:05:10Z</time>
      </trkpt>
      <trkpt lat="43.46136" lon="-1.562">
        <ele>45</ele>
        <time>2021-09-05T07:05:11Z</time>
      </trkpt>
      <trkpt lat="43.46134" lon="-1.56196">
        <ele>44.5</ele>
        <time>2021-09-05T07:05:12Z</time>
      </trkpt>
      <trkpt lat="43.46131" lon="-1.56192">
        <ele>44</ele>
        <time>2021-09-05T07:05:13Z</time>
      </trkpt>
      <trkpt lat="43.46128" lon="-1.5619">
        <ele>43.4</ele>
        <time>2021-09-05T07:05:14Z</time>
      </trkpt>
      <trkpt lat="43.46124" lon="-1.56189">
        <ele>42.8</ele>
        <time>2021-09-05T07:05:15Z</time>
      </trkpt>
      <trkpt lat="43.4612" lon="-1.56188">
        <ele>42.2</ele>
        <time>2021-09-05T07:05:16Z</time>
      </trkpt>
      <trkpt lat="43.46116" lon="-1.56186">
        <ele>41.7</ele>
        <time>2021-09-05T07:05:17Z</time>
      </trkpt>
      <trkpt lat="43.46112" lon="-1.56186">
        <ele>41</ele>
        <time>2021-09-05T07:05:18Z</time>
      </trkpt>
      <trkpt lat="43.46108" lon="-1.56187">
        <ele>40.2</ele>
        <time>2021-09-05T07:05:19Z</time>
      </trkpt>
      <trkpt lat="43.46104" lon="-1.56188">
        <ele>39.5</ele>
        <time>2021-09-05T07:05:20Z</time>
      </trkpt>
      <trkpt lat="43.46101" lon="-1.56187">
        <ele>38.9</ele>
        <time>2021-09-05T07:05:21Z</time>
      </trkpt>
      <trkpt lat="43.46098" lon="-1.56186">
        <ele>38.3</ele>
        <time>2021-09-05T07:05:22Z</time>
      </trkpt>
      <trkpt lat="43.46096" lon="-1.56186">
        <ele>38</ele>
        <time>2021-09-05T07:05:23Z</time>
      </trkpt>
      <trkpt lat="43.46092" lon="-1.56186">
        <ele>37.3</ele>
        <time>2021-09-05T07:05:24Z</time>
      </trkpt>
      <trkpt lat="43.46088" lon="-1.56188">
        <ele>36.5</ele>
        <time>2021-09-05T07:05:25Z</time>
      </trkpt>
      <trkpt lat="43.46085" lon="-1.5619">
        <ele>36</ele>
        <time>2021-09-05T07:05:26Z</time>
      </trkpt>
      <trkpt lat="43.46082" lon="-1.56194">
        <ele>35.3</ele>
        <time>2021-09-05T07:05:27Z</time>
      </trkpt>
      <trkpt lat="43.46078" lon="-1.56197">
        <ele>34.6</ele>
        <time>2021-09-05T07:05:28Z</time>
      </trkpt>
      <trkpt lat="43.46075" lon="-1.562">
        <ele>34.1</ele>
        <time>2021-09-05T07:05:29Z</time>
      </trkpt>
      <trkpt lat="43.46071" lon="-1.56202">
        <ele>33.7</ele>
        <time>2021-09-05T07:05:30Z</time>
      </trkpt>
      <trkpt lat="43.46067" lon="-1.56204">
        <ele>33.4</ele>
        <time>2021-09-05T07:05:31Z</time>
      </trkpt>
      <trkpt lat="43.46063" lon="-1.56206">
        <ele>33.1</ele>
        <time>2021-09-05T07:05:32Z</time>
      </trkpt>
      <trkpt lat="43.4606" lon="-1.56209">
        <ele>32.8</ele>
        <time>2021-09-05T07:05:33Z</time>
      </trkpt>
      <trkpt lat="43.46057" lon="-1.56212">
        <ele>32.7</ele>
        <time>2021-09-05T07:05:34Z</time>
      </trkpt>
      <trkpt lat="43.46054" lon="-1.56215">
        <ele>32.5</ele>
        <time>2021-09-05T07:05:35Z</time>
      </trkpt>
      <trkpt lat="43.46051" lon="-1.56217">
        <ele>32.5</ele>
        <time>2021-09-05T07:05:36Z</time>
      </trkpt>
      <trkpt lat="43.46048" lon="-1.56219">
        <ele>32.4</ele>
        <time>2021-09-05T07:05:37Z</time>
      </trkpt>
      <trkpt lat="43.46045" lon="-1.56221">
        <ele>32.4</ele>
        <time>2021-09-05T07:05:38Z</time>
      </trkpt>
      <trkpt lat="43.46042" lon="-1.56222">
        <ele>32.5</ele>
        <time>2021-09-05T07:05:39Z</time>
      </trkpt>
      <trkpt lat="43.46038" lon="-1.56223">
        <ele>32.6</ele>
        <time>2021-09-05T07:05:40Z</time>
      </trkpt>
      <trkpt lat="43.46034" lon="-1.56224">
        <ele>32.8</ele>
        <time>2021-09-05T07:05:41Z</time>
      </trkpt>
      <trkpt lat="43.4603" lon="-1.56226">
        <ele>33.1</ele>
        <time>2021-09-05T07:05:42Z</time>
      </trkpt>
      <trkpt lat="43.46028" lon="-1.56228">
        <ele>33.3</ele>
        <time>2021-09-05T07:05:43Z</time>
      </trkpt>
      <trkpt lat="43.46026" lon="-1.5623">
        <ele>33.6</ele>
        <time>2021-09-05T07:05:44Z</time>
      </trkpt>
      <trkpt lat="43.46024" lon="-1.56232">
        <ele>33.8</ele>
        <time>2021-09-05T07:05:45Z</time>
      </trkpt>
      <trkpt lat="43.46023" lon="-1.56234">
        <ele>34.1</ele>
        <time>2021-09-05T07:05:46Z</time>
      </trkpt>
      <trkpt lat="43.46021" lon="-1.56237">
        <ele>34.4</ele>
        <time>2021-09-05T07:05:47Z</time>
      </trkpt>
      <trkpt lat="43.4602" lon="-1.5624">
        <ele>34.8</ele>
        <time>2021-09-05T07:05:48Z</time>
      </trkpt>
      <trkpt lat="43.46018" lon="-1.56243">
        <ele>35.2</ele>
        <time>2021-09-05T07:05:49Z</time>
      </trkpt>
      <trkpt lat="43.46016" lon="-1.56246">
        <ele>35.6</ele>
        <time>2021-09-05T07:05:50Z</time>
      </trkpt>
      <trkpt lat="43.46014" lon="-1.56248">
        <ele>36</ele>
        <time>2021-09-05T07:05:51Z</time>
      </trkpt>
      <trkpt lat="43.46011" lon="-1.5625">
        <ele>36.4</ele>
        <time>2021-09-05T07:05:52Z</time>
      </trkpt>
      <trkpt lat="43.46011" lon="-1.5625">
        <ele>36.4</ele>
        <time>2021-09-05T07:05:53Z</time>
      </trkpt>
      <trkpt lat="43.46009" lon="-1.56252">
        <ele>36.9</ele>
        <time>2021-09-05T07:05:54Z</time>
      </trkpt>
      <trkpt lat="43.46006" lon="-1.56253">
        <ele>37.2</ele>
        <time>2021-09-05T07:05:55Z</time>
      </trkpt>
      <trkpt lat="43.46004" lon="-1.56255">
        <ele>37.7</ele>
        <time>2021-09-05T07:05:56Z</time>
      </trkpt>
      <trkpt lat="43.46001" lon="-1.56257">
        <ele>38.2</ele>
        <time>2021-09-05T07:05:57Z</time>
      </trkpt>
      <trkpt lat="43.46001" lon="-1.56257">
        <ele>38.2</ele>
        <time>2021-09-05T07:05:58Z</time>
      </trkpt>
      <trkpt lat="43.45997" lon="-1.56259">
        <ele>38.8</ele>
        <time>2021-09-05T07:05:59Z</time>
      </trkpt>
      <trkpt lat="43.45995" lon="-1.5626">
        <ele>39</ele>
        <time>2021-09-05T07:06:00Z</time>
      </trkpt>
      <trkpt lat="43.45993" lon="-1.56261">
        <ele>39.3</ele>
        <time>2021-09-05T07:06:01Z</time>
      </trkpt>
      <trkpt lat="43.4599" lon="-1.56262">
        <ele>39.6</ele>
        <time>2021-09-05T07:06:02Z</time>
      </trkpt>
      <trkpt lat="43.45988" lon="-1.56264">
        <ele>40.2</ele>
        <time>2021-09-05T07:06:03Z</time>
      </trkpt>
      <trkpt lat="43.45986" lon="-1.56265">
        <ele>40.1</ele>
        <time>2021-09-05T07:06:04Z</time>
      </trkpt>
      <trkpt lat="43.45984" lon="-1.56266">
        <ele>40.1</ele>
        <time>2021-09-05T07:06:05Z</time>
      </trkpt>
      <trkpt lat="43.45984" lon="-1.56266">
        <ele>40.1</ele>
        <time>2021-09-05T07:06:06Z</time>
      </trkpt>
      <trkpt lat="43.45979" lon="-1.56269">
        <ele>40.1</ele>
        <time>2021-09-05T07:06:07Z</time>
      </trkpt>
      <trkpt lat="43.45978" lon="-1.5627">
        <ele>40.1</ele>
        <time>2021-09-05T07:06:08Z</time>
      </trkpt>
      <trkpt lat="43.45977" lon="-1.56271">
        <ele>40.1</ele>
        <time>2021-09-05T07:06:09Z</time>
      </trkpt>
      <trkpt lat="43.45974" lon="-1.56273">
        <ele>40</ele>
        <time>2021-09-05T07:06:10Z</time>
      </trkpt>
      <trkpt lat="43.45972" lon="-1.56275">
        <ele>40</ele>
        <time>2021-09-05T07:06:11Z</time>
      </trkpt>
      <trkpt lat="43.4597" lon="-1.56278">
        <ele>40</ele>
        <time>2021-09-05T07:06:12Z</time>
      </trkpt>
      <trkpt lat="43.45969" lon="-1.5628">
        <ele>40</ele>
        <time>2021-09-05T07:06:13Z</time>
      </trkpt>
      <trkpt lat="43.45967" lon="-1.56283">
        <ele>40</ele>
        <time>2021-09-05T07:06:14Z</time>
      </trkpt>
      <trkpt lat="43.45965" lon="-1.56285">
        <ele>39.9</ele>
        <time>2021-09-05T07:06:15Z</time>
      </trkpt>
      <trkpt lat="43.45963" lon="-1.56287">
        <ele>39.9</ele>
        <time>2021-09-05T07:06:16Z</time>
      </trkpt>
      <trkpt lat="43.4596" lon="-1.56288">
        <ele>40.4</ele>
        <time>2021-09-05T07:06:17Z</time>
      </trkpt>
      <trkpt lat="43.45957" lon="-1.56289">
        <ele>41</ele>
        <time>2021-09-05T07:06:18Z</time>
      </trkpt>
      <trkpt lat="43.45955" lon="-1.56288">
        <ele>41.5</ele>
        <time>2021-09-05T07:06:19Z</time>
      </trkpt>
      <trkpt lat="43.45952" lon="-1.56288">
        <ele>42.1</ele>
        <time>2021-09-05T07:06:20Z</time>
      </trkpt>
      <trkpt lat="43.4595" lon="-1.56287">
        <ele>42.1</ele>
        <time>2021-09-05T07:06:21Z</time>
      </trkpt>
      <trkpt lat="43.45948" lon="-1.56285">
        <ele>43.1</ele>
        <time>2021-09-05T07:06:22Z</time>
      </trkpt>
      <trkpt lat="43.45946" lon="-1.56283">
        <ele>43.7</ele>
        <time>2021-09-05T07:06:23Z</time>
      </trkpt>
      <trkpt lat="43.45944" lon="-1.56281">
        <ele>43.7</ele>
        <time>2021-09-05T07:06:24Z</time>
      </trkpt>
      <trkpt lat="43.45942" lon="-1.5628">
        <ele>44.8</ele>
        <time>2021-09-05T07:06:25Z</time>
      </trkpt>
      <trkpt lat="43.45941" lon="-1.56279">
        <ele>44.8</ele>
        <time>2021-09-05T07:06:26Z</time>
      </trkpt>
      <trkpt lat="43.45939" lon="-1.56278">
        <ele>45.4</ele>
        <time>2021-09-05T07:06:27Z</time>
      </trkpt>
      <trkpt lat="43.45937" lon="-1.56277">
        <ele>46</ele>
        <time>2021-09-05T07:06:28Z</time>
      </trkpt>
      <trkpt lat="43.45933" lon="-1.56277">
        <ele>46.6</ele>
        <time>2021-09-05T07:06:29Z</time>
      </trkpt>
      <trkpt lat="43.45931" lon="-1.56276">
        <ele>47.1</ele>
        <time>2021-09-05T07:06:30Z</time>
      </trkpt>
      <trkpt lat="43.45928" lon="-1.56276">
        <ele>47.7</ele>
        <time>2021-09-05T07:06:31Z</time>
      </trkpt>
      <trkpt lat="43.45925" lon="-1.56276">
        <ele>48.2</ele>
        <time>2021-09-05T07:06:32Z</time>
      </trkpt>
      <trkpt lat="43.45922" lon="-1.56276">
        <ele>48.7</ele>
        <time>2021-09-05T07:06:33Z</time>
      </trkpt>
      <trkpt lat="43.45919" lon="-1.56276">
        <ele>49.3</ele>
        <time>2021-09-05T07:06:34Z</time>
      </trkpt>
      <trkpt lat="43.45916" lon="-1.56275">
        <ele>49.9</ele>
        <time>2021-09-05T07:06:35Z</time>
      </trkpt>
      <trkpt lat="43.45913" lon="-1.56275">
        <ele>50.5</ele>
        <time>2021-09-05T07:06:36Z</time>
      </trkpt>
      <trkpt lat="43.4591" lon="-1.56275">
        <ele>51</ele>
        <time>2021-09-05T07:06:37Z</time>
      </trkpt>
      <trkpt lat="43.45908" lon="-1.56275">
        <ele>51.5</ele>
        <time>2021-09-05T07:06:38Z</time>
      </trkpt>
      <trkpt lat="43.45908" lon="-1.56275">
        <ele>51.5</ele>
        <time>2021-09-05T07:06:39Z</time>
      </trkpt>
      <trkpt lat="43.45904" lon="-1.56276">
        <ele>51.7</ele>
        <time>2021-09-05T07:06:40Z</time>
      </trkpt>
      <trkpt lat="43.45901" lon="-1.56277">
        <ele>52.2</ele>
        <time>2021-09-05T07:06:41Z</time>
      </trkpt>
      <trkpt lat="43.45899" lon="-1.56278">
        <ele>52.7</ele>
        <time>2021-09-05T07:06:42Z</time>
      </trkpt>
      <trkpt lat="43.45896" lon="-1.56278">
        <ele>53.2</ele>
        <time>2021-09-05T07:06:43Z</time>
      </trkpt>
      <trkpt lat="43.45893" lon="-1.56279">
        <ele>53.2</ele>
        <time>2021-09-05T07:06:44Z</time>
      </trkpt>
      <trkpt lat="43.45891" lon="-1.5628">
        <ele>53.7</ele>
        <time>2021-09-05T07:06:45Z</time>
      </trkpt>
      <trkpt lat="43.45889" lon="-1.56281">
        <ele>53.9</ele>
        <time>2021-09-05T07:06:46Z</time>
      </trkpt>
      <trkpt lat="43.45887" lon="-1.56283">
        <ele>54.4</ele>
        <time>2021-09-05T07:06:47Z</time>
      </trkpt>
      <trkpt lat="43.45885" lon="-1.56285">
        <ele>54.4</ele>
        <time>2021-09-05T07:06:48Z</time>
      </trkpt>
      <trkpt lat="43.45883" lon="-1.56287">
        <ele>54.5</ele>
        <time>2021-09-05T07:06:49Z</time>
      </trkpt>
      <trkpt lat="43.45881" lon="-1.56289">
        <ele>54.9</ele>
        <time>2021-09-05T07:06:50Z</time>
      </trkpt>
      <trkpt lat="43.45879" lon="-1.5629">
        <ele>54.6</ele>
        <time>2021-09-05T07:06:51Z</time>
      </trkpt>
      <trkpt lat="43.45877" lon="-1.56292">
        <ele>54.9</ele>
        <time>2021-09-05T07:06:52Z</time>
      </trkpt>
      <trkpt lat="43.45875" lon="-1.56293">
        <ele>54.9</ele>
        <time>2021-09-05T07:06:53Z</time>
      </trkpt>
      <trkpt lat="43.45873" lon="-1.56296">
        <ele>55</ele>
        <time>2021-09-05T07:06:54Z</time>
      </trkpt>
      <trkpt lat="43.4587" lon="-1.56298">
        <ele>55.1</ele>
        <time>2021-09-05T07:06:55Z</time>
      </trkpt>
      <trkpt lat="43.45867" lon="-1.56301">
        <ele>55.4</ele>
        <time>2021-09-05T07:06:56Z</time>
      </trkpt>
      <trkpt lat="43.45865" lon="-1.56304">
        <ele>55.6</ele>
        <time>2021-09-05T07:06:57Z</time>
      </trkpt>
      <trkpt lat="43.45861" lon="-1.56308">
        <ele>55.7</ele>
        <time>2021-09-05T07:06:58Z</time>
      </trkpt>
      <trkpt lat="43.45858" lon="-1.56311">
        <ele>55.8</ele>
        <time>2021-09-05T07:06:59Z</time>
      </trkpt>
      <trkpt lat="43.45855" lon="-1.56314">
        <ele>56.1</ele>
        <time>2021-09-05T07:07:00Z</time>
      </trkpt>
      <trkpt lat="43.45854" lon="-1.56317">
        <ele>55.8</ele>
        <time>2021-09-05T07:07:01Z</time>
      </trkpt>
      <trkpt lat="43.45852" lon="-1.56318">
        <ele>56.1</ele>
        <time>2021-09-05T07:07:02Z</time>
      </trkpt>
      <trkpt lat="43.4585" lon="-1.56321">
        <ele>55.8</ele>
        <time>2021-09-05T07:07:03Z</time>
      </trkpt>
      <trkpt lat="43.45847" lon="-1.56323">
        <ele>56</ele>
        <time>2021-09-05T07:07:04Z</time>
      </trkpt>
      <trkpt lat="43.45844" lon="-1.56325">
        <ele>55.9</ele>
        <time>2021-09-05T07:07:05Z</time>
      </trkpt>
      <trkpt lat="43.45842" lon="-1.56327">
        <ele>56</ele>
        <time>2021-09-05T07:07:06Z</time>
      </trkpt>
      <trkpt lat="43.45839" lon="-1.5633">
        <ele>55.7</ele>
        <time>2021-09-05T07:07:07Z</time>
      </trkpt>
      <trkpt lat="43.45837" lon="-1.56334">
        <ele>55.3</ele>
        <time>2021-09-05T07:07:08Z</time>
      </trkpt>
      <trkpt lat="43.45836" lon="-1.56338">
        <ele>55</ele>
        <time>2021-09-05T07:07:09Z</time>
      </trkpt>
      <trkpt lat="43.45834" lon="-1.56343">
        <ele>54.5</ele>
        <time>2021-09-05T07:07:10Z</time>
      </trkpt>
      <trkpt lat="43.45832" lon="-1.56348">
        <ele>54.1</ele>
        <time>2021-09-05T07:07:11Z</time>
      </trkpt>
      <trkpt lat="43.4583" lon="-1.56353">
        <ele>53.6</ele>
        <time>2021-09-05T07:07:12Z</time>
      </trkpt>
      <trkpt lat="43.45826" lon="-1.56358">
        <ele>52.5</ele>
        <time>2021-09-05T07:07:13Z</time>
      </trkpt>
      <trkpt lat="43.45823" lon="-1.56362">
        <ele>52.4</ele>
        <time>2021-09-05T07:07:14Z</time>
      </trkpt>
      <trkpt lat="43.45821" lon="-1.56364">
        <ele>51.8</ele>
        <time>2021-09-05T07:07:15Z</time>
      </trkpt>
      <trkpt lat="43.45818" lon="-1.56366">
        <ele>51.7</ele>
        <time>2021-09-05T07:07:16Z</time>
      </trkpt>
      <trkpt lat="43.45813" lon="-1.56367">
        <ele>51</ele>
        <time>2021-09-05T07:07:17Z</time>
      </trkpt>
      <trkpt lat="43.45808" lon="-1.56367">
        <ele>50.6</ele>
        <time>2021-09-05T07:07:18Z</time>
      </trkpt>
      <trkpt lat="43.45804" lon="-1.56367">
        <ele>50.3</ele>
        <time>2021-09-05T07:07:19Z</time>
      </trkpt>
      <trkpt lat="43.458" lon="-1.56368">
        <ele>50</ele>
        <time>2021-09-05T07:07:20Z</time>
      </trkpt>
      <trkpt lat="43.45796" lon="-1.56368">
        <ele>49.4</ele>
        <time>2021-09-05T07:07:21Z</time>
      </trkpt>
      <trkpt lat="43.45791" lon="-1.56369">
        <ele>49</ele>
        <time>2021-09-05T07:07:22Z</time>
      </trkpt>
      <trkpt lat="43.45786" lon="-1.56371">
        <ele>47.7</ele>
        <time>2021-09-05T07:07:23Z</time>
      </trkpt>
      <trkpt lat="43.45781" lon="-1.56373">
        <ele>46.8</ele>
        <time>2021-09-05T07:07:24Z</time>
      </trkpt>
      <trkpt lat="43.45774" lon="-1.56375">
        <ele>45.7</ele>
        <time>2021-09-05T07:07:25Z</time>
      </trkpt>
      <trkpt lat="43.4577" lon="-1.56375">
        <ele>44.8</ele>
        <time>2021-09-05T07:07:26Z</time>
      </trkpt>
      <trkpt lat="43.45766" lon="-1.56376">
        <ele>44.4</ele>
        <time>2021-09-05T07:07:27Z</time>
      </trkpt>
      <trkpt lat="43.45764" lon="-1.56375">
        <ele>43.9</ele>
        <time>2021-09-05T07:07:28Z</time>
      </trkpt>
      <trkpt lat="43.4576" lon="-1.56374">
        <ele>43.8</ele>
        <time>2021-09-05T07:07:29Z</time>
      </trkpt>
      <trkpt lat="43.45757" lon="-1.56373">
        <ele>43.3</ele>
        <time>2021-09-05T07:07:30Z</time>
      </trkpt>
      <trkpt lat="43.45755" lon="-1.56371">
        <ele>42.8</ele>
        <time>2021-09-05T07:07:31Z</time>
      </trkpt>
      <trkpt lat="43.45751" lon="-1.56367">
        <ele>42.6</ele>
        <time>2021-09-05T07:07:32Z</time>
      </trkpt>
      <trkpt lat="43.45748" lon="-1.56364">
        <ele>42.4</ele>
        <time>2021-09-05T07:07:33Z</time>
      </trkpt>
      <trkpt lat="43.45744" lon="-1.56361">
        <ele>42.3</ele>
        <time>2021-09-05T07:07:34Z</time>
      </trkpt>
      <trkpt lat="43.45741" lon="-1.56359">
        <ele>41.9</ele>
        <time>2021-09-05T07:07:35Z</time>
      </trkpt>
      <trkpt lat="43.45737" lon="-1.56358">
        <ele>41.2</ele>
        <time>2021-09-05T07:07:36Z</time>
      </trkpt>
      <trkpt lat="43.45734" lon="-1.56356">
        <ele>41.1</ele>
        <time>2021-09-05T07:07:37Z</time>
      </trkpt>
      <trkpt lat="43.45731" lon="-1.56354">
        <ele>41.1</ele>
        <time>2021-09-05T07:07:38Z</time>
      </trkpt>
      <trkpt lat="43.45728" lon="-1.56353">
        <ele>41</ele>
        <time>2021-09-05T07:07:39Z</time>
      </trkpt>
      <trkpt lat="43.45726" lon="-1.56351">
        <ele>40.6</ele>
        <time>2021-09-05T07:07:40Z</time>
      </trkpt>
      <trkpt lat="43.45725" lon="-1.56348">
        <ele>40.5</ele>
        <time>2021-09-05T07:07:41Z</time>
      </trkpt>
      <trkpt lat="43.45723" lon="-1.56345">
        <ele>40.7</ele>
        <time>2021-09-05T07:07:42Z</time>
      </trkpt>
      <trkpt lat="43.45721" lon="-1.56341">
        <ele>40.3</ele>
        <time>2021-09-05T07:07:43Z</time>
      </trkpt>
      <trkpt lat="43.45719" lon="-1.56338">
        <ele>40.4</ele>
        <time>2021-09-05T07:07:44Z</time>
      </trkpt>
      <trkpt lat="43.45717" lon="-1.56335">
        <ele>40.1</ele>
        <time>2021-09-05T07:07:45Z</time>
      </trkpt>
      <trkpt lat="43.45716" lon="-1.56333">
        <ele>40.1</ele>
        <time>2021-09-05T07:07:46Z</time>
      </trkpt>
      <trkpt lat="43.45715" lon="-1.5633">
        <ele>39.7</ele>
        <time>2021-09-05T07:07:47Z</time>
      </trkpt>
      <trkpt lat="43.45716" lon="-1.56326">
        <ele>40.3</ele>
        <time>2021-09-05T07:07:48Z</time>
      </trkpt>
      <trkpt lat="43.45716" lon="-1.56322">
        <ele>40.3</ele>
        <time>2021-09-05T07:07:49Z</time>
      </trkpt>
      <trkpt lat="43.45716" lon="-1.56318">
        <ele>40.4</ele>
        <time>2021-09-05T07:07:50Z</time>
      </trkpt>
      <trkpt lat="43.45717" lon="-1.56314">
        <ele>40.4</ele>
        <time>2021-09-05T07:07:51Z</time>
      </trkpt>
      <trkpt lat="43.45717" lon="-1.56308">
        <ele>40.4</ele>
        <time>2021-09-05T07:07:52Z</time>
      </trkpt>
      <trkpt lat="43.45717" lon="-1.56304">
        <ele>40.5</ele>
        <time>2021-09-05T07:07:53Z</time>
      </trkpt>
      <trkpt lat="43.45717" lon="-1.56299">
        <ele>40.5</ele>
        <time>2021-09-05T07:07:54Z</time>
      </trkpt>
      <trkpt lat="43.45718" lon="-1.56295">
        <ele>40.6</ele>
        <time>2021-09-05T07:07:55Z</time>
      </trkpt>
      <trkpt lat="43.45718" lon="-1.5629">
        <ele>40.6</ele>
        <time>2021-09-05T07:07:56Z</time>
      </trkpt>
      <trkpt lat="43.45718" lon="-1.56287">
        <ele>40.7</ele>
        <time>2021-09-05T07:07:57Z</time>
      </trkpt>
      <trkpt lat="43.45719" lon="-1.56284">
        <ele>41.6</ele>
        <time>2021-09-05T07:07:58Z</time>
      </trkpt>
      <trkpt lat="43.45721" lon="-1.5628">
        <ele>41.6</ele>
        <time>2021-09-05T07:07:59Z</time>
      </trkpt>
      <trkpt lat="43.45723" lon="-1.56276">
        <ele>42.5</ele>
        <time>2021-09-05T07:08:00Z</time>
      </trkpt>
      <trkpt lat="43.45725" lon="-1.56272">
        <ele>42.6</ele>
        <time>2021-09-05T07:08:01Z</time>
      </trkpt>
      <trkpt lat="43.45728" lon="-1.56266">
        <ele>43.5</ele>
        <time>2021-09-05T07:08:02Z</time>
      </trkpt>
      <trkpt lat="43.45729" lon="-1.56261">
        <ele>44.4</ele>
        <time>2021-09-05T07:08:03Z</time>
      </trkpt>
      <trkpt lat="43.45728" lon="-1.56256">
        <ele>43.6</ele>
        <time>2021-09-05T07:08:04Z</time>
      </trkpt>
      <trkpt lat="43.45726" lon="-1.56249">
        <ele>43.6</ele>
        <time>2021-09-05T07:08:05Z</time>
      </trkpt>
      <trkpt lat="43.45724" lon="-1.56243">
        <ele>42.6</ele>
        <time>2021-09-05T07:08:06Z</time>
      </trkpt>
      <trkpt lat="43.45722" lon="-1.56236">
        <ele>42.4</ele>
        <time>2021-09-05T07:08:07Z</time>
      </trkpt>
      <trkpt lat="43.45721" lon="-1.56231">
        <ele>41.2</ele>
        <time>2021-09-05T07:08:08Z</time>
      </trkpt>
      <trkpt lat="43.45718" lon="-1.56225">
        <ele>40</ele>
        <time>2021-09-05T07:08:09Z</time>
      </trkpt>
      <trkpt lat="43.45716" lon="-1.56219">
        <ele>39.8</ele>
        <time>2021-09-05T07:08:10Z</time>
      </trkpt>
      <trkpt lat="43.45715" lon="-1.56214">
        <ele>38.6</ele>
        <time>2021-09-05T07:08:11Z</time>
      </trkpt>
      <trkpt lat="43.45715" lon="-1.56209">
        <ele>38.4</ele>
        <time>2021-09-05T07:08:12Z</time>
      </trkpt>
      <trkpt lat="43.45716" lon="-1.56203">
        <ele>39.3</ele>
        <time>2021-09-05T07:08:13Z</time>
      </trkpt>
      <trkpt lat="43.45715" lon="-1.56197">
        <ele>38.1</ele>
        <time>2021-09-05T07:08:14Z</time>
      </trkpt>
      <trkpt lat="43.45715" lon="-1.56192">
        <ele>38</ele>
        <time>2021-09-05T07:08:15Z</time>
      </trkpt>
      <trkpt lat="43.45715" lon="-1.56188">
        <ele>38</ele>
        <time>2021-09-05T07:08:16Z</time>
      </trkpt>
      <trkpt lat="43.45716" lon="-1.56184">
        <ele>38.9</ele>
        <time>2021-09-05T07:08:17Z</time>
      </trkpt>
      <trkpt lat="43.45717" lon="-1.56178">
        <ele>38.9</ele>
        <time>2021-09-05T07:08:18Z</time>
      </trkpt>
      <trkpt lat="43.45717" lon="-1.56175">
        <ele>38.8</ele>
        <time>2021-09-05T07:08:19Z</time>
      </trkpt>
      <trkpt lat="43.45716" lon="-1.56171">
        <ele>38.7</ele>
        <time>2021-09-05T07:08:20Z</time>
      </trkpt>
      <trkpt lat="43.45715" lon="-1.56168">
        <ele>37.7</ele>
        <time>2021-09-05T07:08:21Z</time>
      </trkpt>
      <trkpt lat="43.45713" lon="-1.56166">
        <ele>37.7</ele>
        <time>2021-09-05T07:08:22Z</time>
      </trkpt>
      <trkpt lat="43.45711" lon="-1.56164">
        <ele>36.7</ele>
        <time>2021-09-05T07:08:23Z</time>
      </trkpt>
      <trkpt lat="43.45709" lon="-1.56161">
        <ele>35.8</ele>
        <time>2021-09-05T07:08:24Z</time>
      </trkpt>
      <trkpt lat="43.45707" lon="-1.56158">
        <ele>35.9</ele>
        <time>2021-09-05T07:08:25Z</time>
      </trkpt>
      <trkpt lat="43.45705" lon="-1.56154">
        <ele>35</ele>
        <time>2021-09-05T07:08:26Z</time>
      </trkpt>
      <trkpt lat="43.45704" lon="-1.56151">
        <ele>35.1</ele>
        <time>2021-09-05T07:08:27Z</time>
      </trkpt>
      <trkpt lat="43.45703" lon="-1.56147">
        <ele>34.4</ele>
        <time>2021-09-05T07:08:28Z</time>
      </trkpt>
      <trkpt lat="43.45702" lon="-1.56143">
        <ele>34.5</ele>
        <time>2021-09-05T07:08:29Z</time>
      </trkpt>
      <trkpt lat="43.45702" lon="-1.56139">
        <ele>34.6</ele>
        <time>2021-09-05T07:08:30Z</time>
      </trkpt>
      <trkpt lat="43.45702" lon="-1.56134">
        <ele>34.8</ele>
        <time>2021-09-05T07:08:31Z</time>
      </trkpt>
      <trkpt lat="43.45702" lon="-1.56128">
        <ele>34.9</ele>
        <time>2021-09-05T07:08:32Z</time>
      </trkpt>
      <trkpt lat="43.45703" lon="-1.56123">
        <ele>35.1</ele>
        <time>2021-09-05T07:08:33Z</time>
      </trkpt>
      <trkpt lat="43.45704" lon="-1.56118">
        <ele>36.2</ele>
        <time>2021-09-05T07:08:34Z</time>
      </trkpt>
      <trkpt lat="43.45705" lon="-1.56113">
        <ele>36.4</ele>
        <time>2021-09-05T07:08:35Z</time>
      </trkpt>
      <trkpt lat="43.45707" lon="-1.56108">
        <ele>37.7</ele>
        <time>2021-09-05T07:08:36Z</time>
      </trkpt>
      <trkpt lat="43.45708" lon="-1.56103">
        <ele>37.9</ele>
        <time>2021-09-05T07:08:37Z</time>
      </trkpt>
      <trkpt lat="43.45709" lon="-1.56099">
        <ele>38.1</ele>
        <time>2021-09-05T07:08:38Z</time>
      </trkpt>
      <trkpt lat="43.45709" lon="-1.56095">
        <ele>38.3</ele>
        <time>2021-09-05T07:08:39Z</time>
      </trkpt>
      <trkpt lat="43.45709" lon="-1.56091">
        <ele>38.5</ele>
        <time>2021-09-05T07:08:40Z</time>
      </trkpt>
      <trkpt lat="43.45709" lon="-1.56086">
        <ele>38.6</ele>
        <time>2021-09-05T07:08:41Z</time>
      </trkpt>
      <trkpt lat="43.4571" lon="-1.56081">
        <ele>39.6</ele>
        <time>2021-09-05T07:08:42Z</time>
      </trkpt>
      <trkpt lat="43.45711" lon="-1.56076">
        <ele>39.7</ele>
        <time>2021-09-05T07:08:43Z</time>
      </trkpt>
      <trkpt lat="43.45712" lon="-1.56071">
        <ele>39.8</ele>
        <time>2021-09-05T07:08:44Z</time>
      </trkpt>
      <trkpt lat="43.45713" lon="-1.56066">
        <ele>40.7</ele>
        <time>2021-09-05T07:08:45Z</time>
      </trkpt>
      <trkpt lat="43.45715" lon="-1.56061">
        <ele>40.7</ele>
        <time>2021-09-05T07:08:46Z</time>
      </trkpt>
      <trkpt lat="43.45715" lon="-1.56057">
        <ele>40.6</ele>
        <time>2021-09-05T07:08:47Z</time>
      </trkpt>
      <trkpt lat="43.45716" lon="-1.56053">
        <ele>41.4</ele>
        <time>2021-09-05T07:08:48Z</time>
      </trkpt>
      <trkpt lat="43.45717" lon="-1.56049">
        <ele>41.3</ele>
        <time>2021-09-05T07:08:49Z</time>
      </trkpt>
      <trkpt lat="43.45719" lon="-1.56044">
        <ele>42</ele>
        <time>2021-09-05T07:08:50Z</time>
      </trkpt>
      <trkpt lat="43.45719" lon="-1.5604">
        <ele>41.9</ele>
        <time>2021-09-05T07:08:51Z</time>
      </trkpt>
      <trkpt lat="43.4572" lon="-1.56034">
        <ele>41.8</ele>
        <time>2021-09-05T07:08:52Z</time>
      </trkpt>
      <trkpt lat="43.45721" lon="-1.56028">
        <ele>41.7</ele>
        <time>2021-09-05T07:08:53Z</time>
      </trkpt>
      <trkpt lat="43.45723" lon="-1.56024">
        <ele>42.3</ele>
        <time>2021-09-05T07:08:54Z</time>
      </trkpt>
      <trkpt lat="43.45725" lon="-1.56019">
        <ele>42.2</ele>
        <time>2021-09-05T07:08:55Z</time>
      </trkpt>
      <trkpt lat="43.45726" lon="-1.56015">
        <ele>42.6</ele>
        <time>2021-09-05T07:08:56Z</time>
      </trkpt>
      <trkpt lat="43.45728" lon="-1.5601">
        <ele>42.4</ele>
        <time>2021-09-05T07:08:57Z</time>
      </trkpt>
      <trkpt lat="43.4573" lon="-1.56006">
        <ele>42.3</ele>
        <time>2021-09-05T07:08:58Z</time>
      </trkpt>
      <trkpt lat="43.45731" lon="-1.56001">
        <ele>41.9</ele>
        <time>2021-09-05T07:08:59Z</time>
      </trkpt>
      <trkpt lat="43.45733" lon="-1.55996">
        <ele>42.1</ele>
        <time>2021-09-05T07:09:00Z</time>
      </trkpt>
      <trkpt lat="43.45734" lon="-1.55991">
        <ele>41.6</ele>
        <time>2021-09-05T07:09:01Z</time>
      </trkpt>
      <trkpt lat="43.45736" lon="-1.55986">
        <ele>41.7</ele>
        <time>2021-09-05T07:09:02Z</time>
      </trkpt>
      <trkpt lat="43.45737" lon="-1.55981">
        <ele>41.2</ele>
        <time>2021-09-05T07:09:03Z</time>
      </trkpt>
      <trkpt lat="43.45739" lon="-1.55976">
        <ele>40.5</ele>
        <time>2021-09-05T07:09:04Z</time>
      </trkpt>
      <trkpt lat="43.45741" lon="-1.5597">
        <ele>39.9</ele>
        <time>2021-09-05T07:09:05Z</time>
      </trkpt>
      <trkpt lat="43.45742" lon="-1.55965">
        <ele>39.3</ele>
        <time>2021-09-05T07:09:06Z</time>
      </trkpt>
      <trkpt lat="43.45744" lon="-1.5596">
        <ele>38.7</ele>
        <time>2021-09-05T07:09:07Z</time>
      </trkpt>
      <trkpt lat="43.45745" lon="-1.55955">
        <ele>38</ele>
        <time>2021-09-05T07:09:08Z</time>
      </trkpt>
      <trkpt lat="43.45746" lon="-1.5595">
        <ele>37.5</ele>
        <time>2021-09-05T07:09:09Z</time>
      </trkpt>
      <trkpt lat="43.45748" lon="-1.55946">
        <ele>37</ele>
        <time>2021-09-05T07:09:10Z</time>
      </trkpt>
      <trkpt lat="43.45749" lon="-1.55942">
        <ele>36.4</ele>
        <time>2021-09-05T07:09:11Z</time>
      </trkpt>
      <trkpt lat="43.45751" lon="-1.55938">
        <ele>35.9</ele>
        <time>2021-09-05T07:09:12Z</time>
      </trkpt>
      <trkpt lat="43.45753" lon="-1.55934">
        <ele>35.2</ele>
        <time>2021-09-05T07:09:13Z</time>
      </trkpt>
      <trkpt lat="43.45755" lon="-1.55928">
        <ele>34.5</ele>
        <time>2021-09-05T07:09:14Z</time>
      </trkpt>
      <trkpt lat="43.45758" lon="-1.55923">
        <ele>33.6</ele>
        <time>2021-09-05T07:09:15Z</time>
      </trkpt>
      <trkpt lat="43.4576" lon="-1.55918">
        <ele>32.8</ele>
        <time>2021-09-05T07:09:16Z</time>
      </trkpt>
      <trkpt lat="43.45761" lon="-1.55912">
        <ele>32.1</ele>
        <time>2021-09-05T07:09:17Z</time>
      </trkpt>
      <trkpt lat="43.45763" lon="-1.55906">
        <ele>31.3</ele>
        <time>2021-09-05T07:09:18Z</time>
      </trkpt>
      <trkpt lat="43.45764" lon="-1.559">
        <ele>30.5</ele>
        <time>2021-09-05T07:09:19Z</time>
      </trkpt>
      <trkpt lat="43.45766" lon="-1.55894">
        <ele>29.9</ele>
        <time>2021-09-05T07:09:20Z</time>
      </trkpt>
      <trkpt lat="43.45768" lon="-1.55889">
        <ele>29.6</ele>
        <time>2021-09-05T07:09:21Z</time>
      </trkpt>
      <trkpt lat="43.4577" lon="-1.55884">
        <ele>29.4</ele>
        <time>2021-09-05T07:09:22Z</time>
      </trkpt>
      <trkpt lat="43.45772" lon="-1.5588">
        <ele>29.1</ele>
        <time>2021-09-05T07:09:23Z</time>
      </trkpt>
      <trkpt lat="43.45774" lon="-1.55875">
        <ele>28.9</ele>
        <time>2021-09-05T07:09:24Z</time>
      </trkpt>
      <trkpt lat="43.45777" lon="-1.55871">
        <ele>28.7</ele>
        <time>2021-09-05T07:09:25Z</time>
      </trkpt>
      <trkpt lat="43.4578" lon="-1.55866">
        <ele>28.5</ele>
        <time>2021-09-05T07:09:26Z</time>
      </trkpt>
      <trkpt lat="43.45782" lon="-1.55861">
        <ele>28.3</ele>
        <time>2021-09-05T07:09:27Z</time>
      </trkpt>
      <trkpt lat="43.45785" lon="-1.55857">
        <ele>28</ele>
        <time>2021-09-05T07:09:28Z</time>
      </trkpt>
      <trkpt lat="43.45788" lon="-1.55853">
        <ele>27.8</ele>
        <time>2021-09-05T07:09:29Z</time>
      </trkpt>
      <trkpt lat="43.45791" lon="-1.55848">
        <ele>27.6</ele>
        <time>2021-09-05T07:09:30Z</time>
      </trkpt>
      <trkpt lat="43.45793" lon="-1.55843">
        <ele>27.4</ele>
        <time>2021-09-05T07:09:31Z</time>
      </trkpt>
      <trkpt lat="43.45795" lon="-1.55838">
        <ele>27.2</ele>
        <time>2021-09-05T07:09:32Z</time>
      </trkpt>
      <trkpt lat="43.45797" lon="-1.55834">
        <ele>27</ele>
        <time>2021-09-05T07:09:33Z</time>
      </trkpt>
      <trkpt lat="43.45799" lon="-1.5583">
        <ele>26.8</ele>
        <time>2021-09-05T07:09:34Z</time>
      </trkpt>
      <trkpt lat="43.45801" lon="-1.55825">
        <ele>26.6</ele>
        <time>2021-09-05T07:09:35Z</time>
      </trkpt>
      <trkpt lat="43.45804" lon="-1.55821">
        <ele>26.4</ele>
        <time>2021-09-05T07:09:36Z</time>
      </trkpt>
      <trkpt lat="43.45806" lon="-1.55817">
        <ele>26.2</ele>
        <time>2021-09-05T07:09:37Z</time>
      </trkpt>
      <trkpt lat="43.45807" lon="-1.55813">
        <ele>25.9</ele>
        <time>2021-09-05T07:09:38Z</time>
      </trkpt>
      <trkpt lat="43.45808" lon="-1.55807">
        <ele>25.7</ele>
        <time>2021-09-05T07:09:39Z</time>
      </trkpt>
      <trkpt lat="43.45809" lon="-1.55802">
        <ele>25.5</ele>
        <time>2021-09-05T07:09:40Z</time>
      </trkpt>
      <trkpt lat="43.45812" lon="-1.55794">
        <ele>25.1</ele>
        <time>2021-09-05T07:09:41Z</time>
      </trkpt>
      <trkpt lat="43.45813" lon="-1.55786">
        <ele>24.7</ele>
        <time>2021-09-05T07:09:42Z</time>
      </trkpt>
      <trkpt lat="43.45815" lon="-1.5578">
        <ele>24.4</ele>
        <time>2021-09-05T07:09:43Z</time>
      </trkpt>
      <trkpt lat="43.45817" lon="-1.55774">
        <ele>24</ele>
        <time>2021-09-05T07:09:44Z</time>
      </trkpt>
      <trkpt lat="43.45818" lon="-1.55768">
        <ele>23.8</ele>
        <time>2021-09-05T07:09:45Z</time>
      </trkpt>
      <trkpt lat="43.4582" lon="-1.55761">
        <ele>23.4</ele>
        <time>2021-09-05T07:09:46Z</time>
      </trkpt>
      <trkpt lat="43.4582" lon="-1.55755">
        <ele>23.1</ele>
        <time>2021-09-05T07:09:47Z</time>
      </trkpt>
      <trkpt lat="43.45821" lon="-1.5575">
        <ele>22.9</ele>
        <time>2021-09-05T07:09:48Z</time>
      </trkpt>
      <trkpt lat="43.45822" lon="-1.55745">
        <ele>22.6</ele>
        <time>2021-09-05T07:09:49Z</time>
      </trkpt>
      <trkpt lat="43.45823" lon="-1.55739">
        <ele>22.3</ele>
        <time>2021-09-05T07:09:50Z</time>
      </trkpt>
      <trkpt lat="43.45825" lon="-1.55734">
        <ele>22</ele>
        <time>2021-09-05T07:09:51Z</time>
      </trkpt>
      <trkpt lat="43.45826" lon="-1.55727">
        <ele>21.7</ele>
        <time>2021-09-05T07:09:52Z</time>
      </trkpt>
      <trkpt lat="43.45828" lon="-1.55721">
        <ele>21.4</ele>
        <time>2021-09-05T07:09:53Z</time>
      </trkpt>
      <trkpt lat="43.45828" lon="-1.55715">
        <ele>21.2</ele>
        <time>2021-09-05T07:09:54Z</time>
      </trkpt>
      <trkpt lat="43.45829" lon="-1.5571">
        <ele>20.9</ele>
        <time>2021-09-05T07:09:55Z</time>
      </trkpt>
      <trkpt lat="43.45829" lon="-1.55704">
        <ele>20.6</ele>
        <time>2021-09-05T07:09:56Z</time>
      </trkpt>
      <trkpt lat="43.45829" lon="-1.55698">
        <ele>20.4</ele>
        <time>2021-09-05T07:09:57Z</time>
      </trkpt>
      <trkpt lat="43.4583" lon="-1.55693">
        <ele>20.1</ele>
        <time>2021-09-05T07:09:58Z</time>
      </trkpt>
      <trkpt lat="43.4583" lon="-1.55688">
        <ele>19.9</ele>
        <time>2021-09-05T07:09:59Z</time>
      </trkpt>
      <trkpt lat="43.45832" lon="-1.55679">
        <ele>19.5</ele>
        <time>2021-09-05T07:10:00Z</time>
      </trkpt>
      <trkpt lat="43.45832" lon="-1.55677">
        <ele>19.4</ele>
        <time>2021-09-05T07:10:01Z</time>
      </trkpt>
      <trkpt lat="43.45834" lon="-1.55671">
        <ele>19.2</ele>
        <time>2021-09-05T07:10:02Z</time>
      </trkpt>
      <trkpt lat="43.45834" lon="-1.55665">
        <ele>19</ele>
        <time>2021-09-05T07:10:03Z</time>
      </trkpt>
      <trkpt lat="43.45834" lon="-1.55661">
        <ele>18.8</ele>
        <time>2021-09-05T07:10:04Z</time>
      </trkpt>
      <trkpt lat="43.45834" lon="-1.55655">
        <ele>18.6</ele>
        <time>2021-09-05T07:10:05Z</time>
      </trkpt>
      <trkpt lat="43.45833" lon="-1.55648">
        <ele>18.4</ele>
        <time>2021-09-05T07:10:06Z</time>
      </trkpt>
      <trkpt lat="43.45832" lon="-1.55641">
        <ele>18.2</ele>
        <time>2021-09-05T07:10:07Z</time>
      </trkpt>
      <trkpt lat="43.45831" lon="-1.55634">
        <ele>17.2</ele>
        <time>2021-09-05T07:10:08Z</time>
      </trkpt>
      <trkpt lat="43.45829" lon="-1.55629">
        <ele>17.2</ele>
        <time>2021-09-05T07:10:09Z</time>
      </trkpt>
      <trkpt lat="43.45829" lon="-1.55623">
        <ele>17.2</ele>
        <time>2021-09-05T07:10:10Z</time>
      </trkpt>
      <trkpt lat="43.45828" lon="-1.55617">
        <ele>17.1</ele>
        <time>2021-09-05T07:10:11Z</time>
      </trkpt>
      <trkpt lat="43.45826" lon="-1.55612">
        <ele>17.1</ele>
        <time>2021-09-05T07:10:12Z</time>
      </trkpt>
      <trkpt lat="43.45825" lon="-1.55606">
        <ele>17.1</ele>
        <time>2021-09-05T07:10:13Z</time>
      </trkpt>
      <trkpt lat="43.45823" lon="-1.55601">
        <ele>17</ele>
        <time>2021-09-05T07:10:14Z</time>
      </trkpt>
      <trkpt lat="43.45822" lon="-1.55595">
        <ele>17</ele>
        <time>2021-09-05T07:10:15Z</time>
      </trkpt>
      <trkpt lat="43.4582" lon="-1.55589">
        <ele>16.9</ele>
        <time>2021-09-05T07:10:16Z</time>
      </trkpt>
      <trkpt lat="43.45819" lon="-1.55582">
        <ele>16.9</ele>
        <time>2021-09-05T07:10:17Z</time>
      </trkpt>
      <trkpt lat="43.45818" lon="-1.55576">
        <ele>16.8</ele>
        <time>2021-09-05T07:10:18Z</time>
      </trkpt>
      <trkpt lat="43.45818" lon="-1.5557">
        <ele>16.8</ele>
        <time>2021-09-05T07:10:19Z</time>
      </trkpt>
      <trkpt lat="43.45818" lon="-1.55564">
        <ele>16.8</ele>
        <time>2021-09-05T07:10:20Z</time>
      </trkpt>
      <trkpt lat="43.45819" lon="-1.5556">
        <ele>16.9</ele>
        <time>2021-09-05T07:10:21Z</time>
      </trkpt>
      <trkpt lat="43.45819" lon="-1.55555">
        <ele>16.9</ele>
        <time>2021-09-05T07:10:22Z</time>
      </trkpt>
      <trkpt lat="43.45819" lon="-1.5555">
        <ele>16.9</ele>
        <time>2021-09-05T07:10:23Z</time>
      </trkpt>
      <trkpt lat="43.45819" lon="-1.55544">
        <ele>16.9</ele>
        <time>2021-09-05T07:10:24Z</time>
      </trkpt>
      <trkpt lat="43.4582" lon="-1.55538">
        <ele>17</ele>
        <time>2021-09-05T07:10:25Z</time>
      </trkpt>
      <trkpt lat="43.4582" lon="-1.55533">
        <ele>17</ele>
        <time>2021-09-05T07:10:26Z</time>
      </trkpt>
      <trkpt lat="43.4582" lon="-1.55528">
        <ele>17.1</ele>
        <time>2021-09-05T07:10:27Z</time>
      </trkpt>
      <trkpt lat="43.45819" lon="-1.55523">
        <ele>17.2</ele>
        <time>2021-09-05T07:10:28Z</time>
      </trkpt>
      <trkpt lat="43.45818" lon="-1.55518">
        <ele>17.3</ele>
        <time>2021-09-05T07:10:29Z</time>
      </trkpt>
      <trkpt lat="43.45817" lon="-1.55512">
        <ele>17.3</ele>
        <time>2021-09-05T07:10:30Z</time>
      </trkpt>
      <trkpt lat="43.45817" lon="-1.55506">
        <ele>17.4</ele>
        <time>2021-09-05T07:10:31Z</time>
      </trkpt>
      <trkpt lat="43.45817" lon="-1.555">
        <ele>17.5</ele>
        <time>2021-09-05T07:10:32Z</time>
      </trkpt>
      <trkpt lat="43.45816" lon="-1.55494">
        <ele>17.6</ele>
        <time>2021-09-05T07:10:33Z</time>
      </trkpt>
      <trkpt lat="43.45816" lon="-1.55489">
        <ele>17.7</ele>
        <time>2021-09-05T07:10:34Z</time>
      </trkpt>
      <trkpt lat="43.45816" lon="-1.55484">
        <ele>17.8</ele>
        <time>2021-09-05T07:10:35Z</time>
      </trkpt>
      <trkpt lat="43.45816" lon="-1.5548">
        <ele>17.9</ele>
        <time>2021-09-05T07:10:36Z</time>
      </trkpt>
      <trkpt lat="43.45816" lon="-1.55476">
        <ele>18</ele>
        <time>2021-09-05T07:10:37Z</time>
      </trkpt>
      <trkpt lat="43.45816" lon="-1.55472">
        <ele>18</ele>
        <time>2021-09-05T07:10:38Z</time>
      </trkpt>
      <trkpt lat="43.45816" lon="-1.55468">
        <ele>18.2</ele>
        <time>2021-09-05T07:10:39Z</time>
      </trkpt>
      <trkpt lat="43.45816" lon="-1.55464">
        <ele>18.3</ele>
        <time>2021-09-05T07:10:40Z</time>
      </trkpt>
      <trkpt lat="43.45817" lon="-1.55459">
        <ele>18.4</ele>
        <time>2021-09-05T07:10:41Z</time>
      </trkpt>
      <trkpt lat="43.45818" lon="-1.55455">
        <ele>18.5</ele>
        <time>2021-09-05T07:10:42Z</time>
      </trkpt>
      <trkpt lat="43.45819" lon="-1.5545">
        <ele>18.7</ele>
        <time>2021-09-05T07:10:43Z</time>
      </trkpt>
      <trkpt lat="43.4582" lon="-1.55446">
        <ele>18.8</ele>
        <time>2021-09-05T07:10:44Z</time>
      </trkpt>
      <trkpt lat="43.45821" lon="-1.55442">
        <ele>18.9</ele>
        <time>2021-09-05T07:10:45Z</time>
      </trkpt>
      <trkpt lat="43.45822" lon="-1.55437">
        <ele>18.9</ele>
        <time>2021-09-05T07:10:46Z</time>
      </trkpt>
      <trkpt lat="43.45822" lon="-1.55433">
        <ele>19</ele>
        <time>2021-09-05T07:10:47Z</time>
      </trkpt>
      <trkpt lat="43.45821" lon="-1.55429">
        <ele>19</ele>
        <time>2021-09-05T07:10:48Z</time>
      </trkpt>
      <trkpt lat="43.45818" lon="-1.55425">
        <ele>19</ele>
        <time>2021-09-05T07:10:49Z</time>
      </trkpt>
      <trkpt lat="43.45816" lon="-1.55422">
        <ele>18.9</ele>
        <time>2021-09-05T07:10:50Z</time>
      </trkpt>
      <trkpt lat="43.45813" lon="-1.55418">
        <ele>18.9</ele>
        <time>2021-09-05T07:10:51Z</time>
      </trkpt>
      <trkpt lat="43.4581" lon="-1.55414">
        <ele>18.8</ele>
        <time>2021-09-05T07:10:52Z</time>
      </trkpt>
      <trkpt lat="43.45808" lon="-1.5541">
        <ele>18.8</ele>
        <time>2021-09-05T07:10:53Z</time>
      </trkpt>
      <trkpt lat="43.45806" lon="-1.55405">
        <ele>18.7</ele>
        <time>2021-09-05T07:10:54Z</time>
      </trkpt>
      <trkpt lat="43.45804" lon="-1.554">
        <ele>18.7</ele>
        <time>2021-09-05T07:10:55Z</time>
      </trkpt>
      <trkpt lat="43.45802" lon="-1.55395">
        <ele>18.7</ele>
        <time>2021-09-05T07:10:56Z</time>
      </trkpt>
      <trkpt lat="43.458" lon="-1.55391">
        <ele>18.6</ele>
        <time>2021-09-05T07:10:57Z</time>
      </trkpt>
      <trkpt lat="43.45798" lon="-1.55386">
        <ele>18.6</ele>
        <time>2021-09-05T07:10:58Z</time>
      </trkpt>
      <trkpt lat="43.45796" lon="-1.55382">
        <ele>18.6</ele>
        <time>2021-09-05T07:10:59Z</time>
      </trkpt>
      <trkpt lat="43.45793" lon="-1.55378">
        <ele>18.6</ele>
        <time>2021-09-05T07:11:00Z</time>
      </trkpt>
      <trkpt lat="43.45791" lon="-1.55374">
        <ele>18.6</ele>
        <time>2021-09-05T07:11:01Z</time>
      </trkpt>
      <trkpt lat="43.45789" lon="-1.5537">
        <ele>18.7</ele>
        <time>2021-09-05T07:11:02Z</time>
      </trkpt>
      <trkpt lat="43.45787" lon="-1.55366">
        <ele>18.7</ele>
        <time>2021-09-05T07:11:03Z</time>
      </trkpt>
      <trkpt lat="43.45785" lon="-1.55362">
        <ele>18.8</ele>
        <time>2021-09-05T07:11:04Z</time>
      </trkpt>
      <trkpt lat="43.45783" lon="-1.55358">
        <ele>18.9</ele>
        <time>2021-09-05T07:11:05Z</time>
      </trkpt>
      <trkpt lat="43.45781" lon="-1.55354">
        <ele>19</ele>
        <time>2021-09-05T07:11:06Z</time>
      </trkpt>
      <trkpt lat="43.45781" lon="-1.5535">
        <ele>19.1</ele>
        <time>2021-09-05T07:11:07Z</time>
      </trkpt>
      <trkpt lat="43.45782" lon="-1.55346">
        <ele>19.2</ele>
        <time>2021-09-05T07:11:08Z</time>
      </trkpt>
      <trkpt lat="43.45783" lon="-1.55342">
        <ele>19.3</ele>
        <time>2021-09-05T07:11:09Z</time>
      </trkpt>
      <trkpt lat="43.45785" lon="-1.55338">
        <ele>19.4</ele>
        <time>2021-09-05T07:11:10Z</time>
      </trkpt>
      <trkpt lat="43.45786" lon="-1.55333">
        <ele>19.5</ele>
        <time>2021-09-05T07:11:11Z</time>
      </trkpt>
      <trkpt lat="43.45785" lon="-1.55329">
        <ele>19.5</ele>
        <time>2021-09-05T07:11:12Z</time>
      </trkpt>
      <trkpt lat="43.45782" lon="-1.55324">
        <ele>19.7</ele>
        <time>2021-09-05T07:11:13Z</time>
      </trkpt>
      <trkpt lat="43.4578" lon="-1.55321">
        <ele>19.8</ele>
        <time>2021-09-05T07:11:14Z</time>
      </trkpt>
      <trkpt lat="43.45778" lon="-1.55318">
        <ele>19.9</ele>
        <time>2021-09-05T07:11:15Z</time>
      </trkpt>
      <trkpt lat="43.45776" lon="-1.55314">
        <ele>20</ele>
        <time>2021-09-05T07:11:16Z</time>
      </trkpt>
      <trkpt lat="43.45773" lon="-1.55309">
        <ele>20.2</ele>
        <time>2021-09-05T07:11:17Z</time>
      </trkpt>
      <trkpt lat="43.45772" lon="-1.55305">
        <ele>20.3</ele>
        <time>2021-09-05T07:11:18Z</time>
      </trkpt>
      <trkpt lat="43.4577" lon="-1.55302">
        <ele>20.6</ele>
        <time>2021-09-05T07:11:19Z</time>
      </trkpt>
      <trkpt lat="43.45768" lon="-1.55298">
        <ele>20.9</ele>
        <time>2021-09-05T07:11:20Z</time>
      </trkpt>
      <trkpt lat="43.45767" lon="-1.55295">
        <ele>21.2</ele>
        <time>2021-09-05T07:11:21Z</time>
      </trkpt>
      <trkpt lat="43.45764" lon="-1.55292">
        <ele>21.6</ele>
        <time>2021-09-05T07:11:22Z</time>
      </trkpt>
      <trkpt lat="43.45762" lon="-1.5529">
        <ele>22</ele>
        <time>2021-09-05T07:11:23Z</time>
      </trkpt>
      <trkpt lat="43.45761" lon="-1.55286">
        <ele>22.4</ele>
        <time>2021-09-05T07:11:24Z</time>
      </trkpt>
      <trkpt lat="43.45759" lon="-1.55283">
        <ele>22.7</ele>
        <time>2021-09-05T07:11:25Z</time>
      </trkpt>
      <trkpt lat="43.45758" lon="-1.5528">
        <ele>23.1</ele>
        <time>2021-09-05T07:11:26Z</time>
      </trkpt>
      <trkpt lat="43.45757" lon="-1.55277">
        <ele>23.4</ele>
        <time>2021-09-05T07:11:27Z</time>
      </trkpt>
      <trkpt lat="43.45756" lon="-1.55275">
        <ele>23.7</ele>
        <time>2021-09-05T07:11:28Z</time>
      </trkpt>
      <trkpt lat="43.45754" lon="-1.55271">
        <ele>24.1</ele>
        <time>2021-09-05T07:11:29Z</time>
      </trkpt>
      <trkpt lat="43.45753" lon="-1.55269">
        <ele>24.5</ele>
        <time>2021-09-05T07:11:30Z</time>
      </trkpt>
      <trkpt lat="43.45751" lon="-1.55266">
        <ele>24.9</ele>
        <time>2021-09-05T07:11:31Z</time>
      </trkpt>
      <trkpt lat="43.4575" lon="-1.55263">
        <ele>25.2</ele>
        <time>2021-09-05T07:11:32Z</time>
      </trkpt>
      <trkpt lat="43.4575" lon="-1.55261">
        <ele>25.5</ele>
        <time>2021-09-05T07:11:33Z</time>
      </trkpt>
      <trkpt lat="43.45749" lon="-1.55258">
        <ele>25.9</ele>
        <time>2021-09-05T07:11:34Z</time>
      </trkpt>
      <trkpt lat="43.45748" lon="-1.55256">
        <ele>26.2</ele>
        <time>2021-09-05T07:11:35Z</time>
      </trkpt>
      <trkpt lat="43.45746" lon="-1.55253">
        <ele>26.6</ele>
        <time>2021-09-05T07:11:36Z</time>
      </trkpt>
      <trkpt lat="43.45745" lon="-1.55251">
        <ele>27</ele>
        <time>2021-09-05T07:11:37Z</time>
      </trkpt>
      <trkpt lat="43.45743" lon="-1.55248">
        <ele>27.4</ele>
        <time>2021-09-05T07:11:38Z</time>
      </trkpt>
      <trkpt lat="43.45742" lon="-1.55246">
        <ele>27.7</ele>
        <time>2021-09-05T07:11:39Z</time>
      </trkpt>
      <trkpt lat="43.45741" lon="-1.55243">
        <ele>28.1</ele>
        <time>2021-09-05T07:11:40Z</time>
      </trkpt>
      <trkpt lat="43.45741" lon="-1.5524">
        <ele>28.4</ele>
        <time>2021-09-05T07:11:41Z</time>
      </trkpt>
      <trkpt lat="43.4574" lon="-1.55237">
        <ele>28.8</ele>
        <time>2021-09-05T07:11:42Z</time>
      </trkpt>
      <trkpt lat="43.45739" lon="-1.55234">
        <ele>29.2</ele>
        <time>2021-09-05T07:11:43Z</time>
      </trkpt>
      <trkpt lat="43.45738" lon="-1.55231">
        <ele>29.7</ele>
        <time>2021-09-05T07:11:44Z</time>
      </trkpt>
      <trkpt lat="43.45737" lon="-1.55227">
        <ele>30.1</ele>
        <time>2021-09-05T07:11:45Z</time>
      </trkpt>
      <trkpt lat="43.45736" lon="-1.55224">
        <ele>30.5</ele>
        <time>2021-09-05T07:11:46Z</time>
      </trkpt>
      <trkpt lat="43.45735" lon="-1.55221">
        <ele>30.9</ele>
        <time>2021-09-05T07:11:47Z</time>
      </trkpt>
      <trkpt lat="43.45735" lon="-1.55221">
        <ele>30.9</ele>
        <time>2021-09-05T07:11:48Z</time>
      </trkpt>
      <trkpt lat="43.45734" lon="-1.55216">
        <ele>31.5</ele>
        <time>2021-09-05T07:11:49Z</time>
      </trkpt>
      <trkpt lat="43.45734" lon="-1.55216">
        <ele>31.5</ele>
        <time>2021-09-05T07:11:50Z</time>
      </trkpt>
      <trkpt lat="43.45735" lon="-1.55211">
        <ele>32.1</ele>
        <time>2021-09-05T07:11:51Z</time>
      </trkpt>
      <trkpt lat="43.45735" lon="-1.55209">
        <ele>32.4</ele>
        <time>2021-09-05T07:11:52Z</time>
      </trkpt>
      <trkpt lat="43.45734" lon="-1.55206">
        <ele>32.7</ele>
        <time>2021-09-05T07:11:53Z</time>
      </trkpt>
      <trkpt lat="43.45734" lon="-1.55204">
        <ele>33</ele>
        <time>2021-09-05T07:11:54Z</time>
      </trkpt>
      <trkpt lat="43.45734" lon="-1.55204">
        <ele>33</ele>
        <time>2021-09-05T07:11:55Z</time>
      </trkpt>
      <trkpt lat="43.45732" lon="-1.55197">
        <ele>33.9</ele>
        <time>2021-09-05T07:11:56Z</time>
      </trkpt>
      <trkpt lat="43.45731" lon="-1.55196">
        <ele>34.1</ele>
        <time>2021-09-05T07:11:57Z</time>
      </trkpt>
      <trkpt lat="43.4573" lon="-1.55194">
        <ele>34.4</ele>
        <time>2021-09-05T07:11:58Z</time>
      </trkpt>
      <trkpt lat="43.4573" lon="-1.55194">
        <ele>34.4</ele>
        <time>2021-09-05T07:11:59Z</time>
      </trkpt>
      <trkpt lat="43.45727" lon="-1.55193">
        <ele>34.9</ele>
        <time>2021-09-05T07:12:00Z</time>
      </trkpt>
      <trkpt lat="43.45725" lon="-1.55194">
        <ele>35.2</ele>
        <time>2021-09-05T07:12:01Z</time>
      </trkpt>
      <trkpt lat="43.45722" lon="-1.55196">
        <ele>36.3</ele>
        <time>2021-09-05T07:12:02Z</time>
      </trkpt>
      <trkpt lat="43.4572" lon="-1.55199">
        <ele>36.2</ele>
        <time>2021-09-05T07:12:03Z</time>
      </trkpt>
      <trkpt lat="43.45716" lon="-1.55203">
        <ele>36.1</ele>
        <time>2021-09-05T07:12:04Z</time>
      </trkpt>
      <trkpt lat="43.45714" lon="-1.55205">
        <ele>36.1</ele>
        <time>2021-09-05T07:12:05Z</time>
      </trkpt>
      <trkpt lat="43.45711" lon="-1.55207">
        <ele>36</ele>
        <time>2021-09-05T07:12:06Z</time>
      </trkpt>
      <trkpt lat="43.45709" lon="-1.5521">
        <ele>35.9</ele>
        <time>2021-09-05T07:12:07Z</time>
      </trkpt>
      <trkpt lat="43.45706" lon="-1.55213">
        <ele>35.8</ele>
        <time>2021-09-05T07:12:08Z</time>
      </trkpt>
      <trkpt lat="43.45703" lon="-1.55217">
        <ele>35.6</ele>
        <time>2021-09-05T07:12:09Z</time>
      </trkpt>
      <trkpt lat="43.45701" lon="-1.5522">
        <ele>35.5</ele>
        <time>2021-09-05T07:12:10Z</time>
      </trkpt>
      <trkpt lat="43.45698" lon="-1.55223">
        <ele>35.3</ele>
        <time>2021-09-05T07:12:11Z</time>
      </trkpt>
      <trkpt lat="43.45695" lon="-1.55227">
        <ele>35.1</ele>
        <time>2021-09-05T07:12:12Z</time>
      </trkpt>
      <trkpt lat="43.45693" lon="-1.55231">
        <ele>34.9</ele>
        <time>2021-09-05T07:12:13Z</time>
      </trkpt>
      <trkpt lat="43.4569" lon="-1.55234">
        <ele>34.7</ele>
        <time>2021-09-05T07:12:14Z</time>
      </trkpt>
      <trkpt lat="43.45687" lon="-1.55237">
        <ele>34.4</ele>
        <time>2021-09-05T07:12:15Z</time>
      </trkpt>
      <trkpt lat="43.45685" lon="-1.55241">
        <ele>34.2</ele>
        <time>2021-09-05T07:12:16Z</time>
      </trkpt>
      <trkpt lat="43.45682" lon="-1.55245">
        <ele>33.9</ele>
        <time>2021-09-05T07:12:17Z</time>
      </trkpt>
      <trkpt lat="43.4568" lon="-1.55249">
        <ele>33.7</ele>
        <time>2021-09-05T07:12:18Z</time>
      </trkpt>
      <trkpt lat="43.45677" lon="-1.55252">
        <ele>33.5</ele>
        <time>2021-09-05T07:12:19Z</time>
      </trkpt>
      <trkpt lat="43.45675" lon="-1.55256">
        <ele>33.2</ele>
        <time>2021-09-05T07:12:20Z</time>
      </trkpt>
      <trkpt lat="43.45672" lon="-1.5526">
        <ele>33</ele>
        <time>2021-09-05T07:12:21Z</time>
      </trkpt>
      <trkpt lat="43.45669" lon="-1.55263">
        <ele>32.8</ele>
        <time>2021-09-05T07:12:22Z</time>
      </trkpt>
      <trkpt lat="43.45667" lon="-1.55267">
        <ele>32.7</ele>
        <time>2021-09-05T07:12:23Z</time>
      </trkpt>
      <trkpt lat="43.45665" lon="-1.5527">
        <ele>32.5</ele>
        <time>2021-09-05T07:12:24Z</time>
      </trkpt>
      <trkpt lat="43.45662" lon="-1.55274">
        <ele>32.4</ele>
        <time>2021-09-05T07:12:25Z</time>
      </trkpt>
      <trkpt lat="43.4566" lon="-1.55277">
        <ele>32.2</ele>
        <time>2021-09-05T07:12:26Z</time>
      </trkpt>
      <trkpt lat="43.45657" lon="-1.55281">
        <ele>32.1</ele>
        <time>2021-09-05T07:12:27Z</time>
      </trkpt>
      <trkpt lat="43.45655" lon="-1.55284">
        <ele>32</ele>
        <time>2021-09-05T07:12:28Z</time>
      </trkpt>
      <trkpt lat="43.45653" lon="-1.55288">
        <ele>31.9</ele>
        <time>2021-09-05T07:12:29Z</time>
      </trkpt>
      <trkpt lat="43.45651" lon="-1.55291">
        <ele>31.8</ele>
        <time>2021-09-05T07:12:30Z</time>
      </trkpt>
      <trkpt lat="43.45648" lon="-1.55295">
        <ele>31.7</ele>
        <time>2021-09-05T07:12:31Z</time>
      </trkpt>
      <trkpt lat="43.45645" lon="-1.55299">
        <ele>31.6</ele>
        <time>2021-09-05T07:12:32Z</time>
      </trkpt>
      <trkpt lat="43.45643" lon="-1.55302">
        <ele>31.5</ele>
        <time>2021-09-05T07:12:33Z</time>
      </trkpt>
      <trkpt lat="43.45641" lon="-1.55306">
        <ele>31.4</ele>
        <time>2021-09-05T07:12:34Z</time>
      </trkpt>
      <trkpt lat="43.45638" lon="-1.55309">
        <ele>31.3</ele>
        <time>2021-09-05T07:12:35Z</time>
      </trkpt>
      <trkpt lat="43.45635" lon="-1.55312">
        <ele>31.2</ele>
        <time>2021-09-05T07:12:36Z</time>
      </trkpt>
      <trkpt lat="43.45632" lon="-1.55315">
        <ele>31.1</ele>
        <time>2021-09-05T07:12:37Z</time>
      </trkpt>
      <trkpt lat="43.45627" lon="-1.55319">
        <ele>30.9</ele>
        <time>2021-09-05T07:12:38Z</time>
      </trkpt>
      <trkpt lat="43.45623" lon="-1.55323">
        <ele>30.8</ele>
        <time>2021-09-05T07:12:39Z</time>
      </trkpt>
      <trkpt lat="43.45619" lon="-1.55326">
        <ele>30.7</ele>
        <time>2021-09-05T07:12:40Z</time>
      </trkpt>
      <trkpt lat="43.45615" lon="-1.5533">
        <ele>30.5</ele>
        <time>2021-09-05T07:12:41Z</time>
      </trkpt>
      <trkpt lat="43.45612" lon="-1.55334">
        <ele>30.4</ele>
        <time>2021-09-05T07:12:42Z</time>
      </trkpt>
      <trkpt lat="43.45609" lon="-1.55337">
        <ele>30.3</ele>
        <time>2021-09-05T07:12:43Z</time>
      </trkpt>
      <trkpt lat="43.45606" lon="-1.55341">
        <ele>30.2</ele>
        <time>2021-09-05T07:12:44Z</time>
      </trkpt>
      <trkpt lat="43.45603" lon="-1.55344">
        <ele>30</ele>
        <time>2021-09-05T07:12:45Z</time>
      </trkpt>
      <trkpt lat="43.45599" lon="-1.55349">
        <ele>29.8</ele>
        <time>2021-09-05T07:12:46Z</time>
      </trkpt>
      <trkpt lat="43.45596" lon="-1.55352">
        <ele>29.7</ele>
        <time>2021-09-05T07:12:47Z</time>
      </trkpt>
      <trkpt lat="43.45593" lon="-1.55356">
        <ele>29.5</ele>
        <time>2021-09-05T07:12:48Z</time>
      </trkpt>
      <trkpt lat="43.45589" lon="-1.5536">
        <ele>29.3</ele>
        <time>2021-09-05T07:12:49Z</time>
      </trkpt>
      <trkpt lat="43.45587" lon="-1.55364">
        <ele>29.1</ele>
        <time>2021-09-05T07:12:50Z</time>
      </trkpt>
      <trkpt lat="43.45584" lon="-1.55367">
        <ele>28.9</ele>
        <time>2021-09-05T07:12:51Z</time>
      </trkpt>
      <trkpt lat="43.4558" lon="-1.55369">
        <ele>28.7</ele>
        <time>2021-09-05T07:12:52Z</time>
      </trkpt>
      <trkpt lat="43.45576" lon="-1.55373">
        <ele>28.5</ele>
        <time>2021-09-05T07:12:53Z</time>
      </trkpt>
      <trkpt lat="43.45574" lon="-1.55376">
        <ele>28.3</ele>
        <time>2021-09-05T07:12:54Z</time>
      </trkpt>
      <trkpt lat="43.45571" lon="-1.55379">
        <ele>28.1</ele>
        <time>2021-09-05T07:12:55Z</time>
      </trkpt>
      <trkpt lat="43.45568" lon="-1.55383">
        <ele>27.8</ele>
        <time>2021-09-05T07:12:56Z</time>
      </trkpt>
      <trkpt lat="43.45565" lon="-1.55385">
        <ele>27.7</ele>
        <time>2021-09-05T07:12:57Z</time>
      </trkpt>
      <trkpt lat="43.45562" lon="-1.55387">
        <ele>27.4</ele>
        <time>2021-09-05T07:12:58Z</time>
      </trkpt>
      <trkpt lat="43.4556" lon="-1.55389">
        <ele>27.3</ele>
        <time>2021-09-05T07:12:59Z</time>
      </trkpt>
      <trkpt lat="43.45556" lon="-1.55392">
        <ele>27</ele>
        <time>2021-09-05T07:13:00Z</time>
      </trkpt>
      <trkpt lat="43.45552" lon="-1.55396">
        <ele>26.7</ele>
        <time>2021-09-05T07:13:01Z</time>
      </trkpt>
      <trkpt lat="43.4555" lon="-1.55399">
        <ele>26.5</ele>
        <time>2021-09-05T07:13:02Z</time>
      </trkpt>
      <trkpt lat="43.45548" lon="-1.55402">
        <ele>26.3</ele>
        <time>2021-09-05T07:13:03Z</time>
      </trkpt>
      <trkpt lat="43.45546" lon="-1.55407">
        <ele>26</ele>
        <time>2021-09-05T07:13:04Z</time>
      </trkpt>
      <trkpt lat="43.45544" lon="-1.55411">
        <ele>25.8</ele>
        <time>2021-09-05T07:13:05Z</time>
      </trkpt>
      <trkpt lat="43.45541" lon="-1.55416">
        <ele>25.5</ele>
        <time>2021-09-05T07:13:06Z</time>
      </trkpt>
      <trkpt lat="43.45538" lon="-1.55421">
        <ele>25.3</ele>
        <time>2021-09-05T07:13:07Z</time>
      </trkpt>
      <trkpt lat="43.45534" lon="-1.55426">
        <ele>25.1</ele>
        <time>2021-09-05T07:13:08Z</time>
      </trkpt>
      <trkpt lat="43.45532" lon="-1.55431">
        <ele>24.9</ele>
        <time>2021-09-05T07:13:09Z</time>
      </trkpt>
      <trkpt lat="43.45529" lon="-1.55436">
        <ele>24.7</ele>
        <time>2021-09-05T07:13:10Z</time>
      </trkpt>
      <trkpt lat="43.45526" lon="-1.55441">
        <ele>24.6</ele>
        <time>2021-09-05T07:13:11Z</time>
      </trkpt>
      <trkpt lat="43.45524" lon="-1.55447">
        <ele>24.4</ele>
        <time>2021-09-05T07:13:12Z</time>
      </trkpt>
      <trkpt lat="43.45522" lon="-1.55452">
        <ele>24.2</ele>
        <time>2021-09-05T07:13:13Z</time>
      </trkpt>
      <trkpt lat="43.4552" lon="-1.55458">
        <ele>24</ele>
        <time>2021-09-05T07:13:14Z</time>
      </trkpt>
      <trkpt lat="43.45517" lon="-1.55463">
        <ele>23.8</ele>
        <time>2021-09-05T07:13:15Z</time>
      </trkpt>
      <trkpt lat="43.45515" lon="-1.55469">
        <ele>23.5</ele>
        <time>2021-09-05T07:13:16Z</time>
      </trkpt>
      <trkpt lat="43.45513" lon="-1.55474">
        <ele>23.2</ele>
        <time>2021-09-05T07:13:17Z</time>
      </trkpt>
      <trkpt lat="43.4551" lon="-1.55479">
        <ele>23</ele>
        <time>2021-09-05T07:13:18Z</time>
      </trkpt>
      <trkpt lat="43.45508" lon="-1.55484">
        <ele>22.6</ele>
        <time>2021-09-05T07:13:19Z</time>
      </trkpt>
      <trkpt lat="43.45505" lon="-1.5549">
        <ele>22.3</ele>
        <time>2021-09-05T07:13:20Z</time>
      </trkpt>
      <trkpt lat="43.45503" lon="-1.55496">
        <ele>21.9</ele>
        <time>2021-09-05T07:13:21Z</time>
      </trkpt>
      <trkpt lat="43.45501" lon="-1.55501">
        <ele>21.5</ele>
        <time>2021-09-05T07:13:22Z</time>
      </trkpt>
      <trkpt lat="43.45499" lon="-1.55506">
        <ele>21.2</ele>
        <time>2021-09-05T07:13:23Z</time>
      </trkpt>
      <trkpt lat="43.45496" lon="-1.55512">
        <ele>20.8</ele>
        <time>2021-09-05T07:13:24Z</time>
      </trkpt>
      <trkpt lat="43.45495" lon="-1.55517">
        <ele>20.5</ele>
        <time>2021-09-05T07:13:25Z</time>
      </trkpt>
      <trkpt lat="43.45493" lon="-1.55522">
        <ele>20.2</ele>
        <time>2021-09-05T07:13:26Z</time>
      </trkpt>
      <trkpt lat="43.45491" lon="-1.55527">
        <ele>19.9</ele>
        <time>2021-09-05T07:13:27Z</time>
      </trkpt>
      <trkpt lat="43.45489" lon="-1.55532">
        <ele>19.6</ele>
        <time>2021-09-05T07:13:28Z</time>
      </trkpt>
      <trkpt lat="43.45487" lon="-1.55538">
        <ele>19.4</ele>
        <time>2021-09-05T07:13:29Z</time>
      </trkpt>
      <trkpt lat="43.45486" lon="-1.55543">
        <ele>19.1</ele>
        <time>2021-09-05T07:13:30Z</time>
      </trkpt>
      <trkpt lat="43.45484" lon="-1.55549">
        <ele>18.9</ele>
        <time>2021-09-05T07:13:31Z</time>
      </trkpt>
      <trkpt lat="43.45482" lon="-1.55554">
        <ele>18.7</ele>
        <time>2021-09-05T07:13:32Z</time>
      </trkpt>
      <trkpt lat="43.4548" lon="-1.55559">
        <ele>18.5</ele>
        <time>2021-09-05T07:13:33Z</time>
      </trkpt>
      <trkpt lat="43.45478" lon="-1.55564">
        <ele>18.3</ele>
        <time>2021-09-05T07:13:34Z</time>
      </trkpt>
      <trkpt lat="43.45476" lon="-1.55569">
        <ele>18.2</ele>
        <time>2021-09-05T07:13:35Z</time>
      </trkpt>
      <trkpt lat="43.45474" lon="-1.55574">
        <ele>18</ele>
        <time>2021-09-05T07:13:36Z</time>
      </trkpt>
      <trkpt lat="43.45472" lon="-1.55579">
        <ele>17.9</ele>
        <time>2021-09-05T07:13:37Z</time>
      </trkpt>
      <trkpt lat="43.45469" lon="-1.55583">
        <ele>17.8</ele>
        <time>2021-09-05T07:13:38Z</time>
      </trkpt>
      <trkpt lat="43.45467" lon="-1.55588">
        <ele>17.7</ele>
        <time>2021-09-05T07:13:39Z</time>
      </trkpt>
      <trkpt lat="43.45465" lon="-1.55593">
        <ele>17.7</ele>
        <time>2021-09-05T07:13:40Z</time>
      </trkpt>
      <trkpt lat="43.45463" lon="-1.55598">
        <ele>17.6</ele>
        <time>2021-09-05T07:13:41Z</time>
      </trkpt>
      <trkpt lat="43.45461" lon="-1.55602">
        <ele>17.6</ele>
        <time>2021-09-05T07:13:42Z</time>
      </trkpt>
      <trkpt lat="43.45459" lon="-1.55607">
        <ele>17.5</ele>
        <time>2021-09-05T07:13:43Z</time>
      </trkpt>
      <trkpt lat="43.45457" lon="-1.55611">
        <ele>17.5</ele>
        <time>2021-09-05T07:13:44Z</time>
      </trkpt>
      <trkpt lat="43.45455" lon="-1.55616">
        <ele>17.5</ele>
        <time>2021-09-05T07:13:45Z</time>
      </trkpt>
      <trkpt lat="43.45452" lon="-1.5562">
        <ele>17.5</ele>
        <time>2021-09-05T07:13:46Z</time>
      </trkpt>
      <trkpt lat="43.4545" lon="-1.55625">
        <ele>17.5</ele>
        <time>2021-09-05T07:13:47Z</time>
      </trkpt>
      <trkpt lat="43.45449" lon="-1.55629">
        <ele>17.5</ele>
        <time>2021-09-05T07:13:48Z</time>
      </trkpt>
      <trkpt lat="43.45446" lon="-1.55633">
        <ele>17.6</ele>
        <time>2021-09-05T07:13:49Z</time>
      </trkpt>
      <trkpt lat="43.45444" lon="-1.55638">
        <ele>17.6</ele>
        <time>2021-09-05T07:13:50Z</time>
      </trkpt>
      <trkpt lat="43.45441" lon="-1.55642">
        <ele>17.6</ele>
        <time>2021-09-05T07:13:51Z</time>
      </trkpt>
      <trkpt lat="43.45438" lon="-1.55647">
        <ele>17.6</ele>
        <time>2021-09-05T07:13:52Z</time>
      </trkpt>
      <trkpt lat="43.45435" lon="-1.55651">
        <ele>17.6</ele>
        <time>2021-09-05T07:13:53Z</time>
      </trkpt>
      <trkpt lat="43.45433" lon="-1.55656">
        <ele>17.6</ele>
        <time>2021-09-05T07:13:54Z</time>
      </trkpt>
      <trkpt lat="43.4543" lon="-1.55662">
        <ele>17.6</ele>
        <time>2021-09-05T07:13:55Z</time>
      </trkpt>
      <trkpt lat="43.45427" lon="-1.55667">
        <ele>17.6</ele>
        <time>2021-09-05T07:13:56Z</time>
      </trkpt>
      <trkpt lat="43.45425" lon="-1.55673">
        <ele>17.6</ele>
        <time>2021-09-05T07:13:57Z</time>
      </trkpt>
      <trkpt lat="43.45423" lon="-1.55679">
        <ele>17.7</ele>
        <time>2021-09-05T07:13:58Z</time>
      </trkpt>
      <trkpt lat="43.45422" lon="-1.55685">
        <ele>17.8</ele>
        <time>2021-09-05T07:13:59Z</time>
      </trkpt>
      <trkpt lat="43.4542" lon="-1.55691">
        <ele>17.9</ele>
        <time>2021-09-05T07:14:00Z</time>
      </trkpt>
      <trkpt lat="43.45418" lon="-1.55697">
        <ele>18.1</ele>
        <time>2021-09-05T07:14:01Z</time>
      </trkpt>
      <trkpt lat="43.45416" lon="-1.55702">
        <ele>18.2</ele>
        <time>2021-09-05T07:14:02Z</time>
      </trkpt>
      <trkpt lat="43.45414" lon="-1.55708">
        <ele>18.4</ele>
        <time>2021-09-05T07:14:03Z</time>
      </trkpt>
      <trkpt lat="43.45412" lon="-1.55712">
        <ele>18.5</ele>
        <time>2021-09-05T07:14:04Z</time>
      </trkpt>
      <trkpt lat="43.4541" lon="-1.55717">
        <ele>18.7</ele>
        <time>2021-09-05T07:14:05Z</time>
      </trkpt>
      <trkpt lat="43.45408" lon="-1.55721">
        <ele>18.8</ele>
        <time>2021-09-05T07:14:06Z</time>
      </trkpt>
      <trkpt lat="43.45406" lon="-1.55726">
        <ele>18.9</ele>
        <time>2021-09-05T07:14:07Z</time>
      </trkpt>
      <trkpt lat="43.45405" lon="-1.5573">
        <ele>19</ele>
        <time>2021-09-05T07:14:08Z</time>
      </trkpt>
      <trkpt lat="43.45403" lon="-1.55735">
        <ele>19.1</ele>
        <time>2021-09-05T07:14:09Z</time>
      </trkpt>
      <trkpt lat="43.45401" lon="-1.5574">
        <ele>19.2</ele>
        <time>2021-09-05T07:14:10Z</time>
      </trkpt>
      <trkpt lat="43.45399" lon="-1.55745">
        <ele>19.2</ele>
        <time>2021-09-05T07:14:11Z</time>
      </trkpt>
      <trkpt lat="43.45397" lon="-1.5575">
        <ele>19.3</ele>
        <time>2021-09-05T07:14:12Z</time>
      </trkpt>
      <trkpt lat="43.45396" lon="-1.55754">
        <ele>19.3</ele>
        <time>2021-09-05T07:14:13Z</time>
      </trkpt>
      <trkpt lat="43.45395" lon="-1.55759">
        <ele>19.4</ele>
        <time>2021-09-05T07:14:14Z</time>
      </trkpt>
      <trkpt lat="43.45394" lon="-1.55763">
        <ele>19.4</ele>
        <time>2021-09-05T07:14:15Z</time>
      </trkpt>
      <trkpt lat="43.45392" lon="-1.55768">
        <ele>19.4</ele>
        <time>2021-09-05T07:14:16Z</time>
      </trkpt>
      <trkpt lat="43.45391" lon="-1.55772">
        <ele>19.5</ele>
        <time>2021-09-05T07:14:17Z</time>
      </trkpt>
      <trkpt lat="43.45389" lon="-1.55776">
        <ele>19.5</ele>
        <time>2021-09-05T07:14:18Z</time>
      </trkpt>
      <trkpt lat="43.45389" lon="-1.5578">
        <ele>19.6</ele>
        <time>2021-09-05T07:14:19Z</time>
      </trkpt>
      <trkpt lat="43.45388" lon="-1.55784">
        <ele>19.7</ele>
        <time>2021-09-05T07:14:20Z</time>
      </trkpt>
      <trkpt lat="43.45387" lon="-1.55788">
        <ele>19.8</ele>
        <time>2021-09-05T07:14:21Z</time>
      </trkpt>
      <trkpt lat="43.45385" lon="-1.55793">
        <ele>19.9</ele>
        <time>2021-09-05T07:14:22Z</time>
      </trkpt>
      <trkpt lat="43.45384" lon="-1.55797">
        <ele>20</ele>
        <time>2021-09-05T07:14:23Z</time>
      </trkpt>
      <trkpt lat="43.45382" lon="-1.55803">
        <ele>20.2</ele>
        <time>2021-09-05T07:14:24Z</time>
      </trkpt>
      <trkpt lat="43.4538" lon="-1.55808">
        <ele>20.3</ele>
        <time>2021-09-05T07:14:25Z</time>
      </trkpt>
      <trkpt lat="43.45379" lon="-1.55812">
        <ele>20.5</ele>
        <time>2021-09-05T07:14:26Z</time>
      </trkpt>
      <trkpt lat="43.45378" lon="-1.55816">
        <ele>20.6</ele>
        <time>2021-09-05T07:14:27Z</time>
      </trkpt>
      <trkpt lat="43.45377" lon="-1.55821">
        <ele>20.7</ele>
        <time>2021-09-05T07:14:28Z</time>
      </trkpt>
      <trkpt lat="43.45376" lon="-1.55825">
        <ele>20.9</ele>
        <time>2021-09-05T07:14:29Z</time>
      </trkpt>
      <trkpt lat="43.45375" lon="-1.55829">
        <ele>21</ele>
        <time>2021-09-05T07:14:30Z</time>
      </trkpt>
      <trkpt lat="43.45374" lon="-1.55833">
        <ele>21.1</ele>
        <time>2021-09-05T07:14:31Z</time>
      </trkpt>
      <trkpt lat="43.45373" lon="-1.55838">
        <ele>21.3</ele>
        <time>2021-09-05T07:14:32Z</time>
      </trkpt>
      <trkpt lat="43.45371" lon="-1.55842">
        <ele>21.4</ele>
        <time>2021-09-05T07:14:33Z</time>
      </trkpt>
      <trkpt lat="43.4537" lon="-1.55847">
        <ele>21.5</ele>
        <time>2021-09-05T07:14:34Z</time>
      </trkpt>
      <trkpt lat="43.45369" lon="-1.55851">
        <ele>21.6</ele>
        <time>2021-09-05T07:14:35Z</time>
      </trkpt>
      <trkpt lat="43.45367" lon="-1.55856">
        <ele>21.8</ele>
        <time>2021-09-05T07:14:36Z</time>
      </trkpt>
      <trkpt lat="43.45365" lon="-1.5586">
        <ele>21.9</ele>
        <time>2021-09-05T07:14:37Z</time>
      </trkpt>
      <trkpt lat="43.45364" lon="-1.55864">
        <ele>22.1</ele>
        <time>2021-09-05T07:14:38Z</time>
      </trkpt>
      <trkpt lat="43.45362" lon="-1.5587">
        <ele>22.2</ele>
        <time>2021-09-05T07:14:39Z</time>
      </trkpt>
      <trkpt lat="43.45361" lon="-1.55875">
        <ele>22.4</ele>
        <time>2021-09-05T07:14:40Z</time>
      </trkpt>
      <trkpt lat="43.4536" lon="-1.55881">
        <ele>22.5</ele>
        <time>2021-09-05T07:14:41Z</time>
      </trkpt>
      <trkpt lat="43.45359" lon="-1.55886">
        <ele>22.6</ele>
        <time>2021-09-05T07:14:42Z</time>
      </trkpt>
      <trkpt lat="43.45359" lon="-1.55892">
        <ele>22.7</ele>
        <time>2021-09-05T07:14:43Z</time>
      </trkpt>
      <trkpt lat="43.45357" lon="-1.55897">
        <ele>22.8</ele>
        <time>2021-09-05T07:14:44Z</time>
      </trkpt>
      <trkpt lat="43.45356" lon="-1.55902">
        <ele>22.8</ele>
        <time>2021-09-05T07:14:45Z</time>
      </trkpt>
      <trkpt lat="43.45354" lon="-1.55907">
        <ele>22.9</ele>
        <time>2021-09-05T07:14:46Z</time>
      </trkpt>
      <trkpt lat="43.45353" lon="-1.55912">
        <ele>23</ele>
        <time>2021-09-05T07:14:47Z</time>
      </trkpt>
      <trkpt lat="43.45351" lon="-1.55917">
        <ele>23.1</ele>
        <time>2021-09-05T07:14:48Z</time>
      </trkpt>
      <trkpt lat="43.45351" lon="-1.55922">
        <ele>23.2</ele>
        <time>2021-09-05T07:14:49Z</time>
      </trkpt>
      <trkpt lat="43.45351" lon="-1.55927">
        <ele>23.3</ele>
        <time>2021-09-05T07:14:50Z</time>
      </trkpt>
      <trkpt lat="43.4535" lon="-1.55932">
        <ele>23.4</ele>
        <time>2021-09-05T07:14:51Z</time>
      </trkpt>
      <trkpt lat="43.45349" lon="-1.55937">
        <ele>23.5</ele>
        <time>2021-09-05T07:14:52Z</time>
      </trkpt>
      <trkpt lat="43.45349" lon="-1.55942">
        <ele>23.6</ele>
        <time>2021-09-05T07:14:53Z</time>
      </trkpt>
      <trkpt lat="43.45347" lon="-1.55946">
        <ele>23.8</ele>
        <time>2021-09-05T07:14:54Z</time>
      </trkpt>
      <trkpt lat="43.45347" lon="-1.55951">
        <ele>23.9</ele>
        <time>2021-09-05T07:14:55Z</time>
      </trkpt>
      <trkpt lat="43.45346" lon="-1.55954">
        <ele>24</ele>
        <time>2021-09-05T07:14:56Z</time>
      </trkpt>
      <trkpt lat="43.45345" lon="-1.55958">
        <ele>24</ele>
        <time>2021-09-05T07:14:57Z</time>
      </trkpt>
      <trkpt lat="43.45344" lon="-1.55962">
        <ele>24.1</ele>
        <time>2021-09-05T07:14:58Z</time>
      </trkpt>
      <trkpt lat="43.45343" lon="-1.55966">
        <ele>24.2</ele>
        <time>2021-09-05T07:14:59Z</time>
      </trkpt>
      <trkpt lat="43.45342" lon="-1.55971">
        <ele>24.3</ele>
        <time>2021-09-05T07:15:00Z</time>
      </trkpt>
      <trkpt lat="43.45341" lon="-1.55975">
        <ele>24.4</ele>
        <time>2021-09-05T07:15:01Z</time>
      </trkpt>
      <trkpt lat="43.45341" lon="-1.5598">
        <ele>24.5</ele>
        <time>2021-09-05T07:15:02Z</time>
      </trkpt>
      <trkpt lat="43.45339" lon="-1.55984">
        <ele>24.5</ele>
        <time>2021-09-05T07:15:03Z</time>
      </trkpt>
      <trkpt lat="43.45338" lon="-1.55988">
        <ele>24.5</ele>
        <time>2021-09-05T07:15:04Z</time>
      </trkpt>
      <trkpt lat="43.45337" lon="-1.55992">
        <ele>24.5</ele>
        <time>2021-09-05T07:15:05Z</time>
      </trkpt>
      <trkpt lat="43.45336" lon="-1.55997">
        <ele>24.6</ele>
        <time>2021-09-05T07:15:06Z</time>
      </trkpt>
      <trkpt lat="43.45335" lon="-1.56001">
        <ele>24.5</ele>
        <time>2021-09-05T07:15:07Z</time>
      </trkpt>
      <trkpt lat="43.45335" lon="-1.56005">
        <ele>24.5</ele>
        <time>2021-09-05T07:15:08Z</time>
      </trkpt>
      <trkpt lat="43.45333" lon="-1.56009">
        <ele>24.5</ele>
        <time>2021-09-05T07:15:09Z</time>
      </trkpt>
      <trkpt lat="43.45332" lon="-1.56013">
        <ele>24.5</ele>
        <time>2021-09-05T07:15:10Z</time>
      </trkpt>
      <trkpt lat="43.45331" lon="-1.56018">
        <ele>24.5</ele>
        <time>2021-09-05T07:15:11Z</time>
      </trkpt>
      <trkpt lat="43.4533" lon="-1.56023">
        <ele>24.4</ele>
        <time>2021-09-05T07:15:12Z</time>
      </trkpt>
      <trkpt lat="43.45329" lon="-1.56028">
        <ele>24.3</ele>
        <time>2021-09-05T07:15:13Z</time>
      </trkpt>
      <trkpt lat="43.45329" lon="-1.56033">
        <ele>24.3</ele>
        <time>2021-09-05T07:15:14Z</time>
      </trkpt>
      <trkpt lat="43.45328" lon="-1.56038">
        <ele>24.2</ele>
        <time>2021-09-05T07:15:15Z</time>
      </trkpt>
      <trkpt lat="43.45327" lon="-1.56043">
        <ele>24.1</ele>
        <time>2021-09-05T07:15:16Z</time>
      </trkpt>
      <trkpt lat="43.45326" lon="-1.56049">
        <ele>24</ele>
        <time>2021-09-05T07:15:17Z</time>
      </trkpt>
      <trkpt lat="43.45325" lon="-1.56054">
        <ele>23.8</ele>
        <time>2021-09-05T07:15:18Z</time>
      </trkpt>
      <trkpt lat="43.45325" lon="-1.5606">
        <ele>23.7</ele>
        <time>2021-09-05T07:15:19Z</time>
      </trkpt>
      <trkpt lat="43.45325" lon="-1.56065">
        <ele>23.6</ele>
        <time>2021-09-05T07:15:20Z</time>
      </trkpt>
      <trkpt lat="43.45324" lon="-1.56072">
        <ele>23.5</ele>
        <time>2021-09-05T07:15:21Z</time>
      </trkpt>
      <trkpt lat="43.45323" lon="-1.5608">
        <ele>23.4</ele>
        <time>2021-09-05T07:15:22Z</time>
      </trkpt>
      <trkpt lat="43.45321" lon="-1.56086">
        <ele>23.3</ele>
        <time>2021-09-05T07:15:23Z</time>
      </trkpt>
      <trkpt lat="43.45321" lon="-1.56092">
        <ele>23.3</ele>
        <time>2021-09-05T07:15:24Z</time>
      </trkpt>
      <trkpt lat="43.45319" lon="-1.56098">
        <ele>23.3</ele>
        <time>2021-09-05T07:15:25Z</time>
      </trkpt>
      <trkpt lat="43.45318" lon="-1.56104">
        <ele>23.3</ele>
        <time>2021-09-05T07:15:26Z</time>
      </trkpt>
      <trkpt lat="43.45317" lon="-1.56111">
        <ele>23.3</ele>
        <time>2021-09-05T07:15:27Z</time>
      </trkpt>
      <trkpt lat="43.45316" lon="-1.56117">
        <ele>23.4</ele>
        <time>2021-09-05T07:15:28Z</time>
      </trkpt>
      <trkpt lat="43.45315" lon="-1.56123">
        <ele>23.4</ele>
        <time>2021-09-05T07:15:29Z</time>
      </trkpt>
      <trkpt lat="43.45314" lon="-1.56129">
        <ele>23.4</ele>
        <time>2021-09-05T07:15:30Z</time>
      </trkpt>
      <trkpt lat="43.45313" lon="-1.56136">
        <ele>23.5</ele>
        <time>2021-09-05T07:15:31Z</time>
      </trkpt>
      <trkpt lat="43.45312" lon="-1.56142">
        <ele>23.6</ele>
        <time>2021-09-05T07:15:32Z</time>
      </trkpt>
      <trkpt lat="43.45311" lon="-1.56148">
        <ele>23.6</ele>
        <time>2021-09-05T07:15:33Z</time>
      </trkpt>
      <trkpt lat="43.4531" lon="-1.56153">
        <ele>23.6</ele>
        <time>2021-09-05T07:15:34Z</time>
      </trkpt>
      <trkpt lat="43.4531" lon="-1.56158">
        <ele>23.7</ele>
        <time>2021-09-05T07:15:35Z</time>
      </trkpt>
      <trkpt lat="43.45309" lon="-1.56163">
        <ele>23.7</ele>
        <time>2021-09-05T07:15:36Z</time>
      </trkpt>
      <trkpt lat="43.45309" lon="-1.56169">
        <ele>23.7</ele>
        <time>2021-09-05T07:15:37Z</time>
      </trkpt>
      <trkpt lat="43.45309" lon="-1.56174">
        <ele>23.7</ele>
        <time>2021-09-05T07:15:38Z</time>
      </trkpt>
      <trkpt lat="43.45309" lon="-1.56179">
        <ele>23.7</ele>
        <time>2021-09-05T07:15:39Z</time>
      </trkpt>
      <trkpt lat="43.45309" lon="-1.56185">
        <ele>23.7</ele>
        <time>2021-09-05T07:15:40Z</time>
      </trkpt>
      <trkpt lat="43.45308" lon="-1.5619">
        <ele>23.7</ele>
        <time>2021-09-05T07:15:41Z</time>
      </trkpt>
      <trkpt lat="43.45308" lon="-1.56195">
        <ele>23.7</ele>
        <time>2021-09-05T07:15:42Z</time>
      </trkpt>
      <trkpt lat="43.45308" lon="-1.562">
        <ele>23.7</ele>
        <time>2021-09-05T07:15:43Z</time>
      </trkpt>
      <trkpt lat="43.45308" lon="-1.56205">
        <ele>23.7</ele>
        <time>2021-09-05T07:15:44Z</time>
      </trkpt>
      <trkpt lat="43.45307" lon="-1.56211">
        <ele>23.7</ele>
        <time>2021-09-05T07:15:45Z</time>
      </trkpt>
      <trkpt lat="43.45307" lon="-1.56216">
        <ele>23.6</ele>
        <time>2021-09-05T07:15:46Z</time>
      </trkpt>
      <trkpt lat="43.45307" lon="-1.56222">
        <ele>23.6</ele>
        <time>2021-09-05T07:15:47Z</time>
      </trkpt>
      <trkpt lat="43.45308" lon="-1.56227">
        <ele>23.6</ele>
        <time>2021-09-05T07:15:48Z</time>
      </trkpt>
      <trkpt lat="43.45308" lon="-1.56232">
        <ele>23.5</ele>
        <time>2021-09-05T07:15:49Z</time>
      </trkpt>
      <trkpt lat="43.45308" lon="-1.56237">
        <ele>23.5</ele>
        <time>2021-09-05T07:15:50Z</time>
      </trkpt>
      <trkpt lat="43.45309" lon="-1.56242">
        <ele>23.5</ele>
        <time>2021-09-05T07:15:51Z</time>
      </trkpt>
      <trkpt lat="43.45309" lon="-1.56247">
        <ele>23.4</ele>
        <time>2021-09-05T07:15:52Z</time>
      </trkpt>
      <trkpt lat="43.45309" lon="-1.56252">
        <ele>23.4</ele>
        <time>2021-09-05T07:15:53Z</time>
      </trkpt>
      <trkpt lat="43.4531" lon="-1.56258">
        <ele>23.3</ele>
        <time>2021-09-05T07:15:54Z</time>
      </trkpt>
      <trkpt lat="43.4531" lon="-1.56262">
        <ele>23.3</ele>
        <time>2021-09-05T07:15:55Z</time>
      </trkpt>
      <trkpt lat="43.45311" lon="-1.56267">
        <ele>23.2</ele>
        <time>2021-09-05T07:15:56Z</time>
      </trkpt>
      <trkpt lat="43.45311" lon="-1.56271">
        <ele>23.2</ele>
        <time>2021-09-05T07:15:57Z</time>
      </trkpt>
      <trkpt lat="43.45312" lon="-1.56274">
        <ele>23.1</ele>
        <time>2021-09-05T07:15:58Z</time>
      </trkpt>
      <trkpt lat="43.45312" lon="-1.56278">
        <ele>23.1</ele>
        <time>2021-09-05T07:15:59Z</time>
      </trkpt>
      <trkpt lat="43.45313" lon="-1.56282">
        <ele>23</ele>
        <time>2021-09-05T07:16:00Z</time>
      </trkpt>
      <trkpt lat="43.45313" lon="-1.56287">
        <ele>22.9</ele>
        <time>2021-09-05T07:16:01Z</time>
      </trkpt>
      <trkpt lat="43.45313" lon="-1.56291">
        <ele>22.9</ele>
        <time>2021-09-05T07:16:02Z</time>
      </trkpt>
      <trkpt lat="43.45313" lon="-1.56295">
        <ele>22.8</ele>
        <time>2021-09-05T07:16:03Z</time>
      </trkpt>
      <trkpt lat="43.45313" lon="-1.563">
        <ele>22.8</ele>
        <time>2021-09-05T07:16:04Z</time>
      </trkpt>
      <trkpt lat="43.45313" lon="-1.56305">
        <ele>22.8</ele>
        <time>2021-09-05T07:16:05Z</time>
      </trkpt>
      <trkpt lat="43.45313" lon="-1.56309">
        <ele>22.8</ele>
        <time>2021-09-05T07:16:06Z</time>
      </trkpt>
      <trkpt lat="43.45314" lon="-1.56316">
        <ele>22.8</ele>
        <time>2021-09-05T07:16:07Z</time>
      </trkpt>
      <trkpt lat="43.45315" lon="-1.56321">
        <ele>22.7</ele>
        <time>2021-09-05T07:16:08Z</time>
      </trkpt>
      <trkpt lat="43.45318" lon="-1.56325">
        <ele>22.7</ele>
        <time>2021-09-05T07:16:09Z</time>
      </trkpt>
      <trkpt lat="43.45321" lon="-1.56328">
        <ele>22.7</ele>
        <time>2021-09-05T07:16:10Z</time>
      </trkpt>
      <trkpt lat="43.45325" lon="-1.56331">
        <ele>22.7</ele>
        <time>2021-09-05T07:16:11Z</time>
      </trkpt>
      <trkpt lat="43.45328" lon="-1.56335">
        <ele>22.7</ele>
        <time>2021-09-05T07:16:12Z</time>
      </trkpt>
      <trkpt lat="43.45331" lon="-1.56338">
        <ele>22.6</ele>
        <time>2021-09-05T07:16:13Z</time>
      </trkpt>
      <trkpt lat="43.45335" lon="-1.56342">
        <ele>22.6</ele>
        <time>2021-09-05T07:16:14Z</time>
      </trkpt>
      <trkpt lat="43.45338" lon="-1.56346">
        <ele>22.5</ele>
        <time>2021-09-05T07:16:15Z</time>
      </trkpt>
      <trkpt lat="43.45341" lon="-1.56349">
        <ele>22.5</ele>
        <time>2021-09-05T07:16:16Z</time>
      </trkpt>
      <trkpt lat="43.45343" lon="-1.56353">
        <ele>22.4</ele>
        <time>2021-09-05T07:16:17Z</time>
      </trkpt>
      <trkpt lat="43.45346" lon="-1.56356">
        <ele>22.3</ele>
        <time>2021-09-05T07:16:18Z</time>
      </trkpt>
      <trkpt lat="43.45349" lon="-1.5636">
        <ele>22.2</ele>
        <time>2021-09-05T07:16:19Z</time>
      </trkpt>
      <trkpt lat="43.45352" lon="-1.56365">
        <ele>22.1</ele>
        <time>2021-09-05T07:16:20Z</time>
      </trkpt>
      <trkpt lat="43.45354" lon="-1.56369">
        <ele>22.1</ele>
        <time>2021-09-05T07:16:21Z</time>
      </trkpt>
      <trkpt lat="43.45357" lon="-1.56372">
        <ele>22</ele>
        <time>2021-09-05T07:16:22Z</time>
      </trkpt>
      <trkpt lat="43.4536" lon="-1.56375">
        <ele>21.9</ele>
        <time>2021-09-05T07:16:23Z</time>
      </trkpt>
      <trkpt lat="43.45363" lon="-1.56379">
        <ele>21.9</ele>
        <time>2021-09-05T07:16:24Z</time>
      </trkpt>
      <trkpt lat="43.45365" lon="-1.56383">
        <ele>21.8</ele>
        <time>2021-09-05T07:16:25Z</time>
      </trkpt>
      <trkpt lat="43.45369" lon="-1.56387">
        <ele>21.8</ele>
        <time>2021-09-05T07:16:26Z</time>
      </trkpt>
      <trkpt lat="43.45371" lon="-1.56391">
        <ele>21.8</ele>
        <time>2021-09-05T07:16:27Z</time>
      </trkpt>
      <trkpt lat="43.45373" lon="-1.56397">
        <ele>21.8</ele>
        <time>2021-09-05T07:16:28Z</time>
      </trkpt>
      <trkpt lat="43.45375" lon="-1.56402">
        <ele>21.8</ele>
        <time>2021-09-05T07:16:29Z</time>
      </trkpt>
      <trkpt lat="43.45377" lon="-1.56407">
        <ele>21.8</ele>
        <time>2021-09-05T07:16:30Z</time>
      </trkpt>
      <trkpt lat="43.45379" lon="-1.56412">
        <ele>21.9</ele>
        <time>2021-09-05T07:16:31Z</time>
      </trkpt>
      <trkpt lat="43.45381" lon="-1.56416">
        <ele>21.9</ele>
        <time>2021-09-05T07:16:32Z</time>
      </trkpt>
      <trkpt lat="43.45382" lon="-1.56421">
        <ele>22</ele>
        <time>2021-09-05T07:16:33Z</time>
      </trkpt>
      <trkpt lat="43.45384" lon="-1.56425">
        <ele>22</ele>
        <time>2021-09-05T07:16:34Z</time>
      </trkpt>
      <trkpt lat="43.45386" lon="-1.56429">
        <ele>22.1</ele>
        <time>2021-09-05T07:16:35Z</time>
      </trkpt>
      <trkpt lat="43.45388" lon="-1.56433">
        <ele>22.2</ele>
        <time>2021-09-05T07:16:36Z</time>
      </trkpt>
      <trkpt lat="43.45389" lon="-1.56436">
        <ele>22.2</ele>
        <time>2021-09-05T07:16:37Z</time>
      </trkpt>
      <trkpt lat="43.45391" lon="-1.5644">
        <ele>22.3</ele>
        <time>2021-09-05T07:16:38Z</time>
      </trkpt>
      <trkpt lat="43.45393" lon="-1.56444">
        <ele>22.4</ele>
        <time>2021-09-05T07:16:39Z</time>
      </trkpt>
      <trkpt lat="43.45394" lon="-1.56449">
        <ele>22.5</ele>
        <time>2021-09-05T07:16:40Z</time>
      </trkpt>
      <trkpt lat="43.45396" lon="-1.56453">
        <ele>22.6</ele>
        <time>2021-09-05T07:16:41Z</time>
      </trkpt>
      <trkpt lat="43.45397" lon="-1.56458">
        <ele>22.8</ele>
        <time>2021-09-05T07:16:42Z</time>
      </trkpt>
      <trkpt lat="43.45398" lon="-1.56461">
        <ele>22.8</ele>
        <time>2021-09-05T07:16:43Z</time>
      </trkpt>
      <trkpt lat="43.45399" lon="-1.56467">
        <ele>23</ele>
        <time>2021-09-05T07:16:44Z</time>
      </trkpt>
      <trkpt lat="43.45401" lon="-1.56473">
        <ele>23.1</ele>
        <time>2021-09-05T07:16:45Z</time>
      </trkpt>
      <trkpt lat="43.45402" lon="-1.56477">
        <ele>23.2</ele>
        <time>2021-09-05T07:16:46Z</time>
      </trkpt>
      <trkpt lat="43.45403" lon="-1.56481">
        <ele>23.3</ele>
        <time>2021-09-05T07:16:47Z</time>
      </trkpt>
      <trkpt lat="43.45405" lon="-1.56487">
        <ele>23.5</ele>
        <time>2021-09-05T07:16:48Z</time>
      </trkpt>
      <trkpt lat="43.45406" lon="-1.56491">
        <ele>23.6</ele>
        <time>2021-09-05T07:16:49Z</time>
      </trkpt>
      <trkpt lat="43.45407" lon="-1.56495">
        <ele>23.7</ele>
        <time>2021-09-05T07:16:50Z</time>
      </trkpt>
      <trkpt lat="43.45409" lon="-1.565">
        <ele>23.8</ele>
        <time>2021-09-05T07:16:51Z</time>
      </trkpt>
      <trkpt lat="43.45411" lon="-1.56505">
        <ele>23.9</ele>
        <time>2021-09-05T07:16:52Z</time>
      </trkpt>
      <trkpt lat="43.45412" lon="-1.5651">
        <ele>24</ele>
        <time>2021-09-05T07:16:53Z</time>
      </trkpt>
      <trkpt lat="43.45413" lon="-1.56514">
        <ele>24.1</ele>
        <time>2021-09-05T07:16:54Z</time>
      </trkpt>
      <trkpt lat="43.45415" lon="-1.56518">
        <ele>24.2</ele>
        <time>2021-09-05T07:16:55Z</time>
      </trkpt>
      <trkpt lat="43.45416" lon="-1.56522">
        <ele>24.2</ele>
        <time>2021-09-05T07:16:56Z</time>
      </trkpt>
      <trkpt lat="43.45417" lon="-1.56525">
        <ele>24.3</ele>
        <time>2021-09-05T07:16:57Z</time>
      </trkpt>
      <trkpt lat="43.45419" lon="-1.5653">
        <ele>24.3</ele>
        <time>2021-09-05T07:16:58Z</time>
      </trkpt>
      <trkpt lat="43.45421" lon="-1.56535">
        <ele>24.3</ele>
        <time>2021-09-05T07:16:59Z</time>
      </trkpt>
      <trkpt lat="43.45423" lon="-1.5654">
        <ele>24.3</ele>
        <time>2021-09-05T07:17:00Z</time>
      </trkpt>
      <trkpt lat="43.45425" lon="-1.56545">
        <ele>24.2</ele>
        <time>2021-09-05T07:17:01Z</time>
      </trkpt>
      <trkpt lat="43.45428" lon="-1.56549">
        <ele>24</ele>
        <time>2021-09-05T07:17:02Z</time>
      </trkpt>
      <trkpt lat="43.4543" lon="-1.56554">
        <ele>23.9</ele>
        <time>2021-09-05T07:17:03Z</time>
      </trkpt>
      <trkpt lat="43.45433" lon="-1.56558">
        <ele>23.7</ele>
        <time>2021-09-05T07:17:04Z</time>
      </trkpt>
      <trkpt lat="43.45435" lon="-1.56563">
        <ele>23.5</ele>
        <time>2021-09-05T07:17:05Z</time>
      </trkpt>
      <trkpt lat="43.45438" lon="-1.56568">
        <ele>23.3</ele>
        <time>2021-09-05T07:17:06Z</time>
      </trkpt>
      <trkpt lat="43.45441" lon="-1.56572">
        <ele>23.2</ele>
        <time>2021-09-05T07:17:07Z</time>
      </trkpt>
      <trkpt lat="43.45445" lon="-1.56577">
        <ele>23</ele>
        <time>2021-09-05T07:17:08Z</time>
      </trkpt>
      <trkpt lat="43.45448" lon="-1.56582">
        <ele>22.8</ele>
        <time>2021-09-05T07:17:09Z</time>
      </trkpt>
      <trkpt lat="43.4545" lon="-1.56585">
        <ele>22.6</ele>
        <time>2021-09-05T07:17:10Z</time>
      </trkpt>
      <trkpt lat="43.45453" lon="-1.56587">
        <ele>22.5</ele>
        <time>2021-09-05T07:17:11Z</time>
      </trkpt>
      <trkpt lat="43.45456" lon="-1.5659">
        <ele>22.4</ele>
        <time>2021-09-05T07:17:12Z</time>
      </trkpt>
      <trkpt lat="43.45458" lon="-1.56593">
        <ele>22.2</ele>
        <time>2021-09-05T07:17:13Z</time>
      </trkpt>
      <trkpt lat="43.45461" lon="-1.56596">
        <ele>22.1</ele>
        <time>2021-09-05T07:17:14Z</time>
      </trkpt>
      <trkpt lat="43.45464" lon="-1.566">
        <ele>21.9</ele>
        <time>2021-09-05T07:17:15Z</time>
      </trkpt>
      <trkpt lat="43.45467" lon="-1.56605">
        <ele>21.7</ele>
        <time>2021-09-05T07:17:16Z</time>
      </trkpt>
      <trkpt lat="43.4547" lon="-1.56609">
        <ele>21.6</ele>
        <time>2021-09-05T07:17:17Z</time>
      </trkpt>
      <trkpt lat="43.45474" lon="-1.56613">
        <ele>21.4</ele>
        <time>2021-09-05T07:17:18Z</time>
      </trkpt>
      <trkpt lat="43.45477" lon="-1.56618">
        <ele>21.1</ele>
        <time>2021-09-05T07:17:19Z</time>
      </trkpt>
      <trkpt lat="43.45482" lon="-1.56622">
        <ele>20.9</ele>
        <time>2021-09-05T07:17:20Z</time>
      </trkpt>
      <trkpt lat="43.45485" lon="-1.56624">
        <ele>20.6</ele>
        <time>2021-09-05T07:17:21Z</time>
      </trkpt>
      <trkpt lat="43.45489" lon="-1.56625">
        <ele>20.5</ele>
        <time>2021-09-05T07:17:22Z</time>
      </trkpt>
      <trkpt lat="43.45492" lon="-1.56624">
        <ele>20.2</ele>
        <time>2021-09-05T07:17:23Z</time>
      </trkpt>
      <trkpt lat="43.45496" lon="-1.56623">
        <ele>20</ele>
        <time>2021-09-05T07:17:24Z</time>
      </trkpt>
      <trkpt lat="43.45499" lon="-1.56622">
        <ele>19.8</ele>
        <time>2021-09-05T07:17:25Z</time>
      </trkpt>
      <trkpt lat="43.45501" lon="-1.56619">
        <ele>19.5</ele>
        <time>2021-09-05T07:17:26Z</time>
      </trkpt>
      <trkpt lat="43.45504" lon="-1.56618">
        <ele>19.3</ele>
        <time>2021-09-05T07:17:27Z</time>
      </trkpt>
      <trkpt lat="43.45506" lon="-1.56615">
        <ele>19.1</ele>
        <time>2021-09-05T07:17:28Z</time>
      </trkpt>
      <trkpt lat="43.45509" lon="-1.56613">
        <ele>18.9</ele>
        <time>2021-09-05T07:17:29Z</time>
      </trkpt>
      <trkpt lat="43.45511" lon="-1.5661">
        <ele>18.7</ele>
        <time>2021-09-05T07:17:30Z</time>
      </trkpt>
      <trkpt lat="43.45514" lon="-1.56607">
        <ele>18.5</ele>
        <time>2021-09-05T07:17:31Z</time>
      </trkpt>
      <trkpt lat="43.45516" lon="-1.56604">
        <ele>18.3</ele>
        <time>2021-09-05T07:17:32Z</time>
      </trkpt>
      <trkpt lat="43.45519" lon="-1.56601">
        <ele>18.1</ele>
        <time>2021-09-05T07:17:33Z</time>
      </trkpt>
      <trkpt lat="43.45521" lon="-1.56599">
        <ele>17.9</ele>
        <time>2021-09-05T07:17:34Z</time>
      </trkpt>
      <trkpt lat="43.45523" lon="-1.56596">
        <ele>17.8</ele>
        <time>2021-09-05T07:17:35Z</time>
      </trkpt>
      <trkpt lat="43.45525" lon="-1.56593">
        <ele>17.6</ele>
        <time>2021-09-05T07:17:36Z</time>
      </trkpt>
      <trkpt lat="43.45526" lon="-1.5659">
        <ele>17.5</ele>
        <time>2021-09-05T07:17:37Z</time>
      </trkpt>
      <trkpt lat="43.45528" lon="-1.56585">
        <ele>17.4</ele>
        <time>2021-09-05T07:17:38Z</time>
      </trkpt>
      <trkpt lat="43.45532" lon="-1.56579">
        <ele>17.2</ele>
        <time>2021-09-05T07:17:39Z</time>
      </trkpt>
      <trkpt lat="43.45535" lon="-1.56572">
        <ele>17.1</ele>
        <time>2021-09-05T07:17:40Z</time>
      </trkpt>
      <trkpt lat="43.45537" lon="-1.56566">
        <ele>17</ele>
        <time>2021-09-05T07:17:41Z</time>
      </trkpt>
      <trkpt lat="43.45538" lon="-1.56562">
        <ele>17</ele>
        <time>2021-09-05T07:17:42Z</time>
      </trkpt>
      <trkpt lat="43.45539" lon="-1.56557">
        <ele>16.9</ele>
        <time>2021-09-05T07:17:43Z</time>
      </trkpt>
      <trkpt lat="43.45539" lon="-1.56553">
        <ele>16.9</ele>
        <time>2021-09-05T07:17:44Z</time>
      </trkpt>
      <trkpt lat="43.45539" lon="-1.56549">
        <ele>16.9</ele>
        <time>2021-09-05T07:17:45Z</time>
      </trkpt>
      <trkpt lat="43.4554" lon="-1.56545">
        <ele>17</ele>
        <time>2021-09-05T07:17:46Z</time>
      </trkpt>
      <trkpt lat="43.45541" lon="-1.5654">
        <ele>17</ele>
        <time>2021-09-05T07:17:47Z</time>
      </trkpt>
      <trkpt lat="43.45542" lon="-1.56535">
        <ele>17.1</ele>
        <time>2021-09-05T07:17:48Z</time>
      </trkpt>
      <trkpt lat="43.45544" lon="-1.56529">
        <ele>17.2</ele>
        <time>2021-09-05T07:17:49Z</time>
      </trkpt>
      <trkpt lat="43.45546" lon="-1.56525">
        <ele>17.4</ele>
        <time>2021-09-05T07:17:50Z</time>
      </trkpt>
      <trkpt lat="43.45547" lon="-1.5652">
        <ele>17.6</ele>
        <time>2021-09-05T07:17:51Z</time>
      </trkpt>
      <trkpt lat="43.45549" lon="-1.56517">
        <ele>17.9</ele>
        <time>2021-09-05T07:17:52Z</time>
      </trkpt>
      <trkpt lat="43.45551" lon="-1.56515">
        <ele>18.1</ele>
        <time>2021-09-05T07:17:53Z</time>
      </trkpt>
      <trkpt lat="43.45554" lon="-1.56515">
        <ele>18.4</ele>
        <time>2021-09-05T07:17:54Z</time>
      </trkpt>
      <trkpt lat="43.45557" lon="-1.56514">
        <ele>18.7</ele>
        <time>2021-09-05T07:17:55Z</time>
      </trkpt>
      <trkpt lat="43.4556" lon="-1.56514">
        <ele>19</ele>
        <time>2021-09-05T07:17:56Z</time>
      </trkpt>
      <trkpt lat="43.45564" lon="-1.56514">
        <ele>19.4</ele>
        <time>2021-09-05T07:17:57Z</time>
      </trkpt>
      <trkpt lat="43.45567" lon="-1.56514">
        <ele>19.8</ele>
        <time>2021-09-05T07:17:58Z</time>
      </trkpt>
      <trkpt lat="43.4557" lon="-1.56515">
        <ele>20.2</ele>
        <time>2021-09-05T07:17:59Z</time>
      </trkpt>
      <trkpt lat="43.45573" lon="-1.56515">
        <ele>20.6</ele>
        <time>2021-09-05T07:18:00Z</time>
      </trkpt>
      <trkpt lat="43.45577" lon="-1.56516">
        <ele>21.1</ele>
        <time>2021-09-05T07:18:01Z</time>
      </trkpt>
      <trkpt lat="43.45581" lon="-1.56517">
        <ele>21.6</ele>
        <time>2021-09-05T07:18:02Z</time>
      </trkpt>
      <trkpt lat="43.45586" lon="-1.5652">
        <ele>22.2</ele>
        <time>2021-09-05T07:18:03Z</time>
      </trkpt>
      <trkpt lat="43.4559" lon="-1.56522">
        <ele>22.7</ele>
        <time>2021-09-05T07:18:04Z</time>
      </trkpt>
      <trkpt lat="43.45594" lon="-1.56525">
        <ele>23.1</ele>
        <time>2021-09-05T07:18:05Z</time>
      </trkpt>
      <trkpt lat="43.45599" lon="-1.56527">
        <ele>23.6</ele>
        <time>2021-09-05T07:18:06Z</time>
      </trkpt>
      <trkpt lat="43.45604" lon="-1.5653">
        <ele>24.1</ele>
        <time>2021-09-05T07:18:07Z</time>
      </trkpt>
      <trkpt lat="43.45609" lon="-1.56533">
        <ele>24.5</ele>
        <time>2021-09-05T07:18:08Z</time>
      </trkpt>
      <trkpt lat="43.45614" lon="-1.56536">
        <ele>24.9</ele>
        <time>2021-09-05T07:18:09Z</time>
      </trkpt>
      <trkpt lat="43.45618" lon="-1.56536">
        <ele>25.2</ele>
        <time>2021-09-05T07:18:10Z</time>
      </trkpt>
      <trkpt lat="43.45623" lon="-1.56538">
        <ele>25.5</ele>
        <time>2021-09-05T07:18:11Z</time>
      </trkpt>
      <trkpt lat="43.45628" lon="-1.56539">
        <ele>25.7</ele>
        <time>2021-09-05T07:18:12Z</time>
      </trkpt>
      <trkpt lat="43.45629" lon="-1.5654">
        <ele>25.8</ele>
        <time>2021-09-05T07:18:13Z</time>
      </trkpt>
      <trkpt lat="43.45631" lon="-1.56543">
        <ele>25.9</ele>
        <time>2021-09-05T07:18:14Z</time>
      </trkpt>
      <trkpt lat="43.45632" lon="-1.56544">
        <ele>26</ele>
        <time>2021-09-05T07:18:15Z</time>
      </trkpt>
      <trkpt lat="43.45632" lon="-1.56544">
        <ele>26</ele>
        <time>2021-09-05T07:18:16Z</time>
      </trkpt>
      <trkpt lat="43.45635" lon="-1.56545">
        <ele>26</ele>
        <time>2021-09-05T07:18:17Z</time>
      </trkpt>
      <trkpt lat="43.45637" lon="-1.56546">
        <ele>25.9</ele>
        <time>2021-09-05T07:18:18Z</time>
      </trkpt>
      <trkpt lat="43.4564" lon="-1.56547">
        <ele>25.9</ele>
        <time>2021-09-05T07:18:19Z</time>
      </trkpt>
      <trkpt lat="43.45644" lon="-1.5655">
        <ele>25.9</ele>
        <time>2021-09-05T07:18:20Z</time>
      </trkpt>
      <trkpt lat="43.45648" lon="-1.56553">
        <ele>25.8</ele>
        <time>2021-09-05T07:18:21Z</time>
      </trkpt>
      <trkpt lat="43.45651" lon="-1.56554">
        <ele>25.8</ele>
        <time>2021-09-05T07:18:22Z</time>
      </trkpt>
      <trkpt lat="43.45655" lon="-1.56554">
        <ele>25.7</ele>
        <time>2021-09-05T07:18:23Z</time>
      </trkpt>
      <trkpt lat="43.4566" lon="-1.56553">
        <ele>25.7</ele>
        <time>2021-09-05T07:18:24Z</time>
      </trkpt>
      <trkpt lat="43.45663" lon="-1.56553">
        <ele>25.7</ele>
        <time>2021-09-05T07:18:25Z</time>
      </trkpt>
      <trkpt lat="43.45668" lon="-1.56554">
        <ele>25.6</ele>
        <time>2021-09-05T07:18:26Z</time>
      </trkpt>
      <trkpt lat="43.45672" lon="-1.56554">
        <ele>25.6</ele>
        <time>2021-09-05T07:18:27Z</time>
      </trkpt>
      <trkpt lat="43.45676" lon="-1.56554">
        <ele>25.5</ele>
        <time>2021-09-05T07:18:28Z</time>
      </trkpt>
      <trkpt lat="43.4568" lon="-1.56554">
        <ele>25.5</ele>
        <time>2021-09-05T07:18:29Z</time>
      </trkpt>
      <trkpt lat="43.45684" lon="-1.56554">
        <ele>25.5</ele>
        <time>2021-09-05T07:18:30Z</time>
      </trkpt>
      <trkpt lat="43.45687" lon="-1.56554">
        <ele>25.5</ele>
        <time>2021-09-05T07:18:31Z</time>
      </trkpt>
      <trkpt lat="43.4569" lon="-1.56554">
        <ele>25.5</ele>
        <time>2021-09-05T07:18:32Z</time>
      </trkpt>
      <trkpt lat="43.45693" lon="-1.56554">
        <ele>25.5</ele>
        <time>2021-09-05T07:18:33Z</time>
      </trkpt>
      <trkpt lat="43.45698" lon="-1.56554">
        <ele>25.5</ele>
        <time>2021-09-05T07:18:34Z</time>
      </trkpt>
      <trkpt lat="43.45701" lon="-1.56553">
        <ele>25.4</ele>
        <time>2021-09-05T07:18:35Z</time>
      </trkpt>
      <trkpt lat="43.45705" lon="-1.56552">
        <ele>25.4</ele>
        <time>2021-09-05T07:18:36Z</time>
      </trkpt>
      <trkpt lat="43.45707" lon="-1.56552">
        <ele>25.4</ele>
        <time>2021-09-05T07:18:37Z</time>
      </trkpt>
      <trkpt lat="43.4571" lon="-1.56551">
        <ele>25.4</ele>
        <time>2021-09-05T07:18:38Z</time>
      </trkpt>
      <trkpt lat="43.45714" lon="-1.56551">
        <ele>25.3</ele>
        <time>2021-09-05T07:18:39Z</time>
      </trkpt>
      <trkpt lat="43.45717" lon="-1.56551">
        <ele>25.3</ele>
        <time>2021-09-05T07:18:40Z</time>
      </trkpt>
      <trkpt lat="43.45721" lon="-1.5655">
        <ele>25.3</ele>
        <time>2021-09-05T07:18:41Z</time>
      </trkpt>
      <trkpt lat="43.45726" lon="-1.56549">
        <ele>25.2</ele>
        <time>2021-09-05T07:18:42Z</time>
      </trkpt>
      <trkpt lat="43.4573" lon="-1.56549">
        <ele>25.2</ele>
        <time>2021-09-05T07:18:43Z</time>
      </trkpt>
      <trkpt lat="43.45734" lon="-1.56549">
        <ele>25.2</ele>
        <time>2021-09-05T07:18:44Z</time>
      </trkpt>
      <trkpt lat="43.45738" lon="-1.56549">
        <ele>25.2</ele>
        <time>2021-09-05T07:18:45Z</time>
      </trkpt>
      <trkpt lat="43.45742" lon="-1.56549">
        <ele>25.3</ele>
        <time>2021-09-05T07:18:46Z</time>
      </trkpt>
      <trkpt lat="43.45746" lon="-1.56549">
        <ele>25.3</ele>
        <time>2021-09-05T07:18:47Z</time>
      </trkpt>
      <trkpt lat="43.45749" lon="-1.5655">
        <ele>25.4</ele>
        <time>2021-09-05T07:18:48Z</time>
      </trkpt>
      <trkpt lat="43.45753" lon="-1.56551">
        <ele>25.4</ele>
        <time>2021-09-05T07:18:49Z</time>
      </trkpt>
      <trkpt lat="43.45756" lon="-1.56551">
        <ele>25.5</ele>
        <time>2021-09-05T07:18:50Z</time>
      </trkpt>
      <trkpt lat="43.4576" lon="-1.56552">
        <ele>25.6</ele>
        <time>2021-09-05T07:18:51Z</time>
      </trkpt>
      <trkpt lat="43.45764" lon="-1.56553">
        <ele>25.7</ele>
        <time>2021-09-05T07:18:52Z</time>
      </trkpt>
      <trkpt lat="43.45767" lon="-1.56555">
        <ele>25.7</ele>
        <time>2021-09-05T07:18:53Z</time>
      </trkpt>
      <trkpt lat="43.4577" lon="-1.56557">
        <ele>25.8</ele>
        <time>2021-09-05T07:18:54Z</time>
      </trkpt>
      <trkpt lat="43.45772" lon="-1.56558">
        <ele>25.8</ele>
        <time>2021-09-05T07:18:55Z</time>
      </trkpt>
      <trkpt lat="43.45776" lon="-1.5656">
        <ele>25.8</ele>
        <time>2021-09-05T07:18:56Z</time>
      </trkpt>
      <trkpt lat="43.45779" lon="-1.56562">
        <ele>25.8</ele>
        <time>2021-09-05T07:18:57Z</time>
      </trkpt>
      <trkpt lat="43.45782" lon="-1.56564">
        <ele>25.7</ele>
        <time>2021-09-05T07:18:58Z</time>
      </trkpt>
      <trkpt lat="43.45786" lon="-1.56567">
        <ele>25.7</ele>
        <time>2021-09-05T07:18:59Z</time>
      </trkpt>
      <trkpt lat="43.45789" lon="-1.5657">
        <ele>25.6</ele>
        <time>2021-09-05T07:19:00Z</time>
      </trkpt>
      <trkpt lat="43.45792" lon="-1.56573">
        <ele>25.5</ele>
        <time>2021-09-05T07:19:01Z</time>
      </trkpt>
      <trkpt lat="43.45796" lon="-1.56578">
        <ele>25.5</ele>
        <time>2021-09-05T07:19:02Z</time>
      </trkpt>
      <trkpt lat="43.45799" lon="-1.56581">
        <ele>25.4</ele>
        <time>2021-09-05T07:19:03Z</time>
      </trkpt>
      <trkpt lat="43.45803" lon="-1.56584">
        <ele>25.4</ele>
        <time>2021-09-05T07:19:04Z</time>
      </trkpt>
      <trkpt lat="43.45806" lon="-1.56587">
        <ele>25.4</ele>
        <time>2021-09-05T07:19:05Z</time>
      </trkpt>
      <trkpt lat="43.4581" lon="-1.5659">
        <ele>25.3</ele>
        <time>2021-09-05T07:19:06Z</time>
      </trkpt>
      <trkpt lat="43.45814" lon="-1.56594">
        <ele>25.2</ele>
        <time>2021-09-05T07:19:07Z</time>
      </trkpt>
      <trkpt lat="43.45818" lon="-1.56596">
        <ele>25</ele>
        <time>2021-09-05T07:19:08Z</time>
      </trkpt>
      <trkpt lat="43.45821" lon="-1.56599">
        <ele>24.9</ele>
        <time>2021-09-05T07:19:09Z</time>
      </trkpt>
      <trkpt lat="43.45824" lon="-1.56602">
        <ele>24.8</ele>
        <time>2021-09-05T07:19:10Z</time>
      </trkpt>
      <trkpt lat="43.45827" lon="-1.56605">
        <ele>24.7</ele>
        <time>2021-09-05T07:19:11Z</time>
      </trkpt>
      <trkpt lat="43.4583" lon="-1.56608">
        <ele>24.6</ele>
        <time>2021-09-05T07:19:12Z</time>
      </trkpt>
      <trkpt lat="43.45833" lon="-1.56611">
        <ele>24.4</ele>
        <time>2021-09-05T07:19:13Z</time>
      </trkpt>
      <trkpt lat="43.45836" lon="-1.56614">
        <ele>24.3</ele>
        <time>2021-09-05T07:19:14Z</time>
      </trkpt>
      <trkpt lat="43.45839" lon="-1.56617">
        <ele>24.1</ele>
        <time>2021-09-05T07:19:15Z</time>
      </trkpt>
      <trkpt lat="43.45842" lon="-1.5662">
        <ele>24</ele>
        <time>2021-09-05T07:19:16Z</time>
      </trkpt>
      <trkpt lat="43.45845" lon="-1.56624">
        <ele>23.8</ele>
        <time>2021-09-05T07:19:17Z</time>
      </trkpt>
      <trkpt lat="43.45849" lon="-1.56628">
        <ele>23.6</ele>
        <time>2021-09-05T07:19:18Z</time>
      </trkpt>
      <trkpt lat="43.45852" lon="-1.56631">
        <ele>23.5</ele>
        <time>2021-09-05T07:19:19Z</time>
      </trkpt>
      <trkpt lat="43.45855" lon="-1.56634">
        <ele>23.3</ele>
        <time>2021-09-05T07:19:20Z</time>
      </trkpt>
      <trkpt lat="43.45858" lon="-1.56637">
        <ele>23.1</ele>
        <time>2021-09-05T07:19:21Z</time>
      </trkpt>
      <trkpt lat="43.45861" lon="-1.5664">
        <ele>22.8</ele>
        <time>2021-09-05T07:19:22Z</time>
      </trkpt>
      <trkpt lat="43.45864" lon="-1.56643">
        <ele>22.6</ele>
        <time>2021-09-05T07:19:23Z</time>
      </trkpt>
      <trkpt lat="43.45867" lon="-1.56646">
        <ele>22.4</ele>
        <time>2021-09-05T07:19:24Z</time>
      </trkpt>
      <trkpt lat="43.4587" lon="-1.56649">
        <ele>22.2</ele>
        <time>2021-09-05T07:19:25Z</time>
      </trkpt>
      <trkpt lat="43.45874" lon="-1.56651">
        <ele>22</ele>
        <time>2021-09-05T07:19:26Z</time>
      </trkpt>
      <trkpt lat="43.45877" lon="-1.56654">
        <ele>21.7</ele>
        <time>2021-09-05T07:19:27Z</time>
      </trkpt>
      <trkpt lat="43.45881" lon="-1.56656">
        <ele>21.4</ele>
        <time>2021-09-05T07:19:28Z</time>
      </trkpt>
      <trkpt lat="43.45885" lon="-1.56658">
        <ele>21.1</ele>
        <time>2021-09-05T07:19:29Z</time>
      </trkpt>
      <trkpt lat="43.45889" lon="-1.5666">
        <ele>20.8</ele>
        <time>2021-09-05T07:19:30Z</time>
      </trkpt>
      <trkpt lat="43.45893" lon="-1.56661">
        <ele>20.6</ele>
        <time>2021-09-05T07:19:31Z</time>
      </trkpt>
      <trkpt lat="43.45897" lon="-1.56663">
        <ele>20.3</ele>
        <time>2021-09-05T07:19:32Z</time>
      </trkpt>
      <trkpt lat="43.45901" lon="-1.56666">
        <ele>20</ele>
        <time>2021-09-05T07:19:33Z</time>
      </trkpt>
      <trkpt lat="43.45905" lon="-1.56668">
        <ele>19.7</ele>
        <time>2021-09-05T07:19:34Z</time>
      </trkpt>
      <trkpt lat="43.45909" lon="-1.5667">
        <ele>19.5</ele>
        <time>2021-09-05T07:19:35Z</time>
      </trkpt>
      <trkpt lat="43.45912" lon="-1.56673">
        <ele>19.1</ele>
        <time>2021-09-05T07:19:36Z</time>
      </trkpt>
      <trkpt lat="43.45915" lon="-1.56677">
        <ele>18.9</ele>
        <time>2021-09-05T07:19:37Z</time>
      </trkpt>
      <trkpt lat="43.45918" lon="-1.56681">
        <ele>18.7</ele>
        <time>2021-09-05T07:19:38Z</time>
      </trkpt>
      <trkpt lat="43.45921" lon="-1.56685">
        <ele>18.6</ele>
        <time>2021-09-05T07:19:39Z</time>
      </trkpt>
      <trkpt lat="43.45924" lon="-1.5669">
        <ele>18.4</ele>
        <time>2021-09-05T07:19:40Z</time>
      </trkpt>
      <trkpt lat="43.45926" lon="-1.56695">
        <ele>18.3</ele>
        <time>2021-09-05T07:19:41Z</time>
      </trkpt>
      <trkpt lat="43.45928" lon="-1.567">
        <ele>18.2</ele>
        <time>2021-09-05T07:19:42Z</time>
      </trkpt>
      <trkpt lat="43.45929" lon="-1.56705">
        <ele>18.1</ele>
        <time>2021-09-05T07:19:43Z</time>
      </trkpt>
      <trkpt lat="43.45929" lon="-1.5671">
        <ele>18</ele>
        <time>2021-09-05T07:19:44Z</time>
      </trkpt>
      <trkpt lat="43.45929" lon="-1.56714">
        <ele>18</ele>
        <time>2021-09-05T07:19:45Z</time>
      </trkpt>
      <trkpt lat="43.45929" lon="-1.56719">
        <ele>18</ele>
        <time>2021-09-05T07:19:46Z</time>
      </trkpt>
      <trkpt lat="43.45929" lon="-1.56724">
        <ele>18</ele>
        <time>2021-09-05T07:19:47Z</time>
      </trkpt>
      <trkpt lat="43.4593" lon="-1.56729">
        <ele>18</ele>
        <time>2021-09-05T07:19:48Z</time>
      </trkpt>
      <trkpt lat="43.4593" lon="-1.56734">
        <ele>17.9</ele>
        <time>2021-09-05T07:19:49Z</time>
      </trkpt>
      <trkpt lat="43.45931" lon="-1.56739">
        <ele>17.9</ele>
        <time>2021-09-05T07:19:50Z</time>
      </trkpt>
      <trkpt lat="43.45931" lon="-1.56744">
        <ele>17.9</ele>
        <time>2021-09-05T07:19:51Z</time>
      </trkpt>
      <trkpt lat="43.45932" lon="-1.5675">
        <ele>17.9</ele>
        <time>2021-09-05T07:19:52Z</time>
      </trkpt>
      <trkpt lat="43.45933" lon="-1.56755">
        <ele>17.9</ele>
        <time>2021-09-05T07:19:53Z</time>
      </trkpt>
      <trkpt lat="43.45936" lon="-1.56759">
        <ele>17.9</ele>
        <time>2021-09-05T07:19:54Z</time>
      </trkpt>
      <trkpt lat="43.45938" lon="-1.56764">
        <ele>17.9</ele>
        <time>2021-09-05T07:19:55Z</time>
      </trkpt>
      <trkpt lat="43.45941" lon="-1.56768">
        <ele>17.9</ele>
        <time>2021-09-05T07:19:56Z</time>
      </trkpt>
      <trkpt lat="43.45943" lon="-1.56772">
        <ele>17.9</ele>
        <time>2021-09-05T07:19:57Z</time>
      </trkpt>
      <trkpt lat="43.45946" lon="-1.56775">
        <ele>17.9</ele>
        <time>2021-09-05T07:19:58Z</time>
      </trkpt>
      <trkpt lat="43.45948" lon="-1.56779">
        <ele>17.9</ele>
        <time>2021-09-05T07:19:59Z</time>
      </trkpt>
      <trkpt lat="43.45952" lon="-1.56784">
        <ele>17.9</ele>
        <time>2021-09-05T07:20:00Z</time>
      </trkpt>
      <trkpt lat="43.45954" lon="-1.56786">
        <ele>17.9</ele>
        <time>2021-09-05T07:20:01Z</time>
      </trkpt>
      <trkpt lat="43.45957" lon="-1.56789">
        <ele>17.9</ele>
        <time>2021-09-05T07:20:02Z</time>
      </trkpt>
      <trkpt lat="43.45959" lon="-1.56793">
        <ele>18</ele>
        <time>2021-09-05T07:20:03Z</time>
      </trkpt>
      <trkpt lat="43.45961" lon="-1.56795">
        <ele>18</ele>
        <time>2021-09-05T07:20:04Z</time>
      </trkpt>
      <trkpt lat="43.45961" lon="-1.56795">
        <ele>18</ele>
        <time>2021-09-05T07:20:05Z</time>
      </trkpt>
      <trkpt lat="43.45962" lon="-1.56799">
        <ele>18</ele>
        <time>2021-09-05T07:20:06Z</time>
      </trkpt>
      <trkpt lat="43.45962" lon="-1.56799">
        <ele>18</ele>
        <time>2021-09-05T07:20:07Z</time>
      </trkpt>
      <trkpt lat="43.45962" lon="-1.56799">
        <ele>18</ele>
        <time>2021-09-05T07:20:08Z</time>
      </trkpt>
      <trkpt lat="43.45964" lon="-1.56801">
        <ele>18</ele>
        <time>2021-09-05T07:20:09Z</time>
      </trkpt>
      <trkpt lat="43.45964" lon="-1.56804">
        <ele>18</ele>
        <time>2021-09-05T07:20:10Z</time>
      </trkpt>
      <trkpt lat="43.45964" lon="-1.56807">
        <ele>18</ele>
        <time>2021-09-05T07:20:11Z</time>
      </trkpt>
      <trkpt lat="43.45964" lon="-1.56811">
        <ele>18.1</ele>
        <time>2021-09-05T07:20:12Z</time>
      </trkpt>
      <trkpt lat="43.45965" lon="-1.56815">
        <ele>18.1</ele>
        <time>2021-09-05T07:20:13Z</time>
      </trkpt>
      <trkpt lat="43.45965" lon="-1.5682">
        <ele>18.2</ele>
        <time>2021-09-05T07:20:14Z</time>
      </trkpt>
      <trkpt lat="43.45965" lon="-1.56824">
        <ele>18.2</ele>
        <time>2021-09-05T07:20:15Z</time>
      </trkpt>
      <trkpt lat="43.45966" lon="-1.56829">
        <ele>18.3</ele>
        <time>2021-09-05T07:20:16Z</time>
      </trkpt>
      <trkpt lat="43.45966" lon="-1.56835">
        <ele>18.4</ele>
        <time>2021-09-05T07:20:17Z</time>
      </trkpt>
      <trkpt lat="43.45967" lon="-1.5684">
        <ele>18.5</ele>
        <time>2021-09-05T07:20:18Z</time>
      </trkpt>
      <trkpt lat="43.45968" lon="-1.56845">
        <ele>18.7</ele>
        <time>2021-09-05T07:20:19Z</time>
      </trkpt>
      <trkpt lat="43.45969" lon="-1.5685">
        <ele>18.8</ele>
        <time>2021-09-05T07:20:20Z</time>
      </trkpt>
      <trkpt lat="43.4597" lon="-1.56855">
        <ele>19</ele>
        <time>2021-09-05T07:20:21Z</time>
      </trkpt>
      <trkpt lat="43.45971" lon="-1.56859">
        <ele>19.2</ele>
        <time>2021-09-05T07:20:22Z</time>
      </trkpt>
      <trkpt lat="43.45973" lon="-1.56864">
        <ele>19.4</ele>
        <time>2021-09-05T07:20:23Z</time>
      </trkpt>
      <trkpt lat="43.45974" lon="-1.56869">
        <ele>19.5</ele>
        <time>2021-09-05T07:20:24Z</time>
      </trkpt>
      <trkpt lat="43.45976" lon="-1.56873">
        <ele>19.7</ele>
        <time>2021-09-05T07:20:25Z</time>
      </trkpt>
      <trkpt lat="43.45978" lon="-1.56877">
        <ele>19.8</ele>
        <time>2021-09-05T07:20:26Z</time>
      </trkpt>
      <trkpt lat="43.4598" lon="-1.56881">
        <ele>20</ele>
        <time>2021-09-05T07:20:27Z</time>
      </trkpt>
      <trkpt lat="43.45982" lon="-1.56885">
        <ele>20.1</ele>
        <time>2021-09-05T07:20:28Z</time>
      </trkpt>
      <trkpt lat="43.45985" lon="-1.56889">
        <ele>20.2</ele>
        <time>2021-09-05T07:20:29Z</time>
      </trkpt>
      <trkpt lat="43.45987" lon="-1.56892">
        <ele>20.4</ele>
        <time>2021-09-05T07:20:30Z</time>
      </trkpt>
      <trkpt lat="43.45989" lon="-1.56896">
        <ele>20.5</ele>
        <time>2021-09-05T07:20:31Z</time>
      </trkpt>
      <trkpt lat="43.45991" lon="-1.56899">
        <ele>20.7</ele>
        <time>2021-09-05T07:20:32Z</time>
      </trkpt>
      <trkpt lat="43.45994" lon="-1.56902">
        <ele>21</ele>
        <time>2021-09-05T07:20:33Z</time>
      </trkpt>
      <trkpt lat="43.45997" lon="-1.56905">
        <ele>21.2</ele>
        <time>2021-09-05T07:20:34Z</time>
      </trkpt>
      <trkpt lat="43.46" lon="-1.56908">
        <ele>21.4</ele>
        <time>2021-09-05T07:20:35Z</time>
      </trkpt>
      <trkpt lat="43.46003" lon="-1.5691">
        <ele>21.7</ele>
        <time>2021-09-05T07:20:36Z</time>
      </trkpt>
      <trkpt lat="43.46007" lon="-1.56913">
        <ele>21.9</ele>
        <time>2021-09-05T07:20:37Z</time>
      </trkpt>
      <trkpt lat="43.4601" lon="-1.56915">
        <ele>22.2</ele>
        <time>2021-09-05T07:20:38Z</time>
      </trkpt>
      <trkpt lat="43.46013" lon="-1.56917">
        <ele>22.4</ele>
        <time>2021-09-05T07:20:39Z</time>
      </trkpt>
      <trkpt lat="43.46016" lon="-1.56919">
        <ele>22.6</ele>
        <time>2021-09-05T07:20:40Z</time>
      </trkpt>
      <trkpt lat="43.4602" lon="-1.5692">
        <ele>22.9</ele>
        <time>2021-09-05T07:20:41Z</time>
      </trkpt>
      <trkpt lat="43.46023" lon="-1.56922">
        <ele>23.1</ele>
        <time>2021-09-05T07:20:42Z</time>
      </trkpt>
      <trkpt lat="43.46027" lon="-1.56923">
        <ele>23.3</ele>
        <time>2021-09-05T07:20:43Z</time>
      </trkpt>
      <trkpt lat="43.4603" lon="-1.56924">
        <ele>23.6</ele>
        <time>2021-09-05T07:20:44Z</time>
      </trkpt>
      <trkpt lat="43.46034" lon="-1.56924">
        <ele>23.8</ele>
        <time>2021-09-05T07:20:45Z</time>
      </trkpt>
      <trkpt lat="43.46037" lon="-1.56925">
        <ele>24</ele>
        <time>2021-09-05T07:20:46Z</time>
      </trkpt>
      <trkpt lat="43.4604" lon="-1.56925">
        <ele>24.2</ele>
        <time>2021-09-05T07:20:47Z</time>
      </trkpt>
      <trkpt lat="43.46044" lon="-1.56926">
        <ele>24.4</ele>
        <time>2021-09-05T07:20:48Z</time>
      </trkpt>
      <trkpt lat="43.46047" lon="-1.56927">
        <ele>24.6</ele>
        <time>2021-09-05T07:20:49Z</time>
      </trkpt>
      <trkpt lat="43.4605" lon="-1.56928">
        <ele>24.7</ele>
        <time>2021-09-05T07:20:50Z</time>
      </trkpt>
      <trkpt lat="43.46052" lon="-1.56928">
        <ele>24.9</ele>
        <time>2021-09-05T07:20:51Z</time>
      </trkpt>
      <trkpt lat="43.46056" lon="-1.56928">
        <ele>25</ele>
        <time>2021-09-05T07:20:52Z</time>
      </trkpt>
      <trkpt lat="43.46059" lon="-1.56929">
        <ele>25.2</ele>
        <time>2021-09-05T07:20:53Z</time>
      </trkpt>
      <trkpt lat="43.46063" lon="-1.5693">
        <ele>25.4</ele>
        <time>2021-09-05T07:20:54Z</time>
      </trkpt>
      <trkpt lat="43.46067" lon="-1.5693">
        <ele>25.6</ele>
        <time>2021-09-05T07:20:55Z</time>
      </trkpt>
      <trkpt lat="43.4607" lon="-1.56931">
        <ele>25.7</ele>
        <time>2021-09-05T07:20:56Z</time>
      </trkpt>
      <trkpt lat="43.46074" lon="-1.56931">
        <ele>25.9</ele>
        <time>2021-09-05T07:20:57Z</time>
      </trkpt>
      <trkpt lat="43.46078" lon="-1.56931">
        <ele>26</ele>
        <time>2021-09-05T07:20:58Z</time>
      </trkpt>
      <trkpt lat="43.46081" lon="-1.56932">
        <ele>26.2</ele>
        <time>2021-09-05T07:20:59Z</time>
      </trkpt>
      <trkpt lat="43.46085" lon="-1.56933">
        <ele>26.4</ele>
        <time>2021-09-05T07:21:00Z</time>
      </trkpt>
      <trkpt lat="43.46089" lon="-1.56934">
        <ele>26.5</ele>
        <time>2021-09-05T07:21:01Z</time>
      </trkpt>
      <trkpt lat="43.46093" lon="-1.56935">
        <ele>26.7</ele>
        <time>2021-09-05T07:21:02Z</time>
      </trkpt>
      <trkpt lat="43.46096" lon="-1.56935">
        <ele>26.8</ele>
        <time>2021-09-05T07:21:03Z</time>
      </trkpt>
      <trkpt lat="43.461" lon="-1.56936">
        <ele>27</ele>
        <time>2021-09-05T07:21:04Z</time>
      </trkpt>
      <trkpt lat="43.46104" lon="-1.56937">
        <ele>27.1</ele>
        <time>2021-09-05T07:21:05Z</time>
      </trkpt>
      <trkpt lat="43.46107" lon="-1.56938">
        <ele>27.2</ele>
        <time>2021-09-05T07:21:06Z</time>
      </trkpt>
      <trkpt lat="43.4611" lon="-1.56938">
        <ele>27.3</ele>
        <time>2021-09-05T07:21:07Z</time>
      </trkpt>
      <trkpt lat="43.46114" lon="-1.56939">
        <ele>27.4</ele>
        <time>2021-09-05T07:21:08Z</time>
      </trkpt>
      <trkpt lat="43.46117" lon="-1.5694">
        <ele>27.4</ele>
        <time>2021-09-05T07:21:09Z</time>
      </trkpt>
      <trkpt lat="43.4612" lon="-1.56942">
        <ele>27.5</ele>
        <time>2021-09-05T07:21:10Z</time>
      </trkpt>
      <trkpt lat="43.46124" lon="-1.56944">
        <ele>27.5</ele>
        <time>2021-09-05T07:21:11Z</time>
      </trkpt>
      <trkpt lat="43.46127" lon="-1.56945">
        <ele>27.5</ele>
        <time>2021-09-05T07:21:12Z</time>
      </trkpt>
      <trkpt lat="43.46132" lon="-1.56947">
        <ele>27.5</ele>
        <time>2021-09-05T07:21:13Z</time>
      </trkpt>
      <trkpt lat="43.46135" lon="-1.56948">
        <ele>27.6</ele>
        <time>2021-09-05T07:21:14Z</time>
      </trkpt>
      <trkpt lat="43.46139" lon="-1.5695">
        <ele>27.6</ele>
        <time>2021-09-05T07:21:15Z</time>
      </trkpt>
      <trkpt lat="43.46142" lon="-1.56953">
        <ele>27.5</ele>
        <time>2021-09-05T07:21:16Z</time>
      </trkpt>
      <trkpt lat="43.46145" lon="-1.56956">
        <ele>27.5</ele>
        <time>2021-09-05T07:21:17Z</time>
      </trkpt>
      <trkpt lat="43.46147" lon="-1.5696">
        <ele>27.5</ele>
        <time>2021-09-05T07:21:18Z</time>
      </trkpt>
      <trkpt lat="43.46149" lon="-1.56965">
        <ele>27.4</ele>
        <time>2021-09-05T07:21:19Z</time>
      </trkpt>
      <trkpt lat="43.46152" lon="-1.56969">
        <ele>27.4</ele>
        <time>2021-09-05T07:21:20Z</time>
      </trkpt>
      <trkpt lat="43.46154" lon="-1.56973">
        <ele>27.3</ele>
        <time>2021-09-05T07:21:21Z</time>
      </trkpt>
      <trkpt lat="43.46157" lon="-1.56978">
        <ele>27.2</ele>
        <time>2021-09-05T07:21:22Z</time>
      </trkpt>
      <trkpt lat="43.46159" lon="-1.56982">
        <ele>27.1</ele>
        <time>2021-09-05T07:21:23Z</time>
      </trkpt>
      <trkpt lat="43.46162" lon="-1.56987">
        <ele>27.1</ele>
        <time>2021-09-05T07:21:24Z</time>
      </trkpt>
      <trkpt lat="43.46164" lon="-1.56991">
        <ele>27.2</ele>
        <time>2021-09-05T07:21:25Z</time>
      </trkpt>
      <trkpt lat="43.46166" lon="-1.56995">
        <ele>27.1</ele>
        <time>2021-09-05T07:21:26Z</time>
      </trkpt>
      <trkpt lat="43.46169" lon="-1.56999">
        <ele>27.1</ele>
        <time>2021-09-05T07:21:27Z</time>
      </trkpt>
      <trkpt lat="43.46171" lon="-1.57004">
        <ele>27</ele>
        <time>2021-09-05T07:21:28Z</time>
      </trkpt>
      <trkpt lat="43.46174" lon="-1.57008">
        <ele>26.9</ele>
        <time>2021-09-05T07:21:29Z</time>
      </trkpt>
      <trkpt lat="43.46176" lon="-1.57012">
        <ele>26.9</ele>
        <time>2021-09-05T07:21:30Z</time>
      </trkpt>
      <trkpt lat="43.46179" lon="-1.57017">
        <ele>26.8</ele>
        <time>2021-09-05T07:21:31Z</time>
      </trkpt>
      <trkpt lat="43.46181" lon="-1.57021">
        <ele>26.8</ele>
        <time>2021-09-05T07:21:32Z</time>
      </trkpt>
      <trkpt lat="43.46183" lon="-1.57025">
        <ele>26.7</ele>
        <time>2021-09-05T07:21:33Z</time>
      </trkpt>
      <trkpt lat="43.46186" lon="-1.5703">
        <ele>26.7</ele>
        <time>2021-09-05T07:21:34Z</time>
      </trkpt>
      <trkpt lat="43.46188" lon="-1.57034">
        <ele>26.5</ele>
        <time>2021-09-05T07:21:35Z</time>
      </trkpt>
      <trkpt lat="43.4619" lon="-1.57038">
        <ele>26.4</ele>
        <time>2021-09-05T07:21:36Z</time>
      </trkpt>
      <trkpt lat="43.46193" lon="-1.57043">
        <ele>26.3</ele>
        <time>2021-09-05T07:21:37Z</time>
      </trkpt>
      <trkpt lat="43.46195" lon="-1.57047">
        <ele>26.2</ele>
        <time>2021-09-05T07:21:38Z</time>
      </trkpt>
      <trkpt lat="43.46197" lon="-1.57051">
        <ele>26.1</ele>
        <time>2021-09-05T07:21:39Z</time>
      </trkpt>
      <trkpt lat="43.46201" lon="-1.57055">
        <ele>26.3</ele>
        <time>2021-09-05T07:21:40Z</time>
      </trkpt>
      <trkpt lat="43.46205" lon="-1.57057">
        <ele>26.5</ele>
        <time>2021-09-05T07:21:41Z</time>
      </trkpt>
      <trkpt lat="43.46208" lon="-1.57059">
        <ele>26.6</ele>
        <time>2021-09-05T07:21:42Z</time>
      </trkpt>
      <trkpt lat="43.46212" lon="-1.57061">
        <ele>26.8</ele>
        <time>2021-09-05T07:21:43Z</time>
      </trkpt>
      <trkpt lat="43.46216" lon="-1.57062">
        <ele>26.9</ele>
        <time>2021-09-05T07:21:44Z</time>
      </trkpt>
      <trkpt lat="43.4622" lon="-1.57063">
        <ele>27.1</ele>
        <time>2021-09-05T07:21:45Z</time>
      </trkpt>
      <trkpt lat="43.46223" lon="-1.57065">
        <ele>27.2</ele>
        <time>2021-09-05T07:21:46Z</time>
      </trkpt>
      <trkpt lat="43.46228" lon="-1.57066">
        <ele>27.3</ele>
        <time>2021-09-05T07:21:47Z</time>
      </trkpt>
      <trkpt lat="43.46231" lon="-1.57068">
        <ele>27.5</ele>
        <time>2021-09-05T07:21:48Z</time>
      </trkpt>
      <trkpt lat="43.46235" lon="-1.5707">
        <ele>27.6</ele>
        <time>2021-09-05T07:21:49Z</time>
      </trkpt>
      <trkpt lat="43.46238" lon="-1.57073">
        <ele>27.7</ele>
        <time>2021-09-05T07:21:50Z</time>
      </trkpt>
      <trkpt lat="43.46241" lon="-1.57075">
        <ele>27.9</ele>
        <time>2021-09-05T07:21:51Z</time>
      </trkpt>
      <trkpt lat="43.46245" lon="-1.57076">
        <ele>28.1</ele>
        <time>2021-09-05T07:21:52Z</time>
      </trkpt>
      <trkpt lat="43.46249" lon="-1.57076">
        <ele>28.3</ele>
        <time>2021-09-05T07:21:53Z</time>
      </trkpt>
      <trkpt lat="43.46253" lon="-1.57076">
        <ele>28.5</ele>
        <time>2021-09-05T07:21:54Z</time>
      </trkpt>
      <trkpt lat="43.46258" lon="-1.57075">
        <ele>28.7</ele>
        <time>2021-09-05T07:21:55Z</time>
      </trkpt>
      <trkpt lat="43.46261" lon="-1.57074">
        <ele>28.9</ele>
        <time>2021-09-05T07:21:56Z</time>
      </trkpt>
      <trkpt lat="43.46266" lon="-1.57074">
        <ele>28.9</ele>
        <time>2021-09-05T07:21:57Z</time>
      </trkpt>
      <trkpt lat="43.4627" lon="-1.57074">
        <ele>28.9</ele>
        <time>2021-09-05T07:21:58Z</time>
      </trkpt>
      <trkpt lat="43.46273" lon="-1.57075">
        <ele>28.9</ele>
        <time>2021-09-05T07:21:59Z</time>
      </trkpt>
      <trkpt lat="43.46275" lon="-1.57077">
        <ele>28.9</ele>
        <time>2021-09-05T07:22:00Z</time>
      </trkpt>
      <trkpt lat="43.46275" lon="-1.57077">
        <ele>28.9</ele>
        <time>2021-09-05T07:22:01Z</time>
      </trkpt>
      <trkpt lat="43.46274" lon="-1.57082">
        <ele>28.9</ele>
        <time>2021-09-05T07:22:02Z</time>
      </trkpt>
      <trkpt lat="43.46273" lon="-1.57086">
        <ele>28.9</ele>
        <time>2021-09-05T07:22:03Z</time>
      </trkpt>
      <trkpt lat="43.4627" lon="-1.57092">
        <ele>28.9</ele>
        <time>2021-09-05T07:22:04Z</time>
      </trkpt>
      <trkpt lat="43.46268" lon="-1.57097">
        <ele>28.9</ele>
        <time>2021-09-05T07:22:05Z</time>
      </trkpt>
      <trkpt lat="43.46266" lon="-1.57103">
        <ele>28.9</ele>
        <time>2021-09-05T07:22:06Z</time>
      </trkpt>
      <trkpt lat="43.46265" lon="-1.57107">
        <ele>28.9</ele>
        <time>2021-09-05T07:22:07Z</time>
      </trkpt>
      <trkpt lat="43.46263" lon="-1.57114">
        <ele>28.7</ele>
        <time>2021-09-05T07:22:08Z</time>
      </trkpt>
      <trkpt lat="43.46263" lon="-1.5712">
        <ele>27.2</ele>
        <time>2021-09-05T07:22:09Z</time>
      </trkpt>
      <trkpt lat="43.46262" lon="-1.57126">
        <ele>27</ele>
        <time>2021-09-05T07:22:10Z</time>
      </trkpt>
      <trkpt lat="43.46261" lon="-1.57132">
        <ele>26.8</ele>
        <time>2021-09-05T07:22:11Z</time>
      </trkpt>
      <trkpt lat="43.46261" lon="-1.57138">
        <ele>26.3</ele>
        <time>2021-09-05T07:22:12Z</time>
      </trkpt>
      <trkpt lat="43.46261" lon="-1.57144">
        <ele>26.1</ele>
        <time>2021-09-05T07:22:13Z</time>
      </trkpt>
      <trkpt lat="43.4626" lon="-1.5715">
        <ele>26</ele>
        <time>2021-09-05T07:22:14Z</time>
      </trkpt>
      <trkpt lat="43.4626" lon="-1.57156">
        <ele>25.9</ele>
        <time>2021-09-05T07:22:15Z</time>
      </trkpt>
      <trkpt lat="43.4626" lon="-1.57161">
        <ele>25.7</ele>
        <time>2021-09-05T07:22:16Z</time>
      </trkpt>
      <trkpt lat="43.46259" lon="-1.57166">
        <ele>25.6</ele>
        <time>2021-09-05T07:22:17Z</time>
      </trkpt>
      <trkpt lat="43.46257" lon="-1.5717">
        <ele>25.7</ele>
        <time>2021-09-05T07:22:18Z</time>
      </trkpt>
      <trkpt lat="43.46254" lon="-1.57174">
        <ele>25.8</ele>
        <time>2021-09-05T07:22:19Z</time>
      </trkpt>
      <trkpt lat="43.46251" lon="-1.57177">
        <ele>25.8</ele>
        <time>2021-09-05T07:22:20Z</time>
      </trkpt>
      <trkpt lat="43.46247" lon="-1.57181">
        <ele>25.7</ele>
        <time>2021-09-05T07:22:21Z</time>
      </trkpt>
      <trkpt lat="43.46244" lon="-1.57184">
        <ele>25.7</ele>
        <time>2021-09-05T07:22:22Z</time>
      </trkpt>
      <trkpt lat="43.4624" lon="-1.57188">
        <ele>25.7</ele>
        <time>2021-09-05T07:22:23Z</time>
      </trkpt>
      <trkpt lat="43.46237" lon="-1.57191">
        <ele>25.6</ele>
        <time>2021-09-05T07:22:24Z</time>
      </trkpt>
      <trkpt lat="43.46233" lon="-1.57194">
        <ele>25.6</ele>
        <time>2021-09-05T07:22:25Z</time>
      </trkpt>
      <trkpt lat="43.4623" lon="-1.57196">
        <ele>25.6</ele>
        <time>2021-09-05T07:22:26Z</time>
      </trkpt>
      <trkpt lat="43.46227" lon="-1.57197">
        <ele>25.6</ele>
        <time>2021-09-05T07:22:27Z</time>
      </trkpt>
      <trkpt lat="43.46223" lon="-1.57198">
        <ele>25.5</ele>
        <time>2021-09-05T07:22:28Z</time>
      </trkpt>
      <trkpt lat="43.46221" lon="-1.57199">
        <ele>25.5</ele>
        <time>2021-09-05T07:22:29Z</time>
      </trkpt>
      <trkpt lat="43.46218" lon="-1.57201">
        <ele>25.5</ele>
        <time>2021-09-05T07:22:30Z</time>
      </trkpt>
      <trkpt lat="43.46216" lon="-1.57204">
        <ele>25.5</ele>
        <time>2021-09-05T07:22:31Z</time>
      </trkpt>
      <trkpt lat="43.46215" lon="-1.57209">
        <ele>25.4</ele>
        <time>2021-09-05T07:22:32Z</time>
      </trkpt>
      <trkpt lat="43.46215" lon="-1.57215">
        <ele>25.3</ele>
        <time>2021-09-05T07:22:33Z</time>
      </trkpt>
      <trkpt lat="43.46215" lon="-1.57222">
        <ele>25.2</ele>
        <time>2021-09-05T07:22:34Z</time>
      </trkpt>
      <trkpt lat="43.46216" lon="-1.57228">
        <ele>25.1</ele>
        <time>2021-09-05T07:22:35Z</time>
      </trkpt>
      <trkpt lat="43.46216" lon="-1.57234">
        <ele>24.9</ele>
        <time>2021-09-05T07:22:36Z</time>
      </trkpt>
      <trkpt lat="43.46217" lon="-1.57241">
        <ele>24.8</ele>
        <time>2021-09-05T07:22:37Z</time>
      </trkpt>
      <trkpt lat="43.46217" lon="-1.57248">
        <ele>24.6</ele>
        <time>2021-09-05T07:22:38Z</time>
      </trkpt>
      <trkpt lat="43.46219" lon="-1.57254">
        <ele>24.5</ele>
        <time>2021-09-05T07:22:39Z</time>
      </trkpt>
      <trkpt lat="43.46219" lon="-1.5726">
        <ele>22</ele>
        <time>2021-09-05T07:22:40Z</time>
      </trkpt>
      <trkpt lat="43.4622" lon="-1.57267">
        <ele>22</ele>
        <time>2021-09-05T07:22:41Z</time>
      </trkpt>
      <trkpt lat="43.46221" lon="-1.57273">
        <ele>22</ele>
        <time>2021-09-05T07:22:42Z</time>
      </trkpt>
      <trkpt lat="43.46221" lon="-1.57279">
        <ele>21.9</ele>
        <time>2021-09-05T07:22:43Z</time>
      </trkpt>
      <trkpt lat="43.46221" lon="-1.57285">
        <ele>21.9</ele>
        <time>2021-09-05T07:22:44Z</time>
      </trkpt>
      <trkpt lat="43.46222" lon="-1.57291">
        <ele>21.7</ele>
        <time>2021-09-05T07:22:45Z</time>
      </trkpt>
      <trkpt lat="43.46223" lon="-1.57296">
        <ele>21.6</ele>
        <time>2021-09-05T07:22:46Z</time>
      </trkpt>
      <trkpt lat="43.46223" lon="-1.57302">
        <ele>21.4</ele>
        <time>2021-09-05T07:22:47Z</time>
      </trkpt>
      <trkpt lat="43.46224" lon="-1.57308">
        <ele>21.3</ele>
        <time>2021-09-05T07:22:48Z</time>
      </trkpt>
      <trkpt lat="43.46224" lon="-1.57313">
        <ele>21.1</ele>
        <time>2021-09-05T07:22:49Z</time>
      </trkpt>
      <trkpt lat="43.46225" lon="-1.57319">
        <ele>21</ele>
        <time>2021-09-05T07:22:50Z</time>
      </trkpt>
      <trkpt lat="43.46225" lon="-1.57325">
        <ele>20.9</ele>
        <time>2021-09-05T07:22:51Z</time>
      </trkpt>
      <trkpt lat="43.46224" lon="-1.57331">
        <ele>20.9</ele>
        <time>2021-09-05T07:22:52Z</time>
      </trkpt>
      <trkpt lat="43.46224" lon="-1.57336">
        <ele>20.8</ele>
        <time>2021-09-05T07:22:53Z</time>
      </trkpt>
      <trkpt lat="43.46224" lon="-1.57342">
        <ele>20.7</ele>
        <time>2021-09-05T07:22:54Z</time>
      </trkpt>
      <trkpt lat="43.46224" lon="-1.57347">
        <ele>20.6</ele>
        <time>2021-09-05T07:22:55Z</time>
      </trkpt>
      <trkpt lat="43.46224" lon="-1.57353">
        <ele>20.6</ele>
        <time>2021-09-05T07:22:56Z</time>
      </trkpt>
      <trkpt lat="43.46225" lon="-1.57358">
        <ele>20.5</ele>
        <time>2021-09-05T07:22:57Z</time>
      </trkpt>
      <trkpt lat="43.46226" lon="-1.57364">
        <ele>20.5</ele>
        <time>2021-09-05T07:22:58Z</time>
      </trkpt>
      <trkpt lat="43.46227" lon="-1.5737">
        <ele>20.4</ele>
        <time>2021-09-05T07:22:59Z</time>
      </trkpt>
      <trkpt lat="43.46227" lon="-1.57375">
        <ele>20.4</ele>
        <time>2021-09-05T07:23:00Z</time>
      </trkpt>
      <trkpt lat="43.46228" lon="-1.57381">
        <ele>20.3</ele>
        <time>2021-09-05T07:23:01Z</time>
      </trkpt>
      <trkpt lat="43.46228" lon="-1.57387">
        <ele>20.3</ele>
        <time>2021-09-05T07:23:02Z</time>
      </trkpt>
      <trkpt lat="43.46229" lon="-1.57392">
        <ele>20.2</ele>
        <time>2021-09-05T07:23:03Z</time>
      </trkpt>
      <trkpt lat="43.46229" lon="-1.57397">
        <ele>20.2</ele>
        <time>2021-09-05T07:23:04Z</time>
      </trkpt>
      <trkpt lat="43.4623" lon="-1.57403">
        <ele>20.2</ele>
        <time>2021-09-05T07:23:05Z</time>
      </trkpt>
      <trkpt lat="43.46231" lon="-1.57409">
        <ele>20.1</ele>
        <time>2021-09-05T07:23:06Z</time>
      </trkpt>
      <trkpt lat="43.46231" lon="-1.57414">
        <ele>20.1</ele>
        <time>2021-09-05T07:23:07Z</time>
      </trkpt>
      <trkpt lat="43.46232" lon="-1.57419">
        <ele>20.1</ele>
        <time>2021-09-05T07:23:08Z</time>
      </trkpt>
      <trkpt lat="43.46233" lon="-1.57425">
        <ele>20</ele>
        <time>2021-09-05T07:23:09Z</time>
      </trkpt>
      <trkpt lat="43.46234" lon="-1.5743">
        <ele>20</ele>
        <time>2021-09-05T07:23:10Z</time>
      </trkpt>
      <trkpt lat="43.46235" lon="-1.57435">
        <ele>20</ele>
        <time>2021-09-05T07:23:11Z</time>
      </trkpt>
      <trkpt lat="43.46235" lon="-1.5744">
        <ele>19.9</ele>
        <time>2021-09-05T07:23:12Z</time>
      </trkpt>
      <trkpt lat="43.46236" lon="-1.57446">
        <ele>19.9</ele>
        <time>2021-09-05T07:23:13Z</time>
      </trkpt>
      <trkpt lat="43.46237" lon="-1.57451">
        <ele>19.8</ele>
        <time>2021-09-05T07:23:14Z</time>
      </trkpt>
      <trkpt lat="43.46237" lon="-1.57456">
        <ele>19.7</ele>
        <time>2021-09-05T07:23:15Z</time>
      </trkpt>
      <trkpt lat="43.46237" lon="-1.57461">
        <ele>19.7</ele>
        <time>2021-09-05T07:23:16Z</time>
      </trkpt>
      <trkpt lat="43.46237" lon="-1.57467">
        <ele>19.6</ele>
        <time>2021-09-05T07:23:17Z</time>
      </trkpt>
      <trkpt lat="43.46237" lon="-1.57472">
        <ele>19.5</ele>
        <time>2021-09-05T07:23:18Z</time>
      </trkpt>
      <trkpt lat="43.46237" lon="-1.57478">
        <ele>19.5</ele>
        <time>2021-09-05T07:23:19Z</time>
      </trkpt>
      <trkpt lat="43.46237" lon="-1.57483">
        <ele>19.4</ele>
        <time>2021-09-05T07:23:20Z</time>
      </trkpt>
      <trkpt lat="43.46237" lon="-1.57488">
        <ele>19.3</ele>
        <time>2021-09-05T07:23:21Z</time>
      </trkpt>
      <trkpt lat="43.46238" lon="-1.57494">
        <ele>19.3</ele>
        <time>2021-09-05T07:23:22Z</time>
      </trkpt>
      <trkpt lat="43.46239" lon="-1.57499">
        <ele>19.2</ele>
        <time>2021-09-05T07:23:23Z</time>
      </trkpt>
      <trkpt lat="43.4624" lon="-1.57505">
        <ele>19.2</ele>
        <time>2021-09-05T07:23:24Z</time>
      </trkpt>
      <trkpt lat="43.46241" lon="-1.5751">
        <ele>19.1</ele>
        <time>2021-09-05T07:23:25Z</time>
      </trkpt>
      <trkpt lat="43.46242" lon="-1.57516">
        <ele>19.1</ele>
        <time>2021-09-05T07:23:26Z</time>
      </trkpt>
      <trkpt lat="43.46243" lon="-1.57521">
        <ele>19</ele>
        <time>2021-09-05T07:23:27Z</time>
      </trkpt>
      <trkpt lat="43.46244" lon="-1.57526">
        <ele>18.9</ele>
        <time>2021-09-05T07:23:28Z</time>
      </trkpt>
      <trkpt lat="43.46244" lon="-1.57532">
        <ele>18.9</ele>
        <time>2021-09-05T07:23:29Z</time>
      </trkpt>
      <trkpt lat="43.46245" lon="-1.57537">
        <ele>18.8</ele>
        <time>2021-09-05T07:23:30Z</time>
      </trkpt>
      <trkpt lat="43.46245" lon="-1.57542">
        <ele>18.7</ele>
        <time>2021-09-05T07:23:31Z</time>
      </trkpt>
      <trkpt lat="43.46246" lon="-1.57547">
        <ele>18.7</ele>
        <time>2021-09-05T07:23:32Z</time>
      </trkpt>
      <trkpt lat="43.46247" lon="-1.57553">
        <ele>18.6</ele>
        <time>2021-09-05T07:23:33Z</time>
      </trkpt>
      <trkpt lat="43.46247" lon="-1.57558">
        <ele>18.5</ele>
        <time>2021-09-05T07:23:34Z</time>
      </trkpt>
      <trkpt lat="43.46248" lon="-1.57563">
        <ele>18.5</ele>
        <time>2021-09-05T07:23:35Z</time>
      </trkpt>
      <trkpt lat="43.46249" lon="-1.57567">
        <ele>18.4</ele>
        <time>2021-09-05T07:23:36Z</time>
      </trkpt>
      <trkpt lat="43.4625" lon="-1.57572">
        <ele>18.4</ele>
        <time>2021-09-05T07:23:37Z</time>
      </trkpt>
      <trkpt lat="43.46251" lon="-1.57577">
        <ele>18.1</ele>
        <time>2021-09-05T07:23:38Z</time>
      </trkpt>
      <trkpt lat="43.46252" lon="-1.57582">
        <ele>18.1</ele>
        <time>2021-09-05T07:23:39Z</time>
      </trkpt>
      <trkpt lat="43.46253" lon="-1.57587">
        <ele>18</ele>
        <time>2021-09-05T07:23:40Z</time>
      </trkpt>
      <trkpt lat="43.46254" lon="-1.57592">
        <ele>17.9</ele>
        <time>2021-09-05T07:23:41Z</time>
      </trkpt>
      <trkpt lat="43.46255" lon="-1.57597">
        <ele>18</ele>
        <time>2021-09-05T07:23:42Z</time>
      </trkpt>
      <trkpt lat="43.46257" lon="-1.57602">
        <ele>17.9</ele>
        <time>2021-09-05T07:23:43Z</time>
      </trkpt>
      <trkpt lat="43.46259" lon="-1.57606">
        <ele>18</ele>
        <time>2021-09-05T07:23:44Z</time>
      </trkpt>
      <trkpt lat="43.46261" lon="-1.57611">
        <ele>18.1</ele>
        <time>2021-09-05T07:23:45Z</time>
      </trkpt>
      <trkpt lat="43.46262" lon="-1.57615">
        <ele>18</ele>
        <time>2021-09-05T07:23:46Z</time>
      </trkpt>
      <trkpt lat="43.46264" lon="-1.57619">
        <ele>18.1</ele>
        <time>2021-09-05T07:23:47Z</time>
      </trkpt>
      <trkpt lat="43.46265" lon="-1.57621">
        <ele>18</ele>
        <time>2021-09-05T07:23:48Z</time>
      </trkpt>
      <trkpt lat="43.46265" lon="-1.57621">
        <ele>18</ele>
        <time>2021-09-05T07:23:49Z</time>
      </trkpt>
      <trkpt lat="43.46268" lon="-1.57624">
        <ele>18</ele>
        <time>2021-09-05T07:23:50Z</time>
      </trkpt>
      <trkpt lat="43.46268" lon="-1.57624">
        <ele>18</ele>
        <time>2021-09-05T07:23:51Z</time>
      </trkpt>
      <trkpt lat="43.46271" lon="-1.57626">
        <ele>18.1</ele>
        <time>2021-09-05T07:23:52Z</time>
      </trkpt>
      <trkpt lat="43.46271" lon="-1.57626">
        <ele>18.1</ele>
        <time>2021-09-05T07:23:53Z</time>
      </trkpt>
      <trkpt lat="43.46273" lon="-1.57629">
        <ele>18</ele>
        <time>2021-09-05T07:23:54Z</time>
      </trkpt>
      <trkpt lat="43.46273" lon="-1.57629">
        <ele>18</ele>
        <time>2021-09-05T07:23:55Z</time>
      </trkpt>
      <trkpt lat="43.46275" lon="-1.57631">
        <ele>18.1</ele>
        <time>2021-09-05T07:23:56Z</time>
      </trkpt>
      <trkpt lat="43.46275" lon="-1.57631">
        <ele>18.1</ele>
        <time>2021-09-05T07:23:57Z</time>
      </trkpt>
      <trkpt lat="43.46277" lon="-1.57633">
        <ele>18.1</ele>
        <time>2021-09-05T07:23:58Z</time>
      </trkpt>
      <trkpt lat="43.46277" lon="-1.57633">
        <ele>18.1</ele>
        <time>2021-09-05T07:23:59Z</time>
      </trkpt>
      <trkpt lat="43.46277" lon="-1.57633">
        <ele>18.1</ele>
        <time>2021-09-05T07:24:00Z</time>
      </trkpt>
      <trkpt lat="43.4628" lon="-1.57634">
        <ele>18.2</ele>
        <time>2021-09-05T07:24:01Z</time>
      </trkpt>
      <trkpt lat="43.4628" lon="-1.57634">
        <ele>18.2</ele>
        <time>2021-09-05T07:24:02Z</time>
      </trkpt>
      <trkpt lat="43.46282" lon="-1.57635">
        <ele>18.2</ele>
        <time>2021-09-05T07:24:03Z</time>
      </trkpt>
      <trkpt lat="43.46282" lon="-1.57635">
        <ele>18.2</ele>
        <time>2021-09-05T07:24:04Z</time>
      </trkpt>
      <trkpt lat="43.46284" lon="-1.57636">
        <ele>18.3</ele>
        <time>2021-09-05T07:24:05Z</time>
      </trkpt>
      <trkpt lat="43.46284" lon="-1.57636">
        <ele>18.3</ele>
        <time>2021-09-05T07:24:06Z</time>
      </trkpt>
      <trkpt lat="43.46286" lon="-1.57638">
        <ele>18.3</ele>
        <time>2021-09-05T07:24:07Z</time>
      </trkpt>
      <trkpt lat="43.46286" lon="-1.57638">
        <ele>18.3</ele>
        <time>2021-09-05T07:24:08Z</time>
      </trkpt>
      <trkpt lat="43.46288" lon="-1.5764">
        <ele>18.3</ele>
        <time>2021-09-05T07:24:09Z</time>
      </trkpt>
      <trkpt lat="43.46288" lon="-1.5764">
        <ele>18.3</ele>
        <time>2021-09-05T07:24:10Z</time>
      </trkpt>
      <trkpt lat="43.46291" lon="-1.57642">
        <ele>18.2</ele>
        <time>2021-09-05T07:24:11Z</time>
      </trkpt>
      <trkpt lat="43.46293" lon="-1.57644">
        <ele>18.2</ele>
        <time>2021-09-05T07:24:12Z</time>
      </trkpt>
      <trkpt lat="43.46294" lon="-1.57645">
        <ele>18.2</ele>
        <time>2021-09-05T07:24:13Z</time>
      </trkpt>
      <trkpt lat="43.46294" lon="-1.57645">
        <ele>18.2</ele>
        <time>2021-09-05T07:24:14Z</time>
      </trkpt>
      <trkpt lat="43.46297" lon="-1.57647">
        <ele>18</ele>
        <time>2021-09-05T07:24:15Z</time>
      </trkpt>
      <trkpt lat="43.46297" lon="-1.57647">
        <ele>18</ele>
        <time>2021-09-05T07:24:16Z</time>
      </trkpt>
      <trkpt lat="43.463" lon="-1.57649">
        <ele>17.9</ele>
        <time>2021-09-05T07:24:17Z</time>
      </trkpt>
      <trkpt lat="43.46302" lon="-1.57651">
        <ele>17.4</ele>
        <time>2021-09-05T07:24:18Z</time>
      </trkpt>
      <trkpt lat="43.46304" lon="-1.57652">
        <ele>17.4</ele>
        <time>2021-09-05T07:24:19Z</time>
      </trkpt>
      <trkpt lat="43.46306" lon="-1.57654">
        <ele>16.9</ele>
        <time>2021-09-05T07:24:20Z</time>
      </trkpt>
      <trkpt lat="43.46308" lon="-1.57656">
        <ele>16.6</ele>
        <time>2021-09-05T07:24:21Z</time>
      </trkpt>
      <trkpt lat="43.4631" lon="-1.57659">
        <ele>16.2</ele>
        <time>2021-09-05T07:24:22Z</time>
      </trkpt>
      <trkpt lat="43.46312" lon="-1.57661">
        <ele>15.8</ele>
        <time>2021-09-05T07:24:23Z</time>
      </trkpt>
      <trkpt lat="43.46315" lon="-1.57664">
        <ele>14.9</ele>
        <time>2021-09-05T07:24:24Z</time>
      </trkpt>
      <trkpt lat="43.46317" lon="-1.57666">
        <ele>14.5</ele>
        <time>2021-09-05T07:24:25Z</time>
      </trkpt>
      <trkpt lat="43.46319" lon="-1.57669">
        <ele>13.9</ele>
        <time>2021-09-05T07:24:26Z</time>
      </trkpt>
      <trkpt lat="43.46322" lon="-1.57671">
        <ele>13.3</ele>
        <time>2021-09-05T07:24:27Z</time>
      </trkpt>
      <trkpt lat="43.46324" lon="-1.57673">
        <ele>11.7</ele>
        <time>2021-09-05T07:24:28Z</time>
      </trkpt>
      <trkpt lat="43.46326" lon="-1.57676">
        <ele>9.9</ele>
        <time>2021-09-05T07:24:29Z</time>
      </trkpt>
      <trkpt lat="43.4633" lon="-1.57679">
        <ele>9</ele>
        <time>2021-09-05T07:24:30Z</time>
      </trkpt>
      <trkpt lat="43.46332" lon="-1.57682">
        <ele>8</ele>
        <time>2021-09-05T07:24:31Z</time>
      </trkpt>
      <trkpt lat="43.46334" lon="-1.57685">
        <ele>6.3</ele>
        <time>2021-09-05T07:24:32Z</time>
      </trkpt>
      <trkpt lat="43.46337" lon="-1.57688">
        <ele>5.6</ele>
        <time>2021-09-05T07:24:33Z</time>
      </trkpt>
      <trkpt lat="43.4634" lon="-1.57691">
        <ele>4.5</ele>
        <time>2021-09-05T07:24:34Z</time>
      </trkpt>
      <trkpt lat="43.46342" lon="-1.57694">
        <ele>4</ele>
        <time>2021-09-05T07:24:35Z</time>
      </trkpt>
      <trkpt lat="43.46344" lon="-1.57696">
        <ele>4</ele>
        <time>2021-09-05T07:24:36Z</time>
      </trkpt>
      <trkpt lat="43.46346" lon="-1.57699">
        <ele>4</ele>
        <time>2021-09-05T07:24:37Z</time>
      </trkpt>
      <trkpt lat="43.46349" lon="-1.57702">
        <ele>4.3</ele>
        <time>2021-09-05T07:24:38Z</time>
      </trkpt>
      <trkpt lat="43.46351" lon="-1.57704">
        <ele>4.3</ele>
        <time>2021-09-05T07:24:39Z</time>
      </trkpt>
      <trkpt lat="43.46354" lon="-1.57707">
        <ele>4.6</ele>
        <time>2021-09-05T07:24:40Z</time>
      </trkpt>
      <trkpt lat="43.46357" lon="-1.5771">
        <ele>4.7</ele>
        <time>2021-09-05T07:24:41Z</time>
      </trkpt>
      <trkpt lat="43.46358" lon="-1.57712">
        <ele>4.8</ele>
        <time>2021-09-05T07:24:42Z</time>
      </trkpt>
      <trkpt lat="43.46361" lon="-1.57714">
        <ele>4.7</ele>
        <time>2021-09-05T07:24:43Z</time>
      </trkpt>
      <trkpt lat="43.46362" lon="-1.57716">
        <ele>4.7</ele>
        <time>2021-09-05T07:24:44Z</time>
      </trkpt>
      <trkpt lat="43.46362" lon="-1.57716">
        <ele>4.7</ele>
        <time>2021-09-05T07:24:45Z</time>
      </trkpt>
      <trkpt lat="43.46364" lon="-1.57718">
        <ele>4.6</ele>
        <time>2021-09-05T07:24:46Z</time>
      </trkpt>
      <trkpt lat="43.46364" lon="-1.57718">
        <ele>4.6</ele>
        <time>2021-09-05T07:24:47Z</time>
      </trkpt>
      <trkpt lat="43.46366" lon="-1.5772">
        <ele>4.6</ele>
        <time>2021-09-05T07:24:48Z</time>
      </trkpt>
      <trkpt lat="43.46366" lon="-1.5772">
        <ele>4.6</ele>
        <time>2021-09-05T07:24:49Z</time>
      </trkpt>
      <trkpt lat="43.46367" lon="-1.57722">
        <ele>4.6</ele>
        <time>2021-09-05T07:24:50Z</time>
      </trkpt>
      <trkpt lat="43.46367" lon="-1.57722">
        <ele>4.6</ele>
        <time>2021-09-05T07:24:51Z</time>
      </trkpt>
      <trkpt lat="43.46368" lon="-1.57724">
        <ele>4.5</ele>
        <time>2021-09-05T07:24:52Z</time>
      </trkpt>
      <trkpt lat="43.46368" lon="-1.57724">
        <ele>4.4</ele>
        <time>2021-09-05T07:24:53Z</time>
      </trkpt>
      <trkpt lat="43.4637" lon="-1.57726">
        <ele>4.4</ele>
        <time>2021-09-05T07:24:54Z</time>
      </trkpt>
      <trkpt lat="43.4637" lon="-1.57726">
        <ele>4.4</ele>
        <time>2021-09-05T07:24:55Z</time>
      </trkpt>
      <trkpt lat="43.46372" lon="-1.57729">
        <ele>4.4</ele>
        <time>2021-09-05T07:24:56Z</time>
      </trkpt>
      <trkpt lat="43.46372" lon="-1.57729">
        <ele>4.4</ele>
        <time>2021-09-05T07:24:57Z</time>
      </trkpt>
      <trkpt lat="43.46373" lon="-1.57732">
        <ele>4.4</ele>
        <time>2021-09-05T07:24:58Z</time>
      </trkpt>
      <trkpt lat="43.46373" lon="-1.57732">
        <ele>4.4</ele>
        <time>2021-09-05T07:24:59Z</time>
      </trkpt>
      <trkpt lat="43.46375" lon="-1.57735">
        <ele>4.4</ele>
        <time>2021-09-05T07:25:00Z</time>
      </trkpt>
      <trkpt lat="43.46375" lon="-1.57735">
        <ele>4.4</ele>
        <time>2021-09-05T07:25:01Z</time>
      </trkpt>
      <trkpt lat="43.46375" lon="-1.57735">
        <ele>4.3</ele>
        <time>2021-09-05T07:25:02Z</time>
      </trkpt>
      <trkpt lat="43.46375" lon="-1.57735">
        <ele>4.3</ele>
        <time>2021-09-05T07:25:03Z</time>
      </trkpt>
      <trkpt lat="43.46375" lon="-1.57735">
        <ele>4.3</ele>
        <time>2021-09-05T07:25:04Z</time>
      </trkpt>
      <trkpt lat="43.46375" lon="-1.57735">
        <ele>4.3</ele>
        <time>2021-09-05T07:25:05Z</time>
      </trkpt>
      <trkpt lat="43.46375" lon="-1.57735">
        <ele>4.3</ele>
        <time>2021-09-05T07:25:06Z</time>
      </trkpt>
      <trkpt lat="43.46375" lon="-1.57735">
        <ele>4.3</ele>
        <time>2021-09-05T07:25:07Z</time>
      </trkpt>
      <trkpt lat="43.46375" lon="-1.57735">
        <ele>4.2</ele>
        <time>2021-09-05T07:25:08Z</time>
      </trkpt>
      <trkpt lat="43.46375" lon="-1.57735">
        <ele>4.2</ele>
        <time>2021-09-05T07:25:09Z</time>
      </trkpt>
      <trkpt lat="43.46375" lon="-1.57735">
        <ele>4.2</ele>
        <time>2021-09-05T07:25:10Z</time>
      </trkpt>
      <trkpt lat="43.46377" lon="-1.57737">
        <ele>4.2</ele>
        <time>2021-09-05T07:25:11Z</time>
      </trkpt>
      <trkpt lat="43.46378" lon="-1.57738">
        <ele>4.2</ele>
        <time>2021-09-05T07:25:12Z</time>
      </trkpt>
      <trkpt lat="43.4638" lon="-1.57739">
        <ele>4.2</ele>
        <time>2021-09-05T07:25:13Z</time>
      </trkpt>
      <trkpt lat="43.46381" lon="-1.57741">
        <ele>4.1</ele>
        <time>2021-09-05T07:25:14Z</time>
      </trkpt>
      <trkpt lat="43.46383" lon="-1.57742">
        <ele>4.1</ele>
        <time>2021-09-05T07:25:15Z</time>
      </trkpt>
      <trkpt lat="43.46384" lon="-1.57744">
        <ele>4.1</ele>
        <time>2021-09-05T07:25:16Z</time>
      </trkpt>
      <trkpt lat="43.46384" lon="-1.57744">
        <ele>4.1</ele>
        <time>2021-09-05T07:25:17Z</time>
      </trkpt>
      <trkpt lat="43.46386" lon="-1.57747">
        <ele>4.1</ele>
        <time>2021-09-05T07:25:18Z</time>
      </trkpt>
      <trkpt lat="43.46386" lon="-1.57747">
        <ele>4.1</ele>
        <time>2021-09-05T07:25:19Z</time>
      </trkpt>
      <trkpt lat="43.46385" lon="-1.57752">
        <ele>4</ele>
        <time>2021-09-05T07:25:20Z</time>
      </trkpt>
      <trkpt lat="43.46385" lon="-1.57752">
        <ele>4</ele>
        <time>2021-09-05T07:25:21Z</time>
      </trkpt>
      <trkpt lat="43.46384" lon="-1.57756">
        <ele>4</ele>
        <time>2021-09-05T07:25:22Z</time>
      </trkpt>
      <trkpt lat="43.46384" lon="-1.57756">
        <ele>4</ele>
        <time>2021-09-05T07:25:23Z</time>
      </trkpt>
      <trkpt lat="43.46389" lon="-1.57759">
        <ele>4</ele>
        <time>2021-09-05T07:25:24Z</time>
      </trkpt>
      <trkpt lat="43.46389" lon="-1.57759">
        <ele>4</ele>
        <time>2021-09-05T07:25:25Z</time>
      </trkpt>
      <trkpt lat="43.4639" lon="-1.57763">
        <ele>4</ele>
        <time>2021-09-05T07:25:26Z</time>
      </trkpt>
      <trkpt lat="43.4639" lon="-1.57763">
        <ele>3.9</ele>
        <time>2021-09-05T07:25:27Z</time>
      </trkpt>
      <trkpt lat="43.46391" lon="-1.57766">
        <ele>3.9</ele>
        <time>2021-09-05T07:25:28Z</time>
      </trkpt>
      <trkpt lat="43.46391" lon="-1.57766">
        <ele>3.9</ele>
        <time>2021-09-05T07:25:29Z</time>
      </trkpt>
      <trkpt lat="43.46391" lon="-1.57766">
        <ele>3.8</ele>
        <time>2021-09-05T07:25:30Z</time>
      </trkpt>
      <trkpt lat="43.46391" lon="-1.57766">
        <ele>3.8</ele>
        <time>2021-09-05T07:25:31Z</time>
      </trkpt>
      <trkpt lat="43.46391" lon="-1.57766">
        <ele>3.8</ele>
        <time>2021-09-05T07:25:32Z</time>
      </trkpt>
      <trkpt lat="43.46391" lon="-1.57766">
        <ele>3.8</ele>
        <time>2021-09-05T07:25:33Z</time>
      </trkpt>
      <trkpt lat="43.46391" lon="-1.57766">
        <ele>3.8</ele>
        <time>2021-09-05T07:25:34Z</time>
      </trkpt>
      <trkpt lat="43.46393" lon="-1.57767">
        <ele>3.8</ele>
        <time>2021-09-05T07:25:35Z</time>
      </trkpt>
      <trkpt lat="43.46395" lon="-1.57769">
        <ele>3.7</ele>
        <time>2021-09-05T07:25:36Z</time>
      </trkpt>
      <trkpt lat="43.46396" lon="-1.57771">
        <ele>3.7</ele>
        <time>2021-09-05T07:25:37Z</time>
      </trkpt>
      <trkpt lat="43.46398" lon="-1.57772">
        <ele>3.7</ele>
        <time>2021-09-05T07:25:38Z</time>
      </trkpt>
      <trkpt lat="43.464" lon="-1.57774">
        <ele>3.7</ele>
        <time>2021-09-05T07:25:39Z</time>
      </trkpt>
      <trkpt lat="43.46401" lon="-1.57776">
        <ele>3.6</ele>
        <time>2021-09-05T07:25:40Z</time>
      </trkpt>
      <trkpt lat="43.46403" lon="-1.57778">
        <ele>3.6</ele>
        <time>2021-09-05T07:25:41Z</time>
      </trkpt>
      <trkpt lat="43.46404" lon="-1.57779">
        <ele>3.6</ele>
        <time>2021-09-05T07:25:42Z</time>
      </trkpt>
      <trkpt lat="43.46404" lon="-1.57779">
        <ele>3.6</ele>
        <time>2021-09-05T07:25:43Z</time>
      </trkpt>
      <trkpt lat="43.46405" lon="-1.57781">
        <ele>3.6</ele>
        <time>2021-09-05T07:25:44Z</time>
      </trkpt>
      <trkpt lat="43.46405" lon="-1.57781">
        <ele>3.5</ele>
        <time>2021-09-05T07:25:45Z</time>
      </trkpt>
      <trkpt lat="43.46406" lon="-1.57784">
        <ele>3.5</ele>
        <time>2021-09-05T07:25:46Z</time>
      </trkpt>
      <trkpt lat="43.46406" lon="-1.57784">
        <ele>3.5</ele>
        <time>2021-09-05T07:25:47Z</time>
      </trkpt>
      <trkpt lat="43.46408" lon="-1.57787">
        <ele>3.4</ele>
        <time>2021-09-05T07:25:48Z</time>
      </trkpt>
      <trkpt lat="43.46408" lon="-1.57787">
        <ele>3.4</ele>
        <time>2021-09-05T07:25:49Z</time>
      </trkpt>
      <trkpt lat="43.4641" lon="-1.57791">
        <ele>3.4</ele>
        <time>2021-09-05T07:25:50Z</time>
      </trkpt>
      <trkpt lat="43.4641" lon="-1.57794">
        <ele>3.4</ele>
        <time>2021-09-05T07:25:51Z</time>
      </trkpt>
      <trkpt lat="43.46412" lon="-1.57795">
        <ele>3.4</ele>
        <time>2021-09-05T07:25:52Z</time>
      </trkpt>
      <trkpt lat="43.46412" lon="-1.57795">
        <ele>3.3</ele>
        <time>2021-09-05T07:25:53Z</time>
      </trkpt>
      <trkpt lat="43.46415" lon="-1.57796">
        <ele>3.3</ele>
        <time>2021-09-05T07:25:54Z</time>
      </trkpt>
      <trkpt lat="43.46415" lon="-1.57796">
        <ele>3.3</ele>
        <time>2021-09-05T07:25:55Z</time>
      </trkpt>
      <trkpt lat="43.46415" lon="-1.57796">
        <ele>3.2</ele>
        <time>2021-09-05T07:25:56Z</time>
      </trkpt>
      <trkpt lat="43.46418" lon="-1.57794">
        <ele>3.2</ele>
        <time>2021-09-05T07:25:57Z</time>
      </trkpt>
      <trkpt lat="43.46418" lon="-1.57794">
        <ele>3.2</ele>
        <time>2021-09-05T07:25:58Z</time>
      </trkpt>
      <trkpt lat="43.46421" lon="-1.57795">
        <ele>3.2</ele>
        <time>2021-09-05T07:25:59Z</time>
      </trkpt>
      <trkpt lat="43.46421" lon="-1.57795">
        <ele>3.2</ele>
        <time>2021-09-05T07:26:00Z</time>
      </trkpt>
      <trkpt lat="43.46421" lon="-1.57799">
        <ele>3.1</ele>
        <time>2021-09-05T07:26:01Z</time>
      </trkpt>
      <trkpt lat="43.46421" lon="-1.57799">
        <ele>3.1</ele>
        <time>2021-09-05T07:26:02Z</time>
      </trkpt>
      <trkpt lat="43.46419" lon="-1.57803">
        <ele>3</ele>
        <time>2021-09-05T07:26:03Z</time>
      </trkpt>
      <trkpt lat="43.46419" lon="-1.57803">
        <ele>3</ele>
        <time>2021-09-05T07:26:04Z</time>
      </trkpt>
      <trkpt lat="43.4642" lon="-1.57806">
        <ele>3</ele>
        <time>2021-09-05T07:26:05Z</time>
      </trkpt>
      <trkpt lat="43.4642" lon="-1.57806">
        <ele>3</ele>
        <time>2021-09-05T07:26:06Z</time>
      </trkpt>
      <trkpt lat="43.46421" lon="-1.57809">
        <ele>3</ele>
        <time>2021-09-05T07:26:07Z</time>
      </trkpt>
      <trkpt lat="43.46421" lon="-1.57809">
        <ele>2.9</ele>
        <time>2021-09-05T07:26:08Z</time>
      </trkpt>
      <trkpt lat="43.46423" lon="-1.5781">
        <ele>2.9</ele>
        <time>2021-09-05T07:26:09Z</time>
      </trkpt>
      <trkpt lat="43.46423" lon="-1.5781">
        <ele>2.8</ele>
        <time>2021-09-05T07:26:10Z</time>
      </trkpt>
      <trkpt lat="43.46423" lon="-1.5781">
        <ele>2.8</ele>
        <time>2021-09-05T07:26:11Z</time>
      </trkpt>
      <trkpt lat="43.46423" lon="-1.57813">
        <ele>2.8</ele>
        <time>2021-09-05T07:26:12Z</time>
      </trkpt>
      <trkpt lat="43.46422" lon="-1.57815">
        <ele>2.8</ele>
        <time>2021-09-05T07:26:13Z</time>
      </trkpt>
      <trkpt lat="43.46422" lon="-1.57815">
        <ele>2.7</ele>
        <time>2021-09-05T07:26:14Z</time>
      </trkpt>
      <trkpt lat="43.46422" lon="-1.57815">
        <ele>2.7</ele>
        <time>2021-09-05T07:26:15Z</time>
      </trkpt>
      <trkpt lat="43.46421" lon="-1.57818">
        <ele>2.7</ele>
        <time>2021-09-05T07:26:16Z</time>
      </trkpt>
      <trkpt lat="43.46421" lon="-1.57818">
        <ele>2.7</ele>
        <time>2021-09-05T07:26:17Z</time>
      </trkpt>
      <trkpt lat="43.46423" lon="-1.5782">
        <ele>2.6</ele>
        <time>2021-09-05T07:26:18Z</time>
      </trkpt>
      <trkpt lat="43.46423" lon="-1.5782">
        <ele>2.6</ele>
        <time>2021-09-05T07:26:19Z</time>
      </trkpt>
      <trkpt lat="43.46423" lon="-1.5782">
        <ele>2.6</ele>
        <time>2021-09-05T07:26:20Z</time>
      </trkpt>
      <trkpt lat="43.46426" lon="-1.5782">
        <ele>2.6</ele>
        <time>2021-09-05T07:26:21Z</time>
      </trkpt>
      <trkpt lat="43.46428" lon="-1.57821">
        <ele>2.6</ele>
        <time>2021-09-05T07:26:22Z</time>
      </trkpt>
      <trkpt lat="43.46428" lon="-1.57821">
        <ele>2.6</ele>
        <time>2021-09-05T07:26:23Z</time>
      </trkpt>
      <trkpt lat="43.46432" lon="-1.5782">
        <ele>2.6</ele>
        <time>2021-09-05T07:26:24Z</time>
      </trkpt>
      <trkpt lat="43.46434" lon="-1.57822">
        <ele>2.6</ele>
        <time>2021-09-05T07:26:25Z</time>
      </trkpt>
      <trkpt lat="43.46435" lon="-1.57824">
        <ele>2.6</ele>
        <time>2021-09-05T07:26:26Z</time>
      </trkpt>
      <trkpt lat="43.46438" lon="-1.57826">
        <ele>2.5</ele>
        <time>2021-09-05T07:26:27Z</time>
      </trkpt>
      <trkpt lat="43.46441" lon="-1.57828">
        <ele>2.5</ele>
        <time>2021-09-05T07:26:28Z</time>
      </trkpt>
      <trkpt lat="43.46441" lon="-1.57828">
        <ele>2.5</ele>
        <time>2021-09-05T07:26:29Z</time>
      </trkpt>
      <trkpt lat="43.4644" lon="-1.5783">
        <ele>2.5</ele>
        <time>2021-09-05T07:26:30Z</time>
      </trkpt>
      <trkpt lat="43.4644" lon="-1.5783">
        <ele>2.5</ele>
        <time>2021-09-05T07:26:31Z</time>
      </trkpt>
      <trkpt lat="43.46438" lon="-1.57832">
        <ele>2.5</ele>
        <time>2021-09-05T07:26:32Z</time>
      </trkpt>
      <trkpt lat="43.46438" lon="-1.57832">
        <ele>2.5</ele>
        <time>2021-09-05T07:26:33Z</time>
      </trkpt>
      <trkpt lat="43.46438" lon="-1.57832">
        <ele>2.5</ele>
        <time>2021-09-05T07:26:34Z</time>
      </trkpt>
      <trkpt lat="43.46438" lon="-1.57832">
        <ele>2.4</ele>
        <time>2021-09-05T07:26:35Z</time>
      </trkpt>
      <trkpt lat="43.46439" lon="-1.57834">
        <ele>2.4</ele>
        <time>2021-09-05T07:26:36Z</time>
      </trkpt>
      <trkpt lat="43.46439" lon="-1.57834">
        <ele>2.4</ele>
        <time>2021-09-05T07:26:37Z</time>
      </trkpt>
      <trkpt lat="43.46439" lon="-1.57834">
        <ele>2.4</ele>
        <time>2021-09-05T07:26:38Z</time>
      </trkpt>
      <trkpt lat="43.4644" lon="-1.57838">
        <ele>2.4</ele>
        <time>2021-09-05T07:26:39Z</time>
      </trkpt>
      <trkpt lat="43.4644" lon="-1.57838">
        <ele>2.4</ele>
        <time>2021-09-05T07:26:40Z</time>
      </trkpt>
      <trkpt lat="43.46441" lon="-1.5784">
        <ele>2.4</ele>
        <time>2021-09-05T07:26:41Z</time>
      </trkpt>
      <trkpt lat="43.46441" lon="-1.5784">
        <ele>2.4</ele>
        <time>2021-09-05T07:26:42Z</time>
      </trkpt>
      <trkpt lat="43.46441" lon="-1.57843">
        <ele>2.4</ele>
        <time>2021-09-05T07:26:43Z</time>
      </trkpt>
      <trkpt lat="43.46441" lon="-1.57843">
        <ele>2.3</ele>
        <time>2021-09-05T07:26:44Z</time>
      </trkpt>
      <trkpt lat="43.46441" lon="-1.57846">
        <ele>2.3</ele>
        <time>2021-09-05T07:26:45Z</time>
      </trkpt>
      <trkpt lat="43.46441" lon="-1.57846">
        <ele>2.3</ele>
        <time>2021-09-05T07:26:46Z</time>
      </trkpt>
      <trkpt lat="43.46443" lon="-1.57848">
        <ele>2.3</ele>
        <time>2021-09-05T07:26:47Z</time>
      </trkpt>
      <trkpt lat="43.46443" lon="-1.57848">
        <ele>2.3</ele>
        <time>2021-09-05T07:26:48Z</time>
      </trkpt>
      <trkpt lat="43.46445" lon="-1.57852">
        <ele>2.3</ele>
        <time>2021-09-05T07:26:49Z</time>
      </trkpt>
      <trkpt lat="43.46445" lon="-1.57852">
        <ele>2.3</ele>
        <time>2021-09-05T07:26:50Z</time>
      </trkpt>
      <trkpt lat="43.46446" lon="-1.57855">
        <ele>2.3</ele>
        <time>2021-09-05T07:26:51Z</time>
      </trkpt>
      <trkpt lat="43.46446" lon="-1.57855">
        <ele>2.2</ele>
        <time>2021-09-05T07:26:52Z</time>
      </trkpt>
      <trkpt lat="43.46447" lon="-1.57858">
        <ele>2.2</ele>
        <time>2021-09-05T07:26:53Z</time>
      </trkpt>
      <trkpt lat="43.46447" lon="-1.57858">
        <ele>2.2</ele>
        <time>2021-09-05T07:26:54Z</time>
      </trkpt>
      <trkpt lat="43.46448" lon="-1.57861">
        <ele>2.2</ele>
        <time>2021-09-05T07:26:55Z</time>
      </trkpt>
      <trkpt lat="43.46448" lon="-1.57861">
        <ele>2.2</ele>
        <time>2021-09-05T07:26:56Z</time>
      </trkpt>
      <trkpt lat="43.46449" lon="-1.57864">
        <ele>2.2</ele>
        <time>2021-09-05T07:26:57Z</time>
      </trkpt>
      <trkpt lat="43.46449" lon="-1.57864">
        <ele>2.2</ele>
        <time>2021-09-05T07:26:58Z</time>
      </trkpt>
      <trkpt lat="43.46449" lon="-1.57867">
        <ele>2.2</ele>
        <time>2021-09-05T07:26:59Z</time>
      </trkpt>
      <trkpt lat="43.46449" lon="-1.57867">
        <ele>2.2</ele>
        <time>2021-09-05T07:27:00Z</time>
      </trkpt>
      <trkpt lat="43.46449" lon="-1.5787">
        <ele>2.1</ele>
        <time>2021-09-05T07:27:01Z</time>
      </trkpt>
      <trkpt lat="43.46449" lon="-1.5787">
        <ele>2.1</ele>
        <time>2021-09-05T07:27:02Z</time>
      </trkpt>
      <trkpt lat="43.46449" lon="-1.5787">
        <ele>2.1</ele>
        <time>2021-09-05T07:27:03Z</time>
      </trkpt>
      <trkpt lat="43.46449" lon="-1.5787">
        <ele>2.1</ele>
        <time>2021-09-05T07:27:04Z</time>
      </trkpt>
      <trkpt lat="43.46449" lon="-1.5787">
        <ele>2.1</ele>
        <time>2021-09-05T07:27:05Z</time>
      </trkpt>
      <trkpt lat="43.46449" lon="-1.57873">
        <ele>2.1</ele>
        <time>2021-09-05T07:27:06Z</time>
      </trkpt>
      <trkpt lat="43.46449" lon="-1.57873">
        <ele>2.1</ele>
        <time>2021-09-05T07:27:07Z</time>
      </trkpt>
      <trkpt lat="43.46449" lon="-1.57873">
        <ele>2.1</ele>
        <time>2021-09-05T07:27:08Z</time>
      </trkpt>
      <trkpt lat="43.46449" lon="-1.57873">
        <ele>2</ele>
        <time>2021-09-05T07:27:09Z</time>
      </trkpt>
      <trkpt lat="43.46449" lon="-1.57876">
        <ele>2</ele>
        <time>2021-09-05T07:27:10Z</time>
      </trkpt>
      <trkpt lat="43.46449" lon="-1.57876">
        <ele>2</ele>
        <time>2021-09-05T07:27:11Z</time>
      </trkpt>
      <trkpt lat="43.46449" lon="-1.57876">
        <ele>2</ele>
        <time>2021-09-05T07:27:12Z</time>
      </trkpt>
      <trkpt lat="43.4645" lon="-1.57879">
        <ele>2</ele>
        <time>2021-09-05T07:27:13Z</time>
      </trkpt>
      <trkpt lat="43.4645" lon="-1.57879">
        <ele>2</ele>
        <time>2021-09-05T07:27:14Z</time>
      </trkpt>
      <trkpt lat="43.4645" lon="-1.57879">
        <ele>2</ele>
        <time>2021-09-05T07:27:15Z</time>
      </trkpt>
      <trkpt lat="43.46453" lon="-1.57881">
        <ele>2</ele>
        <time>2021-09-05T07:27:16Z</time>
      </trkpt>
      <trkpt lat="43.46453" lon="-1.57881">
        <ele>2</ele>
        <time>2021-09-05T07:27:17Z</time>
      </trkpt>
      <trkpt lat="43.46456" lon="-1.57885">
        <ele>1.9</ele>
        <time>2021-09-05T07:27:18Z</time>
      </trkpt>
      <trkpt lat="43.46456" lon="-1.57885">
        <ele>1.9</ele>
        <time>2021-09-05T07:27:19Z</time>
      </trkpt>
      <trkpt lat="43.46456" lon="-1.57888">
        <ele>1.9</ele>
        <time>2021-09-05T07:27:20Z</time>
      </trkpt>
      <trkpt lat="43.46456" lon="-1.57888">
        <ele>1.9</ele>
        <time>2021-09-05T07:27:21Z</time>
      </trkpt>
      <trkpt lat="43.46457" lon="-1.5789">
        <ele>1.9</ele>
        <time>2021-09-05T07:27:22Z</time>
      </trkpt>
      <trkpt lat="43.46457" lon="-1.5789">
        <ele>1.9</ele>
        <time>2021-09-05T07:27:23Z</time>
      </trkpt>
      <trkpt lat="43.46457" lon="-1.5789">
        <ele>1.9</ele>
        <time>2021-09-05T07:27:24Z</time>
      </trkpt>
      <trkpt lat="43.46458" lon="-1.57893">
        <ele>1.9</ele>
        <time>2021-09-05T07:27:25Z</time>
      </trkpt>
      <trkpt lat="43.46458" lon="-1.57893">
        <ele>1.8</ele>
        <time>2021-09-05T07:27:26Z</time>
      </trkpt>
      <trkpt lat="43.4646" lon="-1.57897">
        <ele>1.8</ele>
        <time>2021-09-05T07:27:27Z</time>
      </trkpt>
      <trkpt lat="43.46461" lon="-1.57899">
        <ele>1.8</ele>
        <time>2021-09-05T07:27:28Z</time>
      </trkpt>
      <trkpt lat="43.46462" lon="-1.579">
        <ele>1.8</ele>
        <time>2021-09-05T07:27:29Z</time>
      </trkpt>
      <trkpt lat="43.46462" lon="-1.57901">
        <ele>1.8</ele>
        <time>2021-09-05T07:27:30Z</time>
      </trkpt>
      <trkpt lat="43.46462" lon="-1.57903">
        <ele>1.8</ele>
        <time>2021-09-05T07:27:31Z</time>
      </trkpt>
      <trkpt lat="43.46462" lon="-1.57903">
        <ele>1.8</ele>
        <time>2021-09-05T07:27:32Z</time>
      </trkpt>
      <trkpt lat="43.46465" lon="-1.57902">
        <ele>1.8</ele>
        <time>2021-09-05T07:27:33Z</time>
      </trkpt>
      <trkpt lat="43.46466" lon="-1.579">
        <ele>1.8</ele>
        <time>2021-09-05T07:27:34Z</time>
      </trkpt>
      <trkpt lat="43.46466" lon="-1.579">
        <ele>1.7</ele>
        <time>2021-09-05T07:27:35Z</time>
      </trkpt>
      <trkpt lat="43.46469" lon="-1.57901">
        <ele>1.7</ele>
        <time>2021-09-05T07:27:36Z</time>
      </trkpt>
      <trkpt lat="43.46469" lon="-1.57901">
        <ele>1.7</ele>
        <time>2021-09-05T07:27:37Z</time>
      </trkpt>
      <trkpt lat="43.46469" lon="-1.57901">
        <ele>1.7</ele>
        <time>2021-09-05T07:27:38Z</time>
      </trkpt>
      <trkpt lat="43.46469" lon="-1.57901">
        <ele>1.7</ele>
        <time>2021-09-05T07:27:39Z</time>
      </trkpt>
      <trkpt lat="43.46469" lon="-1.57901">
        <ele>1.7</ele>
        <time>2021-09-05T07:27:40Z</time>
      </trkpt>
      <trkpt lat="43.4647" lon="-1.57903">
        <ele>1.7</ele>
        <time>2021-09-05T07:27:41Z</time>
      </trkpt>
      <trkpt lat="43.4647" lon="-1.57903">
        <ele>1.7</ele>
        <time>2021-09-05T07:27:42Z</time>
      </trkpt>
      <trkpt lat="43.46472" lon="-1.57905">
        <ele>1.6</ele>
        <time>2021-09-05T07:27:43Z</time>
      </trkpt>
      <trkpt lat="43.46472" lon="-1.57905">
        <ele>1.6</ele>
        <time>2021-09-05T07:27:44Z</time>
      </trkpt>
      <trkpt lat="43.46473" lon="-1.57908">
        <ele>1.6</ele>
        <time>2021-09-05T07:27:45Z</time>
      </trkpt>
      <trkpt lat="43.46473" lon="-1.57908">
        <ele>1.6</ele>
        <time>2021-09-05T07:27:46Z</time>
      </trkpt>
      <trkpt lat="43.46474" lon="-1.57911">
        <ele>1.6</ele>
        <time>2021-09-05T07:27:47Z</time>
      </trkpt>
      <trkpt lat="43.46474" lon="-1.57911">
        <ele>1.6</ele>
        <time>2021-09-05T07:27:48Z</time>
      </trkpt>
      <trkpt lat="43.46474" lon="-1.57911">
        <ele>1.6</ele>
        <time>2021-09-05T07:27:49Z</time>
      </trkpt>
      <trkpt lat="43.46475" lon="-1.57914">
        <ele>1.6</ele>
        <time>2021-09-05T07:27:50Z</time>
      </trkpt>
      <trkpt lat="43.46475" lon="-1.57914">
        <ele>1.6</ele>
        <time>2021-09-05T07:27:51Z</time>
      </trkpt>
      <trkpt lat="43.46475" lon="-1.57914">
        <ele>1.5</ele>
        <time>2021-09-05T07:27:52Z</time>
      </trkpt>
      <trkpt lat="43.46476" lon="-1.57917">
        <ele>1.5</ele>
        <time>2021-09-05T07:27:53Z</time>
      </trkpt>
      <trkpt lat="43.46476" lon="-1.57917">
        <ele>1.5</ele>
        <time>2021-09-05T07:27:54Z</time>
      </trkpt>
      <trkpt lat="43.46476" lon="-1.57917">
        <ele>1.5</ele>
        <time>2021-09-05T07:27:55Z</time>
      </trkpt>
      <trkpt lat="43.46477" lon="-1.57919">
        <ele>1.5</ele>
        <time>2021-09-05T07:27:56Z</time>
      </trkpt>
      <trkpt lat="43.46477" lon="-1.57919">
        <ele>1.5</ele>
        <time>2021-09-05T07:27:57Z</time>
      </trkpt>
      <trkpt lat="43.46477" lon="-1.57919">
        <ele>1.5</ele>
        <time>2021-09-05T07:27:58Z</time>
      </trkpt>
      <trkpt lat="43.46477" lon="-1.57919">
        <ele>1.5</ele>
        <time>2021-09-05T07:27:59Z</time>
      </trkpt>
      <trkpt lat="43.46479" lon="-1.57922">
        <ele>1.4</ele>
        <time>2021-09-05T07:28:00Z</time>
      </trkpt>
      <trkpt lat="43.46479" lon="-1.57922">
        <ele>1.4</ele>
        <time>2021-09-05T07:28:01Z</time>
      </trkpt>
      <trkpt lat="43.46479" lon="-1.5792">
        <ele>1.4</ele>
        <time>2021-09-05T07:28:02Z</time>
      </trkpt>
      <trkpt lat="43.46479" lon="-1.5792">
        <ele>1.4</ele>
        <time>2021-09-05T07:28:03Z</time>
      </trkpt>
      <trkpt lat="43.46483" lon="-1.57918">
        <ele>1.4</ele>
        <time>2021-09-05T07:28:04Z</time>
      </trkpt>
      <trkpt lat="43.46485" lon="-1.57918">
        <ele>1.4</ele>
        <time>2021-09-05T07:28:05Z</time>
      </trkpt>
      <trkpt lat="43.46487" lon="-1.57917">
        <ele>1.4</ele>
        <time>2021-09-05T07:28:06Z</time>
      </trkpt>
      <trkpt lat="43.46489" lon="-1.57917">
        <ele>1.4</ele>
        <time>2021-09-05T07:28:07Z</time>
      </trkpt>
      <trkpt lat="43.46489" lon="-1.57917">
        <ele>1.3</ele>
        <time>2021-09-05T07:28:08Z</time>
      </trkpt>
      <trkpt lat="43.46493" lon="-1.57915">
        <ele>1.3</ele>
        <time>2021-09-05T07:28:09Z</time>
      </trkpt>
      <trkpt lat="43.46493" lon="-1.57915">
        <ele>1.3</ele>
        <time>2021-09-05T07:28:10Z</time>
      </trkpt>
      <trkpt lat="43.46496" lon="-1.57913">
        <ele>1.3</ele>
        <time>2021-09-05T07:28:11Z</time>
      </trkpt>
      <trkpt lat="43.46498" lon="-1.57911">
        <ele>1.3</ele>
        <time>2021-09-05T07:28:12Z</time>
      </trkpt>
      <trkpt lat="43.46498" lon="-1.57911">
        <ele>1.3</ele>
        <time>2021-09-05T07:28:13Z</time>
      </trkpt>
      <trkpt lat="43.46499" lon="-1.57907">
        <ele>1.3</ele>
        <time>2021-09-05T07:28:14Z</time>
      </trkpt>
      <trkpt lat="43.46499" lon="-1.57907">
        <ele>1.3</ele>
        <time>2021-09-05T07:28:15Z</time>
      </trkpt>
      <trkpt lat="43.46501" lon="-1.57904">
        <ele>1.3</ele>
        <time>2021-09-05T07:28:16Z</time>
      </trkpt>
      <trkpt lat="43.46501" lon="-1.57904">
        <ele>1.2</ele>
        <time>2021-09-05T07:28:17Z</time>
      </trkpt>
      <trkpt lat="43.46503" lon="-1.57902">
        <ele>1.2</ele>
        <time>2021-09-05T07:28:18Z</time>
      </trkpt>
      <trkpt lat="43.46503" lon="-1.57902">
        <ele>1.2</ele>
        <time>2021-09-05T07:28:19Z</time>
      </trkpt>
      <trkpt lat="43.46504" lon="-1.57899">
        <ele>1.2</ele>
        <time>2021-09-05T07:28:20Z</time>
      </trkpt>
      <trkpt lat="43.46501" lon="-1.57895">
        <ele>1.2</ele>
        <time>2021-09-05T07:28:21Z</time>
      </trkpt>
      <trkpt lat="43.46501" lon="-1.57895">
        <ele>1.2</ele>
        <time>2021-09-05T07:28:22Z</time>
      </trkpt>
      <trkpt lat="43.46505" lon="-1.57898">
        <ele>1.2</ele>
        <time>2021-09-05T07:28:23Z</time>
      </trkpt>
      <trkpt lat="43.46505" lon="-1.57898">
        <ele>1.2</ele>
        <time>2021-09-05T07:28:24Z</time>
      </trkpt>
      <trkpt lat="43.46505" lon="-1.57898">
        <ele>1.1</ele>
        <time>2021-09-05T07:28:25Z</time>
      </trkpt>
      <trkpt lat="43.46505" lon="-1.57898">
        <ele>1.1</ele>
        <time>2021-09-05T07:28:26Z</time>
      </trkpt>
      <trkpt lat="43.46505" lon="-1.57898">
        <ele>1.1</ele>
        <time>2021-09-05T07:28:27Z</time>
      </trkpt>
      <trkpt lat="43.46507" lon="-1.57899">
        <ele>1.1</ele>
        <time>2021-09-05T07:28:28Z</time>
      </trkpt>
      <trkpt lat="43.46507" lon="-1.57899">
        <ele>1.1</ele>
        <time>2021-09-05T07:28:29Z</time>
      </trkpt>
      <trkpt lat="43.46509" lon="-1.57897">
        <ele>1.1</ele>
        <time>2021-09-05T07:28:30Z</time>
      </trkpt>
      <trkpt lat="43.46509" lon="-1.57897">
        <ele>1.1</ele>
        <time>2021-09-05T07:28:31Z</time>
      </trkpt>
      <trkpt lat="43.46511" lon="-1.57896">
        <ele>1.1</ele>
        <time>2021-09-05T07:28:32Z</time>
      </trkpt>
      <trkpt lat="43.46511" lon="-1.57896">
        <ele>1.1</ele>
        <time>2021-09-05T07:28:33Z</time>
      </trkpt>
      <trkpt lat="43.46513" lon="-1.57895">
        <ele>1</ele>
        <time>2021-09-05T07:28:34Z</time>
      </trkpt>
      <trkpt lat="43.46513" lon="-1.57895">
        <ele>1</ele>
        <time>2021-09-05T07:28:35Z</time>
      </trkpt>
      <trkpt lat="43.46513" lon="-1.57895">
        <ele>1</ele>
        <time>2021-09-05T07:28:36Z</time>
      </trkpt>
      <trkpt lat="43.46513" lon="-1.57895">
        <ele>1</ele>
        <time>2021-09-05T07:28:37Z</time>
      </trkpt>
      <trkpt lat="43.46513" lon="-1.57895">
        <ele>1</ele>
        <time>2021-09-05T07:28:38Z</time>
      </trkpt>
      <trkpt lat="43.46516" lon="-1.57897">
        <ele>1</ele>
        <time>2021-09-05T07:28:39Z</time>
      </trkpt>
      <trkpt lat="43.46516" lon="-1.57897">
        <ele>1</ele>
        <time>2021-09-05T07:28:40Z</time>
      </trkpt>
      <trkpt lat="43.46516" lon="-1.57897">
        <ele>1</ele>
        <time>2021-09-05T07:28:41Z</time>
      </trkpt>
      <trkpt lat="43.46516" lon="-1.57897">
        <ele>0.9</ele>
        <time>2021-09-05T07:28:42Z</time>
      </trkpt>
      <trkpt lat="43.46516" lon="-1.57897">
        <ele>0.9</ele>
        <time>2021-09-05T07:28:43Z</time>
      </trkpt>
      <trkpt lat="43.46516" lon="-1.57897">
        <ele>0.9</ele>
        <time>2021-09-05T07:28:44Z</time>
      </trkpt>
      <trkpt lat="43.46516" lon="-1.57896">
        <ele>0.9</ele>
        <time>2021-09-05T07:28:45Z</time>
      </trkpt>
      <trkpt lat="43.46517" lon="-1.57896">
        <ele>0.9</ele>
        <time>2021-09-05T07:28:46Z</time>
      </trkpt>
      <trkpt lat="43.46518" lon="-1.57895">
        <ele>0.9</ele>
        <time>2021-09-05T07:28:47Z</time>
      </trkpt>
      <trkpt lat="43.46519" lon="-1.57895">
        <ele>0.9</ele>
        <time>2021-09-05T07:28:48Z</time>
      </trkpt>
      <trkpt lat="43.4652" lon="-1.57894">
        <ele>0.9</ele>
        <time>2021-09-05T07:28:49Z</time>
      </trkpt>
      <trkpt lat="43.46521" lon="-1.57894">
        <ele>0.9</ele>
        <time>2021-09-05T07:28:50Z</time>
      </trkpt>
      <trkpt lat="43.46521" lon="-1.57894">
        <ele>0.8</ele>
        <time>2021-09-05T07:28:51Z</time>
      </trkpt>
      <trkpt lat="43.46522" lon="-1.57891">
        <ele>0.8</ele>
        <time>2021-09-05T07:28:52Z</time>
      </trkpt>
      <trkpt lat="43.46522" lon="-1.57891">
        <ele>0.8</ele>
        <time>2021-09-05T07:28:53Z</time>
      </trkpt>
      <trkpt lat="43.46523" lon="-1.57888">
        <ele>0.8</ele>
        <time>2021-09-05T07:28:54Z</time>
      </trkpt>
      <trkpt lat="43.46523" lon="-1.57888">
        <ele>0.8</ele>
        <time>2021-09-05T07:28:55Z</time>
      </trkpt>
      <trkpt lat="43.46523" lon="-1.57888">
        <ele>0.8</ele>
        <time>2021-09-05T07:28:56Z</time>
      </trkpt>
      <trkpt lat="43.46525" lon="-1.57888">
        <ele>0.8</ele>
        <time>2021-09-05T07:28:57Z</time>
      </trkpt>
      <trkpt lat="43.46525" lon="-1.57888">
        <ele>0.8</ele>
        <time>2021-09-05T07:28:58Z</time>
      </trkpt>
      <trkpt lat="43.46527" lon="-1.57886">
        <ele>0.7</ele>
        <time>2021-09-05T07:28:59Z</time>
      </trkpt>
      <trkpt lat="43.46527" lon="-1.57886">
        <ele>0.7</ele>
        <time>2021-09-05T07:29:00Z</time>
      </trkpt>
      <trkpt lat="43.46529" lon="-1.57883">
        <ele>0.7</ele>
        <time>2021-09-05T07:29:01Z</time>
      </trkpt>
      <trkpt lat="43.46529" lon="-1.57883">
        <ele>0.7</ele>
        <time>2021-09-05T07:29:02Z</time>
      </trkpt>
      <trkpt lat="43.46532" lon="-1.57881">
        <ele>0.7</ele>
        <time>2021-09-05T07:29:03Z</time>
      </trkpt>
      <trkpt lat="43.46532" lon="-1.57881">
        <ele>0.7</ele>
        <time>2021-09-05T07:29:04Z</time>
      </trkpt>
      <trkpt lat="43.46532" lon="-1.57881">
        <ele>0.7</ele>
        <time>2021-09-05T07:29:05Z</time>
      </trkpt>
      <trkpt lat="43.46532" lon="-1.57881">
        <ele>0.7</ele>
        <time>2021-09-05T07:29:06Z</time>
      </trkpt>
      <trkpt lat="43.46533" lon="-1.5788">
        <ele>0.7</ele>
        <time>2021-09-05T07:29:07Z</time>
      </trkpt>
      <trkpt lat="43.46533" lon="-1.5788">
        <ele>0.6</ele>
        <time>2021-09-05T07:29:08Z</time>
      </trkpt>
      <trkpt lat="43.46535" lon="-1.57878">
        <ele>0.6</ele>
        <time>2021-09-05T07:29:09Z</time>
      </trkpt>
      <trkpt lat="43.46535" lon="-1.57878">
        <ele>0.6</ele>
        <time>2021-09-05T07:29:10Z</time>
      </trkpt>
      <trkpt lat="43.46538" lon="-1.57878">
        <ele>0.6</ele>
        <time>2021-09-05T07:29:11Z</time>
      </trkpt>
      <trkpt lat="43.4654" lon="-1.5788">
        <ele>0.6</ele>
        <time>2021-09-05T07:29:12Z</time>
      </trkpt>
      <trkpt lat="43.46541" lon="-1.57878">
        <ele>0.6</ele>
        <time>2021-09-05T07:29:13Z</time>
      </trkpt>
      <trkpt lat="43.46541" lon="-1.57878">
        <ele>0.6</ele>
        <time>2021-09-05T07:29:14Z</time>
      </trkpt>
      <trkpt lat="43.46541" lon="-1.57878">
        <ele>0.6</ele>
        <time>2021-09-05T07:29:15Z</time>
      </trkpt>
      <trkpt lat="43.46541" lon="-1.57878">
        <ele>0.5</ele>
        <time>2021-09-05T07:29:16Z</time>
      </trkpt>
      <trkpt lat="43.46541" lon="-1.57878">
        <ele>0.5</ele>
        <time>2021-09-05T07:29:17Z</time>
      </trkpt>
      <trkpt lat="43.46541" lon="-1.57878">
        <ele>0.5</ele>
        <time>2021-09-05T07:29:18Z</time>
      </trkpt>
      <trkpt lat="43.46542" lon="-1.57878">
        <ele>0.5</ele>
        <time>2021-09-05T07:29:19Z</time>
      </trkpt>
      <trkpt lat="43.46543" lon="-1.57878">
        <ele>0.5</ele>
        <time>2021-09-05T07:29:20Z</time>
      </trkpt>
      <trkpt lat="43.46545" lon="-1.57877">
        <ele>0.5</ele>
        <time>2021-09-05T07:29:21Z</time>
      </trkpt>
      <trkpt lat="43.46546" lon="-1.57877">
        <ele>0.5</ele>
        <time>2021-09-05T07:29:22Z</time>
      </trkpt>
      <trkpt lat="43.46547" lon="-1.57877">
        <ele>0.5</ele>
        <time>2021-09-05T07:29:23Z</time>
      </trkpt>
      <trkpt lat="43.46548" lon="-1.57876">
        <ele>0.5</ele>
        <time>2021-09-05T07:29:24Z</time>
      </trkpt>
      <trkpt lat="43.46549" lon="-1.57876">
        <ele>0.4</ele>
        <time>2021-09-05T07:29:25Z</time>
      </trkpt>
      <trkpt lat="43.4655" lon="-1.57876">
        <ele>0.4</ele>
        <time>2021-09-05T07:29:26Z</time>
      </trkpt>
      <trkpt lat="43.46551" lon="-1.57876">
        <ele>0.4</ele>
        <time>2021-09-05T07:29:27Z</time>
      </trkpt>
      <trkpt lat="43.46552" lon="-1.57875">
        <ele>0.4</ele>
        <time>2021-09-05T07:29:28Z</time>
      </trkpt>
      <trkpt lat="43.46553" lon="-1.57875">
        <ele>0.4</ele>
        <time>2021-09-05T07:29:29Z</time>
      </trkpt>
      <trkpt lat="43.46553" lon="-1.57875">
        <ele>0.4</ele>
        <time>2021-09-05T07:29:30Z</time>
      </trkpt>
      <trkpt lat="43.46556" lon="-1.57874">
        <ele>0.4</ele>
        <time>2021-09-05T07:29:31Z</time>
      </trkpt>
      <trkpt lat="43.46556" lon="-1.57874">
        <ele>0.4</ele>
        <time>2021-09-05T07:29:32Z</time>
      </trkpt>
      <trkpt lat="43.46558" lon="-1.57873">
        <ele>0.3</ele>
        <time>2021-09-05T07:29:33Z</time>
      </trkpt>
      <trkpt lat="43.46558" lon="-1.57873">
        <ele>0.3</ele>
        <time>2021-09-05T07:29:34Z</time>
      </trkpt>
      <trkpt lat="43.4656" lon="-1.57872">
        <ele>0.3</ele>
        <time>2021-09-05T07:29:35Z</time>
      </trkpt>
      <trkpt lat="43.4656" lon="-1.57872">
        <ele>0.3</ele>
        <time>2021-09-05T07:29:36Z</time>
      </trkpt>
      <trkpt lat="43.4656" lon="-1.57872">
        <ele>0.3</ele>
        <time>2021-09-05T07:29:37Z</time>
      </trkpt>
      <trkpt lat="43.46562" lon="-1.5787">
        <ele>0.3</ele>
        <time>2021-09-05T07:29:38Z</time>
      </trkpt>
      <trkpt lat="43.46562" lon="-1.5787">
        <ele>0.3</ele>
        <time>2021-09-05T07:29:39Z</time>
      </trkpt>
      <trkpt lat="43.46562" lon="-1.5787">
        <ele>0.3</ele>
        <time>2021-09-05T07:29:40Z</time>
      </trkpt>
      <trkpt lat="43.46562" lon="-1.5787">
        <ele>0.3</ele>
        <time>2021-09-05T07:29:41Z</time>
      </trkpt>
      <trkpt lat="43.46565" lon="-1.57868">
        <ele>0.2</ele>
        <time>2021-09-05T07:29:42Z</time>
      </trkpt>
      <trkpt lat="43.46565" lon="-1.57868">
        <ele>0.2</ele>
        <time>2021-09-05T07:29:43Z</time>
      </trkpt>
      <trkpt lat="43.46565" lon="-1.57868">
        <ele>0.2</ele>
        <time>2021-09-05T07:29:44Z</time>
      </trkpt>
      <trkpt lat="43.46567" lon="-1.57869">
        <ele>0.2</ele>
        <time>2021-09-05T07:29:45Z</time>
      </trkpt>
      <trkpt lat="43.46567" lon="-1.57869">
        <ele>0.2</ele>
        <time>2021-09-05T07:29:46Z</time>
      </trkpt>
      <trkpt lat="43.4657" lon="-1.57867">
        <ele>0.2</ele>
        <time>2021-09-05T07:29:47Z</time>
      </trkpt>
      <trkpt lat="43.4657" lon="-1.57867">
        <ele>0.2</ele>
        <time>2021-09-05T07:29:48Z</time>
      </trkpt>
      <trkpt lat="43.4657" lon="-1.57867">
        <ele>0.2</ele>
        <time>2021-09-05T07:29:49Z</time>
      </trkpt>
      <trkpt lat="43.4657" lon="-1.57867">
        <ele>0.1</ele>
        <time>2021-09-05T07:29:50Z</time>
      </trkpt>
      <trkpt lat="43.46573" lon="-1.57864">
        <ele>0.1</ele>
        <time>2021-09-05T07:29:51Z</time>
      </trkpt>
      <trkpt lat="43.46574" lon="-1.57863">
        <ele>0.1</ele>
        <time>2021-09-05T07:29:52Z</time>
      </trkpt>
      <trkpt lat="43.46574" lon="-1.57863">
        <ele>0.1</ele>
        <time>2021-09-05T07:29:53Z</time>
      </trkpt>
      <trkpt lat="43.46577" lon="-1.57862">
        <ele>0.1</ele>
        <time>2021-09-05T07:29:54Z</time>
      </trkpt>
      <trkpt lat="43.46577" lon="-1.57862">
        <ele>0.1</ele>
        <time>2021-09-05T07:29:55Z</time>
      </trkpt>
      <trkpt lat="43.46577" lon="-1.57862">
        <ele>0.1</ele>
        <time>2021-09-05T07:29:56Z</time>
      </trkpt>
      <trkpt lat="43.46577" lon="-1.57862">
        <ele>0.1</ele>
        <time>2021-09-05T07:29:57Z</time>
      </trkpt>
      <trkpt lat="43.46577" lon="-1.57862">
        <time>2021-09-05T07:29:58Z</time>
      </trkpt>
      <trkpt lat="43.46579" lon="-1.57863">
        <time>2021-09-05T07:29:59Z</time>
      </trkpt>
      <trkpt lat="43.4658" lon="-1.57858">
        <time>2021-09-05T07:30:01Z</time>
      </trkpt>
      <trkpt lat="43.4658" lon="-1.57858">
        <time>2021-09-05T07:30:02Z</time>
      </trkpt>
      <trkpt lat="43.4658" lon="-1.57854">
        <time>2021-09-05T07:30:03Z</time>
      </trkpt>
      <trkpt lat="43.4658" lon="-1.57854">
        <time>2021-09-05T07:30:04Z</time>
      </trkpt>
      <trkpt lat="43.46582" lon="-1.57851">
        <time>2021-09-05T07:30:05Z</time>
      </trkpt>
      <trkpt lat="43.46582" lon="-1.57851">
        <time>2021-09-05T07:30:06Z</time>
      </trkpt>
      <trkpt lat="43.46584" lon="-1.5785">
        <time>2021-09-05T07:30:07Z</time>
      </trkpt>
      <trkpt lat="43.46584" lon="-1.5785">
        <ele>-0.1</ele>
        <time>2021-09-05T07:30:08Z</time>
      </trkpt>
      <trkpt lat="43.46587" lon="-1.5785">
        <ele>-0.1</ele>
        <time>2021-09-05T07:30:09Z</time>
      </trkpt>
      <trkpt lat="43.46587" lon="-1.5785">
        <ele>-0.1</ele>
        <time>2021-09-05T07:30:10Z</time>
      </trkpt>
      <trkpt lat="43.46589" lon="-1.57849">
        <ele>-0.1</ele>
        <time>2021-09-05T07:30:11Z</time>
      </trkpt>
      <trkpt lat="43.46589" lon="-1.57849">
        <ele>-0.1</ele>
        <time>2021-09-05T07:30:12Z</time>
      </trkpt>
      <trkpt lat="43.4659" lon="-1.57848">
        <ele>-0.1</ele>
        <time>2021-09-05T07:30:13Z</time>
      </trkpt>
      <trkpt lat="43.4659" lon="-1.57848">
        <ele>-0.1</ele>
        <time>2021-09-05T07:30:14Z</time>
      </trkpt>
      <trkpt lat="43.4659" lon="-1.57848">
        <ele>-0.1</ele>
        <time>2021-09-05T07:30:15Z</time>
      </trkpt>
      <trkpt lat="43.46589" lon="-1.5785">
        <ele>-0.2</ele>
        <time>2021-09-05T07:30:16Z</time>
      </trkpt>
      <trkpt lat="43.46589" lon="-1.5785">
        <ele>-0.2</ele>
        <time>2021-09-05T07:30:17Z</time>
      </trkpt>
      <trkpt lat="43.46589" lon="-1.5785">
        <ele>-0.2</ele>
        <time>2021-09-05T07:30:18Z</time>
      </trkpt>
      <trkpt lat="43.46589" lon="-1.5785">
        <ele>-0.2</ele>
        <time>2021-09-05T07:30:19Z</time>
      </trkpt>
      <trkpt lat="43.46591" lon="-1.57851">
        <ele>-0.2</ele>
        <time>2021-09-05T07:30:20Z</time>
      </trkpt>
      <trkpt lat="43.46591" lon="-1.57851">
        <ele>-0.2</ele>
        <time>2021-09-05T07:30:21Z</time>
      </trkpt>
      <trkpt lat="43.46594" lon="-1.57848">
        <ele>-0.2</ele>
        <time>2021-09-05T07:30:22Z</time>
      </trkpt>
      <trkpt lat="43.46594" lon="-1.57846">
        <ele>-0.2</ele>
        <time>2021-09-05T07:30:23Z</time>
      </trkpt>
      <trkpt lat="43.46595" lon="-1.57844">
        <ele>-0.2</ele>
        <time>2021-09-05T07:30:24Z</time>
      </trkpt>
      <trkpt lat="43.46596" lon="-1.57842">
        <ele>-0.3</ele>
        <time>2021-09-05T07:30:25Z</time>
      </trkpt>
      <trkpt lat="43.46596" lon="-1.57842">
        <ele>-0.3</ele>
        <time>2021-09-05T07:30:26Z</time>
      </trkpt>
      <trkpt lat="43.46597" lon="-1.57839">
        <ele>-0.3</ele>
        <time>2021-09-05T07:30:27Z</time>
      </trkpt>
      <trkpt lat="43.46597" lon="-1.57839">
        <ele>-0.3</ele>
        <time>2021-09-05T07:30:28Z</time>
      </trkpt>
      <trkpt lat="43.46597" lon="-1.57839">
        <ele>-0.3</ele>
        <time>2021-09-05T07:30:29Z</time>
      </trkpt>
      <trkpt lat="43.46598" lon="-1.57836">
        <ele>-0.3</ele>
        <time>2021-09-05T07:30:30Z</time>
      </trkpt>
      <trkpt lat="43.46598" lon="-1.57836">
        <ele>-0.3</ele>
        <time>2021-09-05T07:30:31Z</time>
      </trkpt>
      <trkpt lat="43.46598" lon="-1.57834">
        <ele>-0.3</ele>
        <time>2021-09-05T07:30:32Z</time>
      </trkpt>
      <trkpt lat="43.46598" lon="-1.57834">
        <ele>-0.4</ele>
        <time>2021-09-05T07:30:33Z</time>
      </trkpt>
      <trkpt lat="43.46596" lon="-1.57831">
        <ele>-0.4</ele>
        <time>2021-09-05T07:30:34Z</time>
      </trkpt>
      <trkpt lat="43.46595" lon="-1.57829">
        <ele>-0.4</ele>
        <time>2021-09-05T07:30:35Z</time>
      </trkpt>
      <trkpt lat="43.46595" lon="-1.57829">
        <ele>-0.4</ele>
        <time>2021-09-05T07:30:36Z</time>
      </trkpt>
      <trkpt lat="43.46593" lon="-1.57826">
        <ele>-0.4</ele>
        <time>2021-09-05T07:30:37Z</time>
      </trkpt>
      <trkpt lat="43.46593" lon="-1.57826">
        <ele>-0.4</ele>
        <time>2021-09-05T07:30:38Z</time>
      </trkpt>
      <trkpt lat="43.46592" lon="-1.57824">
        <ele>-0.4</ele>
        <time>2021-09-05T07:30:39Z</time>
      </trkpt>
      <trkpt lat="43.46592" lon="-1.57824">
        <ele>-0.4</ele>
        <time>2021-09-05T07:30:40Z</time>
      </trkpt>
      <trkpt lat="43.46592" lon="-1.5782">
        <ele>-0.4</ele>
        <time>2021-09-05T07:30:41Z</time>
      </trkpt>
      <trkpt lat="43.46592" lon="-1.5782">
        <ele>-0.5</ele>
        <time>2021-09-05T07:30:42Z</time>
      </trkpt>
      <trkpt lat="43.46592" lon="-1.57817">
        <ele>-0.5</ele>
        <time>2021-09-05T07:30:43Z</time>
      </trkpt>
      <trkpt lat="43.46592" lon="-1.57817">
        <ele>-0.5</ele>
        <time>2021-09-05T07:30:44Z</time>
      </trkpt>
      <trkpt lat="43.46592" lon="-1.57816">
        <ele>-0.5</ele>
        <time>2021-09-05T07:30:45Z</time>
      </trkpt>
      <trkpt lat="43.46592" lon="-1.57815">
        <ele>-0.5</ele>
        <time>2021-09-05T07:30:46Z</time>
      </trkpt>
      <trkpt lat="43.46591" lon="-1.57813">
        <ele>-0.5</ele>
        <time>2021-09-05T07:30:47Z</time>
      </trkpt>
      <trkpt lat="43.46591" lon="-1.57812">
        <ele>-0.5</ele>
        <time>2021-09-05T07:30:48Z</time>
      </trkpt>
      <trkpt lat="43.46591" lon="-1.57811">
        <ele>-0.5</ele>
        <time>2021-09-05T07:30:49Z</time>
      </trkpt>
      <trkpt lat="43.46591" lon="-1.57811">
        <ele>-0.6</ele>
        <time>2021-09-05T07:30:50Z</time>
      </trkpt>
      <trkpt lat="43.46591" lon="-1.57811">
        <ele>-0.6</ele>
        <time>2021-09-05T07:30:51Z</time>
      </trkpt>
      <trkpt lat="43.4659" lon="-1.57807">
        <ele>-0.6</ele>
        <time>2021-09-05T07:30:52Z</time>
      </trkpt>
      <trkpt lat="43.4659" lon="-1.57807">
        <ele>-0.6</ele>
        <time>2021-09-05T07:30:53Z</time>
      </trkpt>
      <trkpt lat="43.4659" lon="-1.57807">
        <ele>-0.6</ele>
        <time>2021-09-05T07:30:54Z</time>
      </trkpt>
      <trkpt lat="43.4659" lon="-1.57804">
        <ele>-0.6</ele>
        <time>2021-09-05T07:30:55Z</time>
      </trkpt>
      <trkpt lat="43.4659" lon="-1.57804">
        <ele>-0.6</ele>
        <time>2021-09-05T07:30:56Z</time>
      </trkpt>
      <trkpt lat="43.4659" lon="-1.57804">
        <ele>-0.6</ele>
        <time>2021-09-05T07:30:57Z</time>
      </trkpt>
      <trkpt lat="43.4659" lon="-1.578">
        <ele>-0.6</ele>
        <time>2021-09-05T07:30:58Z</time>
      </trkpt>
      <trkpt lat="43.4659" lon="-1.578">
        <ele>-0.7</ele>
        <time>2021-09-05T07:30:59Z</time>
      </trkpt>
      <trkpt lat="43.4659" lon="-1.57796">
        <ele>-0.7</ele>
        <time>2021-09-05T07:31:00Z</time>
      </trkpt>
      <trkpt lat="43.4659" lon="-1.57796">
        <ele>-0.7</ele>
        <time>2021-09-05T07:31:01Z</time>
      </trkpt>
      <trkpt lat="43.4659" lon="-1.57796">
        <ele>-0.7</ele>
        <time>2021-09-05T07:31:02Z</time>
      </trkpt>
      <trkpt lat="43.46591" lon="-1.57792">
        <ele>-0.7</ele>
        <time>2021-09-05T07:31:03Z</time>
      </trkpt>
      <trkpt lat="43.46591" lon="-1.57792">
        <ele>-0.7</ele>
        <time>2021-09-05T07:31:04Z</time>
      </trkpt>
      <trkpt lat="43.46591" lon="-1.57789">
        <ele>-0.7</ele>
        <time>2021-09-05T07:31:05Z</time>
      </trkpt>
      <trkpt lat="43.46591" lon="-1.57789">
        <ele>-0.7</ele>
        <time>2021-09-05T07:31:06Z</time>
      </trkpt>
      <trkpt lat="43.46591" lon="-1.57789">
        <ele>-0.8</ele>
        <time>2021-09-05T07:31:07Z</time>
      </trkpt>
      <trkpt lat="43.4659" lon="-1.57787">
        <ele>-0.8</ele>
        <time>2021-09-05T07:31:08Z</time>
      </trkpt>
      <trkpt lat="43.4659" lon="-1.57787">
        <ele>-0.8</ele>
        <time>2021-09-05T07:31:09Z</time>
      </trkpt>
      <trkpt lat="43.4659" lon="-1.57787">
        <ele>-0.8</ele>
        <time>2021-09-05T07:31:10Z</time>
      </trkpt>
      <trkpt lat="43.4659" lon="-1.57787">
        <ele>-0.8</ele>
        <time>2021-09-05T07:31:11Z</time>
      </trkpt>
      <trkpt lat="43.4659" lon="-1.57787">
        <ele>-0.8</ele>
        <time>2021-09-05T07:31:12Z</time>
      </trkpt>
      <trkpt lat="43.4659" lon="-1.57787">
        <ele>-0.8</ele>
        <time>2021-09-05T07:31:13Z</time>
      </trkpt>
      <trkpt lat="43.4659" lon="-1.57787">
        <ele>-0.8</ele>
        <time>2021-09-05T07:31:14Z</time>
      </trkpt>
      <trkpt lat="43.4659" lon="-1.57787">
        <ele>-0.8</ele>
        <time>2021-09-05T07:31:15Z</time>
      </trkpt>
      <trkpt lat="43.4659" lon="-1.57787">
        <ele>-0.9</ele>
        <time>2021-09-05T07:31:16Z</time>
      </trkpt>
      <trkpt lat="43.4659" lon="-1.57787">
        <ele>-0.9</ele>
        <time>2021-09-05T07:31:17Z</time>
      </trkpt>
      <trkpt lat="43.4659" lon="-1.57785">
        <ele>-0.9</ele>
        <time>2021-09-05T07:31:18Z</time>
      </trkpt>
      <trkpt lat="43.4659" lon="-1.57784">
        <ele>-0.9</ele>
        <time>2021-09-05T07:31:19Z</time>
      </trkpt>
      <trkpt lat="43.4659" lon="-1.57783">
        <ele>-0.9</ele>
        <time>2021-09-05T07:31:20Z</time>
      </trkpt>
      <trkpt lat="43.4659" lon="-1.57781">
        <ele>-0.9</ele>
        <time>2021-09-05T07:31:21Z</time>
      </trkpt>
      <trkpt lat="43.46589" lon="-1.5778">
        <ele>-0.9</ele>
        <time>2021-09-05T07:31:22Z</time>
      </trkpt>
      <trkpt lat="43.46589" lon="-1.57778">
        <ele>-0.9</ele>
        <time>2021-09-05T07:31:23Z</time>
      </trkpt>
      <trkpt lat="43.46589" lon="-1.57777">
        <ele>-1</ele>
        <time>2021-09-05T07:31:24Z</time>
      </trkpt>
      <trkpt lat="43.46589" lon="-1.57776">
        <ele>-1</ele>
        <time>2021-09-05T07:31:25Z</time>
      </trkpt>
      <trkpt lat="43.46589" lon="-1.57774">
        <ele>-1</ele>
        <time>2021-09-05T07:31:26Z</time>
      </trkpt>
      <trkpt lat="43.46589" lon="-1.57773">
        <ele>-1</ele>
        <time>2021-09-05T07:31:27Z</time>
      </trkpt>
      <trkpt lat="43.46588" lon="-1.57772">
        <ele>-1</ele>
        <time>2021-09-05T07:31:28Z</time>
      </trkpt>
      <trkpt lat="43.46588" lon="-1.5777">
        <ele>-1</ele>
        <time>2021-09-05T07:31:29Z</time>
      </trkpt>
      <trkpt lat="43.46588" lon="-1.57769">
        <ele>-1</ele>
        <time>2021-09-05T07:31:30Z</time>
      </trkpt>
      <trkpt lat="43.46588" lon="-1.57767">
        <ele>-1</ele>
        <time>2021-09-05T07:31:31Z</time>
      </trkpt>
      <trkpt lat="43.46588" lon="-1.57766">
        <ele>-1</ele>
        <time>2021-09-05T07:31:32Z</time>
      </trkpt>
      <trkpt lat="43.46588" lon="-1.57765">
        <ele>-1.1</ele>
        <time>2021-09-05T07:31:33Z</time>
      </trkpt>
      <trkpt lat="43.46587" lon="-1.57763">
        <ele>-1.1</ele>
        <time>2021-09-05T07:31:34Z</time>
      </trkpt>
      <trkpt lat="43.46587" lon="-1.57762">
        <ele>-1.1</ele>
        <time>2021-09-05T07:31:35Z</time>
      </trkpt>
      <trkpt lat="43.46587" lon="-1.57761">
        <ele>-1.1</ele>
        <time>2021-09-05T07:31:36Z</time>
      </trkpt>
      <trkpt lat="43.46587" lon="-1.57759">
        <ele>-1.1</ele>
        <time>2021-09-05T07:31:37Z</time>
      </trkpt>
      <trkpt lat="43.46587" lon="-1.57759">
        <ele>-1.1</ele>
        <time>2021-09-05T07:31:38Z</time>
      </trkpt>
      <trkpt lat="43.46588" lon="-1.57757">
        <ele>-1.1</ele>
        <time>2021-09-05T07:31:39Z</time>
      </trkpt>
      <trkpt lat="43.46588" lon="-1.57757">
        <ele>-1.1</ele>
        <time>2021-09-05T07:31:40Z</time>
      </trkpt>
      <trkpt lat="43.46588" lon="-1.57757">
        <ele>-1.2</ele>
        <time>2021-09-05T07:31:41Z</time>
      </trkpt>
      <trkpt lat="43.46588" lon="-1.57753">
        <ele>-1.2</ele>
        <time>2021-09-05T07:31:42Z</time>
      </trkpt>
      <trkpt lat="43.46588" lon="-1.57753">
        <ele>-1.2</ele>
        <time>2021-09-05T07:31:43Z</time>
      </trkpt>
      <trkpt lat="43.46588" lon="-1.5775">
        <ele>-1.2</ele>
        <time>2021-09-05T07:31:44Z</time>
      </trkpt>
      <trkpt lat="43.46583" lon="-1.57747">
        <ele>-1.2</ele>
        <time>2021-09-05T07:31:45Z</time>
      </trkpt>
      <trkpt lat="43.46583" lon="-1.57747">
        <ele>-1.2</ele>
        <time>2021-09-05T07:31:46Z</time>
      </trkpt>
      <trkpt lat="43.46583" lon="-1.57743">
        <ele>-1.2</ele>
        <time>2021-09-05T07:31:47Z</time>
      </trkpt>
      <trkpt lat="43.46583" lon="-1.57743">
        <ele>-1.2</ele>
        <time>2021-09-05T07:31:48Z</time>
      </trkpt>
      <trkpt lat="43.46582" lon="-1.5774">
        <ele>-1.2</ele>
        <time>2021-09-05T07:31:49Z</time>
      </trkpt>
      <trkpt lat="43.46582" lon="-1.5774">
        <ele>-1.3</ele>
        <time>2021-09-05T07:31:50Z</time>
      </trkpt>
      <trkpt lat="43.46581" lon="-1.57737">
        <ele>-1.3</ele>
        <time>2021-09-05T07:31:51Z</time>
      </trkpt>
      <trkpt lat="43.46581" lon="-1.57737">
        <ele>-1.3</ele>
        <time>2021-09-05T07:31:52Z</time>
      </trkpt>
      <trkpt lat="43.46581" lon="-1.57737">
        <ele>-1.3</ele>
        <time>2021-09-05T07:31:53Z</time>
      </trkpt>
      <trkpt lat="43.46581" lon="-1.57737">
        <ele>-1.3</ele>
        <time>2021-09-05T07:31:54Z</time>
      </trkpt>
      <trkpt lat="43.46581" lon="-1.57737">
        <ele>-1.3</ele>
        <time>2021-09-05T07:31:55Z</time>
      </trkpt>
      <trkpt lat="43.46578" lon="-1.57734">
        <ele>-1.3</ele>
        <time>2021-09-05T07:31:56Z</time>
      </trkpt>
      <trkpt lat="43.46578" lon="-1.57734">
        <ele>-1.3</ele>
        <time>2021-09-05T07:31:57Z</time>
      </trkpt>
      <trkpt lat="43.46578" lon="-1.5773">
        <ele>-1.4</ele>
        <time>2021-09-05T07:31:58Z</time>
      </trkpt>
      <trkpt lat="43.46578" lon="-1.5773">
        <ele>-1.4</ele>
        <time>2021-09-05T07:31:59Z</time>
      </trkpt>
      <trkpt lat="43.46578" lon="-1.57725">
        <ele>-1.4</ele>
        <time>2021-09-05T07:32:00Z</time>
      </trkpt>
      <trkpt lat="43.46578" lon="-1.57725">
        <ele>-1.4</ele>
        <time>2021-09-05T07:32:01Z</time>
      </trkpt>
      <trkpt lat="43.46578" lon="-1.57722">
        <ele>-1.4</ele>
        <time>2021-09-05T07:32:02Z</time>
      </trkpt>
      <trkpt lat="43.46577" lon="-1.5772">
        <ele>-1.4</ele>
        <time>2021-09-05T07:32:03Z</time>
      </trkpt>
      <trkpt lat="43.46577" lon="-1.5772">
        <ele>-1.4</ele>
        <time>2021-09-05T07:32:04Z</time>
      </trkpt>
      <trkpt lat="43.46576" lon="-1.57715">
        <ele>-1.4</ele>
        <time>2021-09-05T07:32:05Z</time>
      </trkpt>
      <trkpt lat="43.46576" lon="-1.57715">
        <ele>-1.5</ele>
        <time>2021-09-05T07:32:06Z</time>
      </trkpt>
      <trkpt lat="43.46574" lon="-1.57712">
        <ele>-1.5</ele>
        <time>2021-09-05T07:32:07Z</time>
      </trkpt>
      <trkpt lat="43.46574" lon="-1.57712">
        <ele>-1.5</ele>
        <time>2021-09-05T07:32:08Z</time>
      </trkpt>
      <trkpt lat="43.46574" lon="-1.57708">
        <ele>-1.5</ele>
        <time>2021-09-05T07:32:09Z</time>
      </trkpt>
      <trkpt lat="43.46575" lon="-1.57712">
        <ele>-1.5</ele>
        <time>2021-09-05T07:32:10Z</time>
      </trkpt>
      <trkpt lat="43.46575" lon="-1.57712">
        <ele>-1.5</ele>
        <time>2021-09-05T07:32:11Z</time>
      </trkpt>
      <trkpt lat="43.46575" lon="-1.57712">
        <ele>-1.5</ele>
        <time>2021-09-05T07:32:12Z</time>
      </trkpt>
      <trkpt lat="43.46575" lon="-1.57712">
        <ele>-1.5</ele>
        <time>2021-09-05T07:32:13Z</time>
      </trkpt>
      <trkpt lat="43.46575" lon="-1.57712">
        <ele>-1.5</ele>
        <time>2021-09-05T07:32:14Z</time>
      </trkpt>
      <trkpt lat="43.46575" lon="-1.57712">
        <ele>-1.6</ele>
        <time>2021-09-05T07:32:15Z</time>
      </trkpt>
      <trkpt lat="43.46575" lon="-1.57712">
        <ele>-1.6</ele>
        <time>2021-09-05T07:32:16Z</time>
      </trkpt>
      <trkpt lat="43.46574" lon="-1.57709">
        <ele>-1.6</ele>
        <time>2021-09-05T07:32:17Z</time>
      </trkpt>
      <trkpt lat="43.46574" lon="-1.57709">
        <ele>-1.6</ele>
        <time>2021-09-05T07:32:18Z</time>
      </trkpt>
      <trkpt lat="43.46574" lon="-1.57709">
        <ele>-1.6</ele>
        <time>2021-09-05T07:32:19Z</time>
      </trkpt>
      <trkpt lat="43.46572" lon="-1.57707">
        <ele>-1.6</ele>
        <time>2021-09-05T07:32:20Z</time>
      </trkpt>
      <trkpt lat="43.46572" lon="-1.57707">
        <ele>-1.6</ele>
        <time>2021-09-05T07:32:21Z</time>
      </trkpt>
      <trkpt lat="43.46572" lon="-1.57707">
        <ele>-1.6</ele>
        <time>2021-09-05T07:32:22Z</time>
      </trkpt>
      <trkpt lat="43.46572" lon="-1.57707">
        <ele>-1.7</ele>
        <time>2021-09-05T07:32:23Z</time>
      </trkpt>
      <trkpt lat="43.46573" lon="-1.57704">
        <ele>-1.7</ele>
        <time>2021-09-05T07:32:24Z</time>
      </trkpt>
      <trkpt lat="43.46573" lon="-1.57704">
        <ele>-1.7</ele>
        <time>2021-09-05T07:32:25Z</time>
      </trkpt>
      <trkpt lat="43.46573" lon="-1.57704">
        <ele>-1.7</ele>
        <time>2021-09-05T07:32:26Z</time>
      </trkpt>
      <trkpt lat="43.46573" lon="-1.57704">
        <ele>-1.7</ele>
        <time>2021-09-05T07:32:27Z</time>
      </trkpt>
      <trkpt lat="43.46573" lon="-1.57704">
        <ele>-1.7</ele>
        <time>2021-09-05T07:32:28Z</time>
      </trkpt>
      <trkpt lat="43.46573" lon="-1.57697">
        <ele>-1.7</ele>
        <time>2021-09-05T07:32:29Z</time>
      </trkpt>
      <trkpt lat="43.46573" lon="-1.57697">
        <ele>-1.7</ele>
        <time>2021-09-05T07:32:30Z</time>
      </trkpt>
      <trkpt lat="43.46572" lon="-1.57694">
        <ele>-1.7</ele>
        <time>2021-09-05T07:32:31Z</time>
      </trkpt>
      <trkpt lat="43.46572" lon="-1.57694">
        <ele>-1.8</ele>
        <time>2021-09-05T07:32:32Z</time>
      </trkpt>
      <trkpt lat="43.46571" lon="-1.57691">
        <ele>-1.8</ele>
        <time>2021-09-05T07:32:33Z</time>
      </trkpt>
      <trkpt lat="43.46571" lon="-1.57691">
        <ele>-1.8</ele>
        <time>2021-09-05T07:32:34Z</time>
      </trkpt>
      <trkpt lat="43.46571" lon="-1.57687">
        <ele>-1.8</ele>
        <time>2021-09-05T07:32:35Z</time>
      </trkpt>
      <trkpt lat="43.46571" lon="-1.57687">
        <ele>-1.8</ele>
        <time>2021-09-05T07:32:36Z</time>
      </trkpt>
      <trkpt lat="43.46571" lon="-1.57683">
        <ele>-1.8</ele>
        <time>2021-09-05T07:32:37Z</time>
      </trkpt>
      <trkpt lat="43.46571" lon="-1.57683">
        <ele>-1.8</ele>
        <time>2021-09-05T07:32:38Z</time>
      </trkpt>
      <trkpt lat="43.46571" lon="-1.57683">
        <ele>-1.8</ele>
        <time>2021-09-05T07:32:39Z</time>
      </trkpt>
      <trkpt lat="43.46571" lon="-1.57683">
        <ele>-1.9</ele>
        <time>2021-09-05T07:32:40Z</time>
      </trkpt>
      <trkpt lat="43.46572" lon="-1.5768">
        <ele>-1.9</ele>
        <time>2021-09-05T07:32:41Z</time>
      </trkpt>
      <trkpt lat="43.46572" lon="-1.5768">
        <ele>-1.9</ele>
        <time>2021-09-05T07:32:42Z</time>
      </trkpt>
      <trkpt lat="43.46572" lon="-1.5768">
        <ele>-1.9</ele>
        <time>2021-09-05T07:32:43Z</time>
      </trkpt>
      <trkpt lat="43.46572" lon="-1.5768">
        <ele>-1.9</ele>
        <time>2021-09-05T07:32:44Z</time>
      </trkpt>
      <trkpt lat="43.46572" lon="-1.5768">
        <ele>-1.9</ele>
        <time>2021-09-05T07:32:45Z</time>
      </trkpt>
      <trkpt lat="43.46569" lon="-1.57679">
        <ele>-1.9</ele>
        <time>2021-09-05T07:32:46Z</time>
      </trkpt>
      <trkpt lat="43.46568" lon="-1.57677">
        <ele>-1.9</ele>
        <time>2021-09-05T07:32:47Z</time>
      </trkpt>
      <trkpt lat="43.46568" lon="-1.57677">
        <ele>-1.9</ele>
        <time>2021-09-05T07:32:48Z</time>
      </trkpt>
      <trkpt lat="43.46567" lon="-1.57674">
        <ele>-2</ele>
        <time>2021-09-05T07:32:49Z</time>
      </trkpt>
      <trkpt lat="43.46567" lon="-1.57674">
        <ele>-2</ele>
        <time>2021-09-05T07:32:50Z</time>
      </trkpt>
      <trkpt lat="43.46567" lon="-1.57674">
        <ele>-2</ele>
        <time>2021-09-05T07:32:51Z</time>
      </trkpt>
      <trkpt lat="43.46566" lon="-1.57671">
        <ele>-2</ele>
        <time>2021-09-05T07:32:52Z</time>
      </trkpt>
      <trkpt lat="43.46566" lon="-1.57671">
        <ele>-2</ele>
        <time>2021-09-05T07:32:53Z</time>
      </trkpt>
      <trkpt lat="43.46566" lon="-1.57671">
        <ele>-2</ele>
        <time>2021-09-05T07:32:54Z</time>
      </trkpt>
      <trkpt lat="43.46566" lon="-1.57671">
        <ele>-2</ele>
        <time>2021-09-05T07:32:55Z</time>
      </trkpt>
      <trkpt lat="43.46566" lon="-1.57671">
        <ele>-2</ele>
        <time>2021-09-05T07:32:56Z</time>
      </trkpt>
      <trkpt lat="43.46565" lon="-1.57668">
        <ele>-2.1</ele>
        <time>2021-09-05T07:32:57Z</time>
      </trkpt>
      <trkpt lat="43.46565" lon="-1.57668">
        <ele>-2.1</ele>
        <time>2021-09-05T07:32:58Z</time>
      </trkpt>
      <trkpt lat="43.46563" lon="-1.57665">
        <ele>-2.1</ele>
        <time>2021-09-05T07:32:59Z</time>
      </trkpt>
      <trkpt lat="43.46563" lon="-1.57665">
        <ele>-2.1</ele>
        <time>2021-09-05T07:33:00Z</time>
      </trkpt>
      <trkpt lat="43.46566" lon="-1.57661">
        <ele>-2.1</ele>
        <time>2021-09-05T07:33:01Z</time>
      </trkpt>
      <trkpt lat="43.46566" lon="-1.57661">
        <ele>-2.1</ele>
        <time>2021-09-05T07:33:02Z</time>
      </trkpt>
      <trkpt lat="43.46566" lon="-1.57661">
        <ele>-2.1</ele>
        <time>2021-09-05T07:33:03Z</time>
      </trkpt>
      <trkpt lat="43.46565" lon="-1.57658">
        <ele>-2.1</ele>
        <time>2021-09-05T07:33:04Z</time>
      </trkpt>
      <trkpt lat="43.46565" lon="-1.57658">
        <ele>-2.1</ele>
        <time>2021-09-05T07:33:05Z</time>
      </trkpt>
      <trkpt lat="43.46565" lon="-1.57655">
        <ele>-2.2</ele>
        <time>2021-09-05T07:33:06Z</time>
      </trkpt>
      <trkpt lat="43.46567" lon="-1.57654">
        <ele>-2.2</ele>
        <time>2021-09-05T07:33:07Z</time>
      </trkpt>
      <trkpt lat="43.46567" lon="-1.57654">
        <ele>-2.2</ele>
        <time>2021-09-05T07:33:08Z</time>
      </trkpt>
      <trkpt lat="43.46567" lon="-1.57654">
        <ele>-2.2</ele>
        <time>2021-09-05T07:33:09Z</time>
      </trkpt>
      <trkpt lat="43.46567" lon="-1.57651">
        <ele>-2.2</ele>
        <time>2021-09-05T07:33:10Z</time>
      </trkpt>
      <trkpt lat="43.46567" lon="-1.57651">
        <ele>-2.2</ele>
        <time>2021-09-05T07:33:11Z</time>
      </trkpt>
      <trkpt lat="43.46567" lon="-1.57651">
        <ele>-2.2</ele>
        <time>2021-09-05T07:33:12Z</time>
      </trkpt>
      <trkpt lat="43.46567" lon="-1.57651">
        <ele>-2.2</ele>
        <time>2021-09-05T07:33:13Z</time>
      </trkpt>
      <trkpt lat="43.46565" lon="-1.57649">
        <ele>-2.3</ele>
        <time>2021-09-05T07:33:14Z</time>
      </trkpt>
      <trkpt lat="43.46565" lon="-1.57649">
        <ele>-2.3</ele>
        <time>2021-09-05T07:33:15Z</time>
      </trkpt>
      <trkpt lat="43.46564" lon="-1.57646">
        <ele>-2.3</ele>
        <time>2021-09-05T07:33:16Z</time>
      </trkpt>
      <trkpt lat="43.46564" lon="-1.57646">
        <ele>-2.3</ele>
        <time>2021-09-05T07:33:17Z</time>
      </trkpt>
      <trkpt lat="43.46563" lon="-1.57644">
        <ele>-2.3</ele>
        <time>2021-09-05T07:33:18Z</time>
      </trkpt>
      <trkpt lat="43.46563" lon="-1.57644">
        <ele>-2.3</ele>
        <time>2021-09-05T07:33:19Z</time>
      </trkpt>
      <trkpt lat="43.4656" lon="-1.57642">
        <ele>-2.3</ele>
        <time>2021-09-05T07:33:20Z</time>
      </trkpt>
      <trkpt lat="43.4656" lon="-1.57642">
        <ele>-2.3</ele>
        <time>2021-09-05T07:33:21Z</time>
      </trkpt>
      <trkpt lat="43.4656" lon="-1.57642">
        <ele>-2.3</ele>
        <time>2021-09-05T07:33:22Z</time>
      </trkpt>
      <trkpt lat="43.4656" lon="-1.57639">
        <ele>-2.4</ele>
        <time>2021-09-05T07:33:23Z</time>
      </trkpt>
      <trkpt lat="43.4656" lon="-1.57639">
        <ele>-2.4</ele>
        <time>2021-09-05T07:33:24Z</time>
      </trkpt>
      <trkpt lat="43.4656" lon="-1.57639">
        <ele>-2.4</ele>
        <time>2021-09-05T07:33:25Z</time>
      </trkpt>
      <trkpt lat="43.4656" lon="-1.57635">
        <ele>-2.4</ele>
        <time>2021-09-05T07:33:26Z</time>
      </trkpt>
      <trkpt lat="43.4656" lon="-1.57635">
        <ele>-2.4</ele>
        <time>2021-09-05T07:33:27Z</time>
      </trkpt>
      <trkpt lat="43.4656" lon="-1.57632">
        <ele>-2.4</ele>
        <time>2021-09-05T07:33:28Z</time>
      </trkpt>
      <trkpt lat="43.4656" lon="-1.57632">
        <ele>-2.4</ele>
        <time>2021-09-05T07:33:29Z</time>
      </trkpt>
      <trkpt lat="43.4656" lon="-1.57632">
        <ele>-2.4</ele>
        <time>2021-09-05T07:33:30Z</time>
      </trkpt>
      <trkpt lat="43.46559" lon="-1.57627">
        <ele>-2.5</ele>
        <time>2021-09-05T07:33:31Z</time>
      </trkpt>
      <trkpt lat="43.46559" lon="-1.57627">
        <ele>-2.5</ele>
        <time>2021-09-05T07:33:32Z</time>
      </trkpt>
      <trkpt lat="43.46559" lon="-1.57627">
        <ele>-2.5</ele>
        <time>2021-09-05T07:33:33Z</time>
      </trkpt>
      <trkpt lat="43.46559" lon="-1.57625">
        <ele>-2.5</ele>
        <time>2021-09-05T07:33:34Z</time>
      </trkpt>
      <trkpt lat="43.46559" lon="-1.57625">
        <ele>-2.5</ele>
        <time>2021-09-05T07:33:35Z</time>
      </trkpt>
      <trkpt lat="43.46559" lon="-1.57625">
        <ele>-2.5</ele>
        <time>2021-09-05T07:33:36Z</time>
      </trkpt>
      <trkpt lat="43.46559" lon="-1.57625">
        <ele>-2.5</ele>
        <time>2021-09-05T07:33:37Z</time>
      </trkpt>
      <trkpt lat="43.46559" lon="-1.57621">
        <ele>-2.5</ele>
        <time>2021-09-05T07:33:38Z</time>
      </trkpt>
      <trkpt lat="43.46559" lon="-1.57621">
        <ele>-2.5</ele>
        <time>2021-09-05T07:33:39Z</time>
      </trkpt>
      <trkpt lat="43.46559" lon="-1.57621">
        <ele>-2.6</ele>
        <time>2021-09-05T07:33:40Z</time>
      </trkpt>
      <trkpt lat="43.46559" lon="-1.57621">
        <ele>-2.6</ele>
        <time>2021-09-05T07:33:41Z</time>
      </trkpt>
      <trkpt lat="43.46559" lon="-1.57621">
        <ele>-2.6</ele>
        <time>2021-09-05T07:33:42Z</time>
      </trkpt>
      <trkpt lat="43.4656" lon="-1.57618">
        <ele>-2.6</ele>
        <time>2021-09-05T07:33:43Z</time>
      </trkpt>
      <trkpt lat="43.46561" lon="-1.57614">
        <ele>-2.6</ele>
        <time>2021-09-05T07:33:44Z</time>
      </trkpt>
      <trkpt lat="43.46562" lon="-1.5761">
        <ele>-2.6</ele>
        <time>2021-09-05T07:33:45Z</time>
      </trkpt>
      <trkpt lat="43.46558" lon="-1.57608">
        <ele>-2.6</ele>
        <time>2021-09-05T07:33:46Z</time>
      </trkpt>
      <trkpt lat="43.46558" lon="-1.57608">
        <ele>-2.6</ele>
        <time>2021-09-05T07:33:47Z</time>
      </trkpt>
      <trkpt lat="43.46557" lon="-1.57605">
        <ele>-2.7</ele>
        <time>2021-09-05T07:33:48Z</time>
      </trkpt>
      <trkpt lat="43.46557" lon="-1.57605">
        <ele>-2.7</ele>
        <time>2021-09-05T07:33:49Z</time>
      </trkpt>
      <trkpt lat="43.46557" lon="-1.57605">
        <ele>-2.7</ele>
        <time>2021-09-05T07:33:50Z</time>
      </trkpt>
      <trkpt lat="43.46554" lon="-1.57605">
        <ele>-2.7</ele>
        <time>2021-09-05T07:33:51Z</time>
      </trkpt>
      <trkpt lat="43.46554" lon="-1.57605">
        <ele>-2.7</ele>
        <time>2021-09-05T07:33:52Z</time>
      </trkpt>
      <trkpt lat="43.46554" lon="-1.57605">
        <ele>-2.7</ele>
        <time>2021-09-05T07:33:53Z</time>
      </trkpt>
      <trkpt lat="43.46554" lon="-1.57605">
        <ele>-2.7</ele>
        <time>2021-09-05T07:33:54Z</time>
      </trkpt>
      <trkpt lat="43.46554" lon="-1.57605">
        <ele>-2.7</ele>
        <time>2021-09-05T07:33:55Z</time>
      </trkpt>
      <trkpt lat="43.46554" lon="-1.57605">
        <ele>-2.8</ele>
        <time>2021-09-05T07:33:56Z</time>
      </trkpt>
      <trkpt lat="43.46554" lon="-1.57605">
        <ele>-2.8</ele>
        <time>2021-09-05T07:33:57Z</time>
      </trkpt>
      <trkpt lat="43.46554" lon="-1.57605">
        <ele>-2.8</ele>
        <time>2021-09-05T07:33:58Z</time>
      </trkpt>
      <trkpt lat="43.46552" lon="-1.57598">
        <ele>-2.8</ele>
        <time>2021-09-05T07:33:59Z</time>
      </trkpt>
      <trkpt lat="43.46552" lon="-1.57598">
        <ele>-2.8</ele>
        <time>2021-09-05T07:34:00Z</time>
      </trkpt>
      <trkpt lat="43.46552" lon="-1.57594">
        <ele>-2.8</ele>
        <time>2021-09-05T07:34:01Z</time>
      </trkpt>
      <trkpt lat="43.46552" lon="-1.57594">
        <ele>-2.8</ele>
        <time>2021-09-05T07:34:02Z</time>
      </trkpt>
      <trkpt lat="43.4655" lon="-1.57588">
        <ele>-2.8</ele>
        <time>2021-09-05T07:34:03Z</time>
      </trkpt>
      <trkpt lat="43.4655" lon="-1.57587">
        <ele>-2.8</ele>
        <time>2021-09-05T07:34:04Z</time>
      </trkpt>
      <trkpt lat="43.46549" lon="-1.57584">
        <ele>-2.8</ele>
        <time>2021-09-05T07:34:05Z</time>
      </trkpt>
      <trkpt lat="43.46548" lon="-1.57581">
        <ele>-2.8</ele>
        <time>2021-09-05T07:34:06Z</time>
      </trkpt>
      <trkpt lat="43.46547" lon="-1.57577">
        <ele>-2.8</ele>
        <time>2021-09-05T07:34:07Z</time>
      </trkpt>
      <trkpt lat="43.46547" lon="-1.57574">
        <ele>-2.8</ele>
        <time>2021-09-05T07:34:08Z</time>
      </trkpt>
      <trkpt lat="43.46548" lon="-1.57571">
        <ele>-2.9</ele>
        <time>2021-09-05T07:34:09Z</time>
      </trkpt>
      <trkpt lat="43.46549" lon="-1.57567">
        <ele>-3</ele>
        <time>2021-09-05T07:34:10Z</time>
      </trkpt>
      <trkpt lat="43.46548" lon="-1.57563">
        <ele>-3</ele>
        <time>2021-09-05T07:34:11Z</time>
      </trkpt>
      <trkpt lat="43.46547" lon="-1.57558">
        <ele>-3.1</ele>
        <time>2021-09-05T07:34:12Z</time>
      </trkpt>
      <trkpt lat="43.46546" lon="-1.57554">
        <ele>-3.2</ele>
        <time>2021-09-05T07:34:13Z</time>
      </trkpt>
      <trkpt lat="43.46545" lon="-1.57551">
        <ele>-3.1</ele>
        <time>2021-09-05T07:34:14Z</time>
      </trkpt>
      <trkpt lat="43.46545" lon="-1.57547">
        <ele>-3.1</ele>
        <time>2021-09-05T07:34:15Z</time>
      </trkpt>
      <trkpt lat="43.46543" lon="-1.57543">
        <ele>-3.1</ele>
        <time>2021-09-05T07:34:16Z</time>
      </trkpt>
      <trkpt lat="43.46543" lon="-1.5754">
        <ele>-2.8</ele>
        <time>2021-09-05T07:34:17Z</time>
      </trkpt>
      <trkpt lat="43.46543" lon="-1.57537">
        <ele>-2.4</ele>
        <time>2021-09-05T07:34:18Z</time>
      </trkpt>
      <trkpt lat="43.46543" lon="-1.57533">
        <ele>-1.9</ele>
        <time>2021-09-05T07:34:19Z</time>
      </trkpt>
      <trkpt lat="43.46543" lon="-1.5753">
        <ele>-1.9</ele>
        <time>2021-09-05T07:34:20Z</time>
      </trkpt>
      <trkpt lat="43.46542" lon="-1.57527">
        <ele>-1.3</ele>
        <time>2021-09-05T07:34:21Z</time>
      </trkpt>
      <trkpt lat="43.46541" lon="-1.57525">
        <ele>-0.7</ele>
        <time>2021-09-05T07:34:22Z</time>
      </trkpt>
      <trkpt lat="43.46541" lon="-1.57522">
        <ele>-0.5</ele>
        <time>2021-09-05T07:34:23Z</time>
      </trkpt>
      <trkpt lat="43.46541" lon="-1.57519">
        <ele>0.2</ele>
        <time>2021-09-05T07:34:24Z</time>
      </trkpt>
      <trkpt lat="43.4654" lon="-1.57516">
        <ele>0.8</ele>
        <time>2021-09-05T07:34:25Z</time>
      </trkpt>
      <trkpt lat="43.4654" lon="-1.57516">
        <ele>0.8</ele>
        <time>2021-09-05T07:34:26Z</time>
      </trkpt>
      <trkpt lat="43.46541" lon="-1.57511">
        <ele>1.3</ele>
        <time>2021-09-05T07:34:27Z</time>
      </trkpt>
      <trkpt lat="43.46541" lon="-1.57508">
        <ele>1.3</ele>
        <time>2021-09-05T07:34:28Z</time>
      </trkpt>
      <trkpt lat="43.46541" lon="-1.57505">
        <ele>1.7</ele>
        <time>2021-09-05T07:34:29Z</time>
      </trkpt>
      <trkpt lat="43.46541" lon="-1.57503">
        <ele>2</ele>
        <time>2021-09-05T07:34:30Z</time>
      </trkpt>
      <trkpt lat="43.46541" lon="-1.575">
        <ele>2</ele>
        <time>2021-09-05T07:34:31Z</time>
      </trkpt>
      <trkpt lat="43.46541" lon="-1.57497">
        <ele>2.3</ele>
        <time>2021-09-05T07:34:32Z</time>
      </trkpt>
      <trkpt lat="43.46541" lon="-1.57494">
        <ele>2.3</ele>
        <time>2021-09-05T07:34:33Z</time>
      </trkpt>
      <trkpt lat="43.46541" lon="-1.57492">
        <ele>2.3</ele>
        <time>2021-09-05T07:34:34Z</time>
      </trkpt>
      <trkpt lat="43.46542" lon="-1.57489">
        <ele>2.6</ele>
        <time>2021-09-05T07:34:35Z</time>
      </trkpt>
      <trkpt lat="43.46542" lon="-1.57487">
        <ele>2.6</ele>
        <time>2021-09-05T07:34:36Z</time>
      </trkpt>
      <trkpt lat="43.46543" lon="-1.57484">
        <ele>2.9</ele>
        <time>2021-09-05T07:34:37Z</time>
      </trkpt>
      <trkpt lat="43.46544" lon="-1.57482">
        <ele>2.8</ele>
        <time>2021-09-05T07:34:38Z</time>
      </trkpt>
      <trkpt lat="43.46547" lon="-1.5748">
        <ele>3.1</ele>
        <time>2021-09-05T07:34:39Z</time>
      </trkpt>
      <trkpt lat="43.46549" lon="-1.5748">
        <ele>3.1</ele>
        <time>2021-09-05T07:34:40Z</time>
      </trkpt>
      <trkpt lat="43.46551" lon="-1.5748">
        <ele>3.1</ele>
        <time>2021-09-05T07:34:41Z</time>
      </trkpt>
      <trkpt lat="43.46553" lon="-1.57479">
        <ele>3.1</ele>
        <time>2021-09-05T07:34:42Z</time>
      </trkpt>
      <trkpt lat="43.46555" lon="-1.57478">
        <ele>3.4</ele>
        <time>2021-09-05T07:34:43Z</time>
      </trkpt>
      <trkpt lat="43.46555" lon="-1.57478">
        <ele>3.3</ele>
        <time>2021-09-05T07:34:44Z</time>
      </trkpt>
      <trkpt lat="43.46559" lon="-1.57476">
        <ele>3.3</ele>
        <time>2021-09-05T07:34:45Z</time>
      </trkpt>
      <trkpt lat="43.46561" lon="-1.57477">
        <ele>3</ele>
        <time>2021-09-05T07:34:46Z</time>
      </trkpt>
      <trkpt lat="43.46564" lon="-1.57479">
        <ele>2.7</ele>
        <time>2021-09-05T07:34:47Z</time>
      </trkpt>
      <trkpt lat="43.46566" lon="-1.57481">
        <ele>2.4</ele>
        <time>2021-09-05T07:34:48Z</time>
      </trkpt>
      <trkpt lat="43.46567" lon="-1.57484">
        <ele>1.9</ele>
        <time>2021-09-05T07:34:49Z</time>
      </trkpt>
      <trkpt lat="43.4657" lon="-1.57487">
        <ele>1.8</ele>
        <time>2021-09-05T07:34:50Z</time>
      </trkpt>
      <trkpt lat="43.46571" lon="-1.5749">
        <ele>1.8</ele>
        <time>2021-09-05T07:34:51Z</time>
      </trkpt>
      <trkpt lat="43.46574" lon="-1.57493">
        <ele>1.7</ele>
        <time>2021-09-05T07:34:52Z</time>
      </trkpt>
      <trkpt lat="43.46576" lon="-1.57496">
        <ele>1.6</ele>
        <time>2021-09-05T07:34:53Z</time>
      </trkpt>
      <trkpt lat="43.46579" lon="-1.57499">
        <ele>1.6</ele>
        <time>2021-09-05T07:34:54Z</time>
      </trkpt>
      <trkpt lat="43.46582" lon="-1.575">
        <ele>1.5</ele>
        <time>2021-09-05T07:34:55Z</time>
      </trkpt>
      <trkpt lat="43.46586" lon="-1.57501">
        <ele>1.4</ele>
        <time>2021-09-05T07:34:56Z</time>
      </trkpt>
      <trkpt lat="43.46589" lon="-1.57502">
        <ele>1.4</ele>
        <time>2021-09-05T07:34:57Z</time>
      </trkpt>
      <trkpt lat="43.46592" lon="-1.57502">
        <ele>1.4</ele>
        <time>2021-09-05T07:34:58Z</time>
      </trkpt>
      <trkpt lat="43.46595" lon="-1.57502">
        <ele>1.4</ele>
        <time>2021-09-05T07:34:59Z</time>
      </trkpt>
      <trkpt lat="43.46598" lon="-1.57502">
        <ele>1.4</ele>
        <time>2021-09-05T07:35:00Z</time>
      </trkpt>
      <trkpt lat="43.46602" lon="-1.57502">
        <ele>1.4</ele>
        <time>2021-09-05T07:35:01Z</time>
      </trkpt>
      <trkpt lat="43.46605" lon="-1.57502">
        <ele>1.4</ele>
        <time>2021-09-05T07:35:02Z</time>
      </trkpt>
      <trkpt lat="43.46608" lon="-1.57502">
        <ele>1.4</ele>
        <time>2021-09-05T07:35:03Z</time>
      </trkpt>
      <trkpt lat="43.46611" lon="-1.57502">
        <ele>1.4</ele>
        <time>2021-09-05T07:35:04Z</time>
      </trkpt>
      <trkpt lat="43.46614" lon="-1.57503">
        <ele>1.3</ele>
        <time>2021-09-05T07:35:05Z</time>
      </trkpt>
      <trkpt lat="43.46617" lon="-1.57503">
        <ele>1.3</ele>
        <time>2021-09-05T07:35:06Z</time>
      </trkpt>
      <trkpt lat="43.4662" lon="-1.57503">
        <ele>1.2</ele>
        <time>2021-09-05T07:35:07Z</time>
      </trkpt>
      <trkpt lat="43.46623" lon="-1.57503">
        <ele>1.2</ele>
        <time>2021-09-05T07:35:08Z</time>
      </trkpt>
      <trkpt lat="43.46626" lon="-1.57503">
        <ele>1.1</ele>
        <time>2021-09-05T07:35:09Z</time>
      </trkpt>
      <trkpt lat="43.46629" lon="-1.57503">
        <ele>1</ele>
        <time>2021-09-05T07:35:10Z</time>
      </trkpt>
      <trkpt lat="43.46632" lon="-1.57503">
        <ele>0.9</ele>
        <time>2021-09-05T07:35:11Z</time>
      </trkpt>
      <trkpt lat="43.46635" lon="-1.57503">
        <ele>0.9</ele>
        <time>2021-09-05T07:35:12Z</time>
      </trkpt>
      <trkpt lat="43.46638" lon="-1.57503">
        <ele>0.8</ele>
        <time>2021-09-05T07:35:13Z</time>
      </trkpt>
      <trkpt lat="43.46641" lon="-1.57503">
        <ele>0.8</ele>
        <time>2021-09-05T07:35:14Z</time>
      </trkpt>
      <trkpt lat="43.46644" lon="-1.57503">
        <ele>0.7</ele>
        <time>2021-09-05T07:35:15Z</time>
      </trkpt>
      <trkpt lat="43.46647" lon="-1.57503">
        <ele>0.7</ele>
        <time>2021-09-05T07:35:16Z</time>
      </trkpt>
      <trkpt lat="43.4665" lon="-1.57503">
        <ele>0.6</ele>
        <time>2021-09-05T07:35:17Z</time>
      </trkpt>
      <trkpt lat="43.46653" lon="-1.57503">
        <ele>0.6</ele>
        <time>2021-09-05T07:35:18Z</time>
      </trkpt>
      <trkpt lat="43.46656" lon="-1.57504">
        <ele>0.5</ele>
        <time>2021-09-05T07:35:19Z</time>
      </trkpt>
      <trkpt lat="43.4666" lon="-1.57504">
        <ele>0.4</ele>
        <time>2021-09-05T07:35:20Z</time>
      </trkpt>
      <trkpt lat="43.46662" lon="-1.57504">
        <ele>0.4</ele>
        <time>2021-09-05T07:35:21Z</time>
      </trkpt>
      <trkpt lat="43.46666" lon="-1.57504">
        <ele>0.4</ele>
        <time>2021-09-05T07:35:22Z</time>
      </trkpt>
      <trkpt lat="43.46669" lon="-1.57505">
        <ele>0.4</ele>
        <time>2021-09-05T07:35:23Z</time>
      </trkpt>
      <trkpt lat="43.46671" lon="-1.57506">
        <ele>0.4</ele>
        <time>2021-09-05T07:35:24Z</time>
      </trkpt>
      <trkpt lat="43.46674" lon="-1.57508">
        <ele>0.4</ele>
        <time>2021-09-05T07:35:25Z</time>
      </trkpt>
      <trkpt lat="43.46676" lon="-1.57509">
        <ele>0.4</ele>
        <time>2021-09-05T07:35:26Z</time>
      </trkpt>
      <trkpt lat="43.46678" lon="-1.5751">
        <ele>0.4</ele>
        <time>2021-09-05T07:35:27Z</time>
      </trkpt>
      <trkpt lat="43.46681" lon="-1.57511">
        <ele>0.4</ele>
        <time>2021-09-05T07:35:28Z</time>
      </trkpt>
      <trkpt lat="43.46684" lon="-1.5751">
        <ele>0.4</ele>
        <time>2021-09-05T07:35:29Z</time>
      </trkpt>
      <trkpt lat="43.46686" lon="-1.57508">
        <ele>0.4</ele>
        <time>2021-09-05T07:35:30Z</time>
      </trkpt>
      <trkpt lat="43.46688" lon="-1.57506">
        <ele>0.4</ele>
        <time>2021-09-05T07:35:31Z</time>
      </trkpt>
      <trkpt lat="43.46691" lon="-1.57504">
        <ele>0.4</ele>
        <time>2021-09-05T07:35:32Z</time>
      </trkpt>
      <trkpt lat="43.46693" lon="-1.57501">
        <ele>0.4</ele>
        <time>2021-09-05T07:35:33Z</time>
      </trkpt>
      <trkpt lat="43.46696" lon="-1.57498">
        <ele>0.4</ele>
        <time>2021-09-05T07:35:34Z</time>
      </trkpt>
      <trkpt lat="43.46699" lon="-1.57495">
        <ele>0.4</ele>
        <time>2021-09-05T07:35:35Z</time>
      </trkpt>
      <trkpt lat="43.46701" lon="-1.57492">
        <ele>0.4</ele>
        <time>2021-09-05T07:35:36Z</time>
      </trkpt>
      <trkpt lat="43.46704" lon="-1.57489">
        <ele>0.4</ele>
        <time>2021-09-05T07:35:37Z</time>
      </trkpt>
      <trkpt lat="43.46706" lon="-1.57486">
        <ele>0.4</ele>
        <time>2021-09-05T07:35:38Z</time>
      </trkpt>
      <trkpt lat="43.46709" lon="-1.57483">
        <ele>0.4</ele>
        <time>2021-09-05T07:35:39Z</time>
      </trkpt>
      <trkpt lat="43.46711" lon="-1.57479">
        <ele>0.4</ele>
        <time>2021-09-05T07:35:40Z</time>
      </trkpt>
      <trkpt lat="43.46714" lon="-1.57476">
        <ele>0.4</ele>
        <time>2021-09-05T07:35:41Z</time>
      </trkpt>
      <trkpt lat="43.46716" lon="-1.57473">
        <ele>0.4</ele>
        <time>2021-09-05T07:35:42Z</time>
      </trkpt>
      <trkpt lat="43.46718" lon="-1.5747">
        <ele>0.4</ele>
        <time>2021-09-05T07:35:43Z</time>
      </trkpt>
      <trkpt lat="43.46721" lon="-1.57467">
        <ele>0.3</ele>
        <time>2021-09-05T07:35:44Z</time>
      </trkpt>
      <trkpt lat="43.46723" lon="-1.57463">
        <ele>0.3</ele>
        <time>2021-09-05T07:35:45Z</time>
      </trkpt>
      <trkpt lat="43.46725" lon="-1.5746">
        <ele>0.4</ele>
        <time>2021-09-05T07:35:46Z</time>
      </trkpt>
      <trkpt lat="43.46727" lon="-1.57457">
        <ele>0.4</ele>
        <time>2021-09-05T07:35:47Z</time>
      </trkpt>
      <trkpt lat="43.4673" lon="-1.57453">
        <ele>0.4</ele>
        <time>2021-09-05T07:35:48Z</time>
      </trkpt>
      <trkpt lat="43.46733" lon="-1.5745">
        <ele>0.4</ele>
        <time>2021-09-05T07:35:49Z</time>
      </trkpt>
      <trkpt lat="43.46735" lon="-1.57446">
        <ele>0.4</ele>
        <time>2021-09-05T07:35:50Z</time>
      </trkpt>
      <trkpt lat="43.46737" lon="-1.57443">
        <ele>0.4</ele>
        <time>2021-09-05T07:35:51Z</time>
      </trkpt>
      <trkpt lat="43.4674" lon="-1.5744">
        <ele>0.4</ele>
        <time>2021-09-05T07:35:52Z</time>
      </trkpt>
      <trkpt lat="43.46742" lon="-1.57436">
        <ele>0.3</ele>
        <time>2021-09-05T07:35:53Z</time>
      </trkpt>
      <trkpt lat="43.46745" lon="-1.57433">
        <ele>0.4</ele>
        <time>2021-09-05T07:35:54Z</time>
      </trkpt>
      <trkpt lat="43.46747" lon="-1.5743">
        <ele>0.5</ele>
        <time>2021-09-05T07:35:55Z</time>
      </trkpt>
      <trkpt lat="43.4675" lon="-1.57427">
        <ele>0.4</ele>
        <time>2021-09-05T07:35:56Z</time>
      </trkpt>
      <trkpt lat="43.46752" lon="-1.57424">
        <ele>0.5</ele>
        <time>2021-09-05T07:35:57Z</time>
      </trkpt>
      <trkpt lat="43.46755" lon="-1.5742">
        <ele>0.6</ele>
        <time>2021-09-05T07:35:58Z</time>
      </trkpt>
      <trkpt lat="43.46757" lon="-1.57417">
        <ele>0.5</ele>
        <time>2021-09-05T07:35:59Z</time>
      </trkpt>
      <trkpt lat="43.46759" lon="-1.57414">
        <ele>0.5</ele>
        <time>2021-09-05T07:36:00Z</time>
      </trkpt>
      <trkpt lat="43.46762" lon="-1.57411">
        <ele>0.5</ele>
        <time>2021-09-05T07:36:01Z</time>
      </trkpt>
      <trkpt lat="43.46765" lon="-1.57408">
        <ele>0.4</ele>
        <time>2021-09-05T07:36:02Z</time>
      </trkpt>
      <trkpt lat="43.46767" lon="-1.57405">
        <ele>0.3</ele>
        <time>2021-09-05T07:36:03Z</time>
      </trkpt>
      <trkpt lat="43.4677" lon="-1.57402">
        <ele>0.4</ele>
        <time>2021-09-05T07:36:04Z</time>
      </trkpt>
      <trkpt lat="43.46772" lon="-1.57399">
        <ele>0.6</ele>
        <time>2021-09-05T07:36:05Z</time>
      </trkpt>
      <trkpt lat="43.46774" lon="-1.57396">
        <ele>0.8</ele>
        <time>2021-09-05T07:36:06Z</time>
      </trkpt>
      <trkpt lat="43.46776" lon="-1.57393">
        <ele>0.8</ele>
        <time>2021-09-05T07:36:07Z</time>
      </trkpt>
      <trkpt lat="43.46779" lon="-1.5739">
        <ele>1</ele>
        <time>2021-09-05T07:36:08Z</time>
      </trkpt>
      <trkpt lat="43.46781" lon="-1.57387">
        <ele>1.1</ele>
        <time>2021-09-05T07:36:09Z</time>
      </trkpt>
      <trkpt lat="43.46783" lon="-1.57384">
        <ele>1</ele>
        <time>2021-09-05T07:36:10Z</time>
      </trkpt>
      <trkpt lat="43.46786" lon="-1.5738">
        <ele>0.8</ele>
        <time>2021-09-05T07:36:11Z</time>
      </trkpt>
      <trkpt lat="43.46786" lon="-1.5738">
        <ele>0.8</ele>
        <time>2021-09-05T07:36:12Z</time>
      </trkpt>
      <trkpt lat="43.46792" lon="-1.57372">
        <ele>0.2</ele>
        <time>2021-09-05T07:36:13Z</time>
      </trkpt>
      <trkpt lat="43.46793" lon="-1.5737">
        <ele>-0.3</ele>
        <time>2021-09-05T07:36:14Z</time>
      </trkpt>
      <trkpt lat="43.46796" lon="-1.57367">
        <ele>-0.2</ele>
        <time>2021-09-05T07:36:15Z</time>
      </trkpt>
      <trkpt lat="43.46798" lon="-1.57364">
        <ele>-0.4</ele>
        <time>2021-09-05T07:36:16Z</time>
      </trkpt>
      <trkpt lat="43.46801" lon="-1.57362">
        <ele>-0.3</ele>
        <time>2021-09-05T07:36:17Z</time>
      </trkpt>
      <trkpt lat="43.46804" lon="-1.57359">
        <ele>-0.1</ele>
        <time>2021-09-05T07:36:18Z</time>
      </trkpt>
      <trkpt lat="43.46806" lon="-1.57356">
        <ele>0.2</ele>
        <time>2021-09-05T07:36:19Z</time>
      </trkpt>
      <trkpt lat="43.46809" lon="-1.57353">
        <ele>0.5</ele>
        <time>2021-09-05T07:36:20Z</time>
      </trkpt>
      <trkpt lat="43.46812" lon="-1.5735">
        <ele>0.6</ele>
        <time>2021-09-05T07:36:21Z</time>
      </trkpt>
      <trkpt lat="43.46815" lon="-1.57347">
        <ele>0.4</ele>
        <time>2021-09-05T07:36:22Z</time>
      </trkpt>
      <trkpt lat="43.46817" lon="-1.57344">
        <ele>1</ele>
        <time>2021-09-05T07:36:23Z</time>
      </trkpt>
      <trkpt lat="43.4682" lon="-1.57341">
        <ele>-0.2</ele>
        <time>2021-09-05T07:36:24Z</time>
      </trkpt>
      <trkpt lat="43.46822" lon="-1.57338">
        <ele>-0.9</ele>
        <time>2021-09-05T07:36:25Z</time>
      </trkpt>
      <trkpt lat="43.46825" lon="-1.57335">
        <ele>-1.6</ele>
        <time>2021-09-05T07:36:26Z</time>
      </trkpt>
      <trkpt lat="43.46828" lon="-1.57333">
        <ele>-1.5</ele>
        <time>2021-09-05T07:36:27Z</time>
      </trkpt>
      <trkpt lat="43.4683" lon="-1.5733">
        <ele>-1.9</ele>
        <time>2021-09-05T07:36:28Z</time>
      </trkpt>
      <trkpt lat="43.46833" lon="-1.57327">
        <ele>-1.7</ele>
        <time>2021-09-05T07:36:29Z</time>
      </trkpt>
      <trkpt lat="43.46835" lon="-1.57324">
        <ele>-1.3</ele>
        <time>2021-09-05T07:36:30Z</time>
      </trkpt>
      <trkpt lat="43.46838" lon="-1.57321">
        <ele>-0.8</ele>
        <time>2021-09-05T07:36:31Z</time>
      </trkpt>
      <trkpt lat="43.4684" lon="-1.57318">
        <ele>-0.4</ele>
        <time>2021-09-05T07:36:32Z</time>
      </trkpt>
      <trkpt lat="43.46843" lon="-1.57315">
        <ele>-0.6</ele>
        <time>2021-09-05T07:36:33Z</time>
      </trkpt>
      <trkpt lat="43.46845" lon="-1.57312">
        <ele>-0.6</ele>
        <time>2021-09-05T07:36:34Z</time>
      </trkpt>
      <trkpt lat="43.46848" lon="-1.57309">
        <ele>-1.2</ele>
        <time>2021-09-05T07:36:35Z</time>
      </trkpt>
      <trkpt lat="43.46851" lon="-1.57306">
        <ele>-1.3</ele>
        <time>2021-09-05T07:36:36Z</time>
      </trkpt>
      <trkpt lat="43.46853" lon="-1.57303">
        <ele>-2</ele>
        <time>2021-09-05T07:36:37Z</time>
      </trkpt>
      <trkpt lat="43.46856" lon="-1.57301">
        <ele>-2.3</ele>
        <time>2021-09-05T07:36:38Z</time>
      </trkpt>
      <trkpt lat="43.46859" lon="-1.57298">
        <ele>-1.9</ele>
        <time>2021-09-05T07:36:39Z</time>
      </trkpt>
      <trkpt lat="43.46862" lon="-1.57296">
        <ele>-1.9</ele>
        <time>2021-09-05T07:36:40Z</time>
      </trkpt>
      <trkpt lat="43.46865" lon="-1.57294">
        <ele>-1</ele>
        <time>2021-09-05T07:36:41Z</time>
      </trkpt>
      <trkpt lat="43.46868" lon="-1.57291">
        <ele>-0.6</ele>
        <time>2021-09-05T07:36:42Z</time>
      </trkpt>
      <trkpt lat="43.46871" lon="-1.57288">
        <ele>-0.7</ele>
        <time>2021-09-05T07:36:43Z</time>
      </trkpt>
      <trkpt lat="43.46875" lon="-1.57286">
        <ele>-0.3</ele>
        <time>2021-09-05T07:36:44Z</time>
      </trkpt>
      <trkpt lat="43.46878" lon="-1.57283">
        <ele>-0.9</ele>
        <time>2021-09-05T07:36:45Z</time>
      </trkpt>
      <trkpt lat="43.46881" lon="-1.57281">
        <ele>-0.8</ele>
        <time>2021-09-05T07:36:46Z</time>
      </trkpt>
      <trkpt lat="43.46884" lon="-1.57278">
        <ele>-1.7</ele>
        <time>2021-09-05T07:36:47Z</time>
      </trkpt>
      <trkpt lat="43.46886" lon="-1.57275">
        <ele>-2.3</ele>
        <time>2021-09-05T07:36:48Z</time>
      </trkpt>
      <trkpt lat="43.46889" lon="-1.57272">
        <ele>-1.7</ele>
        <time>2021-09-05T07:36:49Z</time>
      </trkpt>
      <trkpt lat="43.46892" lon="-1.5727">
        <ele>-1.4</ele>
        <time>2021-09-05T07:36:50Z</time>
      </trkpt>
      <trkpt lat="43.46895" lon="-1.57267">
        <ele>-0.8</ele>
        <time>2021-09-05T07:36:51Z</time>
      </trkpt>
      <trkpt lat="43.46898" lon="-1.57265">
        <ele>-0.1</ele>
        <time>2021-09-05T07:36:52Z</time>
      </trkpt>
      <trkpt lat="43.46902" lon="-1.57262">
        <ele>1</ele>
        <time>2021-09-05T07:36:53Z</time>
      </trkpt>
      <trkpt lat="43.46905" lon="-1.5726">
        <ele>0.3</ele>
        <time>2021-09-05T07:36:54Z</time>
      </trkpt>
      <trkpt lat="43.46908" lon="-1.57258">
        <ele>-0.5</ele>
        <time>2021-09-05T07:36:55Z</time>
      </trkpt>
      <trkpt lat="43.46912" lon="-1.57255">
        <ele>-0.7</ele>
        <time>2021-09-05T07:36:56Z</time>
      </trkpt>
      <trkpt lat="43.46916" lon="-1.57253">
        <ele>-1.8</ele>
        <time>2021-09-05T07:36:57Z</time>
      </trkpt>
      <trkpt lat="43.46919" lon="-1.57251">
        <ele>-1.8</ele>
        <time>2021-09-05T07:36:58Z</time>
      </trkpt>
      <trkpt lat="43.46922" lon="-1.57249">
        <ele>-2.2</ele>
        <time>2021-09-05T07:36:59Z</time>
      </trkpt>
      <trkpt lat="43.46925" lon="-1.57247">
        <ele>-1.9</ele>
        <time>2021-09-05T07:37:00Z</time>
      </trkpt>
      <trkpt lat="43.46928" lon="-1.57244">
        <ele>-1.5</ele>
        <time>2021-09-05T07:37:01Z</time>
      </trkpt>
      <trkpt lat="43.46932" lon="-1.57242">
        <ele>-0.5</ele>
        <time>2021-09-05T07:37:02Z</time>
      </trkpt>
      <trkpt lat="43.46935" lon="-1.57239">
        <ele>-0.2</ele>
        <time>2021-09-05T07:37:03Z</time>
      </trkpt>
      <trkpt lat="43.46938" lon="-1.57237">
        <ele>0.8</ele>
        <time>2021-09-05T07:37:04Z</time>
      </trkpt>
      <trkpt lat="43.46941" lon="-1.57235">
        <ele>0.8</ele>
        <time>2021-09-05T07:37:05Z</time>
      </trkpt>
      <trkpt lat="43.46945" lon="-1.57233">
        <ele>1.3</ele>
        <time>2021-09-05T07:37:06Z</time>
      </trkpt>
      <trkpt lat="43.46948" lon="-1.5723">
        <ele>0.9</ele>
        <time>2021-09-05T07:37:07Z</time>
      </trkpt>
      <trkpt lat="43.46952" lon="-1.57228">
        <ele>0.5</ele>
        <time>2021-09-05T07:37:08Z</time>
      </trkpt>
      <trkpt lat="43.46956" lon="-1.57226">
        <ele>-0.6</ele>
        <time>2021-09-05T07:37:09Z</time>
      </trkpt>
      <trkpt lat="43.46959" lon="-1.57224">
        <ele>-1.4</ele>
        <time>2021-09-05T07:37:10Z</time>
      </trkpt>
      <trkpt lat="43.46962" lon="-1.57221">
        <ele>-1.6</ele>
        <time>2021-09-05T07:37:11Z</time>
      </trkpt>
      <trkpt lat="43.46965" lon="-1.57219">
        <ele>-1.9</ele>
        <time>2021-09-05T07:37:12Z</time>
      </trkpt>
      <trkpt lat="43.46968" lon="-1.57217">
        <ele>-1.9</ele>
        <time>2021-09-05T07:37:13Z</time>
      </trkpt>
      <trkpt lat="43.46971" lon="-1.57214">
        <ele>-1.4</ele>
        <time>2021-09-05T07:37:14Z</time>
      </trkpt>
      <trkpt lat="43.46974" lon="-1.57212">
        <ele>-1.4</ele>
        <time>2021-09-05T07:37:15Z</time>
      </trkpt>
      <trkpt lat="43.46977" lon="-1.57209">
        <ele>-1</ele>
        <time>2021-09-05T07:37:16Z</time>
      </trkpt>
      <trkpt lat="43.4698" lon="-1.57207">
        <ele>-0.7</ele>
        <time>2021-09-05T07:37:17Z</time>
      </trkpt>
      <trkpt lat="43.46982" lon="-1.57205">
        <ele>-0.4</ele>
        <time>2021-09-05T07:37:18Z</time>
      </trkpt>
      <trkpt lat="43.46985" lon="-1.57202">
        <ele>-0.6</ele>
        <time>2021-09-05T07:37:19Z</time>
      </trkpt>
      <trkpt lat="43.46988" lon="-1.572">
        <ele>-0.4</ele>
        <time>2021-09-05T07:37:20Z</time>
      </trkpt>
      <trkpt lat="43.46991" lon="-1.57198">
        <ele>-1</ele>
        <time>2021-09-05T07:37:21Z</time>
      </trkpt>
      <trkpt lat="43.46995" lon="-1.57196">
        <ele>-0.9</ele>
        <time>2021-09-05T07:37:22Z</time>
      </trkpt>
      <trkpt lat="43.46998" lon="-1.57193">
        <ele>-1.2</ele>
        <time>2021-09-05T07:37:23Z</time>
      </trkpt>
      <trkpt lat="43.47001" lon="-1.57191">
        <ele>-0.9</ele>
        <time>2021-09-05T07:37:24Z</time>
      </trkpt>
      <trkpt lat="43.47004" lon="-1.57188">
        <ele>-0.7</ele>
        <time>2021-09-05T07:37:25Z</time>
      </trkpt>
      <trkpt lat="43.47007" lon="-1.57186">
        <ele>-0.2</ele>
        <time>2021-09-05T07:37:26Z</time>
      </trkpt>
      <trkpt lat="43.47011" lon="-1.57183">
        <ele>0.3</ele>
        <time>2021-09-05T07:37:27Z</time>
      </trkpt>
      <trkpt lat="43.47014" lon="-1.57181">
        <ele>0.4</ele>
        <time>2021-09-05T07:37:28Z</time>
      </trkpt>
      <trkpt lat="43.47017" lon="-1.57178">
        <ele>0.7</ele>
        <time>2021-09-05T07:37:29Z</time>
      </trkpt>
      <trkpt lat="43.4702" lon="-1.57176">
        <ele>0.1</ele>
        <time>2021-09-05T07:37:30Z</time>
      </trkpt>
      <trkpt lat="43.47023" lon="-1.57173">
        <ele>-0.7</ele>
        <time>2021-09-05T07:37:31Z</time>
      </trkpt>
      <trkpt lat="43.47026" lon="-1.5717">
        <ele>-0.5</ele>
        <time>2021-09-05T07:37:32Z</time>
      </trkpt>
      <trkpt lat="43.47029" lon="-1.57167">
        <ele>-0.9</ele>
        <time>2021-09-05T07:37:33Z</time>
      </trkpt>
      <trkpt lat="43.47032" lon="-1.57164">
        <ele>-0.8</ele>
        <time>2021-09-05T07:37:34Z</time>
      </trkpt>
      <trkpt lat="43.47035" lon="-1.57162">
        <ele>-0.1</ele>
        <time>2021-09-05T07:37:35Z</time>
      </trkpt>
      <trkpt lat="43.47039" lon="-1.57159">
        <ele>0.3</ele>
        <time>2021-09-05T07:37:36Z</time>
      </trkpt>
      <trkpt lat="43.47042" lon="-1.57156">
        <ele>0.4</ele>
        <time>2021-09-05T07:37:37Z</time>
      </trkpt>
      <trkpt lat="43.47045" lon="-1.57153">
        <ele>0.8</ele>
        <time>2021-09-05T07:37:38Z</time>
      </trkpt>
      <trkpt lat="43.47048" lon="-1.5715">
        <ele>0.2</ele>
        <time>2021-09-05T07:37:39Z</time>
      </trkpt>
      <trkpt lat="43.47051" lon="-1.57147">
        <ele>-1</ele>
        <time>2021-09-05T07:37:40Z</time>
      </trkpt>
      <trkpt lat="43.47054" lon="-1.57145">
        <ele>-1</ele>
        <time>2021-09-05T07:37:41Z</time>
      </trkpt>
      <trkpt lat="43.47058" lon="-1.57142">
        <ele>-2.3</ele>
        <time>2021-09-05T07:37:42Z</time>
      </trkpt>
      <trkpt lat="43.47061" lon="-1.57139">
        <ele>-2.2</ele>
        <time>2021-09-05T07:37:43Z</time>
      </trkpt>
      <trkpt lat="43.47064" lon="-1.57137">
        <ele>-2.7</ele>
        <time>2021-09-05T07:37:44Z</time>
      </trkpt>
      <trkpt lat="43.47067" lon="-1.57134">
        <ele>-2.3</ele>
        <time>2021-09-05T07:37:45Z</time>
      </trkpt>
      <trkpt lat="43.47071" lon="-1.57132">
        <ele>-1.2</ele>
        <time>2021-09-05T07:37:46Z</time>
      </trkpt>
      <trkpt lat="43.47074" lon="-1.57129">
        <ele>-0.1</ele>
        <time>2021-09-05T07:37:47Z</time>
      </trkpt>
      <trkpt lat="43.47077" lon="-1.57127">
        <ele>0.2</ele>
        <time>2021-09-05T07:37:48Z</time>
      </trkpt>
      <trkpt lat="43.47081" lon="-1.57124">
        <ele>1</ele>
        <time>2021-09-05T07:37:49Z</time>
      </trkpt>
      <trkpt lat="43.47085" lon="-1.57122">
        <ele>0.8</ele>
        <time>2021-09-05T07:37:50Z</time>
      </trkpt>
      <trkpt lat="43.47088" lon="-1.5712">
        <ele>0.6</ele>
        <time>2021-09-05T07:37:51Z</time>
      </trkpt>
      <trkpt lat="43.47092" lon="-1.57117">
        <ele>-0.3</ele>
        <time>2021-09-05T07:37:52Z</time>
      </trkpt>
      <trkpt lat="43.47095" lon="-1.57115">
        <ele>-1</ele>
        <time>2021-09-05T07:37:53Z</time>
      </trkpt>
      <trkpt lat="43.47099" lon="-1.57113">
        <ele>-2.5</ele>
        <time>2021-09-05T07:37:54Z</time>
      </trkpt>
      <trkpt lat="43.47102" lon="-1.57111">
        <ele>-2.6</ele>
        <time>2021-09-05T07:37:55Z</time>
      </trkpt>
      <trkpt lat="43.47106" lon="-1.57109">
        <ele>-2.4</ele>
        <time>2021-09-05T07:37:56Z</time>
      </trkpt>
      <trkpt lat="43.47109" lon="-1.57108">
        <ele>-2.5</ele>
        <time>2021-09-05T07:37:57Z</time>
      </trkpt>
      <trkpt lat="43.47113" lon="-1.57106">
        <ele>-1.8</ele>
        <time>2021-09-05T07:37:58Z</time>
      </trkpt>
      <trkpt lat="43.47116" lon="-1.57104">
        <ele>-1.3</ele>
        <time>2021-09-05T07:37:59Z</time>
      </trkpt>
      <trkpt lat="43.47119" lon="-1.57102">
        <ele>-0.6</ele>
        <time>2021-09-05T07:38:00Z</time>
      </trkpt>
      <trkpt lat="43.47123" lon="-1.57099">
        <ele>-0.2</ele>
        <time>2021-09-05T07:38:01Z</time>
      </trkpt>
      <trkpt lat="43.47126" lon="-1.57097">
        <ele>0.3</ele>
        <time>2021-09-05T07:38:02Z</time>
      </trkpt>
      <trkpt lat="43.4713" lon="-1.57095">
        <ele>-0.4</ele>
        <time>2021-09-05T07:38:03Z</time>
      </trkpt>
      <trkpt lat="43.47133" lon="-1.57093">
        <ele>-0.4</ele>
        <time>2021-09-05T07:38:04Z</time>
      </trkpt>
      <trkpt lat="43.47136" lon="-1.57091">
        <ele>-2.1</ele>
        <time>2021-09-05T07:38:05Z</time>
      </trkpt>
      <trkpt lat="43.47139" lon="-1.57088">
        <ele>-2.1</ele>
        <time>2021-09-05T07:38:06Z</time>
      </trkpt>
      <trkpt lat="43.47143" lon="-1.57086">
        <ele>-3.1</ele>
        <time>2021-09-05T07:38:07Z</time>
      </trkpt>
      <trkpt lat="43.47146" lon="-1.57083">
        <ele>-2.7</ele>
        <time>2021-09-05T07:38:08Z</time>
      </trkpt>
      <trkpt lat="43.47149" lon="-1.57081">
        <ele>-2.4</ele>
        <time>2021-09-05T07:38:09Z</time>
      </trkpt>
      <trkpt lat="43.47153" lon="-1.57078">
        <ele>-1.2</ele>
        <time>2021-09-05T07:38:10Z</time>
      </trkpt>
      <trkpt lat="43.47157" lon="-1.57076">
        <ele>-0.7</ele>
        <time>2021-09-05T07:38:11Z</time>
      </trkpt>
      <trkpt lat="43.4716" lon="-1.57074">
        <ele>0.7</ele>
        <time>2021-09-05T07:38:12Z</time>
      </trkpt>
      <trkpt lat="43.47164" lon="-1.57071">
        <ele>0.7</ele>
        <time>2021-09-05T07:38:13Z</time>
      </trkpt>
      <trkpt lat="43.47167" lon="-1.57068">
        <ele>1.4</ele>
        <time>2021-09-05T07:38:14Z</time>
      </trkpt>
      <trkpt lat="43.4717" lon="-1.57065">
        <ele>1.5</ele>
        <time>2021-09-05T07:38:15Z</time>
      </trkpt>
      <trkpt lat="43.47174" lon="-1.57063">
        <ele>1</ele>
        <time>2021-09-05T07:38:16Z</time>
      </trkpt>
      <trkpt lat="43.47178" lon="-1.5706">
        <ele>-0.9</ele>
        <time>2021-09-05T07:38:17Z</time>
      </trkpt>
      <trkpt lat="43.47181" lon="-1.57058">
        <ele>-1.5</ele>
        <time>2021-09-05T07:38:18Z</time>
      </trkpt>
      <trkpt lat="43.47184" lon="-1.57055">
        <ele>-2.4</ele>
        <time>2021-09-05T07:38:19Z</time>
      </trkpt>
      <trkpt lat="43.47188" lon="-1.57053">
        <ele>-2.7</ele>
        <time>2021-09-05T07:38:20Z</time>
      </trkpt>
      <trkpt lat="43.47191" lon="-1.5705">
        <ele>-2.6</ele>
        <time>2021-09-05T07:38:21Z</time>
      </trkpt>
      <trkpt lat="43.47195" lon="-1.57047">
        <ele>-2.2</ele>
        <time>2021-09-05T07:38:22Z</time>
      </trkpt>
      <trkpt lat="43.47198" lon="-1.57045">
        <ele>-1</ele>
        <time>2021-09-05T07:38:23Z</time>
      </trkpt>
      <trkpt lat="43.47202" lon="-1.57042">
        <ele>-0.5</ele>
        <time>2021-09-05T07:38:24Z</time>
      </trkpt>
      <trkpt lat="43.47205" lon="-1.5704">
        <ele>-0.5</ele>
        <time>2021-09-05T07:38:25Z</time>
      </trkpt>
      <trkpt lat="43.47208" lon="-1.57037">
        <ele>-0.3</ele>
        <time>2021-09-05T07:38:26Z</time>
      </trkpt>
      <trkpt lat="43.47211" lon="-1.57034">
        <ele>-0.9</ele>
        <time>2021-09-05T07:38:27Z</time>
      </trkpt>
      <trkpt lat="43.47214" lon="-1.57032">
        <ele>-0.7</ele>
        <time>2021-09-05T07:38:28Z</time>
      </trkpt>
      <trkpt lat="43.47218" lon="-1.57029">
        <ele>-1.4</ele>
        <time>2021-09-05T07:38:29Z</time>
      </trkpt>
      <trkpt lat="43.47221" lon="-1.57026">
        <ele>-1.6</ele>
        <time>2021-09-05T07:38:30Z</time>
      </trkpt>
      <trkpt lat="43.47225" lon="-1.57023">
        <ele>-1.2</ele>
        <time>2021-09-05T07:38:31Z</time>
      </trkpt>
      <trkpt lat="43.47228" lon="-1.57021">
        <ele>-0.9</ele>
        <time>2021-09-05T07:38:32Z</time>
      </trkpt>
      <trkpt lat="43.47232" lon="-1.57018">
        <ele>-0.5</ele>
        <time>2021-09-05T07:38:33Z</time>
      </trkpt>
      <trkpt lat="43.47235" lon="-1.57016">
        <ele>0.1</ele>
        <time>2021-09-05T07:38:34Z</time>
      </trkpt>
      <trkpt lat="43.47238" lon="-1.57013">
        <ele>0.1</ele>
        <time>2021-09-05T07:38:35Z</time>
      </trkpt>
      <trkpt lat="43.47242" lon="-1.5701">
        <ele>0.5</ele>
        <time>2021-09-05T07:38:36Z</time>
      </trkpt>
      <trkpt lat="43.47245" lon="-1.57008">
        <ele>-0.5</ele>
        <time>2021-09-05T07:38:37Z</time>
      </trkpt>
      <trkpt lat="43.47249" lon="-1.57005">
        <ele>-1.6</ele>
        <time>2021-09-05T07:38:38Z</time>
      </trkpt>
      <trkpt lat="43.47252" lon="-1.57003">
        <ele>-1.6</ele>
        <time>2021-09-05T07:38:39Z</time>
      </trkpt>
      <trkpt lat="43.47256" lon="-1.57">
        <ele>-2.1</ele>
        <time>2021-09-05T07:38:40Z</time>
      </trkpt>
      <trkpt lat="43.47259" lon="-1.56998">
        <ele>-1.8</ele>
        <time>2021-09-05T07:38:41Z</time>
      </trkpt>
      <trkpt lat="43.47262" lon="-1.56995">
        <ele>-1.4</ele>
        <time>2021-09-05T07:38:42Z</time>
      </trkpt>
      <trkpt lat="43.47265" lon="-1.56993">
        <ele>-0.3</ele>
        <time>2021-09-05T07:38:43Z</time>
      </trkpt>
      <trkpt lat="43.47269" lon="-1.5699">
        <ele>2.62</ele>
        <time>2021-09-05T07:38:44Z</time>
      </trkpt>
      <trkpt lat="43.47272" lon="-1.56988">
        <ele>1.1</ele>
        <time>2021-09-05T07:38:45Z</time>
      </trkpt>
      <trkpt lat="43.47275" lon="-1.56985">
        <ele>1</ele>
        <time>2021-09-05T07:38:46Z</time>
      </trkpt>
      <trkpt lat="43.47278" lon="-1.56983">
        <ele>1.4</ele>
        <time>2021-09-05T07:38:47Z</time>
      </trkpt>
      <trkpt lat="43.47282" lon="-1.5698">
        <ele>0.9</ele>
        <time>2021-09-05T07:38:48Z</time>
      </trkpt>
      <trkpt lat="43.47285" lon="-1.56978">
        <ele>0.6</ele>
        <time>2021-09-05T07:38:49Z</time>
      </trkpt>
      <trkpt lat="43.47288" lon="-1.56975">
        <ele>-0.1</ele>
        <time>2021-09-05T07:38:50Z</time>
      </trkpt>
      <trkpt lat="43.47292" lon="-1.56973">
        <ele>-0.8</ele>
        <time>2021-09-05T07:38:51Z</time>
      </trkpt>
      <trkpt lat="43.47295" lon="-1.5697">
        <ele>-1.8</ele>
        <time>2021-09-05T07:38:52Z</time>
      </trkpt>
      <trkpt lat="43.47299" lon="-1.56968">
        <ele>-1.9</ele>
        <time>2021-09-05T07:38:53Z</time>
      </trkpt>
      <trkpt lat="43.47302" lon="-1.56965">
        <ele>-1.8</ele>
        <time>2021-09-05T07:38:54Z</time>
      </trkpt>
      <trkpt lat="43.47306" lon="-1.56963">
        <ele>-1.3</ele>
        <time>2021-09-05T07:38:55Z</time>
      </trkpt>
      <trkpt lat="43.47309" lon="-1.5696">
        <ele>-0.9</ele>
        <time>2021-09-05T07:38:56Z</time>
      </trkpt>
      <trkpt lat="43.47313" lon="-1.56958">
        <ele>-0.4</ele>
        <time>2021-09-05T07:38:57Z</time>
      </trkpt>
      <trkpt lat="43.47316" lon="-1.56956">
        <ele>-0.2</ele>
        <time>2021-09-05T07:38:58Z</time>
      </trkpt>
      <trkpt lat="43.4732" lon="-1.56954">
        <ele>-0.5</ele>
        <time>2021-09-05T07:38:59Z</time>
      </trkpt>
      <trkpt lat="43.47324" lon="-1.56952">
        <ele>-0.5</ele>
        <time>2021-09-05T07:39:00Z</time>
      </trkpt>
      <trkpt lat="43.47327" lon="-1.56949">
        <ele>-1.4</ele>
        <time>2021-09-05T07:39:01Z</time>
      </trkpt>
      <trkpt lat="43.47331" lon="-1.56947">
        <ele>-1.5</ele>
        <time>2021-09-05T07:39:02Z</time>
      </trkpt>
      <trkpt lat="43.47335" lon="-1.56945">
        <ele>-2.1</ele>
        <time>2021-09-05T07:39:03Z</time>
      </trkpt>
      <trkpt lat="43.47338" lon="-1.56943">
        <ele>-2</ele>
        <time>2021-09-05T07:39:04Z</time>
      </trkpt>
      <trkpt lat="43.47341" lon="-1.5694">
        <ele>-1.8</ele>
        <time>2021-09-05T07:39:05Z</time>
      </trkpt>
      <trkpt lat="43.47345" lon="-1.56938">
        <ele>-1</ele>
        <time>2021-09-05T07:39:06Z</time>
      </trkpt>
      <trkpt lat="43.47349" lon="-1.56936">
        <ele>-0.1</ele>
        <time>2021-09-05T07:39:07Z</time>
      </trkpt>
      <trkpt lat="43.47353" lon="-1.56934">
        <ele>0.1</ele>
        <time>2021-09-05T07:39:08Z</time>
      </trkpt>
      <trkpt lat="43.47356" lon="-1.56931">
        <ele>1</ele>
        <time>2021-09-05T07:39:09Z</time>
      </trkpt>
      <trkpt lat="43.47359" lon="-1.56929">
        <ele>0.9</ele>
        <time>2021-09-05T07:39:10Z</time>
      </trkpt>
      <trkpt lat="43.47363" lon="-1.56927">
        <ele>1.2</ele>
        <time>2021-09-05T07:39:11Z</time>
      </trkpt>
      <trkpt lat="43.47366" lon="-1.56925">
        <ele>0.5</ele>
        <time>2021-09-05T07:39:12Z</time>
      </trkpt>
      <trkpt lat="43.47369" lon="-1.56922">
        <ele>0.5</ele>
        <time>2021-09-05T07:39:13Z</time>
      </trkpt>
      <trkpt lat="43.47373" lon="-1.5692">
        <ele>-0.5</ele>
        <time>2021-09-05T07:39:14Z</time>
      </trkpt>
      <trkpt lat="43.47377" lon="-1.56918">
        <ele>-0.9</ele>
        <time>2021-09-05T07:39:15Z</time>
      </trkpt>
      <trkpt lat="43.4738" lon="-1.56915">
        <ele>-1.3</ele>
        <time>2021-09-05T07:39:16Z</time>
      </trkpt>
      <trkpt lat="43.47383" lon="-1.56912">
        <ele>-1.4</ele>
        <time>2021-09-05T07:39:17Z</time>
      </trkpt>
      <trkpt lat="43.47386" lon="-1.5691">
        <ele>-1.3</ele>
        <time>2021-09-05T07:39:18Z</time>
      </trkpt>
      <trkpt lat="43.4739" lon="-1.56907">
        <ele>-0.9</ele>
        <time>2021-09-05T07:39:19Z</time>
      </trkpt>
      <trkpt lat="43.47393" lon="-1.56904">
        <ele>-0.6</ele>
        <time>2021-09-05T07:39:20Z</time>
      </trkpt>
      <trkpt lat="43.47397" lon="-1.56902">
        <ele>-0.2</ele>
        <time>2021-09-05T07:39:21Z</time>
      </trkpt>
      <trkpt lat="43.474" lon="-1.56899">
        <ele>1</ele>
        <time>2021-09-05T07:39:22Z</time>
      </trkpt>
      <trkpt lat="43.47404" lon="-1.56897">
        <ele>-0.1</ele>
        <time>2021-09-05T07:39:23Z</time>
      </trkpt>
      <trkpt lat="43.47407" lon="-1.56895">
        <ele>-0.2</ele>
        <time>2021-09-05T07:39:24Z</time>
      </trkpt>
      <trkpt lat="43.47411" lon="-1.56892">
        <ele>-0.8</ele>
        <time>2021-09-05T07:39:25Z</time>
      </trkpt>
      <trkpt lat="43.47415" lon="-1.5689">
        <ele>-0.8</ele>
        <time>2021-09-05T07:39:26Z</time>
      </trkpt>
      <trkpt lat="43.47419" lon="-1.56889">
        <ele>-1.2</ele>
        <time>2021-09-05T07:39:27Z</time>
      </trkpt>
      <trkpt lat="43.47422" lon="-1.56887">
        <ele>-1.2</ele>
        <time>2021-09-05T07:39:28Z</time>
      </trkpt>
      <trkpt lat="43.47426" lon="-1.56885">
        <ele>-0.8</ele>
        <time>2021-09-05T07:39:29Z</time>
      </trkpt>
      <trkpt lat="43.4743" lon="-1.56882">
        <ele>-0.6</ele>
        <time>2021-09-05T07:39:30Z</time>
      </trkpt>
      <trkpt lat="43.47434" lon="-1.5688">
        <ele>1.39</ele>
        <time>2021-09-05T07:39:31Z</time>
      </trkpt>
      <trkpt lat="43.47437" lon="-1.56878">
        <ele>0.2</ele>
        <time>2021-09-05T07:39:32Z</time>
      </trkpt>
      <trkpt lat="43.47441" lon="-1.56876">
        <ele>0.8</ele>
        <time>2021-09-05T07:39:33Z</time>
      </trkpt>
      <trkpt lat="43.47445" lon="-1.56874">
        <ele>0.7</ele>
        <time>2021-09-05T07:39:34Z</time>
      </trkpt>
      <trkpt lat="43.47448" lon="-1.56872">
        <ele>0.7</ele>
        <time>2021-09-05T07:39:35Z</time>
      </trkpt>
      <trkpt lat="43.47452" lon="-1.5687">
        <ele>0.4</ele>
        <time>2021-09-05T07:39:36Z</time>
      </trkpt>
      <trkpt lat="43.47455" lon="-1.56868">
        <ele>0.1</ele>
        <time>2021-09-05T07:39:37Z</time>
      </trkpt>
      <trkpt lat="43.47458" lon="-1.56866">
        <ele>-0.2</ele>
        <time>2021-09-05T07:39:38Z</time>
      </trkpt>
      <trkpt lat="43.47462" lon="-1.56864">
        <ele>-0.6</ele>
        <time>2021-09-05T07:39:39Z</time>
      </trkpt>
      <trkpt lat="43.47466" lon="-1.56862">
        <ele>-0.7</ele>
        <time>2021-09-05T07:39:40Z</time>
      </trkpt>
      <trkpt lat="43.47469" lon="-1.5686">
        <ele>-0.6</ele>
        <time>2021-09-05T07:39:41Z</time>
      </trkpt>
      <trkpt lat="43.47472" lon="-1.56858">
        <ele>-0.5</ele>
        <time>2021-09-05T07:39:42Z</time>
      </trkpt>
      <trkpt lat="43.47476" lon="-1.56857">
        <ele>-0.2</ele>
        <time>2021-09-05T07:39:43Z</time>
      </trkpt>
      <trkpt lat="43.4748" lon="-1.56855">
        <ele>2</ele>
        <time>2021-09-05T07:39:44Z</time>
      </trkpt>
      <trkpt lat="43.47483" lon="-1.56853">
        <ele>0.3</ele>
        <time>2021-09-05T07:39:45Z</time>
      </trkpt>
      <trkpt lat="43.47486" lon="-1.56851">
        <ele>0.4</ele>
        <time>2021-09-05T07:39:46Z</time>
      </trkpt>
      <trkpt lat="43.47489" lon="-1.56848">
        <ele>0.5</ele>
        <time>2021-09-05T07:39:47Z</time>
      </trkpt>
      <trkpt lat="43.47492" lon="-1.56846">
        <ele>0.4</ele>
        <time>2021-09-05T07:39:48Z</time>
      </trkpt>
      <trkpt lat="43.47496" lon="-1.56844">
        <ele>0.4</ele>
        <time>2021-09-05T07:39:49Z</time>
      </trkpt>
      <trkpt lat="43.47499" lon="-1.56842">
        <ele>0.1</ele>
        <time>2021-09-05T07:39:50Z</time>
      </trkpt>
      <trkpt lat="43.47502" lon="-1.5684">
        <ele>0.2</ele>
        <time>2021-09-05T07:39:51Z</time>
      </trkpt>
      <trkpt lat="43.47506" lon="-1.56838">
        <ele>0.1</ele>
        <time>2021-09-05T07:39:52Z</time>
      </trkpt>
      <trkpt lat="43.4751" lon="-1.56836">
        <ele>0.4</ele>
        <time>2021-09-05T07:39:53Z</time>
      </trkpt>
      <trkpt lat="43.47514" lon="-1.56835">
        <ele>0.6</ele>
        <time>2021-09-05T07:39:54Z</time>
      </trkpt>
      <trkpt lat="43.47518" lon="-1.56833">
        <ele>0.8</ele>
        <time>2021-09-05T07:39:55Z</time>
      </trkpt>
      <trkpt lat="43.47522" lon="-1.56832">
        <ele>0.9</ele>
        <time>2021-09-05T07:39:56Z</time>
      </trkpt>
      <trkpt lat="43.47526" lon="-1.5683">
        <ele>0.9</ele>
        <time>2021-09-05T07:39:57Z</time>
      </trkpt>
      <trkpt lat="43.4753" lon="-1.56828">
        <ele>0.9</ele>
        <time>2021-09-05T07:39:58Z</time>
      </trkpt>
      <trkpt lat="43.47534" lon="-1.56827">
        <ele>0.9</ele>
        <time>2021-09-05T07:39:59Z</time>
      </trkpt>
      <trkpt lat="43.4754" lon="-1.56824">
        <ele>0.6</ele>
        <time>2021-09-05T07:40:00Z</time>
      </trkpt>
      <trkpt lat="43.47542" lon="-1.56823">
        <ele>0.6</ele>
        <time>2021-09-05T07:40:01Z</time>
      </trkpt>
      <trkpt lat="43.47547" lon="-1.56822">
        <ele>0.5</ele>
        <time>2021-09-05T07:40:02Z</time>
      </trkpt>
      <trkpt lat="43.4755" lon="-1.5682">
        <ele>0.3</ele>
        <time>2021-09-05T07:40:03Z</time>
      </trkpt>
      <trkpt lat="43.47554" lon="-1.56819">
        <ele>0.4</ele>
        <time>2021-09-05T07:40:04Z</time>
      </trkpt>
      <trkpt lat="43.47558" lon="-1.56818">
        <ele>0.4</ele>
        <time>2021-09-05T07:40:05Z</time>
      </trkpt>
      <trkpt lat="43.47562" lon="-1.56816">
        <ele>0.4</ele>
        <time>2021-09-05T07:40:06Z</time>
      </trkpt>
      <trkpt lat="43.47566" lon="-1.56814">
        <ele>0.5</ele>
        <time>2021-09-05T07:40:07Z</time>
      </trkpt>
      <trkpt lat="43.4757" lon="-1.56813">
        <ele>0.6</ele>
        <time>2021-09-05T07:40:08Z</time>
      </trkpt>
      <trkpt lat="43.47573" lon="-1.56811">
        <ele>0.7</ele>
        <time>2021-09-05T07:40:09Z</time>
      </trkpt>
      <trkpt lat="43.47578" lon="-1.5681">
        <ele>0.8</ele>
        <time>2021-09-05T07:40:10Z</time>
      </trkpt>
      <trkpt lat="43.47582" lon="-1.56809">
        <ele>0.8</ele>
        <time>2021-09-05T07:40:11Z</time>
      </trkpt>
      <trkpt lat="43.47586" lon="-1.56807">
        <ele>0.8</ele>
        <time>2021-09-05T07:40:12Z</time>
      </trkpt>
      <trkpt lat="43.47589" lon="-1.56806">
        <ele>0.8</ele>
        <time>2021-09-05T07:40:13Z</time>
      </trkpt>
      <trkpt lat="43.47593" lon="-1.56805">
        <ele>0.8</ele>
        <time>2021-09-05T07:40:14Z</time>
      </trkpt>
      <trkpt lat="43.47597" lon="-1.56804">
        <ele>0.7</ele>
        <time>2021-09-05T07:40:15Z</time>
      </trkpt>
      <trkpt lat="43.47601" lon="-1.56803">
        <ele>0.6</ele>
        <time>2021-09-05T07:40:16Z</time>
      </trkpt>
      <trkpt lat="43.47605" lon="-1.56801">
        <ele>0.6</ele>
        <time>2021-09-05T07:40:17Z</time>
      </trkpt>
      <trkpt lat="43.47609" lon="-1.568">
        <ele>0.6</ele>
        <time>2021-09-05T07:40:18Z</time>
      </trkpt>
      <trkpt lat="43.47613" lon="-1.56798">
        <ele>0.6</ele>
        <time>2021-09-05T07:40:19Z</time>
      </trkpt>
      <trkpt lat="43.47617" lon="-1.56797">
        <ele>0.6</ele>
        <time>2021-09-05T07:40:20Z</time>
      </trkpt>
      <trkpt lat="43.47621" lon="-1.56795">
        <ele>0.4</ele>
        <time>2021-09-05T07:40:21Z</time>
      </trkpt>
      <trkpt lat="43.47624" lon="-1.56793">
        <ele>0.4</ele>
        <time>2021-09-05T07:40:22Z</time>
      </trkpt>
      <trkpt lat="43.47628" lon="-1.56791">
        <ele>0.1</ele>
        <time>2021-09-05T07:40:23Z</time>
      </trkpt>
      <trkpt lat="43.47632" lon="-1.56789">
        <ele>0.2</ele>
        <time>2021-09-05T07:40:24Z</time>
      </trkpt>
      <trkpt lat="43.47635" lon="-1.56787">
        <ele>0.2</ele>
        <time>2021-09-05T07:40:25Z</time>
      </trkpt>
      <trkpt lat="43.47638" lon="-1.56785">
        <ele>0.1</ele>
        <time>2021-09-05T07:40:26Z</time>
      </trkpt>
      <trkpt lat="43.47642" lon="-1.56782">
        <ele>0.2</ele>
        <time>2021-09-05T07:40:27Z</time>
      </trkpt>
      <trkpt lat="43.47645" lon="-1.5678">
        <ele>0.3</ele>
        <time>2021-09-05T07:40:28Z</time>
      </trkpt>
      <trkpt lat="43.47649" lon="-1.56778">
        <ele>0.5</ele>
        <time>2021-09-05T07:40:29Z</time>
      </trkpt>
      <trkpt lat="43.47652" lon="-1.56775">
        <ele>0.7</ele>
        <time>2021-09-05T07:40:30Z</time>
      </trkpt>
      <trkpt lat="43.47655" lon="-1.56773">
        <ele>0.8</ele>
        <time>2021-09-05T07:40:31Z</time>
      </trkpt>
      <trkpt lat="43.47659" lon="-1.56771">
        <ele>0.9</ele>
        <time>2021-09-05T07:40:32Z</time>
      </trkpt>
      <trkpt lat="43.47662" lon="-1.5677">
        <ele>0.7</ele>
        <time>2021-09-05T07:40:33Z</time>
      </trkpt>
      <trkpt lat="43.47665" lon="-1.56768">
        <ele>0.7</ele>
        <time>2021-09-05T07:40:34Z</time>
      </trkpt>
      <trkpt lat="43.47669" lon="-1.56766">
        <ele>0.7</ele>
        <time>2021-09-05T07:40:35Z</time>
      </trkpt>
      <trkpt lat="43.47673" lon="-1.56765">
        <ele>0.2</ele>
        <time>2021-09-05T07:40:36Z</time>
      </trkpt>
      <trkpt lat="43.47677" lon="-1.56764">
        <ele>0.2</ele>
        <time>2021-09-05T07:40:37Z</time>
      </trkpt>
      <trkpt lat="43.47681" lon="-1.56762">
        <ele>0.2</ele>
        <time>2021-09-05T07:40:38Z</time>
      </trkpt>
      <trkpt lat="43.47685" lon="-1.56761">
        <ele>-0.1</ele>
        <time>2021-09-05T07:40:39Z</time>
      </trkpt>
      <trkpt lat="43.47688" lon="-1.56759">
        <ele>2</ele>
        <time>2021-09-05T07:40:40Z</time>
      </trkpt>
      <trkpt lat="43.47692" lon="-1.56758">
        <ele>0.2</ele>
        <time>2021-09-05T07:40:41Z</time>
      </trkpt>
      <trkpt lat="43.47696" lon="-1.56757">
        <ele>0.1</ele>
        <time>2021-09-05T07:40:42Z</time>
      </trkpt>
      <trkpt lat="43.477" lon="-1.56755">
        <ele>0.5</ele>
        <time>2021-09-05T07:40:43Z</time>
      </trkpt>
      <trkpt lat="43.47704" lon="-1.56754">
        <ele>0.6</ele>
        <time>2021-09-05T07:40:44Z</time>
      </trkpt>
      <trkpt lat="43.47708" lon="-1.56752">
        <ele>0.8</ele>
        <time>2021-09-05T07:40:45Z</time>
      </trkpt>
      <trkpt lat="43.47712" lon="-1.56751">
        <ele>0.9</ele>
        <time>2021-09-05T07:40:46Z</time>
      </trkpt>
      <trkpt lat="43.47715" lon="-1.56748">
        <ele>1</ele>
        <time>2021-09-05T07:40:47Z</time>
      </trkpt>
      <trkpt lat="43.47718" lon="-1.56746">
        <ele>1.1</ele>
        <time>2021-09-05T07:40:48Z</time>
      </trkpt>
      <trkpt lat="43.47722" lon="-1.56744">
        <ele>1</ele>
        <time>2021-09-05T07:40:49Z</time>
      </trkpt>
      <trkpt lat="43.47725" lon="-1.56743">
        <ele>0.9</ele>
        <time>2021-09-05T07:40:50Z</time>
      </trkpt>
      <trkpt lat="43.47729" lon="-1.56741">
        <ele>0.8</ele>
        <time>2021-09-05T07:40:51Z</time>
      </trkpt>
      <trkpt lat="43.47733" lon="-1.56739">
        <ele>0.5</ele>
        <time>2021-09-05T07:40:52Z</time>
      </trkpt>
      <trkpt lat="43.47737" lon="-1.56738">
        <ele>0.5</ele>
        <time>2021-09-05T07:40:53Z</time>
      </trkpt>
      <trkpt lat="43.47741" lon="-1.56736">
        <ele>0.5</ele>
        <time>2021-09-05T07:40:54Z</time>
      </trkpt>
      <trkpt lat="43.47744" lon="-1.56734">
        <ele>-0.1</ele>
        <time>2021-09-05T07:40:55Z</time>
      </trkpt>
      <trkpt lat="43.47747" lon="-1.56732">
        <ele>-0.1</ele>
        <time>2021-09-05T07:40:56Z</time>
      </trkpt>
      <trkpt lat="43.47751" lon="-1.5673">
        <ele>-0.9</ele>
        <time>2021-09-05T07:40:57Z</time>
      </trkpt>
      <trkpt lat="43.47754" lon="-1.56728">
        <ele>-0.9</ele>
        <time>2021-09-05T07:40:58Z</time>
      </trkpt>
      <trkpt lat="43.47758" lon="-1.56726">
        <ele>-1.6</ele>
        <time>2021-09-05T07:40:59Z</time>
      </trkpt>
      <trkpt lat="43.47762" lon="-1.56725">
        <ele>-1.4</ele>
        <time>2021-09-05T07:41:00Z</time>
      </trkpt>
      <trkpt lat="43.47766" lon="-1.56722">
        <ele>-1.4</ele>
        <time>2021-09-05T07:41:01Z</time>
      </trkpt>
      <trkpt lat="43.47769" lon="-1.5672">
        <ele>-1.1</ele>
        <time>2021-09-05T07:41:02Z</time>
      </trkpt>
      <trkpt lat="43.47773" lon="-1.56718">
        <ele>-0.7</ele>
        <time>2021-09-05T07:41:03Z</time>
      </trkpt>
      <trkpt lat="43.47776" lon="-1.56716">
        <ele>-0.4</ele>
        <time>2021-09-05T07:41:04Z</time>
      </trkpt>
      <trkpt lat="43.4778" lon="-1.56714">
        <ele>3.81</ele>
        <time>2021-09-05T07:41:05Z</time>
      </trkpt>
      <trkpt lat="43.47782" lon="-1.56712">
        <ele>0.2</ele>
        <time>2021-09-05T07:41:06Z</time>
      </trkpt>
      <trkpt lat="43.47784" lon="-1.56711">
        <ele>0.4</ele>
        <time>2021-09-05T07:41:07Z</time>
      </trkpt>
      <trkpt lat="43.47784" lon="-1.56711">
        <ele>0.4</ele>
        <time>2021-09-05T07:41:08Z</time>
      </trkpt>
      <trkpt lat="43.47786" lon="-1.56711">
        <ele>0.4</ele>
        <time>2021-09-05T07:41:09Z</time>
      </trkpt>
      <trkpt lat="43.47786" lon="-1.56711">
        <ele>0.4</ele>
        <time>2021-09-05T07:41:10Z</time>
      </trkpt>
      <trkpt lat="43.47789" lon="-1.5671">
        <ele>0.1</ele>
        <time>2021-09-05T07:41:11Z</time>
      </trkpt>
      <trkpt lat="43.47792" lon="-1.56709">
        <ele>2.5</ele>
        <time>2021-09-05T07:41:12Z</time>
      </trkpt>
      <trkpt lat="43.47795" lon="-1.56708">
        <ele>-0.1</ele>
        <time>2021-09-05T07:41:13Z</time>
      </trkpt>
      <trkpt lat="43.47799" lon="-1.56708">
        <ele>-0.1</ele>
        <time>2021-09-05T07:41:14Z</time>
      </trkpt>
      <trkpt lat="43.47803" lon="-1.56708">
        <ele>-0.1</ele>
        <time>2021-09-05T07:41:15Z</time>
      </trkpt>
      <trkpt lat="43.47807" lon="-1.56708">
        <ele>-0.1</ele>
        <time>2021-09-05T07:41:16Z</time>
      </trkpt>
      <trkpt lat="43.47812" lon="-1.56708">
        <ele>-0.1</ele>
        <time>2021-09-05T07:41:17Z</time>
      </trkpt>
      <trkpt lat="43.47815" lon="-1.56707">
        <ele>1</ele>
        <time>2021-09-05T07:41:18Z</time>
      </trkpt>
      <trkpt lat="43.47819" lon="-1.56706">
        <ele>0.1</ele>
        <time>2021-09-05T07:41:19Z</time>
      </trkpt>
      <trkpt lat="43.47823" lon="-1.56705">
        <ele>-0.3</ele>
        <time>2021-09-05T07:41:20Z</time>
      </trkpt>
      <trkpt lat="43.47827" lon="-1.56704">
        <ele>-0.2</ele>
        <time>2021-09-05T07:41:21Z</time>
      </trkpt>
      <trkpt lat="43.47831" lon="-1.56704">
        <ele>0.1</ele>
        <time>2021-09-05T07:41:22Z</time>
      </trkpt>
      <trkpt lat="43.47835" lon="-1.56703">
        <ele>0.2</ele>
        <time>2021-09-05T07:41:23Z</time>
      </trkpt>
      <trkpt lat="43.47839" lon="-1.56702">
        <ele>0.3</ele>
        <time>2021-09-05T07:41:24Z</time>
      </trkpt>
      <trkpt lat="43.47843" lon="-1.56701">
        <ele>0.6</ele>
        <time>2021-09-05T07:41:25Z</time>
      </trkpt>
      <trkpt lat="43.47847" lon="-1.567">
        <ele>0.7</ele>
        <time>2021-09-05T07:41:26Z</time>
      </trkpt>
      <trkpt lat="43.47851" lon="-1.56699">
        <ele>0.8</ele>
        <time>2021-09-05T07:41:27Z</time>
      </trkpt>
      <trkpt lat="43.47855" lon="-1.56697">
        <ele>0.9</ele>
        <time>2021-09-05T07:41:28Z</time>
      </trkpt>
      <trkpt lat="43.47858" lon="-1.56696">
        <ele>1.2</ele>
        <time>2021-09-05T07:41:29Z</time>
      </trkpt>
      <trkpt lat="43.47862" lon="-1.56695">
        <ele>1.1</ele>
        <time>2021-09-05T07:41:30Z</time>
      </trkpt>
      <trkpt lat="43.47866" lon="-1.56695">
        <ele>1</ele>
        <time>2021-09-05T07:41:31Z</time>
      </trkpt>
      <trkpt lat="43.4787" lon="-1.56695">
        <ele>1</ele>
        <time>2021-09-05T07:41:32Z</time>
      </trkpt>
      <trkpt lat="43.47874" lon="-1.56694">
        <ele>0.9</ele>
        <time>2021-09-05T07:41:33Z</time>
      </trkpt>
      <trkpt lat="43.47877" lon="-1.56693">
        <ele>0.8</ele>
        <time>2021-09-05T07:41:34Z</time>
      </trkpt>
      <trkpt lat="43.47881" lon="-1.56693">
        <ele>0.9</ele>
        <time>2021-09-05T07:41:35Z</time>
      </trkpt>
      <trkpt lat="43.47885" lon="-1.56692">
        <ele>0.9</ele>
        <time>2021-09-05T07:41:36Z</time>
      </trkpt>
      <trkpt lat="43.47889" lon="-1.56691">
        <ele>1</ele>
        <time>2021-09-05T07:41:37Z</time>
      </trkpt>
      <trkpt lat="43.47893" lon="-1.56691">
        <ele>1</ele>
        <time>2021-09-05T07:41:38Z</time>
      </trkpt>
      <trkpt lat="43.47897" lon="-1.5669">
        <ele>1</ele>
        <time>2021-09-05T07:41:39Z</time>
      </trkpt>
      <trkpt lat="43.479" lon="-1.5669">
        <ele>1</ele>
        <time>2021-09-05T07:41:40Z</time>
      </trkpt>
      <trkpt lat="43.47904" lon="-1.5669">
        <ele>0.9</ele>
        <time>2021-09-05T07:41:41Z</time>
      </trkpt>
      <trkpt lat="43.47908" lon="-1.56689">
        <ele>0.9</ele>
        <time>2021-09-05T07:41:42Z</time>
      </trkpt>
      <trkpt lat="43.47912" lon="-1.5669">
        <ele>0.7</ele>
        <time>2021-09-05T07:41:43Z</time>
      </trkpt>
      <trkpt lat="43.47916" lon="-1.56691">
        <ele>0.6</ele>
        <time>2021-09-05T07:41:44Z</time>
      </trkpt>
      <trkpt lat="43.4792" lon="-1.56692">
        <ele>0.6</ele>
        <time>2021-09-05T07:41:45Z</time>
      </trkpt>
      <trkpt lat="43.47924" lon="-1.56694">
        <ele>0.5</ele>
        <time>2021-09-05T07:41:46Z</time>
      </trkpt>
      <trkpt lat="43.47927" lon="-1.56696">
        <ele>0.4</ele>
        <time>2021-09-05T07:41:47Z</time>
      </trkpt>
      <trkpt lat="43.4793" lon="-1.56698">
        <ele>0.4</ele>
        <time>2021-09-05T07:41:48Z</time>
      </trkpt>
      <trkpt lat="43.47933" lon="-1.56702">
        <ele>0.4</ele>
        <time>2021-09-05T07:41:49Z</time>
      </trkpt>
      <trkpt lat="43.47936" lon="-1.56705">
        <ele>0.4</ele>
        <time>2021-09-05T07:41:50Z</time>
      </trkpt>
      <trkpt lat="43.47939" lon="-1.56709">
        <ele>0.4</ele>
        <time>2021-09-05T07:41:51Z</time>
      </trkpt>
      <trkpt lat="43.47941" lon="-1.56712">
        <ele>0.4</ele>
        <time>2021-09-05T07:41:52Z</time>
      </trkpt>
      <trkpt lat="43.47945" lon="-1.56716">
        <ele>0.4</ele>
        <time>2021-09-05T07:41:53Z</time>
      </trkpt>
      <trkpt lat="43.47947" lon="-1.56719">
        <ele>0.4</ele>
        <time>2021-09-05T07:41:54Z</time>
      </trkpt>
      <trkpt lat="43.4795" lon="-1.56722">
        <ele>0.4</ele>
        <time>2021-09-05T07:41:55Z</time>
      </trkpt>
      <trkpt lat="43.47953" lon="-1.56725">
        <ele>0.4</ele>
        <time>2021-09-05T07:41:56Z</time>
      </trkpt>
      <trkpt lat="43.47957" lon="-1.56728">
        <ele>0.4</ele>
        <time>2021-09-05T07:41:57Z</time>
      </trkpt>
      <trkpt lat="43.4796" lon="-1.5673">
        <ele>0.4</ele>
        <time>2021-09-05T07:41:58Z</time>
      </trkpt>
      <trkpt lat="43.47963" lon="-1.56732">
        <ele>0.4</ele>
        <time>2021-09-05T07:41:59Z</time>
      </trkpt>
      <trkpt lat="43.47967" lon="-1.56734">
        <ele>0.4</ele>
        <time>2021-09-05T07:42:00Z</time>
      </trkpt>
      <trkpt lat="43.4797" lon="-1.56737">
        <ele>0.4</ele>
        <time>2021-09-05T07:42:01Z</time>
      </trkpt>
      <trkpt lat="43.47973" lon="-1.56738">
        <ele>0.4</ele>
        <time>2021-09-05T07:42:02Z</time>
      </trkpt>
      <trkpt lat="43.47977" lon="-1.5674">
        <ele>0.4</ele>
        <time>2021-09-05T07:42:03Z</time>
      </trkpt>
      <trkpt lat="43.4798" lon="-1.56742">
        <ele>0.4</ele>
        <time>2021-09-05T07:42:04Z</time>
      </trkpt>
      <trkpt lat="43.47983" lon="-1.56745">
        <ele>0.4</ele>
        <time>2021-09-05T07:42:05Z</time>
      </trkpt>
      <trkpt lat="43.47986" lon="-1.56747">
        <ele>0.4</ele>
        <time>2021-09-05T07:42:06Z</time>
      </trkpt>
      <trkpt lat="43.4799" lon="-1.5675">
        <ele>0.4</ele>
        <time>2021-09-05T07:42:07Z</time>
      </trkpt>
      <trkpt lat="43.47992" lon="-1.56753">
        <ele>0.4</ele>
        <time>2021-09-05T07:42:08Z</time>
      </trkpt>
      <trkpt lat="43.47996" lon="-1.56755">
        <ele>0.4</ele>
        <time>2021-09-05T07:42:09Z</time>
      </trkpt>
      <trkpt lat="43.47999" lon="-1.56758">
        <ele>0.4</ele>
        <time>2021-09-05T07:42:10Z</time>
      </trkpt>
      <trkpt lat="43.48002" lon="-1.5676">
        <ele>0.4</ele>
        <time>2021-09-05T07:42:11Z</time>
      </trkpt>
      <trkpt lat="43.48005" lon="-1.56763">
        <ele>0.4</ele>
        <time>2021-09-05T07:42:12Z</time>
      </trkpt>
      <trkpt lat="43.48007" lon="-1.56766">
        <ele>0.4</ele>
        <time>2021-09-05T07:42:13Z</time>
      </trkpt>
      <trkpt lat="43.4801" lon="-1.56769">
        <ele>0.4</ele>
        <time>2021-09-05T07:42:14Z</time>
      </trkpt>
      <trkpt lat="43.48011" lon="-1.56772">
        <ele>0.4</ele>
        <time>2021-09-05T07:42:15Z</time>
      </trkpt>
      <trkpt lat="43.48013" lon="-1.56775">
        <ele>0.4</ele>
        <time>2021-09-05T07:42:16Z</time>
      </trkpt>
      <trkpt lat="43.48014" lon="-1.56778">
        <ele>0.4</ele>
        <time>2021-09-05T07:42:17Z</time>
      </trkpt>
      <trkpt lat="43.48015" lon="-1.56782">
        <ele>0.4</ele>
        <time>2021-09-05T07:42:18Z</time>
      </trkpt>
      <trkpt lat="43.48016" lon="-1.56785">
        <ele>0.4</ele>
        <time>2021-09-05T07:42:19Z</time>
      </trkpt>
      <trkpt lat="43.48017" lon="-1.56788">
        <ele>0.4</ele>
        <time>2021-09-05T07:42:20Z</time>
      </trkpt>
      <trkpt lat="43.48018" lon="-1.5679">
        <ele>0.4</ele>
        <time>2021-09-05T07:42:21Z</time>
      </trkpt>
      <trkpt lat="43.48018" lon="-1.5679">
        <ele>0.4</ele>
        <time>2021-09-05T07:42:22Z</time>
      </trkpt>
      <trkpt lat="43.48019" lon="-1.56794">
        <ele>0.4</ele>
        <time>2021-09-05T07:42:23Z</time>
      </trkpt>
      <trkpt lat="43.48019" lon="-1.56794">
        <ele>0.4</ele>
        <time>2021-09-05T07:42:24Z</time>
      </trkpt>
      <trkpt lat="43.4802" lon="-1.56799">
        <ele>0.4</ele>
        <time>2021-09-05T07:42:25Z</time>
      </trkpt>
      <trkpt lat="43.48021" lon="-1.56802">
        <ele>0.4</ele>
        <time>2021-09-05T07:42:26Z</time>
      </trkpt>
      <trkpt lat="43.48021" lon="-1.56802">
        <ele>0.4</ele>
        <time>2021-09-05T07:42:27Z</time>
      </trkpt>
      <trkpt lat="43.48022" lon="-1.56806">
        <ele>0.4</ele>
        <time>2021-09-05T07:42:28Z</time>
      </trkpt>
      <trkpt lat="43.48022" lon="-1.56806">
        <ele>0.4</ele>
        <time>2021-09-05T07:42:29Z</time>
      </trkpt>
      <trkpt lat="43.48023" lon="-1.5681">
        <ele>0.4</ele>
        <time>2021-09-05T07:42:30Z</time>
      </trkpt>
      <trkpt lat="43.48023" lon="-1.5681">
        <ele>0.4</ele>
        <time>2021-09-05T07:42:31Z</time>
      </trkpt>
      <trkpt lat="43.48024" lon="-1.56812">
        <ele>0.4</ele>
        <time>2021-09-05T07:42:32Z</time>
      </trkpt>
      <trkpt lat="43.48024" lon="-1.56812">
        <ele>0.4</ele>
        <time>2021-09-05T07:42:33Z</time>
      </trkpt>
      <trkpt lat="43.48024" lon="-1.56815">
        <ele>0.4</ele>
        <time>2021-09-05T07:42:34Z</time>
      </trkpt>
      <trkpt lat="43.48024" lon="-1.56815">
        <ele>0.4</ele>
        <time>2021-09-05T07:42:35Z</time>
      </trkpt>
      <trkpt lat="43.48026" lon="-1.56818">
        <ele>0.4</ele>
        <time>2021-09-05T07:42:36Z</time>
      </trkpt>
      <trkpt lat="43.48026" lon="-1.56818">
        <ele>0.4</ele>
        <time>2021-09-05T07:42:37Z</time>
      </trkpt>
      <trkpt lat="43.48026" lon="-1.56818">
        <ele>0.4</ele>
        <time>2021-09-05T07:42:38Z</time>
      </trkpt>
      <trkpt lat="43.48026" lon="-1.56818">
        <ele>0.4</ele>
        <time>2021-09-05T07:42:39Z</time>
      </trkpt>
      <trkpt lat="43.48026" lon="-1.56818">
        <ele>0.4</ele>
        <time>2021-09-05T07:42:40Z</time>
      </trkpt>
      <trkpt lat="43.48026" lon="-1.56818">
        <ele>0.4</ele>
        <time>2021-09-05T07:42:41Z</time>
      </trkpt>
      <trkpt lat="43.48026" lon="-1.56818">
        <ele>0.4</ele>
        <time>2021-09-05T07:42:42Z</time>
      </trkpt>
      <trkpt lat="43.48027" lon="-1.5682">
        <ele>0.4</ele>
        <time>2021-09-05T07:42:43Z</time>
      </trkpt>
      <trkpt lat="43.48028" lon="-1.56822">
        <ele>0.4</ele>
        <time>2021-09-05T07:42:44Z</time>
      </trkpt>
      <trkpt lat="43.48029" lon="-1.56824">
        <ele>0.4</ele>
        <time>2021-09-05T07:42:45Z</time>
      </trkpt>
      <trkpt lat="43.4803" lon="-1.56826">
        <ele>0.4</ele>
        <time>2021-09-05T07:42:46Z</time>
      </trkpt>
      <trkpt lat="43.48031" lon="-1.56828">
        <ele>0.4</ele>
        <time>2021-09-05T07:42:47Z</time>
      </trkpt>
      <trkpt lat="43.48032" lon="-1.5683">
        <ele>0.4</ele>
        <time>2021-09-05T07:42:48Z</time>
      </trkpt>
      <trkpt lat="43.48033" lon="-1.56832">
        <ele>0.4</ele>
        <time>2021-09-05T07:42:49Z</time>
      </trkpt>
      <trkpt lat="43.48034" lon="-1.56834">
        <ele>0.4</ele>
        <time>2021-09-05T07:42:50Z</time>
      </trkpt>
      <trkpt lat="43.48035" lon="-1.56836">
        <ele>0.4</ele>
        <time>2021-09-05T07:42:51Z</time>
      </trkpt>
      <trkpt lat="43.48036" lon="-1.56838">
        <ele>0.4</ele>
        <time>2021-09-05T07:42:52Z</time>
      </trkpt>
      <trkpt lat="43.48036" lon="-1.5684">
        <ele>0.4</ele>
        <time>2021-09-05T07:42:53Z</time>
      </trkpt>
      <trkpt lat="43.48036" lon="-1.5684">
        <ele>0.4</ele>
        <time>2021-09-05T07:42:54Z</time>
      </trkpt>
      <trkpt lat="43.48036" lon="-1.5684">
        <ele>0.4</ele>
        <time>2021-09-05T07:42:55Z</time>
      </trkpt>
      <trkpt lat="43.48036" lon="-1.5684">
        <ele>0.4</ele>
        <time>2021-09-05T07:42:56Z</time>
      </trkpt>
      <trkpt lat="43.48037" lon="-1.5685">
        <ele>0.4</ele>
        <time>2021-09-05T07:42:57Z</time>
      </trkpt>
      <trkpt lat="43.48037" lon="-1.5685">
        <ele>0.4</ele>
        <time>2021-09-05T07:42:58Z</time>
      </trkpt>
      <trkpt lat="43.48037" lon="-1.56853">
        <ele>0.4</ele>
        <time>2021-09-05T07:42:59Z</time>
      </trkpt>
      <trkpt lat="43.48037" lon="-1.56853">
        <ele>0.4</ele>
        <time>2021-09-05T07:43:00Z</time>
      </trkpt>
      <trkpt lat="43.48036" lon="-1.56856">
        <ele>0.4</ele>
        <time>2021-09-05T07:43:01Z</time>
      </trkpt>
      <trkpt lat="43.48036" lon="-1.56856">
        <ele>0.4</ele>
        <time>2021-09-05T07:43:02Z</time>
      </trkpt>
      <trkpt lat="43.48035" lon="-1.56859">
        <ele>0.4</ele>
        <time>2021-09-05T07:43:03Z</time>
      </trkpt>
      <trkpt lat="43.48035" lon="-1.56859">
        <ele>0.4</ele>
        <time>2021-09-05T07:43:04Z</time>
      </trkpt>
      <trkpt lat="43.48035" lon="-1.56862">
        <ele>0.4</ele>
        <time>2021-09-05T07:43:05Z</time>
      </trkpt>
      <trkpt lat="43.48035" lon="-1.56862">
        <ele>0.4</ele>
        <time>2021-09-05T07:43:06Z</time>
      </trkpt>
      <trkpt lat="43.48035" lon="-1.56862">
        <ele>0.4</ele>
        <time>2021-09-05T07:43:07Z</time>
      </trkpt>
      <trkpt lat="43.48035" lon="-1.56862">
        <ele>0.4</ele>
        <time>2021-09-05T07:43:08Z</time>
      </trkpt>
      <trkpt lat="43.48037" lon="-1.56864">
        <ele>0.4</ele>
        <time>2021-09-05T07:43:09Z</time>
      </trkpt>
      <trkpt lat="43.48034" lon="-1.56863">
        <ele>0.4</ele>
        <time>2021-09-05T07:43:10Z</time>
      </trkpt>
      <trkpt lat="43.48034" lon="-1.56863">
        <ele>0.4</ele>
        <time>2021-09-05T07:43:11Z</time>
      </trkpt>
      <trkpt lat="43.48034" lon="-1.56863">
        <ele>0.4</ele>
        <time>2021-09-05T07:43:12Z</time>
      </trkpt>
      <trkpt lat="43.48033" lon="-1.56866">
        <ele>0.4</ele>
        <time>2021-09-05T07:43:13Z</time>
      </trkpt>
      <trkpt lat="43.48036" lon="-1.56869">
        <ele>0.4</ele>
        <time>2021-09-05T07:43:14Z</time>
      </trkpt>
      <trkpt lat="43.48036" lon="-1.56869">
        <ele>0.4</ele>
        <time>2021-09-05T07:43:15Z</time>
      </trkpt>
      <trkpt lat="43.48038" lon="-1.5687">
        <ele>0.4</ele>
        <time>2021-09-05T07:43:16Z</time>
      </trkpt>
      <trkpt lat="43.48038" lon="-1.5687">
        <ele>0.4</ele>
        <time>2021-09-05T07:43:17Z</time>
      </trkpt>
      <trkpt lat="43.48039" lon="-1.56875">
        <ele>0.4</ele>
        <time>2021-09-05T07:43:18Z</time>
      </trkpt>
      <trkpt lat="43.48039" lon="-1.56875">
        <ele>0.4</ele>
        <time>2021-09-05T07:43:19Z</time>
      </trkpt>
      <trkpt lat="43.48039" lon="-1.56879">
        <ele>0.4</ele>
        <time>2021-09-05T07:43:20Z</time>
      </trkpt>
      <trkpt lat="43.48039" lon="-1.56879">
        <ele>0.4</ele>
        <time>2021-09-05T07:43:21Z</time>
      </trkpt>
      <trkpt lat="43.48037" lon="-1.56883">
        <ele>0.4</ele>
        <time>2021-09-05T07:43:22Z</time>
      </trkpt>
      <trkpt lat="43.48037" lon="-1.56883">
        <ele>0.4</ele>
        <time>2021-09-05T07:43:23Z</time>
      </trkpt>
      <trkpt lat="43.48036" lon="-1.56886">
        <ele>0.4</ele>
        <time>2021-09-05T07:43:24Z</time>
      </trkpt>
      <trkpt lat="43.48036" lon="-1.56886">
        <ele>0.4</ele>
        <time>2021-09-05T07:43:25Z</time>
      </trkpt>
      <trkpt lat="43.48036" lon="-1.5689">
        <ele>0.4</ele>
        <time>2021-09-05T07:43:26Z</time>
      </trkpt>
      <trkpt lat="43.48036" lon="-1.5689">
        <ele>0.4</ele>
        <time>2021-09-05T07:43:27Z</time>
      </trkpt>
      <trkpt lat="43.48036" lon="-1.5689">
        <ele>0.4</ele>
        <time>2021-09-05T07:43:28Z</time>
      </trkpt>
      <trkpt lat="43.48037" lon="-1.56892">
        <ele>0.4</ele>
        <time>2021-09-05T07:43:29Z</time>
      </trkpt>
      <trkpt lat="43.48037" lon="-1.56892">
        <ele>0.4</ele>
        <time>2021-09-05T07:43:30Z</time>
      </trkpt>
      <trkpt lat="43.48037" lon="-1.56892">
        <ele>0.4</ele>
        <time>2021-09-05T07:43:31Z</time>
      </trkpt>
      <trkpt lat="43.48036" lon="-1.56896">
        <ele>0.4</ele>
        <time>2021-09-05T07:43:32Z</time>
      </trkpt>
      <trkpt lat="43.48036" lon="-1.56896">
        <ele>0.4</ele>
        <time>2021-09-05T07:43:33Z</time>
      </trkpt>
      <trkpt lat="43.48038" lon="-1.56899">
        <ele>0.4</ele>
        <time>2021-09-05T07:43:34Z</time>
      </trkpt>
      <trkpt lat="43.48038" lon="-1.56899">
        <ele>0.4</ele>
        <time>2021-09-05T07:43:35Z</time>
      </trkpt>
      <trkpt lat="43.48038" lon="-1.56899">
        <ele>0.4</ele>
        <time>2021-09-05T07:43:36Z</time>
      </trkpt>
      <trkpt lat="43.48037" lon="-1.56902">
        <ele>0.4</ele>
        <time>2021-09-05T07:43:37Z</time>
      </trkpt>
      <trkpt lat="43.48037" lon="-1.56902">
        <ele>0.4</ele>
        <time>2021-09-05T07:43:38Z</time>
      </trkpt>
      <trkpt lat="43.48037" lon="-1.56902">
        <ele>0.4</ele>
        <time>2021-09-05T07:43:39Z</time>
      </trkpt>
      <trkpt lat="43.48041" lon="-1.56901">
        <ele>0.4</ele>
        <time>2021-09-05T07:43:40Z</time>
      </trkpt>
      <trkpt lat="43.48041" lon="-1.56901">
        <ele>0.4</ele>
        <time>2021-09-05T07:43:41Z</time>
      </trkpt>
      <trkpt lat="43.48042" lon="-1.56903">
        <ele>0.4</ele>
        <time>2021-09-05T07:43:42Z</time>
      </trkpt>
      <trkpt lat="43.48042" lon="-1.56903">
        <ele>0.4</ele>
        <time>2021-09-05T07:43:43Z</time>
      </trkpt>
      <trkpt lat="43.48042" lon="-1.56906">
        <ele>0.4</ele>
        <time>2021-09-05T07:43:44Z</time>
      </trkpt>
      <trkpt lat="43.48042" lon="-1.56906">
        <ele>0.4</ele>
        <time>2021-09-05T07:43:45Z</time>
      </trkpt>
      <trkpt lat="43.48043" lon="-1.5691">
        <ele>0.4</ele>
        <time>2021-09-05T07:43:46Z</time>
      </trkpt>
      <trkpt lat="43.48043" lon="-1.5691">
        <ele>0.4</ele>
        <time>2021-09-05T07:43:47Z</time>
      </trkpt>
      <trkpt lat="43.48043" lon="-1.5691">
        <ele>0.4</ele>
        <time>2021-09-05T07:43:48Z</time>
      </trkpt>
      <trkpt lat="43.48043" lon="-1.5691">
        <ele>0.4</ele>
        <time>2021-09-05T07:43:49Z</time>
      </trkpt>
      <trkpt lat="43.48043" lon="-1.56913">
        <ele>0.4</ele>
        <time>2021-09-05T07:43:50Z</time>
      </trkpt>
      <trkpt lat="43.48043" lon="-1.56913">
        <ele>0.4</ele>
        <time>2021-09-05T07:43:51Z</time>
      </trkpt>
      <trkpt lat="43.48043" lon="-1.56913">
        <ele>0.4</ele>
        <time>2021-09-05T07:43:52Z</time>
      </trkpt>
      <trkpt lat="43.48042" lon="-1.56916">
        <ele>0.4</ele>
        <time>2021-09-05T07:43:53Z</time>
      </trkpt>
      <trkpt lat="43.48042" lon="-1.56916">
        <ele>0.4</ele>
        <time>2021-09-05T07:43:54Z</time>
      </trkpt>
      <trkpt lat="43.48042" lon="-1.56916">
        <ele>0.4</ele>
        <time>2021-09-05T07:43:55Z</time>
      </trkpt>
      <trkpt lat="43.4804" lon="-1.56917">
        <ele>0.4</ele>
        <time>2021-09-05T07:43:56Z</time>
      </trkpt>
      <trkpt lat="43.4804" lon="-1.56917">
        <ele>0.4</ele>
        <time>2021-09-05T07:43:57Z</time>
      </trkpt>
      <trkpt lat="43.48038" lon="-1.5692">
        <ele>0.4</ele>
        <time>2021-09-05T07:43:58Z</time>
      </trkpt>
      <trkpt lat="43.48038" lon="-1.5692">
        <ele>0.4</ele>
        <time>2021-09-05T07:43:59Z</time>
      </trkpt>
      <trkpt lat="43.48038" lon="-1.56923">
        <ele>0.4</ele>
        <time>2021-09-05T07:44:00Z</time>
      </trkpt>
      <trkpt lat="43.48038" lon="-1.56923">
        <ele>0.4</ele>
        <time>2021-09-05T07:44:01Z</time>
      </trkpt>
      <trkpt lat="43.4804" lon="-1.56925">
        <ele>0.4</ele>
        <time>2021-09-05T07:44:02Z</time>
      </trkpt>
      <trkpt lat="43.4804" lon="-1.56925">
        <ele>0.4</ele>
        <time>2021-09-05T07:44:03Z</time>
      </trkpt>
      <trkpt lat="43.48044" lon="-1.56928">
        <ele>0.4</ele>
        <time>2021-09-05T07:44:04Z</time>
      </trkpt>
      <trkpt lat="43.48044" lon="-1.56928">
        <ele>0.4</ele>
        <time>2021-09-05T07:44:05Z</time>
      </trkpt>
      <trkpt lat="43.48044" lon="-1.56928">
        <ele>0.4</ele>
        <time>2021-09-05T07:44:06Z</time>
      </trkpt>
      <trkpt lat="43.48044" lon="-1.56928">
        <ele>0.4</ele>
        <time>2021-09-05T07:44:07Z</time>
      </trkpt>
      <trkpt lat="43.48044" lon="-1.56931">
        <ele>0.4</ele>
        <time>2021-09-05T07:44:08Z</time>
      </trkpt>
      <trkpt lat="43.48044" lon="-1.56931">
        <ele>0.4</ele>
        <time>2021-09-05T07:44:09Z</time>
      </trkpt>
      <trkpt lat="43.48043" lon="-1.56933">
        <ele>0.4</ele>
        <time>2021-09-05T07:44:10Z</time>
      </trkpt>
      <trkpt lat="43.48043" lon="-1.56933">
        <ele>0.4</ele>
        <time>2021-09-05T07:44:11Z</time>
      </trkpt>
      <trkpt lat="43.48043" lon="-1.56936">
        <ele>0.4</ele>
        <time>2021-09-05T07:44:12Z</time>
      </trkpt>
      <trkpt lat="43.48043" lon="-1.56936">
        <ele>0.4</ele>
        <time>2021-09-05T07:44:13Z</time>
      </trkpt>
      <trkpt lat="43.48043" lon="-1.5694">
        <ele>0.4</ele>
        <time>2021-09-05T07:44:14Z</time>
      </trkpt>
      <trkpt lat="43.48043" lon="-1.5694">
        <ele>0.4</ele>
        <time>2021-09-05T07:44:15Z</time>
      </trkpt>
      <trkpt lat="43.48044" lon="-1.56944">
        <ele>0.4</ele>
        <time>2021-09-05T07:44:16Z</time>
      </trkpt>
      <trkpt lat="43.48044" lon="-1.56944">
        <ele>0.4</ele>
        <time>2021-09-05T07:44:17Z</time>
      </trkpt>
      <trkpt lat="43.48044" lon="-1.56946">
        <ele>0.4</ele>
        <time>2021-09-05T07:44:18Z</time>
      </trkpt>
      <trkpt lat="43.48044" lon="-1.56946">
        <ele>0.4</ele>
        <time>2021-09-05T07:44:19Z</time>
      </trkpt>
      <trkpt lat="43.48045" lon="-1.5695">
        <ele>0.4</ele>
        <time>2021-09-05T07:44:20Z</time>
      </trkpt>
      <trkpt lat="43.48045" lon="-1.5695">
        <ele>0.4</ele>
        <time>2021-09-05T07:44:21Z</time>
      </trkpt>
      <trkpt lat="43.48046" lon="-1.56953">
        <ele>0.4</ele>
        <time>2021-09-05T07:44:22Z</time>
      </trkpt>
      <trkpt lat="43.48046" lon="-1.56953">
        <ele>0.4</ele>
        <time>2021-09-05T07:44:23Z</time>
      </trkpt>
      <trkpt lat="43.48047" lon="-1.56956">
        <ele>0.4</ele>
        <time>2021-09-05T07:44:24Z</time>
      </trkpt>
      <trkpt lat="43.48048" lon="-1.56958">
        <ele>0.4</ele>
        <time>2021-09-05T07:44:25Z</time>
      </trkpt>
      <trkpt lat="43.48048" lon="-1.56958">
        <ele>0.4</ele>
        <time>2021-09-05T07:44:26Z</time>
      </trkpt>
      <trkpt lat="43.48049" lon="-1.56961">
        <ele>0.4</ele>
        <time>2021-09-05T07:44:27Z</time>
      </trkpt>
      <trkpt lat="43.48049" lon="-1.56961">
        <ele>0.4</ele>
        <time>2021-09-05T07:44:28Z</time>
      </trkpt>
      <trkpt lat="43.48049" lon="-1.56961">
        <ele>0.4</ele>
        <time>2021-09-05T07:44:29Z</time>
      </trkpt>
      <trkpt lat="43.48048" lon="-1.56963">
        <ele>0.4</ele>
        <time>2021-09-05T07:44:30Z</time>
      </trkpt>
      <trkpt lat="43.48048" lon="-1.56963">
        <ele>0.4</ele>
        <time>2021-09-05T07:44:31Z</time>
      </trkpt>
      <trkpt lat="43.48048" lon="-1.56963">
        <ele>0.4</ele>
        <time>2021-09-05T07:44:32Z</time>
      </trkpt>
      <trkpt lat="43.48047" lon="-1.56967">
        <ele>0.4</ele>
        <time>2021-09-05T07:44:33Z</time>
      </trkpt>
      <trkpt lat="43.48047" lon="-1.5697">
        <ele>0.4</ele>
        <time>2021-09-05T07:44:34Z</time>
      </trkpt>
      <trkpt lat="43.48047" lon="-1.5697">
        <ele>0.4</ele>
        <time>2021-09-05T07:44:35Z</time>
      </trkpt>
      <trkpt lat="43.48047" lon="-1.5697">
        <ele>0.4</ele>
        <time>2021-09-05T07:44:36Z</time>
      </trkpt>
      <trkpt lat="43.48047" lon="-1.5697">
        <ele>0.4</ele>
        <time>2021-09-05T07:44:37Z</time>
      </trkpt>
      <trkpt lat="43.48048" lon="-1.56974">
        <ele>0.4</ele>
        <time>2021-09-05T07:44:38Z</time>
      </trkpt>
      <trkpt lat="43.48048" lon="-1.56974">
        <ele>0.4</ele>
        <time>2021-09-05T07:44:39Z</time>
      </trkpt>
      <trkpt lat="43.4805" lon="-1.56975">
        <ele>0.4</ele>
        <time>2021-09-05T07:44:40Z</time>
      </trkpt>
      <trkpt lat="43.4805" lon="-1.56975">
        <ele>0.4</ele>
        <time>2021-09-05T07:44:41Z</time>
      </trkpt>
      <trkpt lat="43.48052" lon="-1.56978">
        <ele>0.4</ele>
        <time>2021-09-05T07:44:42Z</time>
      </trkpt>
      <trkpt lat="43.48052" lon="-1.56978">
        <ele>0.4</ele>
        <time>2021-09-05T07:44:43Z</time>
      </trkpt>
      <trkpt lat="43.48053" lon="-1.56981">
        <ele>0.4</ele>
        <time>2021-09-05T07:44:44Z</time>
      </trkpt>
      <trkpt lat="43.48053" lon="-1.56981">
        <ele>0.4</ele>
        <time>2021-09-05T07:44:45Z</time>
      </trkpt>
      <trkpt lat="43.48054" lon="-1.56984">
        <ele>0.4</ele>
        <time>2021-09-05T07:44:46Z</time>
      </trkpt>
      <trkpt lat="43.48054" lon="-1.56984">
        <ele>0.4</ele>
        <time>2021-09-05T07:44:47Z</time>
      </trkpt>
      <trkpt lat="43.48055" lon="-1.56987">
        <ele>0.4</ele>
        <time>2021-09-05T07:44:48Z</time>
      </trkpt>
      <trkpt lat="43.48055" lon="-1.56987">
        <ele>0.4</ele>
        <time>2021-09-05T07:44:49Z</time>
      </trkpt>
      <trkpt lat="43.48055" lon="-1.56987">
        <ele>0.4</ele>
        <time>2021-09-05T07:44:50Z</time>
      </trkpt>
      <trkpt lat="43.48054" lon="-1.5699">
        <ele>0.4</ele>
        <time>2021-09-05T07:44:51Z</time>
      </trkpt>
      <trkpt lat="43.48054" lon="-1.5699">
        <ele>0.4</ele>
        <time>2021-09-05T07:44:52Z</time>
      </trkpt>
      <trkpt lat="43.48054" lon="-1.5699">
        <ele>0.4</ele>
        <time>2021-09-05T07:44:53Z</time>
      </trkpt>
      <trkpt lat="43.48056" lon="-1.56994">
        <ele>0.4</ele>
        <time>2021-09-05T07:44:54Z</time>
      </trkpt>
      <trkpt lat="43.48056" lon="-1.56994">
        <ele>0.4</ele>
        <time>2021-09-05T07:44:55Z</time>
      </trkpt>
      <trkpt lat="43.48056" lon="-1.56996">
        <ele>0.4</ele>
        <time>2021-09-05T07:44:56Z</time>
      </trkpt>
      <trkpt lat="43.48056" lon="-1.56996">
        <ele>0.4</ele>
        <time>2021-09-05T07:44:57Z</time>
      </trkpt>
      <trkpt lat="43.48056" lon="-1.56996">
        <ele>0.4</ele>
        <time>2021-09-05T07:44:58Z</time>
      </trkpt>
      <trkpt lat="43.48056" lon="-1.56996">
        <ele>0.4</ele>
        <time>2021-09-05T07:44:59Z</time>
      </trkpt>
      <trkpt lat="43.48054" lon="-1.56998">
        <ele>0.4</ele>
        <time>2021-09-05T07:45:00Z</time>
      </trkpt>
      <trkpt lat="43.48054" lon="-1.56998">
        <ele>0.4</ele>
        <time>2021-09-05T07:45:01Z</time>
      </trkpt>
      <trkpt lat="43.48055" lon="-1.56999">
        <ele>0.4</ele>
        <time>2021-09-05T07:45:02Z</time>
      </trkpt>
      <trkpt lat="43.48056" lon="-1.57001">
        <ele>0.4</ele>
        <time>2021-09-05T07:45:03Z</time>
      </trkpt>
      <trkpt lat="43.48057" lon="-1.57003">
        <ele>0.4</ele>
        <time>2021-09-05T07:45:04Z</time>
      </trkpt>
      <trkpt lat="43.48055" lon="-1.57003">
        <ele>0.4</ele>
        <time>2021-09-05T07:45:05Z</time>
      </trkpt>
      <trkpt lat="43.48055" lon="-1.57003">
        <ele>0.4</ele>
        <time>2021-09-05T07:45:06Z</time>
      </trkpt>
      <trkpt lat="43.48056" lon="-1.57006">
        <ele>0.4</ele>
        <time>2021-09-05T07:45:07Z</time>
      </trkpt>
      <trkpt lat="43.48056" lon="-1.57006">
        <ele>0.4</ele>
        <time>2021-09-05T07:45:08Z</time>
      </trkpt>
      <trkpt lat="43.48056" lon="-1.57008">
        <ele>0.4</ele>
        <time>2021-09-05T07:45:09Z</time>
      </trkpt>
      <trkpt lat="43.48054" lon="-1.57009">
        <ele>0.4</ele>
        <time>2021-09-05T07:45:10Z</time>
      </trkpt>
      <trkpt lat="43.48054" lon="-1.57009">
        <ele>0.4</ele>
        <time>2021-09-05T07:45:11Z</time>
      </trkpt>
      <trkpt lat="43.48055" lon="-1.57012">
        <ele>0.4</ele>
        <time>2021-09-05T07:45:12Z</time>
      </trkpt>
      <trkpt lat="43.48055" lon="-1.57012">
        <ele>0.4</ele>
        <time>2021-09-05T07:45:13Z</time>
      </trkpt>
      <trkpt lat="43.48058" lon="-1.57016">
        <ele>0.4</ele>
        <time>2021-09-05T07:45:14Z</time>
      </trkpt>
      <trkpt lat="43.48058" lon="-1.57016">
        <ele>0.4</ele>
        <time>2021-09-05T07:45:15Z</time>
      </trkpt>
      <trkpt lat="43.48061" lon="-1.5702">
        <ele>0.4</ele>
        <time>2021-09-05T07:45:16Z</time>
      </trkpt>
      <trkpt lat="43.48062" lon="-1.57022">
        <ele>0.4</ele>
        <time>2021-09-05T07:45:17Z</time>
      </trkpt>
      <trkpt lat="43.48062" lon="-1.57022">
        <ele>0.4</ele>
        <time>2021-09-05T07:45:18Z</time>
      </trkpt>
      <trkpt lat="43.48063" lon="-1.57026">
        <ele>0.4</ele>
        <time>2021-09-05T07:45:19Z</time>
      </trkpt>
      <trkpt lat="43.48063" lon="-1.57026">
        <ele>0.4</ele>
        <time>2021-09-05T07:45:20Z</time>
      </trkpt>
      <trkpt lat="43.48064" lon="-1.57028">
        <ele>0.4</ele>
        <time>2021-09-05T07:45:21Z</time>
      </trkpt>
      <trkpt lat="43.48064" lon="-1.57028">
        <ele>0.4</ele>
        <time>2021-09-05T07:45:22Z</time>
      </trkpt>
      <trkpt lat="43.48062" lon="-1.5703">
        <ele>0.4</ele>
        <time>2021-09-05T07:45:23Z</time>
      </trkpt>
      <trkpt lat="43.48062" lon="-1.5703">
        <ele>0.4</ele>
        <time>2021-09-05T07:45:24Z</time>
      </trkpt>
      <trkpt lat="43.48062" lon="-1.5703">
        <ele>0.4</ele>
        <time>2021-09-05T07:45:25Z</time>
      </trkpt>
      <trkpt lat="43.48062" lon="-1.57032">
        <ele>0.4</ele>
        <time>2021-09-05T07:45:26Z</time>
      </trkpt>
      <trkpt lat="43.48062" lon="-1.57032">
        <ele>0.5</ele>
        <time>2021-09-05T07:45:27Z</time>
      </trkpt>
      <trkpt lat="43.48063" lon="-1.57035">
        <ele>0.5</ele>
        <time>2021-09-05T07:45:28Z</time>
      </trkpt>
      <trkpt lat="43.48063" lon="-1.57035">
        <ele>0.6</ele>
        <time>2021-09-05T07:45:29Z</time>
      </trkpt>
      <trkpt lat="43.48063" lon="-1.57035">
        <ele>0.6</ele>
        <time>2021-09-05T07:45:30Z</time>
      </trkpt>
      <trkpt lat="43.48063" lon="-1.57038">
        <ele>0.7</ele>
        <time>2021-09-05T07:45:31Z</time>
      </trkpt>
      <trkpt lat="43.48063" lon="-1.57038">
        <ele>0.7</ele>
        <time>2021-09-05T07:45:32Z</time>
      </trkpt>
      <trkpt lat="43.48063" lon="-1.57038">
        <ele>0.8</ele>
        <time>2021-09-05T07:45:33Z</time>
      </trkpt>
      <trkpt lat="43.48062" lon="-1.57042">
        <ele>0.8</ele>
        <time>2021-09-05T07:45:34Z</time>
      </trkpt>
      <trkpt lat="43.48062" lon="-1.57042">
        <ele>0.9</ele>
        <time>2021-09-05T07:45:35Z</time>
      </trkpt>
      <trkpt lat="43.48062" lon="-1.57045">
        <ele>0.9</ele>
        <time>2021-09-05T07:45:36Z</time>
      </trkpt>
      <trkpt lat="43.48062" lon="-1.57045">
        <ele>1</ele>
        <time>2021-09-05T07:45:37Z</time>
      </trkpt>
      <trkpt lat="43.48063" lon="-1.57048">
        <ele>1</ele>
        <time>2021-09-05T07:45:38Z</time>
      </trkpt>
      <trkpt lat="43.48063" lon="-1.57048">
        <ele>1.1</ele>
        <time>2021-09-05T07:45:39Z</time>
      </trkpt>
      <trkpt lat="43.48064" lon="-1.57051">
        <ele>1.1</ele>
        <time>2021-09-05T07:45:40Z</time>
      </trkpt>
      <trkpt lat="43.48064" lon="-1.57051">
        <ele>1.2</ele>
        <time>2021-09-05T07:45:41Z</time>
      </trkpt>
      <trkpt lat="43.48064" lon="-1.57054">
        <ele>1.2</ele>
        <time>2021-09-05T07:45:42Z</time>
      </trkpt>
      <trkpt lat="43.48064" lon="-1.57054">
        <ele>1.3</ele>
        <time>2021-09-05T07:45:43Z</time>
      </trkpt>
      <trkpt lat="43.48064" lon="-1.57054">
        <ele>1.3</ele>
        <time>2021-09-05T07:45:44Z</time>
      </trkpt>
      <trkpt lat="43.48064" lon="-1.57054">
        <ele>1.4</ele>
        <time>2021-09-05T07:45:45Z</time>
      </trkpt>
      <trkpt lat="43.48064" lon="-1.57058">
        <ele>1.4</ele>
        <time>2021-09-05T07:45:46Z</time>
      </trkpt>
      <trkpt lat="43.48064" lon="-1.57058">
        <ele>1.5</ele>
        <time>2021-09-05T07:45:47Z</time>
      </trkpt>
      <trkpt lat="43.48065" lon="-1.5706">
        <ele>1.5</ele>
        <time>2021-09-05T07:45:48Z</time>
      </trkpt>
      <trkpt lat="43.48065" lon="-1.5706">
        <ele>1.6</ele>
        <time>2021-09-05T07:45:49Z</time>
      </trkpt>
      <trkpt lat="43.48068" lon="-1.57061">
        <ele>1.6</ele>
        <time>2021-09-05T07:45:50Z</time>
      </trkpt>
      <trkpt lat="43.48068" lon="-1.57061">
        <ele>1.7</ele>
        <time>2021-09-05T07:45:51Z</time>
      </trkpt>
      <trkpt lat="43.48068" lon="-1.57061">
        <ele>1.7</ele>
        <time>2021-09-05T07:45:52Z</time>
      </trkpt>
      <trkpt lat="43.48068" lon="-1.57061">
        <ele>1.8</ele>
        <time>2021-09-05T07:45:53Z</time>
      </trkpt>
      <trkpt lat="43.48069" lon="-1.57063">
        <ele>1.8</ele>
        <time>2021-09-05T07:45:54Z</time>
      </trkpt>
      <trkpt lat="43.48069" lon="-1.57063">
        <ele>1.9</ele>
        <time>2021-09-05T07:45:55Z</time>
      </trkpt>
      <trkpt lat="43.48069" lon="-1.57066">
        <ele>1.9</ele>
        <time>2021-09-05T07:45:56Z</time>
      </trkpt>
      <trkpt lat="43.48069" lon="-1.57066">
        <ele>2</ele>
        <time>2021-09-05T07:45:57Z</time>
      </trkpt>
      <trkpt lat="43.48069" lon="-1.57071">
        <ele>2</ele>
        <time>2021-09-05T07:45:58Z</time>
      </trkpt>
      <trkpt lat="43.48069" lon="-1.57073">
        <ele>2.1</ele>
        <time>2021-09-05T07:45:59Z</time>
      </trkpt>
      <trkpt lat="43.48069" lon="-1.57073">
        <ele>2.1</ele>
        <time>2021-09-05T07:46:00Z</time>
      </trkpt>
      <trkpt lat="43.48069" lon="-1.57076">
        <ele>2.2</ele>
        <time>2021-09-05T07:46:01Z</time>
      </trkpt>
      <trkpt lat="43.48069" lon="-1.57076">
        <ele>2.2</ele>
        <time>2021-09-05T07:46:02Z</time>
      </trkpt>
      <trkpt lat="43.48069" lon="-1.57079">
        <ele>2.3</ele>
        <time>2021-09-05T07:46:03Z</time>
      </trkpt>
      <trkpt lat="43.48069" lon="-1.57079">
        <ele>2.3</ele>
        <time>2021-09-05T07:46:04Z</time>
      </trkpt>
      <trkpt lat="43.48069" lon="-1.57079">
        <ele>2.4</ele>
        <time>2021-09-05T07:46:05Z</time>
      </trkpt>
      <trkpt lat="43.48069" lon="-1.57083">
        <ele>2.4</ele>
        <time>2021-09-05T07:46:06Z</time>
      </trkpt>
      <trkpt lat="43.48069" lon="-1.57083">
        <ele>2.5</ele>
        <time>2021-09-05T07:46:07Z</time>
      </trkpt>
      <trkpt lat="43.48069" lon="-1.57083">
        <ele>2.5</ele>
        <time>2021-09-05T07:46:08Z</time>
      </trkpt>
      <trkpt lat="43.48067" lon="-1.57081">
        <ele>2.6</ele>
        <time>2021-09-05T07:46:09Z</time>
      </trkpt>
      <trkpt lat="43.48067" lon="-1.57081">
        <ele>2.6</ele>
        <time>2021-09-05T07:46:10Z</time>
      </trkpt>
      <trkpt lat="43.48067" lon="-1.57081">
        <ele>2.7</ele>
        <time>2021-09-05T07:46:11Z</time>
      </trkpt>
      <trkpt lat="43.48068" lon="-1.57083">
        <ele>2.7</ele>
        <time>2021-09-05T07:46:12Z</time>
      </trkpt>
      <trkpt lat="43.48068" lon="-1.57083">
        <ele>2.8</ele>
        <time>2021-09-05T07:46:13Z</time>
      </trkpt>
      <trkpt lat="43.48068" lon="-1.57083">
        <ele>2.8</ele>
        <time>2021-09-05T07:46:14Z</time>
      </trkpt>
      <trkpt lat="43.48069" lon="-1.57088">
        <ele>2.9</ele>
        <time>2021-09-05T07:46:15Z</time>
      </trkpt>
      <trkpt lat="43.48069" lon="-1.57088">
        <ele>3</ele>
        <time>2021-09-05T07:46:16Z</time>
      </trkpt>
      <trkpt lat="43.48071" lon="-1.57089">
        <ele>3</ele>
        <time>2021-09-05T07:46:17Z</time>
      </trkpt>
      <trkpt lat="43.48071" lon="-1.57089">
        <ele>3.1</ele>
        <time>2021-09-05T07:46:18Z</time>
      </trkpt>
      <trkpt lat="43.48071" lon="-1.57092">
        <ele>3.1</ele>
        <time>2021-09-05T07:46:19Z</time>
      </trkpt>
      <trkpt lat="43.48071" lon="-1.57092">
        <ele>3.2</ele>
        <time>2021-09-05T07:46:20Z</time>
      </trkpt>
      <trkpt lat="43.48072" lon="-1.57093">
        <ele>3.2</ele>
        <time>2021-09-05T07:46:21Z</time>
      </trkpt>
      <trkpt lat="43.48072" lon="-1.57094">
        <ele>3.3</ele>
        <time>2021-09-05T07:46:22Z</time>
      </trkpt>
      <trkpt lat="43.48073" lon="-1.57096">
        <ele>3.3</ele>
        <time>2021-09-05T07:46:23Z</time>
      </trkpt>
      <trkpt lat="43.48074" lon="-1.57097">
        <ele>3.4</ele>
        <time>2021-09-05T07:46:24Z</time>
      </trkpt>
      <trkpt lat="43.48075" lon="-1.57098">
        <ele>3.4</ele>
        <time>2021-09-05T07:46:25Z</time>
      </trkpt>
      <trkpt lat="43.48075" lon="-1.57099">
        <ele>3.5</ele>
        <time>2021-09-05T07:46:26Z</time>
      </trkpt>
      <trkpt lat="43.48075" lon="-1.57099">
        <ele>3.5</ele>
        <time>2021-09-05T07:46:27Z</time>
      </trkpt>
      <trkpt lat="43.48077" lon="-1.57102">
        <ele>3.6</ele>
        <time>2021-09-05T07:46:28Z</time>
      </trkpt>
      <trkpt lat="43.48077" lon="-1.57102">
        <ele>3.6</ele>
        <time>2021-09-05T07:46:29Z</time>
      </trkpt>
      <trkpt lat="43.48077" lon="-1.57102">
        <ele>3.7</ele>
        <time>2021-09-05T07:46:30Z</time>
      </trkpt>
      <trkpt lat="43.48077" lon="-1.57105">
        <ele>3.7</ele>
        <time>2021-09-05T07:46:31Z</time>
      </trkpt>
      <trkpt lat="43.48077" lon="-1.57105">
        <ele>3.8</ele>
        <time>2021-09-05T07:46:32Z</time>
      </trkpt>
      <trkpt lat="43.48077" lon="-1.57105">
        <ele>3.8</ele>
        <time>2021-09-05T07:46:33Z</time>
      </trkpt>
      <trkpt lat="43.48075" lon="-1.57107">
        <ele>3.9</ele>
        <time>2021-09-05T07:46:34Z</time>
      </trkpt>
      <trkpt lat="43.48075" lon="-1.57107">
        <ele>3.9</ele>
        <time>2021-09-05T07:46:35Z</time>
      </trkpt>
      <trkpt lat="43.48075" lon="-1.57107">
        <ele>4</ele>
        <time>2021-09-05T07:46:36Z</time>
      </trkpt>
      <trkpt lat="43.48075" lon="-1.57107">
        <ele>4</ele>
        <time>2021-09-05T07:46:37Z</time>
      </trkpt>
      <trkpt lat="43.48075" lon="-1.57107">
        <ele>4.1</ele>
        <time>2021-09-05T07:46:38Z</time>
      </trkpt>
      <trkpt lat="43.48075" lon="-1.57107">
        <ele>4.1</ele>
        <time>2021-09-05T07:46:39Z</time>
      </trkpt>
      <trkpt lat="43.48077" lon="-1.57109">
        <ele>4.2</ele>
        <time>2021-09-05T07:46:40Z</time>
      </trkpt>
      <trkpt lat="43.48079" lon="-1.57111">
        <ele>4.2</ele>
        <time>2021-09-05T07:46:41Z</time>
      </trkpt>
      <trkpt lat="43.48081" lon="-1.57113">
        <ele>4.3</ele>
        <time>2021-09-05T07:46:42Z</time>
      </trkpt>
      <trkpt lat="43.48083" lon="-1.57116">
        <ele>4.3</ele>
        <time>2021-09-05T07:46:43Z</time>
      </trkpt>
      <trkpt lat="43.48085" lon="-1.57118">
        <ele>4.4</ele>
        <time>2021-09-05T07:46:44Z</time>
      </trkpt>
      <trkpt lat="43.48086" lon="-1.57121">
        <ele>4.4</ele>
        <time>2021-09-05T07:46:45Z</time>
      </trkpt>
      <trkpt lat="43.48086" lon="-1.57121">
        <ele>4.5</ele>
        <time>2021-09-05T07:46:46Z</time>
      </trkpt>
      <trkpt lat="43.48088" lon="-1.57123">
        <ele>4.5</ele>
        <time>2021-09-05T07:46:47Z</time>
      </trkpt>
      <trkpt lat="43.48088" lon="-1.57123">
        <ele>4.6</ele>
        <time>2021-09-05T07:46:48Z</time>
      </trkpt>
      <trkpt lat="43.48088" lon="-1.57123">
        <ele>4.6</ele>
        <time>2021-09-05T07:46:49Z</time>
      </trkpt>
      <trkpt lat="43.48088" lon="-1.57127">
        <ele>4.7</ele>
        <time>2021-09-05T07:46:50Z</time>
      </trkpt>
      <trkpt lat="43.48088" lon="-1.57127">
        <ele>4.7</ele>
        <time>2021-09-05T07:46:51Z</time>
      </trkpt>
      <trkpt lat="43.48088" lon="-1.57127">
        <ele>4.8</ele>
        <time>2021-09-05T07:46:52Z</time>
      </trkpt>
      <trkpt lat="43.48087" lon="-1.5713">
        <ele>4.8</ele>
        <time>2021-09-05T07:46:53Z</time>
      </trkpt>
      <trkpt lat="43.48086" lon="-1.57133">
        <ele>4.9</ele>
        <time>2021-09-05T07:46:54Z</time>
      </trkpt>
      <trkpt lat="43.48086" lon="-1.57133">
        <ele>4.9</ele>
        <time>2021-09-05T07:46:55Z</time>
      </trkpt>
      <trkpt lat="43.48085" lon="-1.57135">
        <ele>5</ele>
        <time>2021-09-05T07:46:56Z</time>
      </trkpt>
      <trkpt lat="43.48085" lon="-1.57135">
        <ele>5</ele>
        <time>2021-09-05T07:46:57Z</time>
      </trkpt>
      <trkpt lat="43.48084" lon="-1.57138">
        <ele>5.1</ele>
        <time>2021-09-05T07:46:58Z</time>
      </trkpt>
      <trkpt lat="43.48084" lon="-1.57138">
        <ele>5.1</ele>
        <time>2021-09-05T07:46:59Z</time>
      </trkpt>
      <trkpt lat="43.48084" lon="-1.57141">
        <ele>5.2</ele>
        <time>2021-09-05T07:47:00Z</time>
      </trkpt>
      <trkpt lat="43.48084" lon="-1.57141">
        <ele>5.2</ele>
        <time>2021-09-05T07:47:01Z</time>
      </trkpt>
      <trkpt lat="43.48086" lon="-1.57142">
        <ele>5.3</ele>
        <time>2021-09-05T07:47:02Z</time>
      </trkpt>
      <trkpt lat="43.48087" lon="-1.5714">
        <ele>5.3</ele>
        <time>2021-09-05T07:47:03Z</time>
      </trkpt>
      <trkpt lat="43.48087" lon="-1.5714">
        <ele>5.4</ele>
        <time>2021-09-05T07:47:04Z</time>
      </trkpt>
      <trkpt lat="43.48087" lon="-1.5714">
        <ele>5.4</ele>
        <time>2021-09-05T07:47:05Z</time>
      </trkpt>
      <trkpt lat="43.48088" lon="-1.57143">
        <ele>5.5</ele>
        <time>2021-09-05T07:47:06Z</time>
      </trkpt>
      <trkpt lat="43.48088" lon="-1.57143">
        <ele>5.5</ele>
        <time>2021-09-05T07:47:07Z</time>
      </trkpt>
      <trkpt lat="43.48089" lon="-1.57147">
        <ele>5.5</ele>
        <time>2021-09-05T07:47:08Z</time>
      </trkpt>
      <trkpt lat="43.48088" lon="-1.57148">
        <ele>5.5</ele>
        <time>2021-09-05T07:47:09Z</time>
      </trkpt>
      <trkpt lat="43.48088" lon="-1.57148">
        <ele>5.5</ele>
        <time>2021-09-05T07:47:10Z</time>
      </trkpt>
      <trkpt lat="43.48088" lon="-1.57149">
        <ele>5.5</ele>
        <time>2021-09-05T07:47:11Z</time>
      </trkpt>
      <trkpt lat="43.48088" lon="-1.5715">
        <ele>5.5</ele>
        <time>2021-09-05T07:47:12Z</time>
      </trkpt>
      <trkpt lat="43.48088" lon="-1.57151">
        <ele>5.5</ele>
        <time>2021-09-05T07:47:13Z</time>
      </trkpt>
      <trkpt lat="43.48088" lon="-1.57152">
        <ele>5.5</ele>
        <time>2021-09-05T07:47:14Z</time>
      </trkpt>
      <trkpt lat="43.48089" lon="-1.57153">
        <ele>5.5</ele>
        <time>2021-09-05T07:47:15Z</time>
      </trkpt>
      <trkpt lat="43.48089" lon="-1.57154">
        <ele>5.5</ele>
        <time>2021-09-05T07:47:16Z</time>
      </trkpt>
      <trkpt lat="43.48089" lon="-1.57155">
        <ele>5.5</ele>
        <time>2021-09-05T07:47:17Z</time>
      </trkpt>
      <trkpt lat="43.48089" lon="-1.57156">
        <ele>5.5</ele>
        <time>2021-09-05T07:47:18Z</time>
      </trkpt>
      <trkpt lat="43.48089" lon="-1.57157">
        <ele>5.5</ele>
        <time>2021-09-05T07:47:19Z</time>
      </trkpt>
      <trkpt lat="43.48089" lon="-1.57158">
        <ele>5.5</ele>
        <time>2021-09-05T07:47:20Z</time>
      </trkpt>
      <trkpt lat="43.48089" lon="-1.57159">
        <ele>5.5</ele>
        <time>2021-09-05T07:47:21Z</time>
      </trkpt>
      <trkpt lat="43.4809" lon="-1.5716">
        <ele>5.5</ele>
        <time>2021-09-05T07:47:22Z</time>
      </trkpt>
      <trkpt lat="43.4809" lon="-1.57161">
        <ele>5.5</ele>
        <time>2021-09-05T07:47:23Z</time>
      </trkpt>
      <trkpt lat="43.4809" lon="-1.57162">
        <ele>5.5</ele>
        <time>2021-09-05T07:47:24Z</time>
      </trkpt>
      <trkpt lat="43.48091" lon="-1.57165">
        <ele>5.5</ele>
        <time>2021-09-05T07:47:25Z</time>
      </trkpt>
      <trkpt lat="43.48091" lon="-1.57165">
        <ele>5.5</ele>
        <time>2021-09-05T07:47:26Z</time>
      </trkpt>
      <trkpt lat="43.48092" lon="-1.57167">
        <ele>5.5</ele>
        <time>2021-09-05T07:47:27Z</time>
      </trkpt>
      <trkpt lat="43.48092" lon="-1.57167">
        <ele>5.5</ele>
        <time>2021-09-05T07:47:28Z</time>
      </trkpt>
      <trkpt lat="43.48095" lon="-1.57172">
        <ele>5.5</ele>
        <time>2021-09-05T07:47:29Z</time>
      </trkpt>
      <trkpt lat="43.48095" lon="-1.57172">
        <ele>5.5</ele>
        <time>2021-09-05T07:47:30Z</time>
      </trkpt>
      <trkpt lat="43.48095" lon="-1.57176">
        <ele>5.5</ele>
        <time>2021-09-05T07:47:31Z</time>
      </trkpt>
      <trkpt lat="43.48095" lon="-1.57176">
        <ele>5.5</ele>
        <time>2021-09-05T07:47:32Z</time>
      </trkpt>
      <trkpt lat="43.48096" lon="-1.5718">
        <ele>5.5</ele>
        <time>2021-09-05T07:47:33Z</time>
      </trkpt>
      <trkpt lat="43.48096" lon="-1.5718">
        <ele>5.5</ele>
        <time>2021-09-05T07:47:34Z</time>
      </trkpt>
      <trkpt lat="43.48096" lon="-1.5718">
        <ele>5.5</ele>
        <time>2021-09-05T07:47:35Z</time>
      </trkpt>
      <trkpt lat="43.48096" lon="-1.5718">
        <ele>5.5</ele>
        <time>2021-09-05T07:47:36Z</time>
      </trkpt>
      <trkpt lat="43.48096" lon="-1.5718">
        <ele>5.5</ele>
        <time>2021-09-05T07:47:37Z</time>
      </trkpt>
      <trkpt lat="43.48095" lon="-1.57185">
        <ele>5.5</ele>
        <time>2021-09-05T07:47:38Z</time>
      </trkpt>
      <trkpt lat="43.48095" lon="-1.57185">
        <ele>5.5</ele>
        <time>2021-09-05T07:47:39Z</time>
      </trkpt>
      <trkpt lat="43.48093" lon="-1.57187">
        <ele>5.5</ele>
        <time>2021-09-05T07:47:40Z</time>
      </trkpt>
      <trkpt lat="43.48093" lon="-1.57187">
        <ele>5.5</ele>
        <time>2021-09-05T07:47:41Z</time>
      </trkpt>
      <trkpt lat="43.48092" lon="-1.57189">
        <ele>5.5</ele>
        <time>2021-09-05T07:47:42Z</time>
      </trkpt>
      <trkpt lat="43.48092" lon="-1.57189">
        <ele>5.5</ele>
        <time>2021-09-05T07:47:43Z</time>
      </trkpt>
      <trkpt lat="43.4809" lon="-1.57192">
        <ele>5.5</ele>
        <time>2021-09-05T07:47:44Z</time>
      </trkpt>
      <trkpt lat="43.4809" lon="-1.57192">
        <ele>5.5</ele>
        <time>2021-09-05T07:47:45Z</time>
      </trkpt>
      <trkpt lat="43.48091" lon="-1.57195">
        <ele>5.5</ele>
        <time>2021-09-05T07:47:46Z</time>
      </trkpt>
      <trkpt lat="43.48091" lon="-1.57195">
        <ele>5.5</ele>
        <time>2021-09-05T07:47:47Z</time>
      </trkpt>
      <trkpt lat="43.48091" lon="-1.57195">
        <ele>5.5</ele>
        <time>2021-09-05T07:47:48Z</time>
      </trkpt>
      <trkpt lat="43.48091" lon="-1.57195">
        <ele>5.5</ele>
        <time>2021-09-05T07:47:49Z</time>
      </trkpt>
      <trkpt lat="43.48091" lon="-1.57195">
        <ele>5.5</ele>
        <time>2021-09-05T07:47:50Z</time>
      </trkpt>
      <trkpt lat="43.48091" lon="-1.57195">
        <ele>5.5</ele>
        <time>2021-09-05T07:47:51Z</time>
      </trkpt>
      <trkpt lat="43.48091" lon="-1.57195">
        <ele>5.5</ele>
        <time>2021-09-05T07:47:52Z</time>
      </trkpt>
      <trkpt lat="43.48092" lon="-1.57197">
        <ele>5.5</ele>
        <time>2021-09-05T07:47:53Z</time>
      </trkpt>
      <trkpt lat="43.48093" lon="-1.57199">
        <ele>5.5</ele>
        <time>2021-09-05T07:47:54Z</time>
      </trkpt>
      <trkpt lat="43.48093" lon="-1.57202">
        <ele>5.5</ele>
        <time>2021-09-05T07:47:55Z</time>
      </trkpt>
      <trkpt lat="43.48093" lon="-1.57202">
        <ele>5.5</ele>
        <time>2021-09-05T07:47:56Z</time>
      </trkpt>
      <trkpt lat="43.48094" lon="-1.57204">
        <ele>5.5</ele>
        <time>2021-09-05T07:47:57Z</time>
      </trkpt>
      <trkpt lat="43.48094" lon="-1.57204">
        <ele>5.5</ele>
        <time>2021-09-05T07:47:58Z</time>
      </trkpt>
      <trkpt lat="43.48096" lon="-1.57205">
        <ele>5.5</ele>
        <time>2021-09-05T07:47:59Z</time>
      </trkpt>
      <trkpt lat="43.48096" lon="-1.57205">
        <ele>5.5</ele>
        <time>2021-09-05T07:48:00Z</time>
      </trkpt>
      <trkpt lat="43.48098" lon="-1.57207">
        <ele>5.5</ele>
        <time>2021-09-05T07:48:01Z</time>
      </trkpt>
      <trkpt lat="43.48098" lon="-1.57207">
        <ele>5.5</ele>
        <time>2021-09-05T07:48:02Z</time>
      </trkpt>
      <trkpt lat="43.481" lon="-1.57211">
        <ele>5.5</ele>
        <time>2021-09-05T07:48:03Z</time>
      </trkpt>
      <trkpt lat="43.481" lon="-1.57211">
        <ele>5.5</ele>
        <time>2021-09-05T07:48:04Z</time>
      </trkpt>
      <trkpt lat="43.48101" lon="-1.57213">
        <ele>5.5</ele>
        <time>2021-09-05T07:48:05Z</time>
      </trkpt>
      <trkpt lat="43.48101" lon="-1.57213">
        <ele>5.5</ele>
        <time>2021-09-05T07:48:06Z</time>
      </trkpt>
      <trkpt lat="43.48101" lon="-1.57213">
        <ele>5.5</ele>
        <time>2021-09-05T07:48:07Z</time>
      </trkpt>
      <trkpt lat="43.48101" lon="-1.57213">
        <ele>5.5</ele>
        <time>2021-09-05T07:48:08Z</time>
      </trkpt>
      <trkpt lat="43.48101" lon="-1.57213">
        <ele>5.5</ele>
        <time>2021-09-05T07:48:09Z</time>
      </trkpt>
      <trkpt lat="43.48102" lon="-1.57216">
        <ele>5.5</ele>
        <time>2021-09-05T07:48:10Z</time>
      </trkpt>
      <trkpt lat="43.48102" lon="-1.57216">
        <ele>5.5</ele>
        <time>2021-09-05T07:48:11Z</time>
      </trkpt>
      <trkpt lat="43.48102" lon="-1.57216">
        <ele>5.5</ele>
        <time>2021-09-05T07:48:12Z</time>
      </trkpt>
      <trkpt lat="43.48102" lon="-1.57216">
        <ele>5.5</ele>
        <time>2021-09-05T07:48:13Z</time>
      </trkpt>
      <trkpt lat="43.48102" lon="-1.57216">
        <ele>5.5</ele>
        <time>2021-09-05T07:48:14Z</time>
      </trkpt>
      <trkpt lat="43.48102" lon="-1.57216">
        <ele>5.5</ele>
        <time>2021-09-05T07:48:15Z</time>
      </trkpt>
      <trkpt lat="43.48102" lon="-1.57216">
        <ele>5.5</ele>
        <time>2021-09-05T07:48:16Z</time>
      </trkpt>
      <trkpt lat="43.48102" lon="-1.57216">
        <ele>5.5</ele>
        <time>2021-09-05T07:48:17Z</time>
      </trkpt>
      <trkpt lat="43.48103" lon="-1.57219">
        <ele>5.5</ele>
        <time>2021-09-05T07:48:18Z</time>
      </trkpt>
      <trkpt lat="43.48103" lon="-1.57222">
        <ele>5.5</ele>
        <time>2021-09-05T07:48:19Z</time>
      </trkpt>
      <trkpt lat="43.48104" lon="-1.57225">
        <ele>5.5</ele>
        <time>2021-09-05T07:48:20Z</time>
      </trkpt>
      <trkpt lat="43.48105" lon="-1.57228">
        <ele>5.5</ele>
        <time>2021-09-05T07:48:21Z</time>
      </trkpt>
      <trkpt lat="43.48106" lon="-1.57231">
        <ele>5.5</ele>
        <time>2021-09-05T07:48:22Z</time>
      </trkpt>
      <trkpt lat="43.48106" lon="-1.57235">
        <ele>5.5</ele>
        <time>2021-09-05T07:48:23Z</time>
      </trkpt>
      <trkpt lat="43.48107" lon="-1.57238">
        <ele>5.5</ele>
        <time>2021-09-05T07:48:24Z</time>
      </trkpt>
      <trkpt lat="43.48107" lon="-1.57238">
        <ele>5.5</ele>
        <time>2021-09-05T07:48:25Z</time>
      </trkpt>
      <trkpt lat="43.48107" lon="-1.57238">
        <ele>5.5</ele>
        <time>2021-09-05T07:48:26Z</time>
      </trkpt>
      <trkpt lat="43.48107" lon="-1.57238">
        <ele>5.5</ele>
        <time>2021-09-05T07:48:27Z</time>
      </trkpt>
      <trkpt lat="43.48107" lon="-1.57238">
        <ele>5.5</ele>
        <time>2021-09-05T07:48:28Z</time>
      </trkpt>
      <trkpt lat="43.48107" lon="-1.57238">
        <ele>5.5</ele>
        <time>2021-09-05T07:48:29Z</time>
      </trkpt>
      <trkpt lat="43.48107" lon="-1.57238">
        <ele>5.5</ele>
        <time>2021-09-05T07:48:30Z</time>
      </trkpt>
      <trkpt lat="43.48107" lon="-1.5724">
        <ele>5.5</ele>
        <time>2021-09-05T07:48:31Z</time>
      </trkpt>
      <trkpt lat="43.48107" lon="-1.57242">
        <ele>5.5</ele>
        <time>2021-09-05T07:48:32Z</time>
      </trkpt>
      <trkpt lat="43.48106" lon="-1.57244">
        <ele>5.5</ele>
        <time>2021-09-05T07:48:33Z</time>
      </trkpt>
      <trkpt lat="43.48106" lon="-1.57246">
        <ele>5.5</ele>
        <time>2021-09-05T07:48:34Z</time>
      </trkpt>
      <trkpt lat="43.48106" lon="-1.57248">
        <ele>5.5</ele>
        <time>2021-09-05T07:48:35Z</time>
      </trkpt>
      <trkpt lat="43.48109" lon="-1.5725">
        <ele>5.5</ele>
        <time>2021-09-05T07:48:36Z</time>
      </trkpt>
      <trkpt lat="43.48111" lon="-1.5725">
        <ele>5.5</ele>
        <time>2021-09-05T07:48:37Z</time>
      </trkpt>
      <trkpt lat="43.48111" lon="-1.5725">
        <ele>5.5</ele>
        <time>2021-09-05T07:48:38Z</time>
      </trkpt>
      <trkpt lat="43.4811" lon="-1.57254">
        <ele>5.5</ele>
        <time>2021-09-05T07:48:39Z</time>
      </trkpt>
      <trkpt lat="43.4811" lon="-1.57254">
        <ele>5.5</ele>
        <time>2021-09-05T07:48:40Z</time>
      </trkpt>
      <trkpt lat="43.4811" lon="-1.57254">
        <ele>5.5</ele>
        <time>2021-09-05T07:48:41Z</time>
      </trkpt>
      <trkpt lat="43.4811" lon="-1.57254">
        <ele>5.5</ele>
        <time>2021-09-05T07:48:42Z</time>
      </trkpt>
      <trkpt lat="43.4811" lon="-1.57254">
        <ele>5.5</ele>
        <time>2021-09-05T07:48:43Z</time>
      </trkpt>
      <trkpt lat="43.4811" lon="-1.57254">
        <ele>5.5</ele>
        <time>2021-09-05T07:48:44Z</time>
      </trkpt>
      <trkpt lat="43.48111" lon="-1.57257">
        <ele>5.5</ele>
        <time>2021-09-05T07:48:45Z</time>
      </trkpt>
      <trkpt lat="43.48111" lon="-1.57257">
        <ele>5.5</ele>
        <time>2021-09-05T07:48:46Z</time>
      </trkpt>
      <trkpt lat="43.48111" lon="-1.57257">
        <ele>5.5</ele>
        <time>2021-09-05T07:48:47Z</time>
      </trkpt>
      <trkpt lat="43.48112" lon="-1.57259">
        <ele>5.5</ele>
        <time>2021-09-05T07:48:48Z</time>
      </trkpt>
      <trkpt lat="43.48112" lon="-1.57259">
        <ele>5.5</ele>
        <time>2021-09-05T07:48:49Z</time>
      </trkpt>
      <trkpt lat="43.48112" lon="-1.57259">
        <ele>5.5</ele>
        <time>2021-09-05T07:48:50Z</time>
      </trkpt>
      <trkpt lat="43.48112" lon="-1.57259">
        <ele>5.5</ele>
        <time>2021-09-05T07:48:51Z</time>
      </trkpt>
      <trkpt lat="43.48112" lon="-1.57259">
        <ele>5.5</ele>
        <time>2021-09-05T07:48:52Z</time>
      </trkpt>
      <trkpt lat="43.48112" lon="-1.57259">
        <ele>5.5</ele>
        <time>2021-09-05T07:48:53Z</time>
      </trkpt>
      <trkpt lat="43.48112" lon="-1.57259">
        <ele>5.5</ele>
        <time>2021-09-05T07:48:54Z</time>
      </trkpt>
      <trkpt lat="43.48113" lon="-1.57261">
        <ele>5.5</ele>
        <time>2021-09-05T07:48:55Z</time>
      </trkpt>
      <trkpt lat="43.48114" lon="-1.57262">
        <ele>5.5</ele>
        <time>2021-09-05T07:48:56Z</time>
      </trkpt>
      <trkpt lat="43.48115" lon="-1.57264">
        <ele>5.5</ele>
        <time>2021-09-05T07:48:57Z</time>
      </trkpt>
      <trkpt lat="43.48116" lon="-1.57265">
        <ele>5.5</ele>
        <time>2021-09-05T07:48:58Z</time>
      </trkpt>
      <trkpt lat="43.48117" lon="-1.57266">
        <ele>5.5</ele>
        <time>2021-09-05T07:48:59Z</time>
      </trkpt>
      <trkpt lat="43.48119" lon="-1.57268">
        <ele>5.5</ele>
        <time>2021-09-05T07:49:00Z</time>
      </trkpt>
      <trkpt lat="43.4812" lon="-1.57269">
        <ele>5.5</ele>
        <time>2021-09-05T07:49:01Z</time>
      </trkpt>
      <trkpt lat="43.4812" lon="-1.57269">
        <ele>5.5</ele>
        <time>2021-09-05T07:49:02Z</time>
      </trkpt>
      <trkpt lat="43.48123" lon="-1.57272">
        <ele>5.5</ele>
        <time>2021-09-05T07:49:03Z</time>
      </trkpt>
      <trkpt lat="43.48123" lon="-1.57272">
        <ele>5.5</ele>
        <time>2021-09-05T07:49:04Z</time>
      </trkpt>
      <trkpt lat="43.48125" lon="-1.5727">
        <ele>5.5</ele>
        <time>2021-09-05T07:49:05Z</time>
      </trkpt>
      <trkpt lat="43.48127" lon="-1.5727">
        <ele>5.5</ele>
        <time>2021-09-05T07:49:06Z</time>
      </trkpt>
      <trkpt lat="43.48127" lon="-1.5727">
        <ele>5.5</ele>
        <time>2021-09-05T07:49:07Z</time>
      </trkpt>
      <trkpt lat="43.48129" lon="-1.57265">
        <ele>5.5</ele>
        <time>2021-09-05T07:49:08Z</time>
      </trkpt>
      <trkpt lat="43.48129" lon="-1.57265">
        <ele>5.5</ele>
        <time>2021-09-05T07:49:09Z</time>
      </trkpt>
      <trkpt lat="43.48129" lon="-1.5726">
        <ele>5.5</ele>
        <time>2021-09-05T07:49:10Z</time>
      </trkpt>
      <trkpt lat="43.48129" lon="-1.5726">
        <ele>5.5</ele>
        <time>2021-09-05T07:49:11Z</time>
      </trkpt>
      <trkpt lat="43.48132" lon="-1.57258">
        <ele>5.5</ele>
        <time>2021-09-05T07:49:12Z</time>
      </trkpt>
      <trkpt lat="43.48132" lon="-1.57258">
        <ele>5.5</ele>
        <time>2021-09-05T07:49:13Z</time>
      </trkpt>
      <trkpt lat="43.48134" lon="-1.57258">
        <ele>5.5</ele>
        <time>2021-09-05T07:49:14Z</time>
      </trkpt>
      <trkpt lat="43.48134" lon="-1.57258">
        <ele>5.5</ele>
        <time>2021-09-05T07:49:15Z</time>
      </trkpt>
      <trkpt lat="43.48134" lon="-1.57258">
        <ele>5.5</ele>
        <time>2021-09-05T07:49:16Z</time>
      </trkpt>
      <trkpt lat="43.48137" lon="-1.57258">
        <ele>5.5</ele>
        <time>2021-09-05T07:49:17Z</time>
      </trkpt>
      <trkpt lat="43.48137" lon="-1.57258">
        <ele>5.5</ele>
        <time>2021-09-05T07:49:18Z</time>
      </trkpt>
      <trkpt lat="43.48137" lon="-1.57258">
        <ele>5.5</ele>
        <time>2021-09-05T07:49:19Z</time>
      </trkpt>
      <trkpt lat="43.48137" lon="-1.57258">
        <ele>5.5</ele>
        <time>2021-09-05T07:49:20Z</time>
      </trkpt>
      <trkpt lat="43.48137" lon="-1.57258">
        <ele>5.5</ele>
        <time>2021-09-05T07:49:21Z</time>
      </trkpt>
      <trkpt lat="43.48138" lon="-1.57259">
        <ele>5.5</ele>
        <time>2021-09-05T07:49:22Z</time>
      </trkpt>
      <trkpt lat="43.4814" lon="-1.5726">
        <ele>5.5</ele>
        <time>2021-09-05T07:49:23Z</time>
      </trkpt>
      <trkpt lat="43.48142" lon="-1.57261">
        <ele>5.5</ele>
        <time>2021-09-05T07:49:24Z</time>
      </trkpt>
      <trkpt lat="43.48144" lon="-1.57262">
        <ele>5.5</ele>
        <time>2021-09-05T07:49:25Z</time>
      </trkpt>
      <trkpt lat="43.48145" lon="-1.57263">
        <ele>5.5</ele>
        <time>2021-09-05T07:49:26Z</time>
      </trkpt>
      <trkpt lat="43.48147" lon="-1.57264">
        <ele>5.5</ele>
        <time>2021-09-05T07:49:27Z</time>
      </trkpt>
      <trkpt lat="43.48147" lon="-1.57264">
        <ele>5.5</ele>
        <time>2021-09-05T07:49:28Z</time>
      </trkpt>
      <trkpt lat="43.48149" lon="-1.57262">
        <ele>5.5</ele>
        <time>2021-09-05T07:49:29Z</time>
      </trkpt>
      <trkpt lat="43.48149" lon="-1.57262">
        <ele>5.5</ele>
        <time>2021-09-05T07:49:30Z</time>
      </trkpt>
      <trkpt lat="43.48149" lon="-1.57259">
        <ele>5.5</ele>
        <time>2021-09-05T07:49:31Z</time>
      </trkpt>
      <trkpt lat="43.48149" lon="-1.57256">
        <ele>5.5</ele>
        <time>2021-09-05T07:49:32Z</time>
      </trkpt>
      <trkpt lat="43.48149" lon="-1.57256">
        <ele>5.5</ele>
        <time>2021-09-05T07:49:33Z</time>
      </trkpt>
      <trkpt lat="43.48149" lon="-1.57256">
        <ele>5.5</ele>
        <time>2021-09-05T07:49:34Z</time>
      </trkpt>
      <trkpt lat="43.48149" lon="-1.57256">
        <ele>5.5</ele>
        <time>2021-09-05T07:49:35Z</time>
      </trkpt>
      <trkpt lat="43.48149" lon="-1.57256">
        <ele>5.5</ele>
        <time>2021-09-05T07:49:36Z</time>
      </trkpt>
      <trkpt lat="43.4815" lon="-1.57256">
        <ele>5.5</ele>
        <time>2021-09-05T07:49:37Z</time>
      </trkpt>
      <trkpt lat="43.48151" lon="-1.57256">
        <ele>5.5</ele>
        <time>2021-09-05T07:49:38Z</time>
      </trkpt>
      <trkpt lat="43.48152" lon="-1.57256">
        <ele>5.5</ele>
        <time>2021-09-05T07:49:39Z</time>
      </trkpt>
      <trkpt lat="43.48154" lon="-1.57256">
        <ele>5.5</ele>
        <time>2021-09-05T07:49:40Z</time>
      </trkpt>
      <trkpt lat="43.48155" lon="-1.57256">
        <ele>5.5</ele>
        <time>2021-09-05T07:49:41Z</time>
      </trkpt>
      <trkpt lat="43.48156" lon="-1.57255">
        <ele>5.5</ele>
        <time>2021-09-05T07:49:42Z</time>
      </trkpt>
      <trkpt lat="43.48157" lon="-1.57255">
        <ele>5.5</ele>
        <time>2021-09-05T07:49:43Z</time>
      </trkpt>
      <trkpt lat="43.48158" lon="-1.57255">
        <ele>5.5</ele>
        <time>2021-09-05T07:49:44Z</time>
      </trkpt>
      <trkpt lat="43.48159" lon="-1.57255">
        <ele>5.5</ele>
        <time>2021-09-05T07:49:45Z</time>
      </trkpt>
      <trkpt lat="43.4816" lon="-1.57255">
        <ele>5.5</ele>
        <time>2021-09-05T07:49:46Z</time>
      </trkpt>
      <trkpt lat="43.48162" lon="-1.57255">
        <ele>5.5</ele>
        <time>2021-09-05T07:49:47Z</time>
      </trkpt>
      <trkpt lat="43.48163" lon="-1.57256">
        <ele>5.5</ele>
        <time>2021-09-05T07:49:48Z</time>
      </trkpt>
      <trkpt lat="43.48163" lon="-1.57256">
        <ele>5.5</ele>
        <time>2021-09-05T07:49:49Z</time>
      </trkpt>
      <trkpt lat="43.48165" lon="-1.57256">
        <ele>5.5</ele>
        <time>2021-09-05T07:49:50Z</time>
      </trkpt>
      <trkpt lat="43.48168" lon="-1.57257">
        <ele>5.5</ele>
        <time>2021-09-05T07:49:51Z</time>
      </trkpt>
      <trkpt lat="43.48168" lon="-1.57257">
        <ele>5.5</ele>
        <time>2021-09-05T07:49:52Z</time>
      </trkpt>
      <trkpt lat="43.48171" lon="-1.57257">
        <ele>5.5</ele>
        <time>2021-09-05T07:49:53Z</time>
      </trkpt>
      <trkpt lat="43.48171" lon="-1.57257">
        <ele>5.5</ele>
        <time>2021-09-05T07:49:54Z</time>
      </trkpt>
      <trkpt lat="43.48173" lon="-1.57255">
        <ele>5.5</ele>
        <time>2021-09-05T07:49:55Z</time>
      </trkpt>
      <trkpt lat="43.48173" lon="-1.57255">
        <ele>5.5</ele>
        <time>2021-09-05T07:49:56Z</time>
      </trkpt>
      <trkpt lat="43.48174" lon="-1.57253">
        <ele>5.5</ele>
        <time>2021-09-05T07:49:57Z</time>
      </trkpt>
      <trkpt lat="43.48174" lon="-1.57253">
        <ele>5.5</ele>
        <time>2021-09-05T07:49:58Z</time>
      </trkpt>
      <trkpt lat="43.48177" lon="-1.57252">
        <ele>5.5</ele>
        <time>2021-09-05T07:49:59Z</time>
      </trkpt>
      <trkpt lat="43.48177" lon="-1.57252">
        <ele>5.5</ele>
        <time>2021-09-05T07:50:01Z</time>
      </trkpt>
      <trkpt lat="43.48177" lon="-1.57252">
        <ele>5.5</ele>
        <time>2021-09-05T07:50:02Z</time>
      </trkpt>
      <trkpt lat="43.48177" lon="-1.57252">
        <ele>5.5</ele>
        <time>2021-09-05T07:50:03Z</time>
      </trkpt>
      <trkpt lat="43.48177" lon="-1.57252">
        <ele>5.5</ele>
        <time>2021-09-05T07:50:04Z</time>
      </trkpt>
      <trkpt lat="43.48178" lon="-1.57249">
        <ele>5.5</ele>
        <time>2021-09-05T07:50:05Z</time>
      </trkpt>
      <trkpt lat="43.4818" lon="-1.57247">
        <ele>5.5</ele>
        <time>2021-09-05T07:50:06Z</time>
      </trkpt>
      <trkpt lat="43.48182" lon="-1.57244">
        <ele>5.5</ele>
        <time>2021-09-05T07:50:07Z</time>
      </trkpt>
      <trkpt lat="43.48182" lon="-1.57244">
        <ele>5.5</ele>
        <time>2021-09-05T07:50:08Z</time>
      </trkpt>
      <trkpt lat="43.48184" lon="-1.57242">
        <ele>5.5</ele>
        <time>2021-09-05T07:50:09Z</time>
      </trkpt>
      <trkpt lat="43.48184" lon="-1.57242">
        <ele>5.5</ele>
        <time>2021-09-05T07:50:10Z</time>
      </trkpt>
      <trkpt lat="43.48187" lon="-1.5724">
        <ele>5.5</ele>
        <time>2021-09-05T07:50:11Z</time>
      </trkpt>
      <trkpt lat="43.48189" lon="-1.5724">
        <ele>5.5</ele>
        <time>2021-09-05T07:50:12Z</time>
      </trkpt>
      <trkpt lat="43.48189" lon="-1.5724">
        <ele>5.5</ele>
        <time>2021-09-05T07:50:13Z</time>
      </trkpt>
      <trkpt lat="43.48189" lon="-1.5724">
        <ele>5.5</ele>
        <time>2021-09-05T07:50:14Z</time>
      </trkpt>
      <trkpt lat="43.48191" lon="-1.57239">
        <ele>5.5</ele>
        <time>2021-09-05T07:50:15Z</time>
      </trkpt>
      <trkpt lat="43.48191" lon="-1.57239">
        <ele>5.5</ele>
        <time>2021-09-05T07:50:16Z</time>
      </trkpt>
      <trkpt lat="43.48195" lon="-1.57239">
        <ele>5.5</ele>
        <time>2021-09-05T07:50:17Z</time>
      </trkpt>
      <trkpt lat="43.48197" lon="-1.57239">
        <ele>5.5</ele>
        <time>2021-09-05T07:50:18Z</time>
      </trkpt>
      <trkpt lat="43.48195" lon="-1.57241">
        <ele>5.5</ele>
        <time>2021-09-05T07:50:19Z</time>
      </trkpt>
      <trkpt lat="43.48195" lon="-1.57241">
        <ele>5.5</ele>
        <time>2021-09-05T07:50:20Z</time>
      </trkpt>
      <trkpt lat="43.48198" lon="-1.57241">
        <ele>5.5</ele>
        <time>2021-09-05T07:50:21Z</time>
      </trkpt>
      <trkpt lat="43.48198" lon="-1.57241">
        <ele>5.5</ele>
        <time>2021-09-05T07:50:22Z</time>
      </trkpt>
      <trkpt lat="43.482" lon="-1.57242">
        <ele>5.5</ele>
        <time>2021-09-05T07:50:23Z</time>
      </trkpt>
      <trkpt lat="43.48197" lon="-1.57242">
        <ele>5.5</ele>
        <time>2021-09-05T07:50:24Z</time>
      </trkpt>
      <trkpt lat="43.48197" lon="-1.57242">
        <ele>5.5</ele>
        <time>2021-09-05T07:50:25Z</time>
      </trkpt>
      <trkpt lat="43.48197" lon="-1.57242">
        <ele>5.5</ele>
        <time>2021-09-05T07:50:26Z</time>
      </trkpt>
      <trkpt lat="43.48197" lon="-1.57242">
        <ele>5.5</ele>
        <time>2021-09-05T07:50:27Z</time>
      </trkpt>
      <trkpt lat="43.48198" lon="-1.57239">
        <ele>5.5</ele>
        <time>2021-09-05T07:50:28Z</time>
      </trkpt>
      <trkpt lat="43.48198" lon="-1.57239">
        <ele>5.5</ele>
        <time>2021-09-05T07:50:29Z</time>
      </trkpt>
      <trkpt lat="43.48198" lon="-1.57239">
        <ele>5.5</ele>
        <time>2021-09-05T07:50:30Z</time>
      </trkpt>
      <trkpt lat="43.48198" lon="-1.57239">
        <ele>5.5</ele>
        <time>2021-09-05T07:50:31Z</time>
      </trkpt>
      <trkpt lat="43.48198" lon="-1.57239">
        <ele>5.5</ele>
        <time>2021-09-05T07:50:32Z</time>
      </trkpt>
      <trkpt lat="43.48198" lon="-1.57239">
        <ele>5.5</ele>
        <time>2021-09-05T07:50:33Z</time>
      </trkpt>
      <trkpt lat="43.48198" lon="-1.57239">
        <ele>5.5</ele>
        <time>2021-09-05T07:50:34Z</time>
      </trkpt>
      <trkpt lat="43.48199" lon="-1.57236">
        <ele>5.5</ele>
        <time>2021-09-05T07:50:35Z</time>
      </trkpt>
      <trkpt lat="43.48199" lon="-1.57236">
        <ele>5.5</ele>
        <time>2021-09-05T07:50:36Z</time>
      </trkpt>
      <trkpt lat="43.48199" lon="-1.57239">
        <ele>5.5</ele>
        <time>2021-09-05T07:50:37Z</time>
      </trkpt>
      <trkpt lat="43.48199" lon="-1.57239">
        <ele>5.5</ele>
        <time>2021-09-05T07:50:38Z</time>
      </trkpt>
      <trkpt lat="43.48202" lon="-1.57243">
        <ele>5.5</ele>
        <time>2021-09-05T07:50:39Z</time>
      </trkpt>
      <trkpt lat="43.48202" lon="-1.57243">
        <ele>5.5</ele>
        <time>2021-09-05T07:50:40Z</time>
      </trkpt>
      <trkpt lat="43.48205" lon="-1.57246">
        <ele>5.5</ele>
        <time>2021-09-05T07:50:41Z</time>
      </trkpt>
      <trkpt lat="43.48206" lon="-1.57244">
        <ele>5.5</ele>
        <time>2021-09-05T07:50:42Z</time>
      </trkpt>
      <trkpt lat="43.48206" lon="-1.57244">
        <ele>5.5</ele>
        <time>2021-09-05T07:50:43Z</time>
      </trkpt>
      <trkpt lat="43.48206" lon="-1.57244">
        <ele>5.5</ele>
        <time>2021-09-05T07:50:44Z</time>
      </trkpt>
      <trkpt lat="43.48206" lon="-1.57244">
        <ele>5.5</ele>
        <time>2021-09-05T07:50:45Z</time>
      </trkpt>
      <trkpt lat="43.48206" lon="-1.57244">
        <ele>5.5</ele>
        <time>2021-09-05T07:50:46Z</time>
      </trkpt>
      <trkpt lat="43.48206" lon="-1.57244">
        <ele>5.5</ele>
        <time>2021-09-05T07:50:47Z</time>
      </trkpt>
      <trkpt lat="43.48206" lon="-1.57244">
        <ele>5.5</ele>
        <time>2021-09-05T07:50:48Z</time>
      </trkpt>
      <trkpt lat="43.48206" lon="-1.57244">
        <ele>5.5</ele>
        <time>2021-09-05T07:50:49Z</time>
      </trkpt>
      <trkpt lat="43.48206" lon="-1.57244">
        <ele>5.5</ele>
        <time>2021-09-05T07:50:50Z</time>
      </trkpt>
      <trkpt lat="43.48206" lon="-1.57244">
        <ele>5.5</ele>
        <time>2021-09-05T07:50:51Z</time>
      </trkpt>
      <trkpt lat="43.48206" lon="-1.57244">
        <ele>5.5</ele>
        <time>2021-09-05T07:50:52Z</time>
      </trkpt>
      <trkpt lat="43.48206" lon="-1.57244">
        <ele>5.5</ele>
        <time>2021-09-05T07:50:53Z</time>
      </trkpt>
      <trkpt lat="43.48206" lon="-1.57244">
        <ele>5.5</ele>
        <time>2021-09-05T07:50:54Z</time>
      </trkpt>
      <trkpt lat="43.48206" lon="-1.57244">
        <ele>5.5</ele>
        <time>2021-09-05T07:50:55Z</time>
      </trkpt>
      <trkpt lat="43.48206" lon="-1.57244">
        <ele>5.5</ele>
        <time>2021-09-05T07:50:56Z</time>
      </trkpt>
      <trkpt lat="43.48206" lon="-1.57244">
        <ele>5.5</ele>
        <time>2021-09-05T07:50:57Z</time>
      </trkpt>
      <trkpt lat="43.48206" lon="-1.57244">
        <ele>5.5</ele>
        <time>2021-09-05T07:50:58Z</time>
      </trkpt>
      <trkpt lat="43.48206" lon="-1.57244">
        <ele>5.5</ele>
        <time>2021-09-05T07:50:59Z</time>
      </trkpt>
      <trkpt lat="43.48206" lon="-1.57244">
        <ele>5.5</ele>
        <time>2021-09-05T07:51:00Z</time>
      </trkpt>
      <trkpt lat="43.48206" lon="-1.57244">
        <ele>5.5</ele>
        <time>2021-09-05T07:51:01Z</time>
      </trkpt>
      <trkpt lat="43.48206" lon="-1.57244">
        <ele>5.5</ele>
        <time>2021-09-05T07:51:02Z</time>
      </trkpt>
      <trkpt lat="43.48222" lon="-1.57231">
        <ele>5.5</ele>
        <time>2021-09-05T07:51:03Z</time>
      </trkpt>
      <trkpt lat="43.48223" lon="-1.57232">
        <ele>5.5</ele>
        <time>2021-09-05T07:51:04Z</time>
      </trkpt>
      <trkpt lat="43.48225" lon="-1.57234">
        <ele>5.5</ele>
        <time>2021-09-05T07:51:05Z</time>
      </trkpt>
      <trkpt lat="43.48225" lon="-1.57234">
        <ele>5.5</ele>
        <time>2021-09-05T07:51:06Z</time>
      </trkpt>
      <trkpt lat="43.4823" lon="-1.57233">
        <ele>5.5</ele>
        <time>2021-09-05T07:51:07Z</time>
      </trkpt>
      <trkpt lat="43.48231" lon="-1.57232">
        <ele>5.5</ele>
        <time>2021-09-05T07:51:08Z</time>
      </trkpt>
      <trkpt lat="43.48231" lon="-1.57228">
        <ele>5.5</ele>
        <time>2021-09-05T07:51:09Z</time>
      </trkpt>
      <trkpt lat="43.48231" lon="-1.57228">
        <ele>5.5</ele>
        <time>2021-09-05T07:51:10Z</time>
      </trkpt>
      <trkpt lat="43.48231" lon="-1.57228">
        <ele>5.5</ele>
        <time>2021-09-05T07:51:11Z</time>
      </trkpt>
      <trkpt lat="43.48231" lon="-1.57228">
        <ele>5.5</ele>
        <time>2021-09-05T07:51:12Z</time>
      </trkpt>
      <trkpt lat="43.48231" lon="-1.57228">
        <ele>5.5</ele>
        <time>2021-09-05T07:51:13Z</time>
      </trkpt>
      <trkpt lat="43.48231" lon="-1.57228">
        <ele>5.5</ele>
        <time>2021-09-05T07:51:14Z</time>
      </trkpt>
      <trkpt lat="43.48231" lon="-1.57228">
        <ele>5.5</ele>
        <time>2021-09-05T07:51:15Z</time>
      </trkpt>
      <trkpt lat="43.48234" lon="-1.57227">
        <ele>5.5</ele>
        <time>2021-09-05T07:51:16Z</time>
      </trkpt>
      <trkpt lat="43.48237" lon="-1.57226">
        <ele>5.5</ele>
        <time>2021-09-05T07:51:17Z</time>
      </trkpt>
      <trkpt lat="43.4824" lon="-1.57224">
        <ele>5.5</ele>
        <time>2021-09-05T07:51:18Z</time>
      </trkpt>
      <trkpt lat="43.48242" lon="-1.57226">
        <ele>5.5</ele>
        <time>2021-09-05T07:51:19Z</time>
      </trkpt>
      <trkpt lat="43.48242" lon="-1.57226">
        <ele>5.5</ele>
        <time>2021-09-05T07:51:20Z</time>
      </trkpt>
      <trkpt lat="43.48242" lon="-1.57226">
        <ele>5.5</ele>
        <time>2021-09-05T07:51:21Z</time>
      </trkpt>
      <trkpt lat="43.48245" lon="-1.57227">
        <ele>5.5</ele>
        <time>2021-09-05T07:51:22Z</time>
      </trkpt>
      <trkpt lat="43.48245" lon="-1.57227">
        <ele>5.5</ele>
        <time>2021-09-05T07:51:23Z</time>
      </trkpt>
      <trkpt lat="43.48247" lon="-1.57226">
        <ele>5.5</ele>
        <time>2021-09-05T07:51:24Z</time>
      </trkpt>
      <trkpt lat="43.48247" lon="-1.57222">
        <ele>5.5</ele>
        <time>2021-09-05T07:51:25Z</time>
      </trkpt>
      <trkpt lat="43.48247" lon="-1.57222">
        <ele>5.5</ele>
        <time>2021-09-05T07:51:26Z</time>
      </trkpt>
      <trkpt lat="43.4825" lon="-1.57218">
        <ele>5.5</ele>
        <time>2021-09-05T07:51:27Z</time>
      </trkpt>
      <trkpt lat="43.4825" lon="-1.57218">
        <ele>5.5</ele>
        <time>2021-09-05T07:51:28Z</time>
      </trkpt>
      <trkpt lat="43.48254" lon="-1.57219">
        <ele>5.5</ele>
        <time>2021-09-05T07:51:29Z</time>
      </trkpt>
      <trkpt lat="43.48254" lon="-1.57219">
        <ele>5.5</ele>
        <time>2021-09-05T07:51:30Z</time>
      </trkpt>
      <trkpt lat="43.48254" lon="-1.57219">
        <ele>5.5</ele>
        <time>2021-09-05T07:51:31Z</time>
      </trkpt>
      <trkpt lat="43.48254" lon="-1.57219">
        <ele>5.5</ele>
        <time>2021-09-05T07:51:32Z</time>
      </trkpt>
      <trkpt lat="43.48254" lon="-1.57219">
        <ele>5.5</ele>
        <time>2021-09-05T07:51:33Z</time>
      </trkpt>
      <trkpt lat="43.48254" lon="-1.57219">
        <ele>5.5</ele>
        <time>2021-09-05T07:51:34Z</time>
      </trkpt>
      <trkpt lat="43.48254" lon="-1.57219">
        <ele>5.5</ele>
        <time>2021-09-05T07:51:35Z</time>
      </trkpt>
      <trkpt lat="43.48254" lon="-1.57219">
        <ele>5.5</ele>
        <time>2021-09-05T07:51:36Z</time>
      </trkpt>
      <trkpt lat="43.48254" lon="-1.57219">
        <ele>5.5</ele>
        <time>2021-09-05T07:51:37Z</time>
      </trkpt>
      <trkpt lat="43.48254" lon="-1.57219">
        <ele>5.5</ele>
        <time>2021-09-05T07:51:38Z</time>
      </trkpt>
      <trkpt lat="43.48254" lon="-1.57219">
        <ele>5.5</ele>
        <time>2021-09-05T07:51:39Z</time>
      </trkpt>
      <trkpt lat="43.48254" lon="-1.57219">
        <ele>5.5</ele>
        <time>2021-09-05T07:51:40Z</time>
      </trkpt>
      <trkpt lat="43.48254" lon="-1.57219">
        <ele>5.5</ele>
        <time>2021-09-05T07:51:41Z</time>
      </trkpt>
      <trkpt lat="43.48254" lon="-1.57219">
        <ele>5.5</ele>
        <time>2021-09-05T07:51:42Z</time>
      </trkpt>
      <trkpt lat="43.48254" lon="-1.57219">
        <ele>5.5</ele>
        <time>2021-09-05T07:51:43Z</time>
      </trkpt>
      <trkpt lat="43.48254" lon="-1.57219">
        <ele>5.5</ele>
        <time>2021-09-05T07:51:44Z</time>
      </trkpt>
      <trkpt lat="43.48254" lon="-1.57219">
        <ele>5.5</ele>
        <time>2021-09-05T07:51:45Z</time>
      </trkpt>
      <trkpt lat="43.48254" lon="-1.57219">
        <ele>5.5</ele>
        <time>2021-09-05T07:51:46Z</time>
      </trkpt>
      <trkpt lat="43.48254" lon="-1.57219">
        <ele>5.5</ele>
        <time>2021-09-05T07:51:47Z</time>
      </trkpt>
      <trkpt lat="43.48254" lon="-1.57219">
        <ele>5.5</ele>
        <time>2021-09-05T07:51:48Z</time>
      </trkpt>
      <trkpt lat="43.48254" lon="-1.57219">
        <ele>5.5</ele>
        <time>2021-09-05T07:51:49Z</time>
      </trkpt>
      <trkpt lat="43.48254" lon="-1.57219">
        <ele>5.5</ele>
        <time>2021-09-05T07:51:50Z</time>
      </trkpt>
      <trkpt lat="43.48254" lon="-1.57219">
        <ele>5.5</ele>
        <time>2021-09-05T07:51:51Z</time>
      </trkpt>
      <trkpt lat="43.48254" lon="-1.57219">
        <ele>5.5</ele>
        <time>2021-09-05T07:51:52Z</time>
      </trkpt>
      <trkpt lat="43.48254" lon="-1.57219">
        <ele>5.5</ele>
        <time>2021-09-05T07:51:53Z</time>
      </trkpt>
      <trkpt lat="43.48261" lon="-1.57221">
        <ele>5.5</ele>
        <time>2021-09-05T07:51:54Z</time>
      </trkpt>
      <trkpt lat="43.48269" lon="-1.57222">
        <ele>5.5</ele>
        <time>2021-09-05T07:51:55Z</time>
      </trkpt>
      <trkpt lat="43.48277" lon="-1.57224">
        <ele>5.5</ele>
        <time>2021-09-05T07:51:56Z</time>
      </trkpt>
      <trkpt lat="43.48277" lon="-1.57228">
        <ele>5.5</ele>
        <time>2021-09-05T07:51:57Z</time>
      </trkpt>
      <trkpt lat="43.48277" lon="-1.57221">
        <ele>5.5</ele>
        <time>2021-09-05T07:51:58Z</time>
      </trkpt>
      <trkpt lat="43.48279" lon="-1.5722">
        <ele>5.5</ele>
        <time>2021-09-05T07:51:59Z</time>
      </trkpt>
      <trkpt lat="43.48279" lon="-1.5722">
        <ele>5.5</ele>
        <time>2021-09-05T07:52:00Z</time>
      </trkpt>
      <trkpt lat="43.48282" lon="-1.57218">
        <ele>5.5</ele>
        <time>2021-09-05T07:52:01Z</time>
      </trkpt>
      <trkpt lat="43.48285" lon="-1.57217">
        <ele>5.5</ele>
        <time>2021-09-05T07:52:02Z</time>
      </trkpt>
      <trkpt lat="43.48285" lon="-1.57217">
        <ele>5.5</ele>
        <time>2021-09-05T07:52:03Z</time>
      </trkpt>
      <trkpt lat="43.48287" lon="-1.57214">
        <ele>5.5</ele>
        <time>2021-09-05T07:52:04Z</time>
      </trkpt>
      <trkpt lat="43.48287" lon="-1.57214">
        <ele>5.5</ele>
        <time>2021-09-05T07:52:05Z</time>
      </trkpt>
      <trkpt lat="43.48289" lon="-1.57211">
        <ele>5.5</ele>
        <time>2021-09-05T07:52:06Z</time>
      </trkpt>
      <trkpt lat="43.4829" lon="-1.5721">
        <ele>5.5</ele>
        <time>2021-09-05T07:52:07Z</time>
      </trkpt>
      <trkpt lat="43.48285" lon="-1.57203">
        <ele>5.5</ele>
        <time>2021-09-05T07:52:08Z</time>
      </trkpt>
      <trkpt lat="43.48284" lon="-1.57198">
        <ele>5.5</ele>
        <time>2021-09-05T07:52:09Z</time>
      </trkpt>
      <trkpt lat="43.48282" lon="-1.57197">
        <ele>5.5</ele>
        <time>2021-09-05T07:52:10Z</time>
      </trkpt>
      <trkpt lat="43.48281" lon="-1.57193">
        <ele>5.5</ele>
        <time>2021-09-05T07:52:11Z</time>
      </trkpt>
      <trkpt lat="43.48281" lon="-1.57193">
        <ele>5.5</ele>
        <time>2021-09-05T07:52:12Z</time>
      </trkpt>
      <trkpt lat="43.48281" lon="-1.57189">
        <ele>5.5</ele>
        <time>2021-09-05T07:52:13Z</time>
      </trkpt>
      <trkpt lat="43.48283" lon="-1.57192">
        <ele>5.5</ele>
        <time>2021-09-05T07:52:14Z</time>
      </trkpt>
      <trkpt lat="43.48283" lon="-1.57192">
        <ele>5.5</ele>
        <time>2021-09-05T07:52:15Z</time>
      </trkpt>
      <trkpt lat="43.48283" lon="-1.57192">
        <ele>5.5</ele>
        <time>2021-09-05T07:52:16Z</time>
      </trkpt>
      <trkpt lat="43.48286" lon="-1.57194">
        <ele>5.5</ele>
        <time>2021-09-05T07:52:17Z</time>
      </trkpt>
      <trkpt lat="43.48286" lon="-1.57194">
        <ele>5.5</ele>
        <time>2021-09-05T07:52:18Z</time>
      </trkpt>
      <trkpt lat="43.48287" lon="-1.57195">
        <ele>5.5</ele>
        <time>2021-09-05T07:52:19Z</time>
      </trkpt>
      <trkpt lat="43.48287" lon="-1.57195">
        <ele>5.5</ele>
        <time>2021-09-05T07:52:20Z</time>
      </trkpt>
      <trkpt lat="43.4829" lon="-1.57197">
        <ele>5.5</ele>
        <time>2021-09-05T07:52:21Z</time>
      </trkpt>
      <trkpt lat="43.4829" lon="-1.57197">
        <ele>5.5</ele>
        <time>2021-09-05T07:52:22Z</time>
      </trkpt>
      <trkpt lat="43.4829" lon="-1.57197">
        <ele>5.5</ele>
        <time>2021-09-05T07:52:23Z</time>
      </trkpt>
      <trkpt lat="43.4829" lon="-1.57197">
        <ele>5.5</ele>
        <time>2021-09-05T07:52:24Z</time>
      </trkpt>
      <trkpt lat="43.4829" lon="-1.57197">
        <ele>5.5</ele>
        <time>2021-09-05T07:52:25Z</time>
      </trkpt>
      <trkpt lat="43.4829" lon="-1.57197">
        <ele>5.5</ele>
        <time>2021-09-05T07:52:26Z</time>
      </trkpt>
      <trkpt lat="43.48301" lon="-1.57197">
        <ele>5.5</ele>
        <time>2021-09-05T07:52:27Z</time>
      </trkpt>
      <trkpt lat="43.48303" lon="-1.57195">
        <ele>5.5</ele>
        <time>2021-09-05T07:52:28Z</time>
      </trkpt>
      <trkpt lat="43.48306" lon="-1.57194">
        <ele>5.5</ele>
        <time>2021-09-05T07:52:29Z</time>
      </trkpt>
      <trkpt lat="43.48306" lon="-1.57191">
        <ele>5.5</ele>
        <time>2021-09-05T07:52:30Z</time>
      </trkpt>
      <trkpt lat="43.48306" lon="-1.57191">
        <ele>5.5</ele>
        <time>2021-09-05T07:52:31Z</time>
      </trkpt>
      <trkpt lat="43.48306" lon="-1.57191">
        <ele>5.5</ele>
        <time>2021-09-05T07:52:32Z</time>
      </trkpt>
      <trkpt lat="43.48306" lon="-1.57195">
        <ele>5.5</ele>
        <time>2021-09-05T07:52:33Z</time>
      </trkpt>
      <trkpt lat="43.48306" lon="-1.57195">
        <ele>5.5</ele>
        <time>2021-09-05T07:52:34Z</time>
      </trkpt>
      <trkpt lat="43.48306" lon="-1.57195">
        <ele>5.5</ele>
        <time>2021-09-05T07:52:35Z</time>
      </trkpt>
      <trkpt lat="43.48306" lon="-1.57195">
        <ele>5.5</ele>
        <time>2021-09-05T07:52:36Z</time>
      </trkpt>
      <trkpt lat="43.48306" lon="-1.57195">
        <ele>5.5</ele>
        <time>2021-09-05T07:52:37Z</time>
      </trkpt>
      <trkpt lat="43.48308" lon="-1.57192">
        <ele>5.5</ele>
        <time>2021-09-05T07:52:38Z</time>
      </trkpt>
      <trkpt lat="43.4831" lon="-1.57192">
        <ele>5.5</ele>
        <time>2021-09-05T07:52:39Z</time>
      </trkpt>
      <trkpt lat="43.48311" lon="-1.5719">
        <ele>5.5</ele>
        <time>2021-09-05T07:52:40Z</time>
      </trkpt>
      <trkpt lat="43.48313" lon="-1.5719">
        <ele>5.5</ele>
        <time>2021-09-05T07:52:41Z</time>
      </trkpt>
      <trkpt lat="43.48313" lon="-1.5719">
        <ele>5.5</ele>
        <time>2021-09-05T07:52:42Z</time>
      </trkpt>
      <trkpt lat="43.48315" lon="-1.57192">
        <ele>5.5</ele>
        <time>2021-09-05T07:52:43Z</time>
      </trkpt>
      <trkpt lat="43.48315" lon="-1.57192">
        <ele>5.5</ele>
        <time>2021-09-05T07:52:44Z</time>
      </trkpt>
      <trkpt lat="43.48314" lon="-1.57187">
        <ele>5.5</ele>
        <time>2021-09-05T07:52:45Z</time>
      </trkpt>
      <trkpt lat="43.48313" lon="-1.57183">
        <ele>5.5</ele>
        <time>2021-09-05T07:52:46Z</time>
      </trkpt>
      <trkpt lat="43.48315" lon="-1.57181">
        <ele>5.5</ele>
        <time>2021-09-05T07:52:47Z</time>
      </trkpt>
      <trkpt lat="43.48314" lon="-1.57178">
        <ele>5.5</ele>
        <time>2021-09-05T07:52:48Z</time>
      </trkpt>
      <trkpt lat="43.48314" lon="-1.57178">
        <ele>5.5</ele>
        <time>2021-09-05T07:52:49Z</time>
      </trkpt>
      <trkpt lat="43.48316" lon="-1.57178">
        <ele>5.5</ele>
        <time>2021-09-05T07:52:50Z</time>
      </trkpt>
      <trkpt lat="43.48316" lon="-1.57178">
        <ele>5.5</ele>
        <time>2021-09-05T07:52:51Z</time>
      </trkpt>
      <trkpt lat="43.48316" lon="-1.57178">
        <ele>5.5</ele>
        <time>2021-09-05T07:52:52Z</time>
      </trkpt>
      <trkpt lat="43.48316" lon="-1.57178">
        <ele>5.5</ele>
        <time>2021-09-05T07:52:53Z</time>
      </trkpt>
      <trkpt lat="43.48316" lon="-1.57178">
        <ele>5.5</ele>
        <time>2021-09-05T07:52:54Z</time>
      </trkpt>
      <trkpt lat="43.48316" lon="-1.57178">
        <ele>5.5</ele>
        <time>2021-09-05T07:52:55Z</time>
      </trkpt>
      <trkpt lat="43.48316" lon="-1.57178">
        <ele>5.5</ele>
        <time>2021-09-05T07:52:56Z</time>
      </trkpt>
      <trkpt lat="43.48316" lon="-1.57178">
        <ele>5.5</ele>
        <time>2021-09-05T07:52:57Z</time>
      </trkpt>
      <trkpt lat="43.48316" lon="-1.57178">
        <ele>5.5</ele>
        <time>2021-09-05T07:52:58Z</time>
      </trkpt>
      <trkpt lat="43.48316" lon="-1.57178">
        <ele>5.5</ele>
        <time>2021-09-05T07:52:59Z</time>
      </trkpt>
      <trkpt lat="43.4832" lon="-1.5718">
        <ele>5.5</ele>
        <time>2021-09-05T07:53:00Z</time>
      </trkpt>
      <trkpt lat="43.48323" lon="-1.57181">
        <ele>5.5</ele>
        <time>2021-09-05T07:53:01Z</time>
      </trkpt>
      <trkpt lat="43.48327" lon="-1.57183">
        <ele>5.5</ele>
        <time>2021-09-05T07:53:02Z</time>
      </trkpt>
      <trkpt lat="43.4833" lon="-1.57185">
        <ele>5.5</ele>
        <time>2021-09-05T07:53:03Z</time>
      </trkpt>
      <trkpt lat="43.48328" lon="-1.57183">
        <ele>5.5</ele>
        <time>2021-09-05T07:53:04Z</time>
      </trkpt>
      <trkpt lat="43.48328" lon="-1.57183">
        <ele>5.5</ele>
        <time>2021-09-05T07:53:05Z</time>
      </trkpt>
      <trkpt lat="43.48328" lon="-1.57183">
        <ele>5.5</ele>
        <time>2021-09-05T07:53:06Z</time>
      </trkpt>
      <trkpt lat="43.4833" lon="-1.57181">
        <ele>5.5</ele>
        <time>2021-09-05T07:53:07Z</time>
      </trkpt>
      <trkpt lat="43.4833" lon="-1.57181">
        <ele>5.5</ele>
        <time>2021-09-05T07:53:08Z</time>
      </trkpt>
      <trkpt lat="43.48332" lon="-1.57182">
        <ele>5.5</ele>
        <time>2021-09-05T07:53:09Z</time>
      </trkpt>
      <trkpt lat="43.48332" lon="-1.57182">
        <ele>5.5</ele>
        <time>2021-09-05T07:53:10Z</time>
      </trkpt>
      <trkpt lat="43.48332" lon="-1.57182">
        <ele>5.5</ele>
        <time>2021-09-05T07:53:11Z</time>
      </trkpt>
      <trkpt lat="43.48332" lon="-1.57182">
        <ele>5.5</ele>
        <time>2021-09-05T07:53:12Z</time>
      </trkpt>
      <trkpt lat="43.48335" lon="-1.57181">
        <ele>5.5</ele>
        <time>2021-09-05T07:53:13Z</time>
      </trkpt>
      <trkpt lat="43.48335" lon="-1.57181">
        <ele>5.5</ele>
        <time>2021-09-05T07:53:14Z</time>
      </trkpt>
      <trkpt lat="43.48335" lon="-1.57181">
        <ele>5.5</ele>
        <time>2021-09-05T07:53:15Z</time>
      </trkpt>
      <trkpt lat="43.48335" lon="-1.57181">
        <ele>5.5</ele>
        <time>2021-09-05T07:53:16Z</time>
      </trkpt>
      <trkpt lat="43.48338" lon="-1.57182">
        <ele>5.5</ele>
        <time>2021-09-05T07:53:17Z</time>
      </trkpt>
      <trkpt lat="43.4834" lon="-1.57182">
        <ele>5.5</ele>
        <time>2021-09-05T07:53:18Z</time>
      </trkpt>
      <trkpt lat="43.48342" lon="-1.57181">
        <ele>5.5</ele>
        <time>2021-09-05T07:53:19Z</time>
      </trkpt>
      <trkpt lat="43.48345" lon="-1.57183">
        <ele>5.5</ele>
        <time>2021-09-05T07:53:20Z</time>
      </trkpt>
      <trkpt lat="43.48345" lon="-1.57183">
        <ele>5.5</ele>
        <time>2021-09-05T07:53:21Z</time>
      </trkpt>
      <trkpt lat="43.48348" lon="-1.57182">
        <ele>5.5</ele>
        <time>2021-09-05T07:53:22Z</time>
      </trkpt>
      <trkpt lat="43.48348" lon="-1.57182">
        <ele>5.5</ele>
        <time>2021-09-05T07:53:23Z</time>
      </trkpt>
      <trkpt lat="43.48348" lon="-1.57182">
        <ele>5.5</ele>
        <time>2021-09-05T07:53:24Z</time>
      </trkpt>
      <trkpt lat="43.48348" lon="-1.57182">
        <ele>5.5</ele>
        <time>2021-09-05T07:53:25Z</time>
      </trkpt>
      <trkpt lat="43.4835" lon="-1.57181">
        <ele>5.5</ele>
        <time>2021-09-05T07:53:26Z</time>
      </trkpt>
      <trkpt lat="43.4835" lon="-1.57181">
        <ele>5.5</ele>
        <time>2021-09-05T07:53:27Z</time>
      </trkpt>
      <trkpt lat="43.4835" lon="-1.57181">
        <ele>5.5</ele>
        <time>2021-09-05T07:53:28Z</time>
      </trkpt>
      <trkpt lat="43.4835" lon="-1.57181">
        <ele>5.5</ele>
        <time>2021-09-05T07:53:29Z</time>
      </trkpt>
      <trkpt lat="43.4835" lon="-1.57181">
        <ele>5.5</ele>
        <time>2021-09-05T07:53:30Z</time>
      </trkpt>
      <trkpt lat="43.4835" lon="-1.57181">
        <ele>5.5</ele>
        <time>2021-09-05T07:53:31Z</time>
      </trkpt>
      <trkpt lat="43.4835" lon="-1.57181">
        <ele>5.5</ele>
        <time>2021-09-05T07:53:32Z</time>
      </trkpt>
      <trkpt lat="43.48352" lon="-1.5718">
        <ele>5.5</ele>
        <time>2021-09-05T07:53:33Z</time>
      </trkpt>
      <trkpt lat="43.48353" lon="-1.5718">
        <ele>5.5</ele>
        <time>2021-09-05T07:53:34Z</time>
      </trkpt>
      <trkpt lat="43.48355" lon="-1.5718">
        <ele>5.5</ele>
        <time>2021-09-05T07:53:35Z</time>
      </trkpt>
      <trkpt lat="43.48355" lon="-1.5718">
        <ele>5.5</ele>
        <time>2021-09-05T07:53:36Z</time>
      </trkpt>
      <trkpt lat="43.48358" lon="-1.57177">
        <ele>5.5</ele>
        <time>2021-09-05T07:53:37Z</time>
      </trkpt>
      <trkpt lat="43.48358" lon="-1.57177">
        <ele>5.5</ele>
        <time>2021-09-05T07:53:38Z</time>
      </trkpt>
      <trkpt lat="43.48357" lon="-1.57174">
        <ele>5.5</ele>
        <time>2021-09-05T07:53:39Z</time>
      </trkpt>
      <trkpt lat="43.48357" lon="-1.57174">
        <ele>5.5</ele>
        <time>2021-09-05T07:53:40Z</time>
      </trkpt>
      <trkpt lat="43.48358" lon="-1.57171">
        <ele>5.5</ele>
        <time>2021-09-05T07:53:41Z</time>
      </trkpt>
      <trkpt lat="43.48358" lon="-1.57168">
        <ele>5.5</ele>
        <time>2021-09-05T07:53:42Z</time>
      </trkpt>
      <trkpt lat="43.48358" lon="-1.57168">
        <ele>5.5</ele>
        <time>2021-09-05T07:53:43Z</time>
      </trkpt>
      <trkpt lat="43.48358" lon="-1.57165">
        <ele>5.5</ele>
        <time>2021-09-05T07:53:44Z</time>
      </trkpt>
      <trkpt lat="43.48358" lon="-1.57165">
        <ele>5.5</ele>
        <time>2021-09-05T07:53:45Z</time>
      </trkpt>
      <trkpt lat="43.48358" lon="-1.57161">
        <ele>5.5</ele>
        <time>2021-09-05T07:53:46Z</time>
      </trkpt>
      <trkpt lat="43.48358" lon="-1.57161">
        <ele>5.5</ele>
        <time>2021-09-05T07:53:47Z</time>
      </trkpt>
      <trkpt lat="43.48357" lon="-1.57158">
        <ele>5.5</ele>
        <time>2021-09-05T07:53:48Z</time>
      </trkpt>
      <trkpt lat="43.48357" lon="-1.57158">
        <ele>5.5</ele>
        <time>2021-09-05T07:53:49Z</time>
      </trkpt>
      <trkpt lat="43.48357" lon="-1.57155">
        <ele>5.5</ele>
        <time>2021-09-05T07:53:50Z</time>
      </trkpt>
      <trkpt lat="43.48356" lon="-1.57153">
        <ele>5.5</ele>
        <time>2021-09-05T07:53:51Z</time>
      </trkpt>
      <trkpt lat="43.48356" lon="-1.57153">
        <ele>5.5</ele>
        <time>2021-09-05T07:53:52Z</time>
      </trkpt>
      <trkpt lat="43.48355" lon="-1.5715">
        <ele>5.5</ele>
        <time>2021-09-05T07:53:53Z</time>
      </trkpt>
      <trkpt lat="43.48355" lon="-1.5715">
        <ele>5.5</ele>
        <time>2021-09-05T07:53:54Z</time>
      </trkpt>
      <trkpt lat="43.48353" lon="-1.57148">
        <ele>5.5</ele>
        <time>2021-09-05T07:53:55Z</time>
      </trkpt>
      <trkpt lat="43.48351" lon="-1.57146">
        <ele>5.5</ele>
        <time>2021-09-05T07:53:56Z</time>
      </trkpt>
      <trkpt lat="43.48351" lon="-1.57146">
        <ele>5.5</ele>
        <time>2021-09-05T07:53:57Z</time>
      </trkpt>
      <trkpt lat="43.48349" lon="-1.57143">
        <ele>5.5</ele>
        <time>2021-09-05T07:53:58Z</time>
      </trkpt>
      <trkpt lat="43.48349" lon="-1.57143">
        <ele>5.5</ele>
        <time>2021-09-05T07:53:59Z</time>
      </trkpt>
      <trkpt lat="43.48347" lon="-1.5714">
        <ele>5.5</ele>
        <time>2021-09-05T07:54:00Z</time>
      </trkpt>
      <trkpt lat="43.48347" lon="-1.5714">
        <ele>5.5</ele>
        <time>2021-09-05T07:54:01Z</time>
      </trkpt>
      <trkpt lat="43.48347" lon="-1.57136">
        <ele>5.5</ele>
        <time>2021-09-05T07:54:02Z</time>
      </trkpt>
      <trkpt lat="43.48347" lon="-1.57136">
        <ele>5.5</ele>
        <time>2021-09-05T07:54:03Z</time>
      </trkpt>
      <trkpt lat="43.48347" lon="-1.57136">
        <ele>5.5</ele>
        <time>2021-09-05T07:54:04Z</time>
      </trkpt>
      <trkpt lat="43.48348" lon="-1.57133">
        <ele>5.5</ele>
        <time>2021-09-05T07:54:05Z</time>
      </trkpt>
      <trkpt lat="43.48348" lon="-1.57133">
        <ele>5.5</ele>
        <time>2021-09-05T07:54:06Z</time>
      </trkpt>
      <trkpt lat="43.48346" lon="-1.57131">
        <ele>5.5</ele>
        <time>2021-09-05T07:54:07Z</time>
      </trkpt>
      <trkpt lat="43.48346" lon="-1.57131">
        <ele>5.5</ele>
        <time>2021-09-05T07:54:08Z</time>
      </trkpt>
      <trkpt lat="43.48346" lon="-1.57128">
        <ele>5.5</ele>
        <time>2021-09-05T07:54:09Z</time>
      </trkpt>
      <trkpt lat="43.48346" lon="-1.57128">
        <ele>5.5</ele>
        <time>2021-09-05T07:54:10Z</time>
      </trkpt>
      <trkpt lat="43.48346" lon="-1.57126">
        <ele>5.5</ele>
        <time>2021-09-05T07:54:11Z</time>
      </trkpt>
      <trkpt lat="43.48346" lon="-1.57126">
        <ele>5.5</ele>
        <time>2021-09-05T07:54:12Z</time>
      </trkpt>
      <trkpt lat="43.48346" lon="-1.57126">
        <ele>5.5</ele>
        <time>2021-09-05T07:54:13Z</time>
      </trkpt>
      <trkpt lat="43.48346" lon="-1.57126">
        <ele>5.5</ele>
        <time>2021-09-05T07:54:14Z</time>
      </trkpt>
      <trkpt lat="43.48346" lon="-1.57126">
        <ele>5.5</ele>
        <time>2021-09-05T07:54:15Z</time>
      </trkpt>
      <trkpt lat="43.48346" lon="-1.57126">
        <ele>5.5</ele>
        <time>2021-09-05T07:54:16Z</time>
      </trkpt>
      <trkpt lat="43.48346" lon="-1.57126">
        <ele>5.5</ele>
        <time>2021-09-05T07:54:17Z</time>
      </trkpt>
      <trkpt lat="43.48348" lon="-1.57127">
        <ele>5.5</ele>
        <time>2021-09-05T07:54:18Z</time>
      </trkpt>
      <trkpt lat="43.48347" lon="-1.57125">
        <ele>5.5</ele>
        <time>2021-09-05T07:54:19Z</time>
      </trkpt>
      <trkpt lat="43.48347" lon="-1.57125">
        <ele>5.5</ele>
        <time>2021-09-05T07:54:20Z</time>
      </trkpt>
      <trkpt lat="43.48347" lon="-1.57125">
        <ele>5.5</ele>
        <time>2021-09-05T07:54:21Z</time>
      </trkpt>
      <trkpt lat="43.48347" lon="-1.57125">
        <ele>5.5</ele>
        <time>2021-09-05T07:54:22Z</time>
      </trkpt>
      <trkpt lat="43.48348" lon="-1.57122">
        <ele>5.5</ele>
        <time>2021-09-05T07:54:23Z</time>
      </trkpt>
      <trkpt lat="43.48348" lon="-1.57122">
        <ele>5.5</ele>
        <time>2021-09-05T07:54:24Z</time>
      </trkpt>
      <trkpt lat="43.48348" lon="-1.57122">
        <ele>5.5</ele>
        <time>2021-09-05T07:54:25Z</time>
      </trkpt>
      <trkpt lat="43.48348" lon="-1.57119">
        <ele>5.5</ele>
        <time>2021-09-05T07:54:26Z</time>
      </trkpt>
      <trkpt lat="43.48348" lon="-1.57119">
        <ele>5.5</ele>
        <time>2021-09-05T07:54:27Z</time>
      </trkpt>
      <trkpt lat="43.48348" lon="-1.57119">
        <ele>5.5</ele>
        <time>2021-09-05T07:54:28Z</time>
      </trkpt>
      <trkpt lat="43.48347" lon="-1.57116">
        <ele>5.5</ele>
        <time>2021-09-05T07:54:29Z</time>
      </trkpt>
      <trkpt lat="43.48347" lon="-1.57116">
        <ele>5.5</ele>
        <time>2021-09-05T07:54:30Z</time>
      </trkpt>
      <trkpt lat="43.48346" lon="-1.57113">
        <ele>5.5</ele>
        <time>2021-09-05T07:54:31Z</time>
      </trkpt>
      <trkpt lat="43.48346" lon="-1.57113">
        <ele>5.5</ele>
        <time>2021-09-05T07:54:32Z</time>
      </trkpt>
      <trkpt lat="43.48345" lon="-1.57109">
        <ele>5.5</ele>
        <time>2021-09-05T07:54:33Z</time>
      </trkpt>
      <trkpt lat="43.48345" lon="-1.57109">
        <ele>5.5</ele>
        <time>2021-09-05T07:54:34Z</time>
      </trkpt>
      <trkpt lat="43.48345" lon="-1.57109">
        <ele>5.5</ele>
        <time>2021-09-05T07:54:35Z</time>
      </trkpt>
      <trkpt lat="43.48345" lon="-1.57106">
        <ele>5.5</ele>
        <time>2021-09-05T07:54:36Z</time>
      </trkpt>
      <trkpt lat="43.48345" lon="-1.57106">
        <ele>5.5</ele>
        <time>2021-09-05T07:54:37Z</time>
      </trkpt>
      <trkpt lat="43.48344" lon="-1.57104">
        <ele>5.5</ele>
        <time>2021-09-05T07:54:38Z</time>
      </trkpt>
      <trkpt lat="43.48344" lon="-1.57102">
        <ele>5.5</ele>
        <time>2021-09-05T07:54:39Z</time>
      </trkpt>
      <trkpt lat="43.48342" lon="-1.571">
        <ele>5.5</ele>
        <time>2021-09-05T07:54:40Z</time>
      </trkpt>
      <trkpt lat="43.48342" lon="-1.571">
        <ele>5.5</ele>
        <time>2021-09-05T07:54:41Z</time>
      </trkpt>
      <trkpt lat="43.48344" lon="-1.57098">
        <ele>5.5</ele>
        <time>2021-09-05T07:54:42Z</time>
      </trkpt>
      <trkpt lat="43.48344" lon="-1.57098">
        <ele>5.5</ele>
        <time>2021-09-05T07:54:43Z</time>
      </trkpt>
      <trkpt lat="43.48344" lon="-1.57098">
        <ele>5.5</ele>
        <time>2021-09-05T07:54:44Z</time>
      </trkpt>
      <trkpt lat="43.48344" lon="-1.57098">
        <ele>5.5</ele>
        <time>2021-09-05T07:54:45Z</time>
      </trkpt>
      <trkpt lat="43.48344" lon="-1.57094">
        <ele>5.5</ele>
        <time>2021-09-05T07:54:46Z</time>
      </trkpt>
      <trkpt lat="43.48344" lon="-1.57094">
        <ele>5.5</ele>
        <time>2021-09-05T07:54:47Z</time>
      </trkpt>
      <trkpt lat="43.48342" lon="-1.57092">
        <ele>5.5</ele>
        <time>2021-09-05T07:54:48Z</time>
      </trkpt>
      <trkpt lat="43.48342" lon="-1.57092">
        <ele>5.5</ele>
        <time>2021-09-05T07:54:49Z</time>
      </trkpt>
      <trkpt lat="43.48342" lon="-1.57092">
        <ele>5.5</ele>
        <time>2021-09-05T07:54:50Z</time>
      </trkpt>
      <trkpt lat="43.48344" lon="-1.57087">
        <ele>5.5</ele>
        <time>2021-09-05T07:54:51Z</time>
      </trkpt>
      <trkpt lat="43.48344" lon="-1.57087">
        <ele>5.5</ele>
        <time>2021-09-05T07:54:52Z</time>
      </trkpt>
      <trkpt lat="43.48344" lon="-1.57084">
        <ele>5.5</ele>
        <time>2021-09-05T07:54:53Z</time>
      </trkpt>
      <trkpt lat="43.48344" lon="-1.57084">
        <ele>5.5</ele>
        <time>2021-09-05T07:54:54Z</time>
      </trkpt>
      <trkpt lat="43.48344" lon="-1.57084">
        <ele>5.5</ele>
        <time>2021-09-05T07:54:55Z</time>
      </trkpt>
      <trkpt lat="43.48344" lon="-1.57084">
        <ele>5.5</ele>
        <time>2021-09-05T07:54:56Z</time>
      </trkpt>
      <trkpt lat="43.48344" lon="-1.57084">
        <ele>5.5</ele>
        <time>2021-09-05T07:54:57Z</time>
      </trkpt>
      <trkpt lat="43.48344" lon="-1.57084">
        <ele>5.5</ele>
        <time>2021-09-05T07:54:58Z</time>
      </trkpt>
      <trkpt lat="43.48344" lon="-1.57084">
        <ele>5.5</ele>
        <time>2021-09-05T07:54:59Z</time>
      </trkpt>
      <trkpt lat="43.48344" lon="-1.57084">
        <ele>5.5</ele>
        <time>2021-09-05T07:55:00Z</time>
      </trkpt>
      <trkpt lat="43.48342" lon="-1.57077">
        <ele>5.5</ele>
        <time>2021-09-05T07:55:01Z</time>
      </trkpt>
      <trkpt lat="43.48342" lon="-1.57077">
        <ele>5.5</ele>
        <time>2021-09-05T07:55:02Z</time>
      </trkpt>
      <trkpt lat="43.48342" lon="-1.57077">
        <ele>5.5</ele>
        <time>2021-09-05T07:55:03Z</time>
      </trkpt>
      <trkpt lat="43.48341" lon="-1.57075">
        <ele>5.5</ele>
        <time>2021-09-05T07:55:04Z</time>
      </trkpt>
      <trkpt lat="43.48341" lon="-1.57075">
        <ele>5.5</ele>
        <time>2021-09-05T07:55:05Z</time>
      </trkpt>
      <trkpt lat="43.48338" lon="-1.57073">
        <ele>5.5</ele>
        <time>2021-09-05T07:55:06Z</time>
      </trkpt>
      <trkpt lat="43.48337" lon="-1.57071">
        <ele>5.5</ele>
        <time>2021-09-05T07:55:07Z</time>
      </trkpt>
      <trkpt lat="43.48334" lon="-1.57067">
        <ele>5.5</ele>
        <time>2021-09-05T07:55:08Z</time>
      </trkpt>
      <trkpt lat="43.48334" lon="-1.57067">
        <ele>5.5</ele>
        <time>2021-09-05T07:55:09Z</time>
      </trkpt>
      <trkpt lat="43.48334" lon="-1.57064">
        <ele>5.5</ele>
        <time>2021-09-05T07:55:10Z</time>
      </trkpt>
      <trkpt lat="43.48334" lon="-1.57064">
        <ele>5.5</ele>
        <time>2021-09-05T07:55:11Z</time>
      </trkpt>
      <trkpt lat="43.48334" lon="-1.57064">
        <ele>5.5</ele>
        <time>2021-09-05T07:55:12Z</time>
      </trkpt>
      <trkpt lat="43.48333" lon="-1.57061">
        <ele>5.5</ele>
        <time>2021-09-05T07:55:13Z</time>
      </trkpt>
      <trkpt lat="43.48333" lon="-1.57061">
        <ele>5.5</ele>
        <time>2021-09-05T07:55:14Z</time>
      </trkpt>
      <trkpt lat="43.48333" lon="-1.57061">
        <ele>5.5</ele>
        <time>2021-09-05T07:55:15Z</time>
      </trkpt>
      <trkpt lat="43.48333" lon="-1.57061">
        <ele>5.5</ele>
        <time>2021-09-05T07:55:16Z</time>
      </trkpt>
      <trkpt lat="43.48334" lon="-1.57057">
        <ele>5.5</ele>
        <time>2021-09-05T07:55:17Z</time>
      </trkpt>
      <trkpt lat="43.48334" lon="-1.57057">
        <ele>5.5</ele>
        <time>2021-09-05T07:55:18Z</time>
      </trkpt>
      <trkpt lat="43.48334" lon="-1.57053">
        <ele>5.5</ele>
        <time>2021-09-05T07:55:19Z</time>
      </trkpt>
      <trkpt lat="43.48334" lon="-1.57053">
        <ele>5.5</ele>
        <time>2021-09-05T07:55:20Z</time>
      </trkpt>
      <trkpt lat="43.48334" lon="-1.5705">
        <ele>5.5</ele>
        <time>2021-09-05T07:55:21Z</time>
      </trkpt>
      <trkpt lat="43.48334" lon="-1.5705">
        <ele>5.5</ele>
        <time>2021-09-05T07:55:22Z</time>
      </trkpt>
      <trkpt lat="43.4833" lon="-1.57042">
        <ele>5.5</ele>
        <time>2021-09-05T07:55:23Z</time>
      </trkpt>
      <trkpt lat="43.48328" lon="-1.5704">
        <ele>5.5</ele>
        <time>2021-09-05T07:55:24Z</time>
      </trkpt>
      <trkpt lat="43.48326" lon="-1.57037">
        <ele>5.5</ele>
        <time>2021-09-05T07:55:25Z</time>
      </trkpt>
      <trkpt lat="43.48326" lon="-1.57037">
        <ele>5.5</ele>
        <time>2021-09-05T07:55:26Z</time>
      </trkpt>
      <trkpt lat="43.48327" lon="-1.57037">
        <ele>5.5</ele>
        <time>2021-09-05T07:55:27Z</time>
      </trkpt>
      <trkpt lat="43.48328" lon="-1.57037">
        <ele>5.5</ele>
        <time>2021-09-05T07:55:28Z</time>
      </trkpt>
      <trkpt lat="43.48328" lon="-1.57038">
        <ele>5.5</ele>
        <time>2021-09-05T07:55:29Z</time>
      </trkpt>
      <trkpt lat="43.48329" lon="-1.57038">
        <ele>5.5</ele>
        <time>2021-09-05T07:55:30Z</time>
      </trkpt>
      <trkpt lat="43.48329" lon="-1.57038">
        <ele>5.5</ele>
        <time>2021-09-05T07:55:31Z</time>
      </trkpt>
      <trkpt lat="43.4833" lon="-1.57039">
        <ele>5.5</ele>
        <time>2021-09-05T07:55:32Z</time>
      </trkpt>
      <trkpt lat="43.4833" lon="-1.57039">
        <ele>5.5</ele>
        <time>2021-09-05T07:55:33Z</time>
      </trkpt>
      <trkpt lat="43.48331" lon="-1.57039">
        <ele>5.5</ele>
        <time>2021-09-05T07:55:34Z</time>
      </trkpt>
      <trkpt lat="43.48331" lon="-1.5704">
        <ele>5.5</ele>
        <time>2021-09-05T07:55:35Z</time>
      </trkpt>
      <trkpt lat="43.48334" lon="-1.57041">
        <ele>5.5</ele>
        <time>2021-09-05T07:55:36Z</time>
      </trkpt>
      <trkpt lat="43.48336" lon="-1.57041">
        <ele>5.5</ele>
        <time>2021-09-05T07:55:37Z</time>
      </trkpt>
      <trkpt lat="43.48336" lon="-1.57041">
        <ele>5.5</ele>
        <time>2021-09-05T07:55:38Z</time>
      </trkpt>
      <trkpt lat="43.48336" lon="-1.57041">
        <ele>5.5</ele>
        <time>2021-09-05T07:55:39Z</time>
      </trkpt>
      <trkpt lat="43.48338" lon="-1.57042">
        <ele>5.5</ele>
        <time>2021-09-05T07:55:40Z</time>
      </trkpt>
      <trkpt lat="43.48338" lon="-1.57042">
        <ele>5.5</ele>
        <time>2021-09-05T07:55:41Z</time>
      </trkpt>
      <trkpt lat="43.48339" lon="-1.57039">
        <ele>5.5</ele>
        <time>2021-09-05T07:55:42Z</time>
      </trkpt>
      <trkpt lat="43.48338" lon="-1.57035">
        <ele>5.5</ele>
        <time>2021-09-05T07:55:43Z</time>
      </trkpt>
      <trkpt lat="43.48337" lon="-1.57031">
        <ele>5.5</ele>
        <time>2021-09-05T07:55:44Z</time>
      </trkpt>
      <trkpt lat="43.48336" lon="-1.5703">
        <ele>5.5</ele>
        <time>2021-09-05T07:55:45Z</time>
      </trkpt>
      <trkpt lat="43.48336" lon="-1.5703">
        <ele>5.5</ele>
        <time>2021-09-05T07:55:46Z</time>
      </trkpt>
      <trkpt lat="43.48334" lon="-1.57028">
        <ele>5.5</ele>
        <time>2021-09-05T07:55:47Z</time>
      </trkpt>
      <trkpt lat="43.48334" lon="-1.57028">
        <ele>5.5</ele>
        <time>2021-09-05T07:55:48Z</time>
      </trkpt>
      <trkpt lat="43.48332" lon="-1.57025">
        <ele>5.5</ele>
        <time>2021-09-05T07:55:49Z</time>
      </trkpt>
      <trkpt lat="43.48332" lon="-1.57025">
        <ele>5.5</ele>
        <time>2021-09-05T07:55:50Z</time>
      </trkpt>
      <trkpt lat="43.48332" lon="-1.57025">
        <ele>5.5</ele>
        <time>2021-09-05T07:55:51Z</time>
      </trkpt>
      <trkpt lat="43.48331" lon="-1.57022">
        <ele>5.5</ele>
        <time>2021-09-05T07:55:52Z</time>
      </trkpt>
      <trkpt lat="43.48331" lon="-1.57022">
        <ele>5.5</ele>
        <time>2021-09-05T07:55:53Z</time>
      </trkpt>
      <trkpt lat="43.48331" lon="-1.57022">
        <ele>5.5</ele>
        <time>2021-09-05T07:55:54Z</time>
      </trkpt>
      <trkpt lat="43.48328" lon="-1.57019">
        <ele>5.5</ele>
        <time>2021-09-05T07:55:55Z</time>
      </trkpt>
      <trkpt lat="43.48328" lon="-1.57019">
        <ele>5.5</ele>
        <time>2021-09-05T07:55:56Z</time>
      </trkpt>
      <trkpt lat="43.48326" lon="-1.57021">
        <ele>5.5</ele>
        <time>2021-09-05T07:55:57Z</time>
      </trkpt>
      <trkpt lat="43.48326" lon="-1.57021">
        <ele>5.5</ele>
        <time>2021-09-05T07:55:58Z</time>
      </trkpt>
      <trkpt lat="43.48324" lon="-1.57015">
        <ele>5.5</ele>
        <time>2021-09-05T07:55:59Z</time>
      </trkpt>
      <trkpt lat="43.48324" lon="-1.57015">
        <ele>5.5</ele>
        <time>2021-09-05T07:56:00Z</time>
      </trkpt>
      <trkpt lat="43.48323" lon="-1.57012">
        <ele>5.5</ele>
        <time>2021-09-05T07:56:01Z</time>
      </trkpt>
      <trkpt lat="43.48322" lon="-1.57011">
        <ele>5.5</ele>
        <time>2021-09-05T07:56:02Z</time>
      </trkpt>
      <trkpt lat="43.48322" lon="-1.57011">
        <ele>5.5</ele>
        <time>2021-09-05T07:56:03Z</time>
      </trkpt>
      <trkpt lat="43.4832" lon="-1.57009">
        <ele>5.5</ele>
        <time>2021-09-05T07:56:04Z</time>
      </trkpt>
      <trkpt lat="43.4832" lon="-1.57009">
        <ele>5.5</ele>
        <time>2021-09-05T07:56:05Z</time>
      </trkpt>
      <trkpt lat="43.4832" lon="-1.57009">
        <ele>5.5</ele>
        <time>2021-09-05T07:56:06Z</time>
      </trkpt>
      <trkpt lat="43.48319" lon="-1.57004">
        <ele>5.5</ele>
        <time>2021-09-05T07:56:07Z</time>
      </trkpt>
      <trkpt lat="43.48319" lon="-1.57002">
        <ele>5.5</ele>
        <time>2021-09-05T07:56:08Z</time>
      </trkpt>
      <trkpt lat="43.48319" lon="-1.57002">
        <ele>5.5</ele>
        <time>2021-09-05T07:56:09Z</time>
      </trkpt>
      <trkpt lat="43.48319" lon="-1.57002">
        <ele>5.5</ele>
        <time>2021-09-05T07:56:10Z</time>
      </trkpt>
      <trkpt lat="43.48318" lon="-1.56999">
        <ele>5.5</ele>
        <time>2021-09-05T07:56:11Z</time>
      </trkpt>
      <trkpt lat="43.48318" lon="-1.56999">
        <ele>5.5</ele>
        <time>2021-09-05T07:56:12Z</time>
      </trkpt>
      <trkpt lat="43.48317" lon="-1.56996">
        <ele>5.5</ele>
        <time>2021-09-05T07:56:13Z</time>
      </trkpt>
      <trkpt lat="43.48317" lon="-1.56996">
        <ele>5.5</ele>
        <time>2021-09-05T07:56:14Z</time>
      </trkpt>
      <trkpt lat="43.48317" lon="-1.56996">
        <ele>5.5</ele>
        <time>2021-09-05T07:56:15Z</time>
      </trkpt>
      <trkpt lat="43.48315" lon="-1.56992">
        <ele>5.5</ele>
        <time>2021-09-05T07:56:16Z</time>
      </trkpt>
      <trkpt lat="43.48315" lon="-1.56992">
        <ele>5.5</ele>
        <time>2021-09-05T07:56:17Z</time>
      </trkpt>
      <trkpt lat="43.48314" lon="-1.56989">
        <ele>5.5</ele>
        <time>2021-09-05T07:56:18Z</time>
      </trkpt>
      <trkpt lat="43.4832" lon="-1.56989">
        <ele>5.5</ele>
        <time>2021-09-05T07:56:19Z</time>
      </trkpt>
      <trkpt lat="43.48324" lon="-1.56987">
        <ele>5.5</ele>
        <time>2021-09-05T07:56:20Z</time>
      </trkpt>
      <trkpt lat="43.48313" lon="-1.56981">
        <ele>5.5</ele>
        <time>2021-09-05T07:56:21Z</time>
      </trkpt>
      <trkpt lat="43.4831" lon="-1.56978">
        <ele>5.5</ele>
        <time>2021-09-05T07:56:22Z</time>
      </trkpt>
      <trkpt lat="43.48308" lon="-1.56975">
        <ele>5.5</ele>
        <time>2021-09-05T07:56:23Z</time>
      </trkpt>
      <trkpt lat="43.48308" lon="-1.56975">
        <ele>5.5</ele>
        <time>2021-09-05T07:56:24Z</time>
      </trkpt>
      <trkpt lat="43.48307" lon="-1.56972">
        <ele>5.5</ele>
        <time>2021-09-05T07:56:25Z</time>
      </trkpt>
      <trkpt lat="43.48307" lon="-1.56972">
        <ele>5.5</ele>
        <time>2021-09-05T07:56:26Z</time>
      </trkpt>
      <trkpt lat="43.48306" lon="-1.5697">
        <ele>5.5</ele>
        <time>2021-09-05T07:56:27Z</time>
      </trkpt>
      <trkpt lat="43.48306" lon="-1.5697">
        <ele>5.5</ele>
        <time>2021-09-05T07:56:28Z</time>
      </trkpt>
      <trkpt lat="43.48306" lon="-1.5697">
        <ele>5.5</ele>
        <time>2021-09-05T07:56:29Z</time>
      </trkpt>
      <trkpt lat="43.48306" lon="-1.5697">
        <ele>5.5</ele>
        <time>2021-09-05T07:56:30Z</time>
      </trkpt>
      <trkpt lat="43.48306" lon="-1.56966">
        <ele>5.5</ele>
        <time>2021-09-05T07:56:31Z</time>
      </trkpt>
      <trkpt lat="43.48306" lon="-1.56966">
        <ele>5.5</ele>
        <time>2021-09-05T07:56:32Z</time>
      </trkpt>
      <trkpt lat="43.48306" lon="-1.56966">
        <ele>5.5</ele>
        <time>2021-09-05T07:56:33Z</time>
      </trkpt>
      <trkpt lat="43.4831" lon="-1.56964">
        <ele>5.5</ele>
        <time>2021-09-05T07:56:34Z</time>
      </trkpt>
      <trkpt lat="43.4831" lon="-1.56964">
        <ele>5.5</ele>
        <time>2021-09-05T07:56:35Z</time>
      </trkpt>
      <trkpt lat="43.48312" lon="-1.56962">
        <ele>5.5</ele>
        <time>2021-09-05T07:56:36Z</time>
      </trkpt>
      <trkpt lat="43.48312" lon="-1.56962">
        <ele>5.5</ele>
        <time>2021-09-05T07:56:37Z</time>
      </trkpt>
      <trkpt lat="43.48312" lon="-1.56962">
        <ele>5.5</ele>
        <time>2021-09-05T07:56:38Z</time>
      </trkpt>
      <trkpt lat="43.48312" lon="-1.56959">
        <ele>5.5</ele>
        <time>2021-09-05T07:56:39Z</time>
      </trkpt>
      <trkpt lat="43.48312" lon="-1.56959">
        <ele>5.5</ele>
        <time>2021-09-05T07:56:40Z</time>
      </trkpt>
      <trkpt lat="43.48312" lon="-1.56957">
        <ele>5.5</ele>
        <time>2021-09-05T07:56:41Z</time>
      </trkpt>
      <trkpt lat="43.48312" lon="-1.56957">
        <ele>5.5</ele>
        <time>2021-09-05T07:56:42Z</time>
      </trkpt>
      <trkpt lat="43.48312" lon="-1.56957">
        <ele>5.5</ele>
        <time>2021-09-05T07:56:43Z</time>
      </trkpt>
      <trkpt lat="43.4831" lon="-1.56957">
        <ele>5.5</ele>
        <time>2021-09-05T07:56:44Z</time>
      </trkpt>
      <trkpt lat="43.4831" lon="-1.56957">
        <ele>5.5</ele>
        <time>2021-09-05T07:56:45Z</time>
      </trkpt>
      <trkpt lat="43.4831" lon="-1.56957">
        <ele>5.5</ele>
        <time>2021-09-05T07:56:46Z</time>
      </trkpt>
      <trkpt lat="43.4831" lon="-1.56957">
        <ele>5.5</ele>
        <time>2021-09-05T07:56:47Z</time>
      </trkpt>
      <trkpt lat="43.4831" lon="-1.56957">
        <ele>5.5</ele>
        <time>2021-09-05T07:56:48Z</time>
      </trkpt>
      <trkpt lat="43.4831" lon="-1.56957">
        <ele>5.5</ele>
        <time>2021-09-05T07:56:49Z</time>
      </trkpt>
      <trkpt lat="43.48309" lon="-1.56955">
        <ele>5.5</ele>
        <time>2021-09-05T07:56:50Z</time>
      </trkpt>
      <trkpt lat="43.48309" lon="-1.56955">
        <ele>5.5</ele>
        <time>2021-09-05T07:56:51Z</time>
      </trkpt>
      <trkpt lat="43.48308" lon="-1.56952">
        <ele>5.5</ele>
        <time>2021-09-05T07:56:52Z</time>
      </trkpt>
      <trkpt lat="43.48308" lon="-1.56952">
        <ele>5.5</ele>
        <time>2021-09-05T07:56:53Z</time>
      </trkpt>
      <trkpt lat="43.48308" lon="-1.56952">
        <ele>5.5</ele>
        <time>2021-09-05T07:56:54Z</time>
      </trkpt>
      <trkpt lat="43.48308" lon="-1.56948">
        <ele>5.5</ele>
        <time>2021-09-05T07:56:55Z</time>
      </trkpt>
      <trkpt lat="43.48308" lon="-1.56948">
        <ele>5.5</ele>
        <time>2021-09-05T07:56:56Z</time>
      </trkpt>
      <trkpt lat="43.48307" lon="-1.56945">
        <ele>5.5</ele>
        <time>2021-09-05T07:56:57Z</time>
      </trkpt>
      <trkpt lat="43.48307" lon="-1.56945">
        <ele>5.5</ele>
        <time>2021-09-05T07:56:58Z</time>
      </trkpt>
      <trkpt lat="43.48305" lon="-1.56943">
        <ele>5.5</ele>
        <time>2021-09-05T07:56:59Z</time>
      </trkpt>
      <trkpt lat="43.48309" lon="-1.56942">
        <ele>5.5</ele>
        <time>2021-09-05T07:57:00Z</time>
      </trkpt>
      <trkpt lat="43.48311" lon="-1.5694">
        <ele>5.5</ele>
        <time>2021-09-05T07:57:01Z</time>
      </trkpt>
      <trkpt lat="43.48311" lon="-1.5694">
        <ele>5.5</ele>
        <time>2021-09-05T07:57:02Z</time>
      </trkpt>
      <trkpt lat="43.48311" lon="-1.5694">
        <ele>5.5</ele>
        <time>2021-09-05T07:57:03Z</time>
      </trkpt>
      <trkpt lat="43.48311" lon="-1.5694">
        <ele>5.5</ele>
        <time>2021-09-05T07:57:04Z</time>
      </trkpt>
      <trkpt lat="43.48314" lon="-1.56941">
        <ele>5.5</ele>
        <time>2021-09-05T07:57:05Z</time>
      </trkpt>
      <trkpt lat="43.48314" lon="-1.56941">
        <ele>5.5</ele>
        <time>2021-09-05T07:57:06Z</time>
      </trkpt>
      <trkpt lat="43.48314" lon="-1.56941">
        <ele>5.5</ele>
        <time>2021-09-05T07:57:07Z</time>
      </trkpt>
      <trkpt lat="43.48311" lon="-1.56939">
        <ele>5.5</ele>
        <time>2021-09-05T07:57:08Z</time>
      </trkpt>
      <trkpt lat="43.48311" lon="-1.56939">
        <ele>5.5</ele>
        <time>2021-09-05T07:57:09Z</time>
      </trkpt>
      <trkpt lat="43.48308" lon="-1.56936">
        <ele>5.5</ele>
        <time>2021-09-05T07:57:10Z</time>
      </trkpt>
      <trkpt lat="43.48308" lon="-1.56936">
        <ele>5.5</ele>
        <time>2021-09-05T07:57:11Z</time>
      </trkpt>
      <trkpt lat="43.48305" lon="-1.56935">
        <ele>5.5</ele>
        <time>2021-09-05T07:57:12Z</time>
      </trkpt>
      <trkpt lat="43.48306" lon="-1.56932">
        <ele>5.5</ele>
        <time>2021-09-05T07:57:13Z</time>
      </trkpt>
      <trkpt lat="43.48306" lon="-1.56932">
        <ele>5.5</ele>
        <time>2021-09-05T07:57:14Z</time>
      </trkpt>
      <trkpt lat="43.48304" lon="-1.5693">
        <ele>5.5</ele>
        <time>2021-09-05T07:57:15Z</time>
      </trkpt>
      <trkpt lat="43.48304" lon="-1.5693">
        <ele>5.5</ele>
        <time>2021-09-05T07:57:16Z</time>
      </trkpt>
      <trkpt lat="43.48302" lon="-1.5693">
        <ele>5.5</ele>
        <time>2021-09-05T07:57:17Z</time>
      </trkpt>
      <trkpt lat="43.48302" lon="-1.5693">
        <ele>5.5</ele>
        <time>2021-09-05T07:57:18Z</time>
      </trkpt>
      <trkpt lat="43.48301" lon="-1.56927">
        <ele>5.5</ele>
        <time>2021-09-05T07:57:19Z</time>
      </trkpt>
      <trkpt lat="43.48301" lon="-1.56927">
        <ele>5.5</ele>
        <time>2021-09-05T07:57:20Z</time>
      </trkpt>
      <trkpt lat="43.483" lon="-1.56924">
        <ele>5.4</ele>
        <time>2021-09-05T07:57:21Z</time>
      </trkpt>
      <trkpt lat="43.483" lon="-1.56924">
        <ele>5.4</ele>
        <time>2021-09-05T07:57:22Z</time>
      </trkpt>
      <trkpt lat="43.483" lon="-1.56921">
        <ele>5.4</ele>
        <time>2021-09-05T07:57:23Z</time>
      </trkpt>
      <trkpt lat="43.483" lon="-1.56921">
        <ele>5.4</ele>
        <time>2021-09-05T07:57:24Z</time>
      </trkpt>
      <trkpt lat="43.483" lon="-1.56918">
        <ele>5.4</ele>
        <time>2021-09-05T07:57:25Z</time>
      </trkpt>
      <trkpt lat="43.483" lon="-1.56918">
        <ele>5.4</ele>
        <time>2021-09-05T07:57:26Z</time>
      </trkpt>
      <trkpt lat="43.48298" lon="-1.56916">
        <ele>5.4</ele>
        <time>2021-09-05T07:57:27Z</time>
      </trkpt>
      <trkpt lat="43.48298" lon="-1.56916">
        <ele>5.4</ele>
        <time>2021-09-05T07:57:28Z</time>
      </trkpt>
      <trkpt lat="43.48298" lon="-1.56913">
        <ele>5.4</ele>
        <time>2021-09-05T07:57:29Z</time>
      </trkpt>
      <trkpt lat="43.48298" lon="-1.56913">
        <ele>5.4</ele>
        <time>2021-09-05T07:57:30Z</time>
      </trkpt>
      <trkpt lat="43.48297" lon="-1.56908">
        <ele>5.4</ele>
        <time>2021-09-05T07:57:31Z</time>
      </trkpt>
      <trkpt lat="43.48297" lon="-1.56908">
        <ele>5.4</ele>
        <time>2021-09-05T07:57:32Z</time>
      </trkpt>
      <trkpt lat="43.48296" lon="-1.56905">
        <ele>5.5</ele>
        <time>2021-09-05T07:57:33Z</time>
      </trkpt>
      <trkpt lat="43.48296" lon="-1.56905">
        <ele>5.5</ele>
        <time>2021-09-05T07:57:34Z</time>
      </trkpt>
      <trkpt lat="43.48296" lon="-1.56905">
        <ele>5.5</ele>
        <time>2021-09-05T07:57:35Z</time>
      </trkpt>
      <trkpt lat="43.48295" lon="-1.56903">
        <ele>5.6</ele>
        <time>2021-09-05T07:57:36Z</time>
      </trkpt>
      <trkpt lat="43.48295" lon="-1.56903">
        <ele>5.6</ele>
        <time>2021-09-05T07:57:37Z</time>
      </trkpt>
      <trkpt lat="43.48295" lon="-1.56903">
        <ele>5.6</ele>
        <time>2021-09-05T07:57:38Z</time>
      </trkpt>
      <trkpt lat="43.48295" lon="-1.56899">
        <ele>5.6</ele>
        <time>2021-09-05T07:57:39Z</time>
      </trkpt>
      <trkpt lat="43.48295" lon="-1.56899">
        <ele>5.6</ele>
        <time>2021-09-05T07:57:40Z</time>
      </trkpt>
      <trkpt lat="43.48295" lon="-1.56899">
        <ele>5.6</ele>
        <time>2021-09-05T07:57:41Z</time>
      </trkpt>
      <trkpt lat="43.48294" lon="-1.56897">
        <ele>5.6</ele>
        <time>2021-09-05T07:57:42Z</time>
      </trkpt>
      <trkpt lat="43.48294" lon="-1.56897">
        <ele>5.6</ele>
        <time>2021-09-05T07:57:43Z</time>
      </trkpt>
      <trkpt lat="43.48294" lon="-1.56897">
        <ele>5.6</ele>
        <time>2021-09-05T07:57:44Z</time>
      </trkpt>
      <trkpt lat="43.48294" lon="-1.56897">
        <ele>5.6</ele>
        <time>2021-09-05T07:57:45Z</time>
      </trkpt>
      <trkpt lat="43.48294" lon="-1.56897">
        <ele>5.6</ele>
        <time>2021-09-05T07:57:46Z</time>
      </trkpt>
      <trkpt lat="43.48293" lon="-1.56893">
        <ele>5.6</ele>
        <time>2021-09-05T07:57:47Z</time>
      </trkpt>
      <trkpt lat="43.48293" lon="-1.5689">
        <ele>5.6</ele>
        <time>2021-09-05T07:57:48Z</time>
      </trkpt>
      <trkpt lat="43.48293" lon="-1.5689">
        <ele>5.6</ele>
        <time>2021-09-05T07:57:49Z</time>
      </trkpt>
      <trkpt lat="43.48293" lon="-1.56888">
        <ele>5.6</ele>
        <time>2021-09-05T07:57:50Z</time>
      </trkpt>
      <trkpt lat="43.48293" lon="-1.56888">
        <ele>5.6</ele>
        <time>2021-09-05T07:57:51Z</time>
      </trkpt>
      <trkpt lat="43.48293" lon="-1.56888">
        <ele>5.6</ele>
        <time>2021-09-05T07:57:52Z</time>
      </trkpt>
      <trkpt lat="43.4829" lon="-1.56884">
        <ele>5.5</ele>
        <time>2021-09-05T07:57:53Z</time>
      </trkpt>
      <trkpt lat="43.4829" lon="-1.56884">
        <ele>5.5</ele>
        <time>2021-09-05T07:57:54Z</time>
      </trkpt>
      <trkpt lat="43.48288" lon="-1.56883">
        <ele>5.3</ele>
        <time>2021-09-05T07:57:55Z</time>
      </trkpt>
      <trkpt lat="43.48288" lon="-1.56883">
        <ele>5.3</ele>
        <time>2021-09-05T07:57:56Z</time>
      </trkpt>
      <trkpt lat="43.48287" lon="-1.5688">
        <ele>5.3</ele>
        <time>2021-09-05T07:57:57Z</time>
      </trkpt>
      <trkpt lat="43.48287" lon="-1.5688">
        <ele>5.3</ele>
        <time>2021-09-05T07:57:58Z</time>
      </trkpt>
      <trkpt lat="43.48287" lon="-1.56877">
        <ele>5.3</ele>
        <time>2021-09-05T07:57:59Z</time>
      </trkpt>
      <trkpt lat="43.48287" lon="-1.56877">
        <ele>5.3</ele>
        <time>2021-09-05T07:58:00Z</time>
      </trkpt>
      <trkpt lat="43.48287" lon="-1.56874">
        <ele>5.2</ele>
        <time>2021-09-05T07:58:01Z</time>
      </trkpt>
      <trkpt lat="43.48287" lon="-1.56874">
        <ele>5.2</ele>
        <time>2021-09-05T07:58:02Z</time>
      </trkpt>
      <trkpt lat="43.48287" lon="-1.56874">
        <ele>5.2</ele>
        <time>2021-09-05T07:58:03Z</time>
      </trkpt>
      <trkpt lat="43.48287" lon="-1.56874">
        <ele>5.2</ele>
        <time>2021-09-05T07:58:04Z</time>
      </trkpt>
      <trkpt lat="43.48287" lon="-1.56874">
        <ele>5.2</ele>
        <time>2021-09-05T07:58:05Z</time>
      </trkpt>
      <trkpt lat="43.48287" lon="-1.56872">
        <ele>5.2</ele>
        <time>2021-09-05T07:58:06Z</time>
      </trkpt>
      <trkpt lat="43.48288" lon="-1.56871">
        <ele>5.2</ele>
        <time>2021-09-05T07:58:07Z</time>
      </trkpt>
      <trkpt lat="43.48288" lon="-1.56869">
        <ele>5.2</ele>
        <time>2021-09-05T07:58:08Z</time>
      </trkpt>
      <trkpt lat="43.48289" lon="-1.56867">
        <ele>5.1</ele>
        <time>2021-09-05T07:58:09Z</time>
      </trkpt>
      <trkpt lat="43.48289" lon="-1.56867">
        <ele>5.1</ele>
        <time>2021-09-05T07:58:10Z</time>
      </trkpt>
      <trkpt lat="43.48292" lon="-1.56867">
        <ele>5</ele>
        <time>2021-09-05T07:58:11Z</time>
      </trkpt>
      <trkpt lat="43.48292" lon="-1.56867">
        <ele>5</ele>
        <time>2021-09-05T07:58:12Z</time>
      </trkpt>
      <trkpt lat="43.48293" lon="-1.56867">
        <ele>5</ele>
        <time>2021-09-05T07:58:13Z</time>
      </trkpt>
      <trkpt lat="43.48293" lon="-1.56867">
        <ele>5</ele>
        <time>2021-09-05T07:58:14Z</time>
      </trkpt>
      <trkpt lat="43.48292" lon="-1.56865">
        <ele>5</ele>
        <time>2021-09-05T07:58:15Z</time>
      </trkpt>
      <trkpt lat="43.48292" lon="-1.56865">
        <ele>5</ele>
        <time>2021-09-05T07:58:16Z</time>
      </trkpt>
      <trkpt lat="43.48291" lon="-1.56862">
        <ele>5</ele>
        <time>2021-09-05T07:58:17Z</time>
      </trkpt>
      <trkpt lat="43.48291" lon="-1.56862">
        <ele>5</ele>
        <time>2021-09-05T07:58:18Z</time>
      </trkpt>
      <trkpt lat="43.4829" lon="-1.5686">
        <ele>5</ele>
        <time>2021-09-05T07:58:19Z</time>
      </trkpt>
      <trkpt lat="43.48288" lon="-1.56858">
        <ele>5</ele>
        <time>2021-09-05T07:58:20Z</time>
      </trkpt>
      <trkpt lat="43.48288" lon="-1.56858">
        <ele>5</ele>
        <time>2021-09-05T07:58:21Z</time>
      </trkpt>
      <trkpt lat="43.48287" lon="-1.56856">
        <ele>5.4</ele>
        <time>2021-09-05T07:58:22Z</time>
      </trkpt>
      <trkpt lat="43.48287" lon="-1.56856">
        <ele>5.4</ele>
        <time>2021-09-05T07:58:23Z</time>
      </trkpt>
      <trkpt lat="43.48287" lon="-1.56856">
        <ele>5.4</ele>
        <time>2021-09-05T07:58:24Z</time>
      </trkpt>
      <trkpt lat="43.48287" lon="-1.56856">
        <ele>5.4</ele>
        <time>2021-09-05T07:58:25Z</time>
      </trkpt>
      <trkpt lat="43.48284" lon="-1.56855">
        <ele>6.3</ele>
        <time>2021-09-05T07:58:26Z</time>
      </trkpt>
      <trkpt lat="43.48284" lon="-1.56855">
        <ele>6.3</ele>
        <time>2021-09-05T07:58:27Z</time>
      </trkpt>
      <trkpt lat="43.48279" lon="-1.5685">
        <ele>7.4</ele>
        <time>2021-09-05T07:58:28Z</time>
      </trkpt>
      <trkpt lat="43.48278" lon="-1.56849">
        <ele>8.1</ele>
        <time>2021-09-05T07:58:29Z</time>
      </trkpt>
      <trkpt lat="43.48277" lon="-1.56848">
        <ele>8.1</ele>
        <time>2021-09-05T07:58:30Z</time>
      </trkpt>
      <trkpt lat="43.48278" lon="-1.56846">
        <ele>8.7</ele>
        <time>2021-09-05T07:58:31Z</time>
      </trkpt>
      <trkpt lat="43.48276" lon="-1.56847">
        <ele>8.7</ele>
        <time>2021-09-05T07:58:32Z</time>
      </trkpt>
      <trkpt lat="43.48276" lon="-1.56847">
        <ele>8.7</ele>
        <time>2021-09-05T07:58:33Z</time>
      </trkpt>
      <trkpt lat="43.48278" lon="-1.56848">
        <ele>8.1</ele>
        <time>2021-09-05T07:58:34Z</time>
      </trkpt>
      <trkpt lat="43.48278" lon="-1.56844">
        <ele>8.7</ele>
        <time>2021-09-05T07:58:35Z</time>
      </trkpt>
      <trkpt lat="43.48279" lon="-1.56841">
        <ele>9.3</ele>
        <time>2021-09-05T07:58:36Z</time>
      </trkpt>
      <trkpt lat="43.4828" lon="-1.56838">
        <ele>9.3</ele>
        <time>2021-09-05T07:58:37Z</time>
      </trkpt>
      <trkpt lat="43.48281" lon="-1.56836">
        <ele>9.3</ele>
        <time>2021-09-05T07:58:38Z</time>
      </trkpt>
      <trkpt lat="43.48281" lon="-1.56836">
        <ele>9.3</ele>
        <time>2021-09-05T07:58:39Z</time>
      </trkpt>
      <trkpt lat="43.48281" lon="-1.56832">
        <ele>9.9</ele>
        <time>2021-09-05T07:58:40Z</time>
      </trkpt>
      <trkpt lat="43.48281" lon="-1.56832">
        <ele>9.9</ele>
        <time>2021-09-05T07:58:41Z</time>
      </trkpt>
      <trkpt lat="43.48281" lon="-1.56832">
        <ele>9.9</ele>
        <time>2021-09-05T07:58:42Z</time>
      </trkpt>
      <trkpt lat="43.48281" lon="-1.56832">
        <ele>9.9</ele>
        <time>2021-09-05T07:58:43Z</time>
      </trkpt>
      <trkpt lat="43.48278" lon="-1.5683">
        <ele>10.8</ele>
        <time>2021-09-05T07:58:44Z</time>
      </trkpt>
      <trkpt lat="43.48276" lon="-1.56828">
        <ele>10.8</ele>
        <time>2021-09-05T07:58:45Z</time>
      </trkpt>
      <trkpt lat="43.48276" lon="-1.56828">
        <ele>10.8</ele>
        <time>2021-09-05T07:58:46Z</time>
      </trkpt>
      <trkpt lat="43.48274" lon="-1.56827">
        <ele>11.1</ele>
        <time>2021-09-05T07:58:47Z</time>
      </trkpt>
      <trkpt lat="43.48274" lon="-1.56827">
        <ele>11.1</ele>
        <time>2021-09-05T07:58:48Z</time>
      </trkpt>
      <trkpt lat="43.48274" lon="-1.56824">
        <ele>11.4</ele>
        <time>2021-09-05T07:58:49Z</time>
      </trkpt>
      <trkpt lat="43.48274" lon="-1.56824">
        <ele>11.4</ele>
        <time>2021-09-05T07:58:50Z</time>
      </trkpt>
      <trkpt lat="43.48274" lon="-1.56819">
        <ele>11.6</ele>
        <time>2021-09-05T07:58:51Z</time>
      </trkpt>
      <trkpt lat="43.48274" lon="-1.56819">
        <ele>11.6</ele>
        <time>2021-09-05T07:58:52Z</time>
      </trkpt>
      <trkpt lat="43.48274" lon="-1.56814">
        <ele>11.9</ele>
        <time>2021-09-05T07:58:53Z</time>
      </trkpt>
      <trkpt lat="43.48275" lon="-1.56812">
        <ele>12.1</ele>
        <time>2021-09-05T07:58:54Z</time>
      </trkpt>
      <trkpt lat="43.48275" lon="-1.56809">
        <ele>12.1</ele>
        <time>2021-09-05T07:58:55Z</time>
      </trkpt>
      <trkpt lat="43.48275" lon="-1.56809">
        <ele>12.1</ele>
        <time>2021-09-05T07:58:56Z</time>
      </trkpt>
      <trkpt lat="43.48274" lon="-1.56802">
        <ele>12.6</ele>
        <time>2021-09-05T07:58:57Z</time>
      </trkpt>
      <trkpt lat="43.48274" lon="-1.56801">
        <ele>12.6</ele>
        <time>2021-09-05T07:58:58Z</time>
      </trkpt>
      <trkpt lat="43.48274" lon="-1.56798">
        <ele>12.9</ele>
        <time>2021-09-05T07:58:59Z</time>
      </trkpt>
      <trkpt lat="43.48274" lon="-1.56798">
        <ele>12.9</ele>
        <time>2021-09-05T07:59:00Z</time>
      </trkpt>
      <trkpt lat="43.48273" lon="-1.56794">
        <ele>13.2</ele>
        <time>2021-09-05T07:59:01Z</time>
      </trkpt>
      <trkpt lat="43.48273" lon="-1.56794">
        <ele>13.2</ele>
        <time>2021-09-05T07:59:02Z</time>
      </trkpt>
      <trkpt lat="43.48272" lon="-1.56789">
        <ele>13.6</ele>
        <time>2021-09-05T07:59:03Z</time>
      </trkpt>
      <trkpt lat="43.48272" lon="-1.56789">
        <ele>13.6</ele>
        <time>2021-09-05T07:59:04Z</time>
      </trkpt>
      <trkpt lat="43.48271" lon="-1.56786">
        <ele>14.1</ele>
        <time>2021-09-05T07:59:05Z</time>
      </trkpt>
      <trkpt lat="43.48271" lon="-1.56786">
        <ele>14.1</ele>
        <time>2021-09-05T07:59:06Z</time>
      </trkpt>
      <trkpt lat="43.4827" lon="-1.56781">
        <ele>14.5</ele>
        <time>2021-09-05T07:59:07Z</time>
      </trkpt>
      <trkpt lat="43.4827" lon="-1.56781">
        <ele>14.5</ele>
        <time>2021-09-05T07:59:08Z</time>
      </trkpt>
      <trkpt lat="43.48269" lon="-1.56778">
        <ele>15</ele>
        <time>2021-09-05T07:59:09Z</time>
      </trkpt>
      <trkpt lat="43.48269" lon="-1.56774">
        <ele>15</ele>
        <time>2021-09-05T07:59:11Z</time>
      </trkpt>
      <trkpt lat="43.48269" lon="-1.56774">
        <ele>15</ele>
        <time>2021-09-05T07:59:12Z</time>
      </trkpt>
      <trkpt lat="43.48268" lon="-1.5677">
        <ele>15.5</ele>
        <time>2021-09-05T07:59:13Z</time>
      </trkpt>
      <trkpt lat="43.48268" lon="-1.5677">
        <ele>15.5</ele>
        <time>2021-09-05T07:59:14Z</time>
      </trkpt>
      <trkpt lat="43.48268" lon="-1.56766">
        <ele>15.5</ele>
        <time>2021-09-05T07:59:15Z</time>
      </trkpt>
      <trkpt lat="43.48268" lon="-1.56766">
        <ele>15.5</ele>
        <time>2021-09-05T07:59:16Z</time>
      </trkpt>
      <trkpt lat="43.48268" lon="-1.56766">
        <ele>15.5</ele>
        <time>2021-09-05T07:59:17Z</time>
      </trkpt>
      <trkpt lat="43.48269" lon="-1.56763">
        <ele>15.5</ele>
        <time>2021-09-05T07:59:18Z</time>
      </trkpt>
      <trkpt lat="43.48269" lon="-1.56763">
        <ele>15.5</ele>
        <time>2021-09-05T07:59:19Z</time>
      </trkpt>
      <trkpt lat="43.48269" lon="-1.56763">
        <ele>15.5</ele>
        <time>2021-09-05T07:59:20Z</time>
      </trkpt>
      <trkpt lat="43.48269" lon="-1.56761">
        <ele>15.5</ele>
        <time>2021-09-05T07:59:21Z</time>
      </trkpt>
      <trkpt lat="43.48269" lon="-1.56761">
        <ele>15.5</ele>
        <time>2021-09-05T07:59:22Z</time>
      </trkpt>
      <trkpt lat="43.48269" lon="-1.56758">
        <ele>15.4</ele>
        <time>2021-09-05T07:59:23Z</time>
      </trkpt>
      <trkpt lat="43.48267" lon="-1.56756">
        <ele>15.4</ele>
        <time>2021-09-05T07:59:24Z</time>
      </trkpt>
      <trkpt lat="43.48266" lon="-1.56754">
        <ele>15.4</ele>
        <time>2021-09-05T07:59:25Z</time>
      </trkpt>
      <trkpt lat="43.48264" lon="-1.56752">
        <ele>15.4</ele>
        <time>2021-09-05T07:59:26Z</time>
      </trkpt>
      <trkpt lat="43.48263" lon="-1.56749">
        <ele>15.4</ele>
        <time>2021-09-05T07:59:27Z</time>
      </trkpt>
      <trkpt lat="43.48261" lon="-1.56745">
        <ele>15.4</ele>
        <time>2021-09-05T07:59:28Z</time>
      </trkpt>
      <trkpt lat="43.48259" lon="-1.56741">
        <ele>15.4</ele>
        <time>2021-09-05T07:59:29Z</time>
      </trkpt>
      <trkpt lat="43.48258" lon="-1.56739">
        <ele>15.4</ele>
        <time>2021-09-05T07:59:30Z</time>
      </trkpt>
      <trkpt lat="43.48257" lon="-1.56736">
        <ele>15.3</ele>
        <time>2021-09-05T07:59:31Z</time>
      </trkpt>
      <trkpt lat="43.48255" lon="-1.56734">
        <ele>15.3</ele>
        <time>2021-09-05T07:59:32Z</time>
      </trkpt>
      <trkpt lat="43.48255" lon="-1.56734">
        <ele>15.3</ele>
        <time>2021-09-05T07:59:33Z</time>
      </trkpt>
      <trkpt lat="43.48253" lon="-1.56732">
        <ele>15.3</ele>
        <time>2021-09-05T07:59:34Z</time>
      </trkpt>
      <trkpt lat="43.48253" lon="-1.56732">
        <ele>15.3</ele>
        <time>2021-09-05T07:59:35Z</time>
      </trkpt>
      <trkpt lat="43.48251" lon="-1.56729">
        <ele>15.3</ele>
        <time>2021-09-05T07:59:36Z</time>
      </trkpt>
      <trkpt lat="43.48251" lon="-1.56729">
        <ele>15.3</ele>
        <time>2021-09-05T07:59:37Z</time>
      </trkpt>
      <trkpt lat="43.48251" lon="-1.56726">
        <ele>15.3</ele>
        <time>2021-09-05T07:59:38Z</time>
      </trkpt>
      <trkpt lat="43.48251" lon="-1.56726">
        <ele>15.3</ele>
        <time>2021-09-05T07:59:39Z</time>
      </trkpt>
      <trkpt lat="43.4825" lon="-1.56722">
        <ele>15.3</ele>
        <time>2021-09-05T07:59:40Z</time>
      </trkpt>
      <trkpt lat="43.4825" lon="-1.56722">
        <ele>15.3</ele>
        <time>2021-09-05T07:59:41Z</time>
      </trkpt>
      <trkpt lat="43.4825" lon="-1.56719">
        <ele>15.3</ele>
        <time>2021-09-05T07:59:42Z</time>
      </trkpt>
      <trkpt lat="43.4825" lon="-1.56719">
        <ele>15.3</ele>
        <time>2021-09-05T07:59:43Z</time>
      </trkpt>
      <trkpt lat="43.48249" lon="-1.56716">
        <ele>15.3</ele>
        <time>2021-09-05T07:59:44Z</time>
      </trkpt>
      <trkpt lat="43.48249" lon="-1.56716">
        <ele>15.3</ele>
        <time>2021-09-05T07:59:45Z</time>
      </trkpt>
      <trkpt lat="43.48249" lon="-1.56716">
        <ele>15.3</ele>
        <time>2021-09-05T07:59:46Z</time>
      </trkpt>
      <trkpt lat="43.48246" lon="-1.56714">
        <ele>15.4</ele>
        <time>2021-09-05T07:59:47Z</time>
      </trkpt>
      <trkpt lat="43.48246" lon="-1.56714">
        <ele>15.4</ele>
        <time>2021-09-05T07:59:48Z</time>
      </trkpt>
      <trkpt lat="43.48243" lon="-1.56713">
        <ele>15.4</ele>
        <time>2021-09-05T07:59:49Z</time>
      </trkpt>
      <trkpt lat="43.48243" lon="-1.56713">
        <ele>15.4</ele>
        <time>2021-09-05T07:59:50Z</time>
      </trkpt>
      <trkpt lat="43.48241" lon="-1.56711">
        <ele>15.4</ele>
        <time>2021-09-05T07:59:51Z</time>
      </trkpt>
      <trkpt lat="43.48241" lon="-1.56711">
        <ele>15.4</ele>
        <time>2021-09-05T07:59:52Z</time>
      </trkpt>
      <trkpt lat="43.48241" lon="-1.56711">
        <ele>15.4</ele>
        <time>2021-09-05T07:59:53Z</time>
      </trkpt>
      <trkpt lat="43.48241" lon="-1.56711">
        <ele>15.4</ele>
        <time>2021-09-05T07:59:54Z</time>
      </trkpt>
      <trkpt lat="43.48244" lon="-1.5671">
        <ele>15.4</ele>
        <time>2021-09-05T07:59:55Z</time>
      </trkpt>
      <trkpt lat="43.48246" lon="-1.56711">
        <ele>15.4</ele>
        <time>2021-09-05T07:59:56Z</time>
      </trkpt>
      <trkpt lat="43.48248" lon="-1.56713">
        <ele>15.4</ele>
        <time>2021-09-05T07:59:57Z</time>
      </trkpt>
      <trkpt lat="43.4825" lon="-1.56715">
        <ele>15.3</ele>
        <time>2021-09-05T07:59:58Z</time>
      </trkpt>
      <trkpt lat="43.48252" lon="-1.56718">
        <ele>15.3</ele>
        <time>2021-09-05T07:59:59Z</time>
      </trkpt>
      <trkpt lat="43.48256" lon="-1.56724">
        <ele>15.3</ele>
        <time>2021-09-05T08:00:00Z</time>
      </trkpt>
      <trkpt lat="43.48257" lon="-1.56727">
        <ele>15.3</ele>
        <time>2021-09-05T08:00:01Z</time>
      </trkpt>
      <trkpt lat="43.48258" lon="-1.56729">
        <ele>15.3</ele>
        <time>2021-09-05T08:00:02Z</time>
      </trkpt>
      <trkpt lat="43.4826" lon="-1.56733">
        <ele>15.3</ele>
        <time>2021-09-05T08:00:03Z</time>
      </trkpt>
      <trkpt lat="43.48262" lon="-1.56737">
        <ele>15.4</ele>
        <time>2021-09-05T08:00:04Z</time>
      </trkpt>
      <trkpt lat="43.48263" lon="-1.56741">
        <ele>15.4</ele>
        <time>2021-09-05T08:00:05Z</time>
      </trkpt>
      <trkpt lat="43.48264" lon="-1.56746">
        <ele>15.4</ele>
        <time>2021-09-05T08:00:06Z</time>
      </trkpt>
      <trkpt lat="43.48267" lon="-1.5675">
        <ele>15.4</ele>
        <time>2021-09-05T08:00:07Z</time>
      </trkpt>
      <trkpt lat="43.48269" lon="-1.56754">
        <ele>15.4</ele>
        <time>2021-09-05T08:00:08Z</time>
      </trkpt>
      <trkpt lat="43.48272" lon="-1.5676">
        <ele>15.5</ele>
        <time>2021-09-05T08:00:09Z</time>
      </trkpt>
      <trkpt lat="43.48273" lon="-1.56762">
        <ele>15.5</ele>
        <time>2021-09-05T08:00:10Z</time>
      </trkpt>
      <trkpt lat="43.48275" lon="-1.56766">
        <ele>15.6</ele>
        <time>2021-09-05T08:00:11Z</time>
      </trkpt>
      <trkpt lat="43.48278" lon="-1.5677">
        <ele>15.6</ele>
        <time>2021-09-05T08:00:12Z</time>
      </trkpt>
      <trkpt lat="43.48279" lon="-1.56774">
        <ele>15.6</ele>
        <time>2021-09-05T08:00:13Z</time>
      </trkpt>
      <trkpt lat="43.4828" lon="-1.56778">
        <ele>15.6</ele>
        <time>2021-09-05T08:00:14Z</time>
      </trkpt>
      <trkpt lat="43.48282" lon="-1.56783">
        <ele>15.6</ele>
        <time>2021-09-05T08:00:15Z</time>
      </trkpt>
      <trkpt lat="43.48284" lon="-1.56787">
        <ele>15.6</ele>
        <time>2021-09-05T08:00:16Z</time>
      </trkpt>
      <trkpt lat="43.48286" lon="-1.56791">
        <ele>15.6</ele>
        <time>2021-09-05T08:00:17Z</time>
      </trkpt>
      <trkpt lat="43.48288" lon="-1.56795">
        <ele>15.6</ele>
        <time>2021-09-05T08:00:18Z</time>
      </trkpt>
      <trkpt lat="43.4829" lon="-1.56799">
        <ele>15.6</ele>
        <time>2021-09-05T08:00:19Z</time>
      </trkpt>
      <trkpt lat="43.48292" lon="-1.56803">
        <ele>15.6</ele>
        <time>2021-09-05T08:00:20Z</time>
      </trkpt>
      <trkpt lat="43.48295" lon="-1.56806">
        <ele>15.7</ele>
        <time>2021-09-05T08:00:21Z</time>
      </trkpt>
      <trkpt lat="43.48298" lon="-1.56808">
        <ele>15.7</ele>
        <time>2021-09-05T08:00:22Z</time>
      </trkpt>
      <trkpt lat="43.48301" lon="-1.56811">
        <ele>15.7</ele>
        <time>2021-09-05T08:00:23Z</time>
      </trkpt>
      <trkpt lat="43.48304" lon="-1.56813">
        <ele>15.7</ele>
        <time>2021-09-05T08:00:24Z</time>
      </trkpt>
      <trkpt lat="43.48308" lon="-1.56815">
        <ele>15.7</ele>
        <time>2021-09-05T08:00:25Z</time>
      </trkpt>
      <trkpt lat="43.48311" lon="-1.56817">
        <ele>15.7</ele>
        <time>2021-09-05T08:00:26Z</time>
      </trkpt>
      <trkpt lat="43.48315" lon="-1.56819">
        <ele>15.8</ele>
        <time>2021-09-05T08:00:27Z</time>
      </trkpt>
      <trkpt lat="43.48317" lon="-1.56821">
        <ele>15.8</ele>
        <time>2021-09-05T08:00:28Z</time>
      </trkpt>
      <trkpt lat="43.4832" lon="-1.56823">
        <ele>15.8</ele>
        <time>2021-09-05T08:00:29Z</time>
      </trkpt>
      <trkpt lat="43.48324" lon="-1.56824">
        <ele>15.8</ele>
        <time>2021-09-05T08:00:30Z</time>
      </trkpt>
      <trkpt lat="43.48327" lon="-1.56826">
        <ele>15.9</ele>
        <time>2021-09-05T08:00:31Z</time>
      </trkpt>
      <trkpt lat="43.48331" lon="-1.56827">
        <ele>15.9</ele>
        <time>2021-09-05T08:00:32Z</time>
      </trkpt>
      <trkpt lat="43.48334" lon="-1.56829">
        <ele>15.9</ele>
        <time>2021-09-05T08:00:33Z</time>
      </trkpt>
      <trkpt lat="43.48339" lon="-1.56829">
        <ele>16</ele>
        <time>2021-09-05T08:00:34Z</time>
      </trkpt>
      <trkpt lat="43.48342" lon="-1.56829">
        <ele>16</ele>
        <time>2021-09-05T08:00:35Z</time>
      </trkpt>
      <trkpt lat="43.48346" lon="-1.56828">
        <ele>16</ele>
        <time>2021-09-05T08:00:36Z</time>
      </trkpt>
      <trkpt lat="43.48349" lon="-1.56826">
        <ele>16.1</ele>
        <time>2021-09-05T08:00:37Z</time>
      </trkpt>
      <trkpt lat="43.48352" lon="-1.56824">
        <ele>16.1</ele>
        <time>2021-09-05T08:00:38Z</time>
      </trkpt>
      <trkpt lat="43.48357" lon="-1.56821">
        <ele>16.2</ele>
        <time>2021-09-05T08:00:39Z</time>
      </trkpt>
      <trkpt lat="43.4836" lon="-1.56819">
        <ele>16.2</ele>
        <time>2021-09-05T08:00:40Z</time>
      </trkpt>
      <trkpt lat="43.48364" lon="-1.56816">
        <ele>16.3</ele>
        <time>2021-09-05T08:00:41Z</time>
      </trkpt>
      <trkpt lat="43.48366" lon="-1.56813">
        <ele>16.3</ele>
        <time>2021-09-05T08:00:42Z</time>
      </trkpt>
      <trkpt lat="43.48369" lon="-1.56809">
        <ele>16.4</ele>
        <time>2021-09-05T08:00:43Z</time>
      </trkpt>
      <trkpt lat="43.48372" lon="-1.56806">
        <ele>16.4</ele>
        <time>2021-09-05T08:00:44Z</time>
      </trkpt>
      <trkpt lat="43.48374" lon="-1.56803">
        <ele>16.4</ele>
        <time>2021-09-05T08:00:45Z</time>
      </trkpt>
      <trkpt lat="43.48377" lon="-1.568">
        <ele>16.8</ele>
        <time>2021-09-05T08:00:46Z</time>
      </trkpt>
      <trkpt lat="43.48379" lon="-1.56797">
        <ele>16.9</ele>
        <time>2021-09-05T08:00:47Z</time>
      </trkpt>
      <trkpt lat="43.48381" lon="-1.56793">
        <ele>17</ele>
        <time>2021-09-05T08:00:48Z</time>
      </trkpt>
      <trkpt lat="43.48382" lon="-1.56791">
        <ele>17.1</ele>
        <time>2021-09-05T08:00:49Z</time>
      </trkpt>
      <trkpt lat="43.48382" lon="-1.56788">
        <ele>17.2</ele>
        <time>2021-09-05T08:00:50Z</time>
      </trkpt>
      <trkpt lat="43.48382" lon="-1.56788">
        <ele>17.2</ele>
        <time>2021-09-05T08:00:51Z</time>
      </trkpt>
      <trkpt lat="43.48383" lon="-1.56784">
        <ele>17.8</ele>
        <time>2021-09-05T08:00:52Z</time>
      </trkpt>
      <trkpt lat="43.48383" lon="-1.56784">
        <ele>17.8</ele>
        <time>2021-09-05T08:00:53Z</time>
      </trkpt>
      <trkpt lat="43.48383" lon="-1.5678">
        <ele>18.9</ele>
        <time>2021-09-05T08:00:54Z</time>
      </trkpt>
      <trkpt lat="43.48383" lon="-1.5678">
        <ele>18.9</ele>
        <time>2021-09-05T08:00:55Z</time>
      </trkpt>
      <trkpt lat="43.48382" lon="-1.56778">
        <ele>19.8</ele>
        <time>2021-09-05T08:00:56Z</time>
      </trkpt>
      <trkpt lat="43.48382" lon="-1.56778">
        <ele>19.8</ele>
        <time>2021-09-05T08:00:57Z</time>
      </trkpt>
      <trkpt lat="43.48382" lon="-1.56778">
        <ele>19.8</ele>
        <time>2021-09-05T08:00:58Z</time>
      </trkpt>
      <trkpt lat="43.48381" lon="-1.56774">
        <ele>20.8</ele>
        <time>2021-09-05T08:00:59Z</time>
      </trkpt>
      <trkpt lat="43.48381" lon="-1.56774">
        <ele>20.8</ele>
        <time>2021-09-05T08:01:00Z</time>
      </trkpt>
      <trkpt lat="43.48381" lon="-1.56771">
        <ele>21.7</ele>
        <time>2021-09-05T08:01:01Z</time>
      </trkpt>
      <trkpt lat="43.48381" lon="-1.56771">
        <ele>21.7</ele>
        <time>2021-09-05T08:01:02Z</time>
      </trkpt>
      <trkpt lat="43.48383" lon="-1.56767">
        <ele>22.5</ele>
        <time>2021-09-05T08:01:03Z</time>
      </trkpt>
      <trkpt lat="43.48383" lon="-1.56767">
        <ele>22.5</ele>
        <time>2021-09-05T08:01:04Z</time>
      </trkpt>
      <trkpt lat="43.48385" lon="-1.56762">
        <ele>23.2</ele>
        <time>2021-09-05T08:01:05Z</time>
      </trkpt>
      <trkpt lat="43.48385" lon="-1.56762">
        <ele>23.2</ele>
        <time>2021-09-05T08:01:06Z</time>
      </trkpt>
      <trkpt lat="43.48386" lon="-1.56758">
        <ele>23.6</ele>
        <time>2021-09-05T08:01:07Z</time>
      </trkpt>
      <trkpt lat="43.48387" lon="-1.56755">
        <ele>24</ele>
        <time>2021-09-05T08:01:08Z</time>
      </trkpt>
      <trkpt lat="43.48387" lon="-1.56755">
        <ele>24</ele>
        <time>2021-09-05T08:01:09Z</time>
      </trkpt>
      <trkpt lat="43.48389" lon="-1.56748">
        <ele>24.4</ele>
        <time>2021-09-05T08:01:10Z</time>
      </trkpt>
      <trkpt lat="43.4839" lon="-1.56746">
        <ele>24.5</ele>
        <time>2021-09-05T08:01:11Z</time>
      </trkpt>
      <trkpt lat="43.48391" lon="-1.56743">
        <ele>24.6</ele>
        <time>2021-09-05T08:01:12Z</time>
      </trkpt>
      <trkpt lat="43.48391" lon="-1.56739">
        <ele>24.8</ele>
        <time>2021-09-05T08:01:13Z</time>
      </trkpt>
      <trkpt lat="43.48391" lon="-1.56736">
        <ele>24.9</ele>
        <time>2021-09-05T08:01:14Z</time>
      </trkpt>
      <trkpt lat="43.48391" lon="-1.5673">
        <ele>25.1</ele>
        <time>2021-09-05T08:01:15Z</time>
      </trkpt>
      <trkpt lat="43.48391" lon="-1.56726">
        <ele>25.2</ele>
        <time>2021-09-05T08:01:16Z</time>
      </trkpt>
      <trkpt lat="43.48391" lon="-1.56722">
        <ele>25.3</ele>
        <time>2021-09-05T08:01:17Z</time>
      </trkpt>
      <trkpt lat="43.48392" lon="-1.56718">
        <ele>25.5</ele>
        <time>2021-09-05T08:01:18Z</time>
      </trkpt>
      <trkpt lat="43.48393" lon="-1.56714">
        <ele>25.6</ele>
        <time>2021-09-05T08:01:19Z</time>
      </trkpt>
      <trkpt lat="43.48393" lon="-1.5671">
        <ele>25.8</ele>
        <time>2021-09-05T08:01:20Z</time>
      </trkpt>
      <trkpt lat="43.48394" lon="-1.56706">
        <ele>25.9</ele>
        <time>2021-09-05T08:01:21Z</time>
      </trkpt>
      <trkpt lat="43.48395" lon="-1.56702">
        <ele>25.7</ele>
        <time>2021-09-05T08:01:22Z</time>
      </trkpt>
      <trkpt lat="43.48396" lon="-1.56698">
        <ele>25.4</ele>
        <time>2021-09-05T08:01:23Z</time>
      </trkpt>
      <trkpt lat="43.48396" lon="-1.56695">
        <ele>25.2</ele>
        <time>2021-09-05T08:01:24Z</time>
      </trkpt>
      <trkpt lat="43.48396" lon="-1.56691">
        <ele>24.8</ele>
        <time>2021-09-05T08:01:25Z</time>
      </trkpt>
      <trkpt lat="43.48397" lon="-1.56688">
        <ele>24.4</ele>
        <time>2021-09-05T08:01:26Z</time>
      </trkpt>
      <trkpt lat="43.48398" lon="-1.56684">
        <ele>24</ele>
        <time>2021-09-05T08:01:27Z</time>
      </trkpt>
      <trkpt lat="43.48399" lon="-1.5668">
        <ele>23.3</ele>
        <time>2021-09-05T08:01:28Z</time>
      </trkpt>
      <trkpt lat="43.484" lon="-1.56674">
        <ele>22.6</ele>
        <time>2021-09-05T08:01:29Z</time>
      </trkpt>
      <trkpt lat="43.484" lon="-1.56669">
        <ele>21.9</ele>
        <time>2021-09-05T08:01:30Z</time>
      </trkpt>
      <trkpt lat="43.484" lon="-1.56669">
        <ele>21.9</ele>
        <time>2021-09-05T08:01:31Z</time>
      </trkpt>
      <trkpt lat="43.484" lon="-1.56656">
        <ele>21.2</ele>
        <time>2021-09-05T08:01:32Z</time>
      </trkpt>
      <trkpt lat="43.484" lon="-1.56654">
        <ele>21.2</ele>
        <time>2021-09-05T08:01:33Z</time>
      </trkpt>
      <trkpt lat="43.48401" lon="-1.56649">
        <ele>21.4</ele>
        <time>2021-09-05T08:01:34Z</time>
      </trkpt>
      <trkpt lat="43.48401" lon="-1.56645">
        <ele>21.6</ele>
        <time>2021-09-05T08:01:35Z</time>
      </trkpt>
      <trkpt lat="43.48401" lon="-1.56642">
        <ele>21.8</ele>
        <time>2021-09-05T08:01:36Z</time>
      </trkpt>
      <trkpt lat="43.48401" lon="-1.56639">
        <ele>22</ele>
        <time>2021-09-05T08:01:37Z</time>
      </trkpt>
      <trkpt lat="43.484" lon="-1.56636">
        <ele>22.1</ele>
        <time>2021-09-05T08:01:38Z</time>
      </trkpt>
      <trkpt lat="43.48398" lon="-1.56634">
        <ele>22.4</ele>
        <time>2021-09-05T08:01:39Z</time>
      </trkpt>
      <trkpt lat="43.48396" lon="-1.56634">
        <ele>22.7</ele>
        <time>2021-09-05T08:01:40Z</time>
      </trkpt>
      <trkpt lat="43.48394" lon="-1.56635">
        <ele>23</ele>
        <time>2021-09-05T08:01:41Z</time>
      </trkpt>
      <trkpt lat="43.48392" lon="-1.56637">
        <ele>23.3</ele>
        <time>2021-09-05T08:01:42Z</time>
      </trkpt>
      <trkpt lat="43.48391" lon="-1.5664">
        <ele>23.6</ele>
        <time>2021-09-05T08:01:43Z</time>
      </trkpt>
      <trkpt lat="43.48389" lon="-1.56642">
        <ele>24</ele>
        <time>2021-09-05T08:01:44Z</time>
      </trkpt>
      <trkpt lat="43.48388" lon="-1.56645">
        <ele>24.4</ele>
        <time>2021-09-05T08:01:45Z</time>
      </trkpt>
      <trkpt lat="43.48386" lon="-1.56648">
        <ele>24.8</ele>
        <time>2021-09-05T08:01:46Z</time>
      </trkpt>
      <trkpt lat="43.48385" lon="-1.5665">
        <ele>25.1</ele>
        <time>2021-09-05T08:01:47Z</time>
      </trkpt>
      <trkpt lat="43.48385" lon="-1.56652">
        <ele>25.5</ele>
        <time>2021-09-05T08:01:48Z</time>
      </trkpt>
      <trkpt lat="43.48385" lon="-1.56652">
        <ele>25.5</ele>
        <time>2021-09-05T08:01:49Z</time>
      </trkpt>
      <trkpt lat="43.48379" lon="-1.56654">
        <ele>27.7</ele>
        <time>2021-09-05T08:01:50Z</time>
      </trkpt>
      <trkpt lat="43.48377" lon="-1.56655">
        <ele>27.7</ele>
        <time>2021-09-05T08:01:51Z</time>
      </trkpt>
      <trkpt lat="43.48374" lon="-1.56657">
        <ele>27.8</ele>
        <time>2021-09-05T08:01:52Z</time>
      </trkpt>
      <trkpt lat="43.48372" lon="-1.5666">
        <ele>27.9</ele>
        <time>2021-09-05T08:01:53Z</time>
      </trkpt>
      <trkpt lat="43.4837" lon="-1.56663">
        <ele>28</ele>
        <time>2021-09-05T08:01:54Z</time>
      </trkpt>
      <trkpt lat="43.48368" lon="-1.56666">
        <ele>28.1</ele>
        <time>2021-09-05T08:01:55Z</time>
      </trkpt>
      <trkpt lat="43.48366" lon="-1.5667">
        <ele>28.2</ele>
        <time>2021-09-05T08:01:56Z</time>
      </trkpt>
      <trkpt lat="43.48364" lon="-1.56673">
        <ele>28.2</ele>
        <time>2021-09-05T08:01:57Z</time>
      </trkpt>
      <trkpt lat="43.48362" lon="-1.56677">
        <ele>28.3</ele>
        <time>2021-09-05T08:01:58Z</time>
      </trkpt>
      <trkpt lat="43.4836" lon="-1.5668">
        <ele>28.4</ele>
        <time>2021-09-05T08:01:59Z</time>
      </trkpt>
      <trkpt lat="43.48358" lon="-1.56684">
        <ele>28.4</ele>
        <time>2021-09-05T08:02:00Z</time>
      </trkpt>
      <trkpt lat="43.48357" lon="-1.56687">
        <ele>28.5</ele>
        <time>2021-09-05T08:02:01Z</time>
      </trkpt>
      <trkpt lat="43.48355" lon="-1.56691">
        <ele>28.5</ele>
        <time>2021-09-05T08:02:02Z</time>
      </trkpt>
      <trkpt lat="43.48353" lon="-1.56694">
        <ele>28.5</ele>
        <time>2021-09-05T08:02:03Z</time>
      </trkpt>
      <trkpt lat="43.48351" lon="-1.56697">
        <ele>28.5</ele>
        <time>2021-09-05T08:02:04Z</time>
      </trkpt>
      <trkpt lat="43.48349" lon="-1.567">
        <ele>28.6</ele>
        <time>2021-09-05T08:02:05Z</time>
      </trkpt>
      <trkpt lat="43.48346" lon="-1.56703">
        <ele>28.6</ele>
        <time>2021-09-05T08:02:06Z</time>
      </trkpt>
      <trkpt lat="43.48344" lon="-1.56705">
        <ele>28.6</ele>
        <time>2021-09-05T08:02:07Z</time>
      </trkpt>
      <trkpt lat="43.48341" lon="-1.56708">
        <ele>28.6</ele>
        <time>2021-09-05T08:02:08Z</time>
      </trkpt>
      <trkpt lat="43.48339" lon="-1.5671">
        <ele>28.6</ele>
        <time>2021-09-05T08:02:09Z</time>
      </trkpt>
      <trkpt lat="43.48336" lon="-1.56711">
        <ele>28.5</ele>
        <time>2021-09-05T08:02:10Z</time>
      </trkpt>
      <trkpt lat="43.48333" lon="-1.56713">
        <ele>28.4</ele>
        <time>2021-09-05T08:02:11Z</time>
      </trkpt>
      <trkpt lat="43.4833" lon="-1.56713">
        <ele>28.3</ele>
        <time>2021-09-05T08:02:12Z</time>
      </trkpt>
      <trkpt lat="43.48326" lon="-1.56713">
        <ele>28.2</ele>
        <time>2021-09-05T08:02:13Z</time>
      </trkpt>
      <trkpt lat="43.48323" lon="-1.56712">
        <ele>28</ele>
        <time>2021-09-05T08:02:14Z</time>
      </trkpt>
      <trkpt lat="43.48319" lon="-1.56711">
        <ele>27.9</ele>
        <time>2021-09-05T08:02:15Z</time>
      </trkpt>
      <trkpt lat="43.48316" lon="-1.56709">
        <ele>27.7</ele>
        <time>2021-09-05T08:02:16Z</time>
      </trkpt>
      <trkpt lat="43.48313" lon="-1.56707">
        <ele>27.4</ele>
        <time>2021-09-05T08:02:17Z</time>
      </trkpt>
      <trkpt lat="43.48309" lon="-1.56705">
        <ele>27.1</ele>
        <time>2021-09-05T08:02:18Z</time>
      </trkpt>
      <trkpt lat="43.48306" lon="-1.56703">
        <ele>26.8</ele>
        <time>2021-09-05T08:02:19Z</time>
      </trkpt>
      <trkpt lat="43.48303" lon="-1.56702">
        <ele>26.4</ele>
        <time>2021-09-05T08:02:20Z</time>
      </trkpt>
      <trkpt lat="43.483" lon="-1.567">
        <ele>26.1</ele>
        <time>2021-09-05T08:02:21Z</time>
      </trkpt>
      <trkpt lat="43.48296" lon="-1.56698">
        <ele>25.7</ele>
        <time>2021-09-05T08:02:22Z</time>
      </trkpt>
      <trkpt lat="43.48293" lon="-1.56697">
        <ele>25.2</ele>
        <time>2021-09-05T08:02:23Z</time>
      </trkpt>
      <trkpt lat="43.48288" lon="-1.56697">
        <ele>24.7</ele>
        <time>2021-09-05T08:02:24Z</time>
      </trkpt>
      <trkpt lat="43.48284" lon="-1.56696">
        <ele>24.6</ele>
        <time>2021-09-05T08:02:25Z</time>
      </trkpt>
      <trkpt lat="43.4828" lon="-1.56696">
        <ele>24</ele>
        <time>2021-09-05T08:02:26Z</time>
      </trkpt>
      <trkpt lat="43.48277" lon="-1.56696">
        <ele>23.5</ele>
        <time>2021-09-05T08:02:27Z</time>
      </trkpt>
      <trkpt lat="43.48273" lon="-1.56695">
        <ele>22.9</ele>
        <time>2021-09-05T08:02:28Z</time>
      </trkpt>
      <trkpt lat="43.48269" lon="-1.56694">
        <ele>22.2</ele>
        <time>2021-09-05T08:02:29Z</time>
      </trkpt>
      <trkpt lat="43.48264" lon="-1.56693">
        <ele>21.5</ele>
        <time>2021-09-05T08:02:30Z</time>
      </trkpt>
      <trkpt lat="43.4826" lon="-1.56692">
        <ele>20.8</ele>
        <time>2021-09-05T08:02:31Z</time>
      </trkpt>
      <trkpt lat="43.48255" lon="-1.56691">
        <ele>20.1</ele>
        <time>2021-09-05T08:02:32Z</time>
      </trkpt>
      <trkpt lat="43.48251" lon="-1.5669">
        <ele>19.6</ele>
        <time>2021-09-05T08:02:33Z</time>
      </trkpt>
      <trkpt lat="43.48247" lon="-1.56689">
        <ele>18.9</ele>
        <time>2021-09-05T08:02:34Z</time>
      </trkpt>
      <trkpt lat="43.48242" lon="-1.56689">
        <ele>18.3</ele>
        <time>2021-09-05T08:02:35Z</time>
      </trkpt>
      <trkpt lat="43.48237" lon="-1.56689">
        <ele>17.7</ele>
        <time>2021-09-05T08:02:36Z</time>
      </trkpt>
      <trkpt lat="43.48231" lon="-1.56689">
        <ele>17.1</ele>
        <time>2021-09-05T08:02:37Z</time>
      </trkpt>
      <trkpt lat="43.48226" lon="-1.56691">
        <ele>16.7</ele>
        <time>2021-09-05T08:02:38Z</time>
      </trkpt>
      <trkpt lat="43.48223" lon="-1.56694">
        <ele>16.4</ele>
        <time>2021-09-05T08:02:39Z</time>
      </trkpt>
      <trkpt lat="43.48219" lon="-1.567">
        <ele>16.2</ele>
        <time>2021-09-05T08:02:40Z</time>
      </trkpt>
      <trkpt lat="43.48217" lon="-1.56706">
        <ele>16</ele>
        <time>2021-09-05T08:02:41Z</time>
      </trkpt>
      <trkpt lat="43.48214" lon="-1.56712">
        <ele>15.8</ele>
        <time>2021-09-05T08:02:42Z</time>
      </trkpt>
      <trkpt lat="43.48213" lon="-1.56716">
        <ele>15.7</ele>
        <time>2021-09-05T08:02:43Z</time>
      </trkpt>
      <trkpt lat="43.48212" lon="-1.56724">
        <ele>15.4</ele>
        <time>2021-09-05T08:02:44Z</time>
      </trkpt>
      <trkpt lat="43.48213" lon="-1.56731">
        <ele>15.2</ele>
        <time>2021-09-05T08:02:45Z</time>
      </trkpt>
      <trkpt lat="43.48213" lon="-1.56738">
        <ele>15</ele>
        <time>2021-09-05T08:02:46Z</time>
      </trkpt>
      <trkpt lat="43.48214" lon="-1.56746">
        <ele>14.7</ele>
        <time>2021-09-05T08:02:47Z</time>
      </trkpt>
      <trkpt lat="43.48215" lon="-1.56753">
        <ele>14.5</ele>
        <time>2021-09-05T08:02:48Z</time>
      </trkpt>
      <trkpt lat="43.48216" lon="-1.56759">
        <ele>14.4</ele>
        <time>2021-09-05T08:02:49Z</time>
      </trkpt>
      <trkpt lat="43.48217" lon="-1.56766">
        <ele>14.2</ele>
        <time>2021-09-05T08:02:50Z</time>
      </trkpt>
      <trkpt lat="43.48217" lon="-1.56773">
        <ele>14</ele>
        <time>2021-09-05T08:02:51Z</time>
      </trkpt>
      <trkpt lat="43.48217" lon="-1.5678">
        <ele>13.9</ele>
        <time>2021-09-05T08:02:52Z</time>
      </trkpt>
      <trkpt lat="43.48218" lon="-1.56786">
        <ele>13.7</ele>
        <time>2021-09-05T08:02:53Z</time>
      </trkpt>
      <trkpt lat="43.48217" lon="-1.56792">
        <ele>13.6</ele>
        <time>2021-09-05T08:02:54Z</time>
      </trkpt>
      <trkpt lat="43.48217" lon="-1.56798">
        <ele>13.5</ele>
        <time>2021-09-05T08:02:55Z</time>
      </trkpt>
      <trkpt lat="43.48218" lon="-1.56804">
        <ele>13.4</ele>
        <time>2021-09-05T08:02:56Z</time>
      </trkpt>
      <trkpt lat="43.48219" lon="-1.56811">
        <ele>13.2</ele>
        <time>2021-09-05T08:02:57Z</time>
      </trkpt>
      <trkpt lat="43.48218" lon="-1.56817">
        <ele>13.1</ele>
        <time>2021-09-05T08:02:58Z</time>
      </trkpt>
      <trkpt lat="43.48217" lon="-1.56822">
        <ele>13.1</ele>
        <time>2021-09-05T08:02:59Z</time>
      </trkpt>
      <trkpt lat="43.48215" lon="-1.56827">
        <ele>13</ele>
        <time>2021-09-05T08:03:00Z</time>
      </trkpt>
      <trkpt lat="43.48213" lon="-1.56831">
        <ele>12.9</ele>
        <time>2021-09-05T08:03:01Z</time>
      </trkpt>
      <trkpt lat="43.48211" lon="-1.56835">
        <ele>12.8</ele>
        <time>2021-09-05T08:03:02Z</time>
      </trkpt>
      <trkpt lat="43.48208" lon="-1.56839">
        <ele>12.7</ele>
        <time>2021-09-05T08:03:03Z</time>
      </trkpt>
      <trkpt lat="43.48206" lon="-1.56843">
        <ele>12.6</ele>
        <time>2021-09-05T08:03:04Z</time>
      </trkpt>
      <trkpt lat="43.48204" lon="-1.56846">
        <ele>12.5</ele>
        <time>2021-09-05T08:03:05Z</time>
      </trkpt>
      <trkpt lat="43.48202" lon="-1.56848">
        <ele>12.4</ele>
        <time>2021-09-05T08:03:06Z</time>
      </trkpt>
      <trkpt lat="43.48199" lon="-1.56851">
        <ele>12.4</ele>
        <time>2021-09-05T08:03:07Z</time>
      </trkpt>
      <trkpt lat="43.48197" lon="-1.56853">
        <ele>12.3</ele>
        <time>2021-09-05T08:03:08Z</time>
      </trkpt>
      <trkpt lat="43.48193" lon="-1.56856">
        <ele>12.1</ele>
        <time>2021-09-05T08:03:09Z</time>
      </trkpt>
      <trkpt lat="43.48189" lon="-1.56858">
        <ele>12</ele>
        <time>2021-09-05T08:03:10Z</time>
      </trkpt>
      <trkpt lat="43.48186" lon="-1.56861">
        <ele>11.9</ele>
        <time>2021-09-05T08:03:11Z</time>
      </trkpt>
      <trkpt lat="43.48183" lon="-1.56864">
        <ele>11.8</ele>
        <time>2021-09-05T08:03:12Z</time>
      </trkpt>
      <trkpt lat="43.4818" lon="-1.56867">
        <ele>11.7</ele>
        <time>2021-09-05T08:03:13Z</time>
      </trkpt>
      <trkpt lat="43.48176" lon="-1.5687">
        <ele>11.5</ele>
        <time>2021-09-05T08:03:14Z</time>
      </trkpt>
      <trkpt lat="43.48172" lon="-1.56873">
        <ele>11.4</ele>
        <time>2021-09-05T08:03:15Z</time>
      </trkpt>
      <trkpt lat="43.48168" lon="-1.56875">
        <ele>11.2</ele>
        <time>2021-09-05T08:03:16Z</time>
      </trkpt>
      <trkpt lat="43.48165" lon="-1.56878">
        <ele>11</ele>
        <time>2021-09-05T08:03:17Z</time>
      </trkpt>
      <trkpt lat="43.48161" lon="-1.5688">
        <ele>10.9</ele>
        <time>2021-09-05T08:03:18Z</time>
      </trkpt>
      <trkpt lat="43.48157" lon="-1.56882">
        <ele>10.7</ele>
        <time>2021-09-05T08:03:19Z</time>
      </trkpt>
      <trkpt lat="43.48153" lon="-1.56882">
        <ele>10.5</ele>
        <time>2021-09-05T08:03:20Z</time>
      </trkpt>
      <trkpt lat="43.48149" lon="-1.56882">
        <ele>10.2</ele>
        <time>2021-09-05T08:03:21Z</time>
      </trkpt>
      <trkpt lat="43.48144" lon="-1.56881">
        <ele>10</ele>
        <time>2021-09-05T08:03:22Z</time>
      </trkpt>
      <trkpt lat="43.48141" lon="-1.56879">
        <ele>9.8</ele>
        <time>2021-09-05T08:03:23Z</time>
      </trkpt>
      <trkpt lat="43.48138" lon="-1.56877">
        <ele>9.6</ele>
        <time>2021-09-05T08:03:24Z</time>
      </trkpt>
      <trkpt lat="43.48135" lon="-1.56874">
        <ele>9.5</ele>
        <time>2021-09-05T08:03:25Z</time>
      </trkpt>
      <trkpt lat="43.48133" lon="-1.56871">
        <ele>9.3</ele>
        <time>2021-09-05T08:03:26Z</time>
      </trkpt>
      <trkpt lat="43.48131" lon="-1.56867">
        <ele>9.2</ele>
        <time>2021-09-05T08:03:27Z</time>
      </trkpt>
      <trkpt lat="43.48129" lon="-1.56862">
        <ele>9.1</ele>
        <time>2021-09-05T08:03:28Z</time>
      </trkpt>
      <trkpt lat="43.48128" lon="-1.56856">
        <ele>9</ele>
        <time>2021-09-05T08:03:29Z</time>
      </trkpt>
      <trkpt lat="43.48127" lon="-1.56851">
        <ele>8.9</ele>
        <time>2021-09-05T08:03:30Z</time>
      </trkpt>
      <trkpt lat="43.48126" lon="-1.56847">
        <ele>8.9</ele>
        <time>2021-09-05T08:03:31Z</time>
      </trkpt>
      <trkpt lat="43.48125" lon="-1.56841">
        <ele>8.8</ele>
        <time>2021-09-05T08:03:32Z</time>
      </trkpt>
      <trkpt lat="43.48124" lon="-1.56835">
        <ele>8.8</ele>
        <time>2021-09-05T08:03:33Z</time>
      </trkpt>
      <trkpt lat="43.48123" lon="-1.5683">
        <ele>8.8</ele>
        <time>2021-09-05T08:03:34Z</time>
      </trkpt>
      <trkpt lat="43.48121" lon="-1.56824">
        <ele>8.7</ele>
        <time>2021-09-05T08:03:35Z</time>
      </trkpt>
      <trkpt lat="43.4812" lon="-1.56819">
        <ele>8.7</ele>
        <time>2021-09-05T08:03:36Z</time>
      </trkpt>
      <trkpt lat="43.48119" lon="-1.56813">
        <ele>8.7</ele>
        <time>2021-09-05T08:03:37Z</time>
      </trkpt>
      <trkpt lat="43.48117" lon="-1.56807">
        <ele>8.7</ele>
        <time>2021-09-05T08:03:38Z</time>
      </trkpt>
      <trkpt lat="43.48116" lon="-1.56801">
        <ele>8.7</ele>
        <time>2021-09-05T08:03:39Z</time>
      </trkpt>
      <trkpt lat="43.48115" lon="-1.56796">
        <ele>8.7</ele>
        <time>2021-09-05T08:03:40Z</time>
      </trkpt>
      <trkpt lat="43.48113" lon="-1.56791">
        <ele>8.7</ele>
        <time>2021-09-05T08:03:41Z</time>
      </trkpt>
      <trkpt lat="43.48111" lon="-1.56785">
        <ele>8.7</ele>
        <time>2021-09-05T08:03:42Z</time>
      </trkpt>
      <trkpt lat="43.48109" lon="-1.5678">
        <ele>8.7</ele>
        <time>2021-09-05T08:03:43Z</time>
      </trkpt>
      <trkpt lat="43.48108" lon="-1.56774">
        <ele>8.7</ele>
        <time>2021-09-05T08:03:44Z</time>
      </trkpt>
      <trkpt lat="43.48106" lon="-1.56769">
        <ele>8.7</ele>
        <time>2021-09-05T08:03:45Z</time>
      </trkpt>
      <trkpt lat="43.48105" lon="-1.56764">
        <ele>8.7</ele>
        <time>2021-09-05T08:03:46Z</time>
      </trkpt>
      <trkpt lat="43.48103" lon="-1.56759">
        <ele>8.7</ele>
        <time>2021-09-05T08:03:47Z</time>
      </trkpt>
      <trkpt lat="43.48101" lon="-1.56754">
        <ele>8.7</ele>
        <time>2021-09-05T08:03:48Z</time>
      </trkpt>
      <trkpt lat="43.48101" lon="-1.56749">
        <ele>8.7</ele>
        <time>2021-09-05T08:03:49Z</time>
      </trkpt>
      <trkpt lat="43.48099" lon="-1.56743">
        <ele>8.7</ele>
        <time>2021-09-05T08:03:50Z</time>
      </trkpt>
      <trkpt lat="43.48098" lon="-1.56738">
        <ele>8.7</ele>
        <time>2021-09-05T08:03:51Z</time>
      </trkpt>
      <trkpt lat="43.48096" lon="-1.56732">
        <ele>8.7</ele>
        <time>2021-09-05T08:03:52Z</time>
      </trkpt>
      <trkpt lat="43.48093" lon="-1.56726">
        <ele>8.8</ele>
        <time>2021-09-05T08:03:53Z</time>
      </trkpt>
      <trkpt lat="43.48092" lon="-1.56721">
        <ele>8.8</ele>
        <time>2021-09-05T08:03:54Z</time>
      </trkpt>
      <trkpt lat="43.4809" lon="-1.56716">
        <ele>8.8</ele>
        <time>2021-09-05T08:03:55Z</time>
      </trkpt>
      <trkpt lat="43.48088" lon="-1.56711">
        <ele>8.8</ele>
        <time>2021-09-05T08:03:56Z</time>
      </trkpt>
      <trkpt lat="43.48085" lon="-1.56705">
        <ele>8.8</ele>
        <time>2021-09-05T08:03:57Z</time>
      </trkpt>
      <trkpt lat="43.48083" lon="-1.567">
        <ele>8.8</ele>
        <time>2021-09-05T08:03:58Z</time>
      </trkpt>
      <trkpt lat="43.48081" lon="-1.56695">
        <ele>8.8</ele>
        <time>2021-09-05T08:03:59Z</time>
      </trkpt>
      <trkpt lat="43.48079" lon="-1.5669">
        <ele>8.8</ele>
        <time>2021-09-05T08:04:00Z</time>
      </trkpt>
      <trkpt lat="43.48077" lon="-1.56684">
        <ele>8.8</ele>
        <time>2021-09-05T08:04:01Z</time>
      </trkpt>
      <trkpt lat="43.48076" lon="-1.56679">
        <ele>8.8</ele>
        <time>2021-09-05T08:04:02Z</time>
      </trkpt>
      <trkpt lat="43.48073" lon="-1.56674">
        <ele>8.8</ele>
        <time>2021-09-05T08:04:03Z</time>
      </trkpt>
      <trkpt lat="43.48071" lon="-1.56669">
        <ele>8.8</ele>
        <time>2021-09-05T08:04:04Z</time>
      </trkpt>
      <trkpt lat="43.48069" lon="-1.56665">
        <ele>8.8</ele>
        <time>2021-09-05T08:04:05Z</time>
      </trkpt>
      <trkpt lat="43.48066" lon="-1.5666">
        <ele>8.8</ele>
        <time>2021-09-05T08:04:06Z</time>
      </trkpt>
      <trkpt lat="43.48063" lon="-1.56656">
        <ele>8.8</ele>
        <time>2021-09-05T08:04:07Z</time>
      </trkpt>
      <trkpt lat="43.4806" lon="-1.56652">
        <ele>8.8</ele>
        <time>2021-09-05T08:04:08Z</time>
      </trkpt>
      <trkpt lat="43.48057" lon="-1.56648">
        <ele>8.8</ele>
        <time>2021-09-05T08:04:09Z</time>
      </trkpt>
      <trkpt lat="43.48053" lon="-1.56645">
        <ele>8.7</ele>
        <time>2021-09-05T08:04:10Z</time>
      </trkpt>
      <trkpt lat="43.4805" lon="-1.56642">
        <ele>8.7</ele>
        <time>2021-09-05T08:04:11Z</time>
      </trkpt>
      <trkpt lat="43.48047" lon="-1.56639">
        <ele>8.7</ele>
        <time>2021-09-05T08:04:12Z</time>
      </trkpt>
      <trkpt lat="43.48044" lon="-1.56637">
        <ele>8.7</ele>
        <time>2021-09-05T08:04:13Z</time>
      </trkpt>
      <trkpt lat="43.4804" lon="-1.56634">
        <ele>8.7</ele>
        <time>2021-09-05T08:04:14Z</time>
      </trkpt>
      <trkpt lat="43.48035" lon="-1.56631">
        <ele>8.7</ele>
        <time>2021-09-05T08:04:15Z</time>
      </trkpt>
      <trkpt lat="43.48031" lon="-1.5663">
        <ele>8.7</ele>
        <time>2021-09-05T08:04:16Z</time>
      </trkpt>
      <trkpt lat="43.48027" lon="-1.56629">
        <ele>8.7</ele>
        <time>2021-09-05T08:04:17Z</time>
      </trkpt>
      <trkpt lat="43.48022" lon="-1.56628">
        <ele>8.7</ele>
        <time>2021-09-05T08:04:18Z</time>
      </trkpt>
      <trkpt lat="43.48018" lon="-1.56627">
        <ele>8.7</ele>
        <time>2021-09-05T08:04:19Z</time>
      </trkpt>
      <trkpt lat="43.48013" lon="-1.56627">
        <ele>8.7</ele>
        <time>2021-09-05T08:04:20Z</time>
      </trkpt>
      <trkpt lat="43.48008" lon="-1.56626">
        <ele>8.6</ele>
        <time>2021-09-05T08:04:21Z</time>
      </trkpt>
      <trkpt lat="43.48004" lon="-1.56626">
        <ele>8.6</ele>
        <time>2021-09-05T08:04:22Z</time>
      </trkpt>
      <trkpt lat="43.48" lon="-1.56627">
        <ele>8.6</ele>
        <time>2021-09-05T08:04:23Z</time>
      </trkpt>
      <trkpt lat="43.47996" lon="-1.56627">
        <ele>8.6</ele>
        <time>2021-09-05T08:04:24Z</time>
      </trkpt>
      <trkpt lat="43.47992" lon="-1.56627">
        <ele>8.6</ele>
        <time>2021-09-05T08:04:25Z</time>
      </trkpt>
      <trkpt lat="43.47988" lon="-1.56627">
        <ele>8.6</ele>
        <time>2021-09-05T08:04:26Z</time>
      </trkpt>
      <trkpt lat="43.47983" lon="-1.56626">
        <ele>8.6</ele>
        <time>2021-09-05T08:04:27Z</time>
      </trkpt>
      <trkpt lat="43.47979" lon="-1.56626">
        <ele>8.6</ele>
        <time>2021-09-05T08:04:28Z</time>
      </trkpt>
      <trkpt lat="43.47975" lon="-1.56627">
        <ele>8.6</ele>
        <time>2021-09-05T08:04:29Z</time>
      </trkpt>
      <trkpt lat="43.47971" lon="-1.56627">
        <ele>8.6</ele>
        <time>2021-09-05T08:04:30Z</time>
      </trkpt>
      <trkpt lat="43.47967" lon="-1.56628">
        <ele>8.6</ele>
        <time>2021-09-05T08:04:31Z</time>
      </trkpt>
      <trkpt lat="43.47963" lon="-1.5663">
        <ele>8.6</ele>
        <time>2021-09-05T08:04:32Z</time>
      </trkpt>
      <trkpt lat="43.47959" lon="-1.5663">
        <ele>8.6</ele>
        <time>2021-09-05T08:04:33Z</time>
      </trkpt>
      <trkpt lat="43.47955" lon="-1.56631">
        <ele>8.7</ele>
        <time>2021-09-05T08:04:34Z</time>
      </trkpt>
      <trkpt lat="43.4795" lon="-1.56631">
        <ele>8.7</ele>
        <time>2021-09-05T08:04:35Z</time>
      </trkpt>
      <trkpt lat="43.47946" lon="-1.56631">
        <ele>8.7</ele>
        <time>2021-09-05T08:04:36Z</time>
      </trkpt>
      <trkpt lat="43.47941" lon="-1.56632">
        <ele>8.7</ele>
        <time>2021-09-05T08:04:37Z</time>
      </trkpt>
      <trkpt lat="43.47937" lon="-1.56632">
        <ele>8.7</ele>
        <time>2021-09-05T08:04:38Z</time>
      </trkpt>
      <trkpt lat="43.47933" lon="-1.56632">
        <ele>8.7</ele>
        <time>2021-09-05T08:04:39Z</time>
      </trkpt>
      <trkpt lat="43.47929" lon="-1.56633">
        <ele>8.7</ele>
        <time>2021-09-05T08:04:40Z</time>
      </trkpt>
      <trkpt lat="43.47924" lon="-1.56634">
        <ele>8.7</ele>
        <time>2021-09-05T08:04:41Z</time>
      </trkpt>
      <trkpt lat="43.4792" lon="-1.56635">
        <ele>8.7</ele>
        <time>2021-09-05T08:04:42Z</time>
      </trkpt>
      <trkpt lat="43.47916" lon="-1.56636">
        <ele>8.7</ele>
        <time>2021-09-05T08:04:43Z</time>
      </trkpt>
      <trkpt lat="43.47912" lon="-1.56637">
        <ele>8.7</ele>
        <time>2021-09-05T08:04:44Z</time>
      </trkpt>
      <trkpt lat="43.47907" lon="-1.56638">
        <ele>8.7</ele>
        <time>2021-09-05T08:04:45Z</time>
      </trkpt>
      <trkpt lat="43.47903" lon="-1.56638">
        <ele>8.7</ele>
        <time>2021-09-05T08:04:46Z</time>
      </trkpt>
      <trkpt lat="43.47899" lon="-1.56639">
        <ele>8.6</ele>
        <time>2021-09-05T08:04:47Z</time>
      </trkpt>
      <trkpt lat="43.47895" lon="-1.56639">
        <ele>8.6</ele>
        <time>2021-09-05T08:04:48Z</time>
      </trkpt>
      <trkpt lat="43.4789" lon="-1.56639">
        <ele>8.6</ele>
        <time>2021-09-05T08:04:49Z</time>
      </trkpt>
      <trkpt lat="43.47886" lon="-1.5664">
        <ele>8.6</ele>
        <time>2021-09-05T08:04:50Z</time>
      </trkpt>
      <trkpt lat="43.47881" lon="-1.5664">
        <ele>8.7</ele>
        <time>2021-09-05T08:04:51Z</time>
      </trkpt>
      <trkpt lat="43.47877" lon="-1.56641">
        <ele>8.7</ele>
        <time>2021-09-05T08:04:52Z</time>
      </trkpt>
      <trkpt lat="43.47874" lon="-1.56642">
        <ele>8.7</ele>
        <time>2021-09-05T08:04:53Z</time>
      </trkpt>
      <trkpt lat="43.47869" lon="-1.56642">
        <ele>8.7</ele>
        <time>2021-09-05T08:04:54Z</time>
      </trkpt>
      <trkpt lat="43.47866" lon="-1.56643">
        <ele>8.7</ele>
        <time>2021-09-05T08:04:55Z</time>
      </trkpt>
      <trkpt lat="43.47861" lon="-1.56644">
        <ele>8.7</ele>
        <time>2021-09-05T08:04:56Z</time>
      </trkpt>
      <trkpt lat="43.47857" lon="-1.56645">
        <ele>8.7</ele>
        <time>2021-09-05T08:04:57Z</time>
      </trkpt>
      <trkpt lat="43.47853" lon="-1.56645">
        <ele>8.7</ele>
        <time>2021-09-05T08:04:58Z</time>
      </trkpt>
      <trkpt lat="43.47848" lon="-1.56647">
        <ele>8.7</ele>
        <time>2021-09-05T08:04:59Z</time>
      </trkpt>
      <trkpt lat="43.47843" lon="-1.56647">
        <ele>8.7</ele>
        <time>2021-09-05T08:05:00Z</time>
      </trkpt>
      <trkpt lat="43.47838" lon="-1.56647">
        <ele>8.7</ele>
        <time>2021-09-05T08:05:01Z</time>
      </trkpt>
      <trkpt lat="43.47834" lon="-1.56646">
        <ele>8.7</ele>
        <time>2021-09-05T08:05:02Z</time>
      </trkpt>
      <trkpt lat="43.4783" lon="-1.56647">
        <ele>8.7</ele>
        <time>2021-09-05T08:05:03Z</time>
      </trkpt>
      <trkpt lat="43.47826" lon="-1.56647">
        <ele>8.7</ele>
        <time>2021-09-05T08:05:04Z</time>
      </trkpt>
      <trkpt lat="43.47821" lon="-1.56648">
        <ele>8.7</ele>
        <time>2021-09-05T08:05:05Z</time>
      </trkpt>
      <trkpt lat="43.47817" lon="-1.5665">
        <ele>8.6</ele>
        <time>2021-09-05T08:05:06Z</time>
      </trkpt>
      <trkpt lat="43.47814" lon="-1.56651">
        <ele>8.6</ele>
        <time>2021-09-05T08:05:07Z</time>
      </trkpt>
      <trkpt lat="43.4781" lon="-1.56652">
        <ele>8.6</ele>
        <time>2021-09-05T08:05:08Z</time>
      </trkpt>
      <trkpt lat="43.47806" lon="-1.56653">
        <ele>8.6</ele>
        <time>2021-09-05T08:05:09Z</time>
      </trkpt>
      <trkpt lat="43.47802" lon="-1.56653">
        <ele>8.6</ele>
        <time>2021-09-05T08:05:10Z</time>
      </trkpt>
      <trkpt lat="43.47797" lon="-1.56654">
        <ele>8.6</ele>
        <time>2021-09-05T08:05:11Z</time>
      </trkpt>
      <trkpt lat="43.47793" lon="-1.56655">
        <ele>8.6</ele>
        <time>2021-09-05T08:05:12Z</time>
      </trkpt>
      <trkpt lat="43.47789" lon="-1.56655">
        <ele>8.6</ele>
        <time>2021-09-05T08:05:13Z</time>
      </trkpt>
      <trkpt lat="43.47785" lon="-1.56657">
        <ele>8.6</ele>
        <time>2021-09-05T08:05:14Z</time>
      </trkpt>
      <trkpt lat="43.47781" lon="-1.56658">
        <ele>8.6</ele>
        <time>2021-09-05T08:05:15Z</time>
      </trkpt>
      <trkpt lat="43.47776" lon="-1.56658">
        <ele>8.6</ele>
        <time>2021-09-05T08:05:16Z</time>
      </trkpt>
      <trkpt lat="43.47772" lon="-1.56659">
        <ele>8.6</ele>
        <time>2021-09-05T08:05:17Z</time>
      </trkpt>
      <trkpt lat="43.47768" lon="-1.56661">
        <ele>8.6</ele>
        <time>2021-09-05T08:05:18Z</time>
      </trkpt>
      <trkpt lat="43.47764" lon="-1.56663">
        <ele>8.6</ele>
        <time>2021-09-05T08:05:19Z</time>
      </trkpt>
      <trkpt lat="43.47759" lon="-1.56665">
        <ele>8.6</ele>
        <time>2021-09-05T08:05:20Z</time>
      </trkpt>
      <trkpt lat="43.47756" lon="-1.56669">
        <ele>8.6</ele>
        <time>2021-09-05T08:05:21Z</time>
      </trkpt>
      <trkpt lat="43.47752" lon="-1.56672">
        <ele>8.6</ele>
        <time>2021-09-05T08:05:22Z</time>
      </trkpt>
      <trkpt lat="43.47748" lon="-1.56675">
        <ele>8.6</ele>
        <time>2021-09-05T08:05:23Z</time>
      </trkpt>
      <trkpt lat="43.47744" lon="-1.56677">
        <ele>8.6</ele>
        <time>2021-09-05T08:05:24Z</time>
      </trkpt>
      <trkpt lat="43.4774" lon="-1.56679">
        <ele>8.6</ele>
        <time>2021-09-05T08:05:25Z</time>
      </trkpt>
      <trkpt lat="43.47736" lon="-1.56681">
        <ele>8.6</ele>
        <time>2021-09-05T08:05:26Z</time>
      </trkpt>
      <trkpt lat="43.47732" lon="-1.56682">
        <ele>8.6</ele>
        <time>2021-09-05T08:05:27Z</time>
      </trkpt>
      <trkpt lat="43.47728" lon="-1.56684">
        <ele>8.6</ele>
        <time>2021-09-05T08:05:28Z</time>
      </trkpt>
      <trkpt lat="43.47724" lon="-1.56686">
        <ele>8.7</ele>
        <time>2021-09-05T08:05:29Z</time>
      </trkpt>
      <trkpt lat="43.47719" lon="-1.56687">
        <ele>8.7</ele>
        <time>2021-09-05T08:05:30Z</time>
      </trkpt>
      <trkpt lat="43.47715" lon="-1.56689">
        <ele>8.7</ele>
        <time>2021-09-05T08:05:31Z</time>
      </trkpt>
      <trkpt lat="43.47711" lon="-1.56691">
        <ele>8.6</ele>
        <time>2021-09-05T08:05:32Z</time>
      </trkpt>
      <trkpt lat="43.47707" lon="-1.56693">
        <ele>8.6</ele>
        <time>2021-09-05T08:05:33Z</time>
      </trkpt>
      <trkpt lat="43.47703" lon="-1.56695">
        <ele>8.6</ele>
        <time>2021-09-05T08:05:34Z</time>
      </trkpt>
      <trkpt lat="43.477" lon="-1.56697">
        <ele>8.6</ele>
        <time>2021-09-05T08:05:35Z</time>
      </trkpt>
      <trkpt lat="43.47696" lon="-1.56699">
        <ele>8.6</ele>
        <time>2021-09-05T08:05:36Z</time>
      </trkpt>
      <trkpt lat="43.47692" lon="-1.56701">
        <ele>8.6</ele>
        <time>2021-09-05T08:05:37Z</time>
      </trkpt>
      <trkpt lat="43.47688" lon="-1.56703">
        <ele>8.6</ele>
        <time>2021-09-05T08:05:38Z</time>
      </trkpt>
      <trkpt lat="43.47684" lon="-1.56704">
        <ele>8.6</ele>
        <time>2021-09-05T08:05:39Z</time>
      </trkpt>
      <trkpt lat="43.4768" lon="-1.56706">
        <ele>8.6</ele>
        <time>2021-09-05T08:05:40Z</time>
      </trkpt>
      <trkpt lat="43.47676" lon="-1.56708">
        <ele>8.6</ele>
        <time>2021-09-05T08:05:41Z</time>
      </trkpt>
      <trkpt lat="43.47672" lon="-1.56709">
        <ele>8.6</ele>
        <time>2021-09-05T08:05:42Z</time>
      </trkpt>
      <trkpt lat="43.47669" lon="-1.56711">
        <ele>8.6</ele>
        <time>2021-09-05T08:05:43Z</time>
      </trkpt>
      <trkpt lat="43.47665" lon="-1.56713">
        <ele>8.6</ele>
        <time>2021-09-05T08:05:44Z</time>
      </trkpt>
      <trkpt lat="43.47661" lon="-1.56715">
        <ele>8.6</ele>
        <time>2021-09-05T08:05:45Z</time>
      </trkpt>
      <trkpt lat="43.47658" lon="-1.56716">
        <ele>8.6</ele>
        <time>2021-09-05T08:05:46Z</time>
      </trkpt>
      <trkpt lat="43.47653" lon="-1.56717">
        <ele>8.6</ele>
        <time>2021-09-05T08:05:47Z</time>
      </trkpt>
      <trkpt lat="43.4765" lon="-1.56718">
        <ele>8.6</ele>
        <time>2021-09-05T08:05:48Z</time>
      </trkpt>
      <trkpt lat="43.47645" lon="-1.56717">
        <ele>8.6</ele>
        <time>2021-09-05T08:05:49Z</time>
      </trkpt>
      <trkpt lat="43.47642" lon="-1.56716">
        <ele>8.6</ele>
        <time>2021-09-05T08:05:50Z</time>
      </trkpt>
      <trkpt lat="43.47638" lon="-1.56716">
        <ele>8.6</ele>
        <time>2021-09-05T08:05:51Z</time>
      </trkpt>
      <trkpt lat="43.47634" lon="-1.56716">
        <ele>8.6</ele>
        <time>2021-09-05T08:05:52Z</time>
      </trkpt>
      <trkpt lat="43.4763" lon="-1.56717">
        <ele>8.6</ele>
        <time>2021-09-05T08:05:53Z</time>
      </trkpt>
      <trkpt lat="43.47626" lon="-1.56718">
        <ele>8.6</ele>
        <time>2021-09-05T08:05:54Z</time>
      </trkpt>
      <trkpt lat="43.47622" lon="-1.56719">
        <ele>8.6</ele>
        <time>2021-09-05T08:05:55Z</time>
      </trkpt>
      <trkpt lat="43.47619" lon="-1.5672">
        <ele>8.7</ele>
        <time>2021-09-05T08:05:56Z</time>
      </trkpt>
      <trkpt lat="43.47615" lon="-1.56721">
        <ele>8.7</ele>
        <time>2021-09-05T08:05:57Z</time>
      </trkpt>
      <trkpt lat="43.47612" lon="-1.56723">
        <ele>8.7</ele>
        <time>2021-09-05T08:05:58Z</time>
      </trkpt>
      <trkpt lat="43.47608" lon="-1.56724">
        <ele>8.7</ele>
        <time>2021-09-05T08:05:59Z</time>
      </trkpt>
      <trkpt lat="43.47605" lon="-1.56725">
        <ele>8.7</ele>
        <time>2021-09-05T08:06:00Z</time>
      </trkpt>
      <trkpt lat="43.47601" lon="-1.56726">
        <ele>8.7</ele>
        <time>2021-09-05T08:06:01Z</time>
      </trkpt>
      <trkpt lat="43.47597" lon="-1.56727">
        <ele>8.7</ele>
        <time>2021-09-05T08:06:02Z</time>
      </trkpt>
      <trkpt lat="43.47595" lon="-1.56729">
        <ele>8.7</ele>
        <time>2021-09-05T08:06:03Z</time>
      </trkpt>
      <trkpt lat="43.47592" lon="-1.56731">
        <ele>8.7</ele>
        <time>2021-09-05T08:06:04Z</time>
      </trkpt>
      <trkpt lat="43.47589" lon="-1.56732">
        <ele>8.7</ele>
        <time>2021-09-05T08:06:05Z</time>
      </trkpt>
      <trkpt lat="43.47587" lon="-1.56733">
        <ele>8.7</ele>
        <time>2021-09-05T08:06:06Z</time>
      </trkpt>
      <trkpt lat="43.47585" lon="-1.56735">
        <ele>8.7</ele>
        <time>2021-09-05T08:06:07Z</time>
      </trkpt>
      <trkpt lat="43.47584" lon="-1.56738">
        <ele>8.7</ele>
        <time>2021-09-05T08:06:08Z</time>
      </trkpt>
      <trkpt lat="43.47584" lon="-1.56738">
        <ele>8.7</ele>
        <time>2021-09-05T08:06:09Z</time>
      </trkpt>
      <trkpt lat="43.47581" lon="-1.56741">
        <ele>8.7</ele>
        <time>2021-09-05T08:06:10Z</time>
      </trkpt>
      <trkpt lat="43.47581" lon="-1.56741">
        <ele>8.7</ele>
        <time>2021-09-05T08:06:11Z</time>
      </trkpt>
      <trkpt lat="43.4758" lon="-1.56743">
        <ele>8.7</ele>
        <time>2021-09-05T08:06:12Z</time>
      </trkpt>
      <trkpt lat="43.4758" lon="-1.56743">
        <ele>8.7</ele>
        <time>2021-09-05T08:06:13Z</time>
      </trkpt>
      <trkpt lat="43.47579" lon="-1.56745">
        <ele>8.7</ele>
        <time>2021-09-05T08:06:14Z</time>
      </trkpt>
      <trkpt lat="43.47579" lon="-1.56745">
        <ele>8.7</ele>
        <time>2021-09-05T08:06:15Z</time>
      </trkpt>
      <trkpt lat="43.47579" lon="-1.56745">
        <ele>8.7</ele>
        <time>2021-09-05T08:06:16Z</time>
      </trkpt>
    </trkseg>
  </trk>
</gpx>